<?xml version='1.0' encoding='UTF-8'?>
<gpx version="1.1" creator="https://www.komoot.de" xmlns="http://www.topografix.com/GPX/1/1" xmlns:xsi="http://www.w3.org/2001/XMLSchema-instance" xsi:schemaLocation="http://www.topografix.com/GPX/1/1 http://www.topografix.com/GPX/1/1/gpx.xsd">
  <metadata>
    <name>240317 RR Hausrunde plus</name>
    <author>
      <link href="https://www.komoot.de">
        <text>komoot</text>
        <type>text/html</type>
      </link>
    </author>
  </metadata>
  <trk>
    <name>240317 RR Hausrunde plus</name>
    <trkseg>
      <trkpt lat="48.583526" lon="10.039135">
        <ele>597.773061</ele>
        <time>2024-03-17T09:16:53.000Z</time>
      </trkpt>
      <trkpt lat="48.583575" lon="10.039287">
        <ele>597.773061</ele>
        <time>2024-03-17T09:17:08.000Z</time>
      </trkpt>
      <trkpt lat="48.583614" lon="10.039461">
        <ele>597.773061</ele>
        <time>2024-03-17T09:17:11.000Z</time>
      </trkpt>
      <trkpt lat="48.583651" lon="10.039619">
        <ele>597.773061</ele>
        <time>2024-03-17T09:17:13.000Z</time>
      </trkpt>
      <trkpt lat="48.583697" lon="10.039782">
        <ele>597.773061</ele>
        <time>2024-03-17T09:17:15.000Z</time>
      </trkpt>
      <trkpt lat="48.583752" lon="10.039941">
        <ele>597.773061</ele>
        <time>2024-03-17T09:17:17.000Z</time>
      </trkpt>
      <trkpt lat="48.583776" lon="10.040080">
        <ele>597.773061</ele>
        <time>2024-03-17T09:17:19.000Z</time>
      </trkpt>
      <trkpt lat="48.583841" lon="10.040242">
        <ele>597.773061</ele>
        <time>2024-03-17T09:17:21.000Z</time>
      </trkpt>
      <trkpt lat="48.583904" lon="10.040399">
        <ele>597.832625</ele>
        <time>2024-03-17T09:17:23.000Z</time>
      </trkpt>
      <trkpt lat="48.583968" lon="10.040564">
        <ele>598.164446</ele>
        <time>2024-03-17T09:17:25.000Z</time>
      </trkpt>
      <trkpt lat="48.584039" lon="10.040715">
        <ele>598.485833</ele>
        <time>2024-03-17T09:17:27.000Z</time>
      </trkpt>
      <trkpt lat="48.584109" lon="10.040861">
        <ele>598.798644</ele>
        <time>2024-03-17T09:17:29.000Z</time>
      </trkpt>
      <trkpt lat="48.584190" lon="10.040994">
        <ele>599.112265</ele>
        <time>2024-03-17T09:17:31.000Z</time>
      </trkpt>
      <trkpt lat="48.584270" lon="10.041135">
        <ele>599.434519</ele>
        <time>2024-03-17T09:17:33.000Z</time>
      </trkpt>
      <trkpt lat="48.584366" lon="10.041259">
        <ele>599.765662</ele>
        <time>2024-03-17T09:17:35.000Z</time>
      </trkpt>
      <trkpt lat="48.584461" lon="10.041391">
        <ele>600.104048</ele>
        <time>2024-03-17T09:17:37.000Z</time>
      </trkpt>
      <trkpt lat="48.584563" lon="10.041508">
        <ele>600.439829</ele>
        <time>2024-03-17T09:17:39.000Z</time>
      </trkpt>
      <trkpt lat="48.584672" lon="10.041609">
        <ele>600.775103</ele>
        <time>2024-03-17T09:17:41.000Z</time>
      </trkpt>
      <trkpt lat="48.584785" lon="10.041696">
        <ele>601.107661</ele>
        <time>2024-03-17T09:17:43.000Z</time>
      </trkpt>
      <trkpt lat="48.584894" lon="10.041765">
        <ele>601.417560</ele>
        <time>2024-03-17T09:17:45.000Z</time>
      </trkpt>
      <trkpt lat="48.585017" lon="10.041821">
        <ele>601.754434</ele>
        <time>2024-03-17T09:17:47.000Z</time>
      </trkpt>
      <trkpt lat="48.585143" lon="10.041854">
        <ele>602.089787</ele>
        <time>2024-03-17T09:17:49.000Z</time>
      </trkpt>
      <trkpt lat="48.585268" lon="10.041887">
        <ele>602.422555</ele>
        <time>2024-03-17T09:17:51.000Z</time>
      </trkpt>
      <trkpt lat="48.585396" lon="10.041885">
        <ele>602.330988</ele>
        <time>2024-03-17T09:17:53.000Z</time>
      </trkpt>
      <trkpt lat="48.585524" lon="10.041851">
        <ele>602.129102</ele>
        <time>2024-03-17T09:17:55.000Z</time>
      </trkpt>
      <trkpt lat="48.585651" lon="10.041815">
        <ele>601.928377</ele>
        <time>2024-03-17T09:17:57.000Z</time>
      </trkpt>
      <trkpt lat="48.585781" lon="10.041756">
        <ele>601.717526</ele>
        <time>2024-03-17T09:17:59.000Z</time>
      </trkpt>
      <trkpt lat="48.585907" lon="10.041659">
        <ele>601.497875</ele>
        <time>2024-03-17T09:18:01.000Z</time>
      </trkpt>
      <trkpt lat="48.586026" lon="10.041561">
        <ele>601.287366</ele>
        <time>2024-03-17T09:18:03.000Z</time>
      </trkpt>
      <trkpt lat="48.586142" lon="10.041423">
        <ele>601.058061</ele>
        <time>2024-03-17T09:18:05.000Z</time>
      </trkpt>
      <trkpt lat="48.586252" lon="10.041265">
        <ele>600.822351</ele>
        <time>2024-03-17T09:18:07.000Z</time>
      </trkpt>
      <trkpt lat="48.586353" lon="10.041079">
        <ele>600.575070</ele>
        <time>2024-03-17T09:18:09.000Z</time>
      </trkpt>
      <trkpt lat="48.586434" lon="10.040869">
        <ele>600.325273</ele>
        <time>2024-03-17T09:18:11.000Z</time>
      </trkpt>
      <trkpt lat="48.586504" lon="10.040649">
        <ele>600.074412</ele>
        <time>2024-03-17T09:18:13.000Z</time>
      </trkpt>
      <trkpt lat="48.586566" lon="10.040410">
        <ele>599.810611</ele>
        <time>2024-03-17T09:18:15.000Z</time>
      </trkpt>
      <trkpt lat="48.586636" lon="10.040167">
        <ele>599.516877</ele>
        <time>2024-03-17T09:18:17.000Z</time>
      </trkpt>
      <trkpt lat="48.586698" lon="10.039916">
        <ele>599.204205</ele>
        <time>2024-03-17T09:18:19.000Z</time>
      </trkpt>
      <trkpt lat="48.586760" lon="10.039659">
        <ele>598.884964</ele>
        <time>2024-03-17T09:18:21.000Z</time>
      </trkpt>
      <trkpt lat="48.586781" lon="10.039521">
        <ele>598.719713</ele>
        <time>2024-03-17T09:18:22.000Z</time>
      </trkpt>
      <trkpt lat="48.586805" lon="10.039385">
        <ele>598.555451</ele>
        <time>2024-03-17T09:18:23.000Z</time>
      </trkpt>
      <trkpt lat="48.586822" lon="10.039250">
        <ele>598.395078</ele>
        <time>2024-03-17T09:18:24.000Z</time>
      </trkpt>
      <trkpt lat="48.586839" lon="10.039107">
        <ele>598.225524</ele>
        <time>2024-03-17T09:18:25.000Z</time>
      </trkpt>
      <trkpt lat="48.586853" lon="10.038966">
        <ele>598.059135</ele>
        <time>2024-03-17T09:18:26.000Z</time>
      </trkpt>
      <trkpt lat="48.586864" lon="10.038819">
        <ele>597.886493</ele>
        <time>2024-03-17T09:18:27.000Z</time>
      </trkpt>
      <trkpt lat="48.586872" lon="10.038676">
        <ele>597.719018</ele>
        <time>2024-03-17T09:18:28.000Z</time>
      </trkpt>
      <trkpt lat="48.586878" lon="10.038534">
        <ele>597.552967</ele>
        <time>2024-03-17T09:18:29.000Z</time>
      </trkpt>
      <trkpt lat="48.586881" lon="10.038391">
        <ele>597.386004</ele>
        <time>2024-03-17T09:18:30.000Z</time>
      </trkpt>
      <trkpt lat="48.586888" lon="10.038248">
        <ele>597.218668</ele>
        <time>2024-03-17T09:18:31.000Z</time>
      </trkpt>
      <trkpt lat="48.586902" lon="10.038112">
        <ele>597.058047</ele>
        <time>2024-03-17T09:18:32.000Z</time>
      </trkpt>
      <trkpt lat="48.586923" lon="10.037978">
        <ele>596.897341</ele>
        <time>2024-03-17T09:18:33.000Z</time>
      </trkpt>
      <trkpt lat="48.586946" lon="10.037846">
        <ele>596.738044</ele>
        <time>2024-03-17T09:18:34.000Z</time>
      </trkpt>
      <trkpt lat="48.586981" lon="10.037711">
        <ele>596.568832</ele>
        <time>2024-03-17T09:18:35.000Z</time>
      </trkpt>
      <trkpt lat="48.587022" lon="10.037583">
        <ele>596.185745</ele>
        <time>2024-03-17T09:18:36.000Z</time>
      </trkpt>
      <trkpt lat="48.587127" lon="10.037366">
        <ele>595.303434</ele>
        <time>2024-03-17T09:18:38.000Z</time>
      </trkpt>
      <trkpt lat="48.587202" lon="10.037276">
        <ele>594.828379</ele>
        <time>2024-03-17T09:18:39.000Z</time>
      </trkpt>
      <trkpt lat="48.587363" lon="10.037148">
        <ele>593.925924</ele>
        <time>2024-03-17T09:18:41.000Z</time>
      </trkpt>
      <trkpt lat="48.587458" lon="10.037106">
        <ele>593.434880</ele>
        <time>2024-03-17T09:18:42.000Z</time>
      </trkpt>
      <trkpt lat="48.587549" lon="10.037081">
        <ele>592.976026</ele>
        <time>2024-03-17T09:18:43.000Z</time>
      </trkpt>
      <trkpt lat="48.587645" lon="10.037059">
        <ele>592.494319</ele>
        <time>2024-03-17T09:18:44.000Z</time>
      </trkpt>
      <trkpt lat="48.587738" lon="10.037036">
        <ele>592.026804</ele>
        <time>2024-03-17T09:18:45.000Z</time>
      </trkpt>
      <trkpt lat="48.587831" lon="10.037002">
        <ele>591.552122</ele>
        <time>2024-03-17T09:18:46.000Z</time>
      </trkpt>
      <trkpt lat="48.587922" lon="10.036949">
        <ele>591.068318</ele>
        <time>2024-03-17T09:18:47.000Z</time>
      </trkpt>
      <trkpt lat="48.588010" lon="10.036880">
        <ele>590.576515</ele>
        <time>2024-03-17T09:18:48.000Z</time>
      </trkpt>
      <trkpt lat="48.588087" lon="10.036786">
        <ele>590.085514</ele>
        <time>2024-03-17T09:18:49.000Z</time>
      </trkpt>
      <trkpt lat="48.588155" lon="10.036678">
        <ele>589.596211</ele>
        <time>2024-03-17T09:18:50.000Z</time>
      </trkpt>
      <trkpt lat="48.588218" lon="10.036559">
        <ele>589.096025</ele>
        <time>2024-03-17T09:18:51.000Z</time>
      </trkpt>
      <trkpt lat="48.588283" lon="10.036442">
        <ele>588.594624</ele>
        <time>2024-03-17T09:18:52.000Z</time>
      </trkpt>
      <trkpt lat="48.588342" lon="10.036326">
        <ele>588.114435</ele>
        <time>2024-03-17T09:18:53.000Z</time>
      </trkpt>
      <trkpt lat="48.588401" lon="10.036208">
        <ele>587.629026</ele>
        <time>2024-03-17T09:18:54.000Z</time>
      </trkpt>
      <trkpt lat="48.588458" lon="10.036087">
        <ele>587.462552</ele>
        <time>2024-03-17T09:18:55.000Z</time>
      </trkpt>
      <trkpt lat="48.588520" lon="10.035970">
        <ele>587.315481</ele>
        <time>2024-03-17T09:18:56.000Z</time>
      </trkpt>
      <trkpt lat="48.588581" lon="10.035857">
        <ele>587.172394</ele>
        <time>2024-03-17T09:18:57.001Z</time>
      </trkpt>
      <trkpt lat="48.588643" lon="10.035745">
        <ele>587.029118</ele>
        <time>2024-03-17T09:18:58.001Z</time>
      </trkpt>
      <trkpt lat="48.588709" lon="10.035638">
        <ele>586.885591</ele>
        <time>2024-03-17T09:18:59.001Z</time>
      </trkpt>
      <trkpt lat="48.588777" lon="10.035538">
        <ele>586.744895</ele>
        <time>2024-03-17T09:19:00.001Z</time>
      </trkpt>
      <trkpt lat="48.588854" lon="10.035444">
        <ele>586.598112</ele>
        <time>2024-03-17T09:19:01.001Z</time>
      </trkpt>
      <trkpt lat="48.588929" lon="10.035352">
        <ele>586.454868</ele>
        <time>2024-03-17T09:19:02.001Z</time>
      </trkpt>
      <trkpt lat="48.589008" lon="10.035268">
        <ele>586.311625</ele>
        <time>2024-03-17T09:19:03.001Z</time>
      </trkpt>
      <trkpt lat="48.589096" lon="10.035189">
        <ele>586.159835</ele>
        <time>2024-03-17T09:19:04.001Z</time>
      </trkpt>
      <trkpt lat="48.589184" lon="10.035118">
        <ele>586.011898</ele>
        <time>2024-03-17T09:19:05.001Z</time>
      </trkpt>
      <trkpt lat="48.589274" lon="10.035052">
        <ele>585.863543</ele>
        <time>2024-03-17T09:19:06.001Z</time>
      </trkpt>
      <trkpt lat="48.589367" lon="10.034986">
        <ele>585.711173</ele>
        <time>2024-03-17T09:19:07.001Z</time>
      </trkpt>
      <trkpt lat="48.589463" lon="10.034925">
        <ele>585.556729</ele>
        <time>2024-03-17T09:19:08.001Z</time>
      </trkpt>
      <trkpt lat="48.589563" lon="10.034871">
        <ele>585.399240</ele>
        <time>2024-03-17T09:19:09.001Z</time>
      </trkpt>
      <trkpt lat="48.589664" lon="10.034816">
        <ele>585.240025</ele>
        <time>2024-03-17T09:19:10.001Z</time>
      </trkpt>
      <trkpt lat="48.589763" lon="10.034776">
        <ele>585.088043</ele>
        <time>2024-03-17T09:19:11.001Z</time>
      </trkpt>
      <trkpt lat="48.589873" lon="10.034745">
        <ele>584.888373</ele>
        <time>2024-03-17T09:19:12.001Z</time>
      </trkpt>
      <trkpt lat="48.589983" lon="10.034717">
        <ele>584.150697</ele>
        <time>2024-03-17T09:19:13.001Z</time>
      </trkpt>
      <trkpt lat="48.590093" lon="10.034695">
        <ele>583.416922</ele>
        <time>2024-03-17T09:19:14.001Z</time>
      </trkpt>
      <trkpt lat="48.590204" lon="10.034676">
        <ele>582.678182</ele>
        <time>2024-03-17T09:19:15.001Z</time>
      </trkpt>
      <trkpt lat="48.590320" lon="10.034664">
        <ele>581.909272</ele>
        <time>2024-03-17T09:19:16.001Z</time>
      </trkpt>
      <trkpt lat="48.590438" lon="10.034650">
        <ele>581.126531</ele>
        <time>2024-03-17T09:19:17.001Z</time>
      </trkpt>
      <trkpt lat="48.590554" lon="10.034637">
        <ele>580.357310</ele>
        <time>2024-03-17T09:19:18.000Z</time>
      </trkpt>
      <trkpt lat="48.590672" lon="10.034616">
        <ele>579.571580</ele>
        <time>2024-03-17T09:19:19.000Z</time>
      </trkpt>
      <trkpt lat="48.590796" lon="10.034600">
        <ele>578.748579</ele>
        <time>2024-03-17T09:19:20.000Z</time>
      </trkpt>
      <trkpt lat="48.590922" lon="10.034585">
        <ele>577.912753</ele>
        <time>2024-03-17T09:19:21.000Z</time>
      </trkpt>
      <trkpt lat="48.591050" lon="10.034565">
        <ele>577.061771</ele>
        <time>2024-03-17T09:19:22.000Z</time>
      </trkpt>
      <trkpt lat="48.591178" lon="10.034547">
        <ele>576.211645</ele>
        <time>2024-03-17T09:19:23.000Z</time>
      </trkpt>
      <trkpt lat="48.591306" lon="10.034526">
        <ele>575.360203</ele>
        <time>2024-03-17T09:19:24.000Z</time>
      </trkpt>
      <trkpt lat="48.591431" lon="10.034505">
        <ele>574.528481</ele>
        <time>2024-03-17T09:19:25.000Z</time>
      </trkpt>
      <trkpt lat="48.591562" lon="10.034484">
        <ele>573.657313</ele>
        <time>2024-03-17T09:19:26.000Z</time>
      </trkpt>
      <trkpt lat="48.591691" lon="10.034457">
        <ele>572.767339</ele>
        <time>2024-03-17T09:19:27.000Z</time>
      </trkpt>
      <trkpt lat="48.591818" lon="10.034427">
        <ele>571.815955</ele>
        <time>2024-03-17T09:19:28.000Z</time>
      </trkpt>
      <trkpt lat="48.591946" lon="10.034387">
        <ele>570.848549</ele>
        <time>2024-03-17T09:19:29.000Z</time>
      </trkpt>
      <trkpt lat="48.592074" lon="10.034339">
        <ele>569.872461</ele>
        <time>2024-03-17T09:19:30.000Z</time>
      </trkpt>
      <trkpt lat="48.592200" lon="10.034277">
        <ele>568.891735</ele>
        <time>2024-03-17T09:19:31.000Z</time>
      </trkpt>
      <trkpt lat="48.592324" lon="10.034197">
        <ele>567.893894</ele>
        <time>2024-03-17T09:19:32.000Z</time>
      </trkpt>
      <trkpt lat="48.592438" lon="10.034109">
        <ele>566.946521</ele>
        <time>2024-03-17T09:19:33.000Z</time>
      </trkpt>
      <trkpt lat="48.592554" lon="10.034018">
        <ele>565.979265</ele>
        <time>2024-03-17T09:19:34.000Z</time>
      </trkpt>
      <trkpt lat="48.592672" lon="10.033906">
        <ele>564.948061</ele>
        <time>2024-03-17T09:19:35.000Z</time>
      </trkpt>
      <trkpt lat="48.592785" lon="10.033800">
        <ele>563.963804</ele>
        <time>2024-03-17T09:19:36.000Z</time>
      </trkpt>
      <trkpt lat="48.592903" lon="10.033699">
        <ele>562.960196</ele>
        <time>2024-03-17T09:19:37.000Z</time>
      </trkpt>
      <trkpt lat="48.593022" lon="10.033600">
        <ele>561.954897</ele>
        <time>2024-03-17T09:19:38.000Z</time>
      </trkpt>
      <trkpt lat="48.593146" lon="10.033503">
        <ele>560.921558</ele>
        <time>2024-03-17T09:19:39.000Z</time>
      </trkpt>
      <trkpt lat="48.593267" lon="10.033402">
        <ele>559.898570</ele>
        <time>2024-03-17T09:19:40.000Z</time>
      </trkpt>
      <trkpt lat="48.593380" lon="10.033294">
        <ele>559.045010</ele>
        <time>2024-03-17T09:19:41.000Z</time>
      </trkpt>
      <trkpt lat="48.593501" lon="10.033187">
        <ele>558.180358</ele>
        <time>2024-03-17T09:19:42.000Z</time>
      </trkpt>
      <trkpt lat="48.593622" lon="10.033076">
        <ele>557.307355</ele>
        <time>2024-03-17T09:19:43.000Z</time>
      </trkpt>
      <trkpt lat="48.593740" lon="10.032953">
        <ele>556.423279</ele>
        <time>2024-03-17T09:19:44.000Z</time>
      </trkpt>
      <trkpt lat="48.593851" lon="10.032821">
        <ele>555.552191</ele>
        <time>2024-03-17T09:19:45.000Z</time>
      </trkpt>
      <trkpt lat="48.593952" lon="10.032679">
        <ele>554.701464</ele>
        <time>2024-03-17T09:19:46.000Z</time>
      </trkpt>
      <trkpt lat="48.594058" lon="10.032529">
        <ele>553.805923</ele>
        <time>2024-03-17T09:19:47.000Z</time>
      </trkpt>
      <trkpt lat="48.594153" lon="10.032367">
        <ele>552.922644</ele>
        <time>2024-03-17T09:19:48.000Z</time>
      </trkpt>
      <trkpt lat="48.594250" lon="10.032200">
        <ele>552.015909</ele>
        <time>2024-03-17T09:19:49.000Z</time>
      </trkpt>
      <trkpt lat="48.594339" lon="10.032029">
        <ele>551.128185</ele>
        <time>2024-03-17T09:19:50.000Z</time>
      </trkpt>
      <trkpt lat="48.594416" lon="10.031847">
        <ele>550.246773</ele>
        <time>2024-03-17T09:19:51.000Z</time>
      </trkpt>
      <trkpt lat="48.594489" lon="10.031653">
        <ele>549.336196</ele>
        <time>2024-03-17T09:19:52.000Z</time>
      </trkpt>
      <trkpt lat="48.594569" lon="10.031466">
        <ele>548.512291</ele>
        <time>2024-03-17T09:19:53.000Z</time>
      </trkpt>
      <trkpt lat="48.594649" lon="10.031279">
        <ele>547.983537</ele>
        <time>2024-03-17T09:19:54.000Z</time>
      </trkpt>
      <trkpt lat="48.594735" lon="10.031098">
        <ele>547.454415</ele>
        <time>2024-03-17T09:19:55.000Z</time>
      </trkpt>
      <trkpt lat="48.594827" lon="10.030922">
        <ele>546.921809</ele>
        <time>2024-03-17T09:19:56.000Z</time>
      </trkpt>
      <trkpt lat="48.594933" lon="10.030764">
        <ele>546.387485</ele>
        <time>2024-03-17T09:19:57.000Z</time>
      </trkpt>
      <trkpt lat="48.595042" lon="10.030623">
        <ele>545.872547</ele>
        <time>2024-03-17T09:19:58.000Z</time>
      </trkpt>
      <trkpt lat="48.595160" lon="10.030498">
        <ele>545.355345</ele>
        <time>2024-03-17T09:19:59.000Z</time>
      </trkpt>
      <trkpt lat="48.595276" lon="10.030384">
        <ele>544.858708</ele>
        <time>2024-03-17T09:20:00.000Z</time>
      </trkpt>
      <trkpt lat="48.595403" lon="10.030291">
        <ele>544.352161</ele>
        <time>2024-03-17T09:20:01.000Z</time>
      </trkpt>
      <trkpt lat="48.595519" lon="10.030204">
        <ele>543.887340</ele>
        <time>2024-03-17T09:20:02.000Z</time>
      </trkpt>
      <trkpt lat="48.595637" lon="10.030124">
        <ele>543.423121</ele>
        <time>2024-03-17T09:20:03.000Z</time>
      </trkpt>
      <trkpt lat="48.595750" lon="10.030042">
        <ele>542.973185</ele>
        <time>2024-03-17T09:20:04.000Z</time>
      </trkpt>
      <trkpt lat="48.595855" lon="10.029947">
        <ele>542.533938</ele>
        <time>2024-03-17T09:20:05.000Z</time>
      </trkpt>
      <trkpt lat="48.595954" lon="10.029845">
        <ele>542.181726</ele>
        <time>2024-03-17T09:20:06.000Z</time>
      </trkpt>
      <trkpt lat="48.596044" lon="10.029726">
        <ele>542.232179</ele>
        <time>2024-03-17T09:20:07.000Z</time>
      </trkpt>
      <trkpt lat="48.596127" lon="10.029605">
        <ele>542.280833</ele>
        <time>2024-03-17T09:20:08.000Z</time>
      </trkpt>
      <trkpt lat="48.596198" lon="10.029471">
        <ele>542.328754</ele>
        <time>2024-03-17T09:20:09.000Z</time>
      </trkpt>
      <trkpt lat="48.596265" lon="10.029335">
        <ele>542.376084</ele>
        <time>2024-03-17T09:20:10.000Z</time>
      </trkpt>
      <trkpt lat="48.596322" lon="10.029196">
        <ele>542.421730</ele>
        <time>2024-03-17T09:20:11.000Z</time>
      </trkpt>
      <trkpt lat="48.596372" lon="10.029054">
        <ele>542.466627</ele>
        <time>2024-03-17T09:20:12.000Z</time>
      </trkpt>
      <trkpt lat="48.596421" lon="10.028918">
        <ele>542.509851</ele>
        <time>2024-03-17T09:20:13.000Z</time>
      </trkpt>
      <trkpt lat="48.596463" lon="10.028776">
        <ele>542.553265</ele>
        <time>2024-03-17T09:20:14.000Z</time>
      </trkpt>
      <trkpt lat="48.596506" lon="10.028640">
        <ele>542.595336</ele>
        <time>2024-03-17T09:20:15.000Z</time>
      </trkpt>
      <trkpt lat="48.596549" lon="10.028507">
        <ele>542.636653</ele>
        <time>2024-03-17T09:20:16.000Z</time>
      </trkpt>
      <trkpt lat="48.596589" lon="10.028366">
        <ele>542.679472</ele>
        <time>2024-03-17T09:20:17.000Z</time>
      </trkpt>
      <trkpt lat="48.596626" lon="10.028226">
        <ele>542.721549</ele>
        <time>2024-03-17T09:20:18.000Z</time>
      </trkpt>
      <trkpt lat="48.596662" lon="10.028085">
        <ele>542.763731</ele>
        <time>2024-03-17T09:20:19.000Z</time>
      </trkpt>
      <trkpt lat="48.596701" lon="10.027944">
        <ele>542.806386</ele>
        <time>2024-03-17T09:20:20.000Z</time>
      </trkpt>
      <trkpt lat="48.596740" lon="10.027807">
        <ele>542.848013</ele>
        <time>2024-03-17T09:20:21.000Z</time>
      </trkpt>
      <trkpt lat="48.596777" lon="10.027669">
        <ele>542.889572</ele>
        <time>2024-03-17T09:20:22.000Z</time>
      </trkpt>
      <trkpt lat="48.596813" lon="10.027529">
        <ele>542.931494</ele>
        <time>2024-03-17T09:20:23.000Z</time>
      </trkpt>
      <trkpt lat="48.596847" lon="10.027393">
        <ele>543.086036</ele>
        <time>2024-03-17T09:20:24.000Z</time>
      </trkpt>
      <trkpt lat="48.596881" lon="10.027257">
        <ele>543.243657</ele>
        <time>2024-03-17T09:20:25.000Z</time>
      </trkpt>
      <trkpt lat="48.596918" lon="10.027119">
        <ele>543.405090</ele>
        <time>2024-03-17T09:20:26.000Z</time>
      </trkpt>
      <trkpt lat="48.596952" lon="10.026984">
        <ele>543.561697</ele>
        <time>2024-03-17T09:20:27.000Z</time>
      </trkpt>
      <trkpt lat="48.596992" lon="10.026852">
        <ele>543.719106</ele>
        <time>2024-03-17T09:20:28.000Z</time>
      </trkpt>
      <trkpt lat="48.597039" lon="10.026728">
        <ele>543.874047</ele>
        <time>2024-03-17T09:20:29.000Z</time>
      </trkpt>
      <trkpt lat="48.597091" lon="10.026613">
        <ele>544.025073</ele>
        <time>2024-03-17T09:20:30.000Z</time>
      </trkpt>
      <trkpt lat="48.597143" lon="10.026501">
        <ele>544.173426</ele>
        <time>2024-03-17T09:20:31.000Z</time>
      </trkpt>
      <trkpt lat="48.597198" lon="10.026391">
        <ele>544.322922</ele>
        <time>2024-03-17T09:20:32.000Z</time>
      </trkpt>
      <trkpt lat="48.597255" lon="10.026279">
        <ele>544.476131</ele>
        <time>2024-03-17T09:20:33.000Z</time>
      </trkpt>
      <trkpt lat="48.597315" lon="10.026173">
        <ele>544.627388</ele>
        <time>2024-03-17T09:20:34.000Z</time>
      </trkpt>
      <trkpt lat="48.597375" lon="10.026069">
        <ele>544.777005</ele>
        <time>2024-03-17T09:20:35.000Z</time>
      </trkpt>
      <trkpt lat="48.597494" lon="10.025869">
        <ele>545.068659</ele>
        <time>2024-03-17T09:20:37.000Z</time>
      </trkpt>
      <trkpt lat="48.597557" lon="10.025770">
        <ele>545.217600</ele>
        <time>2024-03-17T09:20:38.000Z</time>
      </trkpt>
      <trkpt lat="48.597681" lon="10.025575">
        <ele>545.510867</ele>
        <time>2024-03-17T09:20:40.000Z</time>
      </trkpt>
      <trkpt lat="48.597803" lon="10.025390">
        <ele>545.794093</ele>
        <time>2024-03-17T09:20:42.000Z</time>
      </trkpt>
      <trkpt lat="48.597915" lon="10.025209">
        <ele>546.443874</ele>
        <time>2024-03-17T09:20:44.000Z</time>
      </trkpt>
      <trkpt lat="48.598029" lon="10.025035">
        <ele>547.265751</ele>
        <time>2024-03-17T09:20:46.000Z</time>
      </trkpt>
      <trkpt lat="48.598133" lon="10.024859">
        <ele>548.057735</ele>
        <time>2024-03-17T09:20:48.000Z</time>
      </trkpt>
      <trkpt lat="48.598236" lon="10.024699">
        <ele>548.806986</ele>
        <time>2024-03-17T09:20:50.000Z</time>
      </trkpt>
      <trkpt lat="48.598338" lon="10.024555">
        <ele>549.515032</ele>
        <time>2024-03-17T09:20:52.000Z</time>
      </trkpt>
      <trkpt lat="48.598426" lon="10.024418">
        <ele>550.155891</ele>
        <time>2024-03-17T09:20:54.000Z</time>
      </trkpt>
      <trkpt lat="48.598520" lon="10.024286">
        <ele>550.806789</ele>
        <time>2024-03-17T09:20:56.000Z</time>
      </trkpt>
      <trkpt lat="48.598611" lon="10.024159">
        <ele>551.435119</ele>
        <time>2024-03-17T09:20:58.000Z</time>
      </trkpt>
      <trkpt lat="48.598700" lon="10.024026">
        <ele>552.070016</ele>
        <time>2024-03-17T09:21:00.000Z</time>
      </trkpt>
      <trkpt lat="48.598798" lon="10.023904">
        <ele>552.714095</ele>
        <time>2024-03-17T09:21:02.000Z</time>
      </trkpt>
      <trkpt lat="48.598898" lon="10.023785">
        <ele>553.359767</ele>
        <time>2024-03-17T09:21:04.001Z</time>
      </trkpt>
      <trkpt lat="48.599001" lon="10.023667">
        <ele>554.015436</ele>
        <time>2024-03-17T09:21:06.001Z</time>
      </trkpt>
      <trkpt lat="48.599107" lon="10.023558">
        <ele>554.665852</ele>
        <time>2024-03-17T09:21:08.001Z</time>
      </trkpt>
      <trkpt lat="48.599225" lon="10.023472">
        <ele>555.217509</ele>
        <time>2024-03-17T09:21:10.000Z</time>
      </trkpt>
      <trkpt lat="48.599341" lon="10.023383">
        <ele>555.646924</ele>
        <time>2024-03-17T09:21:12.000Z</time>
      </trkpt>
      <trkpt lat="48.599448" lon="10.023300">
        <ele>556.043920</ele>
        <time>2024-03-17T09:21:14.000Z</time>
      </trkpt>
      <trkpt lat="48.599566" lon="10.023236">
        <ele>556.457763</ele>
        <time>2024-03-17T09:21:16.000Z</time>
      </trkpt>
      <trkpt lat="48.599678" lon="10.023163">
        <ele>556.860383</ele>
        <time>2024-03-17T09:21:18.000Z</time>
      </trkpt>
      <trkpt lat="48.599795" lon="10.023104">
        <ele>557.267537</ele>
        <time>2024-03-17T09:21:20.000Z</time>
      </trkpt>
      <trkpt lat="48.599915" lon="10.023056">
        <ele>557.677308</ele>
        <time>2024-03-17T09:21:22.000Z</time>
      </trkpt>
      <trkpt lat="48.600042" lon="10.023013">
        <ele>558.106943</ele>
        <time>2024-03-17T09:21:24.000Z</time>
      </trkpt>
      <trkpt lat="48.600161" lon="10.022985">
        <ele>558.504515</ele>
        <time>2024-03-17T09:21:26.000Z</time>
      </trkpt>
      <trkpt lat="48.600280" lon="10.022951">
        <ele>558.904310</ele>
        <time>2024-03-17T09:21:28.000Z</time>
      </trkpt>
      <trkpt lat="48.600417" lon="10.022931">
        <ele>559.358679</ele>
        <time>2024-03-17T09:21:30.000Z</time>
      </trkpt>
      <trkpt lat="48.600537" lon="10.022905">
        <ele>559.758871</ele>
        <time>2024-03-17T09:21:32.000Z</time>
      </trkpt>
      <trkpt lat="48.600659" lon="10.022910">
        <ele>560.161767</ele>
        <time>2024-03-17T09:21:34.000Z</time>
      </trkpt>
      <trkpt lat="48.600775" lon="10.022900">
        <ele>560.545329</ele>
        <time>2024-03-17T09:21:36.000Z</time>
      </trkpt>
      <trkpt lat="48.600891" lon="10.022911">
        <ele>560.929022</ele>
        <time>2024-03-17T09:21:38.000Z</time>
      </trkpt>
      <trkpt lat="48.601006" lon="10.022918">
        <ele>561.144275</ele>
        <time>2024-03-17T09:21:40.000Z</time>
      </trkpt>
      <trkpt lat="48.601123" lon="10.022945">
        <ele>561.358279</ele>
        <time>2024-03-17T09:21:42.000Z</time>
      </trkpt>
      <trkpt lat="48.601239" lon="10.022964">
        <ele>561.569254</ele>
        <time>2024-03-17T09:21:44.000Z</time>
      </trkpt>
      <trkpt lat="48.601350" lon="10.022993">
        <ele>561.772934</ele>
        <time>2024-03-17T09:21:46.000Z</time>
      </trkpt>
      <trkpt lat="48.601465" lon="10.023022">
        <ele>561.983744</ele>
        <time>2024-03-17T09:21:48.000Z</time>
      </trkpt>
      <trkpt lat="48.601573" lon="10.023067">
        <ele>562.186304</ele>
        <time>2024-03-17T09:21:50.000Z</time>
      </trkpt>
      <trkpt lat="48.601680" lon="10.023114">
        <ele>562.387774</ele>
        <time>2024-03-17T09:21:52.000Z</time>
      </trkpt>
      <trkpt lat="48.601796" lon="10.023166">
        <ele>562.606543</ele>
        <time>2024-03-17T09:21:54.000Z</time>
      </trkpt>
      <trkpt lat="48.601902" lon="10.023220">
        <ele>562.808793</ele>
        <time>2024-03-17T09:21:56.000Z</time>
      </trkpt>
      <trkpt lat="48.602004" lon="10.023278">
        <ele>563.005834</ele>
        <time>2024-03-17T09:21:58.000Z</time>
      </trkpt>
      <trkpt lat="48.602111" lon="10.023340">
        <ele>563.213024</ele>
        <time>2024-03-17T09:22:00.000Z</time>
      </trkpt>
      <trkpt lat="48.602204" lon="10.023404">
        <ele>563.397778</ele>
        <time>2024-03-17T09:22:02.000Z</time>
      </trkpt>
      <trkpt lat="48.602315" lon="10.023463">
        <ele>563.610522</ele>
        <time>2024-03-17T09:22:04.000Z</time>
      </trkpt>
      <trkpt lat="48.602421" lon="10.023536">
        <ele>563.821127</ele>
        <time>2024-03-17T09:22:06.000Z</time>
      </trkpt>
      <trkpt lat="48.602532" lon="10.023600">
        <ele>564.035927</ele>
        <time>2024-03-17T09:22:08.000Z</time>
      </trkpt>
      <trkpt lat="48.602616" lon="10.023681">
        <ele>564.242081</ele>
        <time>2024-03-17T09:22:10.000Z</time>
      </trkpt>
      <trkpt lat="48.602720" lon="10.023771">
        <ele>564.755423</ele>
        <time>2024-03-17T09:22:12.000Z</time>
      </trkpt>
      <trkpt lat="48.602807" lon="10.023874">
        <ele>565.228776</ele>
        <time>2024-03-17T09:22:14.000Z</time>
      </trkpt>
      <trkpt lat="48.602918" lon="10.023957">
        <ele>565.759268</ele>
        <time>2024-03-17T09:22:16.000Z</time>
      </trkpt>
      <trkpt lat="48.603013" lon="10.024062">
        <ele>566.263375</ele>
        <time>2024-03-17T09:22:18.000Z</time>
      </trkpt>
      <trkpt lat="48.603126" lon="10.024142">
        <ele>566.797903</ele>
        <time>2024-03-17T09:22:20.000Z</time>
      </trkpt>
      <trkpt lat="48.603256" lon="10.024192">
        <ele>567.372567</ele>
        <time>2024-03-17T09:22:21.999Z</time>
      </trkpt>
      <trkpt lat="48.603394" lon="10.024211">
        <ele>567.966218</ele>
        <time>2024-03-17T09:22:23.999Z</time>
      </trkpt>
      <trkpt lat="48.603520" lon="10.024200">
        <ele>568.506913</ele>
        <time>2024-03-17T09:22:25.999Z</time>
      </trkpt>
      <trkpt lat="48.603644" lon="10.024142">
        <ele>569.062972</ele>
        <time>2024-03-17T09:22:27.999Z</time>
      </trkpt>
      <trkpt lat="48.603760" lon="10.024053">
        <ele>569.620228</ele>
        <time>2024-03-17T09:22:29.999Z</time>
      </trkpt>
      <trkpt lat="48.603861" lon="10.023938">
        <ele>570.161856</ele>
        <time>2024-03-17T09:22:31.999Z</time>
      </trkpt>
      <trkpt lat="48.603957" lon="10.023825">
        <ele>570.683029</ele>
        <time>2024-03-17T09:22:33.999Z</time>
      </trkpt>
      <trkpt lat="48.604045" lon="10.023692">
        <ele>571.216030</ele>
        <time>2024-03-17T09:22:35.999Z</time>
      </trkpt>
      <trkpt lat="48.604150" lon="10.023600">
        <ele>571.735909</ele>
        <time>2024-03-17T09:22:37.999Z</time>
      </trkpt>
      <trkpt lat="48.604247" lon="10.023485">
        <ele>572.288585</ele>
        <time>2024-03-17T09:22:39.999Z</time>
      </trkpt>
      <trkpt lat="48.604331" lon="10.023354">
        <ele>572.840776</ele>
        <time>2024-03-17T09:22:41.999Z</time>
      </trkpt>
      <trkpt lat="48.604435" lon="10.023260">
        <ele>573.395233</ele>
        <time>2024-03-17T09:22:43.999Z</time>
      </trkpt>
      <trkpt lat="48.604529" lon="10.023147">
        <ele>573.944753</ele>
        <time>2024-03-17T09:22:45.999Z</time>
      </trkpt>
      <trkpt lat="48.604623" lon="10.023034">
        <ele>574.494272</ele>
        <time>2024-03-17T09:22:47.999Z</time>
      </trkpt>
      <trkpt lat="48.604714" lon="10.022924">
        <ele>575.027397</ele>
        <time>2024-03-17T09:22:49.999Z</time>
      </trkpt>
      <trkpt lat="48.604797" lon="10.022790">
        <ele>575.582999</ele>
        <time>2024-03-17T09:22:51.999Z</time>
      </trkpt>
      <trkpt lat="48.604889" lon="10.022675">
        <ele>576.129219</ele>
        <time>2024-03-17T09:22:53.999Z</time>
      </trkpt>
      <trkpt lat="48.604977" lon="10.022553">
        <ele>576.675541</ele>
        <time>2024-03-17T09:22:55.999Z</time>
      </trkpt>
      <trkpt lat="48.605065" lon="10.022433">
        <ele>577.217791</ele>
        <time>2024-03-17T09:22:57.999Z</time>
      </trkpt>
      <trkpt lat="48.605155" lon="10.022316">
        <ele>577.760912</ele>
        <time>2024-03-17T09:22:59.999Z</time>
      </trkpt>
      <trkpt lat="48.605241" lon="10.022200">
        <ele>578.288267</ele>
        <time>2024-03-17T09:23:01.999Z</time>
      </trkpt>
      <trkpt lat="48.605352" lon="10.022138">
        <ele>578.829771</ele>
        <time>2024-03-17T09:23:03.999Z</time>
      </trkpt>
      <trkpt lat="48.605448" lon="10.022074">
        <ele>579.309885</ele>
        <time>2024-03-17T09:23:05.999Z</time>
      </trkpt>
      <trkpt lat="48.605543" lon="10.022018">
        <ele>579.776488</ele>
        <time>2024-03-17T09:23:07.999Z</time>
      </trkpt>
      <trkpt lat="48.605650" lon="10.022014">
        <ele>580.330881</ele>
        <time>2024-03-17T09:23:10.000Z</time>
      </trkpt>
      <trkpt lat="48.605750" lon="10.022024">
        <ele>581.012884</ele>
        <time>2024-03-17T09:23:12.000Z</time>
      </trkpt>
      <trkpt lat="48.605848" lon="10.022066">
        <ele>581.706052</ele>
        <time>2024-03-17T09:23:14.000Z</time>
      </trkpt>
      <trkpt lat="48.605948" lon="10.022093">
        <ele>582.397329</ele>
        <time>2024-03-17T09:23:16.000Z</time>
      </trkpt>
      <trkpt lat="48.606059" lon="10.022131">
        <ele>583.171814</ele>
        <time>2024-03-17T09:23:18.000Z</time>
      </trkpt>
      <trkpt lat="48.606165" lon="10.022136">
        <ele>583.893513</ele>
        <time>2024-03-17T09:23:20.000Z</time>
      </trkpt>
      <trkpt lat="48.606273" lon="10.022181">
        <ele>584.655855</ele>
        <time>2024-03-17T09:23:22.000Z</time>
      </trkpt>
      <trkpt lat="48.606377" lon="10.022233">
        <ele>585.401269</ele>
        <time>2024-03-17T09:23:24.000Z</time>
      </trkpt>
      <trkpt lat="48.606480" lon="10.022279">
        <ele>586.132125</ele>
        <time>2024-03-17T09:23:26.000Z</time>
      </trkpt>
      <trkpt lat="48.606571" lon="10.022326">
        <ele>586.786512</ele>
        <time>2024-03-17T09:23:28.000Z</time>
      </trkpt>
      <trkpt lat="48.606673" lon="10.022389">
        <ele>587.536296</ele>
        <time>2024-03-17T09:23:30.000Z</time>
      </trkpt>
      <trkpt lat="48.606774" lon="10.022461">
        <ele>588.296148</ele>
        <time>2024-03-17T09:23:32.000Z</time>
      </trkpt>
      <trkpt lat="48.606863" lon="10.022535">
        <ele>588.987306</ele>
        <time>2024-03-17T09:23:34.000Z</time>
      </trkpt>
      <trkpt lat="48.606953" lon="10.022622">
        <ele>589.714194</ele>
        <time>2024-03-17T09:23:36.000Z</time>
      </trkpt>
      <trkpt lat="48.607041" lon="10.022706">
        <ele>590.422355</ele>
        <time>2024-03-17T09:23:38.000Z</time>
      </trkpt>
      <trkpt lat="48.607122" lon="10.022796">
        <ele>591.106347</ele>
        <time>2024-03-17T09:23:40.000Z</time>
      </trkpt>
      <trkpt lat="48.607204" lon="10.022905">
        <ele>591.849280</ele>
        <time>2024-03-17T09:23:42.000Z</time>
      </trkpt>
      <trkpt lat="48.607286" lon="10.023028">
        <ele>592.530589</ele>
        <time>2024-03-17T09:23:44.000Z</time>
      </trkpt>
      <trkpt lat="48.607368" lon="10.023162">
        <ele>593.023356</ele>
        <time>2024-03-17T09:23:46.000Z</time>
      </trkpt>
      <trkpt lat="48.607416" lon="10.023310">
        <ele>593.468257</ele>
        <time>2024-03-17T09:23:48.000Z</time>
      </trkpt>
      <trkpt lat="48.607472" lon="10.023458">
        <ele>593.928472</ele>
        <time>2024-03-17T09:23:50.000Z</time>
      </trkpt>
      <trkpt lat="48.607527" lon="10.023598">
        <ele>594.367979</ele>
        <time>2024-03-17T09:23:52.000Z</time>
      </trkpt>
      <trkpt lat="48.607570" lon="10.023735">
        <ele>594.777271</ele>
        <time>2024-03-17T09:23:54.000Z</time>
      </trkpt>
      <trkpt lat="48.607609" lon="10.023878">
        <ele>595.194754</ele>
        <time>2024-03-17T09:23:56.000Z</time>
      </trkpt>
      <trkpt lat="48.607647" lon="10.024024">
        <ele>595.618221</ele>
        <time>2024-03-17T09:23:58.000Z</time>
      </trkpt>
      <trkpt lat="48.607687" lon="10.024174">
        <ele>596.054738</ele>
        <time>2024-03-17T09:24:00.000Z</time>
      </trkpt>
      <trkpt lat="48.607731" lon="10.024318">
        <ele>596.482869</ele>
        <time>2024-03-17T09:24:02.000Z</time>
      </trkpt>
      <trkpt lat="48.607764" lon="10.024465">
        <ele>596.901848</ele>
        <time>2024-03-17T09:24:04.000Z</time>
      </trkpt>
      <trkpt lat="48.607808" lon="10.024611">
        <ele>597.334884</ele>
        <time>2024-03-17T09:24:06.000Z</time>
      </trkpt>
      <trkpt lat="48.607851" lon="10.024757">
        <ele>597.766243</ele>
        <time>2024-03-17T09:24:08.000Z</time>
      </trkpt>
      <trkpt lat="48.607893" lon="10.024910">
        <ele>598.213344</ele>
        <time>2024-03-17T09:24:10.000Z</time>
      </trkpt>
      <trkpt lat="48.607942" lon="10.025051">
        <ele>598.643244</ele>
        <time>2024-03-17T09:24:11.999Z</time>
      </trkpt>
      <trkpt lat="48.607989" lon="10.025191">
        <ele>599.066999</ele>
        <time>2024-03-17T09:24:13.999Z</time>
      </trkpt>
      <trkpt lat="48.608056" lon="10.025315">
        <ele>599.499188</ele>
        <time>2024-03-17T09:24:15.999Z</time>
      </trkpt>
      <trkpt lat="48.608111" lon="10.025437">
        <ele>599.893850</ele>
        <time>2024-03-17T09:24:17.999Z</time>
      </trkpt>
      <trkpt lat="48.608169" lon="10.025565">
        <ele>600.303800</ele>
        <time>2024-03-17T09:24:19.999Z</time>
      </trkpt>
      <trkpt lat="48.608230" lon="10.025700">
        <ele>600.735780</ele>
        <time>2024-03-17T09:24:21.999Z</time>
      </trkpt>
      <trkpt lat="48.608297" lon="10.025837">
        <ele>601.185963</ele>
        <time>2024-03-17T09:24:23.999Z</time>
      </trkpt>
      <trkpt lat="48.608356" lon="10.025985">
        <ele>601.642529</ele>
        <time>2024-03-17T09:24:25.999Z</time>
      </trkpt>
      <trkpt lat="48.608394" lon="10.026133">
        <ele>602.061972</ele>
        <time>2024-03-17T09:24:27.999Z</time>
      </trkpt>
      <trkpt lat="48.608434" lon="10.026271">
        <ele>602.460044</ele>
        <time>2024-03-17T09:24:29.999Z</time>
      </trkpt>
      <trkpt lat="48.608472" lon="10.026407">
        <ele>602.850103</ele>
        <time>2024-03-17T09:24:31.999Z</time>
      </trkpt>
      <trkpt lat="48.608513" lon="10.026548">
        <ele>603.257038</ele>
        <time>2024-03-17T09:24:33.999Z</time>
      </trkpt>
      <trkpt lat="48.608549" lon="10.026679">
        <ele>603.631825</ele>
        <time>2024-03-17T09:24:35.999Z</time>
      </trkpt>
      <trkpt lat="48.608601" lon="10.026866">
        <ele>604.167767</ele>
        <time>2024-03-17T09:24:38.999Z</time>
      </trkpt>
      <trkpt lat="48.608630" lon="10.027006">
        <ele>604.555354</ele>
        <time>2024-03-17T09:24:40.999Z</time>
      </trkpt>
      <trkpt lat="48.608677" lon="10.027145">
        <ele>604.967805</ele>
        <time>2024-03-17T09:24:42.999Z</time>
      </trkpt>
      <trkpt lat="48.608693" lon="10.027290">
        <ele>605.356173</ele>
        <time>2024-03-17T09:24:44.999Z</time>
      </trkpt>
      <trkpt lat="48.608714" lon="10.027432">
        <ele>605.740587</ele>
        <time>2024-03-17T09:24:46.999Z</time>
      </trkpt>
      <trkpt lat="48.608737" lon="10.027576">
        <ele>606.131957</ele>
        <time>2024-03-17T09:24:48.999Z</time>
      </trkpt>
      <trkpt lat="48.608758" lon="10.027717">
        <ele>606.513793</ele>
        <time>2024-03-17T09:24:50.999Z</time>
      </trkpt>
      <trkpt lat="48.608781" lon="10.027907">
        <ele>607.021352</ele>
        <time>2024-03-17T09:24:53.999Z</time>
      </trkpt>
      <trkpt lat="48.608796" lon="10.028100">
        <ele>607.523235</ele>
        <time>2024-03-17T09:24:56.999Z</time>
      </trkpt>
      <trkpt lat="48.608826" lon="10.028276">
        <ele>607.992643</ele>
        <time>2024-03-17T09:24:59.999Z</time>
      </trkpt>
      <trkpt lat="48.608855" lon="10.028458">
        <ele>608.476142</ele>
        <time>2024-03-17T09:25:02.999Z</time>
      </trkpt>
      <trkpt lat="48.608887" lon="10.028638">
        <ele>608.957528</ele>
        <time>2024-03-17T09:25:05.999Z</time>
      </trkpt>
      <trkpt lat="48.608914" lon="10.028829">
        <ele>609.461961</ele>
        <time>2024-03-17T09:25:08.999Z</time>
      </trkpt>
      <trkpt lat="48.608943" lon="10.029015">
        <ele>609.955508</ele>
        <time>2024-03-17T09:25:11.999Z</time>
      </trkpt>
      <trkpt lat="48.608989" lon="10.029202">
        <ele>610.470802</ele>
        <time>2024-03-17T09:25:15.000Z</time>
      </trkpt>
      <trkpt lat="48.609031" lon="10.029374">
        <ele>610.944342</ele>
        <time>2024-03-17T09:25:18.000Z</time>
      </trkpt>
      <trkpt lat="48.609104" lon="10.029517">
        <ele>611.410925</ele>
        <time>2024-03-17T09:25:21.000Z</time>
      </trkpt>
      <trkpt lat="48.609185" lon="10.029627">
        <ele>611.836140</ele>
        <time>2024-03-17T09:25:24.000Z</time>
      </trkpt>
      <trkpt lat="48.609285" lon="10.029689">
        <ele>612.258289</ele>
        <time>2024-03-17T09:25:27.000Z</time>
      </trkpt>
      <trkpt lat="48.609401" lon="10.029702">
        <ele>612.712630</ele>
        <time>2024-03-17T09:25:31.000Z</time>
      </trkpt>
      <trkpt lat="48.609519" lon="10.029665">
        <ele>613.183343</ele>
        <time>2024-03-17T09:25:34.000Z</time>
      </trkpt>
      <trkpt lat="48.609619" lon="10.029584">
        <ele>613.626435</ele>
        <time>2024-03-17T09:25:37.000Z</time>
      </trkpt>
      <trkpt lat="48.609712" lon="10.029461">
        <ele>614.124835</ele>
        <time>2024-03-17T09:25:40.000Z</time>
      </trkpt>
      <trkpt lat="48.609788" lon="10.029304">
        <ele>614.671208</ele>
        <time>2024-03-17T09:25:43.000Z</time>
      </trkpt>
      <trkpt lat="48.609838" lon="10.029136">
        <ele>615.188534</ele>
        <time>2024-03-17T09:25:46.000Z</time>
      </trkpt>
      <trkpt lat="48.609879" lon="10.028970">
        <ele>615.686115</ele>
        <time>2024-03-17T09:25:49.000Z</time>
      </trkpt>
      <trkpt lat="48.609917" lon="10.028794">
        <ele>616.205997</ele>
        <time>2024-03-17T09:25:52.000Z</time>
      </trkpt>
      <trkpt lat="48.609945" lon="10.028607">
        <ele>616.744380</ele>
        <time>2024-03-17T09:25:55.000Z</time>
      </trkpt>
      <trkpt lat="48.609977" lon="10.028417">
        <ele>617.294928</ele>
        <time>2024-03-17T09:25:58.000Z</time>
      </trkpt>
      <trkpt lat="48.610011" lon="10.028227">
        <ele>617.847633</ele>
        <time>2024-03-17T09:26:01.000Z</time>
      </trkpt>
      <trkpt lat="48.610044" lon="10.028034">
        <ele>618.407395</ele>
        <time>2024-03-17T09:26:04.000Z</time>
      </trkpt>
      <trkpt lat="48.610078" lon="10.027846">
        <ele>618.954680</ele>
        <time>2024-03-17T09:26:07.000Z</time>
      </trkpt>
      <trkpt lat="48.610129" lon="10.027658">
        <ele>619.525279</ele>
        <time>2024-03-17T09:26:09.999Z</time>
      </trkpt>
      <trkpt lat="48.610188" lon="10.027481">
        <ele>620.081873</ele>
        <time>2024-03-17T09:26:12.999Z</time>
      </trkpt>
      <trkpt lat="48.610237" lon="10.027366">
        <ele>620.466030</ele>
        <time>2024-03-17T09:26:14.999Z</time>
      </trkpt>
      <trkpt lat="48.610308" lon="10.027196">
        <ele>621.030637</ele>
        <time>2024-03-17T09:26:17.999Z</time>
      </trkpt>
      <trkpt lat="48.610387" lon="10.027039">
        <ele>621.599824</ele>
        <time>2024-03-17T09:26:20.999Z</time>
      </trkpt>
      <trkpt lat="48.610467" lon="10.026883">
        <ele>622.609050</ele>
        <time>2024-03-17T09:26:23.999Z</time>
      </trkpt>
      <trkpt lat="48.610551" lon="10.026730">
        <ele>623.625674</ele>
        <time>2024-03-17T09:26:26.999Z</time>
      </trkpt>
      <trkpt lat="48.610612" lon="10.026629">
        <ele>624.324967</ele>
        <time>2024-03-17T09:26:28.999Z</time>
      </trkpt>
      <trkpt lat="48.610706" lon="10.026495">
        <ele>625.323680</ele>
        <time>2024-03-17T09:26:31.999Z</time>
      </trkpt>
      <trkpt lat="48.610793" lon="10.026357">
        <ele>626.298421</ele>
        <time>2024-03-17T09:26:34.999Z</time>
      </trkpt>
      <trkpt lat="48.610889" lon="10.026226">
        <ele>627.298104</ele>
        <time>2024-03-17T09:26:37.999Z</time>
      </trkpt>
      <trkpt lat="48.610978" lon="10.026106">
        <ele>628.219952</ele>
        <time>2024-03-17T09:26:40.999Z</time>
      </trkpt>
      <trkpt lat="48.611063" lon="10.025990">
        <ele>629.105122</ele>
        <time>2024-03-17T09:26:43.999Z</time>
      </trkpt>
      <trkpt lat="48.611171" lon="10.025896">
        <ele>630.068530</ele>
        <time>2024-03-17T09:26:46.999Z</time>
      </trkpt>
      <trkpt lat="48.611258" lon="10.025855">
        <ele>630.773079</ele>
        <time>2024-03-17T09:26:48.999Z</time>
      </trkpt>
      <trkpt lat="48.611352" lon="10.025818">
        <ele>631.524062</ele>
        <time>2024-03-17T09:26:50.999Z</time>
      </trkpt>
      <trkpt lat="48.611485" lon="10.025760">
        <ele>632.594261</ele>
        <time>2024-03-17T09:26:53.999Z</time>
      </trkpt>
      <trkpt lat="48.611586" lon="10.025732">
        <ele>633.388167</ele>
        <time>2024-03-17T09:26:55.999Z</time>
      </trkpt>
      <trkpt lat="48.611685" lon="10.025704">
        <ele>634.166867</ele>
        <time>2024-03-17T09:26:57.999Z</time>
      </trkpt>
      <trkpt lat="48.611786" lon="10.025671">
        <ele>634.965777</ele>
        <time>2024-03-17T09:26:59.999Z</time>
      </trkpt>
      <trkpt lat="48.611881" lon="10.025639">
        <ele>635.457260</ele>
        <time>2024-03-17T09:27:01.999Z</time>
      </trkpt>
      <trkpt lat="48.611980" lon="10.025615">
        <ele>635.408901</ele>
        <time>2024-03-17T09:27:03.999Z</time>
      </trkpt>
      <trkpt lat="48.612070" lon="10.025580">
        <ele>635.364080</ele>
        <time>2024-03-17T09:27:05.999Z</time>
      </trkpt>
      <trkpt lat="48.612168" lon="10.025546">
        <ele>635.315584</ele>
        <time>2024-03-17T09:27:07.999Z</time>
      </trkpt>
      <trkpt lat="48.612263" lon="10.025510">
        <ele>635.268347</ele>
        <time>2024-03-17T09:27:09.999Z</time>
      </trkpt>
      <trkpt lat="48.612362" lon="10.025476">
        <ele>635.219382</ele>
        <time>2024-03-17T09:27:11.999Z</time>
      </trkpt>
      <trkpt lat="48.612464" lon="10.025447">
        <ele>635.169323</ele>
        <time>2024-03-17T09:27:13.999Z</time>
      </trkpt>
      <trkpt lat="48.612559" lon="10.025413">
        <ele>635.122237</ele>
        <time>2024-03-17T09:27:16.999Z</time>
      </trkpt>
      <trkpt lat="48.612690" lon="10.025366">
        <ele>635.057299</ele>
        <time>2024-03-17T09:27:18.999Z</time>
      </trkpt>
      <trkpt lat="48.612796" lon="10.025341">
        <ele>635.005555</ele>
        <time>2024-03-17T09:27:21.000Z</time>
      </trkpt>
      <trkpt lat="48.612902" lon="10.025312">
        <ele>634.953599</ele>
        <time>2024-03-17T09:27:23.000Z</time>
      </trkpt>
      <trkpt lat="48.613010" lon="10.025286">
        <ele>634.900852</ele>
        <time>2024-03-17T09:27:25.000Z</time>
      </trkpt>
      <trkpt lat="48.613118" lon="10.025251">
        <ele>634.847579</ele>
        <time>2024-03-17T09:27:27.000Z</time>
      </trkpt>
      <trkpt lat="48.613226" lon="10.025222">
        <ele>634.794673</ele>
        <time>2024-03-17T09:27:29.000Z</time>
      </trkpt>
      <trkpt lat="48.613342" lon="10.025197">
        <ele>634.738159</ele>
        <time>2024-03-17T09:27:31.000Z</time>
      </trkpt>
      <trkpt lat="48.613460" lon="10.025174">
        <ele>634.680774</ele>
        <time>2024-03-17T09:27:33.000Z</time>
      </trkpt>
      <trkpt lat="48.613581" lon="10.025155">
        <ele>634.622099</ele>
        <time>2024-03-17T09:27:35.000Z</time>
      </trkpt>
      <trkpt lat="48.613705" lon="10.025142">
        <ele>634.752539</ele>
        <time>2024-03-17T09:27:37.000Z</time>
      </trkpt>
      <trkpt lat="48.613827" lon="10.025127">
        <ele>634.955448</ele>
        <time>2024-03-17T09:27:39.000Z</time>
      </trkpt>
      <trkpt lat="48.613950" lon="10.025111">
        <ele>635.160100</ele>
        <time>2024-03-17T09:27:41.000Z</time>
      </trkpt>
      <trkpt lat="48.614074" lon="10.025098">
        <ele>635.366150</ele>
        <time>2024-03-17T09:27:43.000Z</time>
      </trkpt>
      <trkpt lat="48.614197" lon="10.025090">
        <ele>635.570237</ele>
        <time>2024-03-17T09:27:45.000Z</time>
      </trkpt>
      <trkpt lat="48.614322" lon="10.025076">
        <ele>635.778020</ele>
        <time>2024-03-17T09:27:47.000Z</time>
      </trkpt>
      <trkpt lat="48.614448" lon="10.025070">
        <ele>635.986995</ele>
        <time>2024-03-17T09:27:49.000Z</time>
      </trkpt>
      <trkpt lat="48.614568" lon="10.025055">
        <ele>636.186600</ele>
        <time>2024-03-17T09:27:51.000Z</time>
      </trkpt>
      <trkpt lat="48.614690" lon="10.025041">
        <ele>636.389423</ele>
        <time>2024-03-17T09:27:53.000Z</time>
      </trkpt>
      <trkpt lat="48.614810" lon="10.025024">
        <ele>636.589219</ele>
        <time>2024-03-17T09:27:55.000Z</time>
      </trkpt>
      <trkpt lat="48.614933" lon="10.025011">
        <ele>636.793616</ele>
        <time>2024-03-17T09:27:57.000Z</time>
      </trkpt>
      <trkpt lat="48.615059" lon="10.024994">
        <ele>637.003318</ele>
        <time>2024-03-17T09:27:59.000Z</time>
      </trkpt>
      <trkpt lat="48.615191" lon="10.024982">
        <ele>637.222531</ele>
        <time>2024-03-17T09:28:01.000Z</time>
      </trkpt>
      <trkpt lat="48.615320" lon="10.024966">
        <ele>637.437094</ele>
        <time>2024-03-17T09:28:03.000Z</time>
      </trkpt>
      <trkpt lat="48.615447" lon="10.024948">
        <ele>637.649548</ele>
        <time>2024-03-17T09:28:05.000Z</time>
      </trkpt>
      <trkpt lat="48.615577" lon="10.024935">
        <ele>637.869020</ele>
        <time>2024-03-17T09:28:07.000Z</time>
      </trkpt>
      <trkpt lat="48.615709" lon="10.024922">
        <ele>638.091854</ele>
        <time>2024-03-17T09:28:08.999Z</time>
      </trkpt>
      <trkpt lat="48.615842" lon="10.024912">
        <ele>638.316177</ele>
        <time>2024-03-17T09:28:10.999Z</time>
      </trkpt>
      <trkpt lat="48.615976" lon="10.024903">
        <ele>638.542132</ele>
        <time>2024-03-17T09:28:12.999Z</time>
      </trkpt>
      <trkpt lat="48.616107" lon="10.024896">
        <ele>638.762947</ele>
        <time>2024-03-17T09:28:14.999Z</time>
      </trkpt>
      <trkpt lat="48.616243" lon="10.024880">
        <ele>638.992740</ele>
        <time>2024-03-17T09:28:16.999Z</time>
      </trkpt>
      <trkpt lat="48.616379" lon="10.024859">
        <ele>639.223032</ele>
        <time>2024-03-17T09:28:18.999Z</time>
      </trkpt>
      <trkpt lat="48.616517" lon="10.024826">
        <ele>639.458389</ele>
        <time>2024-03-17T09:28:20.999Z</time>
      </trkpt>
      <trkpt lat="48.616656" lon="10.024782">
        <ele>639.697616</ele>
        <time>2024-03-17T09:28:22.999Z</time>
      </trkpt>
      <trkpt lat="48.616793" lon="10.024741">
        <ele>639.932875</ele>
        <time>2024-03-17T09:28:24.999Z</time>
      </trkpt>
      <trkpt lat="48.616930" lon="10.024693">
        <ele>640.169770</ele>
        <time>2024-03-17T09:28:26.999Z</time>
      </trkpt>
      <trkpt lat="48.617066" lon="10.024644">
        <ele>640.405280</ele>
        <time>2024-03-17T09:28:28.999Z</time>
      </trkpt>
      <trkpt lat="48.617201" lon="10.024598">
        <ele>640.647072</ele>
        <time>2024-03-17T09:28:30.999Z</time>
      </trkpt>
      <trkpt lat="48.617334" lon="10.024548">
        <ele>640.969993</ele>
        <time>2024-03-17T09:28:32.999Z</time>
      </trkpt>
      <trkpt lat="48.617472" lon="10.024501">
        <ele>641.303303</ele>
        <time>2024-03-17T09:28:34.999Z</time>
      </trkpt>
      <trkpt lat="48.617609" lon="10.024448">
        <ele>641.636506</ele>
        <time>2024-03-17T09:28:36.999Z</time>
      </trkpt>
      <trkpt lat="48.617753" lon="10.024398">
        <ele>641.984638</ele>
        <time>2024-03-17T09:28:38.999Z</time>
      </trkpt>
      <trkpt lat="48.617894" lon="10.024347">
        <ele>642.326242</ele>
        <time>2024-03-17T09:28:40.999Z</time>
      </trkpt>
      <trkpt lat="48.618043" lon="10.024302">
        <ele>642.684260</ele>
        <time>2024-03-17T09:28:42.999Z</time>
      </trkpt>
      <trkpt lat="48.618182" lon="10.024244">
        <ele>643.024018</ele>
        <time>2024-03-17T09:28:44.999Z</time>
      </trkpt>
      <trkpt lat="48.618321" lon="10.024196">
        <ele>643.359970</ele>
        <time>2024-03-17T09:28:46.999Z</time>
      </trkpt>
      <trkpt lat="48.618453" lon="10.024142">
        <ele>643.682175</ele>
        <time>2024-03-17T09:28:48.999Z</time>
      </trkpt>
      <trkpt lat="48.618588" lon="10.024079">
        <ele>644.015069</ele>
        <time>2024-03-17T09:28:50.999Z</time>
      </trkpt>
      <trkpt lat="48.618723" lon="10.023997">
        <ele>644.357855</ele>
        <time>2024-03-17T09:28:52.999Z</time>
      </trkpt>
      <trkpt lat="48.618861" lon="10.023915">
        <ele>644.707212</ele>
        <time>2024-03-17T09:28:54.999Z</time>
      </trkpt>
      <trkpt lat="48.618997" lon="10.023808">
        <ele>644.865911</ele>
        <time>2024-03-17T09:28:56.999Z</time>
      </trkpt>
      <trkpt lat="48.619136" lon="10.023696">
        <ele>644.885249</ele>
        <time>2024-03-17T09:28:58.999Z</time>
      </trkpt>
      <trkpt lat="48.619277" lon="10.023596">
        <ele>644.904370</ele>
        <time>2024-03-17T09:29:00.999Z</time>
      </trkpt>
      <trkpt lat="48.619414" lon="10.023494">
        <ele>644.923119</ele>
        <time>2024-03-17T09:29:02.999Z</time>
      </trkpt>
      <trkpt lat="48.619549" lon="10.023399">
        <ele>644.941401</ele>
        <time>2024-03-17T09:29:04.999Z</time>
      </trkpt>
      <trkpt lat="48.619677" lon="10.023309">
        <ele>644.958732</ele>
        <time>2024-03-17T09:29:06.999Z</time>
      </trkpt>
      <trkpt lat="48.619808" lon="10.023211">
        <ele>644.976676</ele>
        <time>2024-03-17T09:29:08.999Z</time>
      </trkpt>
      <trkpt lat="48.619934" lon="10.023116">
        <ele>644.993963</ele>
        <time>2024-03-17T09:29:10.999Z</time>
      </trkpt>
      <trkpt lat="48.620059" lon="10.023015">
        <ele>645.011363</ele>
        <time>2024-03-17T09:29:12.999Z</time>
      </trkpt>
      <trkpt lat="48.620183" lon="10.022910">
        <ele>645.028812</ele>
        <time>2024-03-17T09:29:14.999Z</time>
      </trkpt>
      <trkpt lat="48.620304" lon="10.022795">
        <ele>645.046358</ele>
        <time>2024-03-17T09:29:16.999Z</time>
      </trkpt>
      <trkpt lat="48.620432" lon="10.022670">
        <ele>645.065065</ele>
        <time>2024-03-17T09:29:18.999Z</time>
      </trkpt>
      <trkpt lat="48.620579" lon="10.022544">
        <ele>644.820812</ele>
        <time>2024-03-17T09:29:20.999Z</time>
      </trkpt>
      <trkpt lat="48.620723" lon="10.022399">
        <ele>644.289315</ele>
        <time>2024-03-17T09:29:22.999Z</time>
      </trkpt>
      <trkpt lat="48.620797" lon="10.022314">
        <ele>644.003833</ele>
        <time>2024-03-17T09:29:23.999Z</time>
      </trkpt>
      <trkpt lat="48.620867" lon="10.022215">
        <ele>643.709403</ele>
        <time>2024-03-17T09:29:24.999Z</time>
      </trkpt>
      <trkpt lat="48.620931" lon="10.022107">
        <ele>643.414812</ele>
        <time>2024-03-17T09:29:25.999Z</time>
      </trkpt>
      <trkpt lat="48.620993" lon="10.022006">
        <ele>643.134867</ele>
        <time>2024-03-17T09:29:27.000Z</time>
      </trkpt>
      <trkpt lat="48.621164" lon="10.021936">
        <ele>642.590569</ele>
        <time>2024-03-17T09:29:29.000Z</time>
      </trkpt>
      <trkpt lat="48.621334" lon="10.021863">
        <ele>642.047605</ele>
        <time>2024-03-17T09:29:31.000Z</time>
      </trkpt>
      <trkpt lat="48.621497" lon="10.021776">
        <ele>641.516527</ele>
        <time>2024-03-17T09:29:33.000Z</time>
      </trkpt>
      <trkpt lat="48.621589" lon="10.021733">
        <ele>641.220671</ele>
        <time>2024-03-17T09:29:34.000Z</time>
      </trkpt>
      <trkpt lat="48.621747" lon="10.021593">
        <ele>640.658069</ele>
        <time>2024-03-17T09:29:36.000Z</time>
      </trkpt>
      <trkpt lat="48.621895" lon="10.021434">
        <ele>640.100336</ele>
        <time>2024-03-17T09:29:38.000Z</time>
      </trkpt>
      <trkpt lat="48.622045" lon="10.021312">
        <ele>639.577072</ele>
        <time>2024-03-17T09:29:40.000Z</time>
      </trkpt>
      <trkpt lat="48.622191" lon="10.021187">
        <ele>639.518865</ele>
        <time>2024-03-17T09:29:42.000Z</time>
      </trkpt>
      <trkpt lat="48.622338" lon="10.021077">
        <ele>639.487457</ele>
        <time>2024-03-17T09:29:44.000Z</time>
      </trkpt>
      <trkpt lat="48.622463" lon="10.020932">
        <ele>639.457290</ele>
        <time>2024-03-17T09:29:46.000Z</time>
      </trkpt>
      <trkpt lat="48.622598" lon="10.020800">
        <ele>639.426506</ele>
        <time>2024-03-17T09:29:48.000Z</time>
      </trkpt>
      <trkpt lat="48.622731" lon="10.020675">
        <ele>639.396520</ele>
        <time>2024-03-17T09:29:50.000Z</time>
      </trkpt>
      <trkpt lat="48.622870" lon="10.020551">
        <ele>639.365617</ele>
        <time>2024-03-17T09:29:52.000Z</time>
      </trkpt>
      <trkpt lat="48.623013" lon="10.020426">
        <ele>639.333988</ele>
        <time>2024-03-17T09:29:54.000Z</time>
      </trkpt>
      <trkpt lat="48.623160" lon="10.020319">
        <ele>639.302746</ele>
        <time>2024-03-17T09:29:56.000Z</time>
      </trkpt>
      <trkpt lat="48.623311" lon="10.020202">
        <ele>639.270256</ele>
        <time>2024-03-17T09:29:58.000Z</time>
      </trkpt>
      <trkpt lat="48.623449" lon="10.020113">
        <ele>639.241526</ele>
        <time>2024-03-17T09:30:00.000Z</time>
      </trkpt>
      <trkpt lat="48.623565" lon="10.020053">
        <ele>639.218048</ele>
        <time>2024-03-17T09:30:02.000Z</time>
      </trkpt>
      <trkpt lat="48.623657" lon="10.020045">
        <ele>639.209580</ele>
        <time>2024-03-17T09:30:06.000Z</time>
      </trkpt>
      <trkpt lat="48.623786" lon="10.019977">
        <ele>639.238019</ele>
        <time>2024-03-17T09:30:08.999Z</time>
      </trkpt>
      <trkpt lat="48.623896" lon="10.019918">
        <ele>639.262315</ele>
        <time>2024-03-17T09:30:10.999Z</time>
      </trkpt>
      <trkpt lat="48.624012" lon="10.019859">
        <ele>639.287792</ele>
        <time>2024-03-17T09:30:12.999Z</time>
      </trkpt>
      <trkpt lat="48.624141" lon="10.019791">
        <ele>639.316230</ele>
        <time>2024-03-17T09:30:14.999Z</time>
      </trkpt>
      <trkpt lat="48.624283" lon="10.019730">
        <ele>639.346960</ele>
        <time>2024-03-17T09:30:16.999Z</time>
      </trkpt>
      <trkpt lat="48.624424" lon="10.019688">
        <ele>639.376877</ele>
        <time>2024-03-17T09:30:18.999Z</time>
      </trkpt>
      <trkpt lat="48.624550" lon="10.019594">
        <ele>639.406124</ele>
        <time>2024-03-17T09:30:20.999Z</time>
      </trkpt>
      <trkpt lat="48.624637" lon="10.019502">
        <ele>639.428221</ele>
        <time>2024-03-17T09:30:22.999Z</time>
      </trkpt>
      <trkpt lat="48.624729" lon="10.019587">
        <ele>639.450662</ele>
        <time>2024-03-17T09:30:23.999Z</time>
      </trkpt>
      <trkpt lat="48.624855" lon="10.019685">
        <ele>639.480156</ele>
        <time>2024-03-17T09:30:25.999Z</time>
      </trkpt>
      <trkpt lat="48.624985" lon="10.019769">
        <ele>639.509585</ele>
        <time>2024-03-17T09:30:27.999Z</time>
      </trkpt>
      <trkpt lat="48.625119" lon="10.019856">
        <ele>639.539941</ele>
        <time>2024-03-17T09:30:29.999Z</time>
      </trkpt>
      <trkpt lat="48.625247" lon="10.019934">
        <ele>639.568668</ele>
        <time>2024-03-17T09:30:31.999Z</time>
      </trkpt>
      <trkpt lat="48.625364" lon="10.020022">
        <ele>639.536932</ele>
        <time>2024-03-17T09:30:33.999Z</time>
      </trkpt>
      <trkpt lat="48.625481" lon="10.020099">
        <ele>639.469364</ele>
        <time>2024-03-17T09:30:35.999Z</time>
      </trkpt>
      <trkpt lat="48.625596" lon="10.020170">
        <ele>639.403588</ele>
        <time>2024-03-17T09:30:37.999Z</time>
      </trkpt>
      <trkpt lat="48.625712" lon="10.020238">
        <ele>639.337707</ele>
        <time>2024-03-17T09:30:39.999Z</time>
      </trkpt>
      <trkpt lat="48.625826" lon="10.020303">
        <ele>639.273191</ele>
        <time>2024-03-17T09:30:41.999Z</time>
      </trkpt>
      <trkpt lat="48.625925" lon="10.020377">
        <ele>639.214714</ele>
        <time>2024-03-17T09:30:43.999Z</time>
      </trkpt>
      <trkpt lat="48.626019" lon="10.020414">
        <ele>639.163277</ele>
        <time>2024-03-17T09:30:45.999Z</time>
      </trkpt>
      <trkpt lat="48.626115" lon="10.020175">
        <ele>639.065384</ele>
        <time>2024-03-17T09:30:46.999Z</time>
      </trkpt>
      <trkpt lat="48.626203" lon="10.019991">
        <ele>638.985887</ele>
        <time>2024-03-17T09:30:48.999Z</time>
      </trkpt>
      <trkpt lat="48.626278" lon="10.019789">
        <ele>638.904789</ele>
        <time>2024-03-17T09:30:50.999Z</time>
      </trkpt>
      <trkpt lat="48.626353" lon="10.019587">
        <ele>638.823691</ele>
        <time>2024-03-17T09:30:52.999Z</time>
      </trkpt>
      <trkpt lat="48.626436" lon="10.019377">
        <ele>638.738046</ele>
        <time>2024-03-17T09:30:54.999Z</time>
      </trkpt>
      <trkpt lat="48.626522" lon="10.019163">
        <ele>638.650381</ele>
        <time>2024-03-17T09:30:56.999Z</time>
      </trkpt>
      <trkpt lat="48.626606" lon="10.018941">
        <ele>638.450793</ele>
        <time>2024-03-17T09:30:58.999Z</time>
      </trkpt>
      <trkpt lat="48.626692" lon="10.018728">
        <ele>638.217499</ele>
        <time>2024-03-17T09:31:00.999Z</time>
      </trkpt>
      <trkpt lat="48.626778" lon="10.018522">
        <ele>637.989764</ele>
        <time>2024-03-17T09:31:02.999Z</time>
      </trkpt>
      <trkpt lat="48.626857" lon="10.018322">
        <ele>637.771990</ele>
        <time>2024-03-17T09:31:04.999Z</time>
      </trkpt>
      <trkpt lat="48.626935" lon="10.018119">
        <ele>637.552518</ele>
        <time>2024-03-17T09:31:06.999Z</time>
      </trkpt>
      <trkpt lat="48.627018" lon="10.017924">
        <ele>637.335734</ele>
        <time>2024-03-17T09:31:08.999Z</time>
      </trkpt>
      <trkpt lat="48.627110" lon="10.017734">
        <ele>637.115589</ele>
        <time>2024-03-17T09:31:10.999Z</time>
      </trkpt>
      <trkpt lat="48.627216" lon="10.017555">
        <ele>636.890955</ele>
        <time>2024-03-17T09:31:12.999Z</time>
      </trkpt>
      <trkpt lat="48.627336" lon="10.017384">
        <ele>636.657842</ele>
        <time>2024-03-17T09:31:14.999Z</time>
      </trkpt>
      <trkpt lat="48.627466" lon="10.017224">
        <ele>636.420861</ele>
        <time>2024-03-17T09:31:16.999Z</time>
      </trkpt>
      <trkpt lat="48.627607" lon="10.017073">
        <ele>636.176575</ele>
        <time>2024-03-17T09:31:18.999Z</time>
      </trkpt>
      <trkpt lat="48.627758" lon="10.016931">
        <ele>635.739847</ele>
        <time>2024-03-17T09:31:20.999Z</time>
      </trkpt>
      <trkpt lat="48.627921" lon="10.016808">
        <ele>635.180299</ele>
        <time>2024-03-17T09:31:22.999Z</time>
      </trkpt>
      <trkpt lat="48.628004" lon="10.016751">
        <ele>634.900292</ele>
        <time>2024-03-17T09:31:23.999Z</time>
      </trkpt>
      <trkpt lat="48.628089" lon="10.016704">
        <ele>634.622287</ele>
        <time>2024-03-17T09:31:24.999Z</time>
      </trkpt>
      <trkpt lat="48.628182" lon="10.016670">
        <ele>634.328375</ele>
        <time>2024-03-17T09:31:25.999Z</time>
      </trkpt>
      <trkpt lat="48.628276" lon="10.016633">
        <ele>634.030002</ele>
        <time>2024-03-17T09:31:26.999Z</time>
      </trkpt>
      <trkpt lat="48.628372" lon="10.016598">
        <ele>633.726655</ele>
        <time>2024-03-17T09:31:27.999Z</time>
      </trkpt>
      <trkpt lat="48.628472" lon="10.016567">
        <ele>633.413081</ele>
        <time>2024-03-17T09:31:28.999Z</time>
      </trkpt>
      <trkpt lat="48.628573" lon="10.016536">
        <ele>633.096496</ele>
        <time>2024-03-17T09:31:29.999Z</time>
      </trkpt>
      <trkpt lat="48.628673" lon="10.016505">
        <ele>632.782921</ele>
        <time>2024-03-17T09:31:30.999Z</time>
      </trkpt>
      <trkpt lat="48.628775" lon="10.016491">
        <ele>632.468298</ele>
        <time>2024-03-17T09:31:31.999Z</time>
      </trkpt>
      <trkpt lat="48.628870" lon="10.016479">
        <ele>632.175449</ele>
        <time>2024-03-17T09:31:33.000Z</time>
      </trkpt>
      <trkpt lat="48.629023" lon="10.016407">
        <ele>631.683235</ele>
        <time>2024-03-17T09:31:35.000Z</time>
      </trkpt>
      <trkpt lat="48.629061" lon="10.016241">
        <ele>631.326556</ele>
        <time>2024-03-17T09:31:36.000Z</time>
      </trkpt>
      <trkpt lat="48.629071" lon="10.016104">
        <ele>631.046709</ele>
        <time>2024-03-17T09:31:37.000Z</time>
      </trkpt>
      <trkpt lat="48.629120" lon="10.015949">
        <ele>630.697861</ele>
        <time>2024-03-17T09:31:39.000Z</time>
      </trkpt>
      <trkpt lat="48.629221" lon="10.016011">
        <ele>630.693371</ele>
        <time>2024-03-17T09:31:42.000Z</time>
      </trkpt>
      <trkpt lat="48.629299" lon="10.016112">
        <ele>630.912567</ele>
        <time>2024-03-17T09:31:44.000Z</time>
      </trkpt>
      <trkpt lat="48.629415" lon="10.016159">
        <ele>631.168961</ele>
        <time>2024-03-17T09:31:46.000Z</time>
      </trkpt>
      <trkpt lat="48.629543" lon="10.016162">
        <ele>631.442281</ele>
        <time>2024-03-17T09:31:48.000Z</time>
      </trkpt>
      <trkpt lat="48.629672" lon="10.016131">
        <ele>631.721157</ele>
        <time>2024-03-17T09:31:50.000Z</time>
      </trkpt>
      <trkpt lat="48.629803" lon="10.016093">
        <ele>632.005944</ele>
        <time>2024-03-17T09:31:52.000Z</time>
      </trkpt>
      <trkpt lat="48.629938" lon="10.016053">
        <ele>632.299652</ele>
        <time>2024-03-17T09:31:54.000Z</time>
      </trkpt>
      <trkpt lat="48.630068" lon="10.016010">
        <ele>632.583765</ele>
        <time>2024-03-17T09:31:56.000Z</time>
      </trkpt>
      <trkpt lat="48.630202" lon="10.015960">
        <ele>632.878434</ele>
        <time>2024-03-17T09:31:58.000Z</time>
      </trkpt>
      <trkpt lat="48.630333" lon="10.015912">
        <ele>633.166212</ele>
        <time>2024-03-17T09:32:00.000Z</time>
      </trkpt>
      <trkpt lat="48.630464" lon="10.015865">
        <ele>633.453661</ele>
        <time>2024-03-17T09:32:02.000Z</time>
      </trkpt>
      <trkpt lat="48.630602" lon="10.015820">
        <ele>633.755064</ele>
        <time>2024-03-17T09:32:04.000Z</time>
      </trkpt>
      <trkpt lat="48.630732" lon="10.015771">
        <ele>634.041105</ele>
        <time>2024-03-17T09:32:06.000Z</time>
      </trkpt>
      <trkpt lat="48.630865" lon="10.015734">
        <ele>634.329828</ele>
        <time>2024-03-17T09:32:08.000Z</time>
      </trkpt>
      <trkpt lat="48.630994" lon="10.015689">
        <ele>634.641752</ele>
        <time>2024-03-17T09:32:10.000Z</time>
      </trkpt>
      <trkpt lat="48.631130" lon="10.015648">
        <ele>634.978268</ele>
        <time>2024-03-17T09:32:12.000Z</time>
      </trkpt>
      <trkpt lat="48.631271" lon="10.015611">
        <ele>635.325538</ele>
        <time>2024-03-17T09:32:14.000Z</time>
      </trkpt>
      <trkpt lat="48.631407" lon="10.015569">
        <ele>635.662370</ele>
        <time>2024-03-17T09:32:15.999Z</time>
      </trkpt>
      <trkpt lat="48.631533" lon="10.015524">
        <ele>635.976534</ele>
        <time>2024-03-17T09:32:17.999Z</time>
      </trkpt>
      <trkpt lat="48.631670" lon="10.015483">
        <ele>636.315430</ele>
        <time>2024-03-17T09:32:19.999Z</time>
      </trkpt>
      <trkpt lat="48.631811" lon="10.015443">
        <ele>636.663554</ele>
        <time>2024-03-17T09:32:21.999Z</time>
      </trkpt>
      <trkpt lat="48.631941" lon="10.015403">
        <ele>636.985479</ele>
        <time>2024-03-17T09:32:23.999Z</time>
      </trkpt>
      <trkpt lat="48.632077" lon="10.015362">
        <ele>637.321995</ele>
        <time>2024-03-17T09:32:25.999Z</time>
      </trkpt>
      <trkpt lat="48.632219" lon="10.015317">
        <ele>637.674060</ele>
        <time>2024-03-17T09:32:27.999Z</time>
      </trkpt>
      <trkpt lat="48.632360" lon="10.015287">
        <ele>638.019588</ele>
        <time>2024-03-17T09:32:29.999Z</time>
      </trkpt>
      <trkpt lat="48.632503" lon="10.015249">
        <ele>638.371915</ele>
        <time>2024-03-17T09:32:31.999Z</time>
      </trkpt>
      <trkpt lat="48.632639" lon="10.015207">
        <ele>638.708747</ele>
        <time>2024-03-17T09:32:33.999Z</time>
      </trkpt>
      <trkpt lat="48.632773" lon="10.015177">
        <ele>638.590096</ele>
        <time>2024-03-17T09:32:35.999Z</time>
      </trkpt>
      <trkpt lat="48.632910" lon="10.015143">
        <ele>638.378119</ele>
        <time>2024-03-17T09:32:37.999Z</time>
      </trkpt>
      <trkpt lat="48.633053" lon="10.015111">
        <ele>638.157401</ele>
        <time>2024-03-17T09:32:39.999Z</time>
      </trkpt>
      <trkpt lat="48.633194" lon="10.015080">
        <ele>637.939851</ele>
        <time>2024-03-17T09:32:41.999Z</time>
      </trkpt>
      <trkpt lat="48.633338" lon="10.015052">
        <ele>637.718173</ele>
        <time>2024-03-17T09:32:43.999Z</time>
      </trkpt>
      <trkpt lat="48.633482" lon="10.015032">
        <ele>637.497379</ele>
        <time>2024-03-17T09:32:45.999Z</time>
      </trkpt>
      <trkpt lat="48.633628" lon="10.015013">
        <ele>637.273632</ele>
        <time>2024-03-17T09:32:47.999Z</time>
      </trkpt>
      <trkpt lat="48.633777" lon="10.015006">
        <ele>637.046018</ele>
        <time>2024-03-17T09:32:49.999Z</time>
      </trkpt>
      <trkpt lat="48.633928" lon="10.014998">
        <ele>636.815318</ele>
        <time>2024-03-17T09:32:51.999Z</time>
      </trkpt>
      <trkpt lat="48.634088" lon="10.014993">
        <ele>636.570966</ele>
        <time>2024-03-17T09:32:53.999Z</time>
      </trkpt>
      <trkpt lat="48.634252" lon="10.014976">
        <ele>636.319972</ele>
        <time>2024-03-17T09:32:55.999Z</time>
      </trkpt>
      <trkpt lat="48.634416" lon="10.014932">
        <ele>636.065659</ele>
        <time>2024-03-17T09:32:57.999Z</time>
      </trkpt>
      <trkpt lat="48.634593" lon="10.014870">
        <ele>635.265501</ele>
        <time>2024-03-17T09:32:59.999Z</time>
      </trkpt>
      <trkpt lat="48.634683" lon="10.014835">
        <ele>634.798750</ele>
        <time>2024-03-17T09:33:00.999Z</time>
      </trkpt>
      <trkpt lat="48.634779" lon="10.014794">
        <ele>634.297714</ele>
        <time>2024-03-17T09:33:01.999Z</time>
      </trkpt>
      <trkpt lat="48.634871" lon="10.014735">
        <ele>633.795820</ele>
        <time>2024-03-17T09:33:02.999Z</time>
      </trkpt>
      <trkpt lat="48.634967" lon="10.014666">
        <ele>633.261991</ele>
        <time>2024-03-17T09:33:03.999Z</time>
      </trkpt>
      <trkpt lat="48.635061" lon="10.014584">
        <ele>632.717000</ele>
        <time>2024-03-17T09:33:04.999Z</time>
      </trkpt>
      <trkpt lat="48.635158" lon="10.014495">
        <ele>632.147210</ele>
        <time>2024-03-17T09:33:05.999Z</time>
      </trkpt>
      <trkpt lat="48.635253" lon="10.014397">
        <ele>631.569701</ele>
        <time>2024-03-17T09:33:06.999Z</time>
      </trkpt>
      <trkpt lat="48.635341" lon="10.014287">
        <ele>630.996379</ele>
        <time>2024-03-17T09:33:07.999Z</time>
      </trkpt>
      <trkpt lat="48.635426" lon="10.014169">
        <ele>630.416982</ele>
        <time>2024-03-17T09:33:08.999Z</time>
      </trkpt>
      <trkpt lat="48.635508" lon="10.014046">
        <ele>629.837036</ele>
        <time>2024-03-17T09:33:09.999Z</time>
      </trkpt>
      <trkpt lat="48.635579" lon="10.013914">
        <ele>629.272091</ele>
        <time>2024-03-17T09:33:10.999Z</time>
      </trkpt>
      <trkpt lat="48.635647" lon="10.013779">
        <ele>628.708650</ele>
        <time>2024-03-17T09:33:11.999Z</time>
      </trkpt>
      <trkpt lat="48.635711" lon="10.013645">
        <ele>628.159850</ele>
        <time>2024-03-17T09:33:12.999Z</time>
      </trkpt>
      <trkpt lat="48.635772" lon="10.013507">
        <ele>627.608754</ele>
        <time>2024-03-17T09:33:13.999Z</time>
      </trkpt>
      <trkpt lat="48.635829" lon="10.013368">
        <ele>627.065752</ele>
        <time>2024-03-17T09:33:14.999Z</time>
      </trkpt>
      <trkpt lat="48.635886" lon="10.013232">
        <ele>626.478730</ele>
        <time>2024-03-17T09:33:15.999Z</time>
      </trkpt>
      <trkpt lat="48.635943" lon="10.013093">
        <ele>625.872570</ele>
        <time>2024-03-17T09:33:16.999Z</time>
      </trkpt>
      <trkpt lat="48.636003" lon="10.012961">
        <ele>625.278921</ele>
        <time>2024-03-17T09:33:17.999Z</time>
      </trkpt>
      <trkpt lat="48.636071" lon="10.012840">
        <ele>624.690362</ele>
        <time>2024-03-17T09:33:18.999Z</time>
      </trkpt>
      <trkpt lat="48.636139" lon="10.012719">
        <ele>624.101804</ele>
        <time>2024-03-17T09:33:19.999Z</time>
      </trkpt>
      <trkpt lat="48.636211" lon="10.012602">
        <ele>623.509405</ele>
        <time>2024-03-17T09:33:20.999Z</time>
      </trkpt>
      <trkpt lat="48.636282" lon="10.012486">
        <ele>622.923538</ele>
        <time>2024-03-17T09:33:21.999Z</time>
      </trkpt>
      <trkpt lat="48.636356" lon="10.012376">
        <ele>622.341903</ele>
        <time>2024-03-17T09:33:22.999Z</time>
      </trkpt>
      <trkpt lat="48.636426" lon="10.012260">
        <ele>621.759833</ele>
        <time>2024-03-17T09:33:23.999Z</time>
      </trkpt>
      <trkpt lat="48.636500" lon="10.012147">
        <ele>621.170356</ele>
        <time>2024-03-17T09:33:24.999Z</time>
      </trkpt>
      <trkpt lat="48.636580" lon="10.012038">
        <ele>620.566749</ele>
        <time>2024-03-17T09:33:25.999Z</time>
      </trkpt>
      <trkpt lat="48.636665" lon="10.011929">
        <ele>619.942027</ele>
        <time>2024-03-17T09:33:26.999Z</time>
      </trkpt>
      <trkpt lat="48.636755" lon="10.011825">
        <ele>619.307073</ele>
        <time>2024-03-17T09:33:27.999Z</time>
      </trkpt>
      <trkpt lat="48.636849" lon="10.011722">
        <ele>618.656333</ele>
        <time>2024-03-17T09:33:28.999Z</time>
      </trkpt>
      <trkpt lat="48.636944" lon="10.011620">
        <ele>618.003195</ele>
        <time>2024-03-17T09:33:29.999Z</time>
      </trkpt>
      <trkpt lat="48.637042" lon="10.011511">
        <ele>617.321233</ele>
        <time>2024-03-17T09:33:30.999Z</time>
      </trkpt>
      <trkpt lat="48.637141" lon="10.011396">
        <ele>616.605458</ele>
        <time>2024-03-17T09:33:31.999Z</time>
      </trkpt>
      <trkpt lat="48.637247" lon="10.011277">
        <ele>615.822480</ele>
        <time>2024-03-17T09:33:32.999Z</time>
      </trkpt>
      <trkpt lat="48.637352" lon="10.011152">
        <ele>615.029935</ele>
        <time>2024-03-17T09:33:33.999Z</time>
      </trkpt>
      <trkpt lat="48.637458" lon="10.011025">
        <ele>614.227877</ele>
        <time>2024-03-17T09:33:34.999Z</time>
      </trkpt>
      <trkpt lat="48.637563" lon="10.010896">
        <ele>613.425544</ele>
        <time>2024-03-17T09:33:35.999Z</time>
      </trkpt>
      <trkpt lat="48.637672" lon="10.010768">
        <ele>612.607062</ele>
        <time>2024-03-17T09:33:36.999Z</time>
      </trkpt>
      <trkpt lat="48.637787" lon="10.010636">
        <ele>611.750795</ele>
        <time>2024-03-17T09:33:37.999Z</time>
      </trkpt>
      <trkpt lat="48.637895" lon="10.010502">
        <ele>610.922283</ele>
        <time>2024-03-17T09:33:39.000Z</time>
      </trkpt>
      <trkpt lat="48.638004" lon="10.010368">
        <ele>610.089175</ele>
        <time>2024-03-17T09:33:40.000Z</time>
      </trkpt>
      <trkpt lat="48.638113" lon="10.010239">
        <ele>609.268287</ele>
        <time>2024-03-17T09:33:41.000Z</time>
      </trkpt>
      <trkpt lat="48.638218" lon="10.010112">
        <ele>608.470876</ele>
        <time>2024-03-17T09:33:42.000Z</time>
      </trkpt>
      <trkpt lat="48.638321" lon="10.009984">
        <ele>607.680217</ele>
        <time>2024-03-17T09:33:43.000Z</time>
      </trkpt>
      <trkpt lat="48.638420" lon="10.009855">
        <ele>606.905199</ele>
        <time>2024-03-17T09:33:44.000Z</time>
      </trkpt>
      <trkpt lat="48.638509" lon="10.009714">
        <ele>606.165796</ele>
        <time>2024-03-17T09:33:45.000Z</time>
      </trkpt>
      <trkpt lat="48.638595" lon="10.009564">
        <ele>605.613573</ele>
        <time>2024-03-17T09:33:46.000Z</time>
      </trkpt>
      <trkpt lat="48.638674" lon="10.009410">
        <ele>605.071447</ele>
        <time>2024-03-17T09:33:47.000Z</time>
      </trkpt>
      <trkpt lat="48.638740" lon="10.009237">
        <ele>604.515963</ele>
        <time>2024-03-17T09:33:48.000Z</time>
      </trkpt>
      <trkpt lat="48.638793" lon="10.009055">
        <ele>603.962906</ele>
        <time>2024-03-17T09:33:49.000Z</time>
      </trkpt>
      <trkpt lat="48.638834" lon="10.008862">
        <ele>603.399174</ele>
        <time>2024-03-17T09:33:50.000Z</time>
      </trkpt>
      <trkpt lat="48.638866" lon="10.008663">
        <ele>602.829661</ele>
        <time>2024-03-17T09:33:51.000Z</time>
      </trkpt>
      <trkpt lat="48.638902" lon="10.008467">
        <ele>602.263976</ele>
        <time>2024-03-17T09:33:52.000Z</time>
      </trkpt>
      <trkpt lat="48.638939" lon="10.008273">
        <ele>601.702496</ele>
        <time>2024-03-17T09:33:53.000Z</time>
      </trkpt>
      <trkpt lat="48.638970" lon="10.008077">
        <ele>601.142081</ele>
        <time>2024-03-17T09:33:54.000Z</time>
      </trkpt>
      <trkpt lat="48.639001" lon="10.007884">
        <ele>600.589775</ele>
        <time>2024-03-17T09:33:55.000Z</time>
      </trkpt>
      <trkpt lat="48.639033" lon="10.007696">
        <ele>600.049936</ele>
        <time>2024-03-17T09:33:56.000Z</time>
      </trkpt>
      <trkpt lat="48.639063" lon="10.007512">
        <ele>599.522940</ele>
        <time>2024-03-17T09:33:57.000Z</time>
      </trkpt>
      <trkpt lat="48.639093" lon="10.007330">
        <ele>599.001342</ele>
        <time>2024-03-17T09:33:58.000Z</time>
      </trkpt>
      <trkpt lat="48.639122" lon="10.007151">
        <ele>598.614863</ele>
        <time>2024-03-17T09:33:59.000Z</time>
      </trkpt>
      <trkpt lat="48.639143" lon="10.006974">
        <ele>598.487575</ele>
        <time>2024-03-17T09:34:00.000Z</time>
      </trkpt>
      <trkpt lat="48.639162" lon="10.006801">
        <ele>598.363442</ele>
        <time>2024-03-17T09:34:01.000Z</time>
      </trkpt>
      <trkpt lat="48.639180" lon="10.006631">
        <ele>598.241577</ele>
        <time>2024-03-17T09:34:02.000Z</time>
      </trkpt>
      <trkpt lat="48.639200" lon="10.006464">
        <ele>598.121445</ele>
        <time>2024-03-17T09:34:03.000Z</time>
      </trkpt>
      <trkpt lat="48.639217" lon="10.006303">
        <ele>598.006040</ele>
        <time>2024-03-17T09:34:04.000Z</time>
      </trkpt>
      <trkpt lat="48.639233" lon="10.006143">
        <ele>597.891499</ele>
        <time>2024-03-17T09:34:05.000Z</time>
      </trkpt>
      <trkpt lat="48.639246" lon="10.005987">
        <ele>597.780205</ele>
        <time>2024-03-17T09:34:06.000Z</time>
      </trkpt>
      <trkpt lat="48.639258" lon="10.005835">
        <ele>597.671851</ele>
        <time>2024-03-17T09:34:07.000Z</time>
      </trkpt>
      <trkpt lat="48.639268" lon="10.005684">
        <ele>597.564434</ele>
        <time>2024-03-17T09:34:08.000Z</time>
      </trkpt>
      <trkpt lat="48.639278" lon="10.005537">
        <ele>597.459835</ele>
        <time>2024-03-17T09:34:09.000Z</time>
      </trkpt>
      <trkpt lat="48.639290" lon="10.005395">
        <ele>597.358506</ele>
        <time>2024-03-17T09:34:10.000Z</time>
      </trkpt>
      <trkpt lat="48.639299" lon="10.005256">
        <ele>597.259647</ele>
        <time>2024-03-17T09:34:11.000Z</time>
      </trkpt>
      <trkpt lat="48.639309" lon="10.005117">
        <ele>597.160679</ele>
        <time>2024-03-17T09:34:12.000Z</time>
      </trkpt>
      <trkpt lat="48.639336" lon="10.004853">
        <ele>596.971590</ele>
        <time>2024-03-17T09:34:14.000Z</time>
      </trkpt>
      <trkpt lat="48.639432" lon="10.004637">
        <ele>596.787336</ele>
        <time>2024-03-17T09:34:16.000Z</time>
      </trkpt>
      <trkpt lat="48.639590" lon="10.004552">
        <ele>596.714177</ele>
        <time>2024-03-17T09:34:18.000Z</time>
      </trkpt>
      <trkpt lat="48.639755" lon="10.004535">
        <ele>596.689688</ele>
        <time>2024-03-17T09:34:20.000Z</time>
      </trkpt>
      <trkpt lat="48.639919" lon="10.004517">
        <ele>596.665340</ele>
        <time>2024-03-17T09:34:22.000Z</time>
      </trkpt>
      <trkpt lat="48.640070" lon="10.004446">
        <ele>596.641927</ele>
        <time>2024-03-17T09:34:24.000Z</time>
      </trkpt>
      <trkpt lat="48.640180" lon="10.004273">
        <ele>596.618435</ele>
        <time>2024-03-17T09:34:25.999Z</time>
      </trkpt>
      <trkpt lat="48.640236" lon="10.004054">
        <ele>596.595459</ele>
        <time>2024-03-17T09:34:27.999Z</time>
      </trkpt>
      <trkpt lat="48.640269" lon="10.003831">
        <ele>596.573099</ele>
        <time>2024-03-17T09:34:29.999Z</time>
      </trkpt>
      <trkpt lat="48.640299" lon="10.003629">
        <ele>596.552841</ele>
        <time>2024-03-17T09:34:31.999Z</time>
      </trkpt>
      <trkpt lat="48.640399" lon="10.003504">
        <ele>596.533636</ele>
        <time>2024-03-17T09:34:33.999Z</time>
      </trkpt>
      <trkpt lat="48.640535" lon="10.003497">
        <ele>596.513486</ele>
        <time>2024-03-17T09:34:35.999Z</time>
      </trkpt>
      <trkpt lat="48.640653" lon="10.003411">
        <ele>596.494093</ele>
        <time>2024-03-17T09:34:36.999Z</time>
      </trkpt>
      <trkpt lat="48.640574" lon="10.003250">
        <ele>596.474471</ele>
        <time>2024-03-17T09:34:37.999Z</time>
      </trkpt>
      <trkpt lat="48.640562" lon="10.003050">
        <ele>596.660132</ele>
        <time>2024-03-17T09:34:39.999Z</time>
      </trkpt>
      <trkpt lat="48.640556" lon="10.002852">
        <ele>597.034972</ele>
        <time>2024-03-17T09:34:41.999Z</time>
      </trkpt>
      <trkpt lat="48.640553" lon="10.002647">
        <ele>597.422752</ele>
        <time>2024-03-17T09:34:43.999Z</time>
      </trkpt>
      <trkpt lat="48.640562" lon="10.002456">
        <ele>597.784878</ele>
        <time>2024-03-17T09:34:45.999Z</time>
      </trkpt>
      <trkpt lat="48.640565" lon="10.002278">
        <ele>598.121611</ele>
        <time>2024-03-17T09:34:47.999Z</time>
      </trkpt>
      <trkpt lat="48.640567" lon="10.002098">
        <ele>598.462065</ele>
        <time>2024-03-17T09:34:49.999Z</time>
      </trkpt>
      <trkpt lat="48.640564" lon="10.001912">
        <ele>598.813922</ele>
        <time>2024-03-17T09:34:51.999Z</time>
      </trkpt>
      <trkpt lat="48.640573" lon="10.001722">
        <ele>599.174161</ele>
        <time>2024-03-17T09:34:53.999Z</time>
      </trkpt>
      <trkpt lat="48.640586" lon="10.001525">
        <ele>599.548570</ele>
        <time>2024-03-17T09:34:55.999Z</time>
      </trkpt>
      <trkpt lat="48.640595" lon="10.001330">
        <ele>599.918241</ele>
        <time>2024-03-17T09:34:57.999Z</time>
      </trkpt>
      <trkpt lat="48.640600" lon="10.001126">
        <ele>600.304299</ele>
        <time>2024-03-17T09:34:59.999Z</time>
      </trkpt>
      <trkpt lat="48.640619" lon="10.000919">
        <ele>600.699525</ele>
        <time>2024-03-17T09:35:01.999Z</time>
      </trkpt>
      <trkpt lat="48.640638" lon="10.000711">
        <ele>601.096623</ele>
        <time>2024-03-17T09:35:03.999Z</time>
      </trkpt>
      <trkpt lat="48.640664" lon="10.000502">
        <ele>601.498815</ele>
        <time>2024-03-17T09:35:05.999Z</time>
      </trkpt>
      <trkpt lat="48.640688" lon="10.000285">
        <ele>601.731427</ele>
        <time>2024-03-17T09:35:07.999Z</time>
      </trkpt>
      <trkpt lat="48.640719" lon="10.000078">
        <ele>601.889197</ele>
        <time>2024-03-17T09:35:09.999Z</time>
      </trkpt>
      <trkpt lat="48.640748" lon="9.999869">
        <ele>602.047940</ele>
        <time>2024-03-17T09:35:11.999Z</time>
      </trkpt>
      <trkpt lat="48.640786" lon="9.999661">
        <ele>602.208352</ele>
        <time>2024-03-17T09:35:13.999Z</time>
      </trkpt>
      <trkpt lat="48.640822" lon="9.999453">
        <ele>602.368178</ele>
        <time>2024-03-17T09:35:15.999Z</time>
      </trkpt>
      <trkpt lat="48.640863" lon="9.999247">
        <ele>602.528098</ele>
        <time>2024-03-17T09:35:17.999Z</time>
      </trkpt>
      <trkpt lat="48.640902" lon="9.999041">
        <ele>602.687383</ele>
        <time>2024-03-17T09:35:19.999Z</time>
      </trkpt>
      <trkpt lat="48.640940" lon="9.998837">
        <ele>602.844930</ele>
        <time>2024-03-17T09:35:21.999Z</time>
      </trkpt>
      <trkpt lat="48.640981" lon="9.998635">
        <ele>603.002005</ele>
        <time>2024-03-17T09:35:23.999Z</time>
      </trkpt>
      <trkpt lat="48.641023" lon="9.998433">
        <ele>603.159413</ele>
        <time>2024-03-17T09:35:25.999Z</time>
      </trkpt>
      <trkpt lat="48.641061" lon="9.998223">
        <ele>603.321257</ele>
        <time>2024-03-17T09:35:27.999Z</time>
      </trkpt>
      <trkpt lat="48.641097" lon="9.998014">
        <ele>603.481802</ele>
        <time>2024-03-17T09:35:29.999Z</time>
      </trkpt>
      <trkpt lat="48.641129" lon="9.997801">
        <ele>603.644489</ele>
        <time>2024-03-17T09:35:31.999Z</time>
      </trkpt>
      <trkpt lat="48.641162" lon="9.997588">
        <ele>603.813429</ele>
        <time>2024-03-17T09:35:33.999Z</time>
      </trkpt>
      <trkpt lat="48.641199" lon="9.997371">
        <ele>603.986486</ele>
        <time>2024-03-17T09:35:35.999Z</time>
      </trkpt>
      <trkpt lat="48.641230" lon="9.997153">
        <ele>604.158680</ele>
        <time>2024-03-17T09:35:37.999Z</time>
      </trkpt>
      <trkpt lat="48.641260" lon="9.996943">
        <ele>604.324588</ele>
        <time>2024-03-17T09:35:39.999Z</time>
      </trkpt>
      <trkpt lat="48.641293" lon="9.996745">
        <ele>604.482273</ele>
        <time>2024-03-17T09:35:41.999Z</time>
      </trkpt>
      <trkpt lat="48.641328" lon="9.996544">
        <ele>604.642784</ele>
        <time>2024-03-17T09:35:43.999Z</time>
      </trkpt>
      <trkpt lat="48.641366" lon="9.996338">
        <ele>604.807939</ele>
        <time>2024-03-17T09:35:46.000Z</time>
      </trkpt>
      <trkpt lat="48.641408" lon="9.996130">
        <ele>604.975889</ele>
        <time>2024-03-17T09:35:48.000Z</time>
      </trkpt>
      <trkpt lat="48.641462" lon="9.995930">
        <ele>605.142724</ele>
        <time>2024-03-17T09:35:50.000Z</time>
      </trkpt>
      <trkpt lat="48.641518" lon="9.995733">
        <ele>605.308326</ele>
        <time>2024-03-17T09:35:52.000Z</time>
      </trkpt>
      <trkpt lat="48.641584" lon="9.995544">
        <ele>605.473399</ele>
        <time>2024-03-17T09:35:54.000Z</time>
      </trkpt>
      <trkpt lat="48.641669" lon="9.995371">
        <ele>605.639873</ele>
        <time>2024-03-17T09:35:56.000Z</time>
      </trkpt>
      <trkpt lat="48.641763" lon="9.995209">
        <ele>605.820894</ele>
        <time>2024-03-17T09:35:58.000Z</time>
      </trkpt>
      <trkpt lat="48.641862" lon="9.995054">
        <ele>606.022713</ele>
        <time>2024-03-17T09:36:00.000Z</time>
      </trkpt>
      <trkpt lat="48.641957" lon="9.994902">
        <ele>606.218586</ele>
        <time>2024-03-17T09:36:02.000Z</time>
      </trkpt>
      <trkpt lat="48.642054" lon="9.994750">
        <ele>606.416417</ele>
        <time>2024-03-17T09:36:04.000Z</time>
      </trkpt>
      <trkpt lat="48.642152" lon="9.994593">
        <ele>606.618610</ele>
        <time>2024-03-17T09:36:06.000Z</time>
      </trkpt>
      <trkpt lat="48.642251" lon="9.994440">
        <ele>606.819087</ele>
        <time>2024-03-17T09:36:08.000Z</time>
      </trkpt>
      <trkpt lat="48.642343" lon="9.994281">
        <ele>607.016945</ele>
        <time>2024-03-17T09:36:10.000Z</time>
      </trkpt>
      <trkpt lat="48.642434" lon="9.994116">
        <ele>607.218151</ele>
        <time>2024-03-17T09:36:12.000Z</time>
      </trkpt>
      <trkpt lat="48.642521" lon="9.993942">
        <ele>607.422427</ele>
        <time>2024-03-17T09:36:14.000Z</time>
      </trkpt>
      <trkpt lat="48.642609" lon="9.993766">
        <ele>607.629051</ele>
        <time>2024-03-17T09:36:16.000Z</time>
      </trkpt>
      <trkpt lat="48.642693" lon="9.993590">
        <ele>607.832305</ele>
        <time>2024-03-17T09:36:18.000Z</time>
      </trkpt>
      <trkpt lat="48.642776" lon="9.993409">
        <ele>608.038560</ele>
        <time>2024-03-17T09:36:20.000Z</time>
      </trkpt>
      <trkpt lat="48.642860" lon="9.993227">
        <ele>608.246393</ele>
        <time>2024-03-17T09:36:22.000Z</time>
      </trkpt>
      <trkpt lat="48.642938" lon="9.993045">
        <ele>608.520451</ele>
        <time>2024-03-17T09:36:24.000Z</time>
      </trkpt>
      <trkpt lat="48.643020" lon="9.992867">
        <ele>608.811927</ele>
        <time>2024-03-17T09:36:26.000Z</time>
      </trkpt>
      <trkpt lat="48.643103" lon="9.992689">
        <ele>609.104569</ele>
        <time>2024-03-17T09:36:28.000Z</time>
      </trkpt>
      <trkpt lat="48.643186" lon="9.992512">
        <ele>609.396114</ele>
        <time>2024-03-17T09:36:30.000Z</time>
      </trkpt>
      <trkpt lat="48.643270" lon="9.992336">
        <ele>609.687751</ele>
        <time>2024-03-17T09:36:31.999Z</time>
      </trkpt>
      <trkpt lat="48.643356" lon="9.992169">
        <ele>609.972157</ele>
        <time>2024-03-17T09:36:33.999Z</time>
      </trkpt>
      <trkpt lat="48.643443" lon="9.992002">
        <ele>610.257817</ele>
        <time>2024-03-17T09:36:35.999Z</time>
      </trkpt>
      <trkpt lat="48.643531" lon="9.991838">
        <ele>610.541600</ele>
        <time>2024-03-17T09:36:37.999Z</time>
      </trkpt>
      <trkpt lat="48.643626" lon="9.991685">
        <ele>610.823620</ele>
        <time>2024-03-17T09:36:39.999Z</time>
      </trkpt>
      <trkpt lat="48.643724" lon="9.991534">
        <ele>611.107928</ele>
        <time>2024-03-17T09:36:41.999Z</time>
      </trkpt>
      <trkpt lat="48.643824" lon="9.991388">
        <ele>611.390396</ele>
        <time>2024-03-17T09:36:43.999Z</time>
      </trkpt>
      <trkpt lat="48.643923" lon="9.991239">
        <ele>611.674232</ele>
        <time>2024-03-17T09:36:45.999Z</time>
      </trkpt>
      <trkpt lat="48.644023" lon="9.991090">
        <ele>611.958964</ele>
        <time>2024-03-17T09:36:47.999Z</time>
      </trkpt>
      <trkpt lat="48.644120" lon="9.990937">
        <ele>612.234463</ele>
        <time>2024-03-17T09:36:49.999Z</time>
      </trkpt>
      <trkpt lat="48.644218" lon="9.990787">
        <ele>612.508541</ele>
        <time>2024-03-17T09:36:51.999Z</time>
      </trkpt>
      <trkpt lat="48.644314" lon="9.990636">
        <ele>612.780803</ele>
        <time>2024-03-17T09:36:53.999Z</time>
      </trkpt>
      <trkpt lat="48.644413" lon="9.990480">
        <ele>613.061836</ele>
        <time>2024-03-17T09:36:55.999Z</time>
      </trkpt>
      <trkpt lat="48.644506" lon="9.990329">
        <ele>613.330041</ele>
        <time>2024-03-17T09:36:57.999Z</time>
      </trkpt>
      <trkpt lat="48.644590" lon="9.990177">
        <ele>613.587500</ele>
        <time>2024-03-17T09:36:59.999Z</time>
      </trkpt>
      <trkpt lat="48.644667" lon="9.990035">
        <ele>613.826172</ele>
        <time>2024-03-17T09:37:01.999Z</time>
      </trkpt>
      <trkpt lat="48.644746" lon="9.989886">
        <ele>614.074385</ele>
        <time>2024-03-17T09:37:03.999Z</time>
      </trkpt>
      <trkpt lat="48.644823" lon="9.989725">
        <ele>614.332614</ele>
        <time>2024-03-17T09:37:05.999Z</time>
      </trkpt>
      <trkpt lat="48.644900" lon="9.989558">
        <ele>614.597197</ele>
        <time>2024-03-17T09:37:07.999Z</time>
      </trkpt>
      <trkpt lat="48.644979" lon="9.989390">
        <ele>614.865108</ele>
        <time>2024-03-17T09:37:09.999Z</time>
      </trkpt>
      <trkpt lat="48.645058" lon="9.989222">
        <ele>615.133019</ele>
        <time>2024-03-17T09:37:11.999Z</time>
      </trkpt>
      <trkpt lat="48.645137" lon="9.989055">
        <ele>615.399871</ele>
        <time>2024-03-17T09:37:13.999Z</time>
      </trkpt>
      <trkpt lat="48.645215" lon="9.988889">
        <ele>615.662523</ele>
        <time>2024-03-17T09:37:15.999Z</time>
      </trkpt>
      <trkpt lat="48.645291" lon="9.988723">
        <ele>615.922075</ele>
        <time>2024-03-17T09:37:17.999Z</time>
      </trkpt>
      <trkpt lat="48.645368" lon="9.988552">
        <ele>616.188025</ele>
        <time>2024-03-17T09:37:19.999Z</time>
      </trkpt>
      <trkpt lat="48.645444" lon="9.988382">
        <ele>616.451819</ele>
        <time>2024-03-17T09:37:21.999Z</time>
      </trkpt>
      <trkpt lat="48.645517" lon="9.988211">
        <ele>616.713466</ele>
        <time>2024-03-17T09:37:23.999Z</time>
      </trkpt>
      <trkpt lat="48.645588" lon="9.988035">
        <ele>616.978484</ele>
        <time>2024-03-17T09:37:25.999Z</time>
      </trkpt>
      <trkpt lat="48.645655" lon="9.987857">
        <ele>617.241762</ele>
        <time>2024-03-17T09:37:27.999Z</time>
      </trkpt>
      <trkpt lat="48.645720" lon="9.987679">
        <ele>617.503137</ele>
        <time>2024-03-17T09:37:29.999Z</time>
      </trkpt>
      <trkpt lat="48.645781" lon="9.987497">
        <ele>617.765411</ele>
        <time>2024-03-17T09:37:31.999Z</time>
      </trkpt>
      <trkpt lat="48.645839" lon="9.987309">
        <ele>618.032064</ele>
        <time>2024-03-17T09:37:33.999Z</time>
      </trkpt>
      <trkpt lat="48.645898" lon="9.987124">
        <ele>618.296068</ele>
        <time>2024-03-17T09:37:35.999Z</time>
      </trkpt>
      <trkpt lat="48.645958" lon="9.986936">
        <ele>618.564390</ele>
        <time>2024-03-17T09:37:37.999Z</time>
      </trkpt>
      <trkpt lat="48.646016" lon="9.986748">
        <ele>618.831042</ele>
        <time>2024-03-17T09:37:39.999Z</time>
      </trkpt>
      <trkpt lat="48.646079" lon="9.986562">
        <ele>619.101115</ele>
        <time>2024-03-17T09:37:41.999Z</time>
      </trkpt>
      <trkpt lat="48.646139" lon="9.986378">
        <ele>619.367971</ele>
        <time>2024-03-17T09:37:43.999Z</time>
      </trkpt>
      <trkpt lat="48.646194" lon="9.986189">
        <ele>619.636557</ele>
        <time>2024-03-17T09:37:45.999Z</time>
      </trkpt>
      <trkpt lat="48.646260" lon="9.986007">
        <ele>619.906563</ele>
        <time>2024-03-17T09:37:47.999Z</time>
      </trkpt>
      <trkpt lat="48.646323" lon="9.985820">
        <ele>620.179553</ele>
        <time>2024-03-17T09:37:49.999Z</time>
      </trkpt>
      <trkpt lat="48.646388" lon="9.985633">
        <ele>620.454355</ele>
        <time>2024-03-17T09:37:52.000Z</time>
      </trkpt>
      <trkpt lat="48.646457" lon="9.985453">
        <ele>620.724997</ele>
        <time>2024-03-17T09:37:54.000Z</time>
      </trkpt>
      <trkpt lat="48.646525" lon="9.985269">
        <ele>620.999185</ele>
        <time>2024-03-17T09:37:56.000Z</time>
      </trkpt>
      <trkpt lat="48.646596" lon="9.985098">
        <ele>621.261842</ele>
        <time>2024-03-17T09:37:58.000Z</time>
      </trkpt>
      <trkpt lat="48.646677" lon="9.984923">
        <ele>621.539725</ele>
        <time>2024-03-17T09:38:00.000Z</time>
      </trkpt>
      <trkpt lat="48.646758" lon="9.984753">
        <ele>621.812307</ele>
        <time>2024-03-17T09:38:02.000Z</time>
      </trkpt>
      <trkpt lat="48.646838" lon="9.984582">
        <ele>622.084802</ele>
        <time>2024-03-17T09:38:04.000Z</time>
      </trkpt>
      <trkpt lat="48.646919" lon="9.984403">
        <ele>622.366961</ele>
        <time>2024-03-17T09:38:06.000Z</time>
      </trkpt>
      <trkpt lat="48.647003" lon="9.984231">
        <ele>622.660328</ele>
        <time>2024-03-17T09:38:08.000Z</time>
      </trkpt>
      <trkpt lat="48.647085" lon="9.984059">
        <ele>622.969335</ele>
        <time>2024-03-17T09:38:10.000Z</time>
      </trkpt>
      <trkpt lat="48.647167" lon="9.983888">
        <ele>623.277161</ele>
        <time>2024-03-17T09:38:12.000Z</time>
      </trkpt>
      <trkpt lat="48.647250" lon="9.983710">
        <ele>623.594563</ele>
        <time>2024-03-17T09:38:14.000Z</time>
      </trkpt>
      <trkpt lat="48.647334" lon="9.983534">
        <ele>623.910875</ele>
        <time>2024-03-17T09:38:16.000Z</time>
      </trkpt>
      <trkpt lat="48.647414" lon="9.983359">
        <ele>624.220904</ele>
        <time>2024-03-17T09:38:18.000Z</time>
      </trkpt>
      <trkpt lat="48.647502" lon="9.983182">
        <ele>624.543623</ele>
        <time>2024-03-17T09:38:20.000Z</time>
      </trkpt>
      <trkpt lat="48.647583" lon="9.983007">
        <ele>624.854912</ele>
        <time>2024-03-17T09:38:22.000Z</time>
      </trkpt>
      <trkpt lat="48.647665" lon="9.982833">
        <ele>625.166283</ele>
        <time>2024-03-17T09:38:24.000Z</time>
      </trkpt>
      <trkpt lat="48.647747" lon="9.982659">
        <ele>625.477655</ele>
        <time>2024-03-17T09:38:26.000Z</time>
      </trkpt>
      <trkpt lat="48.647831" lon="9.982479">
        <ele>625.798706</ele>
        <time>2024-03-17T09:38:28.000Z</time>
      </trkpt>
      <trkpt lat="48.647910" lon="9.982298">
        <ele>626.114740</ele>
        <time>2024-03-17T09:38:30.000Z</time>
      </trkpt>
      <trkpt lat="48.647990" lon="9.982112">
        <ele>626.438074</ele>
        <time>2024-03-17T09:38:32.000Z</time>
      </trkpt>
      <trkpt lat="48.648068" lon="9.981925">
        <ele>626.681649</ele>
        <time>2024-03-17T09:38:34.000Z</time>
      </trkpt>
      <trkpt lat="48.648146" lon="9.981741">
        <ele>626.909261</ele>
        <time>2024-03-17T09:38:36.000Z</time>
      </trkpt>
      <trkpt lat="48.648220" lon="9.981552">
        <ele>627.137995</ele>
        <time>2024-03-17T09:38:37.999Z</time>
      </trkpt>
      <trkpt lat="48.648284" lon="9.981352">
        <ele>627.369360</ele>
        <time>2024-03-17T09:38:39.999Z</time>
      </trkpt>
      <trkpt lat="48.648342" lon="9.981153">
        <ele>627.595811</ele>
        <time>2024-03-17T09:38:41.999Z</time>
      </trkpt>
      <trkpt lat="48.648394" lon="9.980948">
        <ele>627.824433</ele>
        <time>2024-03-17T09:38:43.999Z</time>
      </trkpt>
      <trkpt lat="48.648433" lon="9.980740">
        <ele>628.049541</ele>
        <time>2024-03-17T09:38:45.999Z</time>
      </trkpt>
      <trkpt lat="48.648464" lon="9.980531">
        <ele>628.272553</ele>
        <time>2024-03-17T09:38:47.999Z</time>
      </trkpt>
      <trkpt lat="48.648485" lon="9.980330">
        <ele>628.484421</ele>
        <time>2024-03-17T09:38:49.999Z</time>
      </trkpt>
      <trkpt lat="48.648512" lon="9.980123">
        <ele>628.704095</ele>
        <time>2024-03-17T09:38:51.999Z</time>
      </trkpt>
      <trkpt lat="48.648533" lon="9.979915">
        <ele>628.923164</ele>
        <time>2024-03-17T09:38:53.999Z</time>
      </trkpt>
      <trkpt lat="48.648554" lon="9.979701">
        <ele>629.148410</ele>
        <time>2024-03-17T09:38:55.999Z</time>
      </trkpt>
      <trkpt lat="48.648574" lon="9.979489">
        <ele>629.376973</ele>
        <time>2024-03-17T09:38:57.999Z</time>
      </trkpt>
      <trkpt lat="48.648593" lon="9.979273">
        <ele>629.628209</ele>
        <time>2024-03-17T09:38:59.999Z</time>
      </trkpt>
      <trkpt lat="48.648616" lon="9.979061">
        <ele>629.875908</ele>
        <time>2024-03-17T09:39:01.999Z</time>
      </trkpt>
      <trkpt lat="48.648641" lon="9.978845">
        <ele>630.128739</ele>
        <time>2024-03-17T09:39:03.999Z</time>
      </trkpt>
      <trkpt lat="48.648659" lon="9.978631">
        <ele>630.377462</ele>
        <time>2024-03-17T09:39:05.999Z</time>
      </trkpt>
      <trkpt lat="48.648683" lon="9.978420">
        <ele>630.624314</ele>
        <time>2024-03-17T09:39:07.999Z</time>
      </trkpt>
      <trkpt lat="48.648704" lon="9.978206">
        <ele>630.873752</ele>
        <time>2024-03-17T09:39:09.999Z</time>
      </trkpt>
      <trkpt lat="48.648728" lon="9.977997">
        <ele>631.118331</ele>
        <time>2024-03-17T09:39:11.999Z</time>
      </trkpt>
      <trkpt lat="48.648750" lon="9.977789">
        <ele>631.361199</ele>
        <time>2024-03-17T09:39:13.999Z</time>
      </trkpt>
      <trkpt lat="48.648773" lon="9.977577">
        <ele>631.608898</ele>
        <time>2024-03-17T09:39:15.999Z</time>
      </trkpt>
      <trkpt lat="48.648791" lon="9.977366">
        <ele>631.854189</ele>
        <time>2024-03-17T09:39:17.999Z</time>
      </trkpt>
      <trkpt lat="48.648809" lon="9.977158">
        <ele>632.096051</ele>
        <time>2024-03-17T09:39:19.999Z</time>
      </trkpt>
      <trkpt lat="48.648824" lon="9.976943">
        <ele>632.345313</ele>
        <time>2024-03-17T09:39:21.999Z</time>
      </trkpt>
      <trkpt lat="48.648844" lon="9.976730">
        <ele>632.603034</ele>
        <time>2024-03-17T09:39:23.999Z</time>
      </trkpt>
      <trkpt lat="48.648861" lon="9.976517">
        <ele>632.868079</ele>
        <time>2024-03-17T09:39:25.999Z</time>
      </trkpt>
      <trkpt lat="48.648877" lon="9.976302">
        <ele>633.135362</ele>
        <time>2024-03-17T09:39:27.999Z</time>
      </trkpt>
      <trkpt lat="48.648889" lon="9.976089">
        <ele>633.399450</ele>
        <time>2024-03-17T09:39:29.999Z</time>
      </trkpt>
      <trkpt lat="48.648902" lon="9.975876">
        <ele>633.663702</ele>
        <time>2024-03-17T09:39:31.999Z</time>
      </trkpt>
      <trkpt lat="48.648921" lon="9.975665">
        <ele>633.926774</ele>
        <time>2024-03-17T09:39:33.999Z</time>
      </trkpt>
      <trkpt lat="48.648936" lon="9.975454">
        <ele>634.188940</ele>
        <time>2024-03-17T09:39:35.999Z</time>
      </trkpt>
      <trkpt lat="48.648949" lon="9.975241">
        <ele>634.453192</ele>
        <time>2024-03-17T09:39:37.999Z</time>
      </trkpt>
      <trkpt lat="48.648963" lon="9.975029">
        <ele>634.716394</ele>
        <time>2024-03-17T09:39:39.999Z</time>
      </trkpt>
      <trkpt lat="48.648977" lon="9.974816">
        <ele>634.980825</ele>
        <time>2024-03-17T09:39:41.999Z</time>
      </trkpt>
      <trkpt lat="48.648986" lon="9.974601">
        <ele>635.246960</ele>
        <time>2024-03-17T09:39:43.999Z</time>
      </trkpt>
      <trkpt lat="48.648997" lon="9.974386">
        <ele>635.513358</ele>
        <time>2024-03-17T09:39:45.999Z</time>
      </trkpt>
      <trkpt lat="48.649010" lon="9.974181">
        <ele>635.767770</ele>
        <time>2024-03-17T09:39:47.999Z</time>
      </trkpt>
      <trkpt lat="48.649027" lon="9.973973">
        <ele>636.040707</ele>
        <time>2024-03-17T09:39:49.999Z</time>
      </trkpt>
      <trkpt lat="48.649037" lon="9.973767">
        <ele>636.313292</ele>
        <time>2024-03-17T09:39:51.999Z</time>
      </trkpt>
      <trkpt lat="48.649045" lon="9.973554">
        <ele>636.594837</ele>
        <time>2024-03-17T09:39:53.999Z</time>
      </trkpt>
      <trkpt lat="48.649046" lon="9.973349">
        <ele>636.865377</ele>
        <time>2024-03-17T09:39:55.999Z</time>
      </trkpt>
      <trkpt lat="48.649039" lon="9.973140">
        <ele>637.141543</ele>
        <time>2024-03-17T09:39:58.000Z</time>
      </trkpt>
      <trkpt lat="48.649031" lon="9.972926">
        <ele>637.424405</ele>
        <time>2024-03-17T09:40:00.000Z</time>
      </trkpt>
      <trkpt lat="48.649021" lon="9.972711">
        <ele>637.708837</ele>
        <time>2024-03-17T09:40:02.000Z</time>
      </trkpt>
      <trkpt lat="48.649010" lon="9.972497">
        <ele>637.992101</ele>
        <time>2024-03-17T09:40:04.000Z</time>
      </trkpt>
      <trkpt lat="48.648996" lon="9.972284">
        <ele>638.274579</ele>
        <time>2024-03-17T09:40:06.000Z</time>
      </trkpt>
      <trkpt lat="48.648983" lon="9.972068">
        <ele>638.560809</ele>
        <time>2024-03-17T09:40:08.000Z</time>
      </trkpt>
      <trkpt lat="48.648972" lon="9.971861">
        <ele>638.834864</ele>
        <time>2024-03-17T09:40:10.000Z</time>
      </trkpt>
      <trkpt lat="48.648961" lon="9.971649">
        <ele>639.115497</ele>
        <time>2024-03-17T09:40:12.000Z</time>
      </trkpt>
      <trkpt lat="48.648949" lon="9.971437">
        <ele>639.396293</ele>
        <time>2024-03-17T09:40:14.000Z</time>
      </trkpt>
      <trkpt lat="48.648938" lon="9.971229">
        <ele>639.556042</ele>
        <time>2024-03-17T09:40:16.000Z</time>
      </trkpt>
      <trkpt lat="48.648925" lon="9.971024">
        <ele>639.705876</ele>
        <time>2024-03-17T09:40:18.000Z</time>
      </trkpt>
      <trkpt lat="48.648911" lon="9.970812">
        <ele>639.860885</ele>
        <time>2024-03-17T09:40:20.000Z</time>
      </trkpt>
      <trkpt lat="48.648901" lon="9.970597">
        <ele>640.017696</ele>
        <time>2024-03-17T09:40:22.000Z</time>
      </trkpt>
      <trkpt lat="48.648890" lon="9.970377">
        <ele>640.178216</ele>
        <time>2024-03-17T09:40:24.000Z</time>
      </trkpt>
      <trkpt lat="48.648876" lon="9.970158">
        <ele>640.338294</ele>
        <time>2024-03-17T09:40:26.000Z</time>
      </trkpt>
      <trkpt lat="48.648857" lon="9.969934">
        <ele>640.502603</ele>
        <time>2024-03-17T09:40:28.000Z</time>
      </trkpt>
      <trkpt lat="48.648834" lon="9.969707">
        <ele>640.669689</ele>
        <time>2024-03-17T09:40:30.000Z</time>
      </trkpt>
      <trkpt lat="48.648811" lon="9.969481">
        <ele>640.836055</ele>
        <time>2024-03-17T09:40:32.000Z</time>
      </trkpt>
      <trkpt lat="48.648793" lon="9.969261">
        <ele>640.997340</ele>
        <time>2024-03-17T09:40:34.000Z</time>
      </trkpt>
      <trkpt lat="48.648776" lon="9.969039">
        <ele>641.159938</ele>
        <time>2024-03-17T09:40:36.000Z</time>
      </trkpt>
      <trkpt lat="48.648756" lon="9.968825">
        <ele>641.317185</ele>
        <time>2024-03-17T09:40:38.000Z</time>
      </trkpt>
      <trkpt lat="48.648747" lon="9.968605">
        <ele>641.537348</ele>
        <time>2024-03-17T09:40:40.000Z</time>
      </trkpt>
      <trkpt lat="48.648741" lon="9.968386">
        <ele>641.811908</ele>
        <time>2024-03-17T09:40:42.000Z</time>
      </trkpt>
      <trkpt lat="48.648735" lon="9.968163">
        <ele>642.091474</ele>
        <time>2024-03-17T09:40:44.000Z</time>
      </trkpt>
      <trkpt lat="48.648731" lon="9.967952">
        <ele>642.355886</ele>
        <time>2024-03-17T09:40:46.000Z</time>
      </trkpt>
      <trkpt lat="48.648728" lon="9.967740">
        <ele>642.621503</ele>
        <time>2024-03-17T09:40:48.000Z</time>
      </trkpt>
      <trkpt lat="48.648730" lon="9.967521">
        <ele>642.895853</ele>
        <time>2024-03-17T09:40:50.000Z</time>
      </trkpt>
      <trkpt lat="48.648731" lon="9.967300">
        <ele>643.172689</ele>
        <time>2024-03-17T09:40:51.999Z</time>
      </trkpt>
      <trkpt lat="48.648722" lon="9.967078">
        <ele>643.451294</ele>
        <time>2024-03-17T09:40:53.999Z</time>
      </trkpt>
      <trkpt lat="48.648714" lon="9.966857">
        <ele>643.728538</ele>
        <time>2024-03-17T09:40:55.999Z</time>
      </trkpt>
      <trkpt lat="48.648686" lon="9.966639">
        <ele>644.006723</ele>
        <time>2024-03-17T09:40:57.999Z</time>
      </trkpt>
      <trkpt lat="48.648643" lon="9.966427">
        <ele>644.284511</ele>
        <time>2024-03-17T09:40:59.999Z</time>
      </trkpt>
      <trkpt lat="48.648598" lon="9.966218">
        <ele>644.559862</ele>
        <time>2024-03-17T09:41:01.999Z</time>
      </trkpt>
      <trkpt lat="48.648542" lon="9.966008">
        <ele>644.846177</ele>
        <time>2024-03-17T09:41:03.999Z</time>
      </trkpt>
      <trkpt lat="48.648472" lon="9.965809">
        <ele>645.147907</ele>
        <time>2024-03-17T09:41:05.999Z</time>
      </trkpt>
      <trkpt lat="48.648397" lon="9.965618">
        <ele>645.445274</ele>
        <time>2024-03-17T09:41:07.999Z</time>
      </trkpt>
      <trkpt lat="48.648319" lon="9.965431">
        <ele>645.741251</ele>
        <time>2024-03-17T09:41:09.999Z</time>
      </trkpt>
      <trkpt lat="48.648238" lon="9.965247">
        <ele>646.037168</ele>
        <time>2024-03-17T09:41:11.999Z</time>
      </trkpt>
      <trkpt lat="48.648164" lon="9.965061">
        <ele>646.327754</ele>
        <time>2024-03-17T09:41:13.999Z</time>
      </trkpt>
      <trkpt lat="48.648095" lon="9.964877">
        <ele>646.610915</ele>
        <time>2024-03-17T09:41:15.999Z</time>
      </trkpt>
      <trkpt lat="48.648041" lon="9.964686">
        <ele>646.888965</ele>
        <time>2024-03-17T09:41:17.999Z</time>
      </trkpt>
      <trkpt lat="48.648002" lon="9.964482">
        <ele>647.173192</ele>
        <time>2024-03-17T09:41:19.999Z</time>
      </trkpt>
      <trkpt lat="48.647978" lon="9.964281">
        <ele>647.446562</ele>
        <time>2024-03-17T09:41:21.999Z</time>
      </trkpt>
      <trkpt lat="48.647965" lon="9.964077">
        <ele>647.720856</ele>
        <time>2024-03-17T09:41:23.999Z</time>
      </trkpt>
      <trkpt lat="48.647965" lon="9.963864">
        <ele>648.005928</ele>
        <time>2024-03-17T09:41:25.999Z</time>
      </trkpt>
      <trkpt lat="48.647969" lon="9.963656">
        <ele>648.284427</ele>
        <time>2024-03-17T09:41:27.999Z</time>
      </trkpt>
      <trkpt lat="48.647976" lon="9.963447">
        <ele>648.424437</ele>
        <time>2024-03-17T09:41:29.999Z</time>
      </trkpt>
      <trkpt lat="48.647988" lon="9.963234">
        <ele>648.365233</ele>
        <time>2024-03-17T09:41:31.999Z</time>
      </trkpt>
      <trkpt lat="48.647995" lon="9.963018">
        <ele>648.305339</ele>
        <time>2024-03-17T09:41:33.999Z</time>
      </trkpt>
      <trkpt lat="48.648001" lon="9.962801">
        <ele>648.245188</ele>
        <time>2024-03-17T09:41:35.999Z</time>
      </trkpt>
      <trkpt lat="48.648007" lon="9.962598">
        <ele>648.188911</ele>
        <time>2024-03-17T09:41:37.999Z</time>
      </trkpt>
      <trkpt lat="48.648011" lon="9.962409">
        <ele>648.136540</ele>
        <time>2024-03-17T09:41:39.999Z</time>
      </trkpt>
      <trkpt lat="48.648021" lon="9.962232">
        <ele>648.087341</ele>
        <time>2024-03-17T09:41:41.999Z</time>
      </trkpt>
      <trkpt lat="48.648030" lon="9.962065">
        <ele>648.040937</ele>
        <time>2024-03-17T09:41:43.999Z</time>
      </trkpt>
      <trkpt lat="48.648067" lon="9.961906">
        <ele>647.994250</ele>
        <time>2024-03-17T09:41:46.999Z</time>
      </trkpt>
      <trkpt lat="48.648194" lon="9.961996">
        <ele>647.935467</ele>
        <time>2024-03-17T09:41:47.999Z</time>
      </trkpt>
      <trkpt lat="48.648306" lon="9.962096">
        <ele>647.880958</ele>
        <time>2024-03-17T09:41:49.999Z</time>
      </trkpt>
      <trkpt lat="48.648418" lon="9.962189">
        <ele>647.827408</ele>
        <time>2024-03-17T09:41:51.999Z</time>
      </trkpt>
      <trkpt lat="48.648540" lon="9.962293">
        <ele>647.768714</ele>
        <time>2024-03-17T09:41:53.999Z</time>
      </trkpt>
      <trkpt lat="48.648667" lon="9.962395">
        <ele>647.708446</ele>
        <time>2024-03-17T09:41:55.999Z</time>
      </trkpt>
      <trkpt lat="48.648794" lon="9.962510">
        <ele>647.334707</ele>
        <time>2024-03-17T09:41:57.999Z</time>
      </trkpt>
      <trkpt lat="48.648930" lon="9.962611">
        <ele>646.859448</ele>
        <time>2024-03-17T09:41:59.999Z</time>
      </trkpt>
      <trkpt lat="48.649068" lon="9.962701">
        <ele>646.388026</ele>
        <time>2024-03-17T09:42:01.999Z</time>
      </trkpt>
      <trkpt lat="48.649212" lon="9.962790">
        <ele>645.900047</ele>
        <time>2024-03-17T09:42:04.000Z</time>
      </trkpt>
      <trkpt lat="48.649361" lon="9.962873">
        <ele>645.401942</ele>
        <time>2024-03-17T09:42:06.000Z</time>
      </trkpt>
      <trkpt lat="48.649515" lon="9.962951">
        <ele>644.892470</ele>
        <time>2024-03-17T09:42:08.000Z</time>
      </trkpt>
      <trkpt lat="48.649672" lon="9.963019">
        <ele>644.380149</ele>
        <time>2024-03-17T09:42:10.000Z</time>
      </trkpt>
      <trkpt lat="48.649828" lon="9.963094">
        <ele>643.866640</ele>
        <time>2024-03-17T09:42:12.000Z</time>
      </trkpt>
      <trkpt lat="48.649991" lon="9.963156">
        <ele>643.339365</ele>
        <time>2024-03-17T09:42:14.000Z</time>
      </trkpt>
      <trkpt lat="48.650152" lon="9.963231">
        <ele>642.810885</ele>
        <time>2024-03-17T09:42:16.000Z</time>
      </trkpt>
      <trkpt lat="48.650308" lon="9.963298">
        <ele>642.302150</ele>
        <time>2024-03-17T09:42:18.000Z</time>
      </trkpt>
      <trkpt lat="48.650397" lon="9.963347">
        <ele>642.062725</ele>
        <time>2024-03-17T09:42:20.000Z</time>
      </trkpt>
      <trkpt lat="48.650443" lon="9.963006">
        <ele>642.234239</ele>
        <time>2024-03-17T09:42:22.000Z</time>
      </trkpt>
      <trkpt lat="48.650446" lon="9.962789">
        <ele>642.341201</ele>
        <time>2024-03-17T09:42:24.000Z</time>
      </trkpt>
      <trkpt lat="48.650432" lon="9.962566">
        <ele>642.451591</ele>
        <time>2024-03-17T09:42:26.000Z</time>
      </trkpt>
      <trkpt lat="48.650430" lon="9.962343">
        <ele>642.561497</ele>
        <time>2024-03-17T09:42:28.000Z</time>
      </trkpt>
      <trkpt lat="48.650428" lon="9.962120">
        <ele>642.671403</ele>
        <time>2024-03-17T09:42:30.000Z</time>
      </trkpt>
      <trkpt lat="48.650426" lon="9.961893">
        <ele>642.783279</ele>
        <time>2024-03-17T09:42:32.000Z</time>
      </trkpt>
      <trkpt lat="48.650424" lon="9.961669">
        <ele>642.893678</ele>
        <time>2024-03-17T09:42:34.000Z</time>
      </trkpt>
      <trkpt lat="48.650424" lon="9.961441">
        <ele>643.006037</ele>
        <time>2024-03-17T09:42:36.000Z</time>
      </trkpt>
      <trkpt lat="48.650425" lon="9.961216">
        <ele>643.116921</ele>
        <time>2024-03-17T09:42:38.000Z</time>
      </trkpt>
      <trkpt lat="48.650424" lon="9.960994">
        <ele>643.226326</ele>
        <time>2024-03-17T09:42:40.000Z</time>
      </trkpt>
      <trkpt lat="48.650422" lon="9.960785">
        <ele>643.329333</ele>
        <time>2024-03-17T09:42:42.000Z</time>
      </trkpt>
      <trkpt lat="48.650423" lon="9.960571">
        <ele>643.556331</ele>
        <time>2024-03-17T09:42:44.000Z</time>
      </trkpt>
      <trkpt lat="48.650421" lon="9.960356">
        <ele>643.972787</ele>
        <time>2024-03-17T09:42:46.000Z</time>
      </trkpt>
      <trkpt lat="48.650424" lon="9.960139">
        <ele>644.393169</ele>
        <time>2024-03-17T09:42:48.000Z</time>
      </trkpt>
      <trkpt lat="48.650423" lon="9.959916">
        <ele>644.825089</ele>
        <time>2024-03-17T09:42:50.000Z</time>
      </trkpt>
      <trkpt lat="48.650421" lon="9.959693">
        <ele>645.257039</ele>
        <time>2024-03-17T09:42:52.000Z</time>
      </trkpt>
      <trkpt lat="48.650419" lon="9.959476">
        <ele>645.677369</ele>
        <time>2024-03-17T09:42:54.000Z</time>
      </trkpt>
      <trkpt lat="48.650422" lon="9.959275">
        <ele>646.066768</ele>
        <time>2024-03-17T09:42:56.000Z</time>
      </trkpt>
      <trkpt lat="48.650419" lon="9.959076">
        <ele>646.452295</ele>
        <time>2024-03-17T09:42:57.999Z</time>
      </trkpt>
      <trkpt lat="48.650423" lon="9.958880">
        <ele>646.832092</ele>
        <time>2024-03-17T09:42:59.999Z</time>
      </trkpt>
      <trkpt lat="48.650425" lon="9.958691">
        <ele>647.198197</ele>
        <time>2024-03-17T09:43:01.999Z</time>
      </trkpt>
      <trkpt lat="48.650426" lon="9.958513">
        <ele>647.542963</ele>
        <time>2024-03-17T09:43:03.999Z</time>
      </trkpt>
      <trkpt lat="48.650424" lon="9.958344">
        <ele>647.870338</ele>
        <time>2024-03-17T09:43:05.999Z</time>
      </trkpt>
      <trkpt lat="48.650425" lon="9.958173">
        <ele>648.201546</ele>
        <time>2024-03-17T09:43:07.999Z</time>
      </trkpt>
      <trkpt lat="48.650423" lon="9.957994">
        <ele>648.548286</ele>
        <time>2024-03-17T09:43:09.999Z</time>
      </trkpt>
      <trkpt lat="48.650426" lon="9.957805">
        <ele>648.924010</ele>
        <time>2024-03-17T09:43:11.999Z</time>
      </trkpt>
      <trkpt lat="48.650423" lon="9.957621">
        <ele>649.294231</ele>
        <time>2024-03-17T09:43:13.999Z</time>
      </trkpt>
      <trkpt lat="48.650424" lon="9.957445">
        <ele>649.648260</ele>
        <time>2024-03-17T09:43:15.999Z</time>
      </trkpt>
      <trkpt lat="48.650423" lon="9.957259">
        <ele>650.022404</ele>
        <time>2024-03-17T09:43:17.999Z</time>
      </trkpt>
      <trkpt lat="48.650427" lon="9.957067">
        <ele>650.408795</ele>
        <time>2024-03-17T09:43:19.999Z</time>
      </trkpt>
      <trkpt lat="48.650426" lon="9.956869">
        <ele>650.807075</ele>
        <time>2024-03-17T09:43:21.999Z</time>
      </trkpt>
      <trkpt lat="48.650425" lon="9.956672">
        <ele>651.203343</ele>
        <time>2024-03-17T09:43:23.999Z</time>
      </trkpt>
      <trkpt lat="48.650425" lon="9.956480">
        <ele>651.589543</ele>
        <time>2024-03-17T09:43:25.999Z</time>
      </trkpt>
      <trkpt lat="48.650427" lon="9.956287">
        <ele>651.977802</ele>
        <time>2024-03-17T09:43:27.999Z</time>
      </trkpt>
      <trkpt lat="48.650423" lon="9.956098">
        <ele>652.358162</ele>
        <time>2024-03-17T09:43:29.999Z</time>
      </trkpt>
      <trkpt lat="48.650426" lon="9.955905">
        <ele>652.746480</ele>
        <time>2024-03-17T09:43:31.999Z</time>
      </trkpt>
      <trkpt lat="48.650427" lon="9.955715">
        <ele>653.128669</ele>
        <time>2024-03-17T09:43:33.999Z</time>
      </trkpt>
      <trkpt lat="48.650428" lon="9.955517">
        <ele>653.526949</ele>
        <time>2024-03-17T09:43:35.999Z</time>
      </trkpt>
      <trkpt lat="48.650427" lon="9.955324">
        <ele>653.915172</ele>
        <time>2024-03-17T09:43:37.999Z</time>
      </trkpt>
      <trkpt lat="48.650427" lon="9.955128">
        <ele>654.216009</ele>
        <time>2024-03-17T09:43:39.999Z</time>
      </trkpt>
      <trkpt lat="48.650428" lon="9.954927">
        <ele>654.393920</ele>
        <time>2024-03-17T09:43:41.999Z</time>
      </trkpt>
      <trkpt lat="48.650425" lon="9.954720">
        <ele>654.577180</ele>
        <time>2024-03-17T09:43:43.999Z</time>
      </trkpt>
      <trkpt lat="48.650427" lon="9.954519">
        <ele>654.755106</ele>
        <time>2024-03-17T09:43:45.999Z</time>
      </trkpt>
      <trkpt lat="48.650429" lon="9.954315">
        <ele>654.935687</ele>
        <time>2024-03-17T09:43:47.999Z</time>
      </trkpt>
      <trkpt lat="48.650426" lon="9.954112">
        <ele>655.115408</ele>
        <time>2024-03-17T09:43:49.999Z</time>
      </trkpt>
      <trkpt lat="48.650418" lon="9.953909">
        <ele>655.295403</ele>
        <time>2024-03-17T09:43:51.999Z</time>
      </trkpt>
      <trkpt lat="48.650409" lon="9.953701">
        <ele>655.479899</ele>
        <time>2024-03-17T09:43:53.999Z</time>
      </trkpt>
      <trkpt lat="48.650401" lon="9.953484">
        <ele>655.672265</ele>
        <time>2024-03-17T09:43:55.999Z</time>
      </trkpt>
      <trkpt lat="48.650384" lon="9.953273">
        <ele>655.860405</ele>
        <time>2024-03-17T09:43:57.999Z</time>
      </trkpt>
      <trkpt lat="48.650371" lon="9.953073">
        <ele>656.038281</ele>
        <time>2024-03-17T09:43:59.999Z</time>
      </trkpt>
      <trkpt lat="48.650361" lon="9.952879">
        <ele>656.210513</ele>
        <time>2024-03-17T09:44:01.999Z</time>
      </trkpt>
      <trkpt lat="48.650342" lon="9.952688">
        <ele>656.381473</ele>
        <time>2024-03-17T09:44:03.999Z</time>
      </trkpt>
      <trkpt lat="48.650324" lon="9.952486">
        <ele>656.562505</ele>
        <time>2024-03-17T09:44:05.999Z</time>
      </trkpt>
      <trkpt lat="48.650311" lon="9.952285">
        <ele>656.752895</ele>
        <time>2024-03-17T09:44:07.999Z</time>
      </trkpt>
      <trkpt lat="48.650296" lon="9.952080">
        <ele>656.947331</ele>
        <time>2024-03-17T09:44:10.000Z</time>
      </trkpt>
      <trkpt lat="48.650281" lon="9.951874">
        <ele>657.142705</ele>
        <time>2024-03-17T09:44:12.000Z</time>
      </trkpt>
      <trkpt lat="48.650272" lon="9.951667">
        <ele>657.338267</ele>
        <time>2024-03-17T09:44:14.000Z</time>
      </trkpt>
      <trkpt lat="48.650257" lon="9.951459">
        <ele>657.535514</ele>
        <time>2024-03-17T09:44:16.000Z</time>
      </trkpt>
      <trkpt lat="48.650242" lon="9.951252">
        <ele>657.731825</ele>
        <time>2024-03-17T09:44:18.000Z</time>
      </trkpt>
      <trkpt lat="48.650229" lon="9.951046">
        <ele>657.926907</ele>
        <time>2024-03-17T09:44:20.000Z</time>
      </trkpt>
      <trkpt lat="48.650215" lon="9.950840">
        <ele>658.122129</ele>
        <time>2024-03-17T09:44:22.000Z</time>
      </trkpt>
      <trkpt lat="48.650203" lon="9.950627">
        <ele>658.323655</ele>
        <time>2024-03-17T09:44:24.000Z</time>
      </trkpt>
      <trkpt lat="48.650190" lon="9.950414">
        <ele>658.525306</ele>
        <time>2024-03-17T09:44:26.000Z</time>
      </trkpt>
      <trkpt lat="48.650179" lon="9.950200">
        <ele>658.727655</ele>
        <time>2024-03-17T09:44:28.000Z</time>
      </trkpt>
      <trkpt lat="48.650166" lon="9.949984">
        <ele>658.932124</ele>
        <time>2024-03-17T09:44:30.000Z</time>
      </trkpt>
      <trkpt lat="48.650151" lon="9.949773">
        <ele>659.132578</ele>
        <time>2024-03-17T09:44:32.000Z</time>
      </trkpt>
      <trkpt lat="48.650140" lon="9.949561">
        <ele>659.338994</ele>
        <time>2024-03-17T09:44:34.000Z</time>
      </trkpt>
      <trkpt lat="48.650126" lon="9.949347">
        <ele>659.547733</ele>
        <time>2024-03-17T09:44:36.000Z</time>
      </trkpt>
      <trkpt lat="48.650115" lon="9.949132">
        <ele>659.757052</ele>
        <time>2024-03-17T09:44:38.000Z</time>
      </trkpt>
      <trkpt lat="48.650096" lon="9.948918">
        <ele>659.966643</ele>
        <time>2024-03-17T09:44:40.000Z</time>
      </trkpt>
      <trkpt lat="48.650082" lon="9.948701">
        <ele>660.178280</ele>
        <time>2024-03-17T09:44:42.000Z</time>
      </trkpt>
      <trkpt lat="48.650068" lon="9.948484">
        <ele>660.389918</ele>
        <time>2024-03-17T09:44:44.000Z</time>
      </trkpt>
      <trkpt lat="48.650052" lon="9.948258">
        <ele>660.610546</ele>
        <time>2024-03-17T09:44:46.000Z</time>
      </trkpt>
      <trkpt lat="48.650038" lon="9.948039">
        <ele>660.824116</ele>
        <time>2024-03-17T09:44:48.000Z</time>
      </trkpt>
      <trkpt lat="48.650023" lon="9.947825">
        <ele>661.033005</ele>
        <time>2024-03-17T09:44:50.000Z</time>
      </trkpt>
      <trkpt lat="48.650013" lon="9.947616">
        <ele>661.236407</ele>
        <time>2024-03-17T09:44:52.000Z</time>
      </trkpt>
      <trkpt lat="48.649997" lon="9.947413">
        <ele>661.434851</ele>
        <time>2024-03-17T09:44:54.000Z</time>
      </trkpt>
      <trkpt lat="48.649984" lon="9.947207">
        <ele>661.635720</ele>
        <time>2024-03-17T09:44:56.000Z</time>
      </trkpt>
      <trkpt lat="48.649972" lon="9.947002">
        <ele>661.884594</ele>
        <time>2024-03-17T09:44:58.000Z</time>
      </trkpt>
      <trkpt lat="48.649959" lon="9.946802">
        <ele>662.209184</ele>
        <time>2024-03-17T09:45:00.000Z</time>
      </trkpt>
      <trkpt lat="48.649948" lon="9.946595">
        <ele>662.544600</ele>
        <time>2024-03-17T09:45:01.999Z</time>
      </trkpt>
      <trkpt lat="48.649933" lon="9.946388">
        <ele>662.880942</ele>
        <time>2024-03-17T09:45:03.999Z</time>
      </trkpt>
      <trkpt lat="48.649922" lon="9.946182">
        <ele>663.214749</ele>
        <time>2024-03-17T09:45:05.999Z</time>
      </trkpt>
      <trkpt lat="48.649913" lon="9.945975">
        <ele>663.549809</ele>
        <time>2024-03-17T09:45:07.999Z</time>
      </trkpt>
      <trkpt lat="48.649899" lon="9.945769">
        <ele>663.884287</ele>
        <time>2024-03-17T09:45:09.999Z</time>
      </trkpt>
      <trkpt lat="48.649884" lon="9.945561">
        <ele>664.222235</ele>
        <time>2024-03-17T09:45:11.999Z</time>
      </trkpt>
      <trkpt lat="48.649872" lon="9.945362">
        <ele>664.544987</ele>
        <time>2024-03-17T09:45:13.999Z</time>
      </trkpt>
      <trkpt lat="48.649858" lon="9.945195">
        <ele>664.816881</ele>
        <time>2024-03-17T09:45:15.999Z</time>
      </trkpt>
      <trkpt lat="48.649839" lon="9.945038">
        <ele>665.074680</ele>
        <time>2024-03-17T09:45:18.999Z</time>
      </trkpt>
      <trkpt lat="48.649958" lon="9.944919">
        <ele>665.423364</ele>
        <time>2024-03-17T09:45:21.999Z</time>
      </trkpt>
      <trkpt lat="48.650062" lon="9.944837">
        <ele>665.710047</ele>
        <time>2024-03-17T09:45:23.999Z</time>
      </trkpt>
      <trkpt lat="48.650182" lon="9.944728">
        <ele>666.052189</ele>
        <time>2024-03-17T09:45:25.999Z</time>
      </trkpt>
      <trkpt lat="48.650289" lon="9.944616">
        <ele>666.384941</ele>
        <time>2024-03-17T09:45:27.999Z</time>
      </trkpt>
      <trkpt lat="48.650403" lon="9.944498">
        <ele>666.746062</ele>
        <time>2024-03-17T09:45:29.999Z</time>
      </trkpt>
      <trkpt lat="48.650518" lon="9.944371">
        <ele>667.118290</ele>
        <time>2024-03-17T09:45:31.999Z</time>
      </trkpt>
      <trkpt lat="48.650631" lon="9.944236">
        <ele>667.494709</ele>
        <time>2024-03-17T09:45:33.999Z</time>
      </trkpt>
      <trkpt lat="48.650742" lon="9.944094">
        <ele>667.874727</ele>
        <time>2024-03-17T09:45:35.999Z</time>
      </trkpt>
      <trkpt lat="48.650849" lon="9.943943">
        <ele>668.257246</ele>
        <time>2024-03-17T09:45:37.999Z</time>
      </trkpt>
      <trkpt lat="48.650949" lon="9.943791">
        <ele>668.627809</ele>
        <time>2024-03-17T09:45:39.999Z</time>
      </trkpt>
      <trkpt lat="48.651048" lon="9.943640">
        <ele>668.995304</ele>
        <time>2024-03-17T09:45:41.999Z</time>
      </trkpt>
      <trkpt lat="48.651143" lon="9.943484">
        <ele>669.361810</ele>
        <time>2024-03-17T09:45:43.999Z</time>
      </trkpt>
      <trkpt lat="48.651232" lon="9.943316">
        <ele>669.733806</ele>
        <time>2024-03-17T09:45:45.999Z</time>
      </trkpt>
      <trkpt lat="48.651318" lon="9.943153">
        <ele>670.094155</ele>
        <time>2024-03-17T09:45:47.999Z</time>
      </trkpt>
      <trkpt lat="48.651405" lon="9.942987">
        <ele>670.460188</ele>
        <time>2024-03-17T09:45:49.999Z</time>
      </trkpt>
      <trkpt lat="48.651482" lon="9.942815">
        <ele>670.819101</ele>
        <time>2024-03-17T09:45:51.999Z</time>
      </trkpt>
      <trkpt lat="48.651562" lon="9.942639">
        <ele>671.129684</ele>
        <time>2024-03-17T09:45:53.999Z</time>
      </trkpt>
      <trkpt lat="48.651637" lon="9.942461">
        <ele>671.429035</ele>
        <time>2024-03-17T09:45:55.999Z</time>
      </trkpt>
      <trkpt lat="48.651708" lon="9.942282">
        <ele>671.725073</ele>
        <time>2024-03-17T09:45:57.999Z</time>
      </trkpt>
      <trkpt lat="48.651781" lon="9.942098">
        <ele>672.029398</ele>
        <time>2024-03-17T09:45:59.999Z</time>
      </trkpt>
      <trkpt lat="48.651851" lon="9.941915">
        <ele>672.329230</ele>
        <time>2024-03-17T09:46:01.999Z</time>
      </trkpt>
      <trkpt lat="48.651925" lon="9.941734">
        <ele>672.631040</ele>
        <time>2024-03-17T09:46:03.999Z</time>
      </trkpt>
      <trkpt lat="48.651996" lon="9.941557">
        <ele>672.924649</ele>
        <time>2024-03-17T09:46:05.999Z</time>
      </trkpt>
      <trkpt lat="48.652059" lon="9.941370">
        <ele>673.222283</ele>
        <time>2024-03-17T09:46:07.999Z</time>
      </trkpt>
      <trkpt lat="48.652133" lon="9.941195">
        <ele>673.516891</ele>
        <time>2024-03-17T09:46:09.999Z</time>
      </trkpt>
      <trkpt lat="48.652208" lon="9.941015">
        <ele>673.818634</ele>
        <time>2024-03-17T09:46:11.999Z</time>
      </trkpt>
      <trkpt lat="48.652285" lon="9.940837">
        <ele>674.120313</ele>
        <time>2024-03-17T09:46:13.999Z</time>
      </trkpt>
      <trkpt lat="48.652364" lon="9.940659">
        <ele>674.424363</ele>
        <time>2024-03-17T09:46:16.000Z</time>
      </trkpt>
      <trkpt lat="48.652446" lon="9.940484">
        <ele>674.730041</ele>
        <time>2024-03-17T09:46:18.000Z</time>
      </trkpt>
      <trkpt lat="48.652528" lon="9.940309">
        <ele>675.105327</ele>
        <time>2024-03-17T09:46:20.000Z</time>
      </trkpt>
      <trkpt lat="48.652611" lon="9.940144">
        <ele>675.468085</ele>
        <time>2024-03-17T09:46:22.000Z</time>
      </trkpt>
      <trkpt lat="48.652699" lon="9.939979">
        <ele>675.839012</ele>
        <time>2024-03-17T09:46:24.000Z</time>
      </trkpt>
      <trkpt lat="48.652792" lon="9.939820">
        <ele>676.210474</ele>
        <time>2024-03-17T09:46:26.000Z</time>
      </trkpt>
      <trkpt lat="48.652883" lon="9.939664">
        <ele>676.574496</ele>
        <time>2024-03-17T09:46:28.000Z</time>
      </trkpt>
      <trkpt lat="48.652977" lon="9.939507">
        <ele>676.945117</ele>
        <time>2024-03-17T09:46:30.000Z</time>
      </trkpt>
      <trkpt lat="48.653075" lon="9.939354">
        <ele>677.317878</ele>
        <time>2024-03-17T09:46:32.000Z</time>
      </trkpt>
      <trkpt lat="48.653175" lon="9.939205">
        <ele>677.689403</ele>
        <time>2024-03-17T09:46:34.000Z</time>
      </trkpt>
      <trkpt lat="48.653272" lon="9.939061">
        <ele>678.049131</ele>
        <time>2024-03-17T09:46:36.000Z</time>
      </trkpt>
      <trkpt lat="48.653373" lon="9.938917">
        <ele>678.416496</ele>
        <time>2024-03-17T09:46:38.000Z</time>
      </trkpt>
      <trkpt lat="48.653476" lon="9.938772">
        <ele>678.788922</ele>
        <time>2024-03-17T09:46:40.000Z</time>
      </trkpt>
      <trkpt lat="48.653582" lon="9.938636">
        <ele>679.156834</ele>
        <time>2024-03-17T09:46:42.000Z</time>
      </trkpt>
      <trkpt lat="48.653682" lon="9.938490">
        <ele>679.500292</ele>
        <time>2024-03-17T09:46:44.000Z</time>
      </trkpt>
      <trkpt lat="48.653786" lon="9.938353">
        <ele>679.642917</ele>
        <time>2024-03-17T09:46:46.000Z</time>
      </trkpt>
      <trkpt lat="48.653889" lon="9.938212">
        <ele>679.786581</ele>
        <time>2024-03-17T09:46:48.000Z</time>
      </trkpt>
      <trkpt lat="48.653990" lon="9.938074">
        <ele>679.927336</ele>
        <time>2024-03-17T09:46:50.000Z</time>
      </trkpt>
      <trkpt lat="48.654090" lon="9.937930">
        <ele>680.070119</ele>
        <time>2024-03-17T09:46:52.000Z</time>
      </trkpt>
      <trkpt lat="48.654192" lon="9.937788">
        <ele>680.213480</ele>
        <time>2024-03-17T09:46:54.000Z</time>
      </trkpt>
      <trkpt lat="48.654297" lon="9.937642">
        <ele>680.360975</ele>
        <time>2024-03-17T09:46:56.000Z</time>
      </trkpt>
      <trkpt lat="48.654401" lon="9.937489">
        <ele>680.511004</ele>
        <time>2024-03-17T09:46:58.000Z</time>
      </trkpt>
      <trkpt lat="48.654511" lon="9.937338">
        <ele>680.664623</ele>
        <time>2024-03-17T09:47:00.000Z</time>
      </trkpt>
      <trkpt lat="48.654619" lon="9.937183">
        <ele>680.818583</ele>
        <time>2024-03-17T09:47:02.000Z</time>
      </trkpt>
      <trkpt lat="48.654726" lon="9.937024">
        <ele>680.973697</ele>
        <time>2024-03-17T09:47:04.000Z</time>
      </trkpt>
      <trkpt lat="48.654843" lon="9.936865">
        <ele>681.136355</ele>
        <time>2024-03-17T09:47:06.000Z</time>
      </trkpt>
      <trkpt lat="48.654953" lon="9.936697">
        <ele>681.298007</ele>
        <time>2024-03-17T09:47:08.000Z</time>
      </trkpt>
      <trkpt lat="48.655071" lon="9.936520">
        <ele>681.059467</ele>
        <time>2024-03-17T09:47:10.000Z</time>
      </trkpt>
      <trkpt lat="48.655196" lon="9.936332">
        <ele>680.640786</ele>
        <time>2024-03-17T09:47:12.000Z</time>
      </trkpt>
      <trkpt lat="48.655260" lon="9.936234">
        <ele>680.424483</ele>
        <time>2024-03-17T09:47:12.999Z</time>
      </trkpt>
      <trkpt lat="48.655323" lon="9.936133">
        <ele>680.206445</ele>
        <time>2024-03-17T09:47:13.999Z</time>
      </trkpt>
      <trkpt lat="48.655386" lon="9.936032">
        <ele>679.988408</ele>
        <time>2024-03-17T09:47:14.999Z</time>
      </trkpt>
      <trkpt lat="48.655449" lon="9.935932">
        <ele>679.771508</ele>
        <time>2024-03-17T09:47:15.999Z</time>
      </trkpt>
      <trkpt lat="48.655570" lon="9.935730">
        <ele>679.343503</ele>
        <time>2024-03-17T09:47:17.999Z</time>
      </trkpt>
      <trkpt lat="48.655628" lon="9.935626">
        <ele>679.129869</ele>
        <time>2024-03-17T09:47:18.999Z</time>
      </trkpt>
      <trkpt lat="48.655749" lon="9.935426">
        <ele>678.704184</ele>
        <time>2024-03-17T09:47:20.999Z</time>
      </trkpt>
      <trkpt lat="48.655866" lon="9.935212">
        <ele>678.268167</ele>
        <time>2024-03-17T09:47:22.999Z</time>
      </trkpt>
      <trkpt lat="48.655926" lon="9.935109">
        <ele>678.052617</ele>
        <time>2024-03-17T09:47:23.999Z</time>
      </trkpt>
      <trkpt lat="48.655987" lon="9.935004">
        <ele>677.833141</ele>
        <time>2024-03-17T09:47:24.999Z</time>
      </trkpt>
      <trkpt lat="48.656104" lon="9.934782">
        <ele>677.387379</ele>
        <time>2024-03-17T09:47:26.999Z</time>
      </trkpt>
      <trkpt lat="48.656166" lon="9.934680">
        <ele>677.169815</ele>
        <time>2024-03-17T09:47:27.999Z</time>
      </trkpt>
      <trkpt lat="48.656225" lon="9.934574">
        <ele>676.957000</ele>
        <time>2024-03-17T09:47:28.999Z</time>
      </trkpt>
      <trkpt lat="48.656282" lon="9.934466">
        <ele>676.748657</ele>
        <time>2024-03-17T09:47:29.999Z</time>
      </trkpt>
      <trkpt lat="48.656343" lon="9.934355">
        <ele>676.531041</ele>
        <time>2024-03-17T09:47:30.999Z</time>
      </trkpt>
      <trkpt lat="48.656400" lon="9.934244">
        <ele>676.319147</ele>
        <time>2024-03-17T09:47:31.999Z</time>
      </trkpt>
      <trkpt lat="48.656456" lon="9.934130">
        <ele>676.105034</ele>
        <time>2024-03-17T09:47:32.999Z</time>
      </trkpt>
      <trkpt lat="48.656507" lon="9.934014">
        <ele>675.895024</ele>
        <time>2024-03-17T09:47:33.999Z</time>
      </trkpt>
      <trkpt lat="48.656557" lon="9.933894">
        <ele>675.681196</ele>
        <time>2024-03-17T09:47:34.999Z</time>
      </trkpt>
      <trkpt lat="48.656600" lon="9.933772">
        <ele>675.472790</ele>
        <time>2024-03-17T09:47:35.999Z</time>
      </trkpt>
      <trkpt lat="48.656643" lon="9.933648">
        <ele>675.261720</ele>
        <time>2024-03-17T09:47:36.999Z</time>
      </trkpt>
      <trkpt lat="48.656688" lon="9.933525">
        <ele>675.049810</ele>
        <time>2024-03-17T09:47:37.999Z</time>
      </trkpt>
      <trkpt lat="48.656735" lon="9.933397">
        <ele>674.829098</ele>
        <time>2024-03-17T09:47:38.999Z</time>
      </trkpt>
      <trkpt lat="48.656779" lon="9.933267">
        <ele>674.608950</ele>
        <time>2024-03-17T09:47:39.999Z</time>
      </trkpt>
      <trkpt lat="48.656825" lon="9.933137">
        <ele>674.386685</ele>
        <time>2024-03-17T09:47:40.999Z</time>
      </trkpt>
      <trkpt lat="48.656871" lon="9.933006">
        <ele>674.163090</ele>
        <time>2024-03-17T09:47:41.999Z</time>
      </trkpt>
      <trkpt lat="48.656916" lon="9.932872">
        <ele>673.936537</ele>
        <time>2024-03-17T09:47:42.999Z</time>
      </trkpt>
      <trkpt lat="48.656963" lon="9.932738">
        <ele>673.707879</ele>
        <time>2024-03-17T09:47:43.999Z</time>
      </trkpt>
      <trkpt lat="48.657009" lon="9.932599">
        <ele>673.473570</ele>
        <time>2024-03-17T09:47:44.999Z</time>
      </trkpt>
      <trkpt lat="48.657052" lon="9.932461">
        <ele>673.243610</ele>
        <time>2024-03-17T09:47:45.999Z</time>
      </trkpt>
      <trkpt lat="48.657095" lon="9.932322">
        <ele>673.012287</ele>
        <time>2024-03-17T09:47:46.999Z</time>
      </trkpt>
      <trkpt lat="48.657138" lon="9.932177">
        <ele>672.883888</ele>
        <time>2024-03-17T09:47:47.999Z</time>
      </trkpt>
      <trkpt lat="48.657180" lon="9.932034">
        <ele>672.782338</ele>
        <time>2024-03-17T09:47:48.999Z</time>
      </trkpt>
      <trkpt lat="48.657223" lon="9.931893">
        <ele>672.681564</ele>
        <time>2024-03-17T09:47:49.999Z</time>
      </trkpt>
      <trkpt lat="48.657265" lon="9.931755">
        <ele>672.582970</ele>
        <time>2024-03-17T09:47:50.999Z</time>
      </trkpt>
      <trkpt lat="48.657305" lon="9.931620">
        <ele>672.486961</ele>
        <time>2024-03-17T09:47:51.999Z</time>
      </trkpt>
      <trkpt lat="48.657344" lon="9.931486">
        <ele>672.391944</ele>
        <time>2024-03-17T09:47:52.999Z</time>
      </trkpt>
      <trkpt lat="48.657383" lon="9.931355">
        <ele>672.298705</ele>
        <time>2024-03-17T09:47:53.999Z</time>
      </trkpt>
      <trkpt lat="48.657423" lon="9.931219">
        <ele>672.202103</ele>
        <time>2024-03-17T09:47:54.999Z</time>
      </trkpt>
      <trkpt lat="48.657464" lon="9.931086">
        <ele>672.106866</ele>
        <time>2024-03-17T09:47:55.999Z</time>
      </trkpt>
      <trkpt lat="48.657508" lon="9.930952">
        <ele>672.009765</ele>
        <time>2024-03-17T09:47:56.999Z</time>
      </trkpt>
      <trkpt lat="48.657550" lon="9.930817">
        <ele>671.912935</ele>
        <time>2024-03-17T09:47:57.999Z</time>
      </trkpt>
      <trkpt lat="48.657594" lon="9.930680">
        <ele>671.814087</ele>
        <time>2024-03-17T09:47:58.999Z</time>
      </trkpt>
      <trkpt lat="48.657639" lon="9.930545">
        <ele>671.715966</ele>
        <time>2024-03-17T09:47:59.999Z</time>
      </trkpt>
      <trkpt lat="48.657685" lon="9.930411">
        <ele>671.617975</ele>
        <time>2024-03-17T09:48:00.999Z</time>
      </trkpt>
      <trkpt lat="48.657731" lon="9.930275">
        <ele>671.518830</ele>
        <time>2024-03-17T09:48:01.999Z</time>
      </trkpt>
      <trkpt lat="48.657778" lon="9.930137">
        <ele>671.418082</ele>
        <time>2024-03-17T09:48:02.999Z</time>
      </trkpt>
      <trkpt lat="48.657827" lon="9.930003">
        <ele>671.318698</ele>
        <time>2024-03-17T09:48:03.999Z</time>
      </trkpt>
      <trkpt lat="48.657874" lon="9.929865">
        <ele>671.217950</ele>
        <time>2024-03-17T09:48:04.999Z</time>
      </trkpt>
      <trkpt lat="48.657923" lon="9.929728">
        <ele>671.100866</ele>
        <time>2024-03-17T09:48:05.999Z</time>
      </trkpt>
      <trkpt lat="48.657970" lon="9.929587">
        <ele>670.978921</ele>
        <time>2024-03-17T09:48:06.999Z</time>
      </trkpt>
      <trkpt lat="48.658017" lon="9.929444">
        <ele>670.855594</ele>
        <time>2024-03-17T09:48:07.999Z</time>
      </trkpt>
      <trkpt lat="48.658061" lon="9.929302">
        <ele>670.734490</ele>
        <time>2024-03-17T09:48:08.999Z</time>
      </trkpt>
      <trkpt lat="48.658102" lon="9.929156">
        <ele>670.611996</ele>
        <time>2024-03-17T09:48:09.999Z</time>
      </trkpt>
      <trkpt lat="48.658142" lon="9.929011">
        <ele>670.490668</ele>
        <time>2024-03-17T09:48:10.999Z</time>
      </trkpt>
      <trkpt lat="48.658183" lon="9.928864">
        <ele>670.367463</ele>
        <time>2024-03-17T09:48:11.999Z</time>
      </trkpt>
      <trkpt lat="48.658225" lon="9.928718">
        <ele>670.244507</ele>
        <time>2024-03-17T09:48:12.999Z</time>
      </trkpt>
      <trkpt lat="48.658265" lon="9.928568">
        <ele>670.119608</ele>
        <time>2024-03-17T09:48:13.999Z</time>
      </trkpt>
      <trkpt lat="48.658304" lon="9.928418">
        <ele>669.995142</ele>
        <time>2024-03-17T09:48:14.999Z</time>
      </trkpt>
      <trkpt lat="48.658344" lon="9.928268">
        <ele>669.870243</ele>
        <time>2024-03-17T09:48:15.999Z</time>
      </trkpt>
      <trkpt lat="48.658385" lon="9.928119">
        <ele>669.745614</ele>
        <time>2024-03-17T09:48:16.999Z</time>
      </trkpt>
      <trkpt lat="48.658430" lon="9.927970">
        <ele>669.619115</ele>
        <time>2024-03-17T09:48:17.999Z</time>
      </trkpt>
      <trkpt lat="48.658474" lon="9.927821">
        <ele>669.493097</ele>
        <time>2024-03-17T09:48:18.999Z</time>
      </trkpt>
      <trkpt lat="48.658524" lon="9.927675">
        <ele>669.366118</ele>
        <time>2024-03-17T09:48:19.999Z</time>
      </trkpt>
      <trkpt lat="48.658582" lon="9.927540">
        <ele>669.241775</ele>
        <time>2024-03-17T09:48:21.000Z</time>
      </trkpt>
      <trkpt lat="48.658647" lon="9.927410">
        <ele>669.115887</ele>
        <time>2024-03-17T09:48:22.000Z</time>
      </trkpt>
      <trkpt lat="48.658720" lon="9.927287">
        <ele>668.922417</ele>
        <time>2024-03-17T09:48:23.000Z</time>
      </trkpt>
      <trkpt lat="48.658800" lon="9.927178">
        <ele>668.721637</ele>
        <time>2024-03-17T09:48:24.000Z</time>
      </trkpt>
      <trkpt lat="48.658883" lon="9.927069">
        <ele>668.516663</ele>
        <time>2024-03-17T09:48:25.000Z</time>
      </trkpt>
      <trkpt lat="48.658964" lon="9.926956">
        <ele>668.311185</ele>
        <time>2024-03-17T09:48:26.000Z</time>
      </trkpt>
      <trkpt lat="48.659047" lon="9.926842">
        <ele>668.102123</ele>
        <time>2024-03-17T09:48:27.000Z</time>
      </trkpt>
      <trkpt lat="48.659129" lon="9.926727">
        <ele>667.893603</ele>
        <time>2024-03-17T09:48:28.000Z</time>
      </trkpt>
      <trkpt lat="48.659210" lon="9.926613">
        <ele>667.687289</ele>
        <time>2024-03-17T09:48:29.000Z</time>
      </trkpt>
      <trkpt lat="48.659294" lon="9.926498">
        <ele>667.476017</ele>
        <time>2024-03-17T09:48:30.000Z</time>
      </trkpt>
      <trkpt lat="48.659374" lon="9.926385">
        <ele>667.271908</ele>
        <time>2024-03-17T09:48:31.000Z</time>
      </trkpt>
      <trkpt lat="48.659454" lon="9.926275">
        <ele>667.070303</ele>
        <time>2024-03-17T09:48:32.000Z</time>
      </trkpt>
      <trkpt lat="48.659530" lon="9.926163">
        <ele>666.872446</ele>
        <time>2024-03-17T09:48:33.000Z</time>
      </trkpt>
      <trkpt lat="48.659605" lon="9.926052">
        <ele>666.676786</ele>
        <time>2024-03-17T09:48:34.000Z</time>
      </trkpt>
      <trkpt lat="48.659679" lon="9.925935">
        <ele>666.477182</ele>
        <time>2024-03-17T09:48:35.000Z</time>
      </trkpt>
      <trkpt lat="48.659752" lon="9.925817">
        <ele>666.277967</ele>
        <time>2024-03-17T09:48:36.000Z</time>
      </trkpt>
      <trkpt lat="48.659827" lon="9.925700">
        <ele>666.077069</ele>
        <time>2024-03-17T09:48:37.000Z</time>
      </trkpt>
      <trkpt lat="48.659902" lon="9.925579">
        <ele>665.872606</ele>
        <time>2024-03-17T09:48:38.000Z</time>
      </trkpt>
      <trkpt lat="48.659981" lon="9.925464">
        <ele>665.638468</ele>
        <time>2024-03-17T09:48:39.000Z</time>
      </trkpt>
      <trkpt lat="48.660062" lon="9.925349">
        <ele>665.349431</ele>
        <time>2024-03-17T09:48:40.000Z</time>
      </trkpt>
      <trkpt lat="48.660143" lon="9.925235">
        <ele>665.061568</ele>
        <time>2024-03-17T09:48:41.000Z</time>
      </trkpt>
      <trkpt lat="48.660226" lon="9.925118">
        <ele>664.766381</ele>
        <time>2024-03-17T09:48:42.000Z</time>
      </trkpt>
      <trkpt lat="48.660306" lon="9.924999">
        <ele>664.474460</ele>
        <time>2024-03-17T09:48:43.000Z</time>
      </trkpt>
      <trkpt lat="48.660385" lon="9.924879">
        <ele>664.183176</ele>
        <time>2024-03-17T09:48:44.000Z</time>
      </trkpt>
      <trkpt lat="48.660463" lon="9.924758">
        <ele>663.892495</ele>
        <time>2024-03-17T09:48:45.000Z</time>
      </trkpt>
      <trkpt lat="48.660542" lon="9.924635">
        <ele>663.597535</ele>
        <time>2024-03-17T09:48:46.000Z</time>
      </trkpt>
      <trkpt lat="48.660620" lon="9.924513">
        <ele>663.305622</ele>
        <time>2024-03-17T09:48:47.000Z</time>
      </trkpt>
      <trkpt lat="48.660695" lon="9.924385">
        <ele>663.011450</ele>
        <time>2024-03-17T09:48:48.000Z</time>
      </trkpt>
      <trkpt lat="48.660766" lon="9.924250">
        <ele>662.714765</ele>
        <time>2024-03-17T09:48:49.000Z</time>
      </trkpt>
      <trkpt lat="48.660836" lon="9.924110">
        <ele>662.412886</ele>
        <time>2024-03-17T09:48:50.000Z</time>
      </trkpt>
      <trkpt lat="48.660904" lon="9.923967">
        <ele>662.109950</ele>
        <time>2024-03-17T09:48:51.000Z</time>
      </trkpt>
      <trkpt lat="48.660970" lon="9.923816">
        <ele>661.798652</ele>
        <time>2024-03-17T09:48:52.000Z</time>
      </trkpt>
      <trkpt lat="48.661032" lon="9.923664">
        <ele>661.491515</ele>
        <time>2024-03-17T09:48:53.000Z</time>
      </trkpt>
      <trkpt lat="48.661091" lon="9.923508">
        <ele>661.182460</ele>
        <time>2024-03-17T09:48:54.000Z</time>
      </trkpt>
      <trkpt lat="48.661142" lon="9.923349">
        <ele>661.016329</ele>
        <time>2024-03-17T09:48:55.000Z</time>
      </trkpt>
      <trkpt lat="48.661193" lon="9.923191">
        <ele>660.941520</ele>
        <time>2024-03-17T09:48:56.000Z</time>
      </trkpt>
      <trkpt lat="48.661238" lon="9.923034">
        <ele>660.868716</ele>
        <time>2024-03-17T09:48:57.000Z</time>
      </trkpt>
      <trkpt lat="48.661280" lon="9.922878">
        <ele>660.797053</ele>
        <time>2024-03-17T09:48:58.000Z</time>
      </trkpt>
      <trkpt lat="48.661319" lon="9.922720">
        <ele>660.725301</ele>
        <time>2024-03-17T09:48:59.000Z</time>
      </trkpt>
      <trkpt lat="48.661352" lon="9.922565">
        <ele>660.656024</ele>
        <time>2024-03-17T09:49:00.000Z</time>
      </trkpt>
      <trkpt lat="48.661383" lon="9.922412">
        <ele>660.587945</ele>
        <time>2024-03-17T09:49:01.000Z</time>
      </trkpt>
      <trkpt lat="48.661415" lon="9.922259">
        <ele>660.519675</ele>
        <time>2024-03-17T09:49:02.000Z</time>
      </trkpt>
      <trkpt lat="48.661443" lon="9.922101">
        <ele>660.450086</ele>
        <time>2024-03-17T09:49:03.000Z</time>
      </trkpt>
      <trkpt lat="48.661472" lon="9.921943">
        <ele>660.380327</ele>
        <time>2024-03-17T09:49:04.000Z</time>
      </trkpt>
      <trkpt lat="48.661504" lon="9.921785">
        <ele>660.310026</ele>
        <time>2024-03-17T09:49:05.000Z</time>
      </trkpt>
      <trkpt lat="48.661534" lon="9.921627">
        <ele>660.240092</ele>
        <time>2024-03-17T09:49:06.000Z</time>
      </trkpt>
      <trkpt lat="48.661566" lon="9.921471">
        <ele>660.170604</ele>
        <time>2024-03-17T09:49:07.000Z</time>
      </trkpt>
      <trkpt lat="48.661595" lon="9.921317">
        <ele>660.102483</ele>
        <time>2024-03-17T09:49:08.000Z</time>
      </trkpt>
      <trkpt lat="48.661623" lon="9.921162">
        <ele>660.034126</ele>
        <time>2024-03-17T09:49:09.000Z</time>
      </trkpt>
      <trkpt lat="48.661653" lon="9.921010">
        <ele>659.966641</ele>
        <time>2024-03-17T09:49:10.000Z</time>
      </trkpt>
      <trkpt lat="48.661684" lon="9.920853">
        <ele>659.919529</ele>
        <time>2024-03-17T09:49:11.000Z</time>
      </trkpt>
      <trkpt lat="48.661710" lon="9.920703">
        <ele>660.090645</ele>
        <time>2024-03-17T09:49:12.000Z</time>
      </trkpt>
      <trkpt lat="48.661738" lon="9.920553">
        <ele>660.262640</ele>
        <time>2024-03-17T09:49:12.999Z</time>
      </trkpt>
      <trkpt lat="48.661764" lon="9.920405">
        <ele>660.431622</ele>
        <time>2024-03-17T09:49:13.999Z</time>
      </trkpt>
      <trkpt lat="48.661792" lon="9.920266">
        <ele>660.591971</ele>
        <time>2024-03-17T09:49:14.999Z</time>
      </trkpt>
      <trkpt lat="48.661821" lon="9.920125">
        <ele>660.754920</ele>
        <time>2024-03-17T09:49:15.999Z</time>
      </trkpt>
      <trkpt lat="48.661848" lon="9.919991">
        <ele>660.909504</ele>
        <time>2024-03-17T09:49:16.999Z</time>
      </trkpt>
      <trkpt lat="48.661870" lon="9.919854">
        <ele>661.065075</ele>
        <time>2024-03-17T09:49:17.999Z</time>
      </trkpt>
      <trkpt lat="48.661896" lon="9.919722">
        <ele>661.217063</ele>
        <time>2024-03-17T09:49:18.999Z</time>
      </trkpt>
      <trkpt lat="48.661921" lon="9.919589">
        <ele>661.369643</ele>
        <time>2024-03-17T09:49:19.999Z</time>
      </trkpt>
      <trkpt lat="48.661990" lon="9.919334">
        <ele>661.673708</ele>
        <time>2024-03-17T09:49:21.999Z</time>
      </trkpt>
      <trkpt lat="48.662069" lon="9.919089">
        <ele>661.974537</ele>
        <time>2024-03-17T09:49:23.999Z</time>
      </trkpt>
      <trkpt lat="48.662117" lon="9.918968">
        <ele>662.130278</ele>
        <time>2024-03-17T09:49:24.999Z</time>
      </trkpt>
      <trkpt lat="48.662164" lon="9.918850">
        <ele>662.282322</ele>
        <time>2024-03-17T09:49:25.999Z</time>
      </trkpt>
      <trkpt lat="48.662216" lon="9.918732">
        <ele>662.438843</ele>
        <time>2024-03-17T09:49:26.999Z</time>
      </trkpt>
      <trkpt lat="48.662266" lon="9.918613">
        <ele>662.594464</ele>
        <time>2024-03-17T09:49:27.999Z</time>
      </trkpt>
      <trkpt lat="48.662315" lon="9.918494">
        <ele>662.749194</ele>
        <time>2024-03-17T09:49:28.999Z</time>
      </trkpt>
      <trkpt lat="48.662362" lon="9.918371">
        <ele>662.905988</ele>
        <time>2024-03-17T09:49:29.999Z</time>
      </trkpt>
      <trkpt lat="48.662406" lon="9.918247">
        <ele>663.037219</ele>
        <time>2024-03-17T09:49:30.999Z</time>
      </trkpt>
      <trkpt lat="48.662450" lon="9.918120">
        <ele>663.170604</ele>
        <time>2024-03-17T09:49:31.999Z</time>
      </trkpt>
      <trkpt lat="48.662492" lon="9.917989">
        <ele>663.306040</ele>
        <time>2024-03-17T09:49:32.999Z</time>
      </trkpt>
      <trkpt lat="48.662528" lon="9.917860">
        <ele>663.436291</ele>
        <time>2024-03-17T09:49:33.999Z</time>
      </trkpt>
      <trkpt lat="48.662564" lon="9.917726">
        <ele>663.570837</ele>
        <time>2024-03-17T09:49:34.999Z</time>
      </trkpt>
      <trkpt lat="48.662595" lon="9.917590">
        <ele>663.704649</ele>
        <time>2024-03-17T09:49:35.999Z</time>
      </trkpt>
      <trkpt lat="48.662629" lon="9.917453">
        <ele>663.840768</ele>
        <time>2024-03-17T09:49:36.999Z</time>
      </trkpt>
      <trkpt lat="48.662660" lon="9.917317">
        <ele>663.974580</ele>
        <time>2024-03-17T09:49:37.999Z</time>
      </trkpt>
      <trkpt lat="48.662689" lon="9.917179">
        <ele>664.109270</ele>
        <time>2024-03-17T09:49:38.999Z</time>
      </trkpt>
      <trkpt lat="48.662719" lon="9.917041">
        <ele>664.244395</ele>
        <time>2024-03-17T09:49:39.999Z</time>
      </trkpt>
      <trkpt lat="48.662751" lon="9.916905">
        <ele>664.378672</ele>
        <time>2024-03-17T09:49:40.999Z</time>
      </trkpt>
      <trkpt lat="48.662782" lon="9.916769">
        <ele>664.512483</ele>
        <time>2024-03-17T09:49:41.999Z</time>
      </trkpt>
      <trkpt lat="48.662816" lon="9.916636">
        <ele>664.645126</ele>
        <time>2024-03-17T09:49:42.999Z</time>
      </trkpt>
      <trkpt lat="48.662846" lon="9.916502">
        <ele>664.776721</ele>
        <time>2024-03-17T09:49:43.999Z</time>
      </trkpt>
      <trkpt lat="48.662879" lon="9.916372">
        <ele>664.906253</ele>
        <time>2024-03-17T09:49:44.999Z</time>
      </trkpt>
      <trkpt lat="48.662915" lon="9.916244">
        <ele>665.035647</ele>
        <time>2024-03-17T09:49:45.999Z</time>
      </trkpt>
      <trkpt lat="48.662954" lon="9.916115">
        <ele>665.167598</ele>
        <time>2024-03-17T09:49:46.999Z</time>
      </trkpt>
      <trkpt lat="48.662989" lon="9.915990">
        <ele>665.293873</ele>
        <time>2024-03-17T09:49:47.999Z</time>
      </trkpt>
      <trkpt lat="48.663066" lon="9.915743">
        <ele>665.691697</ele>
        <time>2024-03-17T09:49:49.999Z</time>
      </trkpt>
      <trkpt lat="48.663149" lon="9.915513">
        <ele>666.262581</ele>
        <time>2024-03-17T09:49:51.999Z</time>
      </trkpt>
      <trkpt lat="48.663232" lon="9.915292">
        <ele>666.816341</ele>
        <time>2024-03-17T09:49:53.999Z</time>
      </trkpt>
      <trkpt lat="48.663313" lon="9.915075">
        <ele>667.359269</ele>
        <time>2024-03-17T09:49:55.999Z</time>
      </trkpt>
      <trkpt lat="48.663395" lon="9.914873">
        <ele>667.875721</ele>
        <time>2024-03-17T09:49:57.999Z</time>
      </trkpt>
      <trkpt lat="48.663477" lon="9.914666">
        <ele>668.401482</ele>
        <time>2024-03-17T09:49:59.999Z</time>
      </trkpt>
      <trkpt lat="48.663561" lon="9.914464">
        <ele>668.921417</ele>
        <time>2024-03-17T09:50:01.999Z</time>
      </trkpt>
      <trkpt lat="48.663642" lon="9.914262">
        <ele>669.436149</ele>
        <time>2024-03-17T09:50:03.999Z</time>
      </trkpt>
      <trkpt lat="48.663716" lon="9.914062">
        <ele>669.935481</ele>
        <time>2024-03-17T09:50:05.999Z</time>
      </trkpt>
      <trkpt lat="48.663791" lon="9.913869">
        <ele>670.423232</ele>
        <time>2024-03-17T09:50:07.999Z</time>
      </trkpt>
      <trkpt lat="48.663866" lon="9.913681">
        <ele>670.901628</ele>
        <time>2024-03-17T09:50:09.999Z</time>
      </trkpt>
      <trkpt lat="48.663934" lon="9.913508">
        <ele>671.340131</ele>
        <time>2024-03-17T09:50:11.999Z</time>
      </trkpt>
      <trkpt lat="48.664004" lon="9.913339">
        <ele>671.298361</ele>
        <time>2024-03-17T09:50:13.999Z</time>
      </trkpt>
      <trkpt lat="48.664069" lon="9.913171">
        <ele>671.220255</ele>
        <time>2024-03-17T09:50:15.999Z</time>
      </trkpt>
      <trkpt lat="48.664129" lon="9.913016">
        <ele>671.148184</ele>
        <time>2024-03-17T09:50:17.999Z</time>
      </trkpt>
      <trkpt lat="48.664189" lon="9.912867">
        <ele>671.078178</ele>
        <time>2024-03-17T09:50:19.999Z</time>
      </trkpt>
      <trkpt lat="48.664279" lon="9.912733">
        <ele>671.001512</ele>
        <time>2024-03-17T09:50:21.999Z</time>
      </trkpt>
      <trkpt lat="48.664405" lon="9.912665">
        <ele>670.920267</ele>
        <time>2024-03-17T09:50:23.999Z</time>
      </trkpt>
      <trkpt lat="48.664535" lon="9.912595">
        <ele>670.836464</ele>
        <time>2024-03-17T09:50:25.999Z</time>
      </trkpt>
      <trkpt lat="48.664652" lon="9.912544">
        <ele>670.762514</ele>
        <time>2024-03-17T09:50:28.000Z</time>
      </trkpt>
      <trkpt lat="48.664764" lon="9.912511">
        <ele>670.693212</ele>
        <time>2024-03-17T09:50:30.000Z</time>
      </trkpt>
      <trkpt lat="48.664871" lon="9.912619">
        <ele>670.615106</ele>
        <time>2024-03-17T09:50:32.000Z</time>
      </trkpt>
      <trkpt lat="48.664970" lon="9.912778">
        <ele>670.527449</ele>
        <time>2024-03-17T09:50:34.000Z</time>
      </trkpt>
      <trkpt lat="48.665066" lon="9.912921">
        <ele>670.445653</ele>
        <time>2024-03-17T09:50:36.000Z</time>
      </trkpt>
      <trkpt lat="48.665175" lon="9.913059">
        <ele>670.359355</ele>
        <time>2024-03-17T09:50:38.000Z</time>
      </trkpt>
      <trkpt lat="48.665279" lon="9.913188">
        <ele>670.266601</ele>
        <time>2024-03-17T09:50:40.000Z</time>
      </trkpt>
      <trkpt lat="48.665387" lon="9.913329">
        <ele>669.759746</ele>
        <time>2024-03-17T09:50:42.000Z</time>
      </trkpt>
      <trkpt lat="48.665506" lon="9.913456">
        <ele>669.242280</ele>
        <time>2024-03-17T09:50:44.000Z</time>
      </trkpt>
      <trkpt lat="48.665642" lon="9.913582">
        <ele>668.675589</ele>
        <time>2024-03-17T09:50:46.000Z</time>
      </trkpt>
      <trkpt lat="48.665776" lon="9.913705">
        <ele>668.118632</ele>
        <time>2024-03-17T09:50:48.000Z</time>
      </trkpt>
      <trkpt lat="48.665918" lon="9.913819">
        <ele>667.547370</ele>
        <time>2024-03-17T09:50:50.000Z</time>
      </trkpt>
      <trkpt lat="48.666050" lon="9.913976">
        <ele>666.950766</ele>
        <time>2024-03-17T09:50:52.000Z</time>
      </trkpt>
      <trkpt lat="48.666173" lon="9.914150">
        <ele>666.352476</ele>
        <time>2024-03-17T09:50:54.000Z</time>
      </trkpt>
      <trkpt lat="48.666258" lon="9.914203">
        <ele>666.025749</ele>
        <time>2024-03-17T09:50:55.000Z</time>
      </trkpt>
      <trkpt lat="48.666422" lon="9.914309">
        <ele>665.391963</ele>
        <time>2024-03-17T09:50:57.000Z</time>
      </trkpt>
      <trkpt lat="48.666507" lon="9.914358">
        <ele>665.068696</ele>
        <time>2024-03-17T09:50:58.000Z</time>
      </trkpt>
      <trkpt lat="48.666670" lon="9.914452">
        <ele>664.448754</ele>
        <time>2024-03-17T09:51:00.000Z</time>
      </trkpt>
      <trkpt lat="48.666836" lon="9.914538">
        <ele>663.886273</ele>
        <time>2024-03-17T09:51:02.000Z</time>
      </trkpt>
      <trkpt lat="48.666999" lon="9.914629">
        <ele>663.877699</ele>
        <time>2024-03-17T09:51:04.000Z</time>
      </trkpt>
      <trkpt lat="48.667160" lon="9.914714">
        <ele>663.869284</ele>
        <time>2024-03-17T09:51:06.000Z</time>
      </trkpt>
      <trkpt lat="48.667317" lon="9.914790">
        <ele>663.861149</ele>
        <time>2024-03-17T09:51:08.000Z</time>
      </trkpt>
      <trkpt lat="48.667470" lon="9.914868">
        <ele>663.853182</ele>
        <time>2024-03-17T09:51:10.000Z</time>
      </trkpt>
      <trkpt lat="48.667628" lon="9.914942">
        <ele>663.845020</ele>
        <time>2024-03-17T09:51:12.000Z</time>
      </trkpt>
      <trkpt lat="48.667787" lon="9.915019">
        <ele>663.836782</ele>
        <time>2024-03-17T09:51:14.000Z</time>
      </trkpt>
      <trkpt lat="48.667947" lon="9.915095">
        <ele>663.828506</ele>
        <time>2024-03-17T09:51:15.998Z</time>
      </trkpt>
      <trkpt lat="48.668102" lon="9.915175">
        <ele>663.820424</ele>
        <time>2024-03-17T09:51:17.998Z</time>
      </trkpt>
      <trkpt lat="48.668258" lon="9.915244">
        <ele>663.812403</ele>
        <time>2024-03-17T09:51:19.998Z</time>
      </trkpt>
      <trkpt lat="48.668403" lon="9.915319">
        <ele>663.804841</ele>
        <time>2024-03-17T09:51:21.998Z</time>
      </trkpt>
      <trkpt lat="48.668538" lon="9.915391">
        <ele>663.831424</ele>
        <time>2024-03-17T09:51:23.998Z</time>
      </trkpt>
      <trkpt lat="48.668669" lon="9.915456">
        <ele>664.213363</ele>
        <time>2024-03-17T09:51:25.998Z</time>
      </trkpt>
      <trkpt lat="48.668803" lon="9.915528">
        <ele>664.607306</ele>
        <time>2024-03-17T09:51:27.998Z</time>
      </trkpt>
      <trkpt lat="48.668939" lon="9.915600">
        <ele>665.006474</ele>
        <time>2024-03-17T09:51:29.998Z</time>
      </trkpt>
      <trkpt lat="48.669074" lon="9.915675">
        <ele>665.404886</ele>
        <time>2024-03-17T09:51:31.998Z</time>
      </trkpt>
      <trkpt lat="48.669210" lon="9.915742">
        <ele>665.801129</ele>
        <time>2024-03-17T09:51:33.998Z</time>
      </trkpt>
      <trkpt lat="48.669352" lon="9.915814">
        <ele>666.216025</ele>
        <time>2024-03-17T09:51:35.998Z</time>
      </trkpt>
      <trkpt lat="48.669494" lon="9.915887">
        <ele>666.631507</ele>
        <time>2024-03-17T09:51:37.998Z</time>
      </trkpt>
      <trkpt lat="48.669635" lon="9.915970">
        <ele>667.050642</ele>
        <time>2024-03-17T09:51:39.998Z</time>
      </trkpt>
      <trkpt lat="48.669775" lon="9.916052">
        <ele>667.466533</ele>
        <time>2024-03-17T09:51:41.998Z</time>
      </trkpt>
      <trkpt lat="48.669910" lon="9.916140">
        <ele>667.873750</ele>
        <time>2024-03-17T09:51:43.998Z</time>
      </trkpt>
      <trkpt lat="48.670044" lon="9.916223">
        <ele>668.274870</ele>
        <time>2024-03-17T09:51:45.998Z</time>
      </trkpt>
      <trkpt lat="48.670177" lon="9.916306">
        <ele>668.673427</ele>
        <time>2024-03-17T09:51:47.998Z</time>
      </trkpt>
      <trkpt lat="48.670302" lon="9.916383">
        <ele>669.160556</ele>
        <time>2024-03-17T09:51:49.998Z</time>
      </trkpt>
      <trkpt lat="48.670424" lon="9.916456">
        <ele>669.678956</ele>
        <time>2024-03-17T09:51:51.999Z</time>
      </trkpt>
      <trkpt lat="48.670542" lon="9.916522">
        <ele>670.176066</ele>
        <time>2024-03-17T09:51:53.999Z</time>
      </trkpt>
      <trkpt lat="48.670656" lon="9.916591">
        <ele>670.661230</ele>
        <time>2024-03-17T09:51:55.999Z</time>
      </trkpt>
      <trkpt lat="48.670766" lon="9.916660">
        <ele>671.131752</ele>
        <time>2024-03-17T09:51:57.999Z</time>
      </trkpt>
      <trkpt lat="48.670875" lon="9.916746">
        <ele>671.617465</ele>
        <time>2024-03-17T09:51:59.999Z</time>
      </trkpt>
      <trkpt lat="48.670972" lon="9.916819">
        <ele>672.045523</ele>
        <time>2024-03-17T09:52:01.999Z</time>
      </trkpt>
      <trkpt lat="48.671072" lon="9.916888">
        <ele>672.479799</ele>
        <time>2024-03-17T09:52:03.999Z</time>
      </trkpt>
      <trkpt lat="48.671161" lon="9.916965">
        <ele>672.884869</ele>
        <time>2024-03-17T09:52:05.999Z</time>
      </trkpt>
      <trkpt lat="48.671267" lon="9.917056">
        <ele>673.366399</ele>
        <time>2024-03-17T09:52:07.999Z</time>
      </trkpt>
      <trkpt lat="48.671376" lon="9.917142">
        <ele>673.852111</ele>
        <time>2024-03-17T09:52:09.999Z</time>
      </trkpt>
      <trkpt lat="48.671487" lon="9.917240">
        <ele>674.359875</ele>
        <time>2024-03-17T09:52:11.999Z</time>
      </trkpt>
      <trkpt lat="48.671585" lon="9.917320">
        <ele>674.799844</ele>
        <time>2024-03-17T09:52:13.999Z</time>
      </trkpt>
      <trkpt lat="48.671687" lon="9.917406">
        <ele>675.261200</ele>
        <time>2024-03-17T09:52:15.999Z</time>
      </trkpt>
      <trkpt lat="48.671796" lon="9.917496">
        <ele>675.751822</ele>
        <time>2024-03-17T09:52:17.999Z</time>
      </trkpt>
      <trkpt lat="48.671901" lon="9.917585">
        <ele>675.907929</ele>
        <time>2024-03-17T09:52:19.999Z</time>
      </trkpt>
      <trkpt lat="48.672013" lon="9.917677">
        <ele>675.935210</ele>
        <time>2024-03-17T09:52:21.999Z</time>
      </trkpt>
      <trkpt lat="48.672125" lon="9.917777">
        <ele>675.963047</ele>
        <time>2024-03-17T09:52:23.999Z</time>
      </trkpt>
      <trkpt lat="48.672236" lon="9.917865">
        <ele>675.989873</ele>
        <time>2024-03-17T09:52:25.999Z</time>
      </trkpt>
      <trkpt lat="48.672346" lon="9.917962">
        <ele>676.017127</ele>
        <time>2024-03-17T09:52:27.999Z</time>
      </trkpt>
      <trkpt lat="48.672448" lon="9.918070">
        <ele>676.043775</ele>
        <time>2024-03-17T09:52:29.999Z</time>
      </trkpt>
      <trkpt lat="48.672562" lon="9.918179">
        <ele>676.072641</ele>
        <time>2024-03-17T09:52:31.999Z</time>
      </trkpt>
      <trkpt lat="48.672677" lon="9.918292">
        <ele>676.101993</ele>
        <time>2024-03-17T09:52:34.000Z</time>
      </trkpt>
      <trkpt lat="48.672792" lon="9.918412">
        <ele>676.131895</ele>
        <time>2024-03-17T09:52:36.000Z</time>
      </trkpt>
      <trkpt lat="48.672909" lon="9.918534">
        <ele>676.162310</ele>
        <time>2024-03-17T09:52:38.000Z</time>
      </trkpt>
      <trkpt lat="48.673026" lon="9.918656">
        <ele>676.192724</ele>
        <time>2024-03-17T09:52:40.000Z</time>
      </trkpt>
      <trkpt lat="48.673147" lon="9.918786">
        <ele>676.224489</ele>
        <time>2024-03-17T09:52:42.000Z</time>
      </trkpt>
      <trkpt lat="48.673268" lon="9.918910">
        <ele>676.255771</ele>
        <time>2024-03-17T09:52:44.000Z</time>
      </trkpt>
      <trkpt lat="48.673383" lon="9.919033">
        <ele>676.163181</ele>
        <time>2024-03-17T09:52:46.000Z</time>
      </trkpt>
      <trkpt lat="48.673497" lon="9.919158">
        <ele>675.862548</ele>
        <time>2024-03-17T09:52:48.000Z</time>
      </trkpt>
      <trkpt lat="48.673611" lon="9.919274">
        <ele>675.569181</ele>
        <time>2024-03-17T09:52:50.000Z</time>
      </trkpt>
      <trkpt lat="48.673718" lon="9.919390">
        <ele>675.288100</ele>
        <time>2024-03-17T09:52:52.000Z</time>
      </trkpt>
      <trkpt lat="48.673797" lon="9.919464">
        <ele>675.089684</ele>
        <time>2024-03-17T09:52:55.000Z</time>
      </trkpt>
      <trkpt lat="48.673868" lon="9.919336">
        <ele>674.853898</ele>
        <time>2024-03-17T09:53:10.000Z</time>
      </trkpt>
      <trkpt lat="48.673976" lon="9.919252">
        <ele>674.594564</ele>
        <time>2024-03-17T09:53:13.000Z</time>
      </trkpt>
      <trkpt lat="48.674100" lon="9.919208">
        <ele>674.322527</ele>
        <time>2024-03-17T09:53:15.000Z</time>
      </trkpt>
      <trkpt lat="48.674246" lon="9.919176">
        <ele>674.007422</ele>
        <time>2024-03-17T09:53:17.000Z</time>
      </trkpt>
      <trkpt lat="48.674403" lon="9.919145">
        <ele>673.669233</ele>
        <time>2024-03-17T09:53:19.000Z</time>
      </trkpt>
      <trkpt lat="48.674566" lon="9.919120">
        <ele>673.319285</ele>
        <time>2024-03-17T09:53:21.000Z</time>
      </trkpt>
      <trkpt lat="48.674722" lon="9.919098">
        <ele>672.984628</ele>
        <time>2024-03-17T09:53:23.000Z</time>
      </trkpt>
      <trkpt lat="48.674874" lon="9.919064">
        <ele>672.656435</ele>
        <time>2024-03-17T09:53:25.000Z</time>
      </trkpt>
      <trkpt lat="48.675017" lon="9.918999">
        <ele>672.478220</ele>
        <time>2024-03-17T09:53:27.000Z</time>
      </trkpt>
      <trkpt lat="48.675151" lon="9.918913">
        <ele>672.626204</ele>
        <time>2024-03-17T09:53:29.000Z</time>
      </trkpt>
      <trkpt lat="48.675278" lon="9.918808">
        <ele>672.773331</ele>
        <time>2024-03-17T09:53:31.000Z</time>
      </trkpt>
      <trkpt lat="48.675415" lon="9.918715">
        <ele>672.925990</ele>
        <time>2024-03-17T09:53:33.000Z</time>
      </trkpt>
      <trkpt lat="48.675551" lon="9.918634">
        <ele>673.074587</ele>
        <time>2024-03-17T09:53:34.999Z</time>
      </trkpt>
      <trkpt lat="48.675691" lon="9.918560">
        <ele>673.225363</ele>
        <time>2024-03-17T09:53:36.999Z</time>
      </trkpt>
      <trkpt lat="48.675833" lon="9.918494">
        <ele>673.376398</ele>
        <time>2024-03-17T09:53:38.999Z</time>
      </trkpt>
      <trkpt lat="48.675975" lon="9.918432">
        <ele>673.526668</ele>
        <time>2024-03-17T09:53:40.999Z</time>
      </trkpt>
      <trkpt lat="48.676117" lon="9.918372">
        <ele>673.676570</ele>
        <time>2024-03-17T09:53:42.999Z</time>
      </trkpt>
      <trkpt lat="48.676254" lon="9.918313">
        <ele>673.821397</ele>
        <time>2024-03-17T09:53:44.999Z</time>
      </trkpt>
      <trkpt lat="48.676390" lon="9.918254">
        <ele>673.965246</ele>
        <time>2024-03-17T09:53:46.999Z</time>
      </trkpt>
      <trkpt lat="48.676527" lon="9.918194">
        <ele>674.110258</ele>
        <time>2024-03-17T09:53:48.999Z</time>
      </trkpt>
      <trkpt lat="48.676661" lon="9.918141">
        <ele>674.251082</ele>
        <time>2024-03-17T09:53:50.999Z</time>
      </trkpt>
      <trkpt lat="48.676795" lon="9.918084">
        <ele>674.603404</ele>
        <time>2024-03-17T09:53:52.999Z</time>
      </trkpt>
      <trkpt lat="48.676930" lon="9.918029">
        <ele>674.974516</ele>
        <time>2024-03-17T09:53:54.999Z</time>
      </trkpt>
      <trkpt lat="48.677061" lon="9.917975">
        <ele>675.334921</ele>
        <time>2024-03-17T09:53:56.999Z</time>
      </trkpt>
      <trkpt lat="48.677192" lon="9.917915">
        <ele>675.698230</ele>
        <time>2024-03-17T09:53:58.999Z</time>
      </trkpt>
      <trkpt lat="48.677327" lon="9.917863">
        <ele>676.068011</ele>
        <time>2024-03-17T09:54:00.999Z</time>
      </trkpt>
      <trkpt lat="48.677459" lon="9.917816">
        <ele>676.427973</ele>
        <time>2024-03-17T09:54:02.999Z</time>
      </trkpt>
      <trkpt lat="48.677595" lon="9.917796">
        <ele>676.790697</ele>
        <time>2024-03-17T09:54:04.999Z</time>
      </trkpt>
      <trkpt lat="48.677733" lon="9.917787">
        <ele>677.157372</ele>
        <time>2024-03-17T09:54:06.999Z</time>
      </trkpt>
      <trkpt lat="48.677868" lon="9.917782">
        <ele>677.515851</ele>
        <time>2024-03-17T09:54:08.999Z</time>
      </trkpt>
      <trkpt lat="48.678007" lon="9.917775">
        <ele>677.885045</ele>
        <time>2024-03-17T09:54:10.999Z</time>
      </trkpt>
      <trkpt lat="48.678141" lon="9.917771">
        <ele>678.240831</ele>
        <time>2024-03-17T09:54:12.999Z</time>
      </trkpt>
      <trkpt lat="48.678278" lon="9.917764">
        <ele>678.604719</ele>
        <time>2024-03-17T09:54:14.999Z</time>
      </trkpt>
      <trkpt lat="48.678413" lon="9.917756">
        <ele>678.963365</ele>
        <time>2024-03-17T09:54:16.999Z</time>
      </trkpt>
      <trkpt lat="48.678550" lon="9.917740">
        <ele>679.025631</ele>
        <time>2024-03-17T09:54:18.999Z</time>
      </trkpt>
      <trkpt lat="48.678684" lon="9.917729">
        <ele>679.012452</ele>
        <time>2024-03-17T09:54:20.999Z</time>
      </trkpt>
      <trkpt lat="48.678820" lon="9.917722">
        <ele>678.999088</ele>
        <time>2024-03-17T09:54:22.999Z</time>
      </trkpt>
      <trkpt lat="48.678958" lon="9.917714">
        <ele>678.985526</ele>
        <time>2024-03-17T09:54:24.999Z</time>
      </trkpt>
      <trkpt lat="48.679095" lon="9.917703">
        <ele>678.972052</ele>
        <time>2024-03-17T09:54:26.999Z</time>
      </trkpt>
      <trkpt lat="48.679232" lon="9.917691">
        <ele>678.958575</ele>
        <time>2024-03-17T09:54:28.999Z</time>
      </trkpt>
      <trkpt lat="48.679373" lon="9.917680">
        <ele>678.944710</ele>
        <time>2024-03-17T09:54:30.999Z</time>
      </trkpt>
      <trkpt lat="48.679517" lon="9.917674">
        <ele>678.930562</ele>
        <time>2024-03-17T09:54:32.999Z</time>
      </trkpt>
      <trkpt lat="48.679667" lon="9.917665">
        <ele>678.915820</ele>
        <time>2024-03-17T09:54:34.999Z</time>
      </trkpt>
      <trkpt lat="48.679819" lon="9.917656">
        <ele>678.900881</ele>
        <time>2024-03-17T09:54:36.999Z</time>
      </trkpt>
      <trkpt lat="48.679970" lon="9.917642">
        <ele>678.886024</ele>
        <time>2024-03-17T09:54:39.000Z</time>
      </trkpt>
      <trkpt lat="48.680134" lon="9.917638">
        <ele>678.869915</ele>
        <time>2024-03-17T09:54:41.000Z</time>
      </trkpt>
      <trkpt lat="48.680309" lon="9.917624">
        <ele>678.955277</ele>
        <time>2024-03-17T09:54:43.000Z</time>
      </trkpt>
      <trkpt lat="48.680490" lon="9.917606">
        <ele>679.195649</ele>
        <time>2024-03-17T09:54:45.000Z</time>
      </trkpt>
      <trkpt lat="48.680581" lon="9.917604">
        <ele>679.316251</ele>
        <time>2024-03-17T09:54:46.000Z</time>
      </trkpt>
      <trkpt lat="48.680677" lon="9.917601">
        <ele>679.443494</ele>
        <time>2024-03-17T09:54:47.000Z</time>
      </trkpt>
      <trkpt lat="48.680772" lon="9.917593">
        <ele>679.569579</ele>
        <time>2024-03-17T09:54:48.000Z</time>
      </trkpt>
      <trkpt lat="48.680873" lon="9.917607">
        <ele>679.703980</ele>
        <time>2024-03-17T09:54:49.000Z</time>
      </trkpt>
      <trkpt lat="48.680973" lon="9.917601">
        <ele>679.836601</ele>
        <time>2024-03-17T09:54:50.000Z</time>
      </trkpt>
      <trkpt lat="48.681070" lon="9.917594">
        <ele>679.965288</ele>
        <time>2024-03-17T09:54:51.000Z</time>
      </trkpt>
      <trkpt lat="48.681168" lon="9.917571">
        <ele>680.096704</ele>
        <time>2024-03-17T09:54:52.000Z</time>
      </trkpt>
      <trkpt lat="48.681345" lon="9.917560">
        <ele>680.331455</ele>
        <time>2024-03-17T09:54:54.000Z</time>
      </trkpt>
      <trkpt lat="48.681509" lon="9.917552">
        <ele>680.548895</ele>
        <time>2024-03-17T09:54:56.000Z</time>
      </trkpt>
      <trkpt lat="48.681666" lon="9.917538">
        <ele>680.757306</ele>
        <time>2024-03-17T09:54:58.000Z</time>
      </trkpt>
      <trkpt lat="48.681817" lon="9.917527">
        <ele>680.957638</ele>
        <time>2024-03-17T09:55:00.000Z</time>
      </trkpt>
      <trkpt lat="48.681952" lon="9.917519">
        <ele>681.136672</ele>
        <time>2024-03-17T09:55:02.000Z</time>
      </trkpt>
      <trkpt lat="48.682080" lon="9.917515">
        <ele>681.373996</ele>
        <time>2024-03-17T09:55:04.000Z</time>
      </trkpt>
      <trkpt lat="48.682201" lon="9.917504">
        <ele>681.707031</ele>
        <time>2024-03-17T09:55:06.000Z</time>
      </trkpt>
      <trkpt lat="48.682318" lon="9.917499">
        <ele>682.028607</ele>
        <time>2024-03-17T09:55:08.000Z</time>
      </trkpt>
      <trkpt lat="48.682441" lon="9.917492">
        <ele>682.366777</ele>
        <time>2024-03-17T09:55:10.000Z</time>
      </trkpt>
      <trkpt lat="48.682561" lon="9.917483">
        <ele>682.696871</ele>
        <time>2024-03-17T09:55:12.000Z</time>
      </trkpt>
      <trkpt lat="48.682690" lon="9.917477">
        <ele>683.051454</ele>
        <time>2024-03-17T09:55:14.000Z</time>
      </trkpt>
      <trkpt lat="48.682820" lon="9.917471">
        <ele>683.408784</ele>
        <time>2024-03-17T09:55:16.000Z</time>
      </trkpt>
      <trkpt lat="48.682937" lon="9.917463">
        <ele>683.730559</ele>
        <time>2024-03-17T09:55:18.000Z</time>
      </trkpt>
      <trkpt lat="48.683060" lon="9.917459">
        <ele>684.068569</ele>
        <time>2024-03-17T09:55:20.000Z</time>
      </trkpt>
      <trkpt lat="48.683188" lon="9.917460">
        <ele>684.420243</ele>
        <time>2024-03-17T09:55:22.000Z</time>
      </trkpt>
      <trkpt lat="48.683314" lon="9.917454">
        <ele>684.766588</ele>
        <time>2024-03-17T09:55:24.000Z</time>
      </trkpt>
      <trkpt lat="48.683440" lon="9.917446">
        <ele>685.113067</ele>
        <time>2024-03-17T09:55:26.000Z</time>
      </trkpt>
      <trkpt lat="48.683572" lon="9.917442">
        <ele>685.475798</ele>
        <time>2024-03-17T09:55:28.000Z</time>
      </trkpt>
      <trkpt lat="48.683712" lon="9.917433">
        <ele>685.860782</ele>
        <time>2024-03-17T09:55:30.000Z</time>
      </trkpt>
      <trkpt lat="48.683852" lon="9.917423">
        <ele>686.152110</ele>
        <time>2024-03-17T09:55:31.999Z</time>
      </trkpt>
      <trkpt lat="48.683997" lon="9.917413">
        <ele>685.937552</ele>
        <time>2024-03-17T09:55:33.999Z</time>
      </trkpt>
      <trkpt lat="48.684143" lon="9.917424">
        <ele>685.721472</ele>
        <time>2024-03-17T09:55:35.999Z</time>
      </trkpt>
      <trkpt lat="48.684235" lon="9.917419">
        <ele>685.585392</ele>
        <time>2024-03-17T09:55:37.999Z</time>
      </trkpt>
      <trkpt lat="48.684264" lon="9.917231">
        <ele>685.396980</ele>
        <time>2024-03-17T09:55:39.999Z</time>
      </trkpt>
      <trkpt lat="48.684244" lon="9.917056">
        <ele>685.223657</ele>
        <time>2024-03-17T09:55:41.999Z</time>
      </trkpt>
      <trkpt lat="48.684255" lon="9.916863">
        <ele>685.034607</ele>
        <time>2024-03-17T09:55:43.999Z</time>
      </trkpt>
      <trkpt lat="48.684241" lon="9.916651">
        <ele>684.826683</ele>
        <time>2024-03-17T09:55:45.999Z</time>
      </trkpt>
      <trkpt lat="48.684240" lon="9.916439">
        <ele>684.619786</ele>
        <time>2024-03-17T09:55:47.999Z</time>
      </trkpt>
      <trkpt lat="48.684245" lon="9.916224">
        <ele>684.409836</ele>
        <time>2024-03-17T09:55:49.999Z</time>
      </trkpt>
      <trkpt lat="48.684245" lon="9.916015">
        <ele>684.205872</ele>
        <time>2024-03-17T09:55:51.999Z</time>
      </trkpt>
      <trkpt lat="48.684246" lon="9.915811">
        <ele>684.006782</ele>
        <time>2024-03-17T09:55:53.999Z</time>
      </trkpt>
      <trkpt lat="48.684250" lon="9.915610">
        <ele>683.810537</ele>
        <time>2024-03-17T09:55:55.999Z</time>
      </trkpt>
      <trkpt lat="48.684254" lon="9.915412">
        <ele>683.617217</ele>
        <time>2024-03-17T09:55:57.999Z</time>
      </trkpt>
      <trkpt lat="48.684252" lon="9.915215">
        <ele>683.079325</ele>
        <time>2024-03-17T09:55:59.999Z</time>
      </trkpt>
      <trkpt lat="48.684253" lon="9.915022">
        <ele>682.248002</ele>
        <time>2024-03-17T09:56:01.999Z</time>
      </trkpt>
      <trkpt lat="48.684257" lon="9.914858">
        <ele>681.541133</ele>
        <time>2024-03-17T09:56:03.999Z</time>
      </trkpt>
      <trkpt lat="48.684362" lon="9.914839">
        <ele>680.851236</ele>
        <time>2024-03-17T09:56:05.999Z</time>
      </trkpt>
      <trkpt lat="48.684497" lon="9.914869">
        <ele>679.961059</ele>
        <time>2024-03-17T09:56:07.999Z</time>
      </trkpt>
      <trkpt lat="48.684630" lon="9.914911">
        <ele>679.074701</ele>
        <time>2024-03-17T09:56:09.999Z</time>
      </trkpt>
      <trkpt lat="48.684781" lon="9.914958">
        <ele>678.068983</ele>
        <time>2024-03-17T09:56:11.999Z</time>
      </trkpt>
      <trkpt lat="48.684949" lon="9.915014">
        <ele>676.946714</ele>
        <time>2024-03-17T09:56:13.999Z</time>
      </trkpt>
      <trkpt lat="48.685037" lon="9.915046">
        <ele>676.356284</ele>
        <time>2024-03-17T09:56:14.999Z</time>
      </trkpt>
      <trkpt lat="48.685204" lon="9.915104">
        <ele>675.238492</ele>
        <time>2024-03-17T09:56:16.999Z</time>
      </trkpt>
      <trkpt lat="48.685372" lon="9.915158">
        <ele>674.118043</ele>
        <time>2024-03-17T09:56:18.999Z</time>
      </trkpt>
      <trkpt lat="48.685530" lon="9.915211">
        <ele>673.062267</ele>
        <time>2024-03-17T09:56:20.999Z</time>
      </trkpt>
      <trkpt lat="48.685674" lon="9.915262">
        <ele>672.097463</ele>
        <time>2024-03-17T09:56:22.999Z</time>
      </trkpt>
      <trkpt lat="48.685769" lon="9.915320">
        <ele>671.585050</ele>
        <time>2024-03-17T09:56:24.999Z</time>
      </trkpt>
      <trkpt lat="48.685866" lon="9.915328">
        <ele>671.223709</ele>
        <time>2024-03-17T09:56:27.999Z</time>
      </trkpt>
      <trkpt lat="48.685881" lon="9.915090">
        <ele>670.636603</ele>
        <time>2024-03-17T09:56:28.999Z</time>
      </trkpt>
      <trkpt lat="48.685886" lon="9.914881">
        <ele>670.123032</ele>
        <time>2024-03-17T09:56:30.999Z</time>
      </trkpt>
      <trkpt lat="48.685903" lon="9.914655">
        <ele>669.564460</ele>
        <time>2024-03-17T09:56:32.999Z</time>
      </trkpt>
      <trkpt lat="48.685919" lon="9.914409">
        <ele>668.957442</ele>
        <time>2024-03-17T09:56:34.999Z</time>
      </trkpt>
      <trkpt lat="48.685936" lon="9.914159">
        <ele>668.340278</ele>
        <time>2024-03-17T09:56:36.999Z</time>
      </trkpt>
      <trkpt lat="48.685971" lon="9.913908">
        <ele>667.710308</ele>
        <time>2024-03-17T09:56:38.999Z</time>
      </trkpt>
      <trkpt lat="48.686012" lon="9.913653">
        <ele>667.065811</ele>
        <time>2024-03-17T09:56:40.999Z</time>
      </trkpt>
      <trkpt lat="48.686057" lon="9.913399">
        <ele>666.420005</ele>
        <time>2024-03-17T09:56:42.999Z</time>
      </trkpt>
      <trkpt lat="48.686106" lon="9.913147">
        <ele>665.774896</ele>
        <time>2024-03-17T09:56:45.000Z</time>
      </trkpt>
      <trkpt lat="48.686158" lon="9.912901">
        <ele>665.140595</ele>
        <time>2024-03-17T09:56:47.000Z</time>
      </trkpt>
      <trkpt lat="48.686214" lon="9.912656">
        <ele>664.743440</ele>
        <time>2024-03-17T09:56:49.000Z</time>
      </trkpt>
      <trkpt lat="48.686282" lon="9.912418">
        <ele>664.361906</ele>
        <time>2024-03-17T09:56:51.000Z</time>
      </trkpt>
      <trkpt lat="48.686358" lon="9.912187">
        <ele>663.982192</ele>
        <time>2024-03-17T09:56:53.000Z</time>
      </trkpt>
      <trkpt lat="48.686446" lon="9.911964">
        <ele>663.599968</ele>
        <time>2024-03-17T09:56:55.000Z</time>
      </trkpt>
      <trkpt lat="48.686544" lon="9.911749">
        <ele>663.215589</ele>
        <time>2024-03-17T09:56:57.000Z</time>
      </trkpt>
      <trkpt lat="48.686636" lon="9.911529">
        <ele>662.832453</ele>
        <time>2024-03-17T09:56:59.000Z</time>
      </trkpt>
      <trkpt lat="48.686728" lon="9.911307">
        <ele>662.446828</ele>
        <time>2024-03-17T09:57:01.000Z</time>
      </trkpt>
      <trkpt lat="48.686821" lon="9.911087">
        <ele>662.062496</ele>
        <time>2024-03-17T09:57:03.000Z</time>
      </trkpt>
      <trkpt lat="48.686916" lon="9.910869">
        <ele>661.678202</ele>
        <time>2024-03-17T09:57:05.000Z</time>
      </trkpt>
      <trkpt lat="48.687022" lon="9.910653">
        <ele>661.282243</ele>
        <time>2024-03-17T09:57:07.000Z</time>
      </trkpt>
      <trkpt lat="48.687135" lon="9.910444">
        <ele>660.845224</ele>
        <time>2024-03-17T09:57:09.000Z</time>
      </trkpt>
      <trkpt lat="48.687197" lon="9.910343">
        <ele>660.603770</ele>
        <time>2024-03-17T09:57:10.000Z</time>
      </trkpt>
      <trkpt lat="48.687256" lon="9.910238">
        <ele>660.362372</ele>
        <time>2024-03-17T09:57:11.000Z</time>
      </trkpt>
      <trkpt lat="48.687313" lon="9.910131">
        <ele>660.121664</ele>
        <time>2024-03-17T09:57:12.000Z</time>
      </trkpt>
      <trkpt lat="48.687364" lon="9.910019">
        <ele>659.883463</ele>
        <time>2024-03-17T09:57:13.000Z</time>
      </trkpt>
      <trkpt lat="48.687416" lon="9.909908">
        <ele>659.645177</ele>
        <time>2024-03-17T09:57:14.000Z</time>
      </trkpt>
      <trkpt lat="48.687465" lon="9.909786">
        <ele>659.395167</ele>
        <time>2024-03-17T09:57:15.000Z</time>
      </trkpt>
      <trkpt lat="48.687512" lon="9.909665">
        <ele>659.149383</ele>
        <time>2024-03-17T09:57:16.000Z</time>
      </trkpt>
      <trkpt lat="48.687559" lon="9.909542">
        <ele>658.900575</ele>
        <time>2024-03-17T09:57:17.000Z</time>
      </trkpt>
      <trkpt lat="48.687600" lon="9.909412">
        <ele>658.648345</ele>
        <time>2024-03-17T09:57:18.000Z</time>
      </trkpt>
      <trkpt lat="48.687633" lon="9.909278">
        <ele>658.397959</ele>
        <time>2024-03-17T09:57:19.000Z</time>
      </trkpt>
      <trkpt lat="48.687664" lon="9.909140">
        <ele>658.142757</ele>
        <time>2024-03-17T09:57:20.000Z</time>
      </trkpt>
      <trkpt lat="48.687699" lon="9.909007">
        <ele>657.892096</ele>
        <time>2024-03-17T09:57:21.000Z</time>
      </trkpt>
      <trkpt lat="48.687735" lon="9.908874">
        <ele>657.640440</ele>
        <time>2024-03-17T09:57:22.000Z</time>
      </trkpt>
      <trkpt lat="48.687772" lon="9.908740">
        <ele>657.386153</ele>
        <time>2024-03-17T09:57:23.000Z</time>
      </trkpt>
      <trkpt lat="48.687812" lon="9.908610">
        <ele>657.135055</ele>
        <time>2024-03-17T09:57:24.000Z</time>
      </trkpt>
      <trkpt lat="48.687854" lon="9.908475">
        <ele>656.873780</ele>
        <time>2024-03-17T09:57:25.000Z</time>
      </trkpt>
      <trkpt lat="48.687896" lon="9.908342">
        <ele>656.615669</ele>
        <time>2024-03-17T09:57:26.000Z</time>
      </trkpt>
      <trkpt lat="48.687939" lon="9.908213">
        <ele>656.362673</ele>
        <time>2024-03-17T09:57:27.000Z</time>
      </trkpt>
      <trkpt lat="48.687986" lon="9.908086">
        <ele>656.248621</ele>
        <time>2024-03-17T09:57:28.000Z</time>
      </trkpt>
      <trkpt lat="48.688038" lon="9.907964">
        <ele>656.160565</ele>
        <time>2024-03-17T09:57:29.000Z</time>
      </trkpt>
      <trkpt lat="48.688096" lon="9.907843">
        <ele>656.069894</ele>
        <time>2024-03-17T09:57:30.000Z</time>
      </trkpt>
      <trkpt lat="48.688150" lon="9.907720">
        <ele>655.980324</ele>
        <time>2024-03-17T09:57:31.000Z</time>
      </trkpt>
      <trkpt lat="48.688206" lon="9.907598">
        <ele>655.890223</ele>
        <time>2024-03-17T09:57:32.000Z</time>
      </trkpt>
      <trkpt lat="48.688267" lon="9.907482">
        <ele>655.800296</ele>
        <time>2024-03-17T09:57:33.000Z</time>
      </trkpt>
      <trkpt lat="48.688329" lon="9.907363">
        <ele>655.708374</ele>
        <time>2024-03-17T09:57:34.000Z</time>
      </trkpt>
      <trkpt lat="48.688390" lon="9.907246">
        <ele>655.617973</ele>
        <time>2024-03-17T09:57:34.999Z</time>
      </trkpt>
      <trkpt lat="48.688459" lon="9.907137">
        <ele>655.526403</ele>
        <time>2024-03-17T09:57:35.999Z</time>
      </trkpt>
      <trkpt lat="48.688537" lon="9.907044">
        <ele>655.435228</ele>
        <time>2024-03-17T09:57:36.999Z</time>
      </trkpt>
      <trkpt lat="48.688608" lon="9.906933">
        <ele>655.341510</ele>
        <time>2024-03-17T09:57:37.999Z</time>
      </trkpt>
      <trkpt lat="48.688678" lon="9.906828">
        <ele>655.251025</ele>
        <time>2024-03-17T09:57:38.999Z</time>
      </trkpt>
      <trkpt lat="48.688745" lon="9.906720">
        <ele>655.161160</ele>
        <time>2024-03-17T09:57:39.999Z</time>
      </trkpt>
      <trkpt lat="48.688815" lon="9.906613">
        <ele>655.069818</ele>
        <time>2024-03-17T09:57:40.999Z</time>
      </trkpt>
      <trkpt lat="48.688884" lon="9.906510">
        <ele>654.980839</ele>
        <time>2024-03-17T09:57:41.999Z</time>
      </trkpt>
      <trkpt lat="48.688949" lon="9.906405">
        <ele>654.893558</ele>
        <time>2024-03-17T09:57:42.999Z</time>
      </trkpt>
      <trkpt lat="48.689031" lon="9.906314">
        <ele>654.800190</ele>
        <time>2024-03-17T09:57:43.999Z</time>
      </trkpt>
      <trkpt lat="48.689099" lon="9.906210">
        <ele>654.711434</ele>
        <time>2024-03-17T09:57:44.999Z</time>
      </trkpt>
      <trkpt lat="48.689164" lon="9.906104">
        <ele>654.527223</ele>
        <time>2024-03-17T09:57:45.999Z</time>
      </trkpt>
      <trkpt lat="48.689230" lon="9.905999">
        <ele>654.260588</ele>
        <time>2024-03-17T09:57:46.999Z</time>
      </trkpt>
      <trkpt lat="48.689298" lon="9.905895">
        <ele>653.991391</ele>
        <time>2024-03-17T09:57:47.999Z</time>
      </trkpt>
      <trkpt lat="48.689379" lon="9.905802">
        <ele>653.708246</ele>
        <time>2024-03-17T09:57:48.999Z</time>
      </trkpt>
      <trkpt lat="48.689443" lon="9.905689">
        <ele>653.434432</ele>
        <time>2024-03-17T09:57:49.999Z</time>
      </trkpt>
      <trkpt lat="48.689503" lon="9.905573">
        <ele>653.163419</ele>
        <time>2024-03-17T09:57:50.999Z</time>
      </trkpt>
      <trkpt lat="48.689575" lon="9.905468">
        <ele>652.884995</ele>
        <time>2024-03-17T09:57:51.999Z</time>
      </trkpt>
      <trkpt lat="48.689634" lon="9.905348">
        <ele>652.609828</ele>
        <time>2024-03-17T09:57:52.999Z</time>
      </trkpt>
      <trkpt lat="48.689691" lon="9.905225">
        <ele>652.333455</ele>
        <time>2024-03-17T09:57:53.999Z</time>
      </trkpt>
      <trkpt lat="48.689745" lon="9.905098">
        <ele>652.055643</ele>
        <time>2024-03-17T09:57:54.999Z</time>
      </trkpt>
      <trkpt lat="48.689796" lon="9.904969">
        <ele>651.779117</ele>
        <time>2024-03-17T09:57:55.999Z</time>
      </trkpt>
      <trkpt lat="48.689847" lon="9.904837">
        <ele>651.497844</ele>
        <time>2024-03-17T09:57:56.999Z</time>
      </trkpt>
      <trkpt lat="48.689897" lon="9.904709">
        <ele>651.224324</ele>
        <time>2024-03-17T09:57:57.999Z</time>
      </trkpt>
      <trkpt lat="48.689942" lon="9.904577">
        <ele>650.951114</ele>
        <time>2024-03-17T09:57:58.999Z</time>
      </trkpt>
      <trkpt lat="48.689985" lon="9.904443">
        <ele>650.677112</ele>
        <time>2024-03-17T09:57:59.999Z</time>
      </trkpt>
      <trkpt lat="48.690027" lon="9.904308">
        <ele>650.402654</ele>
        <time>2024-03-17T09:58:00.999Z</time>
      </trkpt>
      <trkpt lat="48.690059" lon="9.904164">
        <ele>650.123233</ele>
        <time>2024-03-17T09:58:01.999Z</time>
      </trkpt>
      <trkpt lat="48.690094" lon="9.904026">
        <ele>649.851362</ele>
        <time>2024-03-17T09:58:02.999Z</time>
      </trkpt>
      <trkpt lat="48.690122" lon="9.903884">
        <ele>649.440325</ele>
        <time>2024-03-17T09:58:03.999Z</time>
      </trkpt>
      <trkpt lat="48.690150" lon="9.903740">
        <ele>648.695848</ele>
        <time>2024-03-17T09:58:04.999Z</time>
      </trkpt>
      <trkpt lat="48.690172" lon="9.903593">
        <ele>647.948329</ele>
        <time>2024-03-17T09:58:05.999Z</time>
      </trkpt>
      <trkpt lat="48.690189" lon="9.903445">
        <ele>647.203323</ele>
        <time>2024-03-17T09:58:06.999Z</time>
      </trkpt>
      <trkpt lat="48.690211" lon="9.903298">
        <ele>646.455804</ele>
        <time>2024-03-17T09:58:07.999Z</time>
      </trkpt>
      <trkpt lat="48.690229" lon="9.903151">
        <ele>645.714351</ele>
        <time>2024-03-17T09:58:08.999Z</time>
      </trkpt>
      <trkpt lat="48.690246" lon="9.903004">
        <ele>644.974231</ele>
        <time>2024-03-17T09:58:09.999Z</time>
      </trkpt>
      <trkpt lat="48.690263" lon="9.902857">
        <ele>644.234111</ele>
        <time>2024-03-17T09:58:10.999Z</time>
      </trkpt>
      <trkpt lat="48.690276" lon="9.902706">
        <ele>643.478916</ele>
        <time>2024-03-17T09:58:11.999Z</time>
      </trkpt>
      <trkpt lat="48.690290" lon="9.902553">
        <ele>642.712888</ele>
        <time>2024-03-17T09:58:12.999Z</time>
      </trkpt>
      <trkpt lat="48.690302" lon="9.902399">
        <ele>641.943854</ele>
        <time>2024-03-17T09:58:13.999Z</time>
      </trkpt>
      <trkpt lat="48.690319" lon="9.902248">
        <ele>641.184188</ele>
        <time>2024-03-17T09:58:14.999Z</time>
      </trkpt>
      <trkpt lat="48.690336" lon="9.902098">
        <ele>640.429410</ele>
        <time>2024-03-17T09:58:15.999Z</time>
      </trkpt>
      <trkpt lat="48.690353" lon="9.901946">
        <ele>639.664856</ele>
        <time>2024-03-17T09:58:16.999Z</time>
      </trkpt>
      <trkpt lat="48.690366" lon="9.901793">
        <ele>638.899825</ele>
        <time>2024-03-17T09:58:17.999Z</time>
      </trkpt>
      <trkpt lat="48.690371" lon="9.901633">
        <ele>638.105450</ele>
        <time>2024-03-17T09:58:18.999Z</time>
      </trkpt>
      <trkpt lat="48.690387" lon="9.901479">
        <ele>637.332318</ele>
        <time>2024-03-17T09:58:19.999Z</time>
      </trkpt>
      <trkpt lat="48.690398" lon="9.901323">
        <ele>636.554268</ele>
        <time>2024-03-17T09:58:20.999Z</time>
      </trkpt>
      <trkpt lat="48.690414" lon="9.901171">
        <ele>635.831611</ele>
        <time>2024-03-17T09:58:21.999Z</time>
      </trkpt>
      <trkpt lat="48.690426" lon="9.901016">
        <ele>635.145842</ele>
        <time>2024-03-17T09:58:22.999Z</time>
      </trkpt>
      <trkpt lat="48.690433" lon="9.900864">
        <ele>634.476300</ele>
        <time>2024-03-17T09:58:23.999Z</time>
      </trkpt>
      <trkpt lat="48.690441" lon="9.900711">
        <ele>633.801882</ele>
        <time>2024-03-17T09:58:24.999Z</time>
      </trkpt>
      <trkpt lat="48.690442" lon="9.900555">
        <ele>633.116355</ele>
        <time>2024-03-17T09:58:25.999Z</time>
      </trkpt>
      <trkpt lat="48.690444" lon="9.900403">
        <ele>632.448304</ele>
        <time>2024-03-17T09:58:26.999Z</time>
      </trkpt>
      <trkpt lat="48.690440" lon="9.900246">
        <ele>631.757901</ele>
        <time>2024-03-17T09:58:27.999Z</time>
      </trkpt>
      <trkpt lat="48.690434" lon="9.900088">
        <ele>631.062470</ele>
        <time>2024-03-17T09:58:28.999Z</time>
      </trkpt>
      <trkpt lat="48.690430" lon="9.899931">
        <ele>630.372067</ele>
        <time>2024-03-17T09:58:29.999Z</time>
      </trkpt>
      <trkpt lat="48.690422" lon="9.899774">
        <ele>629.680126</ele>
        <time>2024-03-17T09:58:30.999Z</time>
      </trkpt>
      <trkpt lat="48.690407" lon="9.899615">
        <ele>628.974349</ele>
        <time>2024-03-17T09:58:31.999Z</time>
      </trkpt>
      <trkpt lat="48.690388" lon="9.899457">
        <ele>628.268640</ele>
        <time>2024-03-17T09:58:32.999Z</time>
      </trkpt>
      <trkpt lat="48.690368" lon="9.899299">
        <ele>627.561706</ele>
        <time>2024-03-17T09:58:33.999Z</time>
      </trkpt>
      <trkpt lat="48.690347" lon="9.899140">
        <ele>626.849181</ele>
        <time>2024-03-17T09:58:34.999Z</time>
      </trkpt>
      <trkpt lat="48.690327" lon="9.898977">
        <ele>626.120657</ele>
        <time>2024-03-17T09:58:35.999Z</time>
      </trkpt>
      <trkpt lat="48.690304" lon="9.898814">
        <ele>625.388221</ele>
        <time>2024-03-17T09:58:36.999Z</time>
      </trkpt>
      <trkpt lat="48.690282" lon="9.898648">
        <ele>624.644227</ele>
        <time>2024-03-17T09:58:37.999Z</time>
      </trkpt>
      <trkpt lat="48.690255" lon="9.898481">
        <ele>624.022705</ele>
        <time>2024-03-17T09:58:38.999Z</time>
      </trkpt>
      <trkpt lat="48.690233" lon="9.898315">
        <ele>623.626830</ele>
        <time>2024-03-17T09:58:39.999Z</time>
      </trkpt>
      <trkpt lat="48.690212" lon="9.898147">
        <ele>623.227043</ele>
        <time>2024-03-17T09:58:40.999Z</time>
      </trkpt>
      <trkpt lat="48.690189" lon="9.897974">
        <ele>622.814423</ele>
        <time>2024-03-17T09:58:41.999Z</time>
      </trkpt>
      <trkpt lat="48.690164" lon="9.897802">
        <ele>622.402630</ele>
        <time>2024-03-17T09:58:42.999Z</time>
      </trkpt>
      <trkpt lat="48.690139" lon="9.897633">
        <ele>621.997685</ele>
        <time>2024-03-17T09:58:43.999Z</time>
      </trkpt>
      <trkpt lat="48.690115" lon="9.897461">
        <ele>621.586639</ele>
        <time>2024-03-17T09:58:44.999Z</time>
      </trkpt>
      <trkpt lat="48.690089" lon="9.897289">
        <ele>621.174070</ele>
        <time>2024-03-17T09:58:45.999Z</time>
      </trkpt>
      <trkpt lat="48.690059" lon="9.897116">
        <ele>620.755847</ele>
        <time>2024-03-17T09:58:46.999Z</time>
      </trkpt>
      <trkpt lat="48.690031" lon="9.896948">
        <ele>620.350713</ele>
        <time>2024-03-17T09:58:47.999Z</time>
      </trkpt>
      <trkpt lat="48.690000" lon="9.896780">
        <ele>619.942847</ele>
        <time>2024-03-17T09:58:48.999Z</time>
      </trkpt>
      <trkpt lat="48.689974" lon="9.896616">
        <ele>619.548488</ele>
        <time>2024-03-17T09:58:50.000Z</time>
      </trkpt>
      <trkpt lat="48.689950" lon="9.896453">
        <ele>619.158005</ele>
        <time>2024-03-17T09:58:51.000Z</time>
      </trkpt>
      <trkpt lat="48.689925" lon="9.896297">
        <ele>618.782659</ele>
        <time>2024-03-17T09:58:52.000Z</time>
      </trkpt>
      <trkpt lat="48.689900" lon="9.896142">
        <ele>618.409585</ele>
        <time>2024-03-17T09:58:53.000Z</time>
      </trkpt>
      <trkpt lat="48.689871" lon="9.895990">
        <ele>618.039641</ele>
        <time>2024-03-17T09:58:54.000Z</time>
      </trkpt>
      <trkpt lat="48.689847" lon="9.895839">
        <ele>617.648301</ele>
        <time>2024-03-17T09:58:55.000Z</time>
      </trkpt>
      <trkpt lat="48.689828" lon="9.895692">
        <ele>617.220886</ele>
        <time>2024-03-17T09:58:56.000Z</time>
      </trkpt>
      <trkpt lat="48.689807" lon="9.895545">
        <ele>616.791727</ele>
        <time>2024-03-17T09:58:57.000Z</time>
      </trkpt>
      <trkpt lat="48.689792" lon="9.895402">
        <ele>616.378571</ele>
        <time>2024-03-17T09:58:58.000Z</time>
      </trkpt>
      <trkpt lat="48.689778" lon="9.895258">
        <ele>615.963249</ele>
        <time>2024-03-17T09:58:59.000Z</time>
      </trkpt>
      <trkpt lat="48.689762" lon="9.895108">
        <ele>615.529687</ele>
        <time>2024-03-17T09:59:00.000Z</time>
      </trkpt>
      <trkpt lat="48.689756" lon="9.894960">
        <ele>615.106587</ele>
        <time>2024-03-17T09:59:01.000Z</time>
      </trkpt>
      <trkpt lat="48.689755" lon="9.894808">
        <ele>614.672848</ele>
        <time>2024-03-17T09:59:02.000Z</time>
      </trkpt>
      <trkpt lat="48.689754" lon="9.894652">
        <ele>614.227696</ele>
        <time>2024-03-17T09:59:03.000Z</time>
      </trkpt>
      <trkpt lat="48.689746" lon="9.894501">
        <ele>613.795447</ele>
        <time>2024-03-17T09:59:04.000Z</time>
      </trkpt>
      <trkpt lat="48.689735" lon="9.894345">
        <ele>613.347783</ele>
        <time>2024-03-17T09:59:05.000Z</time>
      </trkpt>
      <trkpt lat="48.689719" lon="9.894187">
        <ele>612.891671</ele>
        <time>2024-03-17T09:59:06.000Z</time>
      </trkpt>
      <trkpt lat="48.689708" lon="9.894023">
        <ele>612.421303</ele>
        <time>2024-03-17T09:59:07.000Z</time>
      </trkpt>
      <trkpt lat="48.689704" lon="9.893854">
        <ele>611.938767</ele>
        <time>2024-03-17T09:59:08.000Z</time>
      </trkpt>
      <trkpt lat="48.689702" lon="9.893686">
        <ele>611.459317</ele>
        <time>2024-03-17T09:59:09.000Z</time>
      </trkpt>
      <trkpt lat="48.689706" lon="9.893517">
        <ele>610.976781</ele>
        <time>2024-03-17T09:59:10.000Z</time>
      </trkpt>
      <trkpt lat="48.689714" lon="9.893351">
        <ele>610.501855</ele>
        <time>2024-03-17T09:59:11.000Z</time>
      </trkpt>
      <trkpt lat="48.689718" lon="9.893204">
        <ele>610.082048</ele>
        <time>2024-03-17T09:59:12.000Z</time>
      </trkpt>
      <trkpt lat="48.689722" lon="9.893067">
        <ele>610.189294</ele>
        <time>2024-03-17T09:59:13.000Z</time>
      </trkpt>
      <trkpt lat="48.689731" lon="9.892832">
        <ele>610.505063</ele>
        <time>2024-03-17T09:59:15.000Z</time>
      </trkpt>
      <trkpt lat="48.689746" lon="9.892672">
        <ele>610.721848</ele>
        <time>2024-03-17T09:59:17.000Z</time>
      </trkpt>
      <trkpt lat="48.689841" lon="9.892594">
        <ele>610.941427</ele>
        <time>2024-03-17T09:59:19.000Z</time>
      </trkpt>
      <trkpt lat="48.689926" lon="9.892521">
        <ele>611.139981</ele>
        <time>2024-03-17T09:59:21.000Z</time>
      </trkpt>
      <trkpt lat="48.690014" lon="9.892451">
        <ele>611.341958</ele>
        <time>2024-03-17T09:59:23.000Z</time>
      </trkpt>
      <trkpt lat="48.690104" lon="9.892377">
        <ele>611.550047</ele>
        <time>2024-03-17T09:59:25.000Z</time>
      </trkpt>
      <trkpt lat="48.690205" lon="9.892306">
        <ele>611.776308</ele>
        <time>2024-03-17T09:59:27.000Z</time>
      </trkpt>
      <trkpt lat="48.690305" lon="9.892234">
        <ele>612.001300</ele>
        <time>2024-03-17T09:59:29.000Z</time>
      </trkpt>
      <trkpt lat="48.690415" lon="9.892167">
        <ele>612.242219</ele>
        <time>2024-03-17T09:59:31.000Z</time>
      </trkpt>
      <trkpt lat="48.690524" lon="9.892088">
        <ele>612.487761</ele>
        <time>2024-03-17T09:59:33.000Z</time>
      </trkpt>
      <trkpt lat="48.690632" lon="9.892009">
        <ele>612.731470</ele>
        <time>2024-03-17T09:59:35.000Z</time>
      </trkpt>
      <trkpt lat="48.690741" lon="9.891929">
        <ele>612.977593</ele>
        <time>2024-03-17T09:59:37.000Z</time>
      </trkpt>
      <trkpt lat="48.690859" lon="9.891844">
        <ele>613.243106</ele>
        <time>2024-03-17T09:59:38.999Z</time>
      </trkpt>
      <trkpt lat="48.690967" lon="9.891765">
        <ele>613.486815</ele>
        <time>2024-03-17T09:59:40.999Z</time>
      </trkpt>
      <trkpt lat="48.691080" lon="9.891689">
        <ele>613.724264</ele>
        <time>2024-03-17T09:59:42.999Z</time>
      </trkpt>
      <trkpt lat="48.691191" lon="9.891612">
        <ele>613.908067</ele>
        <time>2024-03-17T09:59:44.999Z</time>
      </trkpt>
      <trkpt lat="48.691306" lon="9.891549">
        <ele>614.092177</ele>
        <time>2024-03-17T09:59:46.999Z</time>
      </trkpt>
      <trkpt lat="48.691410" lon="9.891562">
        <ele>614.249285</ele>
        <time>2024-03-17T09:59:48.999Z</time>
      </trkpt>
      <trkpt lat="48.691503" lon="9.891481">
        <ele>614.410792</ele>
        <time>2024-03-17T09:59:50.999Z</time>
      </trkpt>
      <trkpt lat="48.691483" lon="9.891341">
        <ele>614.553149</ele>
        <time>2024-03-17T09:59:52.999Z</time>
      </trkpt>
      <trkpt lat="48.691617" lon="9.891316">
        <ele>614.756415</ele>
        <time>2024-03-17T09:59:53.999Z</time>
      </trkpt>
      <trkpt lat="48.691738" lon="9.891348">
        <ele>614.941341</ele>
        <time>2024-03-17T09:59:55.999Z</time>
      </trkpt>
      <trkpt lat="48.691862" lon="9.891389">
        <ele>615.132423</ele>
        <time>2024-03-17T09:59:57.999Z</time>
      </trkpt>
      <trkpt lat="48.691981" lon="9.891414">
        <ele>615.313297</ele>
        <time>2024-03-17T09:59:59.999Z</time>
      </trkpt>
      <trkpt lat="48.692110" lon="9.891467">
        <ele>615.514527</ele>
        <time>2024-03-17T10:00:01.999Z</time>
      </trkpt>
      <trkpt lat="48.692231" lon="9.891497">
        <ele>615.699121</ele>
        <time>2024-03-17T10:00:03.999Z</time>
      </trkpt>
      <trkpt lat="48.692343" lon="9.891525">
        <ele>615.870022</ele>
        <time>2024-03-17T10:00:05.999Z</time>
      </trkpt>
      <trkpt lat="48.692470" lon="9.891556">
        <ele>616.063692</ele>
        <time>2024-03-17T10:00:07.999Z</time>
      </trkpt>
      <trkpt lat="48.692594" lon="9.891578">
        <ele>616.251654</ele>
        <time>2024-03-17T10:00:09.999Z</time>
      </trkpt>
      <trkpt lat="48.692724" lon="9.891612">
        <ele>616.472376</ele>
        <time>2024-03-17T10:00:11.999Z</time>
      </trkpt>
      <trkpt lat="48.692857" lon="9.891642">
        <ele>616.752645</ele>
        <time>2024-03-17T10:00:13.999Z</time>
      </trkpt>
      <trkpt lat="48.692981" lon="9.891674">
        <ele>617.014821</ele>
        <time>2024-03-17T10:00:15.999Z</time>
      </trkpt>
      <trkpt lat="48.693107" lon="9.891704">
        <ele>617.280668</ele>
        <time>2024-03-17T10:00:17.999Z</time>
      </trkpt>
      <trkpt lat="48.693233" lon="9.891737">
        <ele>617.547186</ele>
        <time>2024-03-17T10:00:19.999Z</time>
      </trkpt>
      <trkpt lat="48.693357" lon="9.891771">
        <ele>617.809839</ele>
        <time>2024-03-17T10:00:21.999Z</time>
      </trkpt>
      <trkpt lat="48.693486" lon="9.891798">
        <ele>618.081268</ele>
        <time>2024-03-17T10:00:23.999Z</time>
      </trkpt>
      <trkpt lat="48.693615" lon="9.891828">
        <ele>618.353293</ele>
        <time>2024-03-17T10:00:25.999Z</time>
      </trkpt>
      <trkpt lat="48.693745" lon="9.891867">
        <ele>618.629514</ele>
        <time>2024-03-17T10:00:27.999Z</time>
      </trkpt>
      <trkpt lat="48.693874" lon="9.891900">
        <ele>618.902196</ele>
        <time>2024-03-17T10:00:29.999Z</time>
      </trkpt>
      <trkpt lat="48.694004" lon="9.891931">
        <ele>619.176492</ele>
        <time>2024-03-17T10:00:31.999Z</time>
      </trkpt>
      <trkpt lat="48.694131" lon="9.891971">
        <ele>619.446859</ele>
        <time>2024-03-17T10:00:33.999Z</time>
      </trkpt>
      <trkpt lat="48.694255" lon="9.892011">
        <ele>619.711106</ele>
        <time>2024-03-17T10:00:35.999Z</time>
      </trkpt>
      <trkpt lat="48.694376" lon="9.892047">
        <ele>619.968125</ele>
        <time>2024-03-17T10:00:37.999Z</time>
      </trkpt>
      <trkpt lat="48.694498" lon="9.892095">
        <ele>620.221520</ele>
        <time>2024-03-17T10:00:39.999Z</time>
      </trkpt>
      <trkpt lat="48.694618" lon="9.892144">
        <ele>620.453470</ele>
        <time>2024-03-17T10:00:41.999Z</time>
      </trkpt>
      <trkpt lat="48.694740" lon="9.892189">
        <ele>620.687812</ele>
        <time>2024-03-17T10:00:43.999Z</time>
      </trkpt>
      <trkpt lat="48.694855" lon="9.892238">
        <ele>620.910765</ele>
        <time>2024-03-17T10:00:45.999Z</time>
      </trkpt>
      <trkpt lat="48.694969" lon="9.892295">
        <ele>621.134812</ele>
        <time>2024-03-17T10:00:47.999Z</time>
      </trkpt>
      <trkpt lat="48.695083" lon="9.892353">
        <ele>621.359249</ele>
        <time>2024-03-17T10:00:49.999Z</time>
      </trkpt>
      <trkpt lat="48.695197" lon="9.892417">
        <ele>621.586147</ele>
        <time>2024-03-17T10:00:51.999Z</time>
      </trkpt>
      <trkpt lat="48.695324" lon="9.892488">
        <ele>621.838791</ele>
        <time>2024-03-17T10:00:53.999Z</time>
      </trkpt>
      <trkpt lat="48.695428" lon="9.892553">
        <ele>622.048756</ele>
        <time>2024-03-17T10:00:56.000Z</time>
      </trkpt>
      <trkpt lat="48.695541" lon="9.892632">
        <ele>622.281021</ele>
        <time>2024-03-17T10:00:58.000Z</time>
      </trkpt>
      <trkpt lat="48.695655" lon="9.892709">
        <ele>622.513967</ele>
        <time>2024-03-17T10:01:00.000Z</time>
      </trkpt>
      <trkpt lat="48.695764" lon="9.892798">
        <ele>622.745059</ele>
        <time>2024-03-17T10:01:02.000Z</time>
      </trkpt>
      <trkpt lat="48.695884" lon="9.892898">
        <ele>623.000660</ele>
        <time>2024-03-17T10:01:04.000Z</time>
      </trkpt>
      <trkpt lat="48.695989" lon="9.892992">
        <ele>623.228279</ele>
        <time>2024-03-17T10:01:06.000Z</time>
      </trkpt>
      <trkpt lat="48.696097" lon="9.893090">
        <ele>623.463228</ele>
        <time>2024-03-17T10:01:08.000Z</time>
      </trkpt>
      <trkpt lat="48.696201" lon="9.893198">
        <ele>623.715412</ele>
        <time>2024-03-17T10:01:10.000Z</time>
      </trkpt>
      <trkpt lat="48.696303" lon="9.893310">
        <ele>623.970342</ele>
        <time>2024-03-17T10:01:12.000Z</time>
      </trkpt>
      <trkpt lat="48.696403" lon="9.893430">
        <ele>624.228502</ele>
        <time>2024-03-17T10:01:14.000Z</time>
      </trkpt>
      <trkpt lat="48.696500" lon="9.893550">
        <ele>624.481930</ele>
        <time>2024-03-17T10:01:16.000Z</time>
      </trkpt>
      <trkpt lat="48.696600" lon="9.893677">
        <ele>624.745997</ele>
        <time>2024-03-17T10:01:18.000Z</time>
      </trkpt>
      <trkpt lat="48.696690" lon="9.893802">
        <ele>624.993081</ele>
        <time>2024-03-17T10:01:20.000Z</time>
      </trkpt>
      <trkpt lat="48.696777" lon="9.893933">
        <ele>625.241307</ele>
        <time>2024-03-17T10:01:22.000Z</time>
      </trkpt>
      <trkpt lat="48.696862" lon="9.894068">
        <ele>625.490517</ele>
        <time>2024-03-17T10:01:24.000Z</time>
      </trkpt>
      <trkpt lat="48.696947" lon="9.894209">
        <ele>625.745586</ele>
        <time>2024-03-17T10:01:26.000Z</time>
      </trkpt>
      <trkpt lat="48.697029" lon="9.894354">
        <ele>626.000634</ele>
        <time>2024-03-17T10:01:28.000Z</time>
      </trkpt>
      <trkpt lat="48.697111" lon="9.894504">
        <ele>626.260790</ele>
        <time>2024-03-17T10:01:30.000Z</time>
      </trkpt>
      <trkpt lat="48.697188" lon="9.894655">
        <ele>626.515666</ele>
        <time>2024-03-17T10:01:32.000Z</time>
      </trkpt>
      <trkpt lat="48.697265" lon="9.894805">
        <ele>626.769486</ele>
        <time>2024-03-17T10:01:34.000Z</time>
      </trkpt>
      <trkpt lat="48.697338" lon="9.894953">
        <ele>627.016274</ele>
        <time>2024-03-17T10:01:36.000Z</time>
      </trkpt>
      <trkpt lat="48.697407" lon="9.895105">
        <ele>627.413027</ele>
        <time>2024-03-17T10:01:38.000Z</time>
      </trkpt>
      <trkpt lat="48.697471" lon="9.895251">
        <ele>627.930402</ele>
        <time>2024-03-17T10:01:40.000Z</time>
      </trkpt>
      <trkpt lat="48.697537" lon="9.895396">
        <ele>628.450345</ele>
        <time>2024-03-17T10:01:42.000Z</time>
      </trkpt>
      <trkpt lat="48.697601" lon="9.895542">
        <ele>628.967718</ele>
        <time>2024-03-17T10:01:44.000Z</time>
      </trkpt>
      <trkpt lat="48.697664" lon="9.895684">
        <ele>629.472789</ele>
        <time>2024-03-17T10:01:46.000Z</time>
      </trkpt>
      <trkpt lat="48.697726" lon="9.895827">
        <ele>629.977842</ele>
        <time>2024-03-17T10:01:48.000Z</time>
      </trkpt>
      <trkpt lat="48.697788" lon="9.895970">
        <ele>630.482895</ele>
        <time>2024-03-17T10:01:50.000Z</time>
      </trkpt>
      <trkpt lat="48.697851" lon="9.896108">
        <ele>630.978209</ele>
        <time>2024-03-17T10:01:52.000Z</time>
      </trkpt>
      <trkpt lat="48.697910" lon="9.896242">
        <ele>631.453701</ele>
        <time>2024-03-17T10:01:53.999Z</time>
      </trkpt>
      <trkpt lat="48.697966" lon="9.896381">
        <ele>631.934416</ele>
        <time>2024-03-17T10:01:55.999Z</time>
      </trkpt>
      <trkpt lat="48.698025" lon="9.896510">
        <ele>632.397702</ele>
        <time>2024-03-17T10:01:57.999Z</time>
      </trkpt>
      <trkpt lat="48.698084" lon="9.896638">
        <ele>632.858564</ele>
        <time>2024-03-17T10:01:59.999Z</time>
      </trkpt>
      <trkpt lat="48.698141" lon="9.896771">
        <ele>633.326672</ele>
        <time>2024-03-17T10:02:01.999Z</time>
      </trkpt>
      <trkpt lat="48.698195" lon="9.896898">
        <ele>633.772621</ele>
        <time>2024-03-17T10:02:03.999Z</time>
      </trkpt>
      <trkpt lat="48.698249" lon="9.897017">
        <ele>634.198908</ele>
        <time>2024-03-17T10:02:05.999Z</time>
      </trkpt>
      <trkpt lat="48.698300" lon="9.897130">
        <ele>634.603001</ele>
        <time>2024-03-17T10:02:07.999Z</time>
      </trkpt>
      <trkpt lat="48.698355" lon="9.897245">
        <ele>635.022221</ele>
        <time>2024-03-17T10:02:09.999Z</time>
      </trkpt>
      <trkpt lat="48.698407" lon="9.897366">
        <ele>635.422861</ele>
        <time>2024-03-17T10:02:11.999Z</time>
      </trkpt>
      <trkpt lat="48.698463" lon="9.897485">
        <ele>635.812754</ele>
        <time>2024-03-17T10:02:13.999Z</time>
      </trkpt>
      <trkpt lat="48.698520" lon="9.897612">
        <ele>636.222471</ele>
        <time>2024-03-17T10:02:15.999Z</time>
      </trkpt>
      <trkpt lat="48.698572" lon="9.897733">
        <ele>636.607665</ele>
        <time>2024-03-17T10:02:17.999Z</time>
      </trkpt>
      <trkpt lat="48.698625" lon="9.897855">
        <ele>636.997305</ele>
        <time>2024-03-17T10:02:19.999Z</time>
      </trkpt>
      <trkpt lat="48.698697" lon="9.898026">
        <ele>637.538412</ele>
        <time>2024-03-17T10:02:22.999Z</time>
      </trkpt>
      <trkpt lat="48.698764" lon="9.898207">
        <ele>638.092030</ele>
        <time>2024-03-17T10:02:25.999Z</time>
      </trkpt>
      <trkpt lat="48.698818" lon="9.898329">
        <ele>638.483905</ele>
        <time>2024-03-17T10:02:27.999Z</time>
      </trkpt>
      <trkpt lat="48.698876" lon="9.898454">
        <ele>638.891531</ele>
        <time>2024-03-17T10:02:29.999Z</time>
      </trkpt>
      <trkpt lat="48.698918" lon="9.898576">
        <ele>639.258608</ele>
        <time>2024-03-17T10:02:31.999Z</time>
      </trkpt>
      <trkpt lat="48.698969" lon="9.898701">
        <ele>639.650645</ele>
        <time>2024-03-17T10:02:33.999Z</time>
      </trkpt>
      <trkpt lat="48.699011" lon="9.898823">
        <ele>640.017721</ele>
        <time>2024-03-17T10:02:35.999Z</time>
      </trkpt>
      <trkpt lat="48.699066" lon="9.899006">
        <ele>640.554148</ele>
        <time>2024-03-17T10:02:38.999Z</time>
      </trkpt>
      <trkpt lat="48.699116" lon="9.899196">
        <ele>641.099820</ele>
        <time>2024-03-17T10:02:41.999Z</time>
      </trkpt>
      <trkpt lat="48.699154" lon="9.899329">
        <ele>641.486445</ele>
        <time>2024-03-17T10:02:43.999Z</time>
      </trkpt>
      <trkpt lat="48.699191" lon="9.899462">
        <ele>641.871482</ele>
        <time>2024-03-17T10:02:45.999Z</time>
      </trkpt>
      <trkpt lat="48.699225" lon="9.899589">
        <ele>642.237093</ele>
        <time>2024-03-17T10:02:47.999Z</time>
      </trkpt>
      <trkpt lat="48.699256" lon="9.899728">
        <ele>642.569095</ele>
        <time>2024-03-17T10:02:49.999Z</time>
      </trkpt>
      <trkpt lat="48.699284" lon="9.899863">
        <ele>642.819052</ele>
        <time>2024-03-17T10:02:51.999Z</time>
      </trkpt>
      <trkpt lat="48.699313" lon="9.900000">
        <ele>643.073186</ele>
        <time>2024-03-17T10:02:53.999Z</time>
      </trkpt>
      <trkpt lat="48.699332" lon="9.900136">
        <ele>643.318736</ele>
        <time>2024-03-17T10:02:55.999Z</time>
      </trkpt>
      <trkpt lat="48.699358" lon="9.900275">
        <ele>643.573931</ele>
        <time>2024-03-17T10:02:57.999Z</time>
      </trkpt>
      <trkpt lat="48.699385" lon="9.900411">
        <ele>643.824789</ele>
        <time>2024-03-17T10:02:59.999Z</time>
      </trkpt>
      <trkpt lat="48.699412" lon="9.900547">
        <ele>644.075648</ele>
        <time>2024-03-17T10:03:02.000Z</time>
      </trkpt>
      <trkpt lat="48.699433" lon="9.900681">
        <ele>644.318922</ele>
        <time>2024-03-17T10:03:04.000Z</time>
      </trkpt>
      <trkpt lat="48.699454" lon="9.900822">
        <ele>644.574242</ele>
        <time>2024-03-17T10:03:06.000Z</time>
      </trkpt>
      <trkpt lat="48.699483" lon="9.900963">
        <ele>644.835113</ele>
        <time>2024-03-17T10:03:08.000Z</time>
      </trkpt>
      <trkpt lat="48.699507" lon="9.901104">
        <ele>645.092319</ele>
        <time>2024-03-17T10:03:10.000Z</time>
      </trkpt>
      <trkpt lat="48.699534" lon="9.901253">
        <ele>645.365247</ele>
        <time>2024-03-17T10:03:12.000Z</time>
      </trkpt>
      <trkpt lat="48.699564" lon="9.901403">
        <ele>645.642099</ele>
        <time>2024-03-17T10:03:14.000Z</time>
      </trkpt>
      <trkpt lat="48.699589" lon="9.901558">
        <ele>645.923941</ele>
        <time>2024-03-17T10:03:16.000Z</time>
      </trkpt>
      <trkpt lat="48.699612" lon="9.901716">
        <ele>646.209734</ele>
        <time>2024-03-17T10:03:18.000Z</time>
      </trkpt>
      <trkpt lat="48.699643" lon="9.901872">
        <ele>646.497505</ele>
        <time>2024-03-17T10:03:20.000Z</time>
      </trkpt>
      <trkpt lat="48.699672" lon="9.902032">
        <ele>646.790586</ele>
        <time>2024-03-17T10:03:22.000Z</time>
      </trkpt>
      <trkpt lat="48.699695" lon="9.902194">
        <ele>647.083281</ele>
        <time>2024-03-17T10:03:24.000Z</time>
      </trkpt>
      <trkpt lat="48.699717" lon="9.902360">
        <ele>647.268235</ele>
        <time>2024-03-17T10:03:26.000Z</time>
      </trkpt>
      <trkpt lat="48.699739" lon="9.902532">
        <ele>647.273298</ele>
        <time>2024-03-17T10:03:28.000Z</time>
      </trkpt>
      <trkpt lat="48.699758" lon="9.902707">
        <ele>647.278422</ele>
        <time>2024-03-17T10:03:30.000Z</time>
      </trkpt>
      <trkpt lat="48.699770" lon="9.902887">
        <ele>647.283649</ele>
        <time>2024-03-17T10:03:32.000Z</time>
      </trkpt>
      <trkpt lat="48.699781" lon="9.903075">
        <ele>647.289103</ele>
        <time>2024-03-17T10:03:34.000Z</time>
      </trkpt>
      <trkpt lat="48.699785" lon="9.903271">
        <ele>647.294769</ele>
        <time>2024-03-17T10:03:36.000Z</time>
      </trkpt>
      <trkpt lat="48.699788" lon="9.903475">
        <ele>647.300665</ele>
        <time>2024-03-17T10:03:38.000Z</time>
      </trkpt>
      <trkpt lat="48.699788" lon="9.903687">
        <ele>647.306790</ele>
        <time>2024-03-17T10:03:40.000Z</time>
      </trkpt>
      <trkpt lat="48.699787" lon="9.903908">
        <ele>647.313176</ele>
        <time>2024-03-17T10:03:42.000Z</time>
      </trkpt>
      <trkpt lat="48.699782" lon="9.904131">
        <ele>647.319623</ele>
        <time>2024-03-17T10:03:44.000Z</time>
      </trkpt>
      <trkpt lat="48.699779" lon="9.904352">
        <ele>647.326010</ele>
        <time>2024-03-17T10:03:46.000Z</time>
      </trkpt>
      <trkpt lat="48.699774" lon="9.904558">
        <ele>647.331966</ele>
        <time>2024-03-17T10:03:48.000Z</time>
      </trkpt>
      <trkpt lat="48.699766" lon="9.904750">
        <ele>647.337525</ele>
        <time>2024-03-17T10:03:50.000Z</time>
      </trkpt>
      <trkpt lat="48.699757" lon="9.904946">
        <ele>647.343202</ele>
        <time>2024-03-17T10:03:52.000Z</time>
      </trkpt>
      <trkpt lat="48.699751" lon="9.905153">
        <ele>647.703248</ele>
        <time>2024-03-17T10:03:54.000Z</time>
      </trkpt>
      <trkpt lat="48.699746" lon="9.905362">
        <ele>648.229992</ele>
        <time>2024-03-17T10:03:56.000Z</time>
      </trkpt>
      <trkpt lat="48.699741" lon="9.905567">
        <ele>648.746669</ele>
        <time>2024-03-17T10:03:58.000Z</time>
      </trkpt>
      <trkpt lat="48.699734" lon="9.905768">
        <ele>649.253622</ele>
        <time>2024-03-17T10:03:59.999Z</time>
      </trkpt>
      <trkpt lat="48.699726" lon="9.905963">
        <ele>649.745708</ele>
        <time>2024-03-17T10:04:01.999Z</time>
      </trkpt>
      <trkpt lat="48.699723" lon="9.906153">
        <ele>650.224389</ele>
        <time>2024-03-17T10:04:03.999Z</time>
      </trkpt>
      <trkpt lat="48.699715" lon="9.906335">
        <ele>650.683800</ele>
        <time>2024-03-17T10:04:05.999Z</time>
      </trkpt>
      <trkpt lat="48.699709" lon="9.906506">
        <ele>651.115098</ele>
        <time>2024-03-17T10:04:07.999Z</time>
      </trkpt>
      <trkpt lat="48.699706" lon="9.906677">
        <ele>651.545941</ele>
        <time>2024-03-17T10:04:09.999Z</time>
      </trkpt>
      <trkpt lat="48.699703" lon="9.906852">
        <ele>651.986854</ele>
        <time>2024-03-17T10:04:11.999Z</time>
      </trkpt>
      <trkpt lat="48.699698" lon="9.907030">
        <ele>652.435581</ele>
        <time>2024-03-17T10:04:13.999Z</time>
      </trkpt>
      <trkpt lat="48.699692" lon="9.907208">
        <ele>652.884486</ele>
        <time>2024-03-17T10:04:15.999Z</time>
      </trkpt>
      <trkpt lat="48.699692" lon="9.907387">
        <ele>653.335326</ele>
        <time>2024-03-17T10:04:17.999Z</time>
      </trkpt>
      <trkpt lat="48.699687" lon="9.907548">
        <ele>653.741278</ele>
        <time>2024-03-17T10:04:19.999Z</time>
      </trkpt>
      <trkpt lat="48.699689" lon="9.907714">
        <ele>654.159445</ele>
        <time>2024-03-17T10:04:21.999Z</time>
      </trkpt>
      <trkpt lat="48.699693" lon="9.907885">
        <ele>654.311640</ele>
        <time>2024-03-17T10:04:23.999Z</time>
      </trkpt>
      <trkpt lat="48.699702" lon="9.908061">
        <ele>654.431368</ele>
        <time>2024-03-17T10:04:25.999Z</time>
      </trkpt>
      <trkpt lat="48.699725" lon="9.908239">
        <ele>654.554388</ele>
        <time>2024-03-17T10:04:27.999Z</time>
      </trkpt>
      <trkpt lat="48.699752" lon="9.908417">
        <ele>654.678262</ele>
        <time>2024-03-17T10:04:29.999Z</time>
      </trkpt>
      <trkpt lat="48.699800" lon="9.908588">
        <ele>654.804295</ele>
        <time>2024-03-17T10:04:31.999Z</time>
      </trkpt>
      <trkpt lat="48.699865" lon="9.908747">
        <ele>654.931147</ele>
        <time>2024-03-17T10:04:33.999Z</time>
      </trkpt>
      <trkpt lat="48.699944" lon="9.908894">
        <ele>655.059720</ele>
        <time>2024-03-17T10:04:35.999Z</time>
      </trkpt>
      <trkpt lat="48.700037" lon="9.909021">
        <ele>655.188379</ele>
        <time>2024-03-17T10:04:37.999Z</time>
      </trkpt>
      <trkpt lat="48.700147" lon="9.909119">
        <ele>655.319512</ele>
        <time>2024-03-17T10:04:39.999Z</time>
      </trkpt>
      <trkpt lat="48.700259" lon="9.909188">
        <ele>655.443757</ele>
        <time>2024-03-17T10:04:41.999Z</time>
      </trkpt>
      <trkpt lat="48.700369" lon="9.909249">
        <ele>655.564130</ele>
        <time>2024-03-17T10:04:43.999Z</time>
      </trkpt>
      <trkpt lat="48.700471" lon="9.909304">
        <ele>655.675389</ele>
        <time>2024-03-17T10:04:45.999Z</time>
      </trkpt>
      <trkpt lat="48.700578" lon="9.909357">
        <ele>655.791072</ele>
        <time>2024-03-17T10:04:48.999Z</time>
      </trkpt>
      <trkpt lat="48.700665" lon="9.909295">
        <ele>655.889872</ele>
        <time>2024-03-17T10:04:58.999Z</time>
      </trkpt>
      <trkpt lat="48.700711" lon="9.909099">
        <ele>656.030959</ele>
        <time>2024-03-17T10:05:01.999Z</time>
      </trkpt>
      <trkpt lat="48.700716" lon="9.908915">
        <ele>655.907828</ele>
        <time>2024-03-17T10:05:03.999Z</time>
      </trkpt>
      <trkpt lat="48.700722" lon="9.908717">
        <ele>655.704117</ele>
        <time>2024-03-17T10:05:05.999Z</time>
      </trkpt>
      <trkpt lat="48.700731" lon="9.908492">
        <ele>655.472447</ele>
        <time>2024-03-17T10:05:08.000Z</time>
      </trkpt>
      <trkpt lat="48.700740" lon="9.908259">
        <ele>655.232569</ele>
        <time>2024-03-17T10:05:10.000Z</time>
      </trkpt>
      <trkpt lat="48.700759" lon="9.908019">
        <ele>654.984139</ele>
        <time>2024-03-17T10:05:12.000Z</time>
      </trkpt>
      <trkpt lat="48.700782" lon="9.907768">
        <ele>654.723697</ele>
        <time>2024-03-17T10:05:14.000Z</time>
      </trkpt>
      <trkpt lat="48.700804" lon="9.907507">
        <ele>654.453274</ele>
        <time>2024-03-17T10:05:16.000Z</time>
      </trkpt>
      <trkpt lat="48.700831" lon="9.907250">
        <ele>654.185814</ele>
        <time>2024-03-17T10:05:18.000Z</time>
      </trkpt>
      <trkpt lat="48.700849" lon="9.906997">
        <ele>653.924285</ele>
        <time>2024-03-17T10:05:20.000Z</time>
      </trkpt>
      <trkpt lat="48.700869" lon="9.906746">
        <ele>653.664445</ele>
        <time>2024-03-17T10:05:22.000Z</time>
      </trkpt>
      <trkpt lat="48.700891" lon="9.906496">
        <ele>653.405232</ele>
        <time>2024-03-17T10:05:24.000Z</time>
      </trkpt>
      <trkpt lat="48.700910" lon="9.906245">
        <ele>652.909211</ele>
        <time>2024-03-17T10:05:26.000Z</time>
      </trkpt>
      <trkpt lat="48.700929" lon="9.905999">
        <ele>652.111525</ele>
        <time>2024-03-17T10:05:28.000Z</time>
      </trkpt>
      <trkpt lat="48.700954" lon="9.905760">
        <ele>651.332182</ele>
        <time>2024-03-17T10:05:30.000Z</time>
      </trkpt>
      <trkpt lat="48.700985" lon="9.905526">
        <ele>650.563519</ele>
        <time>2024-03-17T10:05:32.000Z</time>
      </trkpt>
      <trkpt lat="48.701014" lon="9.905293">
        <ele>649.799881</ele>
        <time>2024-03-17T10:05:34.000Z</time>
      </trkpt>
      <trkpt lat="48.701065" lon="9.905064">
        <ele>649.021496</ele>
        <time>2024-03-17T10:05:36.000Z</time>
      </trkpt>
      <trkpt lat="48.701144" lon="9.904856">
        <ele>648.248598</ele>
        <time>2024-03-17T10:05:38.000Z</time>
      </trkpt>
      <trkpt lat="48.701261" lon="9.904693">
        <ele>647.472994</ele>
        <time>2024-03-17T10:05:40.000Z</time>
      </trkpt>
      <trkpt lat="48.701401" lon="9.904594">
        <ele>646.719076</ele>
        <time>2024-03-17T10:05:42.000Z</time>
      </trkpt>
      <trkpt lat="48.701562" lon="9.904580">
        <ele>645.932127</ele>
        <time>2024-03-17T10:05:44.000Z</time>
      </trkpt>
      <trkpt lat="48.701722" lon="9.904649">
        <ele>645.120343</ele>
        <time>2024-03-17T10:05:46.000Z</time>
      </trkpt>
      <trkpt lat="48.701885" lon="9.904733">
        <ele>644.282665</ele>
        <time>2024-03-17T10:05:48.000Z</time>
      </trkpt>
      <trkpt lat="48.702064" lon="9.904783">
        <ele>643.405535</ele>
        <time>2024-03-17T10:05:50.000Z</time>
      </trkpt>
      <trkpt lat="48.702160" lon="9.904800">
        <ele>642.939765</ele>
        <time>2024-03-17T10:05:51.000Z</time>
      </trkpt>
      <trkpt lat="48.702257" lon="9.904821">
        <ele>642.467578</ele>
        <time>2024-03-17T10:05:52.000Z</time>
      </trkpt>
      <trkpt lat="48.702357" lon="9.904842">
        <ele>641.981075</ele>
        <time>2024-03-17T10:05:53.000Z</time>
      </trkpt>
      <trkpt lat="48.702459" lon="9.904860">
        <ele>641.486217</ele>
        <time>2024-03-17T10:05:54.000Z</time>
      </trkpt>
      <trkpt lat="48.702565" lon="9.904885">
        <ele>640.969256</ele>
        <time>2024-03-17T10:05:55.000Z</time>
      </trkpt>
      <trkpt lat="48.702671" lon="9.904895">
        <ele>640.457456</ele>
        <time>2024-03-17T10:05:56.000Z</time>
      </trkpt>
      <trkpt lat="48.702779" lon="9.904901">
        <ele>639.936658</ele>
        <time>2024-03-17T10:05:57.000Z</time>
      </trkpt>
      <trkpt lat="48.702889" lon="9.904902">
        <ele>639.406562</ele>
        <time>2024-03-17T10:05:58.000Z</time>
      </trkpt>
      <trkpt lat="48.703002" lon="9.904887">
        <ele>638.859932</ele>
        <time>2024-03-17T10:05:59.000Z</time>
      </trkpt>
      <trkpt lat="48.703109" lon="9.904827">
        <ele>638.310127</ele>
        <time>2024-03-17T10:06:00.000Z</time>
      </trkpt>
      <trkpt lat="48.703211" lon="9.904742">
        <ele>637.749160</ele>
        <time>2024-03-17T10:06:01.000Z</time>
      </trkpt>
      <trkpt lat="48.703314" lon="9.904658">
        <ele>637.185481</ele>
        <time>2024-03-17T10:06:02.000Z</time>
      </trkpt>
      <trkpt lat="48.703419" lon="9.904577">
        <ele>636.617688</ele>
        <time>2024-03-17T10:06:03.000Z</time>
      </trkpt>
      <trkpt lat="48.703528" lon="9.904503">
        <ele>636.042108</ele>
        <time>2024-03-17T10:06:03.999Z</time>
      </trkpt>
      <trkpt lat="48.703643" lon="9.904441">
        <ele>636.639568</ele>
        <time>2024-03-17T10:06:04.999Z</time>
      </trkpt>
      <trkpt lat="48.703761" lon="9.904389">
        <ele>638.010076</ele>
        <time>2024-03-17T10:06:05.999Z</time>
      </trkpt>
      <trkpt lat="48.703880" lon="9.904335">
        <ele>639.395448</ele>
        <time>2024-03-17T10:06:06.999Z</time>
      </trkpt>
      <trkpt lat="48.703990" lon="9.904274">
        <ele>640.701787</ele>
        <time>2024-03-17T10:06:07.999Z</time>
      </trkpt>
      <trkpt lat="48.704088" lon="9.904206">
        <ele>641.903865</ele>
        <time>2024-03-17T10:06:08.999Z</time>
      </trkpt>
      <trkpt lat="48.704184" lon="9.904167">
        <ele>643.012307</ele>
        <time>2024-03-17T10:06:09.999Z</time>
      </trkpt>
      <trkpt lat="48.704328" lon="9.904207">
        <ele>644.645017</ele>
        <time>2024-03-17T10:06:11.999Z</time>
      </trkpt>
      <trkpt lat="48.704446" lon="9.904254">
        <ele>646.005706</ele>
        <time>2024-03-17T10:06:13.999Z</time>
      </trkpt>
      <trkpt lat="48.704541" lon="9.904312">
        <ele>647.147950</ele>
        <time>2024-03-17T10:06:15.999Z</time>
      </trkpt>
      <trkpt lat="48.704658" lon="9.904356">
        <ele>648.492367</ele>
        <time>2024-03-17T10:06:18.999Z</time>
      </trkpt>
      <trkpt lat="48.704754" lon="9.904377">
        <ele>649.574098</ele>
        <time>2024-03-17T10:06:21.999Z</time>
      </trkpt>
      <trkpt lat="48.704845" lon="9.904422">
        <ele>650.641642</ele>
        <time>2024-03-17T10:06:24.999Z</time>
      </trkpt>
      <trkpt lat="48.704938" lon="9.904442">
        <ele>651.689210</ele>
        <time>2024-03-17T10:06:27.999Z</time>
      </trkpt>
      <trkpt lat="48.705030" lon="9.904453">
        <ele>652.718421</ele>
        <time>2024-03-17T10:06:30.999Z</time>
      </trkpt>
      <trkpt lat="48.705138" lon="9.904419">
        <ele>653.948602</ele>
        <time>2024-03-17T10:06:34.999Z</time>
      </trkpt>
      <trkpt lat="48.705230" lon="9.904411">
        <ele>654.976312</ele>
        <time>2024-03-17T10:06:37.999Z</time>
      </trkpt>
      <trkpt lat="48.705318" lon="9.904448">
        <ele>655.953583</ele>
        <time>2024-03-17T10:06:40.999Z</time>
      </trkpt>
      <trkpt lat="48.705400" lon="9.904508">
        <ele>656.631383</ele>
        <time>2024-03-17T10:06:43.999Z</time>
      </trkpt>
      <trkpt lat="48.705515" lon="9.904571">
        <ele>657.541607</ele>
        <time>2024-03-17T10:06:46.999Z</time>
      </trkpt>
      <trkpt lat="48.705618" lon="9.904631">
        <ele>658.362986</ele>
        <time>2024-03-17T10:06:49.999Z</time>
      </trkpt>
      <trkpt lat="48.705718" lon="9.904692">
        <ele>659.165382</ele>
        <time>2024-03-17T10:06:52.999Z</time>
      </trkpt>
      <trkpt lat="48.705833" lon="9.904739">
        <ele>660.051970</ele>
        <time>2024-03-17T10:06:55.999Z</time>
      </trkpt>
      <trkpt lat="48.705948" lon="9.904793">
        <ele>660.948128</ele>
        <time>2024-03-17T10:06:58.999Z</time>
      </trkpt>
      <trkpt lat="48.706039" lon="9.904787">
        <ele>661.626126</ele>
        <time>2024-03-17T10:07:01.999Z</time>
      </trkpt>
      <trkpt lat="48.706150" lon="9.904825">
        <ele>662.473176</ele>
        <time>2024-03-17T10:07:04.999Z</time>
      </trkpt>
      <trkpt lat="48.706275" lon="9.904810">
        <ele>663.406524</ele>
        <time>2024-03-17T10:07:07.999Z</time>
      </trkpt>
      <trkpt lat="48.706400" lon="9.904815">
        <ele>664.337284</ele>
        <time>2024-03-17T10:07:10.999Z</time>
      </trkpt>
      <trkpt lat="48.706520" lon="9.904798">
        <ele>665.234397</ele>
        <time>2024-03-17T10:07:14.000Z</time>
      </trkpt>
      <trkpt lat="48.706638" lon="9.904796">
        <ele>666.112784</ele>
        <time>2024-03-17T10:07:17.000Z</time>
      </trkpt>
      <trkpt lat="48.706759" lon="9.904797">
        <ele>667.013459</ele>
        <time>2024-03-17T10:07:20.000Z</time>
      </trkpt>
      <trkpt lat="48.706889" lon="9.904798">
        <ele>667.981125</ele>
        <time>2024-03-17T10:07:23.000Z</time>
      </trkpt>
      <trkpt lat="48.707019" lon="9.904821">
        <ele>668.955351</ele>
        <time>2024-03-17T10:07:26.000Z</time>
      </trkpt>
      <trkpt lat="48.707110" lon="9.904827">
        <ele>669.359863</ele>
        <time>2024-03-17T10:07:28.000Z</time>
      </trkpt>
      <trkpt lat="48.707230" lon="9.904858">
        <ele>669.603942</ele>
        <time>2024-03-17T10:07:31.000Z</time>
      </trkpt>
      <trkpt lat="48.707315" lon="9.904903">
        <ele>669.784474</ele>
        <time>2024-03-17T10:07:33.000Z</time>
      </trkpt>
      <trkpt lat="48.707445" lon="9.904954">
        <ele>670.053726</ele>
        <time>2024-03-17T10:07:36.000Z</time>
      </trkpt>
      <trkpt lat="48.707564" lon="9.905014">
        <ele>670.305190</ele>
        <time>2024-03-17T10:07:39.000Z</time>
      </trkpt>
      <trkpt lat="48.707693" lon="9.905074">
        <ele>670.575753</ele>
        <time>2024-03-17T10:07:42.000Z</time>
      </trkpt>
      <trkpt lat="48.707782" lon="9.905127">
        <ele>670.767489</ele>
        <time>2024-03-17T10:07:44.000Z</time>
      </trkpt>
      <trkpt lat="48.707911" lon="9.905148">
        <ele>671.027630</ele>
        <time>2024-03-17T10:07:47.000Z</time>
      </trkpt>
      <trkpt lat="48.708074" lon="9.905205">
        <ele>671.363045</ele>
        <time>2024-03-17T10:07:49.000Z</time>
      </trkpt>
      <trkpt lat="48.708161" lon="9.905297">
        <ele>671.575760</ele>
        <time>2024-03-17T10:07:52.000Z</time>
      </trkpt>
      <trkpt lat="48.708323" lon="9.905361">
        <ele>671.911437</ele>
        <time>2024-03-17T10:07:55.000Z</time>
      </trkpt>
      <trkpt lat="48.708396" lon="9.905525">
        <ele>672.173182</ele>
        <time>2024-03-17T10:07:58.000Z</time>
      </trkpt>
      <trkpt lat="48.708509" lon="9.905621">
        <ele>672.432930</ele>
        <time>2024-03-17T10:08:01.000Z</time>
      </trkpt>
      <trkpt lat="48.708615" lon="9.905714">
        <ele>672.678518</ele>
        <time>2024-03-17T10:08:04.000Z</time>
      </trkpt>
      <trkpt lat="48.708735" lon="9.905801">
        <ele>672.867921</ele>
        <time>2024-03-17T10:08:07.000Z</time>
      </trkpt>
      <trkpt lat="48.708827" lon="9.905827">
        <ele>672.873771</ele>
        <time>2024-03-17T10:08:08.999Z</time>
      </trkpt>
      <trkpt lat="48.708915" lon="9.905870">
        <ele>672.879551</ele>
        <time>2024-03-17T10:08:10.999Z</time>
      </trkpt>
      <trkpt lat="48.709005" lon="9.905923">
        <ele>672.885587</ele>
        <time>2024-03-17T10:08:12.999Z</time>
      </trkpt>
      <trkpt lat="48.709101" lon="9.905960">
        <ele>672.891779</ele>
        <time>2024-03-17T10:08:14.999Z</time>
      </trkpt>
      <trkpt lat="48.709233" lon="9.906006">
        <ele>672.900246</ele>
        <time>2024-03-17T10:08:17.999Z</time>
      </trkpt>
      <trkpt lat="48.709329" lon="9.906057">
        <ele>672.906605</ele>
        <time>2024-03-17T10:08:19.999Z</time>
      </trkpt>
      <trkpt lat="48.709425" lon="9.906096">
        <ele>672.912817</ele>
        <time>2024-03-17T10:08:21.999Z</time>
      </trkpt>
      <trkpt lat="48.709528" lon="9.906157">
        <ele>672.919730</ele>
        <time>2024-03-17T10:08:23.999Z</time>
      </trkpt>
      <trkpt lat="48.709617" lon="9.906208">
        <ele>672.925678</ele>
        <time>2024-03-17T10:08:25.999Z</time>
      </trkpt>
      <trkpt lat="48.709700" lon="9.906302">
        <ele>672.932155</ele>
        <time>2024-03-17T10:08:27.999Z</time>
      </trkpt>
      <trkpt lat="48.709764" lon="9.906414">
        <ele>672.938267</ele>
        <time>2024-03-17T10:08:29.999Z</time>
      </trkpt>
      <trkpt lat="48.709833" lon="9.906528">
        <ele>672.944647</ele>
        <time>2024-03-17T10:08:31.999Z</time>
      </trkpt>
      <trkpt lat="48.709898" lon="9.906650">
        <ele>672.951115</ele>
        <time>2024-03-17T10:08:33.999Z</time>
      </trkpt>
      <trkpt lat="48.709970" lon="9.906773">
        <ele>672.957897</ele>
        <time>2024-03-17T10:08:35.999Z</time>
      </trkpt>
      <trkpt lat="48.710042" lon="9.906922">
        <ele>672.965515</ele>
        <time>2024-03-17T10:08:37.999Z</time>
      </trkpt>
      <trkpt lat="48.710092" lon="9.907037">
        <ele>672.971196</ele>
        <time>2024-03-17T10:08:39.999Z</time>
      </trkpt>
      <trkpt lat="48.710165" lon="9.907135">
        <ele>672.977292</ele>
        <time>2024-03-17T10:08:41.999Z</time>
      </trkpt>
      <trkpt lat="48.710237" lon="9.907252">
        <ele>673.193770</ele>
        <time>2024-03-17T10:08:43.999Z</time>
      </trkpt>
      <trkpt lat="48.710326" lon="9.907342">
        <ele>673.433451</ele>
        <time>2024-03-17T10:08:45.999Z</time>
      </trkpt>
      <trkpt lat="48.710387" lon="9.907454">
        <ele>673.648116</ele>
        <time>2024-03-17T10:08:47.999Z</time>
      </trkpt>
      <trkpt lat="48.710461" lon="9.907553">
        <ele>673.869237</ele>
        <time>2024-03-17T10:08:49.999Z</time>
      </trkpt>
      <trkpt lat="48.710535" lon="9.907659">
        <ele>674.097338</ele>
        <time>2024-03-17T10:08:51.999Z</time>
      </trkpt>
      <trkpt lat="48.710610" lon="9.907768">
        <ele>674.330118</ele>
        <time>2024-03-17T10:08:53.999Z</time>
      </trkpt>
      <trkpt lat="48.710666" lon="9.907883">
        <ele>674.541384</ele>
        <time>2024-03-17T10:08:55.999Z</time>
      </trkpt>
      <trkpt lat="48.710722" lon="9.907997">
        <ele>674.751462</ele>
        <time>2024-03-17T10:08:57.999Z</time>
      </trkpt>
      <trkpt lat="48.710777" lon="9.908124">
        <ele>674.976009</ele>
        <time>2024-03-17T10:08:59.999Z</time>
      </trkpt>
      <trkpt lat="48.710821" lon="9.908253">
        <ele>675.190660</ele>
        <time>2024-03-17T10:09:01.999Z</time>
      </trkpt>
      <trkpt lat="48.710860" lon="9.908385">
        <ele>675.404443</ele>
        <time>2024-03-17T10:09:03.999Z</time>
      </trkpt>
      <trkpt lat="48.710894" lon="9.908522">
        <ele>675.620801</ele>
        <time>2024-03-17T10:09:05.999Z</time>
      </trkpt>
      <trkpt lat="48.710935" lon="9.908661">
        <ele>675.845859</ele>
        <time>2024-03-17T10:09:07.999Z</time>
      </trkpt>
      <trkpt lat="48.710969" lon="9.908799">
        <ele>676.063600</ele>
        <time>2024-03-17T10:09:09.999Z</time>
      </trkpt>
      <trkpt lat="48.711004" lon="9.908942">
        <ele>676.289049</ele>
        <time>2024-03-17T10:09:11.999Z</time>
      </trkpt>
      <trkpt lat="48.711040" lon="9.909084">
        <ele>676.513906</ele>
        <time>2024-03-17T10:09:13.999Z</time>
      </trkpt>
      <trkpt lat="48.711075" lon="9.909224">
        <ele>676.735203</ele>
        <time>2024-03-17T10:09:15.999Z</time>
      </trkpt>
      <trkpt lat="48.711106" lon="9.909372">
        <ele>676.964727</ele>
        <time>2024-03-17T10:09:17.999Z</time>
      </trkpt>
      <trkpt lat="48.711142" lon="9.909519">
        <ele>677.198015</ele>
        <time>2024-03-17T10:09:20.000Z</time>
      </trkpt>
      <trkpt lat="48.711176" lon="9.909668">
        <ele>677.432922</ele>
        <time>2024-03-17T10:09:22.000Z</time>
      </trkpt>
      <trkpt lat="48.711209" lon="9.909822">
        <ele>677.674176</ele>
        <time>2024-03-17T10:09:24.000Z</time>
      </trkpt>
      <trkpt lat="48.711240" lon="9.909969">
        <ele>677.904118</ele>
        <time>2024-03-17T10:09:26.000Z</time>
      </trkpt>
      <trkpt lat="48.711270" lon="9.910113">
        <ele>678.129115</ele>
        <time>2024-03-17T10:09:28.000Z</time>
      </trkpt>
      <trkpt lat="48.711301" lon="9.910265">
        <ele>678.366163</ele>
        <time>2024-03-17T10:09:30.000Z</time>
      </trkpt>
      <trkpt lat="48.711334" lon="9.910413">
        <ele>678.598930</ele>
        <time>2024-03-17T10:09:32.000Z</time>
      </trkpt>
      <trkpt lat="48.711364" lon="9.910562">
        <ele>678.831042</ele>
        <time>2024-03-17T10:09:34.000Z</time>
      </trkpt>
      <trkpt lat="48.711397" lon="9.910711">
        <ele>679.065221</ele>
        <time>2024-03-17T10:09:36.000Z</time>
      </trkpt>
      <trkpt lat="48.711430" lon="9.910860">
        <ele>679.299399</ele>
        <time>2024-03-17T10:09:38.000Z</time>
      </trkpt>
      <trkpt lat="48.711463" lon="9.911011">
        <ele>679.536405</ele>
        <time>2024-03-17T10:09:40.000Z</time>
      </trkpt>
      <trkpt lat="48.711495" lon="9.911165">
        <ele>679.776969</ele>
        <time>2024-03-17T10:09:42.000Z</time>
      </trkpt>
      <trkpt lat="48.711532" lon="9.911316">
        <ele>680.016967</ele>
        <time>2024-03-17T10:09:44.000Z</time>
      </trkpt>
      <trkpt lat="48.711565" lon="9.911467">
        <ele>680.253972</ele>
        <time>2024-03-17T10:09:46.000Z</time>
      </trkpt>
      <trkpt lat="48.711596" lon="9.911617">
        <ele>680.488174</ele>
        <time>2024-03-17T10:09:48.000Z</time>
      </trkpt>
      <trkpt lat="48.711627" lon="9.911768">
        <ele>680.723798</ele>
        <time>2024-03-17T10:09:50.000Z</time>
      </trkpt>
      <trkpt lat="48.711660" lon="9.911914">
        <ele>680.953742</ele>
        <time>2024-03-17T10:09:52.000Z</time>
      </trkpt>
      <trkpt lat="48.711696" lon="9.912061">
        <ele>681.251767</ele>
        <time>2024-03-17T10:09:54.000Z</time>
      </trkpt>
      <trkpt lat="48.711729" lon="9.912211">
        <ele>681.614957</ele>
        <time>2024-03-17T10:09:56.000Z</time>
      </trkpt>
      <trkpt lat="48.711769" lon="9.912356">
        <ele>681.975951</ele>
        <time>2024-03-17T10:09:58.000Z</time>
      </trkpt>
      <trkpt lat="48.711811" lon="9.912503">
        <ele>682.343898</ele>
        <time>2024-03-17T10:10:00.000Z</time>
      </trkpt>
      <trkpt lat="48.711849" lon="9.912650">
        <ele>682.706537</ele>
        <time>2024-03-17T10:10:02.000Z</time>
      </trkpt>
      <trkpt lat="48.711894" lon="9.912800">
        <ele>683.085019</ele>
        <time>2024-03-17T10:10:04.000Z</time>
      </trkpt>
      <trkpt lat="48.711936" lon="9.912946">
        <ele>683.450859</ele>
        <time>2024-03-17T10:10:06.000Z</time>
      </trkpt>
      <trkpt lat="48.711979" lon="9.913093">
        <ele>683.820202</ele>
        <time>2024-03-17T10:10:08.000Z</time>
      </trkpt>
      <trkpt lat="48.712024" lon="9.913243">
        <ele>684.198683</ele>
        <time>2024-03-17T10:10:09.999Z</time>
      </trkpt>
      <trkpt lat="48.712082" lon="9.913388">
        <ele>684.588158</ele>
        <time>2024-03-17T10:10:11.999Z</time>
      </trkpt>
      <trkpt lat="48.712149" lon="9.913526">
        <ele>684.981695</ele>
        <time>2024-03-17T10:10:13.999Z</time>
      </trkpt>
      <trkpt lat="48.712222" lon="9.913659">
        <ele>685.379063</ele>
        <time>2024-03-17T10:10:15.999Z</time>
      </trkpt>
      <trkpt lat="48.712298" lon="9.913780">
        <ele>685.762777</ele>
        <time>2024-03-17T10:10:17.999Z</time>
      </trkpt>
      <trkpt lat="48.712373" lon="9.913894">
        <ele>686.132544</ele>
        <time>2024-03-17T10:10:19.999Z</time>
      </trkpt>
      <trkpt lat="48.712445" lon="9.914020">
        <ele>686.515400</ele>
        <time>2024-03-17T10:10:21.999Z</time>
      </trkpt>
      <trkpt lat="48.712514" lon="9.914153">
        <ele>686.904009</ele>
        <time>2024-03-17T10:10:23.999Z</time>
      </trkpt>
      <trkpt lat="48.712579" lon="9.914289">
        <ele>687.289729</ele>
        <time>2024-03-17T10:10:25.999Z</time>
      </trkpt>
      <trkpt lat="48.712642" lon="9.914427">
        <ele>687.612913</ele>
        <time>2024-03-17T10:10:27.999Z</time>
      </trkpt>
      <trkpt lat="48.712704" lon="9.914570">
        <ele>687.935121</ele>
        <time>2024-03-17T10:10:29.999Z</time>
      </trkpt>
      <trkpt lat="48.712764" lon="9.914714">
        <ele>688.255820</ele>
        <time>2024-03-17T10:10:31.999Z</time>
      </trkpt>
      <trkpt lat="48.712824" lon="9.914856">
        <ele>688.573341</ele>
        <time>2024-03-17T10:10:33.999Z</time>
      </trkpt>
      <trkpt lat="48.712887" lon="9.915002">
        <ele>688.901837</ele>
        <time>2024-03-17T10:10:35.999Z</time>
      </trkpt>
      <trkpt lat="48.712947" lon="9.915151">
        <ele>689.230535</ele>
        <time>2024-03-17T10:10:37.999Z</time>
      </trkpt>
      <trkpt lat="48.713013" lon="9.915296">
        <ele>689.562241</ele>
        <time>2024-03-17T10:10:39.999Z</time>
      </trkpt>
      <trkpt lat="48.713074" lon="9.915442">
        <ele>689.887647</ele>
        <time>2024-03-17T10:10:41.999Z</time>
      </trkpt>
      <trkpt lat="48.713122" lon="9.915596">
        <ele>690.208363</ele>
        <time>2024-03-17T10:10:43.999Z</time>
      </trkpt>
      <trkpt lat="48.713166" lon="9.915757">
        <ele>690.536509</ele>
        <time>2024-03-17T10:10:45.999Z</time>
      </trkpt>
      <trkpt lat="48.713226" lon="9.915906">
        <ele>690.865205</ele>
        <time>2024-03-17T10:10:47.999Z</time>
      </trkpt>
      <trkpt lat="48.713292" lon="9.916048">
        <ele>691.192276</ele>
        <time>2024-03-17T10:10:49.999Z</time>
      </trkpt>
      <trkpt lat="48.713364" lon="9.916182">
        <ele>691.517683</ele>
        <time>2024-03-17T10:10:51.999Z</time>
      </trkpt>
      <trkpt lat="48.713435" lon="9.916323">
        <ele>691.851674</ele>
        <time>2024-03-17T10:10:53.999Z</time>
      </trkpt>
      <trkpt lat="48.713508" lon="9.916463">
        <ele>692.187679</ele>
        <time>2024-03-17T10:10:55.999Z</time>
      </trkpt>
      <trkpt lat="48.713583" lon="9.916605">
        <ele>692.540159</ele>
        <time>2024-03-17T10:10:57.999Z</time>
      </trkpt>
      <trkpt lat="48.713658" lon="9.916748">
        <ele>692.934946</ele>
        <time>2024-03-17T10:10:59.999Z</time>
      </trkpt>
      <trkpt lat="48.713733" lon="9.916885">
        <ele>693.319666</ele>
        <time>2024-03-17T10:11:01.999Z</time>
      </trkpt>
      <trkpt lat="48.713811" lon="9.917025">
        <ele>693.715665</ele>
        <time>2024-03-17T10:11:03.999Z</time>
      </trkpt>
      <trkpt lat="48.713887" lon="9.917163">
        <ele>694.104141</ele>
        <time>2024-03-17T10:11:05.999Z</time>
      </trkpt>
      <trkpt lat="48.713961" lon="9.917300">
        <ele>694.486777</ele>
        <time>2024-03-17T10:11:07.999Z</time>
      </trkpt>
      <trkpt lat="48.714040" lon="9.917426">
        <ele>694.862416</ele>
        <time>2024-03-17T10:11:09.999Z</time>
      </trkpt>
      <trkpt lat="48.714119" lon="9.917549">
        <ele>695.233383</ele>
        <time>2024-03-17T10:11:11.999Z</time>
      </trkpt>
      <trkpt lat="48.714202" lon="9.917665">
        <ele>695.603185</ele>
        <time>2024-03-17T10:11:13.999Z</time>
      </trkpt>
      <trkpt lat="48.714287" lon="9.917782">
        <ele>695.979278</ele>
        <time>2024-03-17T10:11:15.999Z</time>
      </trkpt>
      <trkpt lat="48.714371" lon="9.917892">
        <ele>696.342888</ele>
        <time>2024-03-17T10:11:17.999Z</time>
      </trkpt>
      <trkpt lat="48.714453" lon="9.918001">
        <ele>696.700137</ele>
        <time>2024-03-17T10:11:19.999Z</time>
      </trkpt>
      <trkpt lat="48.714536" lon="9.918105">
        <ele>697.052873</ele>
        <time>2024-03-17T10:11:21.999Z</time>
      </trkpt>
      <trkpt lat="48.714621" lon="9.918206">
        <ele>697.406645</ele>
        <time>2024-03-17T10:11:23.999Z</time>
      </trkpt>
      <trkpt lat="48.714706" lon="9.918309">
        <ele>697.763100</ele>
        <time>2024-03-17T10:11:26.000Z</time>
      </trkpt>
      <trkpt lat="48.714792" lon="9.918406">
        <ele>698.114227</ele>
        <time>2024-03-17T10:11:28.000Z</time>
      </trkpt>
      <trkpt lat="48.714880" lon="9.918497">
        <ele>698.588104</ele>
        <time>2024-03-17T10:11:30.000Z</time>
      </trkpt>
      <trkpt lat="48.714966" lon="9.918589">
        <ele>699.327207</ele>
        <time>2024-03-17T10:11:32.000Z</time>
      </trkpt>
      <trkpt lat="48.715048" lon="9.918680">
        <ele>700.040801</ele>
        <time>2024-03-17T10:11:34.000Z</time>
      </trkpt>
      <trkpt lat="48.715126" lon="9.918768">
        <ele>700.723544</ele>
        <time>2024-03-17T10:11:36.000Z</time>
      </trkpt>
      <trkpt lat="48.715231" lon="9.918878">
        <ele>701.619766</ele>
        <time>2024-03-17T10:11:39.000Z</time>
      </trkpt>
      <trkpt lat="48.715323" lon="9.918984">
        <ele>702.431194</ele>
        <time>2024-03-17T10:11:42.000Z</time>
      </trkpt>
      <trkpt lat="48.715417" lon="9.919088">
        <ele>703.248347</ele>
        <time>2024-03-17T10:11:45.000Z</time>
      </trkpt>
      <trkpt lat="48.715513" lon="9.919195">
        <ele>704.085041</ele>
        <time>2024-03-17T10:11:48.000Z</time>
      </trkpt>
      <trkpt lat="48.715622" lon="9.919307">
        <ele>705.009671</ele>
        <time>2024-03-17T10:11:51.000Z</time>
      </trkpt>
      <trkpt lat="48.715711" lon="9.919403">
        <ele>705.776671</ele>
        <time>2024-03-17T10:11:54.000Z</time>
      </trkpt>
      <trkpt lat="48.715810" lon="9.919523">
        <ele>706.666742</ele>
        <time>2024-03-17T10:11:57.000Z</time>
      </trkpt>
      <trkpt lat="48.715914" lon="9.919646">
        <ele>707.592977</ele>
        <time>2024-03-17T10:12:00.000Z</time>
      </trkpt>
      <trkpt lat="48.716010" lon="9.919747">
        <ele>708.413506</ele>
        <time>2024-03-17T10:12:03.000Z</time>
      </trkpt>
      <trkpt lat="48.716087" lon="9.919832">
        <ele>709.082351</ele>
        <time>2024-03-17T10:12:05.000Z</time>
      </trkpt>
      <trkpt lat="48.716194" lon="9.919945">
        <ele>709.998028</ele>
        <time>2024-03-17T10:12:08.000Z</time>
      </trkpt>
      <trkpt lat="48.716299" lon="9.920072">
        <ele>710.941251</ele>
        <time>2024-03-17T10:12:11.000Z</time>
      </trkpt>
      <trkpt lat="48.716400" lon="9.920195">
        <ele>711.152027</ele>
        <time>2024-03-17T10:12:14.000Z</time>
      </trkpt>
      <trkpt lat="48.716478" lon="9.920286">
        <ele>711.286738</ele>
        <time>2024-03-17T10:12:16.000Z</time>
      </trkpt>
      <trkpt lat="48.716552" lon="9.920376">
        <ele>711.416586</ele>
        <time>2024-03-17T10:12:17.999Z</time>
      </trkpt>
      <trkpt lat="48.716632" lon="9.920460">
        <ele>711.549778</ele>
        <time>2024-03-17T10:12:19.999Z</time>
      </trkpt>
      <trkpt lat="48.716711" lon="9.920547">
        <ele>711.683421</ele>
        <time>2024-03-17T10:12:21.999Z</time>
      </trkpt>
      <trkpt lat="48.716785" lon="9.920634">
        <ele>711.811591</ele>
        <time>2024-03-17T10:12:23.999Z</time>
      </trkpt>
      <trkpt lat="48.716866" lon="9.920729">
        <ele>711.951759</ele>
        <time>2024-03-17T10:12:25.999Z</time>
      </trkpt>
      <trkpt lat="48.716947" lon="9.920831">
        <ele>712.095881</ele>
        <time>2024-03-17T10:12:27.999Z</time>
      </trkpt>
      <trkpt lat="48.717020" lon="9.920935">
        <ele>712.232992</ele>
        <time>2024-03-17T10:12:29.999Z</time>
      </trkpt>
      <trkpt lat="48.717098" lon="9.921050">
        <ele>712.381914</ele>
        <time>2024-03-17T10:12:31.999Z</time>
      </trkpt>
      <trkpt lat="48.717168" lon="9.921167">
        <ele>712.524527</ele>
        <time>2024-03-17T10:12:33.999Z</time>
      </trkpt>
      <trkpt lat="48.717235" lon="9.921294">
        <ele>712.671353</ele>
        <time>2024-03-17T10:12:35.999Z</time>
      </trkpt>
      <trkpt lat="48.717312" lon="9.921427">
        <ele>712.831125</ele>
        <time>2024-03-17T10:12:37.999Z</time>
      </trkpt>
      <trkpt lat="48.717392" lon="9.921571">
        <ele>713.001105</ele>
        <time>2024-03-17T10:12:39.999Z</time>
      </trkpt>
      <trkpt lat="48.717457" lon="9.921715">
        <ele>713.158647</ele>
        <time>2024-03-17T10:12:41.999Z</time>
      </trkpt>
      <trkpt lat="48.717560" lon="9.921874">
        <ele>713.359849</ele>
        <time>2024-03-17T10:12:43.999Z</time>
      </trkpt>
      <trkpt lat="48.717645" lon="9.922048">
        <ele>712.849193</ele>
        <time>2024-03-17T10:12:45.999Z</time>
      </trkpt>
      <trkpt lat="48.717732" lon="9.922259">
        <ele>711.644180</ele>
        <time>2024-03-17T10:12:47.999Z</time>
      </trkpt>
      <trkpt lat="48.717822" lon="9.922451">
        <ele>710.503534</ele>
        <time>2024-03-17T10:12:49.999Z</time>
      </trkpt>
      <trkpt lat="48.717867" lon="9.922577">
        <ele>709.809651</ele>
        <time>2024-03-17T10:12:50.999Z</time>
      </trkpt>
      <trkpt lat="48.717913" lon="9.922713">
        <ele>709.069497</ele>
        <time>2024-03-17T10:12:51.999Z</time>
      </trkpt>
      <trkpt lat="48.717959" lon="9.922862">
        <ele>708.272800</ele>
        <time>2024-03-17T10:12:52.999Z</time>
      </trkpt>
      <trkpt lat="48.718009" lon="9.923008">
        <ele>707.476146</ele>
        <time>2024-03-17T10:12:53.999Z</time>
      </trkpt>
      <trkpt lat="48.718070" lon="9.923152">
        <ele>706.647385</ele>
        <time>2024-03-17T10:12:54.999Z</time>
      </trkpt>
      <trkpt lat="48.718132" lon="9.923301">
        <ele>705.794256</ele>
        <time>2024-03-17T10:12:55.999Z</time>
      </trkpt>
      <trkpt lat="48.718193" lon="9.923447">
        <ele>704.957330</ele>
        <time>2024-03-17T10:12:56.999Z</time>
      </trkpt>
      <trkpt lat="48.718261" lon="9.923592">
        <ele>704.095777</ele>
        <time>2024-03-17T10:12:57.999Z</time>
      </trkpt>
      <trkpt lat="48.718332" lon="9.923741">
        <ele>703.205652</ele>
        <time>2024-03-17T10:12:58.999Z</time>
      </trkpt>
      <trkpt lat="48.718409" lon="9.923908">
        <ele>702.218953</ele>
        <time>2024-03-17T10:12:59.999Z</time>
      </trkpt>
      <trkpt lat="48.718488" lon="9.924073">
        <ele>701.231628</ele>
        <time>2024-03-17T10:13:00.999Z</time>
      </trkpt>
      <trkpt lat="48.718553" lon="9.924229">
        <ele>700.338082</ele>
        <time>2024-03-17T10:13:01.999Z</time>
      </trkpt>
      <trkpt lat="48.718629" lon="9.924391">
        <ele>699.429463</ele>
        <time>2024-03-17T10:13:02.999Z</time>
      </trkpt>
      <trkpt lat="48.718717" lon="9.924546">
        <ele>698.500948</ele>
        <time>2024-03-17T10:13:03.999Z</time>
      </trkpt>
      <trkpt lat="48.718801" lon="9.924697">
        <ele>697.604113</ele>
        <time>2024-03-17T10:13:04.999Z</time>
      </trkpt>
      <trkpt lat="48.718896" lon="9.924829">
        <ele>696.717142</ele>
        <time>2024-03-17T10:13:05.999Z</time>
      </trkpt>
      <trkpt lat="48.718988" lon="9.924965">
        <ele>695.832696</ele>
        <time>2024-03-17T10:13:06.999Z</time>
      </trkpt>
      <trkpt lat="48.719067" lon="9.925096">
        <ele>695.026827</ele>
        <time>2024-03-17T10:13:07.999Z</time>
      </trkpt>
      <trkpt lat="48.719149" lon="9.925246">
        <ele>694.142307</ele>
        <time>2024-03-17T10:13:08.999Z</time>
      </trkpt>
      <trkpt lat="48.719218" lon="9.925400">
        <ele>693.297047</ele>
        <time>2024-03-17T10:13:09.999Z</time>
      </trkpt>
      <trkpt lat="48.719291" lon="9.925542">
        <ele>692.479651</ele>
        <time>2024-03-17T10:13:10.999Z</time>
      </trkpt>
      <trkpt lat="48.719372" lon="9.925678">
        <ele>691.647724</ele>
        <time>2024-03-17T10:13:11.999Z</time>
      </trkpt>
      <trkpt lat="48.719453" lon="9.925805">
        <ele>690.845665</ele>
        <time>2024-03-17T10:13:12.999Z</time>
      </trkpt>
      <trkpt lat="48.719515" lon="9.925957">
        <ele>690.034242</ele>
        <time>2024-03-17T10:13:13.999Z</time>
      </trkpt>
      <trkpt lat="48.719578" lon="9.926095">
        <ele>689.272256</ele>
        <time>2024-03-17T10:13:14.999Z</time>
      </trkpt>
      <trkpt lat="48.719639" lon="9.926234">
        <ele>688.514242</ele>
        <time>2024-03-17T10:13:15.999Z</time>
      </trkpt>
      <trkpt lat="48.719679" lon="9.926381">
        <ele>687.827637</ele>
        <time>2024-03-17T10:13:16.999Z</time>
      </trkpt>
      <trkpt lat="48.719705" lon="9.926520">
        <ele>687.501096</ele>
        <time>2024-03-17T10:13:17.999Z</time>
      </trkpt>
      <trkpt lat="48.719818" lon="9.926692">
        <ele>686.952482</ele>
        <time>2024-03-17T10:13:18.999Z</time>
      </trkpt>
      <trkpt lat="48.719874" lon="9.926847">
        <ele>686.553072</ele>
        <time>2024-03-17T10:13:19.999Z</time>
      </trkpt>
      <trkpt lat="48.719929" lon="9.926991">
        <ele>686.177008</ele>
        <time>2024-03-17T10:13:20.999Z</time>
      </trkpt>
      <trkpt lat="48.719984" lon="9.927111">
        <ele>685.846768</ele>
        <time>2024-03-17T10:13:21.999Z</time>
      </trkpt>
      <trkpt lat="48.720009" lon="9.927245">
        <ele>685.532035</ele>
        <time>2024-03-17T10:13:22.999Z</time>
      </trkpt>
      <trkpt lat="48.720044" lon="9.927419">
        <ele>685.120901</ele>
        <time>2024-03-17T10:13:23.999Z</time>
      </trkpt>
      <trkpt lat="48.720082" lon="9.927569">
        <ele>684.757749</ele>
        <time>2024-03-17T10:13:24.999Z</time>
      </trkpt>
      <trkpt lat="48.720120" lon="9.927701">
        <ele>684.432248</ele>
        <time>2024-03-17T10:13:25.999Z</time>
      </trkpt>
      <trkpt lat="48.720174" lon="9.927819">
        <ele>684.107675</ele>
        <time>2024-03-17T10:13:26.999Z</time>
      </trkpt>
      <trkpt lat="48.720223" lon="9.927937">
        <ele>683.792551</ele>
        <time>2024-03-17T10:13:27.999Z</time>
      </trkpt>
      <trkpt lat="48.720290" lon="9.928062">
        <ele>683.428550</ele>
        <time>2024-03-17T10:13:28.999Z</time>
      </trkpt>
      <trkpt lat="48.720366" lon="9.928326">
        <ele>682.777551</ele>
        <time>2024-03-17T10:13:30.999Z</time>
      </trkpt>
      <trkpt lat="48.720414" lon="9.928453">
        <ele>682.446752</ele>
        <time>2024-03-17T10:13:32.000Z</time>
      </trkpt>
      <trkpt lat="48.720474" lon="9.928578">
        <ele>682.097377</ele>
        <time>2024-03-17T10:13:33.000Z</time>
      </trkpt>
      <trkpt lat="48.720526" lon="9.928706">
        <ele>681.757636</ele>
        <time>2024-03-17T10:13:34.000Z</time>
      </trkpt>
      <trkpt lat="48.720565" lon="9.928830">
        <ele>681.509132</ele>
        <time>2024-03-17T10:13:35.000Z</time>
      </trkpt>
      <trkpt lat="48.720636" lon="9.929060">
        <ele>681.075340</ele>
        <time>2024-03-17T10:13:37.000Z</time>
      </trkpt>
      <trkpt lat="48.720705" lon="9.929196">
        <ele>680.782257</ele>
        <time>2024-03-17T10:13:38.000Z</time>
      </trkpt>
      <trkpt lat="48.720752" lon="9.929329">
        <ele>680.524513</ele>
        <time>2024-03-17T10:13:39.000Z</time>
      </trkpt>
      <trkpt lat="48.720792" lon="9.929457">
        <ele>680.282562</ele>
        <time>2024-03-17T10:13:40.000Z</time>
      </trkpt>
      <trkpt lat="48.720843" lon="9.929597">
        <ele>680.009365</ele>
        <time>2024-03-17T10:13:41.000Z</time>
      </trkpt>
      <trkpt lat="48.720877" lon="9.929734">
        <ele>679.759319</ele>
        <time>2024-03-17T10:13:42.000Z</time>
      </trkpt>
      <trkpt lat="48.720921" lon="9.929884">
        <ele>679.478889</ele>
        <time>2024-03-17T10:13:43.000Z</time>
      </trkpt>
      <trkpt lat="48.720980" lon="9.930021">
        <ele>679.199405</ele>
        <time>2024-03-17T10:13:44.000Z</time>
      </trkpt>
      <trkpt lat="48.721026" lon="9.930157">
        <ele>678.938325</ele>
        <time>2024-03-17T10:13:45.000Z</time>
      </trkpt>
      <trkpt lat="48.721064" lon="9.930291">
        <ele>678.689164</ele>
        <time>2024-03-17T10:13:46.000Z</time>
      </trkpt>
      <trkpt lat="48.721104" lon="9.930424">
        <ele>678.439468</ele>
        <time>2024-03-17T10:13:47.000Z</time>
      </trkpt>
      <trkpt lat="48.721153" lon="9.930567">
        <ele>678.164200</ele>
        <time>2024-03-17T10:13:48.000Z</time>
      </trkpt>
      <trkpt lat="48.721198" lon="9.930703">
        <ele>677.904291</ele>
        <time>2024-03-17T10:13:49.000Z</time>
      </trkpt>
      <trkpt lat="48.721263" lon="9.930827">
        <ele>677.633740</ele>
        <time>2024-03-17T10:13:50.000Z</time>
      </trkpt>
      <trkpt lat="48.721314" lon="9.930964">
        <ele>677.365019</ele>
        <time>2024-03-17T10:13:51.000Z</time>
      </trkpt>
      <trkpt lat="48.721354" lon="9.931113">
        <ele>677.090221</ele>
        <time>2024-03-17T10:13:52.000Z</time>
      </trkpt>
      <trkpt lat="48.721393" lon="9.931253">
        <ele>676.837251</ele>
        <time>2024-03-17T10:13:53.000Z</time>
      </trkpt>
      <trkpt lat="48.721433" lon="9.931385">
        <ele>676.596839</ele>
        <time>2024-03-17T10:13:54.000Z</time>
      </trkpt>
      <trkpt lat="48.721475" lon="9.931515">
        <ele>676.357267</ele>
        <time>2024-03-17T10:13:55.000Z</time>
      </trkpt>
      <trkpt lat="48.721510" lon="9.931646">
        <ele>676.123349</ele>
        <time>2024-03-17T10:13:56.000Z</time>
      </trkpt>
      <trkpt lat="48.721562" lon="9.931913">
        <ele>675.662597</ele>
        <time>2024-03-17T10:13:58.000Z</time>
      </trkpt>
      <trkpt lat="48.721575" lon="9.932048">
        <ele>675.436797</ele>
        <time>2024-03-17T10:13:59.000Z</time>
      </trkpt>
      <trkpt lat="48.721570" lon="9.932185">
        <ele>675.209708</ele>
        <time>2024-03-17T10:14:00.000Z</time>
      </trkpt>
      <trkpt lat="48.721544" lon="9.932454">
        <ele>674.759746</ele>
        <time>2024-03-17T10:14:02.000Z</time>
      </trkpt>
      <trkpt lat="48.721528" lon="9.932594">
        <ele>674.524587</ele>
        <time>2024-03-17T10:14:03.000Z</time>
      </trkpt>
      <trkpt lat="48.721495" lon="9.932864">
        <ele>674.070118</ele>
        <time>2024-03-17T10:14:05.000Z</time>
      </trkpt>
      <trkpt lat="48.721491" lon="9.933008">
        <ele>673.831579</ele>
        <time>2024-03-17T10:14:06.000Z</time>
      </trkpt>
      <trkpt lat="48.721489" lon="9.933153">
        <ele>673.591544</ele>
        <time>2024-03-17T10:14:07.000Z</time>
      </trkpt>
      <trkpt lat="48.721472" lon="9.933295">
        <ele>673.352688</ele>
        <time>2024-03-17T10:14:08.000Z</time>
      </trkpt>
      <trkpt lat="48.721436" lon="9.933562">
        <ele>672.901653</ele>
        <time>2024-03-17T10:14:10.000Z</time>
      </trkpt>
      <trkpt lat="48.721428" lon="9.933701">
        <ele>672.670726</ele>
        <time>2024-03-17T10:14:11.000Z</time>
      </trkpt>
      <trkpt lat="48.721421" lon="9.933842">
        <ele>672.486814</ele>
        <time>2024-03-17T10:14:12.000Z</time>
      </trkpt>
      <trkpt lat="48.721426" lon="9.933989">
        <ele>672.372237</ele>
        <time>2024-03-17T10:14:13.000Z</time>
      </trkpt>
      <trkpt lat="48.721438" lon="9.934129">
        <ele>672.262344</ele>
        <time>2024-03-17T10:14:14.000Z</time>
      </trkpt>
      <trkpt lat="48.721454" lon="9.934266">
        <ele>672.154045</ele>
        <time>2024-03-17T10:14:15.000Z</time>
      </trkpt>
      <trkpt lat="48.721459" lon="9.934402">
        <ele>672.048018</ele>
        <time>2024-03-17T10:14:16.000Z</time>
      </trkpt>
      <trkpt lat="48.721476" lon="9.934677">
        <ele>671.833019</ele>
        <time>2024-03-17T10:14:18.000Z</time>
      </trkpt>
      <trkpt lat="48.721491" lon="9.934816">
        <ele>671.723383</ele>
        <time>2024-03-17T10:14:19.000Z</time>
      </trkpt>
      <trkpt lat="48.721518" lon="9.935064">
        <ele>671.527728</ele>
        <time>2024-03-17T10:14:21.000Z</time>
      </trkpt>
      <trkpt lat="48.721525" lon="9.935200">
        <ele>671.421544</ele>
        <time>2024-03-17T10:14:22.000Z</time>
      </trkpt>
      <trkpt lat="48.721547" lon="9.935461">
        <ele>671.216729</ele>
        <time>2024-03-17T10:14:24.000Z</time>
      </trkpt>
      <trkpt lat="48.721567" lon="9.935596">
        <ele>671.109028</ele>
        <time>2024-03-17T10:14:25.000Z</time>
      </trkpt>
      <trkpt lat="48.721613" lon="9.935721">
        <ele>670.997614</ele>
        <time>2024-03-17T10:14:26.000Z</time>
      </trkpt>
      <trkpt lat="48.721628" lon="9.935954">
        <ele>670.815385</ele>
        <time>2024-03-17T10:14:27.999Z</time>
      </trkpt>
      <trkpt lat="48.721640" lon="9.936193">
        <ele>670.628809</ele>
        <time>2024-03-17T10:14:29.999Z</time>
      </trkpt>
      <trkpt lat="48.721625" lon="9.936359">
        <ele>670.498388</ele>
        <time>2024-03-17T10:14:30.999Z</time>
      </trkpt>
      <trkpt lat="48.721641" lon="9.936496">
        <ele>670.436180</ele>
        <time>2024-03-17T10:14:31.999Z</time>
      </trkpt>
      <trkpt lat="48.721659" lon="9.936636">
        <ele>670.594453</ele>
        <time>2024-03-17T10:14:32.999Z</time>
      </trkpt>
      <trkpt lat="48.721675" lon="9.936772">
        <ele>670.747746</ele>
        <time>2024-03-17T10:14:33.999Z</time>
      </trkpt>
      <trkpt lat="48.721691" lon="9.937028">
        <ele>671.033087</ele>
        <time>2024-03-17T10:14:35.999Z</time>
      </trkpt>
      <trkpt lat="48.721708" lon="9.937162">
        <ele>671.184504</ele>
        <time>2024-03-17T10:14:36.999Z</time>
      </trkpt>
      <trkpt lat="48.721748" lon="9.937425">
        <ele>671.483995</ele>
        <time>2024-03-17T10:14:38.999Z</time>
      </trkpt>
      <trkpt lat="48.721771" lon="9.937557">
        <ele>671.635491</ele>
        <time>2024-03-17T10:14:39.999Z</time>
      </trkpt>
      <trkpt lat="48.721851" lon="9.937796">
        <ele>671.932880</ele>
        <time>2024-03-17T10:14:41.999Z</time>
      </trkpt>
      <trkpt lat="48.721948" lon="9.938009">
        <ele>672.220077</ele>
        <time>2024-03-17T10:14:43.999Z</time>
      </trkpt>
      <trkpt lat="48.722061" lon="9.938190">
        <ele>672.496598</ele>
        <time>2024-03-17T10:14:45.999Z</time>
      </trkpt>
      <trkpt lat="48.722197" lon="9.938327">
        <ele>672.771257</ele>
        <time>2024-03-17T10:14:47.999Z</time>
      </trkpt>
      <trkpt lat="48.722324" lon="9.938479">
        <ele>673.043431</ele>
        <time>2024-03-17T10:14:49.999Z</time>
      </trkpt>
      <trkpt lat="48.722441" lon="9.938610">
        <ele>673.288090</ele>
        <time>2024-03-17T10:14:51.999Z</time>
      </trkpt>
      <trkpt lat="48.722582" lon="9.938748">
        <ele>673.787397</ele>
        <time>2024-03-17T10:14:53.999Z</time>
      </trkpt>
      <trkpt lat="48.722715" lon="9.938845">
        <ele>674.431829</ele>
        <time>2024-03-17T10:14:55.999Z</time>
      </trkpt>
      <trkpt lat="48.722837" lon="9.938938">
        <ele>675.028077</ele>
        <time>2024-03-17T10:14:57.999Z</time>
      </trkpt>
      <trkpt lat="48.722966" lon="9.938991">
        <ele>675.611647</ele>
        <time>2024-03-17T10:14:59.999Z</time>
      </trkpt>
      <trkpt lat="48.723127" lon="9.939054">
        <ele>676.337659</ele>
        <time>2024-03-17T10:15:01.999Z</time>
      </trkpt>
      <trkpt lat="48.723256" lon="9.939101">
        <ele>676.916948</ele>
        <time>2024-03-17T10:15:03.999Z</time>
      </trkpt>
      <trkpt lat="48.723362" lon="9.939085">
        <ele>677.382061</ele>
        <time>2024-03-17T10:15:05.999Z</time>
      </trkpt>
      <trkpt lat="48.723457" lon="9.939137">
        <ele>677.823070</ele>
        <time>2024-03-17T10:15:07.999Z</time>
      </trkpt>
      <trkpt lat="48.723611" lon="9.939173">
        <ele>678.503422</ele>
        <time>2024-03-17T10:15:09.999Z</time>
      </trkpt>
      <trkpt lat="48.723726" lon="9.939168">
        <ele>679.005749</ele>
        <time>2024-03-17T10:15:11.999Z</time>
      </trkpt>
      <trkpt lat="48.723837" lon="9.939209">
        <ele>679.504584</ele>
        <time>2024-03-17T10:15:13.999Z</time>
      </trkpt>
      <trkpt lat="48.723948" lon="9.939241">
        <ele>679.997926</ele>
        <time>2024-03-17T10:15:15.999Z</time>
      </trkpt>
      <trkpt lat="48.724059" lon="9.939306">
        <ele>680.517487</ele>
        <time>2024-03-17T10:15:17.999Z</time>
      </trkpt>
      <trkpt lat="48.724196" lon="9.939447">
        <ele>681.240507</ele>
        <time>2024-03-17T10:15:19.999Z</time>
      </trkpt>
      <trkpt lat="48.724287" lon="9.939502">
        <ele>681.307461</ele>
        <time>2024-03-17T10:15:20.999Z</time>
      </trkpt>
      <trkpt lat="48.724382" lon="9.939506">
        <ele>681.328948</ele>
        <time>2024-03-17T10:15:21.999Z</time>
      </trkpt>
      <trkpt lat="48.724518" lon="9.939637">
        <ele>681.365378</ele>
        <time>2024-03-17T10:15:23.999Z</time>
      </trkpt>
      <trkpt lat="48.724659" lon="9.939707">
        <ele>681.398923</ele>
        <time>2024-03-17T10:15:25.999Z</time>
      </trkpt>
      <trkpt lat="48.724737" lon="9.939782">
        <ele>681.419807</ele>
        <time>2024-03-17T10:15:26.999Z</time>
      </trkpt>
      <trkpt lat="48.724859" lon="9.939888">
        <ele>681.451600</ele>
        <time>2024-03-17T10:15:28.999Z</time>
      </trkpt>
      <trkpt lat="48.724988" lon="9.939990">
        <ele>681.484495</ele>
        <time>2024-03-17T10:15:30.999Z</time>
      </trkpt>
      <trkpt lat="48.725114" lon="9.940140">
        <ele>681.520717</ele>
        <time>2024-03-17T10:15:32.999Z</time>
      </trkpt>
      <trkpt lat="48.725242" lon="9.940290">
        <ele>681.557296</ele>
        <time>2024-03-17T10:15:34.999Z</time>
      </trkpt>
      <trkpt lat="48.725365" lon="9.940422">
        <ele>681.591368</ele>
        <time>2024-03-17T10:15:37.000Z</time>
      </trkpt>
      <trkpt lat="48.725491" lon="9.940563">
        <ele>681.626777</ele>
        <time>2024-03-17T10:15:39.000Z</time>
      </trkpt>
      <trkpt lat="48.725607" lon="9.940682">
        <ele>681.658444</ele>
        <time>2024-03-17T10:15:41.000Z</time>
      </trkpt>
      <trkpt lat="48.725717" lon="9.940821">
        <ele>681.690822</ele>
        <time>2024-03-17T10:15:43.000Z</time>
      </trkpt>
      <trkpt lat="48.725813" lon="9.941009">
        <ele>681.406088</ele>
        <time>2024-03-17T10:15:45.000Z</time>
      </trkpt>
      <trkpt lat="48.725918" lon="9.941183">
        <ele>681.087838</ele>
        <time>2024-03-17T10:15:47.000Z</time>
      </trkpt>
      <trkpt lat="48.726028" lon="9.941369">
        <ele>680.750718</ele>
        <time>2024-03-17T10:15:49.000Z</time>
      </trkpt>
      <trkpt lat="48.726161" lon="9.941536">
        <ele>680.397411</ele>
        <time>2024-03-17T10:15:51.000Z</time>
      </trkpt>
      <trkpt lat="48.726285" lon="9.941689">
        <ele>680.070324</ele>
        <time>2024-03-17T10:15:53.000Z</time>
      </trkpt>
      <trkpt lat="48.726355" lon="9.941779">
        <ele>679.882548</ele>
        <time>2024-03-17T10:15:54.000Z</time>
      </trkpt>
      <trkpt lat="48.726478" lon="9.941924">
        <ele>679.563784</ele>
        <time>2024-03-17T10:15:56.000Z</time>
      </trkpt>
      <trkpt lat="48.726607" lon="9.942001">
        <ele>679.280156</ele>
        <time>2024-03-17T10:15:58.000Z</time>
      </trkpt>
      <trkpt lat="48.726768" lon="9.942139">
        <ele>678.901778</ele>
        <time>2024-03-17T10:16:00.000Z</time>
      </trkpt>
      <trkpt lat="48.726895" lon="9.942251">
        <ele>678.601196</ele>
        <time>2024-03-17T10:16:02.000Z</time>
      </trkpt>
      <trkpt lat="48.727029" lon="9.942395">
        <ele>678.265168</ele>
        <time>2024-03-17T10:16:04.000Z</time>
      </trkpt>
      <trkpt lat="48.727162" lon="9.942503">
        <ele>677.960709</ele>
        <time>2024-03-17T10:16:06.000Z</time>
      </trkpt>
      <trkpt lat="48.727310" lon="9.942621">
        <ele>677.643326</ele>
        <time>2024-03-17T10:16:08.000Z</time>
      </trkpt>
      <trkpt lat="48.727421" lon="9.942732">
        <ele>677.390942</ele>
        <time>2024-03-17T10:16:10.000Z</time>
      </trkpt>
      <trkpt lat="48.727558" lon="9.942881">
        <ele>677.070923</ele>
        <time>2024-03-17T10:16:12.000Z</time>
      </trkpt>
      <trkpt lat="48.727703" lon="9.943017">
        <ele>676.747300</ele>
        <time>2024-03-17T10:16:14.000Z</time>
      </trkpt>
      <trkpt lat="48.727839" lon="9.943165">
        <ele>676.429554</ele>
        <time>2024-03-17T10:16:16.000Z</time>
      </trkpt>
      <trkpt lat="48.727907" lon="9.943259">
        <ele>676.254890</ele>
        <time>2024-03-17T10:16:17.000Z</time>
      </trkpt>
      <trkpt lat="48.728023" lon="9.943455">
        <ele>675.925210</ele>
        <time>2024-03-17T10:16:19.000Z</time>
      </trkpt>
      <trkpt lat="48.728149" lon="9.943637">
        <ele>675.594891</ele>
        <time>2024-03-17T10:16:21.000Z</time>
      </trkpt>
      <trkpt lat="48.728262" lon="9.943797">
        <ele>675.301420</ele>
        <time>2024-03-17T10:16:23.000Z</time>
      </trkpt>
      <trkpt lat="48.728383" lon="9.943961">
        <ele>674.993362</ele>
        <time>2024-03-17T10:16:25.000Z</time>
      </trkpt>
      <trkpt lat="48.728505" lon="9.944103">
        <ele>674.701432</ele>
        <time>2024-03-17T10:16:26.999Z</time>
      </trkpt>
      <trkpt lat="48.728644" lon="9.944255">
        <ele>674.489054</ele>
        <time>2024-03-17T10:16:28.999Z</time>
      </trkpt>
      <trkpt lat="48.728768" lon="9.944415">
        <ele>674.335225</ele>
        <time>2024-03-17T10:16:30.999Z</time>
      </trkpt>
      <trkpt lat="48.728840" lon="9.944503">
        <ele>674.247855</ele>
        <time>2024-03-17T10:16:31.999Z</time>
      </trkpt>
      <trkpt lat="48.728964" lon="9.944682">
        <ele>674.086101</ele>
        <time>2024-03-17T10:16:33.999Z</time>
      </trkpt>
      <trkpt lat="48.729084" lon="9.944859">
        <ele>673.927934</ele>
        <time>2024-03-17T10:16:35.999Z</time>
      </trkpt>
      <trkpt lat="48.729153" lon="9.944950">
        <ele>673.841537</ele>
        <time>2024-03-17T10:16:36.999Z</time>
      </trkpt>
      <trkpt lat="48.729228" lon="9.945040">
        <ele>673.751174</ele>
        <time>2024-03-17T10:16:37.999Z</time>
      </trkpt>
      <trkpt lat="48.729351" lon="9.945214">
        <ele>673.592246</ele>
        <time>2024-03-17T10:16:39.999Z</time>
      </trkpt>
      <trkpt lat="48.729470" lon="9.945393">
        <ele>673.433880</ele>
        <time>2024-03-17T10:16:41.999Z</time>
      </trkpt>
      <trkpt lat="48.729583" lon="9.945579">
        <ele>673.276306</ele>
        <time>2024-03-17T10:16:43.999Z</time>
      </trkpt>
      <trkpt lat="48.729702" lon="9.945747">
        <ele>673.122692</ele>
        <time>2024-03-17T10:16:45.999Z</time>
      </trkpt>
      <trkpt lat="48.729835" lon="9.945922">
        <ele>672.956324</ele>
        <time>2024-03-17T10:16:47.999Z</time>
      </trkpt>
      <trkpt lat="48.729899" lon="9.946018">
        <ele>672.842287</ele>
        <time>2024-03-17T10:16:48.999Z</time>
      </trkpt>
      <trkpt lat="48.730016" lon="9.946205">
        <ele>672.529059</ele>
        <time>2024-03-17T10:16:50.999Z</time>
      </trkpt>
      <trkpt lat="48.730084" lon="9.946302">
        <ele>672.357036</ele>
        <time>2024-03-17T10:16:51.999Z</time>
      </trkpt>
      <trkpt lat="48.730205" lon="9.946504">
        <ele>672.025433</ele>
        <time>2024-03-17T10:16:53.999Z</time>
      </trkpt>
      <trkpt lat="48.730330" lon="9.946684">
        <ele>671.707802</ele>
        <time>2024-03-17T10:16:55.999Z</time>
      </trkpt>
      <trkpt lat="48.730459" lon="9.946850">
        <ele>671.396060</ele>
        <time>2024-03-17T10:16:57.999Z</time>
      </trkpt>
      <trkpt lat="48.730577" lon="9.947020">
        <ele>671.096150</ele>
        <time>2024-03-17T10:16:59.999Z</time>
      </trkpt>
      <trkpt lat="48.730673" lon="9.947162">
        <ele>670.849042</ele>
        <time>2024-03-17T10:17:01.999Z</time>
      </trkpt>
      <trkpt lat="48.730794" lon="9.947336">
        <ele>670.541779</ele>
        <time>2024-03-17T10:17:03.999Z</time>
      </trkpt>
      <trkpt lat="48.730855" lon="9.947440">
        <ele>670.372651</ele>
        <time>2024-03-17T10:17:04.999Z</time>
      </trkpt>
      <trkpt lat="48.730977" lon="9.947621">
        <ele>670.058158</ele>
        <time>2024-03-17T10:17:06.999Z</time>
      </trkpt>
      <trkpt lat="48.731096" lon="9.947808">
        <ele>669.742386</ele>
        <time>2024-03-17T10:17:08.999Z</time>
      </trkpt>
      <trkpt lat="48.731162" lon="9.947907">
        <ele>669.574419</ele>
        <time>2024-03-17T10:17:09.999Z</time>
      </trkpt>
      <trkpt lat="48.731295" lon="9.948083">
        <ele>669.309680</ele>
        <time>2024-03-17T10:17:11.999Z</time>
      </trkpt>
      <trkpt lat="48.731361" lon="9.948187">
        <ele>669.166927</ele>
        <time>2024-03-17T10:17:12.999Z</time>
      </trkpt>
      <trkpt lat="48.731497" lon="9.948364">
        <ele>668.898139</ele>
        <time>2024-03-17T10:17:14.999Z</time>
      </trkpt>
      <trkpt lat="48.731619" lon="9.948547">
        <ele>668.640774</ele>
        <time>2024-03-17T10:17:16.999Z</time>
      </trkpt>
      <trkpt lat="48.731752" lon="9.948719">
        <ele>668.378620</ele>
        <time>2024-03-17T10:17:18.999Z</time>
      </trkpt>
      <trkpt lat="48.731877" lon="9.948891">
        <ele>668.125475</ele>
        <time>2024-03-17T10:17:20.999Z</time>
      </trkpt>
      <trkpt lat="48.731942" lon="9.948987">
        <ele>667.989394</ele>
        <time>2024-03-17T10:17:21.999Z</time>
      </trkpt>
      <trkpt lat="48.732077" lon="9.949168">
        <ele>667.719139</ele>
        <time>2024-03-17T10:17:23.999Z</time>
      </trkpt>
      <trkpt lat="48.732181" lon="9.949368">
        <ele>667.467230</ele>
        <time>2024-03-17T10:17:25.999Z</time>
      </trkpt>
      <trkpt lat="48.732294" lon="9.949544">
        <ele>667.224287</ele>
        <time>2024-03-17T10:17:27.999Z</time>
      </trkpt>
      <trkpt lat="48.732402" lon="9.949736">
        <ele>666.974694</ele>
        <time>2024-03-17T10:17:29.999Z</time>
      </trkpt>
      <trkpt lat="48.732465" lon="9.949866">
        <ele>666.829091</ele>
        <time>2024-03-17T10:17:30.999Z</time>
      </trkpt>
      <trkpt lat="48.732537" lon="9.949981">
        <ele>666.701245</ele>
        <time>2024-03-17T10:17:31.999Z</time>
      </trkpt>
      <trkpt lat="48.732603" lon="9.950086">
        <ele>666.584296</ele>
        <time>2024-03-17T10:17:32.999Z</time>
      </trkpt>
      <trkpt lat="48.732673" lon="9.950192">
        <ele>666.463353</ele>
        <time>2024-03-17T10:17:33.999Z</time>
      </trkpt>
      <trkpt lat="48.732782" lon="9.950390">
        <ele>666.255407</ele>
        <time>2024-03-17T10:17:35.999Z</time>
      </trkpt>
      <trkpt lat="48.732845" lon="9.950496">
        <ele>666.140360</ele>
        <time>2024-03-17T10:17:36.999Z</time>
      </trkpt>
      <trkpt lat="48.732969" lon="9.950705">
        <ele>665.913700</ele>
        <time>2024-03-17T10:17:38.999Z</time>
      </trkpt>
      <trkpt lat="48.733076" lon="9.950901">
        <ele>665.708558</ele>
        <time>2024-03-17T10:17:40.999Z</time>
      </trkpt>
      <trkpt lat="48.733135" lon="9.951011">
        <ele>665.594242</ele>
        <time>2024-03-17T10:17:41.999Z</time>
      </trkpt>
      <trkpt lat="48.733248" lon="9.951209">
        <ele>665.383130</ele>
        <time>2024-03-17T10:17:44.000Z</time>
      </trkpt>
      <trkpt lat="48.733358" lon="9.951394">
        <ele>665.182304</ele>
        <time>2024-03-17T10:17:46.000Z</time>
      </trkpt>
      <trkpt lat="48.733464" lon="9.951602">
        <ele>664.970369</ele>
        <time>2024-03-17T10:17:48.000Z</time>
      </trkpt>
      <trkpt lat="48.733578" lon="9.951798">
        <ele>664.759668</ele>
        <time>2024-03-17T10:17:50.000Z</time>
      </trkpt>
      <trkpt lat="48.733689" lon="9.952001">
        <ele>664.708330</ele>
        <time>2024-03-17T10:17:52.000Z</time>
      </trkpt>
      <trkpt lat="48.733795" lon="9.952203">
        <ele>664.731932</ele>
        <time>2024-03-17T10:17:54.000Z</time>
      </trkpt>
      <trkpt lat="48.733907" lon="9.952407">
        <ele>664.756201</ele>
        <time>2024-03-17T10:17:56.000Z</time>
      </trkpt>
      <trkpt lat="48.734014" lon="9.952609">
        <ele>664.779890</ele>
        <time>2024-03-17T10:17:58.000Z</time>
      </trkpt>
      <trkpt lat="48.734125" lon="9.952802">
        <ele>664.803303</ele>
        <time>2024-03-17T10:18:00.000Z</time>
      </trkpt>
      <trkpt lat="48.734232" lon="9.952993">
        <ele>664.826217</ele>
        <time>2024-03-17T10:18:02.000Z</time>
      </trkpt>
      <trkpt lat="48.734340" lon="9.953193">
        <ele>664.849850</ele>
        <time>2024-03-17T10:18:04.000Z</time>
      </trkpt>
      <trkpt lat="48.734444" lon="9.953387">
        <ele>664.872709</ele>
        <time>2024-03-17T10:18:06.000Z</time>
      </trkpt>
      <trkpt lat="48.734558" lon="9.953586">
        <ele>664.896809</ele>
        <time>2024-03-17T10:18:08.000Z</time>
      </trkpt>
      <trkpt lat="48.734658" lon="9.953783">
        <ele>664.919538</ele>
        <time>2024-03-17T10:18:10.000Z</time>
      </trkpt>
      <trkpt lat="48.734763" lon="9.953969">
        <ele>664.946012</ele>
        <time>2024-03-17T10:18:12.000Z</time>
      </trkpt>
      <trkpt lat="48.734855" lon="9.954171">
        <ele>665.104515</ele>
        <time>2024-03-17T10:18:14.000Z</time>
      </trkpt>
      <trkpt lat="48.734966" lon="9.954339">
        <ele>665.258056</ele>
        <time>2024-03-17T10:18:16.000Z</time>
      </trkpt>
      <trkpt lat="48.735067" lon="9.954528">
        <ele>665.415118</ele>
        <time>2024-03-17T10:18:18.000Z</time>
      </trkpt>
      <trkpt lat="48.735168" lon="9.954715">
        <ele>665.571179</ele>
        <time>2024-03-17T10:18:20.000Z</time>
      </trkpt>
      <trkpt lat="48.735257" lon="9.954906">
        <ele>665.722176</ele>
        <time>2024-03-17T10:18:22.000Z</time>
      </trkpt>
      <trkpt lat="48.735362" lon="9.955095">
        <ele>665.881732</ele>
        <time>2024-03-17T10:18:24.000Z</time>
      </trkpt>
      <trkpt lat="48.735461" lon="9.955281">
        <ele>666.036056</ele>
        <time>2024-03-17T10:18:26.000Z</time>
      </trkpt>
      <trkpt lat="48.735550" lon="9.955454">
        <ele>666.177720</ele>
        <time>2024-03-17T10:18:28.000Z</time>
      </trkpt>
      <trkpt lat="48.735637" lon="9.955620">
        <ele>666.314620</ele>
        <time>2024-03-17T10:18:29.999Z</time>
      </trkpt>
      <trkpt lat="48.735715" lon="9.955775">
        <ele>666.440503</ele>
        <time>2024-03-17T10:18:31.999Z</time>
      </trkpt>
      <trkpt lat="48.735783" lon="9.955920">
        <ele>666.555380</ele>
        <time>2024-03-17T10:18:33.999Z</time>
      </trkpt>
      <trkpt lat="48.735856" lon="9.956040">
        <ele>666.660786</ele>
        <time>2024-03-17T10:18:35.999Z</time>
      </trkpt>
      <trkpt lat="48.735888" lon="9.956176">
        <ele>666.742905</ele>
        <time>2024-03-17T10:18:37.999Z</time>
      </trkpt>
      <trkpt lat="48.735917" lon="9.956358">
        <ele>666.837935</ele>
        <time>2024-03-17T10:18:40.999Z</time>
      </trkpt>
      <trkpt lat="48.736069" lon="9.956409">
        <ele>666.957735</ele>
        <time>2024-03-17T10:18:42.999Z</time>
      </trkpt>
      <trkpt lat="48.736197" lon="9.956486">
        <ele>667.063706</ele>
        <time>2024-03-17T10:18:44.999Z</time>
      </trkpt>
      <trkpt lat="48.736338" lon="9.956580">
        <ele>667.182237</ele>
        <time>2024-03-17T10:18:46.999Z</time>
      </trkpt>
      <trkpt lat="48.736486" lon="9.956674">
        <ele>667.305718</ele>
        <time>2024-03-17T10:18:48.999Z</time>
      </trkpt>
      <trkpt lat="48.736634" lon="9.956787">
        <ele>667.433235</ele>
        <time>2024-03-17T10:18:50.999Z</time>
      </trkpt>
      <trkpt lat="48.736774" lon="9.956901">
        <ele>667.555524</ele>
        <time>2024-03-17T10:18:52.999Z</time>
      </trkpt>
      <trkpt lat="48.736915" lon="9.957024">
        <ele>667.680706</ele>
        <time>2024-03-17T10:18:54.999Z</time>
      </trkpt>
      <trkpt lat="48.737055" lon="9.957162">
        <ele>667.809206</ele>
        <time>2024-03-17T10:18:56.999Z</time>
      </trkpt>
      <trkpt lat="48.737189" lon="9.957308">
        <ele>667.936187</ele>
        <time>2024-03-17T10:18:58.999Z</time>
      </trkpt>
      <trkpt lat="48.737321" lon="9.957451">
        <ele>668.061030</ele>
        <time>2024-03-17T10:19:00.999Z</time>
      </trkpt>
      <trkpt lat="48.737447" lon="9.957601">
        <ele>668.064567</ele>
        <time>2024-03-17T10:19:02.999Z</time>
      </trkpt>
      <trkpt lat="48.737567" lon="9.957767">
        <ele>668.036988</ele>
        <time>2024-03-17T10:19:04.999Z</time>
      </trkpt>
      <trkpt lat="48.737684" lon="9.957939">
        <ele>668.009321</ele>
        <time>2024-03-17T10:19:06.999Z</time>
      </trkpt>
      <trkpt lat="48.737800" lon="9.958110">
        <ele>667.981853</ele>
        <time>2024-03-17T10:19:08.999Z</time>
      </trkpt>
      <trkpt lat="48.737913" lon="9.958290">
        <ele>667.954026</ele>
        <time>2024-03-17T10:19:10.999Z</time>
      </trkpt>
      <trkpt lat="48.738024" lon="9.958475">
        <ele>667.926022</ele>
        <time>2024-03-17T10:19:12.999Z</time>
      </trkpt>
      <trkpt lat="48.738124" lon="9.958665">
        <ele>667.898803</ele>
        <time>2024-03-17T10:19:14.999Z</time>
      </trkpt>
      <trkpt lat="48.738219" lon="9.958863">
        <ele>667.871387</ele>
        <time>2024-03-17T10:19:16.999Z</time>
      </trkpt>
      <trkpt lat="48.738313" lon="9.959066">
        <ele>667.843613</ele>
        <time>2024-03-17T10:19:18.999Z</time>
      </trkpt>
      <trkpt lat="48.738402" lon="9.959280">
        <ele>667.815285</ele>
        <time>2024-03-17T10:19:20.999Z</time>
      </trkpt>
      <trkpt lat="48.738489" lon="9.959497">
        <ele>667.786850</ele>
        <time>2024-03-17T10:19:22.999Z</time>
      </trkpt>
      <trkpt lat="48.738574" lon="9.959718">
        <ele>667.650995</ele>
        <time>2024-03-17T10:19:24.999Z</time>
      </trkpt>
      <trkpt lat="48.738650" lon="9.959951">
        <ele>667.484005</ele>
        <time>2024-03-17T10:19:26.999Z</time>
      </trkpt>
      <trkpt lat="48.738730" lon="9.960180">
        <ele>667.317528</ele>
        <time>2024-03-17T10:19:28.999Z</time>
      </trkpt>
      <trkpt lat="48.738802" lon="9.960400">
        <ele>667.159752</ele>
        <time>2024-03-17T10:19:30.999Z</time>
      </trkpt>
      <trkpt lat="48.738868" lon="9.960623">
        <ele>667.002729</ele>
        <time>2024-03-17T10:19:32.999Z</time>
      </trkpt>
      <trkpt lat="48.738933" lon="9.960850">
        <ele>666.843750</ele>
        <time>2024-03-17T10:19:34.999Z</time>
      </trkpt>
      <trkpt lat="48.739002" lon="9.961085">
        <ele>666.678497</ele>
        <time>2024-03-17T10:19:36.999Z</time>
      </trkpt>
      <trkpt lat="48.739074" lon="9.961324">
        <ele>666.509701</ele>
        <time>2024-03-17T10:19:38.999Z</time>
      </trkpt>
      <trkpt lat="48.739142" lon="9.961556">
        <ele>666.346606</ele>
        <time>2024-03-17T10:19:40.999Z</time>
      </trkpt>
      <trkpt lat="48.739204" lon="9.961786">
        <ele>666.186986</ele>
        <time>2024-03-17T10:19:42.999Z</time>
      </trkpt>
      <trkpt lat="48.739273" lon="9.962024">
        <ele>666.015218</ele>
        <time>2024-03-17T10:19:44.999Z</time>
      </trkpt>
      <trkpt lat="48.739342" lon="9.962269">
        <ele>665.751691</ele>
        <time>2024-03-17T10:19:46.999Z</time>
      </trkpt>
      <trkpt lat="48.739414" lon="9.962517">
        <ele>665.483651</ele>
        <time>2024-03-17T10:19:49.000Z</time>
      </trkpt>
      <trkpt lat="48.739488" lon="9.962765">
        <ele>665.214389</ele>
        <time>2024-03-17T10:19:51.000Z</time>
      </trkpt>
      <trkpt lat="48.739555" lon="9.963004">
        <ele>664.957499</ele>
        <time>2024-03-17T10:19:53.000Z</time>
      </trkpt>
      <trkpt lat="48.739625" lon="9.963243">
        <ele>664.698816</ele>
        <time>2024-03-17T10:19:55.000Z</time>
      </trkpt>
      <trkpt lat="48.739690" lon="9.963475">
        <ele>664.449472</ele>
        <time>2024-03-17T10:19:57.000Z</time>
      </trkpt>
      <trkpt lat="48.739757" lon="9.963703">
        <ele>664.202560</ele>
        <time>2024-03-17T10:19:59.000Z</time>
      </trkpt>
      <trkpt lat="48.739826" lon="9.963944">
        <ele>663.942669</ele>
        <time>2024-03-17T10:20:01.000Z</time>
      </trkpt>
      <trkpt lat="48.739896" lon="9.964185">
        <ele>663.682178</ele>
        <time>2024-03-17T10:20:03.000Z</time>
      </trkpt>
      <trkpt lat="48.739966" lon="9.964422">
        <ele>663.425302</ele>
        <time>2024-03-17T10:20:05.000Z</time>
      </trkpt>
      <trkpt lat="48.740034" lon="9.964664">
        <ele>663.129573</ele>
        <time>2024-03-17T10:20:07.000Z</time>
      </trkpt>
      <trkpt lat="48.740107" lon="9.964910">
        <ele>662.805565</ele>
        <time>2024-03-17T10:20:09.000Z</time>
      </trkpt>
      <trkpt lat="48.740143" lon="9.965036">
        <ele>662.640632</ele>
        <time>2024-03-17T10:20:10.000Z</time>
      </trkpt>
      <trkpt lat="48.740182" lon="9.965163">
        <ele>662.472364</ele>
        <time>2024-03-17T10:20:11.000Z</time>
      </trkpt>
      <trkpt lat="48.740219" lon="9.965290">
        <ele>662.305601</ele>
        <time>2024-03-17T10:20:12.000Z</time>
      </trkpt>
      <trkpt lat="48.740256" lon="9.965415">
        <ele>662.141033</ele>
        <time>2024-03-17T10:20:13.000Z</time>
      </trkpt>
      <trkpt lat="48.740295" lon="9.965542">
        <ele>661.972765</ele>
        <time>2024-03-17T10:20:14.000Z</time>
      </trkpt>
      <trkpt lat="48.740339" lon="9.965667">
        <ele>661.802579</ele>
        <time>2024-03-17T10:20:15.000Z</time>
      </trkpt>
      <trkpt lat="48.740387" lon="9.965791">
        <ele>661.629880</ele>
        <time>2024-03-17T10:20:16.000Z</time>
      </trkpt>
      <trkpt lat="48.740435" lon="9.965912">
        <ele>661.460278</ele>
        <time>2024-03-17T10:20:17.000Z</time>
      </trkpt>
      <trkpt lat="48.740486" lon="9.966035">
        <ele>661.285769</ele>
        <time>2024-03-17T10:20:18.000Z</time>
      </trkpt>
      <trkpt lat="48.740537" lon="9.966158">
        <ele>661.111259</ele>
        <time>2024-03-17T10:20:19.000Z</time>
      </trkpt>
      <trkpt lat="48.740591" lon="9.966278">
        <ele>660.936768</ele>
        <time>2024-03-17T10:20:20.000Z</time>
      </trkpt>
      <trkpt lat="48.740646" lon="9.966405">
        <ele>660.754278</ele>
        <time>2024-03-17T10:20:21.000Z</time>
      </trkpt>
      <trkpt lat="48.740704" lon="9.966527">
        <ele>660.573637</ele>
        <time>2024-03-17T10:20:22.000Z</time>
      </trkpt>
      <trkpt lat="48.740763" lon="9.966652">
        <ele>660.389008</ele>
        <time>2024-03-17T10:20:23.000Z</time>
      </trkpt>
      <trkpt lat="48.740825" lon="9.966778">
        <ele>660.200184</ele>
        <time>2024-03-17T10:20:24.000Z</time>
      </trkpt>
      <trkpt lat="48.740892" lon="9.966898">
        <ele>660.025528</ele>
        <time>2024-03-17T10:20:25.000Z</time>
      </trkpt>
      <trkpt lat="48.740962" lon="9.967014">
        <ele>659.898045</ele>
        <time>2024-03-17T10:20:26.000Z</time>
      </trkpt>
      <trkpt lat="48.741032" lon="9.967133">
        <ele>659.768757</ele>
        <time>2024-03-17T10:20:27.000Z</time>
      </trkpt>
      <trkpt lat="48.741106" lon="9.967247">
        <ele>659.639064</ele>
        <time>2024-03-17T10:20:28.000Z</time>
      </trkpt>
      <trkpt lat="48.741182" lon="9.967359">
        <ele>659.508770</ele>
        <time>2024-03-17T10:20:29.000Z</time>
      </trkpt>
      <trkpt lat="48.741260" lon="9.967468">
        <ele>659.378362</ele>
        <time>2024-03-17T10:20:30.000Z</time>
      </trkpt>
      <trkpt lat="48.741334" lon="9.967571">
        <ele>659.254867</ele>
        <time>2024-03-17T10:20:31.000Z</time>
      </trkpt>
      <trkpt lat="48.741411" lon="9.967672">
        <ele>659.129697</ele>
        <time>2024-03-17T10:20:32.000Z</time>
      </trkpt>
      <trkpt lat="48.741489" lon="9.967768">
        <ele>659.006188</ele>
        <time>2024-03-17T10:20:33.000Z</time>
      </trkpt>
      <trkpt lat="48.741567" lon="9.967858">
        <ele>658.885686</ele>
        <time>2024-03-17T10:20:34.000Z</time>
      </trkpt>
      <trkpt lat="48.741644" lon="9.967948">
        <ele>658.766161</ele>
        <time>2024-03-17T10:20:35.000Z</time>
      </trkpt>
      <trkpt lat="48.741719" lon="9.968035">
        <ele>658.650067</ele>
        <time>2024-03-17T10:20:36.000Z</time>
      </trkpt>
      <trkpt lat="48.741796" lon="9.968119">
        <ele>658.533447</ele>
        <time>2024-03-17T10:20:37.000Z</time>
      </trkpt>
      <trkpt lat="48.741875" lon="9.968202">
        <ele>658.415286</ele>
        <time>2024-03-17T10:20:38.000Z</time>
      </trkpt>
      <trkpt lat="48.741955" lon="9.968282">
        <ele>658.297470</ele>
        <time>2024-03-17T10:20:39.000Z</time>
      </trkpt>
      <trkpt lat="48.742036" lon="9.968359">
        <ele>658.179934</ele>
        <time>2024-03-17T10:20:40.000Z</time>
      </trkpt>
      <trkpt lat="48.742119" lon="9.968438">
        <ele>658.059454</ele>
        <time>2024-03-17T10:20:41.000Z</time>
      </trkpt>
      <trkpt lat="48.742200" lon="9.968521">
        <ele>657.939264</ele>
        <time>2024-03-17T10:20:42.000Z</time>
      </trkpt>
      <trkpt lat="48.742280" lon="9.968602">
        <ele>657.864865</ele>
        <time>2024-03-17T10:20:43.000Z</time>
      </trkpt>
      <trkpt lat="48.742359" lon="9.968685">
        <ele>657.975272</ele>
        <time>2024-03-17T10:20:44.000Z</time>
      </trkpt>
      <trkpt lat="48.742439" lon="9.968765">
        <ele>658.085358</ele>
        <time>2024-03-17T10:20:44.999Z</time>
      </trkpt>
      <trkpt lat="48.742521" lon="9.968845">
        <ele>658.197370</ele>
        <time>2024-03-17T10:20:45.999Z</time>
      </trkpt>
      <trkpt lat="48.742602" lon="9.968923">
        <ele>658.307597</ele>
        <time>2024-03-17T10:20:46.999Z</time>
      </trkpt>
      <trkpt lat="48.742683" lon="9.969001">
        <ele>658.417824</ele>
        <time>2024-03-17T10:20:47.999Z</time>
      </trkpt>
      <trkpt lat="48.742763" lon="9.969078">
        <ele>658.526676</ele>
        <time>2024-03-17T10:20:48.999Z</time>
      </trkpt>
      <trkpt lat="48.742844" lon="9.969155">
        <ele>658.636499</ele>
        <time>2024-03-17T10:20:49.999Z</time>
      </trkpt>
      <trkpt lat="48.742922" lon="9.969231">
        <ele>658.743006</ele>
        <time>2024-03-17T10:20:50.999Z</time>
      </trkpt>
      <trkpt lat="48.743001" lon="9.969309">
        <ele>658.851300</ele>
        <time>2024-03-17T10:20:51.999Z</time>
      </trkpt>
      <trkpt lat="48.743078" lon="9.969389">
        <ele>658.958526</ele>
        <time>2024-03-17T10:20:52.999Z</time>
      </trkpt>
      <trkpt lat="48.743155" lon="9.969466">
        <ele>659.064483</ele>
        <time>2024-03-17T10:20:53.999Z</time>
      </trkpt>
      <trkpt lat="48.743231" lon="9.969542">
        <ele>659.169065</ele>
        <time>2024-03-17T10:20:54.999Z</time>
      </trkpt>
      <trkpt lat="48.743308" lon="9.969617">
        <ele>659.274196</ele>
        <time>2024-03-17T10:20:55.999Z</time>
      </trkpt>
      <trkpt lat="48.743457" lon="9.969763">
        <ele>659.477988</ele>
        <time>2024-03-17T10:20:57.999Z</time>
      </trkpt>
      <trkpt lat="48.743601" lon="9.969910">
        <ele>659.677402</ele>
        <time>2024-03-17T10:20:59.999Z</time>
      </trkpt>
      <trkpt lat="48.743748" lon="9.970058">
        <ele>659.880101</ele>
        <time>2024-03-17T10:21:01.999Z</time>
      </trkpt>
      <trkpt lat="48.743898" lon="9.970204">
        <ele>660.105933</ele>
        <time>2024-03-17T10:21:03.999Z</time>
      </trkpt>
      <trkpt lat="48.744043" lon="9.970351">
        <ele>660.330439</ele>
        <time>2024-03-17T10:21:05.999Z</time>
      </trkpt>
      <trkpt lat="48.744192" lon="9.970499">
        <ele>660.559707</ele>
        <time>2024-03-17T10:21:07.999Z</time>
      </trkpt>
      <trkpt lat="48.744339" lon="9.970644">
        <ele>660.785427</ele>
        <time>2024-03-17T10:21:09.999Z</time>
      </trkpt>
      <trkpt lat="48.744485" lon="9.970790">
        <ele>661.010535</ele>
        <time>2024-03-17T10:21:11.999Z</time>
      </trkpt>
      <trkpt lat="48.744633" lon="9.970939">
        <ele>661.239194</ele>
        <time>2024-03-17T10:21:13.999Z</time>
      </trkpt>
      <trkpt lat="48.744779" lon="9.971090">
        <ele>661.466666</ele>
        <time>2024-03-17T10:21:15.999Z</time>
      </trkpt>
      <trkpt lat="48.744926" lon="9.971232">
        <ele>661.691006</ele>
        <time>2024-03-17T10:21:17.999Z</time>
      </trkpt>
      <trkpt lat="48.745072" lon="9.971377">
        <ele>661.915647</ele>
        <time>2024-03-17T10:21:19.999Z</time>
      </trkpt>
      <trkpt lat="48.745214" lon="9.971522">
        <ele>662.135999</ele>
        <time>2024-03-17T10:21:21.999Z</time>
      </trkpt>
      <trkpt lat="48.745360" lon="9.971665">
        <ele>662.072090</ele>
        <time>2024-03-17T10:21:23.999Z</time>
      </trkpt>
      <trkpt lat="48.745507" lon="9.971809">
        <ele>661.816097</ele>
        <time>2024-03-17T10:21:25.999Z</time>
      </trkpt>
      <trkpt lat="48.745650" lon="9.971960">
        <ele>661.561201</ele>
        <time>2024-03-17T10:21:27.999Z</time>
      </trkpt>
      <trkpt lat="48.745789" lon="9.972119">
        <ele>661.306514</ele>
        <time>2024-03-17T10:21:29.999Z</time>
      </trkpt>
      <trkpt lat="48.745928" lon="9.972282">
        <ele>661.049486</ele>
        <time>2024-03-17T10:21:31.999Z</time>
      </trkpt>
      <trkpt lat="48.746068" lon="9.972448">
        <ele>660.789527</ele>
        <time>2024-03-17T10:21:33.999Z</time>
      </trkpt>
      <trkpt lat="48.746211" lon="9.972610">
        <ele>660.528424</ele>
        <time>2024-03-17T10:21:35.999Z</time>
      </trkpt>
      <trkpt lat="48.746357" lon="9.972767">
        <ele>660.266612</ele>
        <time>2024-03-17T10:21:37.999Z</time>
      </trkpt>
      <trkpt lat="48.746432" lon="9.972847">
        <ele>660.132481</ele>
        <time>2024-03-17T10:21:38.999Z</time>
      </trkpt>
      <trkpt lat="48.746507" lon="9.972931">
        <ele>659.996095</ele>
        <time>2024-03-17T10:21:39.999Z</time>
      </trkpt>
      <trkpt lat="48.746581" lon="9.973017">
        <ele>659.859717</ele>
        <time>2024-03-17T10:21:40.999Z</time>
      </trkpt>
      <trkpt lat="48.746656" lon="9.973105">
        <ele>659.721004</ele>
        <time>2024-03-17T10:21:41.999Z</time>
      </trkpt>
      <trkpt lat="48.746733" lon="9.973195">
        <ele>659.564142</ele>
        <time>2024-03-17T10:21:42.999Z</time>
      </trkpt>
      <trkpt lat="48.746808" lon="9.973290">
        <ele>659.283510</ele>
        <time>2024-03-17T10:21:43.999Z</time>
      </trkpt>
      <trkpt lat="48.746885" lon="9.973386">
        <ele>658.997247</ele>
        <time>2024-03-17T10:21:44.999Z</time>
      </trkpt>
      <trkpt lat="48.746964" lon="9.973486">
        <ele>658.701729</ele>
        <time>2024-03-17T10:21:45.999Z</time>
      </trkpt>
      <trkpt lat="48.747044" lon="9.973583">
        <ele>658.407581</ele>
        <time>2024-03-17T10:21:46.999Z</time>
      </trkpt>
      <trkpt lat="48.747125" lon="9.973681">
        <ele>658.110008</ele>
        <time>2024-03-17T10:21:47.999Z</time>
      </trkpt>
      <trkpt lat="48.747209" lon="9.973782">
        <ele>657.802156</ele>
        <time>2024-03-17T10:21:48.999Z</time>
      </trkpt>
      <trkpt lat="48.747289" lon="9.973885">
        <ele>657.500783</ele>
        <time>2024-03-17T10:21:49.999Z</time>
      </trkpt>
      <trkpt lat="48.747370" lon="9.973987">
        <ele>657.198429</ele>
        <time>2024-03-17T10:21:50.999Z</time>
      </trkpt>
      <trkpt lat="48.747452" lon="9.974091">
        <ele>656.891444</ele>
        <time>2024-03-17T10:21:51.999Z</time>
      </trkpt>
      <trkpt lat="48.747533" lon="9.974190">
        <ele>656.592688</ele>
        <time>2024-03-17T10:21:52.999Z</time>
      </trkpt>
      <trkpt lat="48.747611" lon="9.974290">
        <ele>656.299370</ele>
        <time>2024-03-17T10:21:53.999Z</time>
      </trkpt>
      <trkpt lat="48.747689" lon="9.974390">
        <ele>656.006053</ele>
        <time>2024-03-17T10:21:55.000Z</time>
      </trkpt>
      <trkpt lat="48.747769" lon="9.974490">
        <ele>655.708327</ele>
        <time>2024-03-17T10:21:56.000Z</time>
      </trkpt>
      <trkpt lat="48.747846" lon="9.974587">
        <ele>655.420860</ele>
        <time>2024-03-17T10:21:57.000Z</time>
      </trkpt>
      <trkpt lat="48.747923" lon="9.974683">
        <ele>655.134599</ele>
        <time>2024-03-17T10:21:58.000Z</time>
      </trkpt>
      <trkpt lat="48.748001" lon="9.974779">
        <ele>654.846115</ele>
        <time>2024-03-17T10:21:59.000Z</time>
      </trkpt>
      <trkpt lat="48.748077" lon="9.974873">
        <ele>654.564476</ele>
        <time>2024-03-17T10:22:00.000Z</time>
      </trkpt>
      <trkpt lat="48.748153" lon="9.974963">
        <ele>654.364961</ele>
        <time>2024-03-17T10:22:01.000Z</time>
      </trkpt>
      <trkpt lat="48.748231" lon="9.975055">
        <ele>654.236899</ele>
        <time>2024-03-17T10:22:02.000Z</time>
      </trkpt>
      <trkpt lat="48.748308" lon="9.975145">
        <ele>654.110908</ele>
        <time>2024-03-17T10:22:03.000Z</time>
      </trkpt>
      <trkpt lat="48.748389" lon="9.975231">
        <ele>653.982763</ele>
        <time>2024-03-17T10:22:04.000Z</time>
      </trkpt>
      <trkpt lat="48.748475" lon="9.975312">
        <ele>653.851562</ele>
        <time>2024-03-17T10:22:05.000Z</time>
      </trkpt>
      <trkpt lat="48.748559" lon="9.975389">
        <ele>653.724357</ele>
        <time>2024-03-17T10:22:06.000Z</time>
      </trkpt>
      <trkpt lat="48.748645" lon="9.975464">
        <ele>653.595786</ele>
        <time>2024-03-17T10:22:07.000Z</time>
      </trkpt>
      <trkpt lat="48.748733" lon="9.975535">
        <ele>653.466603</ele>
        <time>2024-03-17T10:22:08.000Z</time>
      </trkpt>
      <trkpt lat="48.748823" lon="9.975605">
        <ele>653.335518</ele>
        <time>2024-03-17T10:22:09.000Z</time>
      </trkpt>
      <trkpt lat="48.748912" lon="9.975672">
        <ele>653.206745</ele>
        <time>2024-03-17T10:22:10.000Z</time>
      </trkpt>
      <trkpt lat="48.749004" lon="9.975734">
        <ele>653.076271</ele>
        <time>2024-03-17T10:22:11.000Z</time>
      </trkpt>
      <trkpt lat="48.749098" lon="9.975791">
        <ele>652.945069</ele>
        <time>2024-03-17T10:22:12.000Z</time>
      </trkpt>
      <trkpt lat="48.749194" lon="9.975847">
        <ele>652.811766</ele>
        <time>2024-03-17T10:22:13.000Z</time>
      </trkpt>
      <trkpt lat="48.749289" lon="9.975896">
        <ele>652.681720</ele>
        <time>2024-03-17T10:22:14.000Z</time>
      </trkpt>
      <trkpt lat="48.749385" lon="9.975942">
        <ele>652.551241</ele>
        <time>2024-03-17T10:22:15.000Z</time>
      </trkpt>
      <trkpt lat="48.749481" lon="9.975986">
        <ele>652.421267</ele>
        <time>2024-03-17T10:22:16.000Z</time>
      </trkpt>
      <trkpt lat="48.749579" lon="9.976026">
        <ele>652.289738</ele>
        <time>2024-03-17T10:22:17.000Z</time>
      </trkpt>
      <trkpt lat="48.749677" lon="9.976059">
        <ele>652.159636</ele>
        <time>2024-03-17T10:22:18.000Z</time>
      </trkpt>
      <trkpt lat="48.749772" lon="9.976086">
        <ele>651.962599</ele>
        <time>2024-03-17T10:22:19.000Z</time>
      </trkpt>
      <trkpt lat="48.749867" lon="9.976109">
        <ele>651.696288</ele>
        <time>2024-03-17T10:22:20.000Z</time>
      </trkpt>
      <trkpt lat="48.749965" lon="9.976130">
        <ele>651.422306</ele>
        <time>2024-03-17T10:22:21.000Z</time>
      </trkpt>
      <trkpt lat="48.750062" lon="9.976148">
        <ele>651.151785</ele>
        <time>2024-03-17T10:22:22.000Z</time>
      </trkpt>
      <trkpt lat="48.750160" lon="9.976161">
        <ele>650.879463</ele>
        <time>2024-03-17T10:22:23.000Z</time>
      </trkpt>
      <trkpt lat="48.750259" lon="9.976170">
        <ele>650.604916</ele>
        <time>2024-03-17T10:22:24.000Z</time>
      </trkpt>
      <trkpt lat="48.750356" lon="9.976180">
        <ele>650.335778</ele>
        <time>2024-03-17T10:22:25.000Z</time>
      </trkpt>
      <trkpt lat="48.750454" lon="9.976187">
        <ele>650.064190</ele>
        <time>2024-03-17T10:22:26.000Z</time>
      </trkpt>
      <trkpt lat="48.750552" lon="9.976189">
        <ele>649.792879</ele>
        <time>2024-03-17T10:22:27.000Z</time>
      </trkpt>
      <trkpt lat="48.750648" lon="9.976191">
        <ele>649.527103</ele>
        <time>2024-03-17T10:22:28.000Z</time>
      </trkpt>
      <trkpt lat="48.750746" lon="9.976194">
        <ele>649.255761</ele>
        <time>2024-03-17T10:22:29.000Z</time>
      </trkpt>
      <trkpt lat="48.750845" lon="9.976198">
        <ele>648.981609</ele>
        <time>2024-03-17T10:22:30.000Z</time>
      </trkpt>
      <trkpt lat="48.750944" lon="9.976201">
        <ele>648.707499</ele>
        <time>2024-03-17T10:22:31.000Z</time>
      </trkpt>
      <trkpt lat="48.751043" lon="9.976205">
        <ele>648.433347</ele>
        <time>2024-03-17T10:22:32.000Z</time>
      </trkpt>
      <trkpt lat="48.751145" lon="9.976208">
        <ele>648.150934</ele>
        <time>2024-03-17T10:22:33.000Z</time>
      </trkpt>
      <trkpt lat="48.751246" lon="9.976215">
        <ele>647.871051</ele>
        <time>2024-03-17T10:22:34.000Z</time>
      </trkpt>
      <trkpt lat="48.751349" lon="9.976224">
        <ele>647.585450</ele>
        <time>2024-03-17T10:22:35.000Z</time>
      </trkpt>
      <trkpt lat="48.751451" lon="9.976234">
        <ele>647.302501</ele>
        <time>2024-03-17T10:22:36.000Z</time>
      </trkpt>
      <trkpt lat="48.751555" lon="9.976251">
        <ele>647.061572</ele>
        <time>2024-03-17T10:22:37.000Z</time>
      </trkpt>
      <trkpt lat="48.751647" lon="9.976271">
        <ele>646.922836</ele>
        <time>2024-03-17T10:22:38.000Z</time>
      </trkpt>
      <trkpt lat="48.751805" lon="9.976317">
        <ele>646.682676</ele>
        <time>2024-03-17T10:22:40.000Z</time>
      </trkpt>
      <trkpt lat="48.751923" lon="9.976388">
        <ele>646.493177</ele>
        <time>2024-03-17T10:22:42.000Z</time>
      </trkpt>
      <trkpt lat="48.751906" lon="9.976588">
        <ele>646.294708</ele>
        <time>2024-03-17T10:22:43.000Z</time>
      </trkpt>
      <trkpt lat="48.751883" lon="9.976817">
        <ele>646.066726</ele>
        <time>2024-03-17T10:22:45.000Z</time>
      </trkpt>
      <trkpt lat="48.751863" lon="9.977063">
        <ele>645.822778</ele>
        <time>2024-03-17T10:22:47.000Z</time>
      </trkpt>
      <trkpt lat="48.751848" lon="9.977334">
        <ele>645.555122</ele>
        <time>2024-03-17T10:22:49.000Z</time>
      </trkpt>
      <trkpt lat="48.751834" lon="9.977599">
        <ele>645.293472</ele>
        <time>2024-03-17T10:22:50.999Z</time>
      </trkpt>
      <trkpt lat="48.751828" lon="9.977739">
        <ele>645.155393</ele>
        <time>2024-03-17T10:22:51.999Z</time>
      </trkpt>
      <trkpt lat="48.751824" lon="9.977880">
        <ele>645.016492</ele>
        <time>2024-03-17T10:22:52.999Z</time>
      </trkpt>
      <trkpt lat="48.751808" lon="9.978022">
        <ele>644.874709</ele>
        <time>2024-03-17T10:22:53.999Z</time>
      </trkpt>
      <trkpt lat="48.751798" lon="9.978167">
        <ele>644.731221</ele>
        <time>2024-03-17T10:22:54.999Z</time>
      </trkpt>
      <trkpt lat="48.751789" lon="9.978310">
        <ele>644.589841</ele>
        <time>2024-03-17T10:22:55.999Z</time>
      </trkpt>
      <trkpt lat="48.751778" lon="9.978450">
        <ele>644.451077</ele>
        <time>2024-03-17T10:22:56.999Z</time>
      </trkpt>
      <trkpt lat="48.751767" lon="9.978591">
        <ele>644.365211</ele>
        <time>2024-03-17T10:22:57.999Z</time>
      </trkpt>
      <trkpt lat="48.751756" lon="9.978734">
        <ele>644.285969</ele>
        <time>2024-03-17T10:22:58.999Z</time>
      </trkpt>
      <trkpt lat="48.751747" lon="9.978876">
        <ele>644.207451</ele>
        <time>2024-03-17T10:22:59.999Z</time>
      </trkpt>
      <trkpt lat="48.751737" lon="9.979019">
        <ele>644.128301</ele>
        <time>2024-03-17T10:23:00.999Z</time>
      </trkpt>
      <trkpt lat="48.751728" lon="9.979162">
        <ele>644.049234</ele>
        <time>2024-03-17T10:23:01.999Z</time>
      </trkpt>
      <trkpt lat="48.751721" lon="9.979310">
        <ele>643.967565</ele>
        <time>2024-03-17T10:23:02.999Z</time>
      </trkpt>
      <trkpt lat="48.751717" lon="9.979455">
        <ele>643.887685</ele>
        <time>2024-03-17T10:23:03.999Z</time>
      </trkpt>
      <trkpt lat="48.751709" lon="9.979600">
        <ele>643.807597</ele>
        <time>2024-03-17T10:23:04.999Z</time>
      </trkpt>
      <trkpt lat="48.751699" lon="9.979743">
        <ele>643.728447</ele>
        <time>2024-03-17T10:23:05.999Z</time>
      </trkpt>
      <trkpt lat="48.751689" lon="9.979884">
        <ele>643.650392</ele>
        <time>2024-03-17T10:23:06.999Z</time>
      </trkpt>
      <trkpt lat="48.751679" lon="9.980022">
        <ele>643.573978</ele>
        <time>2024-03-17T10:23:07.999Z</time>
      </trkpt>
      <trkpt lat="48.751669" lon="9.980162">
        <ele>643.496470</ele>
        <time>2024-03-17T10:23:08.999Z</time>
      </trkpt>
      <trkpt lat="48.751660" lon="9.980301">
        <ele>643.419595</ele>
        <time>2024-03-17T10:23:09.999Z</time>
      </trkpt>
      <trkpt lat="48.751654" lon="9.980442">
        <ele>643.341826</ele>
        <time>2024-03-17T10:23:10.999Z</time>
      </trkpt>
      <trkpt lat="48.751635" lon="9.980583">
        <ele>643.262614</ele>
        <time>2024-03-17T10:23:11.999Z</time>
      </trkpt>
      <trkpt lat="48.751623" lon="9.980728">
        <ele>643.182178</ele>
        <time>2024-03-17T10:23:12.999Z</time>
      </trkpt>
      <trkpt lat="48.751610" lon="9.980871">
        <ele>643.102725</ele>
        <time>2024-03-17T10:23:13.999Z</time>
      </trkpt>
      <trkpt lat="48.751594" lon="9.981007">
        <ele>643.026686</ele>
        <time>2024-03-17T10:23:14.999Z</time>
      </trkpt>
      <trkpt lat="48.751581" lon="9.981149">
        <ele>642.947778</ele>
        <time>2024-03-17T10:23:15.999Z</time>
      </trkpt>
      <trkpt lat="48.751570" lon="9.981290">
        <ele>642.856443</ele>
        <time>2024-03-17T10:23:16.999Z</time>
      </trkpt>
      <trkpt lat="48.751568" lon="9.981437">
        <ele>642.758419</ele>
        <time>2024-03-17T10:23:17.999Z</time>
      </trkpt>
      <trkpt lat="48.751562" lon="9.981577">
        <ele>642.664886</ele>
        <time>2024-03-17T10:23:18.999Z</time>
      </trkpt>
      <trkpt lat="48.751560" lon="9.981719">
        <ele>642.570195</ele>
        <time>2024-03-17T10:23:19.999Z</time>
      </trkpt>
      <trkpt lat="48.751556" lon="9.981862">
        <ele>642.474773</ele>
        <time>2024-03-17T10:23:20.999Z</time>
      </trkpt>
      <trkpt lat="48.751549" lon="9.982005">
        <ele>642.379174</ele>
        <time>2024-03-17T10:23:21.999Z</time>
      </trkpt>
      <trkpt lat="48.751542" lon="9.982147">
        <ele>642.284240</ele>
        <time>2024-03-17T10:23:22.999Z</time>
      </trkpt>
      <trkpt lat="48.751521" lon="9.982286">
        <ele>642.189168</ele>
        <time>2024-03-17T10:23:23.999Z</time>
      </trkpt>
      <trkpt lat="48.751510" lon="9.982424">
        <ele>642.096495</ele>
        <time>2024-03-17T10:23:24.999Z</time>
      </trkpt>
      <trkpt lat="48.751500" lon="9.982562">
        <ele>642.003938</ele>
        <time>2024-03-17T10:23:25.999Z</time>
      </trkpt>
      <trkpt lat="48.751491" lon="9.982699">
        <ele>641.912150</ele>
        <time>2024-03-17T10:23:26.999Z</time>
      </trkpt>
      <trkpt lat="48.751483" lon="9.982839">
        <ele>641.818463</ele>
        <time>2024-03-17T10:23:27.999Z</time>
      </trkpt>
      <trkpt lat="48.751476" lon="9.982981">
        <ele>641.723529</ele>
        <time>2024-03-17T10:23:28.999Z</time>
      </trkpt>
      <trkpt lat="48.751468" lon="9.983120">
        <ele>641.630507</ele>
        <time>2024-03-17T10:23:29.999Z</time>
      </trkpt>
      <trkpt lat="48.751460" lon="9.983262">
        <ele>641.535492</ele>
        <time>2024-03-17T10:23:30.999Z</time>
      </trkpt>
      <trkpt lat="48.751452" lon="9.983405">
        <ele>641.439813</ele>
        <time>2024-03-17T10:23:31.999Z</time>
      </trkpt>
      <trkpt lat="48.751441" lon="9.983546">
        <ele>641.345154</ele>
        <time>2024-03-17T10:23:32.999Z</time>
      </trkpt>
      <trkpt lat="48.751430" lon="9.983689">
        <ele>641.249171</ele>
        <time>2024-03-17T10:23:33.999Z</time>
      </trkpt>
      <trkpt lat="48.751424" lon="9.983833">
        <ele>641.152976</ele>
        <time>2024-03-17T10:23:34.999Z</time>
      </trkpt>
      <trkpt lat="48.751413" lon="9.983976">
        <ele>641.070219</ele>
        <time>2024-03-17T10:23:35.999Z</time>
      </trkpt>
      <trkpt lat="48.751403" lon="9.984118">
        <ele>640.997368</ele>
        <time>2024-03-17T10:23:36.999Z</time>
      </trkpt>
      <trkpt lat="48.751393" lon="9.984257">
        <ele>640.926038</ele>
        <time>2024-03-17T10:23:37.999Z</time>
      </trkpt>
      <trkpt lat="48.751384" lon="9.984399">
        <ele>640.853265</ele>
        <time>2024-03-17T10:23:38.999Z</time>
      </trkpt>
      <trkpt lat="48.751378" lon="9.984538">
        <ele>640.782204</ele>
        <time>2024-03-17T10:23:39.999Z</time>
      </trkpt>
      <trkpt lat="48.751364" lon="9.984809">
        <ele>640.643534</ele>
        <time>2024-03-17T10:23:41.999Z</time>
      </trkpt>
      <trkpt lat="48.751354" lon="9.985083">
        <ele>640.503542</ele>
        <time>2024-03-17T10:23:43.999Z</time>
      </trkpt>
      <trkpt lat="48.751352" lon="9.985219">
        <ele>640.434147</ele>
        <time>2024-03-17T10:23:44.999Z</time>
      </trkpt>
      <trkpt lat="48.751361" lon="9.985360">
        <ele>640.361881</ele>
        <time>2024-03-17T10:23:45.999Z</time>
      </trkpt>
      <trkpt lat="48.751402" lon="9.985639">
        <ele>640.216061</ele>
        <time>2024-03-17T10:23:47.999Z</time>
      </trkpt>
      <trkpt lat="48.751436" lon="9.985778">
        <ele>640.140430</ele>
        <time>2024-03-17T10:23:48.999Z</time>
      </trkpt>
      <trkpt lat="48.751475" lon="9.985914">
        <ele>640.064773</ele>
        <time>2024-03-17T10:23:49.999Z</time>
      </trkpt>
      <trkpt lat="48.751520" lon="9.986041">
        <ele>639.991223</ele>
        <time>2024-03-17T10:23:50.999Z</time>
      </trkpt>
      <trkpt lat="48.751568" lon="9.986168">
        <ele>639.916546</ele>
        <time>2024-03-17T10:23:51.999Z</time>
      </trkpt>
      <trkpt lat="48.751618" lon="9.986286">
        <ele>639.844991</ele>
        <time>2024-03-17T10:23:52.999Z</time>
      </trkpt>
      <trkpt lat="48.751675" lon="9.986408">
        <ele>639.768713</ele>
        <time>2024-03-17T10:23:53.999Z</time>
      </trkpt>
      <trkpt lat="48.751717" lon="9.986542">
        <ele>639.713467</ele>
        <time>2024-03-17T10:23:54.999Z</time>
      </trkpt>
      <trkpt lat="48.751785" lon="9.986650">
        <ele>639.691653</ele>
        <time>2024-03-17T10:23:55.999Z</time>
      </trkpt>
      <trkpt lat="48.751839" lon="9.986774">
        <ele>639.669946</ele>
        <time>2024-03-17T10:23:56.999Z</time>
      </trkpt>
      <trkpt lat="48.751893" lon="9.986903">
        <ele>639.647625</ele>
        <time>2024-03-17T10:23:57.999Z</time>
      </trkpt>
      <trkpt lat="48.751950" lon="9.987025">
        <ele>639.625784</ele>
        <time>2024-03-17T10:23:58.999Z</time>
      </trkpt>
      <trkpt lat="48.752003" lon="9.987150">
        <ele>639.604075</ele>
        <time>2024-03-17T10:23:59.999Z</time>
      </trkpt>
      <trkpt lat="48.752053" lon="9.987279">
        <ele>639.582217</ele>
        <time>2024-03-17T10:24:01.000Z</time>
      </trkpt>
      <trkpt lat="48.752103" lon="9.987404">
        <ele>639.560860</ele>
        <time>2024-03-17T10:24:02.000Z</time>
      </trkpt>
      <trkpt lat="48.752153" lon="9.987528">
        <ele>639.539629</ele>
        <time>2024-03-17T10:24:03.000Z</time>
      </trkpt>
      <trkpt lat="48.752206" lon="9.987657">
        <ele>639.517427</ele>
        <time>2024-03-17T10:24:04.000Z</time>
      </trkpt>
      <trkpt lat="48.752259" lon="9.987779">
        <ele>639.496085</ele>
        <time>2024-03-17T10:24:05.000Z</time>
      </trkpt>
      <trkpt lat="48.752313" lon="9.987903">
        <ele>639.474378</ele>
        <time>2024-03-17T10:24:06.000Z</time>
      </trkpt>
      <trkpt lat="48.752359" lon="9.988039">
        <ele>639.452051</ele>
        <time>2024-03-17T10:24:07.000Z</time>
      </trkpt>
      <trkpt lat="48.752400" lon="9.988168">
        <ele>639.431133</ele>
        <time>2024-03-17T10:24:08.000Z</time>
      </trkpt>
      <trkpt lat="48.752445" lon="9.988298">
        <ele>639.409686</ele>
        <time>2024-03-17T10:24:09.000Z</time>
      </trkpt>
      <trkpt lat="48.752491" lon="9.988426">
        <ele>639.388391</ele>
        <time>2024-03-17T10:24:10.000Z</time>
      </trkpt>
      <trkpt lat="48.752538" lon="9.988555">
        <ele>639.366863</ele>
        <time>2024-03-17T10:24:11.000Z</time>
      </trkpt>
      <trkpt lat="48.752582" lon="9.988688">
        <ele>639.345127</ele>
        <time>2024-03-17T10:24:12.000Z</time>
      </trkpt>
      <trkpt lat="48.752627" lon="9.988815">
        <ele>639.324067</ele>
        <time>2024-03-17T10:24:13.000Z</time>
      </trkpt>
      <trkpt lat="48.752683" lon="9.988957">
        <ele>639.225132</ele>
        <time>2024-03-17T10:24:14.000Z</time>
      </trkpt>
      <trkpt lat="48.752756" lon="9.989213">
        <ele>639.053568</ele>
        <time>2024-03-17T10:24:16.000Z</time>
      </trkpt>
      <trkpt lat="48.752794" lon="9.989345">
        <ele>638.964972</ele>
        <time>2024-03-17T10:24:17.000Z</time>
      </trkpt>
      <trkpt lat="48.752834" lon="9.989476">
        <ele>638.876171</ele>
        <time>2024-03-17T10:24:18.000Z</time>
      </trkpt>
      <trkpt lat="48.752873" lon="9.989607">
        <ele>638.787758</ele>
        <time>2024-03-17T10:24:19.000Z</time>
      </trkpt>
      <trkpt lat="48.752911" lon="9.989737">
        <ele>638.700288</ele>
        <time>2024-03-17T10:24:20.000Z</time>
      </trkpt>
      <trkpt lat="48.752950" lon="9.989869">
        <ele>638.611315</ele>
        <time>2024-03-17T10:24:21.000Z</time>
      </trkpt>
      <trkpt lat="48.752987" lon="9.990002">
        <ele>638.522522</ele>
        <time>2024-03-17T10:24:22.000Z</time>
      </trkpt>
      <trkpt lat="48.753020" lon="9.990135">
        <ele>638.435112</ele>
        <time>2024-03-17T10:24:23.000Z</time>
      </trkpt>
      <trkpt lat="48.753054" lon="9.990271">
        <ele>638.345646</ele>
        <time>2024-03-17T10:24:24.000Z</time>
      </trkpt>
      <trkpt lat="48.753085" lon="9.990407">
        <ele>638.257134</ele>
        <time>2024-03-17T10:24:25.000Z</time>
      </trkpt>
      <trkpt lat="48.753118" lon="9.990546">
        <ele>638.166261</ele>
        <time>2024-03-17T10:24:26.000Z</time>
      </trkpt>
      <trkpt lat="48.753150" lon="9.990681">
        <ele>638.078018</ele>
        <time>2024-03-17T10:24:27.000Z</time>
      </trkpt>
      <trkpt lat="48.753181" lon="9.990820">
        <ele>637.987760</ele>
        <time>2024-03-17T10:24:28.000Z</time>
      </trkpt>
      <trkpt lat="48.753205" lon="9.990957">
        <ele>637.900568</ele>
        <time>2024-03-17T10:24:29.000Z</time>
      </trkpt>
      <trkpt lat="48.753230" lon="9.991092">
        <ele>637.814316</ele>
        <time>2024-03-17T10:24:30.000Z</time>
      </trkpt>
      <trkpt lat="48.753256" lon="9.991227">
        <ele>637.727807</ele>
        <time>2024-03-17T10:24:31.000Z</time>
      </trkpt>
      <trkpt lat="48.753282" lon="9.991368">
        <ele>637.647689</ele>
        <time>2024-03-17T10:24:32.000Z</time>
      </trkpt>
      <trkpt lat="48.753303" lon="9.991508">
        <ele>637.678277</ele>
        <time>2024-03-17T10:24:33.000Z</time>
      </trkpt>
      <trkpt lat="48.753300" lon="9.991654">
        <ele>637.709396</ele>
        <time>2024-03-17T10:24:34.000Z</time>
      </trkpt>
      <trkpt lat="48.753319" lon="9.991793">
        <ele>637.739638</ele>
        <time>2024-03-17T10:24:35.000Z</time>
      </trkpt>
      <trkpt lat="48.753363" lon="9.991921">
        <ele>637.770391</ele>
        <time>2024-03-17T10:24:36.000Z</time>
      </trkpt>
      <trkpt lat="48.753383" lon="9.992062">
        <ele>637.801117</ele>
        <time>2024-03-17T10:24:37.000Z</time>
      </trkpt>
      <trkpt lat="48.753397" lon="9.992203">
        <ele>637.831495</ele>
        <time>2024-03-17T10:24:38.000Z</time>
      </trkpt>
      <trkpt lat="48.753410" lon="9.992340">
        <ele>637.860982</ele>
        <time>2024-03-17T10:24:39.000Z</time>
      </trkpt>
      <trkpt lat="48.753424" lon="9.992479">
        <ele>637.890938</ele>
        <time>2024-03-17T10:24:40.000Z</time>
      </trkpt>
      <trkpt lat="48.753440" lon="9.992616">
        <ele>637.920579</ele>
        <time>2024-03-17T10:24:41.000Z</time>
      </trkpt>
      <trkpt lat="48.753455" lon="9.992756">
        <ele>637.950796</ele>
        <time>2024-03-17T10:24:42.000Z</time>
      </trkpt>
      <trkpt lat="48.753468" lon="9.992894">
        <ele>637.980494</ele>
        <time>2024-03-17T10:24:43.000Z</time>
      </trkpt>
      <trkpt lat="48.753476" lon="9.993031">
        <ele>638.009795</ele>
        <time>2024-03-17T10:24:44.000Z</time>
      </trkpt>
      <trkpt lat="48.753471" lon="9.993298">
        <ele>638.066699</ele>
        <time>2024-03-17T10:24:46.000Z</time>
      </trkpt>
      <trkpt lat="48.753433" lon="9.993553">
        <ele>638.122395</ele>
        <time>2024-03-17T10:24:47.999Z</time>
      </trkpt>
      <trkpt lat="48.753372" lon="9.993776">
        <ele>638.173829</ele>
        <time>2024-03-17T10:24:49.999Z</time>
      </trkpt>
      <trkpt lat="48.753280" lon="9.993972">
        <ele>638.225087</ele>
        <time>2024-03-17T10:24:51.999Z</time>
      </trkpt>
      <trkpt lat="48.753184" lon="9.994123">
        <ele>638.443834</ele>
        <time>2024-03-17T10:24:53.999Z</time>
      </trkpt>
      <trkpt lat="48.753079" lon="9.994237">
        <ele>638.652717</ele>
        <time>2024-03-17T10:24:55.999Z</time>
      </trkpt>
      <trkpt lat="48.752978" lon="9.994375">
        <ele>638.872615</ele>
        <time>2024-03-17T10:24:57.999Z</time>
      </trkpt>
      <trkpt lat="48.752857" lon="9.994487">
        <ele>639.101919</ele>
        <time>2024-03-17T10:24:59.999Z</time>
      </trkpt>
      <trkpt lat="48.752751" lon="9.994609">
        <ele>639.317167</ele>
        <time>2024-03-17T10:25:01.999Z</time>
      </trkpt>
      <trkpt lat="48.752665" lon="9.994754">
        <ele>639.525179</ele>
        <time>2024-03-17T10:25:03.999Z</time>
      </trkpt>
      <trkpt lat="48.752565" lon="9.994875">
        <ele>639.732112</ele>
        <time>2024-03-17T10:25:05.999Z</time>
      </trkpt>
      <trkpt lat="48.752463" lon="9.995001">
        <ele>639.944911</ele>
        <time>2024-03-17T10:25:07.999Z</time>
      </trkpt>
      <trkpt lat="48.752361" lon="9.995135">
        <ele>640.163198</ele>
        <time>2024-03-17T10:25:09.999Z</time>
      </trkpt>
      <trkpt lat="48.752252" lon="9.995265">
        <ele>640.387504</ele>
        <time>2024-03-17T10:25:11.999Z</time>
      </trkpt>
      <trkpt lat="48.752139" lon="9.995397">
        <ele>640.618227</ele>
        <time>2024-03-17T10:25:13.999Z</time>
      </trkpt>
      <trkpt lat="48.752042" lon="9.995509">
        <ele>640.815432</ele>
        <time>2024-03-17T10:25:15.999Z</time>
      </trkpt>
      <trkpt lat="48.751936" lon="9.995634">
        <ele>641.032631</ele>
        <time>2024-03-17T10:25:17.999Z</time>
      </trkpt>
      <trkpt lat="48.751834" lon="9.995763">
        <ele>641.282028</ele>
        <time>2024-03-17T10:25:19.999Z</time>
      </trkpt>
      <trkpt lat="48.751727" lon="9.995894">
        <ele>641.573368</ele>
        <time>2024-03-17T10:25:21.999Z</time>
      </trkpt>
      <trkpt lat="48.751625" lon="9.996017">
        <ele>641.849453</ele>
        <time>2024-03-17T10:25:23.999Z</time>
      </trkpt>
      <trkpt lat="48.751520" lon="9.996147">
        <ele>642.136623</ele>
        <time>2024-03-17T10:25:25.999Z</time>
      </trkpt>
      <trkpt lat="48.751416" lon="9.996272">
        <ele>642.417765</ele>
        <time>2024-03-17T10:25:27.999Z</time>
      </trkpt>
      <trkpt lat="48.751309" lon="9.996396">
        <ele>642.703065</ele>
        <time>2024-03-17T10:25:29.999Z</time>
      </trkpt>
      <trkpt lat="48.751204" lon="9.996522">
        <ele>642.986735</ele>
        <time>2024-03-17T10:25:31.999Z</time>
      </trkpt>
      <trkpt lat="48.751102" lon="9.996649">
        <ele>643.266333</ele>
        <time>2024-03-17T10:25:33.999Z</time>
      </trkpt>
      <trkpt lat="48.750999" lon="9.996779">
        <ele>643.550235</ele>
        <time>2024-03-17T10:25:35.999Z</time>
      </trkpt>
      <trkpt lat="48.750893" lon="9.996906">
        <ele>643.836434</ele>
        <time>2024-03-17T10:25:37.999Z</time>
      </trkpt>
      <trkpt lat="48.750787" lon="9.997031">
        <ele>644.120910</ele>
        <time>2024-03-17T10:25:39.999Z</time>
      </trkpt>
      <trkpt lat="48.750677" lon="9.997162">
        <ele>644.417225</ele>
        <time>2024-03-17T10:25:41.999Z</time>
      </trkpt>
      <trkpt lat="48.750576" lon="9.997295">
        <ele>644.700613</ele>
        <time>2024-03-17T10:25:43.999Z</time>
      </trkpt>
      <trkpt lat="48.750472" lon="9.997431">
        <ele>644.958302</ele>
        <time>2024-03-17T10:25:45.999Z</time>
      </trkpt>
      <trkpt lat="48.750363" lon="9.997556">
        <ele>645.033534</ele>
        <time>2024-03-17T10:25:47.999Z</time>
      </trkpt>
      <trkpt lat="48.750251" lon="9.997674">
        <ele>645.108611</ele>
        <time>2024-03-17T10:25:49.999Z</time>
      </trkpt>
      <trkpt lat="48.750134" lon="9.997789">
        <ele>645.185367</ele>
        <time>2024-03-17T10:25:51.999Z</time>
      </trkpt>
      <trkpt lat="48.750007" lon="9.997886">
        <ele>645.263650</ele>
        <time>2024-03-17T10:25:53.999Z</time>
      </trkpt>
      <trkpt lat="48.749872" lon="9.997966">
        <ele>645.343444</ele>
        <time>2024-03-17T10:25:55.999Z</time>
      </trkpt>
      <trkpt lat="48.749728" lon="9.998031">
        <ele>645.426158</ele>
        <time>2024-03-17T10:25:57.999Z</time>
      </trkpt>
      <trkpt lat="48.749580" lon="9.998080">
        <ele>645.509555</ele>
        <time>2024-03-17T10:25:59.999Z</time>
      </trkpt>
      <trkpt lat="48.749433" lon="9.998137">
        <ele>645.593087</ele>
        <time>2024-03-17T10:26:01.999Z</time>
      </trkpt>
      <trkpt lat="48.749283" lon="9.998193">
        <ele>645.678132</ele>
        <time>2024-03-17T10:26:03.999Z</time>
      </trkpt>
      <trkpt lat="48.749129" lon="9.998251">
        <ele>645.765490</ele>
        <time>2024-03-17T10:26:05.999Z</time>
      </trkpt>
      <trkpt lat="48.748972" lon="9.998312">
        <ele>645.854715</ele>
        <time>2024-03-17T10:26:08.000Z</time>
      </trkpt>
      <trkpt lat="48.748815" lon="9.998376">
        <ele>645.926545</ele>
        <time>2024-03-17T10:26:10.000Z</time>
      </trkpt>
      <trkpt lat="48.748653" lon="9.998438">
        <ele>645.798038</ele>
        <time>2024-03-17T10:26:12.000Z</time>
      </trkpt>
      <trkpt lat="48.748492" lon="9.998508">
        <ele>645.669219</ele>
        <time>2024-03-17T10:26:14.000Z</time>
      </trkpt>
      <trkpt lat="48.748329" lon="9.998582">
        <ele>645.538353</ele>
        <time>2024-03-17T10:26:16.000Z</time>
      </trkpt>
      <trkpt lat="48.748167" lon="9.998654">
        <ele>645.408512</ele>
        <time>2024-03-17T10:26:18.000Z</time>
      </trkpt>
      <trkpt lat="48.748003" lon="9.998727">
        <ele>645.277052</ele>
        <time>2024-03-17T10:26:20.000Z</time>
      </trkpt>
      <trkpt lat="48.747845" lon="9.998799">
        <ele>645.150161</ele>
        <time>2024-03-17T10:26:22.000Z</time>
      </trkpt>
      <trkpt lat="48.747695" lon="9.998869">
        <ele>645.029452</ele>
        <time>2024-03-17T10:26:24.000Z</time>
      </trkpt>
      <trkpt lat="48.747540" lon="9.998945">
        <ele>644.904159</ele>
        <time>2024-03-17T10:26:26.000Z</time>
      </trkpt>
      <trkpt lat="48.747380" lon="9.999018">
        <ele>644.775648</ele>
        <time>2024-03-17T10:26:28.000Z</time>
      </trkpt>
      <trkpt lat="48.747221" lon="9.999095">
        <ele>644.647272</ele>
        <time>2024-03-17T10:26:30.000Z</time>
      </trkpt>
      <trkpt lat="48.747060" lon="9.999172">
        <ele>644.527975</ele>
        <time>2024-03-17T10:26:32.000Z</time>
      </trkpt>
      <trkpt lat="48.746901" lon="9.999245">
        <ele>644.437624</ele>
        <time>2024-03-17T10:26:34.000Z</time>
      </trkpt>
      <trkpt lat="48.746740" lon="9.999316">
        <ele>644.346434</ele>
        <time>2024-03-17T10:26:36.000Z</time>
      </trkpt>
      <trkpt lat="48.746576" lon="9.999389">
        <ele>644.253477</ele>
        <time>2024-03-17T10:26:38.000Z</time>
      </trkpt>
      <trkpt lat="48.746416" lon="9.999459">
        <ele>644.162909</ele>
        <time>2024-03-17T10:26:40.000Z</time>
      </trkpt>
      <trkpt lat="48.746252" lon="9.999531">
        <ele>644.070052</ele>
        <time>2024-03-17T10:26:42.000Z</time>
      </trkpt>
      <trkpt lat="48.746089" lon="9.999603">
        <ele>643.977718</ele>
        <time>2024-03-17T10:26:44.000Z</time>
      </trkpt>
      <trkpt lat="48.745931" lon="9.999681">
        <ele>643.887348</ele>
        <time>2024-03-17T10:26:46.000Z</time>
      </trkpt>
      <trkpt lat="48.745773" lon="9.999775">
        <ele>643.795041</ele>
        <time>2024-03-17T10:26:48.000Z</time>
      </trkpt>
      <trkpt lat="48.745619" lon="9.999887">
        <ele>643.702152</ele>
        <time>2024-03-17T10:26:50.000Z</time>
      </trkpt>
      <trkpt lat="48.745467" lon="10.000007">
        <ele>643.608953</ele>
        <time>2024-03-17T10:26:52.000Z</time>
      </trkpt>
      <trkpt lat="48.745317" lon="10.000132">
        <ele>643.475532</ele>
        <time>2024-03-17T10:26:54.000Z</time>
      </trkpt>
      <trkpt lat="48.745163" lon="10.000262">
        <ele>643.314522</ele>
        <time>2024-03-17T10:26:56.000Z</time>
      </trkpt>
      <trkpt lat="48.745084" lon="10.000330">
        <ele>643.231538</ele>
        <time>2024-03-17T10:26:57.000Z</time>
      </trkpt>
      <trkpt lat="48.744935" lon="10.000463">
        <ele>643.073594</ele>
        <time>2024-03-17T10:26:58.999Z</time>
      </trkpt>
      <trkpt lat="48.744785" lon="10.000599">
        <ele>642.913941</ele>
        <time>2024-03-17T10:27:00.999Z</time>
      </trkpt>
      <trkpt lat="48.744635" lon="10.000731">
        <ele>642.755512</ele>
        <time>2024-03-17T10:27:02.999Z</time>
      </trkpt>
      <trkpt lat="48.744484" lon="10.000860">
        <ele>642.597186</ele>
        <time>2024-03-17T10:27:04.999Z</time>
      </trkpt>
      <trkpt lat="48.744332" lon="10.000992">
        <ele>642.437174</ele>
        <time>2024-03-17T10:27:06.999Z</time>
      </trkpt>
      <trkpt lat="48.744184" lon="10.001121">
        <ele>642.281230</ele>
        <time>2024-03-17T10:27:08.999Z</time>
      </trkpt>
      <trkpt lat="48.744034" lon="10.001248">
        <ele>642.124290</ele>
        <time>2024-03-17T10:27:10.999Z</time>
      </trkpt>
      <trkpt lat="48.743890" lon="10.001377">
        <ele>641.971504</ele>
        <time>2024-03-17T10:27:12.999Z</time>
      </trkpt>
      <trkpt lat="48.743743" lon="10.001477">
        <ele>641.828504</ele>
        <time>2024-03-17T10:27:14.999Z</time>
      </trkpt>
      <trkpt lat="48.743600" lon="10.001602">
        <ele>641.683572</ele>
        <time>2024-03-17T10:27:16.999Z</time>
      </trkpt>
      <trkpt lat="48.743463" lon="10.001746">
        <ele>641.537204</ele>
        <time>2024-03-17T10:27:18.999Z</time>
      </trkpt>
      <trkpt lat="48.743317" lon="10.001870">
        <ele>641.390267</ele>
        <time>2024-03-17T10:27:20.999Z</time>
      </trkpt>
      <trkpt lat="48.743172" lon="10.001992">
        <ele>641.244661</ele>
        <time>2024-03-17T10:27:22.999Z</time>
      </trkpt>
      <trkpt lat="48.743026" lon="10.002121">
        <ele>641.096287</ele>
        <time>2024-03-17T10:27:24.999Z</time>
      </trkpt>
      <trkpt lat="48.742880" lon="10.002254">
        <ele>640.946735</ele>
        <time>2024-03-17T10:27:26.999Z</time>
      </trkpt>
      <trkpt lat="48.742736" lon="10.002397">
        <ele>640.795591</ele>
        <time>2024-03-17T10:27:28.999Z</time>
      </trkpt>
      <trkpt lat="48.742592" lon="10.002551">
        <ele>640.640867</ele>
        <time>2024-03-17T10:27:30.999Z</time>
      </trkpt>
      <trkpt lat="48.742451" lon="10.002705">
        <ele>640.488287</ele>
        <time>2024-03-17T10:27:32.999Z</time>
      </trkpt>
      <trkpt lat="48.742312" lon="10.002864">
        <ele>640.339961</ele>
        <time>2024-03-17T10:27:34.999Z</time>
      </trkpt>
      <trkpt lat="48.742171" lon="10.003024">
        <ele>640.225963</ele>
        <time>2024-03-17T10:27:36.999Z</time>
      </trkpt>
      <trkpt lat="48.742029" lon="10.003183">
        <ele>640.111700</ele>
        <time>2024-03-17T10:27:38.999Z</time>
      </trkpt>
      <trkpt lat="48.741957" lon="10.003266">
        <ele>640.053155</ele>
        <time>2024-03-17T10:27:39.999Z</time>
      </trkpt>
      <trkpt lat="48.741819" lon="10.003426">
        <ele>639.940705</ele>
        <time>2024-03-17T10:27:41.999Z</time>
      </trkpt>
      <trkpt lat="48.741679" lon="10.003584">
        <ele>639.827737</ele>
        <time>2024-03-17T10:27:43.999Z</time>
      </trkpt>
      <trkpt lat="48.741543" lon="10.003738">
        <ele>639.717864</ele>
        <time>2024-03-17T10:27:45.999Z</time>
      </trkpt>
      <trkpt lat="48.741406" lon="10.003887">
        <ele>639.608730</ele>
        <time>2024-03-17T10:27:47.999Z</time>
      </trkpt>
      <trkpt lat="48.741276" lon="10.004045">
        <ele>639.500884</ele>
        <time>2024-03-17T10:27:49.999Z</time>
      </trkpt>
      <trkpt lat="48.741141" lon="10.004197">
        <ele>639.392041</ele>
        <time>2024-03-17T10:27:51.999Z</time>
      </trkpt>
      <trkpt lat="48.741007" lon="10.004348">
        <ele>639.283971</ele>
        <time>2024-03-17T10:27:53.999Z</time>
      </trkpt>
      <trkpt lat="48.740874" lon="10.004503">
        <ele>639.167651</ele>
        <time>2024-03-17T10:27:55.999Z</time>
      </trkpt>
      <trkpt lat="48.740740" lon="10.004657">
        <ele>638.994318</ele>
        <time>2024-03-17T10:27:57.999Z</time>
      </trkpt>
      <trkpt lat="48.740602" lon="10.004807">
        <ele>638.819279</ele>
        <time>2024-03-17T10:27:59.999Z</time>
      </trkpt>
      <trkpt lat="48.740471" lon="10.004961">
        <ele>638.648400</ele>
        <time>2024-03-17T10:28:01.999Z</time>
      </trkpt>
      <trkpt lat="48.740329" lon="10.005117">
        <ele>638.467630</ele>
        <time>2024-03-17T10:28:03.999Z</time>
      </trkpt>
      <trkpt lat="48.740195" lon="10.005268">
        <ele>638.295520</ele>
        <time>2024-03-17T10:28:05.999Z</time>
      </trkpt>
      <trkpt lat="48.740060" lon="10.005420">
        <ele>638.122178</ele>
        <time>2024-03-17T10:28:07.999Z</time>
      </trkpt>
      <trkpt lat="48.739926" lon="10.005577">
        <ele>637.947604</ele>
        <time>2024-03-17T10:28:09.999Z</time>
      </trkpt>
      <trkpt lat="48.739791" lon="10.005735">
        <ele>637.771799</ele>
        <time>2024-03-17T10:28:11.999Z</time>
      </trkpt>
      <trkpt lat="48.739657" lon="10.005887">
        <ele>637.599282</ele>
        <time>2024-03-17T10:28:14.000Z</time>
      </trkpt>
      <trkpt lat="48.739519" lon="10.006041">
        <ele>637.422643</ele>
        <time>2024-03-17T10:28:16.000Z</time>
      </trkpt>
      <trkpt lat="48.739383" lon="10.006196">
        <ele>637.370414</ele>
        <time>2024-03-17T10:28:18.000Z</time>
      </trkpt>
      <trkpt lat="48.739247" lon="10.006350">
        <ele>637.443255</ele>
        <time>2024-03-17T10:28:20.000Z</time>
      </trkpt>
      <trkpt lat="48.739110" lon="10.006501">
        <ele>637.515938</ele>
        <time>2024-03-17T10:28:22.000Z</time>
      </trkpt>
      <trkpt lat="48.738979" lon="10.006651">
        <ele>637.586383</ele>
        <time>2024-03-17T10:28:24.000Z</time>
      </trkpt>
      <trkpt lat="48.738850" lon="10.006806">
        <ele>637.657016</ele>
        <time>2024-03-17T10:28:26.000Z</time>
      </trkpt>
      <trkpt lat="48.738719" lon="10.006958">
        <ele>637.727804</ele>
        <time>2024-03-17T10:28:28.000Z</time>
      </trkpt>
      <trkpt lat="48.738582" lon="10.007104">
        <ele>637.799665</ele>
        <time>2024-03-17T10:28:30.000Z</time>
      </trkpt>
      <trkpt lat="48.738451" lon="10.007256">
        <ele>637.870453</ele>
        <time>2024-03-17T10:28:32.000Z</time>
      </trkpt>
      <trkpt lat="48.738321" lon="10.007410">
        <ele>637.941248</ele>
        <time>2024-03-17T10:28:34.000Z</time>
      </trkpt>
      <trkpt lat="48.738185" lon="10.007565">
        <ele>638.014259</ele>
        <time>2024-03-17T10:28:36.000Z</time>
      </trkpt>
      <trkpt lat="48.738054" lon="10.007722">
        <ele>638.085917</ele>
        <time>2024-03-17T10:28:38.000Z</time>
      </trkpt>
      <trkpt lat="48.737916" lon="10.007877">
        <ele>637.730219</ele>
        <time>2024-03-17T10:28:40.000Z</time>
      </trkpt>
      <trkpt lat="48.737780" lon="10.008031">
        <ele>637.218764</ele>
        <time>2024-03-17T10:28:42.000Z</time>
      </trkpt>
      <trkpt lat="48.737649" lon="10.008195">
        <ele>636.706881</ele>
        <time>2024-03-17T10:28:44.000Z</time>
      </trkpt>
      <trkpt lat="48.737519" lon="10.008370">
        <ele>636.183066</ele>
        <time>2024-03-17T10:28:46.000Z</time>
      </trkpt>
      <trkpt lat="48.737397" lon="10.008559">
        <ele>635.657517</ele>
        <time>2024-03-17T10:28:48.000Z</time>
      </trkpt>
      <trkpt lat="48.737338" lon="10.008665">
        <ele>635.381877</ele>
        <time>2024-03-17T10:28:49.000Z</time>
      </trkpt>
      <trkpt lat="48.737280" lon="10.008772">
        <ele>635.106638</ele>
        <time>2024-03-17T10:28:50.000Z</time>
      </trkpt>
      <trkpt lat="48.737220" lon="10.008877">
        <ele>634.830550</ele>
        <time>2024-03-17T10:28:51.000Z</time>
      </trkpt>
      <trkpt lat="48.737159" lon="10.008984">
        <ele>634.549484</ele>
        <time>2024-03-17T10:28:52.000Z</time>
      </trkpt>
      <trkpt lat="48.737098" lon="10.009089">
        <ele>634.271413</ele>
        <time>2024-03-17T10:28:53.000Z</time>
      </trkpt>
      <trkpt lat="48.737034" lon="10.009195">
        <ele>633.985823</ele>
        <time>2024-03-17T10:28:54.000Z</time>
      </trkpt>
      <trkpt lat="48.736980" lon="10.009309">
        <ele>633.706898</ele>
        <time>2024-03-17T10:28:55.000Z</time>
      </trkpt>
      <trkpt lat="48.736909" lon="10.009402">
        <ele>633.424188</ele>
        <time>2024-03-17T10:28:56.000Z</time>
      </trkpt>
      <trkpt lat="48.736860" lon="10.009527">
        <ele>633.135214</ele>
        <time>2024-03-17T10:28:57.000Z</time>
      </trkpt>
      <trkpt lat="48.736798" lon="10.009633">
        <ele>632.853658</ele>
        <time>2024-03-17T10:28:58.000Z</time>
      </trkpt>
      <trkpt lat="48.736737" lon="10.009745">
        <ele>632.527933</ele>
        <time>2024-03-17T10:28:59.000Z</time>
      </trkpt>
      <trkpt lat="48.736664" lon="10.009842">
        <ele>632.146172</ele>
        <time>2024-03-17T10:29:00.000Z</time>
      </trkpt>
      <trkpt lat="48.736607" lon="10.009965">
        <ele>631.756231</ele>
        <time>2024-03-17T10:29:01.000Z</time>
      </trkpt>
      <trkpt lat="48.736544" lon="10.010080">
        <ele>631.368442</ele>
        <time>2024-03-17T10:29:02.000Z</time>
      </trkpt>
      <trkpt lat="48.736481" lon="10.010193">
        <ele>630.984629</ele>
        <time>2024-03-17T10:29:02.999Z</time>
      </trkpt>
      <trkpt lat="48.736416" lon="10.010309">
        <ele>630.589794</ele>
        <time>2024-03-17T10:29:03.999Z</time>
      </trkpt>
      <trkpt lat="48.736352" lon="10.010425">
        <ele>630.197493</ele>
        <time>2024-03-17T10:29:04.999Z</time>
      </trkpt>
      <trkpt lat="48.736286" lon="10.010541">
        <ele>629.800099</ele>
        <time>2024-03-17T10:29:05.999Z</time>
      </trkpt>
      <trkpt lat="48.736219" lon="10.010655">
        <ele>629.404013</ele>
        <time>2024-03-17T10:29:06.999Z</time>
      </trkpt>
      <trkpt lat="48.736154" lon="10.010771">
        <ele>629.009176</ele>
        <time>2024-03-17T10:29:07.999Z</time>
      </trkpt>
      <trkpt lat="48.736088" lon="10.010886">
        <ele>628.613741</ele>
        <time>2024-03-17T10:29:08.999Z</time>
      </trkpt>
      <trkpt lat="48.736027" lon="10.011003">
        <ele>628.226872</ele>
        <time>2024-03-17T10:29:09.999Z</time>
      </trkpt>
      <trkpt lat="48.735963" lon="10.011120">
        <ele>627.832576</ele>
        <time>2024-03-17T10:29:10.999Z</time>
      </trkpt>
      <trkpt lat="48.735899" lon="10.011235">
        <ele>627.442260</ele>
        <time>2024-03-17T10:29:11.999Z</time>
      </trkpt>
      <trkpt lat="48.735833" lon="10.011350">
        <ele>627.046824</ele>
        <time>2024-03-17T10:29:12.999Z</time>
      </trkpt>
      <trkpt lat="48.735769" lon="10.011466">
        <ele>626.654521</ele>
        <time>2024-03-17T10:29:13.999Z</time>
      </trkpt>
      <trkpt lat="48.735705" lon="10.011582">
        <ele>626.262217</ele>
        <time>2024-03-17T10:29:14.999Z</time>
      </trkpt>
      <trkpt lat="48.735640" lon="10.011698">
        <ele>625.867378</ele>
        <time>2024-03-17T10:29:15.999Z</time>
      </trkpt>
      <trkpt lat="48.735578" lon="10.011814">
        <ele>625.499121</ele>
        <time>2024-03-17T10:29:16.999Z</time>
      </trkpt>
      <trkpt lat="48.735516" lon="10.011927">
        <ele>625.172770</ele>
        <time>2024-03-17T10:29:17.999Z</time>
      </trkpt>
      <trkpt lat="48.735452" lon="10.012040">
        <ele>624.842072</ele>
        <time>2024-03-17T10:29:18.999Z</time>
      </trkpt>
      <trkpt lat="48.735389" lon="10.012152">
        <ele>624.515249</ele>
        <time>2024-03-17T10:29:19.999Z</time>
      </trkpt>
      <trkpt lat="48.735327" lon="10.012265">
        <ele>624.188897</ele>
        <time>2024-03-17T10:29:20.999Z</time>
      </trkpt>
      <trkpt lat="48.735265" lon="10.012378">
        <ele>623.862545</ele>
        <time>2024-03-17T10:29:21.999Z</time>
      </trkpt>
      <trkpt lat="48.735203" lon="10.012487">
        <ele>623.542970</ele>
        <time>2024-03-17T10:29:22.999Z</time>
      </trkpt>
      <trkpt lat="48.735141" lon="10.012596">
        <ele>623.223394</ele>
        <time>2024-03-17T10:29:23.999Z</time>
      </trkpt>
      <trkpt lat="48.735080" lon="10.012708">
        <ele>622.900898</ele>
        <time>2024-03-17T10:29:24.999Z</time>
      </trkpt>
      <trkpt lat="48.735020" lon="10.012816">
        <ele>622.587379</ele>
        <time>2024-03-17T10:29:25.999Z</time>
      </trkpt>
      <trkpt lat="48.734960" lon="10.012924">
        <ele>622.273860</ele>
        <time>2024-03-17T10:29:26.999Z</time>
      </trkpt>
      <trkpt lat="48.734900" lon="10.013034">
        <ele>621.956931</ele>
        <time>2024-03-17T10:29:27.999Z</time>
      </trkpt>
      <trkpt lat="48.734839" lon="10.013143">
        <ele>621.639543</ele>
        <time>2024-03-17T10:29:28.999Z</time>
      </trkpt>
      <trkpt lat="48.734779" lon="10.013252">
        <ele>621.324321</ele>
        <time>2024-03-17T10:29:29.999Z</time>
      </trkpt>
      <trkpt lat="48.734711" lon="10.013359">
        <ele>620.994413</ele>
        <time>2024-03-17T10:29:30.999Z</time>
      </trkpt>
      <trkpt lat="48.734649" lon="10.013467">
        <ele>620.676514</ele>
        <time>2024-03-17T10:29:31.999Z</time>
      </trkpt>
      <trkpt lat="48.734586" lon="10.013576">
        <ele>620.354727</ele>
        <time>2024-03-17T10:29:32.999Z</time>
      </trkpt>
      <trkpt lat="48.734521" lon="10.013685">
        <ele>620.028464</ele>
        <time>2024-03-17T10:29:33.999Z</time>
      </trkpt>
      <trkpt lat="48.734457" lon="10.013796">
        <ele>619.701118</ele>
        <time>2024-03-17T10:29:34.999Z</time>
      </trkpt>
      <trkpt lat="48.734389" lon="10.013907">
        <ele>619.499025</ele>
        <time>2024-03-17T10:29:35.999Z</time>
      </trkpt>
      <trkpt lat="48.734320" lon="10.014018">
        <ele>619.396403</ele>
        <time>2024-03-17T10:29:36.999Z</time>
      </trkpt>
      <trkpt lat="48.734250" lon="10.014127">
        <ele>619.294047</ele>
        <time>2024-03-17T10:29:37.999Z</time>
      </trkpt>
      <trkpt lat="48.734174" lon="10.014232">
        <ele>619.189162</ele>
        <time>2024-03-17T10:29:38.999Z</time>
      </trkpt>
      <trkpt lat="48.734101" lon="10.014329">
        <ele>619.090146</ele>
        <time>2024-03-17T10:29:39.999Z</time>
      </trkpt>
      <trkpt lat="48.734019" lon="10.014424">
        <ele>618.984875</ele>
        <time>2024-03-17T10:29:40.999Z</time>
      </trkpt>
      <trkpt lat="48.733939" lon="10.014522">
        <ele>618.879961</ele>
        <time>2024-03-17T10:29:41.999Z</time>
      </trkpt>
      <trkpt lat="48.733859" lon="10.014618">
        <ele>618.775887</ele>
        <time>2024-03-17T10:29:42.999Z</time>
      </trkpt>
      <trkpt lat="48.733780" lon="10.014712">
        <ele>618.673448</ele>
        <time>2024-03-17T10:29:43.999Z</time>
      </trkpt>
      <trkpt lat="48.733700" lon="10.014804">
        <ele>618.571022</ele>
        <time>2024-03-17T10:29:44.999Z</time>
      </trkpt>
      <trkpt lat="48.733622" lon="10.014898">
        <ele>618.469383</ele>
        <time>2024-03-17T10:29:45.999Z</time>
      </trkpt>
      <trkpt lat="48.733541" lon="10.014990">
        <ele>618.366143</ele>
        <time>2024-03-17T10:29:46.999Z</time>
      </trkpt>
      <trkpt lat="48.733460" lon="10.015085">
        <ele>618.261680</ele>
        <time>2024-03-17T10:29:47.999Z</time>
      </trkpt>
      <trkpt lat="48.733379" lon="10.015178">
        <ele>618.158035</ele>
        <time>2024-03-17T10:29:48.999Z</time>
      </trkpt>
      <trkpt lat="48.733300" lon="10.015271">
        <ele>618.056009</ele>
        <time>2024-03-17T10:29:49.999Z</time>
      </trkpt>
      <trkpt lat="48.733222" lon="10.015367">
        <ele>617.953527</ele>
        <time>2024-03-17T10:29:50.999Z</time>
      </trkpt>
      <trkpt lat="48.733144" lon="10.015462">
        <ele>617.851467</ele>
        <time>2024-03-17T10:29:51.999Z</time>
      </trkpt>
      <trkpt lat="48.733070" lon="10.015556">
        <ele>617.752989</ele>
        <time>2024-03-17T10:29:52.999Z</time>
      </trkpt>
      <trkpt lat="48.732996" lon="10.015650">
        <ele>618.110366</ele>
        <time>2024-03-17T10:29:53.999Z</time>
      </trkpt>
      <trkpt lat="48.732926" lon="10.015746">
        <ele>618.658321</ele>
        <time>2024-03-17T10:29:54.999Z</time>
      </trkpt>
      <trkpt lat="48.732861" lon="10.015845">
        <ele>619.193190</ele>
        <time>2024-03-17T10:29:55.999Z</time>
      </trkpt>
      <trkpt lat="48.732750" lon="10.016047">
        <ele>620.199906</ele>
        <time>2024-03-17T10:29:57.999Z</time>
      </trkpt>
      <trkpt lat="48.732657" lon="10.016243">
        <ele>621.124414</ele>
        <time>2024-03-17T10:29:59.999Z</time>
      </trkpt>
      <trkpt lat="48.732576" lon="10.016426">
        <ele>621.968282</ele>
        <time>2024-03-17T10:30:01.999Z</time>
      </trkpt>
      <trkpt lat="48.732505" lon="10.016606">
        <ele>622.771352</ele>
        <time>2024-03-17T10:30:03.999Z</time>
      </trkpt>
      <trkpt lat="48.732444" lon="10.016786">
        <ele>623.546230</ele>
        <time>2024-03-17T10:30:05.999Z</time>
      </trkpt>
      <trkpt lat="48.732373" lon="10.016959">
        <ele>624.326420</ele>
        <time>2024-03-17T10:30:07.999Z</time>
      </trkpt>
      <trkpt lat="48.732306" lon="10.017126">
        <ele>625.074874</ele>
        <time>2024-03-17T10:30:09.999Z</time>
      </trkpt>
      <trkpt lat="48.732252" lon="10.017275">
        <ele>625.725855</ele>
        <time>2024-03-17T10:30:11.999Z</time>
      </trkpt>
      <trkpt lat="48.732202" lon="10.017395">
        <ele>626.269345</ele>
        <time>2024-03-17T10:30:13.999Z</time>
      </trkpt>
      <trkpt lat="48.732133" lon="10.017567">
        <ele>627.040192</ele>
        <time>2024-03-17T10:30:16.999Z</time>
      </trkpt>
      <trkpt lat="48.732072" lon="10.017744">
        <ele>627.804875</ele>
        <time>2024-03-17T10:30:20.000Z</time>
      </trkpt>
      <trkpt lat="48.732012" lon="10.017911">
        <ele>628.436440</ele>
        <time>2024-03-17T10:30:23.000Z</time>
      </trkpt>
      <trkpt lat="48.731953" lon="10.018077">
        <ele>628.969315</ele>
        <time>2024-03-17T10:30:26.000Z</time>
      </trkpt>
      <trkpt lat="48.731880" lon="10.018233">
        <ele>629.509836</ele>
        <time>2024-03-17T10:30:29.000Z</time>
      </trkpt>
      <trkpt lat="48.731814" lon="10.018389">
        <ele>630.033576</ele>
        <time>2024-03-17T10:30:32.000Z</time>
      </trkpt>
      <trkpt lat="48.731733" lon="10.018536">
        <ele>630.574873</ele>
        <time>2024-03-17T10:30:35.000Z</time>
      </trkpt>
      <trkpt lat="48.731658" lon="10.018683">
        <ele>631.100060</ele>
        <time>2024-03-17T10:30:38.000Z</time>
      </trkpt>
      <trkpt lat="48.731578" lon="10.018818">
        <ele>631.612918</ele>
        <time>2024-03-17T10:30:41.000Z</time>
      </trkpt>
      <trkpt lat="48.731490" lon="10.018948">
        <ele>632.139333</ele>
        <time>2024-03-17T10:30:44.000Z</time>
      </trkpt>
      <trkpt lat="48.731404" lon="10.019091">
        <ele>632.686204</ele>
        <time>2024-03-17T10:30:47.000Z</time>
      </trkpt>
      <trkpt lat="48.731335" lon="10.019189">
        <ele>633.091287</ele>
        <time>2024-03-17T10:30:49.000Z</time>
      </trkpt>
      <trkpt lat="48.731272" lon="10.019292">
        <ele>633.488250</ele>
        <time>2024-03-17T10:30:51.000Z</time>
      </trkpt>
      <trkpt lat="48.731208" lon="10.019403">
        <ele>633.904883</ele>
        <time>2024-03-17T10:30:53.000Z</time>
      </trkpt>
      <trkpt lat="48.731144" lon="10.019514">
        <ele>634.321516</ele>
        <time>2024-03-17T10:30:55.000Z</time>
      </trkpt>
      <trkpt lat="48.731070" lon="10.019625">
        <ele>634.767515</ele>
        <time>2024-03-17T10:30:57.000Z</time>
      </trkpt>
      <trkpt lat="48.730994" lon="10.019744">
        <ele>635.235615</ele>
        <time>2024-03-17T10:30:59.000Z</time>
      </trkpt>
      <trkpt lat="48.730918" lon="10.019866">
        <ele>635.709842</ele>
        <time>2024-03-17T10:31:01.000Z</time>
      </trkpt>
      <trkpt lat="48.730840" lon="10.019992">
        <ele>635.817341</ele>
        <time>2024-03-17T10:31:03.000Z</time>
      </trkpt>
      <trkpt lat="48.730758" lon="10.020122">
        <ele>635.734997</ele>
        <time>2024-03-17T10:31:05.000Z</time>
      </trkpt>
      <trkpt lat="48.730673" lon="10.020254">
        <ele>635.650548</ele>
        <time>2024-03-17T10:31:06.999Z</time>
      </trkpt>
      <trkpt lat="48.730596" lon="10.020394">
        <ele>635.567100</ele>
        <time>2024-03-17T10:31:08.999Z</time>
      </trkpt>
      <trkpt lat="48.730509" lon="10.020522">
        <ele>635.482960</ele>
        <time>2024-03-17T10:31:10.999Z</time>
      </trkpt>
      <trkpt lat="48.730424" lon="10.020652">
        <ele>635.399163</ele>
        <time>2024-03-17T10:31:12.999Z</time>
      </trkpt>
      <trkpt lat="48.730340" lon="10.020791">
        <ele>635.312862</ele>
        <time>2024-03-17T10:31:14.999Z</time>
      </trkpt>
      <trkpt lat="48.730226" lon="10.020901">
        <ele>635.219075</ele>
        <time>2024-03-17T10:31:16.999Z</time>
      </trkpt>
      <trkpt lat="48.730123" lon="10.021044">
        <ele>635.122144</ele>
        <time>2024-03-17T10:31:18.999Z</time>
      </trkpt>
      <trkpt lat="48.730010" lon="10.021167">
        <ele>635.025596</ele>
        <time>2024-03-17T10:31:20.999Z</time>
      </trkpt>
      <trkpt lat="48.729882" lon="10.021258">
        <ele>634.927477</ele>
        <time>2024-03-17T10:31:22.999Z</time>
      </trkpt>
      <trkpt lat="48.729749" lon="10.021354">
        <ele>634.825241</ele>
        <time>2024-03-17T10:31:24.999Z</time>
      </trkpt>
      <trkpt lat="48.729598" lon="10.021411">
        <ele>634.717242</ele>
        <time>2024-03-17T10:31:26.999Z</time>
      </trkpt>
      <trkpt lat="48.729444" lon="10.021457">
        <ele>634.625402</ele>
        <time>2024-03-17T10:31:28.999Z</time>
      </trkpt>
      <trkpt lat="48.729294" lon="10.021498">
        <ele>634.650668</ele>
        <time>2024-03-17T10:31:30.999Z</time>
      </trkpt>
      <trkpt lat="48.729151" lon="10.021534">
        <ele>634.674698</ele>
        <time>2024-03-17T10:31:32.999Z</time>
      </trkpt>
      <trkpt lat="48.729007" lon="10.021577">
        <ele>634.699028</ele>
        <time>2024-03-17T10:31:34.999Z</time>
      </trkpt>
      <trkpt lat="48.728867" lon="10.021619">
        <ele>634.722686</ele>
        <time>2024-03-17T10:31:36.999Z</time>
      </trkpt>
      <trkpt lat="48.728722" lon="10.021659">
        <ele>634.747118</ele>
        <time>2024-03-17T10:31:38.999Z</time>
      </trkpt>
      <trkpt lat="48.728579" lon="10.021695">
        <ele>634.771148</ele>
        <time>2024-03-17T10:31:40.999Z</time>
      </trkpt>
      <trkpt lat="48.728433" lon="10.021717">
        <ele>634.795470</ele>
        <time>2024-03-17T10:31:42.999Z</time>
      </trkpt>
      <trkpt lat="48.728294" lon="10.021787">
        <ele>634.819750</ele>
        <time>2024-03-17T10:31:44.999Z</time>
      </trkpt>
      <trkpt lat="48.728154" lon="10.021847">
        <ele>634.843868</ele>
        <time>2024-03-17T10:31:46.999Z</time>
      </trkpt>
      <trkpt lat="48.728010" lon="10.021912">
        <ele>634.868774</ele>
        <time>2024-03-17T10:31:48.999Z</time>
      </trkpt>
      <trkpt lat="48.727866" lon="10.021995">
        <ele>634.894313</ele>
        <time>2024-03-17T10:31:50.999Z</time>
      </trkpt>
      <trkpt lat="48.727723" lon="10.022072">
        <ele>634.919469</ele>
        <time>2024-03-17T10:31:52.999Z</time>
      </trkpt>
      <trkpt lat="48.727577" lon="10.022163">
        <ele>634.976159</ele>
        <time>2024-03-17T10:31:54.999Z</time>
      </trkpt>
      <trkpt lat="48.727444" lon="10.022261">
        <ele>635.030168</ele>
        <time>2024-03-17T10:31:56.999Z</time>
      </trkpt>
      <trkpt lat="48.727310" lon="10.022356">
        <ele>635.084195</ele>
        <time>2024-03-17T10:31:58.999Z</time>
      </trkpt>
      <trkpt lat="48.727183" lon="10.022456">
        <ele>635.136463</ele>
        <time>2024-03-17T10:32:00.999Z</time>
      </trkpt>
      <trkpt lat="48.727064" lon="10.022556">
        <ele>635.186155</ele>
        <time>2024-03-17T10:32:02.999Z</time>
      </trkpt>
      <trkpt lat="48.726958" lon="10.022666">
        <ele>635.233071</ele>
        <time>2024-03-17T10:32:04.999Z</time>
      </trkpt>
      <trkpt lat="48.726849" lon="10.022785">
        <ele>635.282129</ele>
        <time>2024-03-17T10:32:06.999Z</time>
      </trkpt>
      <trkpt lat="48.726740" lon="10.022912">
        <ele>635.332338</ele>
        <time>2024-03-17T10:32:08.999Z</time>
      </trkpt>
      <trkpt lat="48.726633" lon="10.023042">
        <ele>635.382419</ele>
        <time>2024-03-17T10:32:10.999Z</time>
      </trkpt>
      <trkpt lat="48.726528" lon="10.023170">
        <ele>635.431629</ele>
        <time>2024-03-17T10:32:12.999Z</time>
      </trkpt>
      <trkpt lat="48.726426" lon="10.023294">
        <ele>635.479381</ele>
        <time>2024-03-17T10:32:14.999Z</time>
      </trkpt>
      <trkpt lat="48.726331" lon="10.023409">
        <ele>635.523782</ele>
        <time>2024-03-17T10:32:16.999Z</time>
      </trkpt>
      <trkpt lat="48.726246" lon="10.023513">
        <ele>635.563676</ele>
        <time>2024-03-17T10:32:18.999Z</time>
      </trkpt>
      <trkpt lat="48.726170" lon="10.023606">
        <ele>635.564940</ele>
        <time>2024-03-17T10:32:20.999Z</time>
      </trkpt>
      <trkpt lat="48.726221" lon="10.023840">
        <ele>635.532164</ele>
        <time>2024-03-17T10:32:23.999Z</time>
      </trkpt>
      <trkpt lat="48.726299" lon="10.023984">
        <ele>635.507383</ele>
        <time>2024-03-17T10:32:26.000Z</time>
      </trkpt>
      <trkpt lat="48.726379" lon="10.024133">
        <ele>635.481832</ele>
        <time>2024-03-17T10:32:28.000Z</time>
      </trkpt>
      <trkpt lat="48.726461" lon="10.024293">
        <ele>635.454885</ele>
        <time>2024-03-17T10:32:30.000Z</time>
      </trkpt>
      <trkpt lat="48.726551" lon="10.024459">
        <ele>635.426308</ele>
        <time>2024-03-17T10:32:32.000Z</time>
      </trkpt>
      <trkpt lat="48.726640" lon="10.024640">
        <ele>635.396283</ele>
        <time>2024-03-17T10:32:34.000Z</time>
      </trkpt>
      <trkpt lat="48.726725" lon="10.024823">
        <ele>635.366517</ele>
        <time>2024-03-17T10:32:36.000Z</time>
      </trkpt>
      <trkpt lat="48.726812" lon="10.025008">
        <ele>635.336300</ele>
        <time>2024-03-17T10:32:38.000Z</time>
      </trkpt>
      <trkpt lat="48.726901" lon="10.025194">
        <ele>635.305740</ele>
        <time>2024-03-17T10:32:40.000Z</time>
      </trkpt>
      <trkpt lat="48.726992" lon="10.025388">
        <ele>635.274081</ele>
        <time>2024-03-17T10:32:42.000Z</time>
      </trkpt>
      <trkpt lat="48.727086" lon="10.025583">
        <ele>635.241960</ele>
        <time>2024-03-17T10:32:44.000Z</time>
      </trkpt>
      <trkpt lat="48.727175" lon="10.025780">
        <ele>635.264048</ele>
        <time>2024-03-17T10:32:46.000Z</time>
      </trkpt>
      <trkpt lat="48.727269" lon="10.025981">
        <ele>635.637920</ele>
        <time>2024-03-17T10:32:48.000Z</time>
      </trkpt>
      <trkpt lat="48.727358" lon="10.026178">
        <ele>636.000237</ele>
        <time>2024-03-17T10:32:50.000Z</time>
      </trkpt>
      <trkpt lat="48.727444" lon="10.026364">
        <ele>636.344902</ele>
        <time>2024-03-17T10:32:52.000Z</time>
      </trkpt>
      <trkpt lat="48.727521" lon="10.026541">
        <ele>636.666630</ele>
        <time>2024-03-17T10:32:54.000Z</time>
      </trkpt>
      <trkpt lat="48.727594" lon="10.026707">
        <ele>636.969361</ele>
        <time>2024-03-17T10:32:56.000Z</time>
      </trkpt>
      <trkpt lat="48.727638" lon="10.026851">
        <ele>637.210170</ele>
        <time>2024-03-17T10:32:58.000Z</time>
      </trkpt>
      <trkpt lat="48.727723" lon="10.026945">
        <ele>637.452196</ele>
        <time>2024-03-17T10:33:20.999Z</time>
      </trkpt>
      <trkpt lat="48.727784" lon="10.027089">
        <ele>637.711877</ele>
        <time>2024-03-17T10:33:23.999Z</time>
      </trkpt>
      <trkpt lat="48.727851" lon="10.027222">
        <ele>637.965810</ele>
        <time>2024-03-17T10:33:25.999Z</time>
      </trkpt>
      <trkpt lat="48.727925" lon="10.027377">
        <ele>638.256144</ele>
        <time>2024-03-17T10:33:27.999Z</time>
      </trkpt>
      <trkpt lat="48.728007" lon="10.027553">
        <ele>638.583102</ele>
        <time>2024-03-17T10:33:29.999Z</time>
      </trkpt>
      <trkpt lat="48.728084" lon="10.027732">
        <ele>638.907365</ele>
        <time>2024-03-17T10:33:31.999Z</time>
      </trkpt>
      <trkpt lat="48.728164" lon="10.027904">
        <ele>639.226710</ele>
        <time>2024-03-17T10:33:33.999Z</time>
      </trkpt>
      <trkpt lat="48.728244" lon="10.028072">
        <ele>639.436110</ele>
        <time>2024-03-17T10:33:35.999Z</time>
      </trkpt>
      <trkpt lat="48.728328" lon="10.028257">
        <ele>639.587640</ele>
        <time>2024-03-17T10:33:37.999Z</time>
      </trkpt>
      <trkpt lat="48.728409" lon="10.028435">
        <ele>639.733541</ele>
        <time>2024-03-17T10:33:39.999Z</time>
      </trkpt>
      <trkpt lat="48.728485" lon="10.028603">
        <ele>639.870984</ele>
        <time>2024-03-17T10:33:41.999Z</time>
      </trkpt>
      <trkpt lat="48.728561" lon="10.028769">
        <ele>640.007316</ele>
        <time>2024-03-17T10:33:43.999Z</time>
      </trkpt>
      <trkpt lat="48.728634" lon="10.028927">
        <ele>640.137465</ele>
        <time>2024-03-17T10:33:45.999Z</time>
      </trkpt>
      <trkpt lat="48.728704" lon="10.029086">
        <ele>640.266439</ele>
        <time>2024-03-17T10:33:47.999Z</time>
      </trkpt>
      <trkpt lat="48.728776" lon="10.029248">
        <ele>640.398234</ele>
        <time>2024-03-17T10:33:49.999Z</time>
      </trkpt>
      <trkpt lat="48.728851" lon="10.029409">
        <ele>640.531215</ele>
        <time>2024-03-17T10:33:51.999Z</time>
      </trkpt>
      <trkpt lat="48.728922" lon="10.029567">
        <ele>640.660202</ele>
        <time>2024-03-17T10:33:53.999Z</time>
      </trkpt>
      <trkpt lat="48.728999" lon="10.029726">
        <ele>640.793283</ele>
        <time>2024-03-17T10:33:55.999Z</time>
      </trkpt>
      <trkpt lat="48.729070" lon="10.029881">
        <ele>640.920602</ele>
        <time>2024-03-17T10:33:57.999Z</time>
      </trkpt>
      <trkpt lat="48.729138" lon="10.030033">
        <ele>641.044514</ele>
        <time>2024-03-17T10:33:59.999Z</time>
      </trkpt>
      <trkpt lat="48.729212" lon="10.030186">
        <ele>641.172517</ele>
        <time>2024-03-17T10:34:01.999Z</time>
      </trkpt>
      <trkpt lat="48.729282" lon="10.030346">
        <ele>641.365785</ele>
        <time>2024-03-17T10:34:03.999Z</time>
      </trkpt>
      <trkpt lat="48.729358" lon="10.030499">
        <ele>641.569675</ele>
        <time>2024-03-17T10:34:05.999Z</time>
      </trkpt>
      <trkpt lat="48.729430" lon="10.030656">
        <ele>641.773229</ele>
        <time>2024-03-17T10:34:07.999Z</time>
      </trkpt>
      <trkpt lat="48.729499" lon="10.030812">
        <ele>641.973174</ele>
        <time>2024-03-17T10:34:09.999Z</time>
      </trkpt>
      <trkpt lat="48.729570" lon="10.030970">
        <ele>642.176689</ele>
        <time>2024-03-17T10:34:11.999Z</time>
      </trkpt>
      <trkpt lat="48.729642" lon="10.031127">
        <ele>642.380243</ele>
        <time>2024-03-17T10:34:13.999Z</time>
      </trkpt>
      <trkpt lat="48.729713" lon="10.031284">
        <ele>642.582879</ele>
        <time>2024-03-17T10:34:15.999Z</time>
      </trkpt>
      <trkpt lat="48.729785" lon="10.031434">
        <ele>642.780360</ele>
        <time>2024-03-17T10:34:17.999Z</time>
      </trkpt>
      <trkpt lat="48.729849" lon="10.031576">
        <ele>642.963438</ele>
        <time>2024-03-17T10:34:19.999Z</time>
      </trkpt>
      <trkpt lat="48.729914" lon="10.031718">
        <ele>643.147432</ele>
        <time>2024-03-17T10:34:21.999Z</time>
      </trkpt>
      <trkpt lat="48.729985" lon="10.031866">
        <ele>643.342241</ele>
        <time>2024-03-17T10:34:23.999Z</time>
      </trkpt>
      <trkpt lat="48.730052" lon="10.032015">
        <ele>643.534203</ele>
        <time>2024-03-17T10:34:25.999Z</time>
      </trkpt>
      <trkpt lat="48.730123" lon="10.032166">
        <ele>643.731603</ele>
        <time>2024-03-17T10:34:27.999Z</time>
      </trkpt>
      <trkpt lat="48.730192" lon="10.032319">
        <ele>643.928901</ele>
        <time>2024-03-17T10:34:29.999Z</time>
      </trkpt>
      <trkpt lat="48.730268" lon="10.032475">
        <ele>644.163401</ele>
        <time>2024-03-17T10:34:32.000Z</time>
      </trkpt>
      <trkpt lat="48.730339" lon="10.032629">
        <ele>644.500743</ele>
        <time>2024-03-17T10:34:34.000Z</time>
      </trkpt>
      <trkpt lat="48.730411" lon="10.032787">
        <ele>644.845536</ele>
        <time>2024-03-17T10:34:36.000Z</time>
      </trkpt>
      <trkpt lat="48.730481" lon="10.032945">
        <ele>645.187263</ele>
        <time>2024-03-17T10:34:38.000Z</time>
      </trkpt>
      <trkpt lat="48.730554" lon="10.033101">
        <ele>645.530675</ele>
        <time>2024-03-17T10:34:40.000Z</time>
      </trkpt>
      <trkpt lat="48.730619" lon="10.033257">
        <ele>645.861963</ele>
        <time>2024-03-17T10:34:42.000Z</time>
      </trkpt>
      <trkpt lat="48.730693" lon="10.033416">
        <ele>646.211343</ele>
        <time>2024-03-17T10:34:44.000Z</time>
      </trkpt>
      <trkpt lat="48.730759" lon="10.033581">
        <ele>646.557803</ele>
        <time>2024-03-17T10:34:46.000Z</time>
      </trkpt>
      <trkpt lat="48.730825" lon="10.033745">
        <ele>646.902728</ele>
        <time>2024-03-17T10:34:48.000Z</time>
      </trkpt>
      <trkpt lat="48.730890" lon="10.033903">
        <ele>647.237056</ele>
        <time>2024-03-17T10:34:50.000Z</time>
      </trkpt>
      <trkpt lat="48.730956" lon="10.034070">
        <ele>647.586590</ele>
        <time>2024-03-17T10:34:52.000Z</time>
      </trkpt>
      <trkpt lat="48.731020" lon="10.034243">
        <ele>647.942713</ele>
        <time>2024-03-17T10:34:54.000Z</time>
      </trkpt>
      <trkpt lat="48.731084" lon="10.034414">
        <ele>648.295708</ele>
        <time>2024-03-17T10:34:56.000Z</time>
      </trkpt>
      <trkpt lat="48.731146" lon="10.034582">
        <ele>648.641338</ele>
        <time>2024-03-17T10:34:58.000Z</time>
      </trkpt>
      <trkpt lat="48.731203" lon="10.034746">
        <ele>648.974160</ele>
        <time>2024-03-17T10:35:00.000Z</time>
      </trkpt>
      <trkpt lat="48.731253" lon="10.034909">
        <ele>649.386824</ele>
        <time>2024-03-17T10:35:02.000Z</time>
      </trkpt>
      <trkpt lat="48.731306" lon="10.035077">
        <ele>649.819248</ele>
        <time>2024-03-17T10:35:04.000Z</time>
      </trkpt>
      <trkpt lat="48.731354" lon="10.035251">
        <ele>650.257192</ele>
        <time>2024-03-17T10:35:06.000Z</time>
      </trkpt>
      <trkpt lat="48.731405" lon="10.035424">
        <ele>650.697198</ele>
        <time>2024-03-17T10:35:08.000Z</time>
      </trkpt>
      <trkpt lat="48.731459" lon="10.035597">
        <ele>651.141617</ele>
        <time>2024-03-17T10:35:10.000Z</time>
      </trkpt>
      <trkpt lat="48.731515" lon="10.035771">
        <ele>651.591178</ele>
        <time>2024-03-17T10:35:12.000Z</time>
      </trkpt>
      <trkpt lat="48.731566" lon="10.035943">
        <ele>652.029064</ele>
        <time>2024-03-17T10:35:14.000Z</time>
      </trkpt>
      <trkpt lat="48.731615" lon="10.036117">
        <ele>652.468377</ele>
        <time>2024-03-17T10:35:16.000Z</time>
      </trkpt>
      <trkpt lat="48.731656" lon="10.036288">
        <ele>652.890860</ele>
        <time>2024-03-17T10:35:18.000Z</time>
      </trkpt>
      <trkpt lat="48.731699" lon="10.036459">
        <ele>653.315799</ele>
        <time>2024-03-17T10:35:20.000Z</time>
      </trkpt>
      <trkpt lat="48.731743" lon="10.036626">
        <ele>653.733366</ele>
        <time>2024-03-17T10:35:22.000Z</time>
      </trkpt>
      <trkpt lat="48.731784" lon="10.036788">
        <ele>654.136271</ele>
        <time>2024-03-17T10:35:24.000Z</time>
      </trkpt>
      <trkpt lat="48.731816" lon="10.036954">
        <ele>654.537847</ele>
        <time>2024-03-17T10:35:25.999Z</time>
      </trkpt>
      <trkpt lat="48.731850" lon="10.037117">
        <ele>654.934808</ele>
        <time>2024-03-17T10:35:27.999Z</time>
      </trkpt>
      <trkpt lat="48.731887" lon="10.037277">
        <ele>655.328439</ele>
        <time>2024-03-17T10:35:29.999Z</time>
      </trkpt>
      <trkpt lat="48.731921" lon="10.037441">
        <ele>655.723718</ele>
        <time>2024-03-17T10:35:31.999Z</time>
      </trkpt>
      <trkpt lat="48.731958" lon="10.037606">
        <ele>656.124433</ele>
        <time>2024-03-17T10:35:33.999Z</time>
      </trkpt>
      <trkpt lat="48.731991" lon="10.037776">
        <ele>656.531896</ele>
        <time>2024-03-17T10:35:35.999Z</time>
      </trkpt>
      <trkpt lat="48.732028" lon="10.037946">
        <ele>656.943512</ele>
        <time>2024-03-17T10:35:37.999Z</time>
      </trkpt>
      <trkpt lat="48.732054" lon="10.038112">
        <ele>657.335814</ele>
        <time>2024-03-17T10:35:39.999Z</time>
      </trkpt>
      <trkpt lat="48.732089" lon="10.038279">
        <ele>657.738720</ele>
        <time>2024-03-17T10:35:41.999Z</time>
      </trkpt>
      <trkpt lat="48.732120" lon="10.038445">
        <ele>658.135411</ele>
        <time>2024-03-17T10:35:43.999Z</time>
      </trkpt>
      <trkpt lat="48.732155" lon="10.038606">
        <ele>658.525190</ele>
        <time>2024-03-17T10:35:45.999Z</time>
      </trkpt>
      <trkpt lat="48.732184" lon="10.038766">
        <ele>658.906719</ele>
        <time>2024-03-17T10:35:47.999Z</time>
      </trkpt>
      <trkpt lat="48.732211" lon="10.038922">
        <ele>659.277556</ele>
        <time>2024-03-17T10:35:49.999Z</time>
      </trkpt>
      <trkpt lat="48.732244" lon="10.039084">
        <ele>659.667405</ele>
        <time>2024-03-17T10:35:51.999Z</time>
      </trkpt>
      <trkpt lat="48.732271" lon="10.039243">
        <ele>660.044918</ele>
        <time>2024-03-17T10:35:53.999Z</time>
      </trkpt>
      <trkpt lat="48.732297" lon="10.039405">
        <ele>660.428276</ele>
        <time>2024-03-17T10:35:55.999Z</time>
      </trkpt>
      <trkpt lat="48.732320" lon="10.039566">
        <ele>660.807048</ele>
        <time>2024-03-17T10:35:57.999Z</time>
      </trkpt>
      <trkpt lat="48.732346" lon="10.039728">
        <ele>661.190406</ele>
        <time>2024-03-17T10:35:59.999Z</time>
      </trkpt>
      <trkpt lat="48.732361" lon="10.039890">
        <ele>661.566546</ele>
        <time>2024-03-17T10:36:01.999Z</time>
      </trkpt>
      <trkpt lat="48.732364" lon="10.040053">
        <ele>661.881910</ele>
        <time>2024-03-17T10:36:03.999Z</time>
      </trkpt>
      <trkpt lat="48.732359" lon="10.040213">
        <ele>662.187357</ele>
        <time>2024-03-17T10:36:05.999Z</time>
      </trkpt>
      <trkpt lat="48.732349" lon="10.040375">
        <ele>662.497625</ele>
        <time>2024-03-17T10:36:07.999Z</time>
      </trkpt>
      <trkpt lat="48.732335" lon="10.040535">
        <ele>662.805402</ele>
        <time>2024-03-17T10:36:09.999Z</time>
      </trkpt>
      <trkpt lat="48.732319" lon="10.040698">
        <ele>663.119650</ele>
        <time>2024-03-17T10:36:11.999Z</time>
      </trkpt>
      <trkpt lat="48.732303" lon="10.040855">
        <ele>663.422586</ele>
        <time>2024-03-17T10:36:13.999Z</time>
      </trkpt>
      <trkpt lat="48.732281" lon="10.041016">
        <ele>663.736117</ele>
        <time>2024-03-17T10:36:15.999Z</time>
      </trkpt>
      <trkpt lat="48.732262" lon="10.041176">
        <ele>664.046127</ele>
        <time>2024-03-17T10:36:17.999Z</time>
      </trkpt>
      <trkpt lat="48.732241" lon="10.041344">
        <ele>664.372189</ele>
        <time>2024-03-17T10:36:19.999Z</time>
      </trkpt>
      <trkpt lat="48.732221" lon="10.041508">
        <ele>664.690222</ele>
        <time>2024-03-17T10:36:21.999Z</time>
      </trkpt>
      <trkpt lat="48.732195" lon="10.041672">
        <ele>665.011861</ele>
        <time>2024-03-17T10:36:23.999Z</time>
      </trkpt>
      <trkpt lat="48.732175" lon="10.041841">
        <ele>665.339275</ele>
        <time>2024-03-17T10:36:25.999Z</time>
      </trkpt>
      <trkpt lat="48.732155" lon="10.042010">
        <ele>665.666688</ele>
        <time>2024-03-17T10:36:27.999Z</time>
      </trkpt>
      <trkpt lat="48.732134" lon="10.042180">
        <ele>665.996499</ele>
        <time>2024-03-17T10:36:29.999Z</time>
      </trkpt>
      <trkpt lat="48.732110" lon="10.042354">
        <ele>666.335479</ele>
        <time>2024-03-17T10:36:31.999Z</time>
      </trkpt>
      <trkpt lat="48.732087" lon="10.042525">
        <ele>666.668271</ele>
        <time>2024-03-17T10:36:33.999Z</time>
      </trkpt>
      <trkpt lat="48.732066" lon="10.042699">
        <ele>666.950769</ele>
        <time>2024-03-17T10:36:35.999Z</time>
      </trkpt>
      <trkpt lat="48.732044" lon="10.042873">
        <ele>667.201712</ele>
        <time>2024-03-17T10:36:38.000Z</time>
      </trkpt>
      <trkpt lat="48.732019" lon="10.043049">
        <ele>667.456716</ele>
        <time>2024-03-17T10:36:40.000Z</time>
      </trkpt>
      <trkpt lat="48.731994" lon="10.043230">
        <ele>667.718648</ele>
        <time>2024-03-17T10:36:42.000Z</time>
      </trkpt>
      <trkpt lat="48.731966" lon="10.043409">
        <ele>667.979219</ele>
        <time>2024-03-17T10:36:44.000Z</time>
      </trkpt>
      <trkpt lat="48.731937" lon="10.043591">
        <ele>668.244423</ele>
        <time>2024-03-17T10:36:46.000Z</time>
      </trkpt>
      <trkpt lat="48.731907" lon="10.043773">
        <ele>668.510139</ele>
        <time>2024-03-17T10:36:48.000Z</time>
      </trkpt>
      <trkpt lat="48.731876" lon="10.043956">
        <ele>668.777755</ele>
        <time>2024-03-17T10:36:50.000Z</time>
      </trkpt>
      <trkpt lat="48.731848" lon="10.044140">
        <ele>669.045223</ele>
        <time>2024-03-17T10:36:52.000Z</time>
      </trkpt>
      <trkpt lat="48.731815" lon="10.044320">
        <ele>669.309844</ele>
        <time>2024-03-17T10:36:54.000Z</time>
      </trkpt>
      <trkpt lat="48.731786" lon="10.044505">
        <ele>669.579180</ele>
        <time>2024-03-17T10:36:56.000Z</time>
      </trkpt>
      <trkpt lat="48.731756" lon="10.044687">
        <ele>669.844897</ele>
        <time>2024-03-17T10:36:58.000Z</time>
      </trkpt>
      <trkpt lat="48.731724" lon="10.044871">
        <ele>670.114426</ele>
        <time>2024-03-17T10:37:00.000Z</time>
      </trkpt>
      <trkpt lat="48.731692" lon="10.045056">
        <ele>670.385325</ele>
        <time>2024-03-17T10:37:02.000Z</time>
      </trkpt>
      <trkpt lat="48.731654" lon="10.045241">
        <ele>670.656605</ele>
        <time>2024-03-17T10:37:04.000Z</time>
      </trkpt>
      <trkpt lat="48.731622" lon="10.045428">
        <ele>670.749767</ele>
        <time>2024-03-17T10:37:06.000Z</time>
      </trkpt>
      <trkpt lat="48.731589" lon="10.045613">
        <ele>670.842184</ele>
        <time>2024-03-17T10:37:08.000Z</time>
      </trkpt>
      <trkpt lat="48.731553" lon="10.045798">
        <ele>670.935198</ele>
        <time>2024-03-17T10:37:10.000Z</time>
      </trkpt>
      <trkpt lat="48.731519" lon="10.045987">
        <ele>671.029668</ele>
        <time>2024-03-17T10:37:12.000Z</time>
      </trkpt>
      <trkpt lat="48.731481" lon="10.046179">
        <ele>671.126335</ele>
        <time>2024-03-17T10:37:14.000Z</time>
      </trkpt>
      <trkpt lat="48.731436" lon="10.046361">
        <ele>671.220064</ele>
        <time>2024-03-17T10:37:16.000Z</time>
      </trkpt>
      <trkpt lat="48.731381" lon="10.046547">
        <ele>671.318360</ele>
        <time>2024-03-17T10:37:18.000Z</time>
      </trkpt>
      <trkpt lat="48.731311" lon="10.046720">
        <ele>671.416232</ele>
        <time>2024-03-17T10:37:20.000Z</time>
      </trkpt>
      <trkpt lat="48.731230" lon="10.046887">
        <ele>671.516194</ele>
        <time>2024-03-17T10:37:22.000Z</time>
      </trkpt>
      <trkpt lat="48.731136" lon="10.047047">
        <ele>671.619520</ele>
        <time>2024-03-17T10:37:23.999Z</time>
      </trkpt>
      <trkpt lat="48.731035" lon="10.047204">
        <ele>671.725278</ele>
        <time>2024-03-17T10:37:25.999Z</time>
      </trkpt>
      <trkpt lat="48.730933" lon="10.047362">
        <ele>671.831892</ele>
        <time>2024-03-17T10:37:27.999Z</time>
      </trkpt>
      <trkpt lat="48.730829" lon="10.047522">
        <ele>671.940218</ele>
        <time>2024-03-17T10:37:29.999Z</time>
      </trkpt>
      <trkpt lat="48.730728" lon="10.047688">
        <ele>671.747807</ele>
        <time>2024-03-17T10:37:31.999Z</time>
      </trkpt>
      <trkpt lat="48.730623" lon="10.047850">
        <ele>671.440416</ele>
        <time>2024-03-17T10:37:33.999Z</time>
      </trkpt>
      <trkpt lat="48.730524" lon="10.048014">
        <ele>671.139534</ele>
        <time>2024-03-17T10:37:35.999Z</time>
      </trkpt>
      <trkpt lat="48.730432" lon="10.048185">
        <ele>670.840876</ele>
        <time>2024-03-17T10:37:37.999Z</time>
      </trkpt>
      <trkpt lat="48.730343" lon="10.048373">
        <ele>670.527682</ele>
        <time>2024-03-17T10:37:39.999Z</time>
      </trkpt>
      <trkpt lat="48.730258" lon="10.048574">
        <ele>670.204536</ele>
        <time>2024-03-17T10:37:41.999Z</time>
      </trkpt>
      <trkpt lat="48.730185" lon="10.048795">
        <ele>669.870020</ele>
        <time>2024-03-17T10:37:43.999Z</time>
      </trkpt>
      <trkpt lat="48.730120" lon="10.049020">
        <ele>669.537573</ele>
        <time>2024-03-17T10:37:45.999Z</time>
      </trkpt>
      <trkpt lat="48.730070" lon="10.049256">
        <ele>669.202092</ele>
        <time>2024-03-17T10:37:47.999Z</time>
      </trkpt>
      <trkpt lat="48.730013" lon="10.049502">
        <ele>668.849203</ele>
        <time>2024-03-17T10:37:49.999Z</time>
      </trkpt>
      <trkpt lat="48.729966" lon="10.049757">
        <ele>668.490858</ele>
        <time>2024-03-17T10:37:51.999Z</time>
      </trkpt>
      <trkpt lat="48.729942" lon="10.049890">
        <ele>668.304237</ele>
        <time>2024-03-17T10:37:52.999Z</time>
      </trkpt>
      <trkpt lat="48.729922" lon="10.050024">
        <ele>667.937998</ele>
        <time>2024-03-17T10:37:53.999Z</time>
      </trkpt>
      <trkpt lat="48.729898" lon="10.050159">
        <ele>667.536974</ele>
        <time>2024-03-17T10:37:54.999Z</time>
      </trkpt>
      <trkpt lat="48.729881" lon="10.050296">
        <ele>667.137137</ele>
        <time>2024-03-17T10:37:55.999Z</time>
      </trkpt>
      <trkpt lat="48.729840" lon="10.050437">
        <ele>666.695167</ele>
        <time>2024-03-17T10:37:56.999Z</time>
      </trkpt>
      <trkpt lat="48.729831" lon="10.050595">
        <ele>666.240304</ele>
        <time>2024-03-17T10:37:57.999Z</time>
      </trkpt>
      <trkpt lat="48.729802" lon="10.050747">
        <ele>665.786466</ele>
        <time>2024-03-17T10:37:58.999Z</time>
      </trkpt>
      <trkpt lat="48.729776" lon="10.050908">
        <ele>665.311046</ele>
        <time>2024-03-17T10:37:59.999Z</time>
      </trkpt>
      <trkpt lat="48.729749" lon="10.051070">
        <ele>664.831793</ele>
        <time>2024-03-17T10:38:00.999Z</time>
      </trkpt>
      <trkpt lat="48.729723" lon="10.051234">
        <ele>664.348010</ele>
        <time>2024-03-17T10:38:01.999Z</time>
      </trkpt>
      <trkpt lat="48.729695" lon="10.051400">
        <ele>663.856566</ele>
        <time>2024-03-17T10:38:02.999Z</time>
      </trkpt>
      <trkpt lat="48.729669" lon="10.051568">
        <ele>663.361620</ele>
        <time>2024-03-17T10:38:03.999Z</time>
      </trkpt>
      <trkpt lat="48.729638" lon="10.051733">
        <ele>662.869542</ele>
        <time>2024-03-17T10:38:04.999Z</time>
      </trkpt>
      <trkpt lat="48.729611" lon="10.051894">
        <ele>662.393067</ele>
        <time>2024-03-17T10:38:05.999Z</time>
      </trkpt>
      <trkpt lat="48.729586" lon="10.052057">
        <ele>661.913076</ele>
        <time>2024-03-17T10:38:06.999Z</time>
      </trkpt>
      <trkpt lat="48.729560" lon="10.052219">
        <ele>661.434867</ele>
        <time>2024-03-17T10:38:07.999Z</time>
      </trkpt>
      <trkpt lat="48.729531" lon="10.052378">
        <ele>660.961707</ele>
        <time>2024-03-17T10:38:08.999Z</time>
      </trkpt>
      <trkpt lat="48.729505" lon="10.052535">
        <ele>660.497420</ele>
        <time>2024-03-17T10:38:09.999Z</time>
      </trkpt>
      <trkpt lat="48.729476" lon="10.052695">
        <ele>660.087724</ele>
        <time>2024-03-17T10:38:10.999Z</time>
      </trkpt>
      <trkpt lat="48.729448" lon="10.052853">
        <ele>659.689626</ele>
        <time>2024-03-17T10:38:11.999Z</time>
      </trkpt>
      <trkpt lat="48.729421" lon="10.053007">
        <ele>659.301883</ele>
        <time>2024-03-17T10:38:12.999Z</time>
      </trkpt>
      <trkpt lat="48.729392" lon="10.053162">
        <ele>658.909839</ele>
        <time>2024-03-17T10:38:13.999Z</time>
      </trkpt>
      <trkpt lat="48.729355" lon="10.053312">
        <ele>658.520155</ele>
        <time>2024-03-17T10:38:14.999Z</time>
      </trkpt>
      <trkpt lat="48.729307" lon="10.053461">
        <ele>658.116660</ele>
        <time>2024-03-17T10:38:15.999Z</time>
      </trkpt>
      <trkpt lat="48.729259" lon="10.053606">
        <ele>657.721887</ele>
        <time>2024-03-17T10:38:16.999Z</time>
      </trkpt>
      <trkpt lat="48.729213" lon="10.053755">
        <ele>657.321574</ele>
        <time>2024-03-17T10:38:17.999Z</time>
      </trkpt>
      <trkpt lat="48.729166" lon="10.053905">
        <ele>656.917487</ele>
        <time>2024-03-17T10:38:18.999Z</time>
      </trkpt>
      <trkpt lat="48.729117" lon="10.054055">
        <ele>656.510179</ele>
        <time>2024-03-17T10:38:19.999Z</time>
      </trkpt>
      <trkpt lat="48.729071" lon="10.054204">
        <ele>656.109866</ele>
        <time>2024-03-17T10:38:20.999Z</time>
      </trkpt>
      <trkpt lat="48.729031" lon="10.054356">
        <ele>655.711650</ele>
        <time>2024-03-17T10:38:21.999Z</time>
      </trkpt>
      <trkpt lat="48.728988" lon="10.054506">
        <ele>655.313669</ele>
        <time>2024-03-17T10:38:22.999Z</time>
      </trkpt>
      <trkpt lat="48.728962" lon="10.054665">
        <ele>654.915056</ele>
        <time>2024-03-17T10:38:23.999Z</time>
      </trkpt>
      <trkpt lat="48.728941" lon="10.054823">
        <ele>654.522861</ele>
        <time>2024-03-17T10:38:24.999Z</time>
      </trkpt>
      <trkpt lat="48.728925" lon="10.054982">
        <ele>654.131483</ele>
        <time>2024-03-17T10:38:25.999Z</time>
      </trkpt>
      <trkpt lat="48.728917" lon="10.055138">
        <ele>653.801899</ele>
        <time>2024-03-17T10:38:26.999Z</time>
      </trkpt>
      <trkpt lat="48.728913" lon="10.055292">
        <ele>653.692063</ele>
        <time>2024-03-17T10:38:27.999Z</time>
      </trkpt>
      <trkpt lat="48.728913" lon="10.055443">
        <ele>653.584450</ele>
        <time>2024-03-17T10:38:28.999Z</time>
      </trkpt>
      <trkpt lat="48.728918" lon="10.055589">
        <ele>653.480260</ele>
        <time>2024-03-17T10:38:29.999Z</time>
      </trkpt>
      <trkpt lat="48.728929" lon="10.055730">
        <ele>653.379073</ele>
        <time>2024-03-17T10:38:30.999Z</time>
      </trkpt>
      <trkpt lat="48.728944" lon="10.055866">
        <ele>653.280805</ele>
        <time>2024-03-17T10:38:31.999Z</time>
      </trkpt>
      <trkpt lat="48.728980" lon="10.056129">
        <ele>653.089380</ele>
        <time>2024-03-17T10:38:33.999Z</time>
      </trkpt>
      <trkpt lat="48.729020" lon="10.056387">
        <ele>652.900501</ele>
        <time>2024-03-17T10:38:35.999Z</time>
      </trkpt>
      <trkpt lat="48.729064" lon="10.056649">
        <ele>652.707825</ele>
        <time>2024-03-17T10:38:37.999Z</time>
      </trkpt>
      <trkpt lat="48.729107" lon="10.056911">
        <ele>652.515414</ele>
        <time>2024-03-17T10:38:39.999Z</time>
      </trkpt>
      <trkpt lat="48.729157" lon="10.057172">
        <ele>652.321722</ele>
        <time>2024-03-17T10:38:41.999Z</time>
      </trkpt>
      <trkpt lat="48.729186" lon="10.057303">
        <ele>652.223245</ele>
        <time>2024-03-17T10:38:43.000Z</time>
      </trkpt>
      <trkpt lat="48.729245" lon="10.057555">
        <ele>652.032676</ele>
        <time>2024-03-17T10:38:45.000Z</time>
      </trkpt>
      <trkpt lat="48.729312" lon="10.057795">
        <ele>651.894905</ele>
        <time>2024-03-17T10:38:47.000Z</time>
      </trkpt>
      <trkpt lat="48.729375" lon="10.058039">
        <ele>651.980769</ele>
        <time>2024-03-17T10:38:49.000Z</time>
      </trkpt>
      <trkpt lat="48.729441" lon="10.058281">
        <ele>652.066580</ele>
        <time>2024-03-17T10:38:51.000Z</time>
      </trkpt>
      <trkpt lat="48.729506" lon="10.058522">
        <ele>652.151900</ele>
        <time>2024-03-17T10:38:53.000Z</time>
      </trkpt>
      <trkpt lat="48.729563" lon="10.058756">
        <ele>652.233640</ele>
        <time>2024-03-17T10:38:55.000Z</time>
      </trkpt>
      <trkpt lat="48.729618" lon="10.058998">
        <ele>652.317516</ele>
        <time>2024-03-17T10:38:57.000Z</time>
      </trkpt>
      <trkpt lat="48.729652" lon="10.059246">
        <ele>652.400519</ele>
        <time>2024-03-17T10:38:59.000Z</time>
      </trkpt>
      <trkpt lat="48.729694" lon="10.059494">
        <ele>652.484421</ele>
        <time>2024-03-17T10:39:01.000Z</time>
      </trkpt>
      <trkpt lat="48.729749" lon="10.059737">
        <ele>652.568607</ele>
        <time>2024-03-17T10:39:03.000Z</time>
      </trkpt>
      <trkpt lat="48.729789" lon="10.059988">
        <ele>652.653222</ele>
        <time>2024-03-17T10:39:05.000Z</time>
      </trkpt>
      <trkpt lat="48.729825" lon="10.060242">
        <ele>652.738354</ele>
        <time>2024-03-17T10:39:07.000Z</time>
      </trkpt>
      <trkpt lat="48.729853" lon="10.060494">
        <ele>653.142123</ele>
        <time>2024-03-17T10:39:09.000Z</time>
      </trkpt>
      <trkpt lat="48.729866" lon="10.060747">
        <ele>653.771150</ele>
        <time>2024-03-17T10:39:11.000Z</time>
      </trkpt>
      <trkpt lat="48.729860" lon="10.060979">
        <ele>654.346665</ele>
        <time>2024-03-17T10:39:13.000Z</time>
      </trkpt>
      <trkpt lat="48.729839" lon="10.061192">
        <ele>654.880508</ele>
        <time>2024-03-17T10:39:15.000Z</time>
      </trkpt>
      <trkpt lat="48.729817" lon="10.061396">
        <ele>655.392890</ele>
        <time>2024-03-17T10:39:17.000Z</time>
      </trkpt>
      <trkpt lat="48.729795" lon="10.061593">
        <ele>655.888156</ele>
        <time>2024-03-17T10:39:19.000Z</time>
      </trkpt>
      <trkpt lat="48.729783" lon="10.061768">
        <ele>656.324279</ele>
        <time>2024-03-17T10:39:21.000Z</time>
      </trkpt>
      <trkpt lat="48.729785" lon="10.061944">
        <ele>656.760607</ele>
        <time>2024-03-17T10:39:23.000Z</time>
      </trkpt>
      <trkpt lat="48.729780" lon="10.062114">
        <ele>657.182416</ele>
        <time>2024-03-17T10:39:25.000Z</time>
      </trkpt>
      <trkpt lat="48.729782" lon="10.062289">
        <ele>657.616266</ele>
        <time>2024-03-17T10:39:27.000Z</time>
      </trkpt>
      <trkpt lat="48.729802" lon="10.062458">
        <ele>658.041866</ele>
        <time>2024-03-17T10:39:28.999Z</time>
      </trkpt>
      <trkpt lat="48.729827" lon="10.062624">
        <ele>658.463931</ele>
        <time>2024-03-17T10:39:30.999Z</time>
      </trkpt>
      <trkpt lat="48.729848" lon="10.062790">
        <ele>658.882905</ele>
        <time>2024-03-17T10:39:32.999Z</time>
      </trkpt>
      <trkpt lat="48.729866" lon="10.062947">
        <ele>659.277906</ele>
        <time>2024-03-17T10:39:34.999Z</time>
      </trkpt>
      <trkpt lat="48.729891" lon="10.063098">
        <ele>659.725871</ele>
        <time>2024-03-17T10:39:36.999Z</time>
      </trkpt>
      <trkpt lat="48.729909" lon="10.063246">
        <ele>660.275234</ele>
        <time>2024-03-17T10:39:38.999Z</time>
      </trkpt>
      <trkpt lat="48.729920" lon="10.063394">
        <ele>660.818909</ele>
        <time>2024-03-17T10:39:40.999Z</time>
      </trkpt>
      <trkpt lat="48.729925" lon="10.063551">
        <ele>661.392686</ele>
        <time>2024-03-17T10:39:42.999Z</time>
      </trkpt>
      <trkpt lat="48.729931" lon="10.063702">
        <ele>661.944892</ele>
        <time>2024-03-17T10:39:44.999Z</time>
      </trkpt>
      <trkpt lat="48.729923" lon="10.063861">
        <ele>662.526988</ele>
        <time>2024-03-17T10:39:46.999Z</time>
      </trkpt>
      <trkpt lat="48.729921" lon="10.064008">
        <ele>663.063708</ele>
        <time>2024-03-17T10:39:48.999Z</time>
      </trkpt>
      <trkpt lat="48.729891" lon="10.064141">
        <ele>663.576811</ele>
        <time>2024-03-17T10:39:50.999Z</time>
      </trkpt>
      <trkpt lat="48.729886" lon="10.064300">
        <ele>664.157880</ele>
        <time>2024-03-17T10:39:54.999Z</time>
      </trkpt>
      <trkpt lat="48.729841" lon="10.064497">
        <ele>664.918906</ele>
        <time>2024-03-17T10:39:55.999Z</time>
      </trkpt>
      <trkpt lat="48.729819" lon="10.064641">
        <ele>665.458477</ele>
        <time>2024-03-17T10:39:57.999Z</time>
      </trkpt>
      <trkpt lat="48.729799" lon="10.064792">
        <ele>666.020689</ele>
        <time>2024-03-17T10:39:59.999Z</time>
      </trkpt>
      <trkpt lat="48.729766" lon="10.064931">
        <ele>666.559958</ele>
        <time>2024-03-17T10:40:01.999Z</time>
      </trkpt>
      <trkpt lat="48.729738" lon="10.065081">
        <ele>667.129020</ele>
        <time>2024-03-17T10:40:03.999Z</time>
      </trkpt>
      <trkpt lat="48.729719" lon="10.065223">
        <ele>667.657933</ele>
        <time>2024-03-17T10:40:05.999Z</time>
      </trkpt>
      <trkpt lat="48.729708" lon="10.065375">
        <ele>668.216122</ele>
        <time>2024-03-17T10:40:07.999Z</time>
      </trkpt>
      <trkpt lat="48.729684" lon="10.065521">
        <ele>668.765380</ele>
        <time>2024-03-17T10:40:09.999Z</time>
      </trkpt>
      <trkpt lat="48.729648" lon="10.065663">
        <ele>669.320705</ele>
        <time>2024-03-17T10:40:11.999Z</time>
      </trkpt>
      <trkpt lat="48.729635" lon="10.065808">
        <ele>669.634800</ele>
        <time>2024-03-17T10:40:13.999Z</time>
      </trkpt>
      <trkpt lat="48.729615" lon="10.065953">
        <ele>669.852518</ele>
        <time>2024-03-17T10:40:15.999Z</time>
      </trkpt>
      <trkpt lat="48.729615" lon="10.066102">
        <ele>670.071505</ele>
        <time>2024-03-17T10:40:17.999Z</time>
      </trkpt>
      <trkpt lat="48.729605" lon="10.066260">
        <ele>670.304786</ele>
        <time>2024-03-17T10:40:19.999Z</time>
      </trkpt>
      <trkpt lat="48.729597" lon="10.066415">
        <ele>670.533288</ele>
        <time>2024-03-17T10:40:21.999Z</time>
      </trkpt>
      <trkpt lat="48.729583" lon="10.066572">
        <ele>670.766132</ele>
        <time>2024-03-17T10:40:23.999Z</time>
      </trkpt>
      <trkpt lat="48.729569" lon="10.066726">
        <ele>670.994607</ele>
        <time>2024-03-17T10:40:25.999Z</time>
      </trkpt>
      <trkpt lat="48.729554" lon="10.066886">
        <ele>671.232125</ele>
        <time>2024-03-17T10:40:27.999Z</time>
      </trkpt>
      <trkpt lat="48.729535" lon="10.067046">
        <ele>671.471060</ele>
        <time>2024-03-17T10:40:29.999Z</time>
      </trkpt>
      <trkpt lat="48.729510" lon="10.067201">
        <ele>671.705577</ele>
        <time>2024-03-17T10:40:31.999Z</time>
      </trkpt>
      <trkpt lat="48.729472" lon="10.067357">
        <ele>671.949987</ele>
        <time>2024-03-17T10:40:33.999Z</time>
      </trkpt>
      <trkpt lat="48.729425" lon="10.067509">
        <ele>672.196712</ele>
        <time>2024-03-17T10:40:35.999Z</time>
      </trkpt>
      <trkpt lat="48.729370" lon="10.067659">
        <ele>672.448941</ele>
        <time>2024-03-17T10:40:37.999Z</time>
      </trkpt>
      <trkpt lat="48.729310" lon="10.067807">
        <ele>672.704258</ele>
        <time>2024-03-17T10:40:39.999Z</time>
      </trkpt>
      <trkpt lat="48.729244" lon="10.067952">
        <ele>672.963182</ele>
        <time>2024-03-17T10:40:41.999Z</time>
      </trkpt>
      <trkpt lat="48.729171" lon="10.068101">
        <ele>673.235969</ele>
        <time>2024-03-17T10:40:43.999Z</time>
      </trkpt>
      <trkpt lat="48.729100" lon="10.068244">
        <ele>673.489353</ele>
        <time>2024-03-17T10:40:45.999Z</time>
      </trkpt>
      <trkpt lat="48.729027" lon="10.068392">
        <ele>673.226760</ele>
        <time>2024-03-17T10:40:47.999Z</time>
      </trkpt>
      <trkpt lat="48.728949" lon="10.068541">
        <ele>672.956466</ele>
        <time>2024-03-17T10:40:50.000Z</time>
      </trkpt>
      <trkpt lat="48.728876" lon="10.068706">
        <ele>672.674155</ele>
        <time>2024-03-17T10:40:52.000Z</time>
      </trkpt>
      <trkpt lat="48.728821" lon="10.068888">
        <ele>672.389693</ele>
        <time>2024-03-17T10:40:54.000Z</time>
      </trkpt>
      <trkpt lat="48.728781" lon="10.069083">
        <ele>672.099518</ele>
        <time>2024-03-17T10:40:56.000Z</time>
      </trkpt>
      <trkpt lat="48.728770" lon="10.069287">
        <ele>671.808677</ele>
        <time>2024-03-17T10:40:58.000Z</time>
      </trkpt>
      <trkpt lat="48.728794" lon="10.069506">
        <ele>671.493223</ele>
        <time>2024-03-17T10:41:00.000Z</time>
      </trkpt>
      <trkpt lat="48.728837" lon="10.069727">
        <ele>671.165815</ele>
        <time>2024-03-17T10:41:02.000Z</time>
      </trkpt>
      <trkpt lat="48.728880" lon="10.069954">
        <ele>670.830222</ele>
        <time>2024-03-17T10:41:04.000Z</time>
      </trkpt>
      <trkpt lat="48.728901" lon="10.070188">
        <ele>670.494656</ele>
        <time>2024-03-17T10:41:06.000Z</time>
      </trkpt>
      <trkpt lat="48.728901" lon="10.070434">
        <ele>670.145103</ele>
        <time>2024-03-17T10:41:08.000Z</time>
      </trkpt>
      <trkpt lat="48.728911" lon="10.070672">
        <ele>669.806231</ele>
        <time>2024-03-17T10:41:10.000Z</time>
      </trkpt>
      <trkpt lat="48.728939" lon="10.070919">
        <ele>669.135169</ele>
        <time>2024-03-17T10:41:12.000Z</time>
      </trkpt>
      <trkpt lat="48.729001" lon="10.071164">
        <ele>668.068994</ele>
        <time>2024-03-17T10:41:14.000Z</time>
      </trkpt>
      <trkpt lat="48.729042" lon="10.071289">
        <ele>667.501796</ele>
        <time>2024-03-17T10:41:15.000Z</time>
      </trkpt>
      <trkpt lat="48.729084" lon="10.071418">
        <ele>666.917302</ele>
        <time>2024-03-17T10:41:16.000Z</time>
      </trkpt>
      <trkpt lat="48.729124" lon="10.071553">
        <ele>666.316004</ele>
        <time>2024-03-17T10:41:17.000Z</time>
      </trkpt>
      <trkpt lat="48.729168" lon="10.071693">
        <ele>665.685920</ele>
        <time>2024-03-17T10:41:18.000Z</time>
      </trkpt>
      <trkpt lat="48.729212" lon="10.071837">
        <ele>665.041128</ele>
        <time>2024-03-17T10:41:19.000Z</time>
      </trkpt>
      <trkpt lat="48.729248" lon="10.071991">
        <ele>664.377299</ele>
        <time>2024-03-17T10:41:20.000Z</time>
      </trkpt>
      <trkpt lat="48.729276" lon="10.072153">
        <ele>663.696878</ele>
        <time>2024-03-17T10:41:21.000Z</time>
      </trkpt>
      <trkpt lat="48.729271" lon="10.072331">
        <ele>662.973014</ele>
        <time>2024-03-17T10:41:22.000Z</time>
      </trkpt>
      <trkpt lat="48.729248" lon="10.072509">
        <ele>662.236060</ele>
        <time>2024-03-17T10:41:23.000Z</time>
      </trkpt>
      <trkpt lat="48.729198" lon="10.072677">
        <ele>661.487218</ele>
        <time>2024-03-17T10:41:24.000Z</time>
      </trkpt>
      <trkpt lat="48.729119" lon="10.072830">
        <ele>660.697777</ele>
        <time>2024-03-17T10:41:25.000Z</time>
      </trkpt>
      <trkpt lat="48.729025" lon="10.072954">
        <ele>659.930271</ele>
        <time>2024-03-17T10:41:26.000Z</time>
      </trkpt>
      <trkpt lat="48.728917" lon="10.073046">
        <ele>659.167211</ele>
        <time>2024-03-17T10:41:27.000Z</time>
      </trkpt>
      <trkpt lat="48.728799" lon="10.073101">
        <ele>658.469341</ele>
        <time>2024-03-17T10:41:28.000Z</time>
      </trkpt>
      <trkpt lat="48.728678" lon="10.073130">
        <ele>658.067434</ele>
        <time>2024-03-17T10:41:29.000Z</time>
      </trkpt>
      <trkpt lat="48.728561" lon="10.073137">
        <ele>657.683282</ele>
        <time>2024-03-17T10:41:30.000Z</time>
      </trkpt>
      <trkpt lat="48.728440" lon="10.073154">
        <ele>657.284604</ele>
        <time>2024-03-17T10:41:31.000Z</time>
      </trkpt>
      <trkpt lat="48.728329" lon="10.073164">
        <ele>656.919793</ele>
        <time>2024-03-17T10:41:32.000Z</time>
      </trkpt>
      <trkpt lat="48.728220" lon="10.073174">
        <ele>656.561532</ele>
        <time>2024-03-17T10:41:33.000Z</time>
      </trkpt>
      <trkpt lat="48.728110" lon="10.073184">
        <ele>656.199996</ele>
        <time>2024-03-17T10:41:34.000Z</time>
      </trkpt>
      <trkpt lat="48.728003" lon="10.073191">
        <ele>655.848624</ele>
        <time>2024-03-17T10:41:34.999Z</time>
      </trkpt>
      <trkpt lat="48.727897" lon="10.073203">
        <ele>655.499891</ele>
        <time>2024-03-17T10:41:35.999Z</time>
      </trkpt>
      <trkpt lat="48.727793" lon="10.073217">
        <ele>655.157345</ele>
        <time>2024-03-17T10:41:36.999Z</time>
      </trkpt>
      <trkpt lat="48.727690" lon="10.073230">
        <ele>654.818254</ele>
        <time>2024-03-17T10:41:37.999Z</time>
      </trkpt>
      <trkpt lat="48.727587" lon="10.073239">
        <ele>654.479771</ele>
        <time>2024-03-17T10:41:38.999Z</time>
      </trkpt>
      <trkpt lat="48.727486" lon="10.073254">
        <ele>654.146824</ele>
        <time>2024-03-17T10:41:39.999Z</time>
      </trkpt>
      <trkpt lat="48.727387" lon="10.073268">
        <ele>653.820615</ele>
        <time>2024-03-17T10:41:40.999Z</time>
      </trkpt>
      <trkpt lat="48.727287" lon="10.073282">
        <ele>653.491139</ele>
        <time>2024-03-17T10:41:41.999Z</time>
      </trkpt>
      <trkpt lat="48.727187" lon="10.073300">
        <ele>653.160755</ele>
        <time>2024-03-17T10:41:42.999Z</time>
      </trkpt>
      <trkpt lat="48.727087" lon="10.073323">
        <ele>652.828920</ele>
        <time>2024-03-17T10:41:43.999Z</time>
      </trkpt>
      <trkpt lat="48.726987" lon="10.073341">
        <ele>652.470791</ele>
        <time>2024-03-17T10:41:44.999Z</time>
      </trkpt>
      <trkpt lat="48.726887" lon="10.073355">
        <ele>652.076525</ele>
        <time>2024-03-17T10:41:45.999Z</time>
      </trkpt>
      <trkpt lat="48.726784" lon="10.073361">
        <ele>651.671852</ele>
        <time>2024-03-17T10:41:46.999Z</time>
      </trkpt>
      <trkpt lat="48.726675" lon="10.073366">
        <ele>651.243727</ele>
        <time>2024-03-17T10:41:47.999Z</time>
      </trkpt>
      <trkpt lat="48.726571" lon="10.073368">
        <ele>650.835394</ele>
        <time>2024-03-17T10:41:48.999Z</time>
      </trkpt>
      <trkpt lat="48.726464" lon="10.073363">
        <ele>650.415117</ele>
        <time>2024-03-17T10:41:49.999Z</time>
      </trkpt>
      <trkpt lat="48.726359" lon="10.073351">
        <ele>650.001721</ele>
        <time>2024-03-17T10:41:50.999Z</time>
      </trkpt>
      <trkpt lat="48.726260" lon="10.073331">
        <ele>649.609615</ele>
        <time>2024-03-17T10:41:51.999Z</time>
      </trkpt>
      <trkpt lat="48.726159" lon="10.073318">
        <ele>649.211667</ele>
        <time>2024-03-17T10:41:52.999Z</time>
      </trkpt>
      <trkpt lat="48.726066" lon="10.073317">
        <ele>648.846543</ele>
        <time>2024-03-17T10:41:53.999Z</time>
      </trkpt>
      <trkpt lat="48.725932" lon="10.073416">
        <ele>648.261313</ele>
        <time>2024-03-17T10:41:55.999Z</time>
      </trkpt>
      <trkpt lat="48.725876" lon="10.073666">
        <ele>647.577552</ele>
        <time>2024-03-17T10:41:57.999Z</time>
      </trkpt>
      <trkpt lat="48.725812" lon="10.073904">
        <ele>646.911932</ele>
        <time>2024-03-17T10:41:59.999Z</time>
      </trkpt>
      <trkpt lat="48.725727" lon="10.074143">
        <ele>646.208740</ele>
        <time>2024-03-17T10:42:01.999Z</time>
      </trkpt>
      <trkpt lat="48.725643" lon="10.074386">
        <ele>645.526660</ele>
        <time>2024-03-17T10:42:03.999Z</time>
      </trkpt>
      <trkpt lat="48.725603" lon="10.074509">
        <ele>645.297689</ele>
        <time>2024-03-17T10:42:04.999Z</time>
      </trkpt>
      <trkpt lat="48.725560" lon="10.074631">
        <ele>645.066736</ele>
        <time>2024-03-17T10:42:05.999Z</time>
      </trkpt>
      <trkpt lat="48.725517" lon="10.074756">
        <ele>644.831352</ele>
        <time>2024-03-17T10:42:06.999Z</time>
      </trkpt>
      <trkpt lat="48.725475" lon="10.074884">
        <ele>644.592653</ele>
        <time>2024-03-17T10:42:07.999Z</time>
      </trkpt>
      <trkpt lat="48.725430" lon="10.075011">
        <ele>644.351950</ele>
        <time>2024-03-17T10:42:08.999Z</time>
      </trkpt>
      <trkpt lat="48.725383" lon="10.075130">
        <ele>644.120367</ele>
        <time>2024-03-17T10:42:09.999Z</time>
      </trkpt>
      <trkpt lat="48.725338" lon="10.075253">
        <ele>643.885525</ele>
        <time>2024-03-17T10:42:10.999Z</time>
      </trkpt>
      <trkpt lat="48.725298" lon="10.075378">
        <ele>643.653554</ele>
        <time>2024-03-17T10:42:11.999Z</time>
      </trkpt>
      <trkpt lat="48.725268" lon="10.075507">
        <ele>643.425171</ele>
        <time>2024-03-17T10:42:12.999Z</time>
      </trkpt>
      <trkpt lat="48.725239" lon="10.075641">
        <ele>643.189700</ele>
        <time>2024-03-17T10:42:13.999Z</time>
      </trkpt>
      <trkpt lat="48.725187" lon="10.075762">
        <ele>642.948577</ele>
        <time>2024-03-17T10:42:14.999Z</time>
      </trkpt>
      <trkpt lat="48.725151" lon="10.075892">
        <ele>642.713167</ele>
        <time>2024-03-17T10:42:15.999Z</time>
      </trkpt>
      <trkpt lat="48.725113" lon="10.076024">
        <ele>642.472694</ele>
        <time>2024-03-17T10:42:16.999Z</time>
      </trkpt>
      <trkpt lat="48.725076" lon="10.076158">
        <ele>642.230146</ele>
        <time>2024-03-17T10:42:17.999Z</time>
      </trkpt>
      <trkpt lat="48.725040" lon="10.076291">
        <ele>641.990109</ele>
        <time>2024-03-17T10:42:18.999Z</time>
      </trkpt>
      <trkpt lat="48.725004" lon="10.076425">
        <ele>641.748526</ele>
        <time>2024-03-17T10:42:19.999Z</time>
      </trkpt>
      <trkpt lat="48.724969" lon="10.076561">
        <ele>641.504779</ele>
        <time>2024-03-17T10:42:20.999Z</time>
      </trkpt>
      <trkpt lat="48.724950" lon="10.076706">
        <ele>641.257942</ele>
        <time>2024-03-17T10:42:21.999Z</time>
      </trkpt>
      <trkpt lat="48.724917" lon="10.076842">
        <ele>641.016709</ele>
        <time>2024-03-17T10:42:22.999Z</time>
      </trkpt>
      <trkpt lat="48.724886" lon="10.076973">
        <ele>640.801598</ele>
        <time>2024-03-17T10:42:23.999Z</time>
      </trkpt>
      <trkpt lat="48.724850" lon="10.077102">
        <ele>640.585105</ele>
        <time>2024-03-17T10:42:24.999Z</time>
      </trkpt>
      <trkpt lat="48.724818" lon="10.077231">
        <ele>640.372088</ele>
        <time>2024-03-17T10:42:25.999Z</time>
      </trkpt>
      <trkpt lat="48.724758" lon="10.077484">
        <ele>639.956543</ele>
        <time>2024-03-17T10:42:27.999Z</time>
      </trkpt>
      <trkpt lat="48.724699" lon="10.077731">
        <ele>639.550515</ele>
        <time>2024-03-17T10:42:29.999Z</time>
      </trkpt>
      <trkpt lat="48.724639" lon="10.077974">
        <ele>639.149480</ele>
        <time>2024-03-17T10:42:31.999Z</time>
      </trkpt>
      <trkpt lat="48.724580" lon="10.078215">
        <ele>638.752159</ele>
        <time>2024-03-17T10:42:33.999Z</time>
      </trkpt>
      <trkpt lat="48.724528" lon="10.078454">
        <ele>638.363179</ele>
        <time>2024-03-17T10:42:35.999Z</time>
      </trkpt>
      <trkpt lat="48.724475" lon="10.078704">
        <ele>637.957306</ele>
        <time>2024-03-17T10:42:37.999Z</time>
      </trkpt>
      <trkpt lat="48.724411" lon="10.078949">
        <ele>637.550016</ele>
        <time>2024-03-17T10:42:39.999Z</time>
      </trkpt>
      <trkpt lat="48.724345" lon="10.079204">
        <ele>637.126627</ele>
        <time>2024-03-17T10:42:41.999Z</time>
      </trkpt>
      <trkpt lat="48.724312" lon="10.079334">
        <ele>636.911331</ele>
        <time>2024-03-17T10:42:42.999Z</time>
      </trkpt>
      <trkpt lat="48.724279" lon="10.079464">
        <ele>636.728137</ele>
        <time>2024-03-17T10:42:43.999Z</time>
      </trkpt>
      <trkpt lat="48.724250" lon="10.079599">
        <ele>636.569733</ele>
        <time>2024-03-17T10:42:44.999Z</time>
      </trkpt>
      <trkpt lat="48.724232" lon="10.079737">
        <ele>636.412786</ele>
        <time>2024-03-17T10:42:45.999Z</time>
      </trkpt>
      <trkpt lat="48.724217" lon="10.079876">
        <ele>636.255642</ele>
        <time>2024-03-17T10:42:46.999Z</time>
      </trkpt>
      <trkpt lat="48.724196" lon="10.080016">
        <ele>636.095456</ele>
        <time>2024-03-17T10:42:47.999Z</time>
      </trkpt>
      <trkpt lat="48.724171" lon="10.080156">
        <ele>635.933636</ele>
        <time>2024-03-17T10:42:48.999Z</time>
      </trkpt>
      <trkpt lat="48.724148" lon="10.080297">
        <ele>635.771584</ele>
        <time>2024-03-17T10:42:49.999Z</time>
      </trkpt>
      <trkpt lat="48.724126" lon="10.080438">
        <ele>635.609929</ele>
        <time>2024-03-17T10:42:50.999Z</time>
      </trkpt>
      <trkpt lat="48.724103" lon="10.080580">
        <ele>635.446794</ele>
        <time>2024-03-17T10:42:51.999Z</time>
      </trkpt>
      <trkpt lat="48.724081" lon="10.080723">
        <ele>635.282967</ele>
        <time>2024-03-17T10:42:52.999Z</time>
      </trkpt>
      <trkpt lat="48.724060" lon="10.080863">
        <ele>635.122781</ele>
        <time>2024-03-17T10:42:53.999Z</time>
      </trkpt>
      <trkpt lat="48.724037" lon="10.080999">
        <ele>634.966138</ele>
        <time>2024-03-17T10:42:55.000Z</time>
      </trkpt>
      <trkpt lat="48.724019" lon="10.081138">
        <ele>634.808095</ele>
        <time>2024-03-17T10:42:56.000Z</time>
      </trkpt>
      <trkpt lat="48.724003" lon="10.081277">
        <ele>634.650669</ele>
        <time>2024-03-17T10:42:57.000Z</time>
      </trkpt>
      <trkpt lat="48.723989" lon="10.081417">
        <ele>634.492685</ele>
        <time>2024-03-17T10:42:58.000Z</time>
      </trkpt>
      <trkpt lat="48.723978" lon="10.081557">
        <ele>634.335382</ele>
        <time>2024-03-17T10:42:59.000Z</time>
      </trkpt>
      <trkpt lat="48.723968" lon="10.081698">
        <ele>634.177161</ele>
        <time>2024-03-17T10:43:00.000Z</time>
      </trkpt>
      <trkpt lat="48.723959" lon="10.081842">
        <ele>634.015779</ele>
        <time>2024-03-17T10:43:01.000Z</time>
      </trkpt>
      <trkpt lat="48.723952" lon="10.081987">
        <ele>633.853569</ele>
        <time>2024-03-17T10:43:02.000Z</time>
      </trkpt>
      <trkpt lat="48.723945" lon="10.082131">
        <ele>633.682135</ele>
        <time>2024-03-17T10:43:03.000Z</time>
      </trkpt>
      <trkpt lat="48.723937" lon="10.082277">
        <ele>633.496736</ele>
        <time>2024-03-17T10:43:04.000Z</time>
      </trkpt>
      <trkpt lat="48.723929" lon="10.082424">
        <ele>633.310076</ele>
        <time>2024-03-17T10:43:05.000Z</time>
      </trkpt>
      <trkpt lat="48.723922" lon="10.082573">
        <ele>633.121039</ele>
        <time>2024-03-17T10:43:06.000Z</time>
      </trkpt>
      <trkpt lat="48.723914" lon="10.082720">
        <ele>632.934378</ele>
        <time>2024-03-17T10:43:07.000Z</time>
      </trkpt>
      <trkpt lat="48.723911" lon="10.082872">
        <ele>632.741936</ele>
        <time>2024-03-17T10:43:08.000Z</time>
      </trkpt>
      <trkpt lat="48.723905" lon="10.083023">
        <ele>632.550499</ele>
        <time>2024-03-17T10:43:09.000Z</time>
      </trkpt>
      <trkpt lat="48.723902" lon="10.083171">
        <ele>632.363117</ele>
        <time>2024-03-17T10:43:10.000Z</time>
      </trkpt>
      <trkpt lat="48.723898" lon="10.083321">
        <ele>632.173137</ele>
        <time>2024-03-17T10:43:11.000Z</time>
      </trkpt>
      <trkpt lat="48.723893" lon="10.083468">
        <ele>631.986861</ele>
        <time>2024-03-17T10:43:12.000Z</time>
      </trkpt>
      <trkpt lat="48.723886" lon="10.083616">
        <ele>631.799086</ele>
        <time>2024-03-17T10:43:13.000Z</time>
      </trkpt>
      <trkpt lat="48.723881" lon="10.083763">
        <ele>631.612811</ele>
        <time>2024-03-17T10:43:14.000Z</time>
      </trkpt>
      <trkpt lat="48.723873" lon="10.083910">
        <ele>631.426150</ele>
        <time>2024-03-17T10:43:15.000Z</time>
      </trkpt>
      <trkpt lat="48.723864" lon="10.084055">
        <ele>631.241842</ele>
        <time>2024-03-17T10:43:16.000Z</time>
      </trkpt>
      <trkpt lat="48.723853" lon="10.084198">
        <ele>631.059649</ele>
        <time>2024-03-17T10:43:17.000Z</time>
      </trkpt>
      <trkpt lat="48.723843" lon="10.084342">
        <ele>630.876410</ele>
        <time>2024-03-17T10:43:18.000Z</time>
      </trkpt>
      <trkpt lat="48.723830" lon="10.084484">
        <ele>630.694986</ele>
        <time>2024-03-17T10:43:19.000Z</time>
      </trkpt>
      <trkpt lat="48.723811" lon="10.084622">
        <ele>630.516584</ele>
        <time>2024-03-17T10:43:20.000Z</time>
      </trkpt>
      <trkpt lat="48.723790" lon="10.084757">
        <ele>630.341056</ele>
        <time>2024-03-17T10:43:21.000Z</time>
      </trkpt>
      <trkpt lat="48.723775" lon="10.084892">
        <ele>630.218963</ele>
        <time>2024-03-17T10:43:22.000Z</time>
      </trkpt>
      <trkpt lat="48.723758" lon="10.085027">
        <ele>630.103858</ele>
        <time>2024-03-17T10:43:23.000Z</time>
      </trkpt>
      <trkpt lat="48.723740" lon="10.085161">
        <ele>629.989330</ele>
        <time>2024-03-17T10:43:24.000Z</time>
      </trkpt>
      <trkpt lat="48.723719" lon="10.085295">
        <ele>629.873981</ele>
        <time>2024-03-17T10:43:25.000Z</time>
      </trkpt>
      <trkpt lat="48.723702" lon="10.085430">
        <ele>629.758876</ele>
        <time>2024-03-17T10:43:26.000Z</time>
      </trkpt>
      <trkpt lat="48.723684" lon="10.085568">
        <ele>629.641063</ele>
        <time>2024-03-17T10:43:27.000Z</time>
      </trkpt>
      <trkpt lat="48.723667" lon="10.085706">
        <ele>629.523489</ele>
        <time>2024-03-17T10:43:28.000Z</time>
      </trkpt>
      <trkpt lat="48.723651" lon="10.085846">
        <ele>629.404492</ele>
        <time>2024-03-17T10:43:29.000Z</time>
      </trkpt>
      <trkpt lat="48.723632" lon="10.085983">
        <ele>629.287246</ele>
        <time>2024-03-17T10:43:30.000Z</time>
      </trkpt>
      <trkpt lat="48.723615" lon="10.086123">
        <ele>629.168025</ele>
        <time>2024-03-17T10:43:31.000Z</time>
      </trkpt>
      <trkpt lat="48.723599" lon="10.086264">
        <ele>629.048202</ele>
        <time>2024-03-17T10:43:32.000Z</time>
      </trkpt>
      <trkpt lat="48.723587" lon="10.086404">
        <ele>628.929966</ele>
        <time>2024-03-17T10:43:33.000Z</time>
      </trkpt>
      <trkpt lat="48.723575" lon="10.086543">
        <ele>628.812560</ele>
        <time>2024-03-17T10:43:34.000Z</time>
      </trkpt>
      <trkpt lat="48.723562" lon="10.086680">
        <ele>628.696640</ele>
        <time>2024-03-17T10:43:35.000Z</time>
      </trkpt>
      <trkpt lat="48.723550" lon="10.086818">
        <ele>628.580065</ele>
        <time>2024-03-17T10:43:36.000Z</time>
      </trkpt>
      <trkpt lat="48.723539" lon="10.086954">
        <ele>628.465311</ele>
        <time>2024-03-17T10:43:37.000Z</time>
      </trkpt>
      <trkpt lat="48.723531" lon="10.087092">
        <ele>628.349289</ele>
        <time>2024-03-17T10:43:38.000Z</time>
      </trkpt>
      <trkpt lat="48.723525" lon="10.087230">
        <ele>628.233462</ele>
        <time>2024-03-17T10:43:39.000Z</time>
      </trkpt>
      <trkpt lat="48.723524" lon="10.087370">
        <ele>628.116204</ele>
        <time>2024-03-17T10:43:39.999Z</time>
      </trkpt>
      <trkpt lat="48.723525" lon="10.087510">
        <ele>627.966798</ele>
        <time>2024-03-17T10:43:40.999Z</time>
      </trkpt>
      <trkpt lat="48.723529" lon="10.087651">
        <ele>627.744963</ele>
        <time>2024-03-17T10:43:41.999Z</time>
      </trkpt>
      <trkpt lat="48.723535" lon="10.087794">
        <ele>627.519735</ele>
        <time>2024-03-17T10:43:42.999Z</time>
      </trkpt>
      <trkpt lat="48.723546" lon="10.087938">
        <ele>627.291878</ele>
        <time>2024-03-17T10:43:43.999Z</time>
      </trkpt>
      <trkpt lat="48.723557" lon="10.088081">
        <ele>627.065581</ele>
        <time>2024-03-17T10:43:44.999Z</time>
      </trkpt>
      <trkpt lat="48.723567" lon="10.088223">
        <ele>626.841111</ele>
        <time>2024-03-17T10:43:45.999Z</time>
      </trkpt>
      <trkpt lat="48.723577" lon="10.088366">
        <ele>626.615079</ele>
        <time>2024-03-17T10:43:46.999Z</time>
      </trkpt>
      <trkpt lat="48.723590" lon="10.088507">
        <ele>626.391295</ele>
        <time>2024-03-17T10:43:47.999Z</time>
      </trkpt>
      <trkpt lat="48.723608" lon="10.088648">
        <ele>626.165554</ele>
        <time>2024-03-17T10:43:48.999Z</time>
      </trkpt>
      <trkpt lat="48.723628" lon="10.088787">
        <ele>625.941931</ele>
        <time>2024-03-17T10:43:49.999Z</time>
      </trkpt>
      <trkpt lat="48.723650" lon="10.088925">
        <ele>625.718774</ele>
        <time>2024-03-17T10:43:50.999Z</time>
      </trkpt>
      <trkpt lat="48.723675" lon="10.089062">
        <ele>625.495345</ele>
        <time>2024-03-17T10:43:51.999Z</time>
      </trkpt>
      <trkpt lat="48.723701" lon="10.089198">
        <ele>625.272779</ele>
        <time>2024-03-17T10:43:52.999Z</time>
      </trkpt>
      <trkpt lat="48.723731" lon="10.089331">
        <ele>625.051842</ele>
        <time>2024-03-17T10:43:53.999Z</time>
      </trkpt>
      <trkpt lat="48.723764" lon="10.089462">
        <ele>624.831430</ele>
        <time>2024-03-17T10:43:54.999Z</time>
      </trkpt>
      <trkpt lat="48.723796" lon="10.089592">
        <ele>624.613329</ele>
        <time>2024-03-17T10:43:55.999Z</time>
      </trkpt>
      <trkpt lat="48.723830" lon="10.089723">
        <ele>624.392056</ele>
        <time>2024-03-17T10:43:56.999Z</time>
      </trkpt>
      <trkpt lat="48.723858" lon="10.089856">
        <ele>624.172615</ele>
        <time>2024-03-17T10:43:57.999Z</time>
      </trkpt>
      <trkpt lat="48.723885" lon="10.089994">
        <ele>623.946363</ele>
        <time>2024-03-17T10:43:58.999Z</time>
      </trkpt>
      <trkpt lat="48.723922" lon="10.090128">
        <ele>623.717123</ele>
        <time>2024-03-17T10:43:59.999Z</time>
      </trkpt>
      <trkpt lat="48.723957" lon="10.090261">
        <ele>623.485653</ele>
        <time>2024-03-17T10:44:00.999Z</time>
      </trkpt>
      <trkpt lat="48.723990" lon="10.090395">
        <ele>623.254440</ele>
        <time>2024-03-17T10:44:01.999Z</time>
      </trkpt>
      <trkpt lat="48.724020" lon="10.090534">
        <ele>623.018027</ele>
        <time>2024-03-17T10:44:02.999Z</time>
      </trkpt>
      <trkpt lat="48.724045" lon="10.090670">
        <ele>622.789807</ele>
        <time>2024-03-17T10:44:03.999Z</time>
      </trkpt>
      <trkpt lat="48.724071" lon="10.090810">
        <ele>622.554700</ele>
        <time>2024-03-17T10:44:04.999Z</time>
      </trkpt>
      <trkpt lat="48.724090" lon="10.090947">
        <ele>622.328399</ele>
        <time>2024-03-17T10:44:05.999Z</time>
      </trkpt>
      <trkpt lat="48.724107" lon="10.091086">
        <ele>622.099877</ele>
        <time>2024-03-17T10:44:06.999Z</time>
      </trkpt>
      <trkpt lat="48.724120" lon="10.091226">
        <ele>621.871336</ele>
        <time>2024-03-17T10:44:07.999Z</time>
      </trkpt>
      <trkpt lat="48.724130" lon="10.091368">
        <ele>621.640489</ele>
        <time>2024-03-17T10:44:08.999Z</time>
      </trkpt>
      <trkpt lat="48.724135" lon="10.091511">
        <ele>621.409006</ele>
        <time>2024-03-17T10:44:09.999Z</time>
      </trkpt>
      <trkpt lat="48.724135" lon="10.091652">
        <ele>621.181080</ele>
        <time>2024-03-17T10:44:10.999Z</time>
      </trkpt>
      <trkpt lat="48.724132" lon="10.091792">
        <ele>620.954651</ele>
        <time>2024-03-17T10:44:11.999Z</time>
      </trkpt>
      <trkpt lat="48.724124" lon="10.091933">
        <ele>620.725883</ele>
        <time>2024-03-17T10:44:12.999Z</time>
      </trkpt>
      <trkpt lat="48.724116" lon="10.092071">
        <ele>620.501947</ele>
        <time>2024-03-17T10:44:13.999Z</time>
      </trkpt>
      <trkpt lat="48.724092" lon="10.092340">
        <ele>620.063150</ele>
        <time>2024-03-17T10:44:15.999Z</time>
      </trkpt>
      <trkpt lat="48.724070" lon="10.092607">
        <ele>619.628191</ele>
        <time>2024-03-17T10:44:17.999Z</time>
      </trkpt>
      <trkpt lat="48.724049" lon="10.092870">
        <ele>619.206228</ele>
        <time>2024-03-17T10:44:19.999Z</time>
      </trkpt>
      <trkpt lat="48.724028" lon="10.093091">
        <ele>618.861182</ele>
        <time>2024-03-17T10:44:21.999Z</time>
      </trkpt>
      <trkpt lat="48.724006" lon="10.093230">
        <ele>618.640283</ele>
        <time>2024-03-17T10:44:23.999Z</time>
      </trkpt>
      <trkpt lat="48.724017" lon="10.093378">
        <ele>618.410125</ele>
        <time>2024-03-17T10:44:26.999Z</time>
      </trkpt>
      <trkpt lat="48.724140" lon="10.093467">
        <ele>618.090850</ele>
        <time>2024-03-17T10:44:28.999Z</time>
      </trkpt>
      <trkpt lat="48.724266" lon="10.093566">
        <ele>617.758397</ele>
        <time>2024-03-17T10:44:30.999Z</time>
      </trkpt>
      <trkpt lat="48.724406" lon="10.093684">
        <ele>617.383155</ele>
        <time>2024-03-17T10:44:32.999Z</time>
      </trkpt>
      <trkpt lat="48.724546" lon="10.093811">
        <ele>617.000961</ele>
        <time>2024-03-17T10:44:34.999Z</time>
      </trkpt>
      <trkpt lat="48.724691" lon="10.093947">
        <ele>616.601531</ele>
        <time>2024-03-17T10:44:36.999Z</time>
      </trkpt>
      <trkpt lat="48.724843" lon="10.094098">
        <ele>616.175817</ele>
        <time>2024-03-17T10:44:38.999Z</time>
      </trkpt>
      <trkpt lat="48.724999" lon="10.094249">
        <ele>615.742236</ele>
        <time>2024-03-17T10:44:40.999Z</time>
      </trkpt>
      <trkpt lat="48.725144" lon="10.094396">
        <ele>615.333607</ele>
        <time>2024-03-17T10:44:42.999Z</time>
      </trkpt>
      <trkpt lat="48.725223" lon="10.094462">
        <ele>615.123089</ele>
        <time>2024-03-17T10:44:43.999Z</time>
      </trkpt>
      <trkpt lat="48.725308" lon="10.094532">
        <ele>614.922321</ele>
        <time>2024-03-17T10:44:44.999Z</time>
      </trkpt>
      <trkpt lat="48.725390" lon="10.094605">
        <ele>614.724953</ele>
        <time>2024-03-17T10:44:45.999Z</time>
      </trkpt>
      <trkpt lat="48.725474" lon="10.094674">
        <ele>614.526663</ele>
        <time>2024-03-17T10:44:46.999Z</time>
      </trkpt>
      <trkpt lat="48.725635" lon="10.094810">
        <ele>614.144133</ele>
        <time>2024-03-17T10:44:48.999Z</time>
      </trkpt>
      <trkpt lat="48.725716" lon="10.094880">
        <ele>613.950619</ele>
        <time>2024-03-17T10:44:49.999Z</time>
      </trkpt>
      <trkpt lat="48.725797" lon="10.094956">
        <ele>613.752909</ele>
        <time>2024-03-17T10:44:50.999Z</time>
      </trkpt>
      <trkpt lat="48.725876" lon="10.095029">
        <ele>613.560885</ele>
        <time>2024-03-17T10:44:51.999Z</time>
      </trkpt>
      <trkpt lat="48.726032" lon="10.095186">
        <ele>613.172254</ele>
        <time>2024-03-17T10:44:53.999Z</time>
      </trkpt>
      <trkpt lat="48.726113" lon="10.095262">
        <ele>612.974543</ele>
        <time>2024-03-17T10:44:54.999Z</time>
      </trkpt>
      <trkpt lat="48.726195" lon="10.095338">
        <ele>612.775066</ele>
        <time>2024-03-17T10:44:55.999Z</time>
      </trkpt>
      <trkpt lat="48.726274" lon="10.095418">
        <ele>612.577884</ele>
        <time>2024-03-17T10:44:56.999Z</time>
      </trkpt>
      <trkpt lat="48.726355" lon="10.095497">
        <ele>612.377982</ele>
        <time>2024-03-17T10:44:57.999Z</time>
      </trkpt>
      <trkpt lat="48.726435" lon="10.095579">
        <ele>612.177551</ele>
        <time>2024-03-17T10:44:58.999Z</time>
      </trkpt>
      <trkpt lat="48.726513" lon="10.095660">
        <ele>611.981322</ele>
        <time>2024-03-17T10:44:59.999Z</time>
      </trkpt>
      <trkpt lat="48.726600" lon="10.095741">
        <ele>611.769420</ele>
        <time>2024-03-17T10:45:01.000Z</time>
      </trkpt>
      <trkpt lat="48.726677" lon="10.095822">
        <ele>611.574900</ele>
        <time>2024-03-17T10:45:02.000Z</time>
      </trkpt>
      <trkpt lat="48.726767" lon="10.095909">
        <ele>611.332849</ele>
        <time>2024-03-17T10:45:03.000Z</time>
      </trkpt>
      <trkpt lat="48.726849" lon="10.095997">
        <ele>611.024352</ele>
        <time>2024-03-17T10:45:04.000Z</time>
      </trkpt>
      <trkpt lat="48.726931" lon="10.096081">
        <ele>610.720465</ele>
        <time>2024-03-17T10:45:05.000Z</time>
      </trkpt>
      <trkpt lat="48.727009" lon="10.096166">
        <ele>610.425496</ele>
        <time>2024-03-17T10:45:06.000Z</time>
      </trkpt>
      <trkpt lat="48.727087" lon="10.096259">
        <ele>610.120786</ele>
        <time>2024-03-17T10:45:07.000Z</time>
      </trkpt>
      <trkpt lat="48.727159" lon="10.096357">
        <ele>609.823665</ele>
        <time>2024-03-17T10:45:08.000Z</time>
      </trkpt>
      <trkpt lat="48.727231" lon="10.096459">
        <ele>609.521071</ele>
        <time>2024-03-17T10:45:09.000Z</time>
      </trkpt>
      <trkpt lat="48.727301" lon="10.096565">
        <ele>609.217264</ele>
        <time>2024-03-17T10:45:10.000Z</time>
      </trkpt>
      <trkpt lat="48.727368" lon="10.096675">
        <ele>608.914002</ele>
        <time>2024-03-17T10:45:11.000Z</time>
      </trkpt>
      <trkpt lat="48.727431" lon="10.096788">
        <ele>608.614320</ele>
        <time>2024-03-17T10:45:12.000Z</time>
      </trkpt>
      <trkpt lat="48.727493" lon="10.096911">
        <ele>608.300770</ele>
        <time>2024-03-17T10:45:13.000Z</time>
      </trkpt>
      <trkpt lat="48.727552" lon="10.097039">
        <ele>607.984481</ele>
        <time>2024-03-17T10:45:14.000Z</time>
      </trkpt>
      <trkpt lat="48.727608" lon="10.097170">
        <ele>607.668294</ele>
        <time>2024-03-17T10:45:15.000Z</time>
      </trkpt>
      <trkpt lat="48.727657" lon="10.097309">
        <ele>607.349068</ele>
        <time>2024-03-17T10:45:16.000Z</time>
      </trkpt>
      <trkpt lat="48.727706" lon="10.097448">
        <ele>607.029842</ele>
        <time>2024-03-17T10:45:17.000Z</time>
      </trkpt>
      <trkpt lat="48.727755" lon="10.097586">
        <ele>606.712401</ele>
        <time>2024-03-17T10:45:18.000Z</time>
      </trkpt>
      <trkpt lat="48.727806" lon="10.097725">
        <ele>606.390235</ele>
        <time>2024-03-17T10:45:19.000Z</time>
      </trkpt>
      <trkpt lat="48.727855" lon="10.097867">
        <ele>606.065638</ele>
        <time>2024-03-17T10:45:20.000Z</time>
      </trkpt>
      <trkpt lat="48.727906" lon="10.098005">
        <ele>605.710383</ele>
        <time>2024-03-17T10:45:21.000Z</time>
      </trkpt>
      <trkpt lat="48.727956" lon="10.098144">
        <ele>605.302341</ele>
        <time>2024-03-17T10:45:22.000Z</time>
      </trkpt>
      <trkpt lat="48.728009" lon="10.098281">
        <ele>604.893014</ele>
        <time>2024-03-17T10:45:23.000Z</time>
      </trkpt>
      <trkpt lat="48.728064" lon="10.098416">
        <ele>604.484074</ele>
        <time>2024-03-17T10:45:24.000Z</time>
      </trkpt>
      <trkpt lat="48.728117" lon="10.098551">
        <ele>604.079186</ele>
        <time>2024-03-17T10:45:25.000Z</time>
      </trkpt>
      <trkpt lat="48.728171" lon="10.098684">
        <ele>603.676684</ele>
        <time>2024-03-17T10:45:26.000Z</time>
      </trkpt>
      <trkpt lat="48.728223" lon="10.098819">
        <ele>603.273780</ele>
        <time>2024-03-17T10:45:27.000Z</time>
      </trkpt>
      <trkpt lat="48.728280" lon="10.098953">
        <ele>602.862850</ele>
        <time>2024-03-17T10:45:28.000Z</time>
      </trkpt>
      <trkpt lat="48.728336" lon="10.099088">
        <ele>602.451845</ele>
        <time>2024-03-17T10:45:29.000Z</time>
      </trkpt>
      <trkpt lat="48.728394" lon="10.099220">
        <ele>602.043084</ele>
        <time>2024-03-17T10:45:30.000Z</time>
      </trkpt>
      <trkpt lat="48.728453" lon="10.099350">
        <ele>601.636402</ele>
        <time>2024-03-17T10:45:31.000Z</time>
      </trkpt>
      <trkpt lat="48.728517" lon="10.099483">
        <ele>601.212115</ele>
        <time>2024-03-17T10:45:32.000Z</time>
      </trkpt>
      <trkpt lat="48.728584" lon="10.099607">
        <ele>600.799011</ele>
        <time>2024-03-17T10:45:33.000Z</time>
      </trkpt>
      <trkpt lat="48.728663" lon="10.099716">
        <ele>600.381655</ele>
        <time>2024-03-17T10:45:34.000Z</time>
      </trkpt>
      <trkpt lat="48.728747" lon="10.099819">
        <ele>599.959544</ele>
        <time>2024-03-17T10:45:35.000Z</time>
      </trkpt>
      <trkpt lat="48.728836" lon="10.099921">
        <ele>599.523631</ele>
        <time>2024-03-17T10:45:36.000Z</time>
      </trkpt>
      <trkpt lat="48.728922" lon="10.100041">
        <ele>599.066961</ele>
        <time>2024-03-17T10:45:37.000Z</time>
      </trkpt>
      <trkpt lat="48.729002" lon="10.100170">
        <ele>598.475061</ele>
        <time>2024-03-17T10:45:38.000Z</time>
      </trkpt>
      <trkpt lat="48.729073" lon="10.100313">
        <ele>597.747766</ele>
        <time>2024-03-17T10:45:39.000Z</time>
      </trkpt>
      <trkpt lat="48.729146" lon="10.100455">
        <ele>597.016207</ele>
        <time>2024-03-17T10:45:40.000Z</time>
      </trkpt>
      <trkpt lat="48.729226" lon="10.100592">
        <ele>596.272709</ele>
        <time>2024-03-17T10:45:41.000Z</time>
      </trkpt>
      <trkpt lat="48.729339" lon="10.100664">
        <ele>595.517608</ele>
        <time>2024-03-17T10:45:42.000Z</time>
      </trkpt>
      <trkpt lat="48.729450" lon="10.100740">
        <ele>594.767308</ele>
        <time>2024-03-17T10:45:43.000Z</time>
      </trkpt>
      <trkpt lat="48.729563" lon="10.100808">
        <ele>594.018355</ele>
        <time>2024-03-17T10:45:44.000Z</time>
      </trkpt>
      <trkpt lat="48.729674" lon="10.100884">
        <ele>593.268055</ele>
        <time>2024-03-17T10:45:45.000Z</time>
      </trkpt>
      <trkpt lat="48.729779" lon="10.100978">
        <ele>592.516862</ele>
        <time>2024-03-17T10:45:46.000Z</time>
      </trkpt>
      <trkpt lat="48.729872" lon="10.101100">
        <ele>591.759245</ele>
        <time>2024-03-17T10:45:47.000Z</time>
      </trkpt>
      <trkpt lat="48.729964" lon="10.101227">
        <ele>590.992748</ele>
        <time>2024-03-17T10:45:48.000Z</time>
      </trkpt>
      <trkpt lat="48.730054" lon="10.101361">
        <ele>590.215657</ele>
        <time>2024-03-17T10:45:49.000Z</time>
      </trkpt>
      <trkpt lat="48.730143" lon="10.101495">
        <ele>589.442950</ele>
        <time>2024-03-17T10:45:49.999Z</time>
      </trkpt>
      <trkpt lat="48.730233" lon="10.101632">
        <ele>588.657272</ele>
        <time>2024-03-17T10:45:50.999Z</time>
      </trkpt>
      <trkpt lat="48.730307" lon="10.101786">
        <ele>587.883069</ele>
        <time>2024-03-17T10:45:51.999Z</time>
      </trkpt>
      <trkpt lat="48.730402" lon="10.101918">
        <ele>586.950189</ele>
        <time>2024-03-17T10:45:52.999Z</time>
      </trkpt>
      <trkpt lat="48.730510" lon="10.102029">
        <ele>585.981142</ele>
        <time>2024-03-17T10:45:53.999Z</time>
      </trkpt>
      <trkpt lat="48.730630" lon="10.102132">
        <ele>584.956994</ele>
        <time>2024-03-17T10:45:54.999Z</time>
      </trkpt>
      <trkpt lat="48.730750" lon="10.102235">
        <ele>583.932846</ele>
        <time>2024-03-17T10:45:55.999Z</time>
      </trkpt>
      <trkpt lat="48.730876" lon="10.102329">
        <ele>582.889897</ele>
        <time>2024-03-17T10:45:56.999Z</time>
      </trkpt>
      <trkpt lat="48.731008" lon="10.102426">
        <ele>581.800457</ele>
        <time>2024-03-17T10:45:57.999Z</time>
      </trkpt>
      <trkpt lat="48.731143" lon="10.102513">
        <ele>580.711006</ele>
        <time>2024-03-17T10:45:58.999Z</time>
      </trkpt>
      <trkpt lat="48.731287" lon="10.102582">
        <ele>579.589390</ele>
        <time>2024-03-17T10:45:59.999Z</time>
      </trkpt>
      <trkpt lat="48.731432" lon="10.102646">
        <ele>578.467783</ele>
        <time>2024-03-17T10:46:00.999Z</time>
      </trkpt>
      <trkpt lat="48.731574" lon="10.102696">
        <ele>577.385095</ele>
        <time>2024-03-17T10:46:01.999Z</time>
      </trkpt>
      <trkpt lat="48.731716" lon="10.102740">
        <ele>576.308677</ele>
        <time>2024-03-17T10:46:02.999Z</time>
      </trkpt>
      <trkpt lat="48.731858" lon="10.102766">
        <ele>575.246396</ele>
        <time>2024-03-17T10:46:03.999Z</time>
      </trkpt>
      <trkpt lat="48.732001" lon="10.102759">
        <ele>574.206732</ele>
        <time>2024-03-17T10:46:04.999Z</time>
      </trkpt>
      <trkpt lat="48.732144" lon="10.102723">
        <ele>573.240683</ele>
        <time>2024-03-17T10:46:05.999Z</time>
      </trkpt>
      <trkpt lat="48.732285" lon="10.102668">
        <ele>572.270410</ele>
        <time>2024-03-17T10:46:06.999Z</time>
      </trkpt>
      <trkpt lat="48.732421" lon="10.102606">
        <ele>571.323973</ele>
        <time>2024-03-17T10:46:07.999Z</time>
      </trkpt>
      <trkpt lat="48.732558" lon="10.102541">
        <ele>570.367297</ele>
        <time>2024-03-17T10:46:08.999Z</time>
      </trkpt>
      <trkpt lat="48.732693" lon="10.102464">
        <ele>569.406053</ele>
        <time>2024-03-17T10:46:09.999Z</time>
      </trkpt>
      <trkpt lat="48.732818" lon="10.102358">
        <ele>568.451562</ele>
        <time>2024-03-17T10:46:10.999Z</time>
      </trkpt>
      <trkpt lat="48.732934" lon="10.102234">
        <ele>567.505670</ele>
        <time>2024-03-17T10:46:11.999Z</time>
      </trkpt>
      <trkpt lat="48.733047" lon="10.102105">
        <ele>566.562994</ele>
        <time>2024-03-17T10:46:12.999Z</time>
      </trkpt>
      <trkpt lat="48.733158" lon="10.101972">
        <ele>565.620132</ele>
        <time>2024-03-17T10:46:13.999Z</time>
      </trkpt>
      <trkpt lat="48.733267" lon="10.101836">
        <ele>564.679368</ele>
        <time>2024-03-17T10:46:14.999Z</time>
      </trkpt>
      <trkpt lat="48.733376" lon="10.101701">
        <ele>563.741392</ele>
        <time>2024-03-17T10:46:15.999Z</time>
      </trkpt>
      <trkpt lat="48.733484" lon="10.101579">
        <ele>562.843834</ele>
        <time>2024-03-17T10:46:16.999Z</time>
      </trkpt>
      <trkpt lat="48.733595" lon="10.101473">
        <ele>562.038093</ele>
        <time>2024-03-17T10:46:17.999Z</time>
      </trkpt>
      <trkpt lat="48.733703" lon="10.101390">
        <ele>561.353780</ele>
        <time>2024-03-17T10:46:18.999Z</time>
      </trkpt>
      <trkpt lat="48.733815" lon="10.101328">
        <ele>560.679924</ele>
        <time>2024-03-17T10:46:19.999Z</time>
      </trkpt>
      <trkpt lat="48.733925" lon="10.101302">
        <ele>560.050734</ele>
        <time>2024-03-17T10:46:20.999Z</time>
      </trkpt>
      <trkpt lat="48.734035" lon="10.101321">
        <ele>559.425031</ele>
        <time>2024-03-17T10:46:21.999Z</time>
      </trkpt>
      <trkpt lat="48.734143" lon="10.101392">
        <ele>558.759746</ele>
        <time>2024-03-17T10:46:22.999Z</time>
      </trkpt>
      <trkpt lat="48.734236" lon="10.101500">
        <ele>558.097683</ele>
        <time>2024-03-17T10:46:23.999Z</time>
      </trkpt>
      <trkpt lat="48.734317" lon="10.101630">
        <ele>557.431061</ele>
        <time>2024-03-17T10:46:24.999Z</time>
      </trkpt>
      <trkpt lat="48.734407" lon="10.101743">
        <ele>556.770649</ele>
        <time>2024-03-17T10:46:25.999Z</time>
      </trkpt>
      <trkpt lat="48.734504" lon="10.101844">
        <ele>556.105613</ele>
        <time>2024-03-17T10:46:26.999Z</time>
      </trkpt>
      <trkpt lat="48.734612" lon="10.101929">
        <ele>555.417900</ele>
        <time>2024-03-17T10:46:27.999Z</time>
      </trkpt>
      <trkpt lat="48.734721" lon="10.102011">
        <ele>554.730209</ele>
        <time>2024-03-17T10:46:28.999Z</time>
      </trkpt>
      <trkpt lat="48.734832" lon="10.102089">
        <ele>554.038776</ele>
        <time>2024-03-17T10:46:29.999Z</time>
      </trkpt>
      <trkpt lat="48.734943" lon="10.102167">
        <ele>553.347342</ele>
        <time>2024-03-17T10:46:30.999Z</time>
      </trkpt>
      <trkpt lat="48.735055" lon="10.102247">
        <ele>552.647633</ele>
        <time>2024-03-17T10:46:31.999Z</time>
      </trkpt>
      <trkpt lat="48.735166" lon="10.102335">
        <ele>552.013317</ele>
        <time>2024-03-17T10:46:32.999Z</time>
      </trkpt>
      <trkpt lat="48.735273" lon="10.102432">
        <ele>551.473162</ele>
        <time>2024-03-17T10:46:33.999Z</time>
      </trkpt>
      <trkpt lat="48.735375" lon="10.102544">
        <ele>550.927497</ele>
        <time>2024-03-17T10:46:34.999Z</time>
      </trkpt>
      <trkpt lat="48.735470" lon="10.102667">
        <ele>550.386229</ele>
        <time>2024-03-17T10:46:35.999Z</time>
      </trkpt>
      <trkpt lat="48.735579" lon="10.102768">
        <ele>549.832746</ele>
        <time>2024-03-17T10:46:36.999Z</time>
      </trkpt>
      <trkpt lat="48.735696" lon="10.102811">
        <ele>549.311130</ele>
        <time>2024-03-17T10:46:37.999Z</time>
      </trkpt>
      <trkpt lat="48.735811" lon="10.102804">
        <ele>548.812459</ele>
        <time>2024-03-17T10:46:38.999Z</time>
      </trkpt>
      <trkpt lat="48.735910" lon="10.102727">
        <ele>548.330369</ele>
        <time>2024-03-17T10:46:39.999Z</time>
      </trkpt>
      <trkpt lat="48.735989" lon="10.102604">
        <ele>547.839753</ele>
        <time>2024-03-17T10:46:40.999Z</time>
      </trkpt>
      <trkpt lat="48.736036" lon="10.102450">
        <ele>547.354850</ele>
        <time>2024-03-17T10:46:41.999Z</time>
      </trkpt>
      <trkpt lat="48.736077" lon="10.102290">
        <ele>546.864336</ele>
        <time>2024-03-17T10:46:42.999Z</time>
      </trkpt>
      <trkpt lat="48.736124" lon="10.102130">
        <ele>546.363821</ele>
        <time>2024-03-17T10:46:43.999Z</time>
      </trkpt>
      <trkpt lat="48.736185" lon="10.101974">
        <ele>545.845576</ele>
        <time>2024-03-17T10:46:44.999Z</time>
      </trkpt>
      <trkpt lat="48.736252" lon="10.101827">
        <ele>545.334962</ele>
        <time>2024-03-17T10:46:45.999Z</time>
      </trkpt>
      <trkpt lat="48.736333" lon="10.101682">
        <ele>544.791956</ele>
        <time>2024-03-17T10:46:46.999Z</time>
      </trkpt>
      <trkpt lat="48.736420" lon="10.101550">
        <ele>544.267452</ele>
        <time>2024-03-17T10:46:47.999Z</time>
      </trkpt>
      <trkpt lat="48.736508" lon="10.101423">
        <ele>543.763753</ele>
        <time>2024-03-17T10:46:48.999Z</time>
      </trkpt>
      <trkpt lat="48.736595" lon="10.101294">
        <ele>543.259241</ele>
        <time>2024-03-17T10:46:49.999Z</time>
      </trkpt>
      <trkpt lat="48.736686" lon="10.101168">
        <ele>542.748309</ele>
        <time>2024-03-17T10:46:50.999Z</time>
      </trkpt>
      <trkpt lat="48.736780" lon="10.101051">
        <ele>542.244088</ele>
        <time>2024-03-17T10:46:51.999Z</time>
      </trkpt>
      <trkpt lat="48.736882" lon="10.100946">
        <ele>541.732939</ele>
        <time>2024-03-17T10:46:52.999Z</time>
      </trkpt>
      <trkpt lat="48.736992" lon="10.100861">
        <ele>541.221065</ele>
        <time>2024-03-17T10:46:53.999Z</time>
      </trkpt>
      <trkpt lat="48.737109" lon="10.100794">
        <ele>540.702537</ele>
        <time>2024-03-17T10:46:54.999Z</time>
      </trkpt>
      <trkpt lat="48.737225" lon="10.100746">
        <ele>540.204009</ele>
        <time>2024-03-17T10:46:55.999Z</time>
      </trkpt>
      <trkpt lat="48.737344" lon="10.100721">
        <ele>539.705917</ele>
        <time>2024-03-17T10:46:56.999Z</time>
      </trkpt>
      <trkpt lat="48.737462" lon="10.100701">
        <ele>539.213638</ele>
        <time>2024-03-17T10:46:57.999Z</time>
      </trkpt>
      <trkpt lat="48.737579" lon="10.100680">
        <ele>538.725165</ele>
        <time>2024-03-17T10:46:58.999Z</time>
      </trkpt>
      <trkpt lat="48.737697" lon="10.100686">
        <ele>538.235658</ele>
        <time>2024-03-17T10:46:59.999Z</time>
      </trkpt>
      <trkpt lat="48.737811" lon="10.100675">
        <ele>537.762054</ele>
        <time>2024-03-17T10:47:00.999Z</time>
      </trkpt>
      <trkpt lat="48.737926" lon="10.100668">
        <ele>537.284876</ele>
        <time>2024-03-17T10:47:01.999Z</time>
      </trkpt>
      <trkpt lat="48.738036" lon="10.100666">
        <ele>536.804409</ele>
        <time>2024-03-17T10:47:02.999Z</time>
      </trkpt>
      <trkpt lat="48.738147" lon="10.100679">
        <ele>536.278899</ele>
        <time>2024-03-17T10:47:03.999Z</time>
      </trkpt>
      <trkpt lat="48.738255" lon="10.100694">
        <ele>535.766976</ele>
        <time>2024-03-17T10:47:04.999Z</time>
      </trkpt>
      <trkpt lat="48.738365" lon="10.100717">
        <ele>535.242833</ele>
        <time>2024-03-17T10:47:05.999Z</time>
      </trkpt>
      <trkpt lat="48.738473" lon="10.100745">
        <ele>534.725647</ele>
        <time>2024-03-17T10:47:07.000Z</time>
      </trkpt>
      <trkpt lat="48.738579" lon="10.100775">
        <ele>534.216657</ele>
        <time>2024-03-17T10:47:08.000Z</time>
      </trkpt>
      <trkpt lat="48.738687" lon="10.100811">
        <ele>533.694696</ele>
        <time>2024-03-17T10:47:09.000Z</time>
      </trkpt>
      <trkpt lat="48.738791" lon="10.100846">
        <ele>533.191843</ele>
        <time>2024-03-17T10:47:10.000Z</time>
      </trkpt>
      <trkpt lat="48.738892" lon="10.100881">
        <ele>532.702804</ele>
        <time>2024-03-17T10:47:11.000Z</time>
      </trkpt>
      <trkpt lat="48.738991" lon="10.100917">
        <ele>532.222248</ele>
        <time>2024-03-17T10:47:12.000Z</time>
      </trkpt>
      <trkpt lat="48.739093" lon="10.100954">
        <ele>531.727195</ele>
        <time>2024-03-17T10:47:13.000Z</time>
      </trkpt>
      <trkpt lat="48.739193" lon="10.101000">
        <ele>531.233926</ele>
        <time>2024-03-17T10:47:14.000Z</time>
      </trkpt>
      <trkpt lat="48.739290" lon="10.101056">
        <ele>530.743997</ele>
        <time>2024-03-17T10:47:15.000Z</time>
      </trkpt>
      <trkpt lat="48.739387" lon="10.101121">
        <ele>530.243415</ele>
        <time>2024-03-17T10:47:16.000Z</time>
      </trkpt>
      <trkpt lat="48.739482" lon="10.101192">
        <ele>529.743480</ele>
        <time>2024-03-17T10:47:17.000Z</time>
      </trkpt>
      <trkpt lat="48.739575" lon="10.101263">
        <ele>529.251996</ele>
        <time>2024-03-17T10:47:18.000Z</time>
      </trkpt>
      <trkpt lat="48.739664" lon="10.101340">
        <ele>528.768321</ele>
        <time>2024-03-17T10:47:19.000Z</time>
      </trkpt>
      <trkpt lat="48.739746" lon="10.101428">
        <ele>528.325996</ele>
        <time>2024-03-17T10:47:20.000Z</time>
      </trkpt>
      <trkpt lat="48.739836" lon="10.101506">
        <ele>527.907389</ele>
        <time>2024-03-17T10:47:21.000Z</time>
      </trkpt>
      <trkpt lat="48.739926" lon="10.101582">
        <ele>527.491398</ele>
        <time>2024-03-17T10:47:22.000Z</time>
      </trkpt>
      <trkpt lat="48.740020" lon="10.101652">
        <ele>527.068507</ele>
        <time>2024-03-17T10:47:23.000Z</time>
      </trkpt>
      <trkpt lat="48.740117" lon="10.101725">
        <ele>526.631216</ele>
        <time>2024-03-17T10:47:24.000Z</time>
      </trkpt>
      <trkpt lat="48.740212" lon="10.101799">
        <ele>526.199935</ele>
        <time>2024-03-17T10:47:25.000Z</time>
      </trkpt>
      <trkpt lat="48.740311" lon="10.101873">
        <ele>525.754225</ele>
        <time>2024-03-17T10:47:26.000Z</time>
      </trkpt>
      <trkpt lat="48.740410" lon="10.101950">
        <ele>525.304925</ele>
        <time>2024-03-17T10:47:27.000Z</time>
      </trkpt>
      <trkpt lat="48.740505" lon="10.102029">
        <ele>524.867400</ele>
        <time>2024-03-17T10:47:28.000Z</time>
      </trkpt>
      <trkpt lat="48.740602" lon="10.102107">
        <ele>524.424030</ele>
        <time>2024-03-17T10:47:29.000Z</time>
      </trkpt>
      <trkpt lat="48.740703" lon="10.102185">
        <ele>523.966328</ele>
        <time>2024-03-17T10:47:30.000Z</time>
      </trkpt>
      <trkpt lat="48.740803" lon="10.102264">
        <ele>523.510996</ele>
        <time>2024-03-17T10:47:31.000Z</time>
      </trkpt>
      <trkpt lat="48.740899" lon="10.102344">
        <ele>523.068650</ele>
        <time>2024-03-17T10:47:32.000Z</time>
      </trkpt>
      <trkpt lat="48.740997" lon="10.102420">
        <ele>522.624160</ele>
        <time>2024-03-17T10:47:33.000Z</time>
      </trkpt>
      <trkpt lat="48.741097" lon="10.102491">
        <ele>522.178272</ele>
        <time>2024-03-17T10:47:34.000Z</time>
      </trkpt>
      <trkpt lat="48.741199" lon="10.102557">
        <ele>521.730448</ele>
        <time>2024-03-17T10:47:35.000Z</time>
      </trkpt>
      <trkpt lat="48.741302" lon="10.102608">
        <ele>521.292905</ele>
        <time>2024-03-17T10:47:36.000Z</time>
      </trkpt>
      <trkpt lat="48.741407" lon="10.102652">
        <ele>521.110025</ele>
        <time>2024-03-17T10:47:37.000Z</time>
      </trkpt>
      <trkpt lat="48.741520" lon="10.102680">
        <ele>520.945914</ele>
        <time>2024-03-17T10:47:38.000Z</time>
      </trkpt>
      <trkpt lat="48.741628" lon="10.102709">
        <ele>520.788709</ele>
        <time>2024-03-17T10:47:39.000Z</time>
      </trkpt>
      <trkpt lat="48.741736" lon="10.102735">
        <ele>520.631973</ele>
        <time>2024-03-17T10:47:40.000Z</time>
      </trkpt>
      <trkpt lat="48.741847" lon="10.102756">
        <ele>520.471643</ele>
        <time>2024-03-17T10:47:41.000Z</time>
      </trkpt>
      <trkpt lat="48.741958" lon="10.102769">
        <ele>520.312073</ele>
        <time>2024-03-17T10:47:42.000Z</time>
      </trkpt>
      <trkpt lat="48.742067" lon="10.102777">
        <ele>520.155659</ele>
        <time>2024-03-17T10:47:43.000Z</time>
      </trkpt>
      <trkpt lat="48.742175" lon="10.102780">
        <ele>520.000837</ele>
        <time>2024-03-17T10:47:44.000Z</time>
      </trkpt>
      <trkpt lat="48.742278" lon="10.102786">
        <ele>519.853097</ele>
        <time>2024-03-17T10:47:45.000Z</time>
      </trkpt>
      <trkpt lat="48.742382" lon="10.102793">
        <ele>519.703887</ele>
        <time>2024-03-17T10:47:46.000Z</time>
      </trkpt>
      <trkpt lat="48.742481" lon="10.102828">
        <ele>519.558185</ele>
        <time>2024-03-17T10:47:47.000Z</time>
      </trkpt>
      <trkpt lat="48.742569" lon="10.102904">
        <ele>519.413033</ele>
        <time>2024-03-17T10:47:48.000Z</time>
      </trkpt>
      <trkpt lat="48.742639" lon="10.103009">
        <ele>519.271909</ele>
        <time>2024-03-17T10:47:49.000Z</time>
      </trkpt>
      <trkpt lat="48.742682" lon="10.103142">
        <ele>519.131905</ele>
        <time>2024-03-17T10:47:50.000Z</time>
      </trkpt>
      <trkpt lat="48.742696" lon="10.103284">
        <ele>518.996197</ele>
        <time>2024-03-17T10:47:51.000Z</time>
      </trkpt>
      <trkpt lat="48.742692" lon="10.103428">
        <ele>518.859971</ele>
        <time>2024-03-17T10:47:52.000Z</time>
      </trkpt>
      <trkpt lat="48.742677" lon="10.103568">
        <ele>518.725910</ele>
        <time>2024-03-17T10:47:52.999Z</time>
      </trkpt>
      <trkpt lat="48.742660" lon="10.103712">
        <ele>518.647508</ele>
        <time>2024-03-17T10:47:53.999Z</time>
      </trkpt>
      <trkpt lat="48.742643" lon="10.103854">
        <ele>518.606273</ele>
        <time>2024-03-17T10:47:54.999Z</time>
      </trkpt>
      <trkpt lat="48.742623" lon="10.103996">
        <ele>518.564787</ele>
        <time>2024-03-17T10:47:55.999Z</time>
      </trkpt>
      <trkpt lat="48.742607" lon="10.104133">
        <ele>518.525035</ele>
        <time>2024-03-17T10:47:56.999Z</time>
      </trkpt>
      <trkpt lat="48.742590" lon="10.104268">
        <ele>518.485767</ele>
        <time>2024-03-17T10:47:57.999Z</time>
      </trkpt>
      <trkpt lat="48.742562" lon="10.104534">
        <ele>518.408805</ele>
        <time>2024-03-17T10:47:59.999Z</time>
      </trkpt>
      <trkpt lat="48.742538" lon="10.104803">
        <ele>518.331248</ele>
        <time>2024-03-17T10:48:01.999Z</time>
      </trkpt>
      <trkpt lat="48.742518" lon="10.105062">
        <ele>518.256743</ele>
        <time>2024-03-17T10:48:03.999Z</time>
      </trkpt>
      <trkpt lat="48.742492" lon="10.105324">
        <ele>518.181043</ele>
        <time>2024-03-17T10:48:05.999Z</time>
      </trkpt>
      <trkpt lat="48.742455" lon="10.105585">
        <ele>518.104768</ele>
        <time>2024-03-17T10:48:07.999Z</time>
      </trkpt>
      <trkpt lat="48.742414" lon="10.105842">
        <ele>518.029221</ele>
        <time>2024-03-17T10:48:09.999Z</time>
      </trkpt>
      <trkpt lat="48.742382" lon="10.106102">
        <ele>517.953653</ele>
        <time>2024-03-17T10:48:11.999Z</time>
      </trkpt>
      <trkpt lat="48.742350" lon="10.106363">
        <ele>517.809183</ele>
        <time>2024-03-17T10:48:13.999Z</time>
      </trkpt>
      <trkpt lat="48.742325" lon="10.106615">
        <ele>517.430864</ele>
        <time>2024-03-17T10:48:15.999Z</time>
      </trkpt>
      <trkpt lat="48.742302" lon="10.106860">
        <ele>517.063479</ele>
        <time>2024-03-17T10:48:17.999Z</time>
      </trkpt>
      <trkpt lat="48.742275" lon="10.107098">
        <ele>516.704963</ele>
        <time>2024-03-17T10:48:19.999Z</time>
      </trkpt>
      <trkpt lat="48.742249" lon="10.107329">
        <ele>516.357069</ele>
        <time>2024-03-17T10:48:21.999Z</time>
      </trkpt>
      <trkpt lat="48.742223" lon="10.107557">
        <ele>516.013565</ele>
        <time>2024-03-17T10:48:23.999Z</time>
      </trkpt>
      <trkpt lat="48.742196" lon="10.107782">
        <ele>515.674052</ele>
        <time>2024-03-17T10:48:25.999Z</time>
      </trkpt>
      <trkpt lat="48.742171" lon="10.108013">
        <ele>515.326529</ele>
        <time>2024-03-17T10:48:27.999Z</time>
      </trkpt>
      <trkpt lat="48.742130" lon="10.108253">
        <ele>514.958472</ele>
        <time>2024-03-17T10:48:29.999Z</time>
      </trkpt>
      <trkpt lat="48.742107" lon="10.108506">
        <ele>514.579324</ele>
        <time>2024-03-17T10:48:31.999Z</time>
      </trkpt>
      <trkpt lat="48.742074" lon="10.108764">
        <ele>514.189166</ele>
        <time>2024-03-17T10:48:33.999Z</time>
      </trkpt>
      <trkpt lat="48.742036" lon="10.109015">
        <ele>513.802750</ele>
        <time>2024-03-17T10:48:35.999Z</time>
      </trkpt>
      <trkpt lat="48.742006" lon="10.109269">
        <ele>513.378554</ele>
        <time>2024-03-17T10:48:37.999Z</time>
      </trkpt>
      <trkpt lat="48.741969" lon="10.109518">
        <ele>512.958958</ele>
        <time>2024-03-17T10:48:39.999Z</time>
      </trkpt>
      <trkpt lat="48.741925" lon="10.109756">
        <ele>512.552624</ele>
        <time>2024-03-17T10:48:41.999Z</time>
      </trkpt>
      <trkpt lat="48.741873" lon="10.109986">
        <ele>512.152921</ele>
        <time>2024-03-17T10:48:43.999Z</time>
      </trkpt>
      <trkpt lat="48.741800" lon="10.110212">
        <ele>511.739223</ele>
        <time>2024-03-17T10:48:45.999Z</time>
      </trkpt>
      <trkpt lat="48.741736" lon="10.110448">
        <ele>511.319736</ele>
        <time>2024-03-17T10:48:47.999Z</time>
      </trkpt>
      <trkpt lat="48.741688" lon="10.110696">
        <ele>510.894849</ele>
        <time>2024-03-17T10:48:49.999Z</time>
      </trkpt>
      <trkpt lat="48.741679" lon="10.110954">
        <ele>510.470125</ele>
        <time>2024-03-17T10:48:51.999Z</time>
      </trkpt>
      <trkpt lat="48.741722" lon="10.111204">
        <ele>510.045397</ele>
        <time>2024-03-17T10:48:53.999Z</time>
      </trkpt>
      <trkpt lat="48.741820" lon="10.111412">
        <ele>509.625159</ele>
        <time>2024-03-17T10:48:55.999Z</time>
      </trkpt>
      <trkpt lat="48.741954" lon="10.111567">
        <ele>509.285111</ele>
        <time>2024-03-17T10:48:57.999Z</time>
      </trkpt>
      <trkpt lat="48.742108" lon="10.111689">
        <ele>509.073979</ele>
        <time>2024-03-17T10:48:59.999Z</time>
      </trkpt>
      <trkpt lat="48.742272" lon="10.111789">
        <ele>508.859185</ele>
        <time>2024-03-17T10:49:01.999Z</time>
      </trkpt>
      <trkpt lat="48.742362" lon="10.111843">
        <ele>508.741571</ele>
        <time>2024-03-17T10:49:02.999Z</time>
      </trkpt>
      <trkpt lat="48.742446" lon="10.111904">
        <ele>508.628397</ele>
        <time>2024-03-17T10:49:03.999Z</time>
      </trkpt>
      <trkpt lat="48.742572" lon="10.112027">
        <ele>508.446306</ele>
        <time>2024-03-17T10:49:05.999Z</time>
      </trkpt>
      <trkpt lat="48.742645" lon="10.112156">
        <ele>508.310091</ele>
        <time>2024-03-17T10:49:07.999Z</time>
      </trkpt>
      <trkpt lat="48.742697" lon="10.112290">
        <ele>508.185501</ele>
        <time>2024-03-17T10:49:11.999Z</time>
      </trkpt>
      <trkpt lat="48.742738" lon="10.112420">
        <ele>508.070028</ele>
        <time>2024-03-17T10:49:21.000Z</time>
      </trkpt>
      <trkpt lat="48.742897" lon="10.112447">
        <ele>507.875610</ele>
        <time>2024-03-17T10:49:24.000Z</time>
      </trkpt>
      <trkpt lat="48.743001" lon="10.112359">
        <ele>507.730891</ele>
        <time>2024-03-17T10:49:26.000Z</time>
      </trkpt>
      <trkpt lat="48.743090" lon="10.112249">
        <ele>507.591371</ele>
        <time>2024-03-17T10:49:28.000Z</time>
      </trkpt>
      <trkpt lat="48.743189" lon="10.112149">
        <ele>507.446826</ele>
        <time>2024-03-17T10:49:30.000Z</time>
      </trkpt>
      <trkpt lat="48.743291" lon="10.112040">
        <ele>507.295196</ele>
        <time>2024-03-17T10:49:32.000Z</time>
      </trkpt>
      <trkpt lat="48.743390" lon="10.111925">
        <ele>507.213635</ele>
        <time>2024-03-17T10:49:34.000Z</time>
      </trkpt>
      <trkpt lat="48.743481" lon="10.111797">
        <ele>507.392824</ele>
        <time>2024-03-17T10:49:36.000Z</time>
      </trkpt>
      <trkpt lat="48.743567" lon="10.111662">
        <ele>507.571521</ele>
        <time>2024-03-17T10:49:38.000Z</time>
      </trkpt>
      <trkpt lat="48.743649" lon="10.111516">
        <ele>507.754095</ele>
        <time>2024-03-17T10:49:40.000Z</time>
      </trkpt>
      <trkpt lat="48.743723" lon="10.111365">
        <ele>507.933199</ele>
        <time>2024-03-17T10:49:42.000Z</time>
      </trkpt>
      <trkpt lat="48.743790" lon="10.111204">
        <ele>508.114441</ele>
        <time>2024-03-17T10:49:44.000Z</time>
      </trkpt>
      <trkpt lat="48.743853" lon="10.111039">
        <ele>508.295953</ele>
        <time>2024-03-17T10:49:46.000Z</time>
      </trkpt>
      <trkpt lat="48.743921" lon="10.110872">
        <ele>508.482805</ele>
        <time>2024-03-17T10:49:48.000Z</time>
      </trkpt>
      <trkpt lat="48.743990" lon="10.110708">
        <ele>508.668005</ele>
        <time>2024-03-17T10:49:50.000Z</time>
      </trkpt>
      <trkpt lat="48.744057" lon="10.110538">
        <ele>508.856548</ele>
        <time>2024-03-17T10:49:52.000Z</time>
      </trkpt>
      <trkpt lat="48.744125" lon="10.110374">
        <ele>509.040975</ele>
        <time>2024-03-17T10:49:54.000Z</time>
      </trkpt>
      <trkpt lat="48.744197" lon="10.110212">
        <ele>509.226958</ele>
        <time>2024-03-17T10:49:56.000Z</time>
      </trkpt>
      <trkpt lat="48.744269" lon="10.110052">
        <ele>509.411364</ele>
        <time>2024-03-17T10:49:58.000Z</time>
      </trkpt>
      <trkpt lat="48.744346" lon="10.109900">
        <ele>509.593838</ele>
        <time>2024-03-17T10:50:00.000Z</time>
      </trkpt>
      <trkpt lat="48.744430" lon="10.109752">
        <ele>509.782542</ele>
        <time>2024-03-17T10:50:02.000Z</time>
      </trkpt>
      <trkpt lat="48.744518" lon="10.109620">
        <ele>510.028816</ele>
        <time>2024-03-17T10:50:03.999Z</time>
      </trkpt>
      <trkpt lat="48.744637" lon="10.109594">
        <ele>510.268032</ele>
        <time>2024-03-17T10:50:05.999Z</time>
      </trkpt>
      <trkpt lat="48.744765" lon="10.109663">
        <ele>510.538322</ele>
        <time>2024-03-17T10:50:07.999Z</time>
      </trkpt>
      <trkpt lat="48.744880" lon="10.109747">
        <ele>510.792293</ele>
        <time>2024-03-17T10:50:09.999Z</time>
      </trkpt>
      <trkpt lat="48.744993" lon="10.109841">
        <ele>511.048730</ele>
        <time>2024-03-17T10:50:11.999Z</time>
      </trkpt>
      <trkpt lat="48.745103" lon="10.109942">
        <ele>511.304584</ele>
        <time>2024-03-17T10:50:13.999Z</time>
      </trkpt>
      <trkpt lat="48.745214" lon="10.110034">
        <ele>511.556271</ele>
        <time>2024-03-17T10:50:15.999Z</time>
      </trkpt>
      <trkpt lat="48.745322" lon="10.110117">
        <ele>511.797173</ele>
        <time>2024-03-17T10:50:17.999Z</time>
      </trkpt>
      <trkpt lat="48.745427" lon="10.110194">
        <ele>512.029233</ele>
        <time>2024-03-17T10:50:19.999Z</time>
      </trkpt>
      <trkpt lat="48.745543" lon="10.110282">
        <ele>512.287302</ele>
        <time>2024-03-17T10:50:21.999Z</time>
      </trkpt>
      <trkpt lat="48.745655" lon="10.110344">
        <ele>512.524528</ele>
        <time>2024-03-17T10:50:23.999Z</time>
      </trkpt>
      <trkpt lat="48.745775" lon="10.110403">
        <ele>512.775524</ele>
        <time>2024-03-17T10:50:25.999Z</time>
      </trkpt>
      <trkpt lat="48.745894" lon="10.110460">
        <ele>513.023824</ele>
        <time>2024-03-17T10:50:27.999Z</time>
      </trkpt>
      <trkpt lat="48.746001" lon="10.110499">
        <ele>513.242782</ele>
        <time>2024-03-17T10:50:29.999Z</time>
      </trkpt>
      <trkpt lat="48.746086" lon="10.110556">
        <ele>513.625323</ele>
        <time>2024-03-17T10:50:31.999Z</time>
      </trkpt>
      <trkpt lat="48.746184" lon="10.110584">
        <ele>514.335153</ele>
        <time>2024-03-17T10:50:33.999Z</time>
      </trkpt>
      <trkpt lat="48.746284" lon="10.110594">
        <ele>515.048493</ele>
        <time>2024-03-17T10:50:35.999Z</time>
      </trkpt>
      <trkpt lat="48.746379" lon="10.110554">
        <ele>515.750276</ele>
        <time>2024-03-17T10:50:37.999Z</time>
      </trkpt>
      <trkpt lat="48.746501" lon="10.110563">
        <ele>516.619691</ele>
        <time>2024-03-17T10:50:40.999Z</time>
      </trkpt>
      <trkpt lat="48.746612" lon="10.110571">
        <ele>517.410675</ele>
        <time>2024-03-17T10:50:43.999Z</time>
      </trkpt>
      <trkpt lat="48.746720" lon="10.110616">
        <ele>518.207899</ele>
        <time>2024-03-17T10:50:46.999Z</time>
      </trkpt>
      <trkpt lat="48.746819" lon="10.110718">
        <ele>519.059812</ele>
        <time>2024-03-17T10:50:49.999Z</time>
      </trkpt>
      <trkpt lat="48.746884" lon="10.110857">
        <ele>519.859611</ele>
        <time>2024-03-17T10:50:52.999Z</time>
      </trkpt>
      <trkpt lat="48.746941" lon="10.111022">
        <ele>520.733877</ele>
        <time>2024-03-17T10:50:56.999Z</time>
      </trkpt>
      <trkpt lat="48.746987" lon="10.111163">
        <ele>521.472226</ele>
        <time>2024-03-17T10:50:59.999Z</time>
      </trkpt>
      <trkpt lat="48.747036" lon="10.111329">
        <ele>522.325846</ele>
        <time>2024-03-17T10:51:02.999Z</time>
      </trkpt>
      <trkpt lat="48.747098" lon="10.111460">
        <ele>523.082674</ele>
        <time>2024-03-17T10:51:05.999Z</time>
      </trkpt>
      <trkpt lat="48.747150" lon="10.111588">
        <ele>523.788304</ele>
        <time>2024-03-17T10:51:08.999Z</time>
      </trkpt>
      <trkpt lat="48.747218" lon="10.111734">
        <ele>524.627252</ele>
        <time>2024-03-17T10:51:12.999Z</time>
      </trkpt>
      <trkpt lat="48.747279" lon="10.111844">
        <ele>525.301840</ele>
        <time>2024-03-17T10:51:15.999Z</time>
      </trkpt>
      <trkpt lat="48.747341" lon="10.111953">
        <ele>525.977470</ele>
        <time>2024-03-17T10:51:19.000Z</time>
      </trkpt>
      <trkpt lat="48.747429" lon="10.112090">
        <ele>527.212657</ele>
        <time>2024-03-17T10:51:23.000Z</time>
      </trkpt>
      <trkpt lat="48.747492" lon="10.112198">
        <ele>528.206050</ele>
        <time>2024-03-17T10:51:26.000Z</time>
      </trkpt>
      <trkpt lat="48.747556" lon="10.112305">
        <ele>529.201282</ele>
        <time>2024-03-17T10:51:29.000Z</time>
      </trkpt>
      <trkpt lat="48.747617" lon="10.112406">
        <ele>530.144851</ele>
        <time>2024-03-17T10:51:32.000Z</time>
      </trkpt>
      <trkpt lat="48.747704" lon="10.112526">
        <ele>531.373528</ele>
        <time>2024-03-17T10:51:36.000Z</time>
      </trkpt>
      <trkpt lat="48.747793" lon="10.112647">
        <ele>532.622331</ele>
        <time>2024-03-17T10:51:40.000Z</time>
      </trkpt>
      <trkpt lat="48.747874" lon="10.112773">
        <ele>533.834627</ele>
        <time>2024-03-17T10:51:44.000Z</time>
      </trkpt>
      <trkpt lat="48.747958" lon="10.112884">
        <ele>534.998661</ele>
        <time>2024-03-17T10:51:48.000Z</time>
      </trkpt>
      <trkpt lat="48.748046" lon="10.112998">
        <ele>536.207838</ele>
        <time>2024-03-17T10:51:52.000Z</time>
      </trkpt>
      <trkpt lat="48.748132" lon="10.113103">
        <ele>537.361345</ele>
        <time>2024-03-17T10:51:56.000Z</time>
      </trkpt>
      <trkpt lat="48.748207" lon="10.113180">
        <ele>538.307603</ele>
        <time>2024-03-17T10:51:59.000Z</time>
      </trkpt>
      <trkpt lat="48.748315" lon="10.113266">
        <ele>539.582059</ele>
        <time>2024-03-17T10:52:03.000Z</time>
      </trkpt>
      <trkpt lat="48.748421" lon="10.113350">
        <ele>540.831611</ele>
        <time>2024-03-17T10:52:07.000Z</time>
      </trkpt>
      <trkpt lat="48.748500" lon="10.113417">
        <ele>541.777287</ele>
        <time>2024-03-17T10:52:10.000Z</time>
      </trkpt>
      <trkpt lat="48.748580" lon="10.113482">
        <ele>542.725511</ele>
        <time>2024-03-17T10:52:13.000Z</time>
      </trkpt>
      <trkpt lat="48.748669" lon="10.113517">
        <ele>543.686129</ele>
        <time>2024-03-17T10:52:15.999Z</time>
      </trkpt>
      <trkpt lat="48.748761" lon="10.113548">
        <ele>544.670776</ele>
        <time>2024-03-17T10:52:18.999Z</time>
      </trkpt>
      <trkpt lat="48.748872" lon="10.113564">
        <ele>546.025086</ele>
        <time>2024-03-17T10:52:22.999Z</time>
      </trkpt>
      <trkpt lat="48.748966" lon="10.113570">
        <ele>547.217216</ele>
        <time>2024-03-17T10:52:26.999Z</time>
      </trkpt>
      <trkpt lat="48.749063" lon="10.113578">
        <ele>548.448120</ele>
        <time>2024-03-17T10:52:31.999Z</time>
      </trkpt>
      <trkpt lat="48.749171" lon="10.113583">
        <ele>549.817226</ele>
        <time>2024-03-17T10:52:36.999Z</time>
      </trkpt>
      <trkpt lat="48.749264" lon="10.113558">
        <ele>551.013998</ele>
        <time>2024-03-17T10:52:41.999Z</time>
      </trkpt>
      <trkpt lat="48.749363" lon="10.113535">
        <ele>552.283060</ele>
        <time>2024-03-17T10:52:47.999Z</time>
      </trkpt>
      <trkpt lat="48.749453" lon="10.113533">
        <ele>553.423573</ele>
        <time>2024-03-17T10:52:52.999Z</time>
      </trkpt>
      <trkpt lat="48.749548" lon="10.113525">
        <ele>554.629174</ele>
        <time>2024-03-17T10:52:57.999Z</time>
      </trkpt>
      <trkpt lat="48.749652" lon="10.113523">
        <ele>555.947065</ele>
        <time>2024-03-17T10:53:02.999Z</time>
      </trkpt>
      <trkpt lat="48.749760" lon="10.113511">
        <ele>557.319201</ele>
        <time>2024-03-17T10:53:07.999Z</time>
      </trkpt>
      <trkpt lat="48.749868" lon="10.113514">
        <ele>558.687900</ele>
        <time>2024-03-17T10:53:12.999Z</time>
      </trkpt>
      <trkpt lat="48.749971" lon="10.113516">
        <ele>559.993121</ele>
        <time>2024-03-17T10:53:17.999Z</time>
      </trkpt>
      <trkpt lat="48.750077" lon="10.113524">
        <ele>561.337910</ele>
        <time>2024-03-17T10:53:22.999Z</time>
      </trkpt>
      <trkpt lat="48.750182" lon="10.113555">
        <ele>562.693340</ele>
        <time>2024-03-17T10:53:28.000Z</time>
      </trkpt>
      <trkpt lat="48.750276" lon="10.113610">
        <ele>563.969976</ele>
        <time>2024-03-17T10:53:33.000Z</time>
      </trkpt>
      <trkpt lat="48.750370" lon="10.113668">
        <ele>565.255845</ele>
        <time>2024-03-17T10:53:38.000Z</time>
      </trkpt>
      <trkpt lat="48.750456" lon="10.113764">
        <ele>566.608885</ele>
        <time>2024-03-17T10:53:43.000Z</time>
      </trkpt>
      <trkpt lat="48.750528" lon="10.113847">
        <ele>567.754404</ele>
        <time>2024-03-17T10:53:47.000Z</time>
      </trkpt>
      <trkpt lat="48.750607" lon="10.113916">
        <ele>568.883905</ele>
        <time>2024-03-17T10:53:51.000Z</time>
      </trkpt>
      <trkpt lat="48.750706" lon="10.114005">
        <ele>570.309789</ele>
        <time>2024-03-17T10:53:55.000Z</time>
      </trkpt>
      <trkpt lat="48.750786" lon="10.114089">
        <ele>571.515332</ele>
        <time>2024-03-17T10:53:58.000Z</time>
      </trkpt>
      <trkpt lat="48.750862" lon="10.114173">
        <ele>572.680468</ele>
        <time>2024-03-17T10:54:01.000Z</time>
      </trkpt>
      <trkpt lat="48.750950" lon="10.114242">
        <ele>573.907861</ele>
        <time>2024-03-17T10:54:04.000Z</time>
      </trkpt>
      <trkpt lat="48.751027" lon="10.114330">
        <ele>575.102406</ele>
        <time>2024-03-17T10:54:07.000Z</time>
      </trkpt>
      <trkpt lat="48.751098" lon="10.114421">
        <ele>576.254126</ele>
        <time>2024-03-17T10:54:10.000Z</time>
      </trkpt>
      <trkpt lat="48.751185" lon="10.114533">
        <ele>577.667989</ele>
        <time>2024-03-17T10:54:13.999Z</time>
      </trkpt>
      <trkpt lat="48.751271" lon="10.114641">
        <ele>579.051363</ele>
        <time>2024-03-17T10:54:18.999Z</time>
      </trkpt>
      <trkpt lat="48.751349" lon="10.114746">
        <ele>580.343522</ele>
        <time>2024-03-17T10:54:22.999Z</time>
      </trkpt>
      <trkpt lat="48.751421" lon="10.114862">
        <ele>581.644960</ele>
        <time>2024-03-17T10:54:26.999Z</time>
      </trkpt>
      <trkpt lat="48.751479" lon="10.114993">
        <ele>582.933989</ele>
        <time>2024-03-17T10:54:30.999Z</time>
      </trkpt>
      <trkpt lat="48.751514" lon="10.115121">
        <ele>584.065973</ele>
        <time>2024-03-17T10:54:34.999Z</time>
      </trkpt>
      <trkpt lat="48.751543" lon="10.115251">
        <ele>585.187076</ele>
        <time>2024-03-17T10:54:38.999Z</time>
      </trkpt>
      <trkpt lat="48.751563" lon="10.115410">
        <ele>586.509367</ele>
        <time>2024-03-17T10:54:43.999Z</time>
      </trkpt>
      <trkpt lat="48.751576" lon="10.115568">
        <ele>587.810073</ele>
        <time>2024-03-17T10:54:48.999Z</time>
      </trkpt>
      <trkpt lat="48.751593" lon="10.115703">
        <ele>588.932816</ele>
        <time>2024-03-17T10:54:52.999Z</time>
      </trkpt>
      <trkpt lat="48.751600" lon="10.115842">
        <ele>590.065958</ele>
        <time>2024-03-17T10:54:56.999Z</time>
      </trkpt>
      <trkpt lat="48.751611" lon="10.115989">
        <ele>591.138620</ele>
        <time>2024-03-17T10:55:00.999Z</time>
      </trkpt>
      <trkpt lat="48.751628" lon="10.116129">
        <ele>592.170757</ele>
        <time>2024-03-17T10:55:04.999Z</time>
      </trkpt>
      <trkpt lat="48.751662" lon="10.116264">
        <ele>593.218550</ele>
        <time>2024-03-17T10:55:08.999Z</time>
      </trkpt>
      <trkpt lat="48.751690" lon="10.116412">
        <ele>594.334921</ele>
        <time>2024-03-17T10:55:12.999Z</time>
      </trkpt>
      <trkpt lat="48.751727" lon="10.116558">
        <ele>595.468992</ele>
        <time>2024-03-17T10:55:16.999Z</time>
      </trkpt>
      <trkpt lat="48.751784" lon="10.116704">
        <ele>596.699221</ele>
        <time>2024-03-17T10:55:21.999Z</time>
      </trkpt>
      <trkpt lat="48.751862" lon="10.116811">
        <ele>597.855767</ele>
        <time>2024-03-17T10:55:26.999Z</time>
      </trkpt>
      <trkpt lat="48.751971" lon="10.116933">
        <ele>599.345466</ele>
        <time>2024-03-17T10:55:32.000Z</time>
      </trkpt>
      <trkpt lat="48.752051" lon="10.116998">
        <ele>600.343491</ele>
        <time>2024-03-17T10:55:35.000Z</time>
      </trkpt>
      <trkpt lat="48.752132" lon="10.117066">
        <ele>601.361576</ele>
        <time>2024-03-17T10:55:38.000Z</time>
      </trkpt>
      <trkpt lat="48.752215" lon="10.117148">
        <ele>602.450867</ele>
        <time>2024-03-17T10:55:41.000Z</time>
      </trkpt>
      <trkpt lat="48.752274" lon="10.117259">
        <ele>603.484621</ele>
        <time>2024-03-17T10:55:44.000Z</time>
      </trkpt>
      <trkpt lat="48.752324" lon="10.117387">
        <ele>604.563323</ele>
        <time>2024-03-17T10:55:47.000Z</time>
      </trkpt>
      <trkpt lat="48.752356" lon="10.117521">
        <ele>605.596638</ele>
        <time>2024-03-17T10:55:50.000Z</time>
      </trkpt>
      <trkpt lat="48.752368" lon="10.117673">
        <ele>606.706566</ele>
        <time>2024-03-17T10:55:54.000Z</time>
      </trkpt>
      <trkpt lat="48.752380" lon="10.117816">
        <ele>607.751732</ele>
        <time>2024-03-17T10:55:57.000Z</time>
      </trkpt>
      <trkpt lat="48.752390" lon="10.117956">
        <ele>608.772722</ele>
        <time>2024-03-17T10:56:00.000Z</time>
      </trkpt>
      <trkpt lat="48.752403" lon="10.118114">
        <ele>609.868920</ele>
        <time>2024-03-17T10:56:03.000Z</time>
      </trkpt>
      <trkpt lat="48.752426" lon="10.118263">
        <ele>610.467442</ele>
        <time>2024-03-17T10:56:06.000Z</time>
      </trkpt>
      <trkpt lat="48.752440" lon="10.118419">
        <ele>611.083209</ele>
        <time>2024-03-17T10:56:09.000Z</time>
      </trkpt>
      <trkpt lat="48.752462" lon="10.118566">
        <ele>611.672776</ele>
        <time>2024-03-17T10:56:12.000Z</time>
      </trkpt>
      <trkpt lat="48.752485" lon="10.118712">
        <ele>612.259879</ele>
        <time>2024-03-17T10:56:15.000Z</time>
      </trkpt>
      <trkpt lat="48.752503" lon="10.118868">
        <ele>612.879292</ele>
        <time>2024-03-17T10:56:17.999Z</time>
      </trkpt>
      <trkpt lat="48.752526" lon="10.119021">
        <ele>613.493056</ele>
        <time>2024-03-17T10:56:20.999Z</time>
      </trkpt>
      <trkpt lat="48.752547" lon="10.119174">
        <ele>614.104292</ele>
        <time>2024-03-17T10:56:23.999Z</time>
      </trkpt>
      <trkpt lat="48.752566" lon="10.119334">
        <ele>614.740146</ele>
        <time>2024-03-17T10:56:26.999Z</time>
      </trkpt>
      <trkpt lat="48.752590" lon="10.119497">
        <ele>615.393367</ele>
        <time>2024-03-17T10:56:29.999Z</time>
      </trkpt>
      <trkpt lat="48.752612" lon="10.119668">
        <ele>616.074788</ele>
        <time>2024-03-17T10:56:32.999Z</time>
      </trkpt>
      <trkpt lat="48.752617" lon="10.119836">
        <ele>616.732529</ele>
        <time>2024-03-17T10:56:35.999Z</time>
      </trkpt>
      <trkpt lat="48.752612" lon="10.120007">
        <ele>617.401993</ele>
        <time>2024-03-17T10:56:38.999Z</time>
      </trkpt>
      <trkpt lat="48.752595" lon="10.120169">
        <ele>618.043574</ele>
        <time>2024-03-17T10:56:41.999Z</time>
      </trkpt>
      <trkpt lat="48.752575" lon="10.120335">
        <ele>618.703576</ele>
        <time>2024-03-17T10:56:44.999Z</time>
      </trkpt>
      <trkpt lat="48.752545" lon="10.120495">
        <ele>619.354174</ele>
        <time>2024-03-17T10:56:47.999Z</time>
      </trkpt>
      <trkpt lat="48.752516" lon="10.120661">
        <ele>620.025830</ele>
        <time>2024-03-17T10:56:50.999Z</time>
      </trkpt>
      <trkpt lat="48.752491" lon="10.120833">
        <ele>620.650453</ele>
        <time>2024-03-17T10:56:53.999Z</time>
      </trkpt>
      <trkpt lat="48.752466" lon="10.121007">
        <ele>621.163676</ele>
        <time>2024-03-17T10:56:56.999Z</time>
      </trkpt>
      <trkpt lat="48.752431" lon="10.121178">
        <ele>621.679685</ele>
        <time>2024-03-17T10:56:59.999Z</time>
      </trkpt>
      <trkpt lat="48.752419" lon="10.121347">
        <ele>622.169546</ele>
        <time>2024-03-17T10:57:02.999Z</time>
      </trkpt>
      <trkpt lat="48.752377" lon="10.121521">
        <ele>622.703550</ele>
        <time>2024-03-17T10:57:05.999Z</time>
      </trkpt>
      <trkpt lat="48.752353" lon="10.121701">
        <ele>623.232798</ele>
        <time>2024-03-17T10:57:08.999Z</time>
      </trkpt>
      <trkpt lat="48.752319" lon="10.121880">
        <ele>623.769644</ele>
        <time>2024-03-17T10:57:11.999Z</time>
      </trkpt>
      <trkpt lat="48.752296" lon="10.122071">
        <ele>624.329198</ele>
        <time>2024-03-17T10:57:14.999Z</time>
      </trkpt>
      <trkpt lat="48.752266" lon="10.122263">
        <ele>624.897855</ele>
        <time>2024-03-17T10:57:17.999Z</time>
      </trkpt>
      <trkpt lat="48.752253" lon="10.122463">
        <ele>625.477035</ele>
        <time>2024-03-17T10:57:20.999Z</time>
      </trkpt>
      <trkpt lat="48.752236" lon="10.122597">
        <ele>625.870298</ele>
        <time>2024-03-17T10:57:22.999Z</time>
      </trkpt>
      <trkpt lat="48.752221" lon="10.122798">
        <ele>626.453266</ele>
        <time>2024-03-17T10:57:25.999Z</time>
      </trkpt>
      <trkpt lat="48.752205" lon="10.122998">
        <ele>627.033880</ele>
        <time>2024-03-17T10:57:28.999Z</time>
      </trkpt>
      <trkpt lat="48.752185" lon="10.123198">
        <ele>627.616859</ele>
        <time>2024-03-17T10:57:31.999Z</time>
      </trkpt>
      <trkpt lat="48.752166" lon="10.123390">
        <ele>628.176389</ele>
        <time>2024-03-17T10:57:34.999Z</time>
      </trkpt>
      <trkpt lat="48.752144" lon="10.123588">
        <ele>628.385273</ele>
        <time>2024-03-17T10:57:38.000Z</time>
      </trkpt>
      <trkpt lat="48.752124" lon="10.123781">
        <ele>628.455491</ele>
        <time>2024-03-17T10:57:41.000Z</time>
      </trkpt>
      <trkpt lat="48.752105" lon="10.123974">
        <ele>628.525626</ele>
        <time>2024-03-17T10:57:44.000Z</time>
      </trkpt>
      <trkpt lat="48.752084" lon="10.124168">
        <ele>628.596285</ele>
        <time>2024-03-17T10:57:47.000Z</time>
      </trkpt>
      <trkpt lat="48.752073" lon="10.124305">
        <ele>628.645888</ele>
        <time>2024-03-17T10:57:49.000Z</time>
      </trkpt>
      <trkpt lat="48.752055" lon="10.124510">
        <ele>628.720218</ele>
        <time>2024-03-17T10:57:52.000Z</time>
      </trkpt>
      <trkpt lat="48.752042" lon="10.124653">
        <ele>628.772100</ele>
        <time>2024-03-17T10:57:54.000Z</time>
      </trkpt>
      <trkpt lat="48.752033" lon="10.124804">
        <ele>628.826593</ele>
        <time>2024-03-17T10:57:56.000Z</time>
      </trkpt>
      <trkpt lat="48.752023" lon="10.124948">
        <ele>628.878634</ele>
        <time>2024-03-17T10:57:58.000Z</time>
      </trkpt>
      <trkpt lat="48.752005" lon="10.125095">
        <ele>628.932371</ele>
        <time>2024-03-17T10:58:00.000Z</time>
      </trkpt>
      <trkpt lat="48.751997" lon="10.125252">
        <ele>628.988967</ele>
        <time>2024-03-17T10:58:02.000Z</time>
      </trkpt>
      <trkpt lat="48.751985" lon="10.125408">
        <ele>629.045415</ele>
        <time>2024-03-17T10:58:04.000Z</time>
      </trkpt>
      <trkpt lat="48.751968" lon="10.125570">
        <ele>629.104373</ele>
        <time>2024-03-17T10:58:06.000Z</time>
      </trkpt>
      <trkpt lat="48.751961" lon="10.125732">
        <ele>629.162723</ele>
        <time>2024-03-17T10:58:08.000Z</time>
      </trkpt>
      <trkpt lat="48.751950" lon="10.125895">
        <ele>629.221613</ele>
        <time>2024-03-17T10:58:10.000Z</time>
      </trkpt>
      <trkpt lat="48.751932" lon="10.126063">
        <ele>629.282786</ele>
        <time>2024-03-17T10:58:12.000Z</time>
      </trkpt>
      <trkpt lat="48.751914" lon="10.126235">
        <ele>629.201229</ele>
        <time>2024-03-17T10:58:14.000Z</time>
      </trkpt>
      <trkpt lat="48.751901" lon="10.126412">
        <ele>628.979642</ele>
        <time>2024-03-17T10:58:16.000Z</time>
      </trkpt>
      <trkpt lat="48.751883" lon="10.126600">
        <ele>628.743278</ele>
        <time>2024-03-17T10:58:18.000Z</time>
      </trkpt>
      <trkpt lat="48.751861" lon="10.126789">
        <ele>628.504486</ele>
        <time>2024-03-17T10:58:20.000Z</time>
      </trkpt>
      <trkpt lat="48.751837" lon="10.126990">
        <ele>628.250332</ele>
        <time>2024-03-17T10:58:22.000Z</time>
      </trkpt>
      <trkpt lat="48.751787" lon="10.127199">
        <ele>627.973703</ele>
        <time>2024-03-17T10:58:23.999Z</time>
      </trkpt>
      <trkpt lat="48.751746" lon="10.127418">
        <ele>627.690449</ele>
        <time>2024-03-17T10:58:25.999Z</time>
      </trkpt>
      <trkpt lat="48.751715" lon="10.127631">
        <ele>627.419053</ele>
        <time>2024-03-17T10:58:27.999Z</time>
      </trkpt>
      <trkpt lat="48.751658" lon="10.127832">
        <ele>627.146815</ele>
        <time>2024-03-17T10:58:29.999Z</time>
      </trkpt>
      <trkpt lat="48.751604" lon="10.128029">
        <ele>626.881366</ele>
        <time>2024-03-17T10:58:31.999Z</time>
      </trkpt>
      <trkpt lat="48.751539" lon="10.128215">
        <ele>626.619444</ele>
        <time>2024-03-17T10:58:33.999Z</time>
      </trkpt>
      <trkpt lat="48.751465" lon="10.128390">
        <ele>626.360773</ele>
        <time>2024-03-17T10:58:35.999Z</time>
      </trkpt>
      <trkpt lat="48.751382" lon="10.128559">
        <ele>626.098576</ele>
        <time>2024-03-17T10:58:37.999Z</time>
      </trkpt>
      <trkpt lat="48.751296" lon="10.128722">
        <ele>625.813220</ele>
        <time>2024-03-17T10:58:39.999Z</time>
      </trkpt>
      <trkpt lat="48.751215" lon="10.128892">
        <ele>625.468737</ele>
        <time>2024-03-17T10:58:41.999Z</time>
      </trkpt>
      <trkpt lat="48.751115" lon="10.129053">
        <ele>625.105456</ele>
        <time>2024-03-17T10:58:43.999Z</time>
      </trkpt>
      <trkpt lat="48.751028" lon="10.129213">
        <ele>624.764836</ele>
        <time>2024-03-17T10:58:45.999Z</time>
      </trkpt>
      <trkpt lat="48.750941" lon="10.129377">
        <ele>624.419122</ele>
        <time>2024-03-17T10:58:47.999Z</time>
      </trkpt>
      <trkpt lat="48.750851" lon="10.129543">
        <ele>624.066143</ele>
        <time>2024-03-17T10:58:49.999Z</time>
      </trkpt>
      <trkpt lat="48.750765" lon="10.129712">
        <ele>623.715520</ele>
        <time>2024-03-17T10:58:51.999Z</time>
      </trkpt>
      <trkpt lat="48.750676" lon="10.129882">
        <ele>623.358996</ele>
        <time>2024-03-17T10:58:53.999Z</time>
      </trkpt>
      <trkpt lat="48.750583" lon="10.130056">
        <ele>622.991112</ele>
        <time>2024-03-17T10:58:55.999Z</time>
      </trkpt>
      <trkpt lat="48.750487" lon="10.130230">
        <ele>622.618476</ele>
        <time>2024-03-17T10:58:57.999Z</time>
      </trkpt>
      <trkpt lat="48.750396" lon="10.130419">
        <ele>622.234102</ele>
        <time>2024-03-17T10:58:59.999Z</time>
      </trkpt>
      <trkpt lat="48.750308" lon="10.130621">
        <ele>621.836454</ele>
        <time>2024-03-17T10:59:01.999Z</time>
      </trkpt>
      <trkpt lat="48.750220" lon="10.130830">
        <ele>621.427484</ele>
        <time>2024-03-17T10:59:03.999Z</time>
      </trkpt>
      <trkpt lat="48.750138" lon="10.131051">
        <ele>620.935294</ele>
        <time>2024-03-17T10:59:05.999Z</time>
      </trkpt>
      <trkpt lat="48.750063" lon="10.131281">
        <ele>620.437278</ele>
        <time>2024-03-17T10:59:07.999Z</time>
      </trkpt>
      <trkpt lat="48.749997" lon="10.131524">
        <ele>619.927192</ele>
        <time>2024-03-17T10:59:09.999Z</time>
      </trkpt>
      <trkpt lat="48.749949" lon="10.131782">
        <ele>619.406888</ele>
        <time>2024-03-17T10:59:11.999Z</time>
      </trkpt>
      <trkpt lat="48.749916" lon="10.132041">
        <ele>618.894895</ele>
        <time>2024-03-17T10:59:13.999Z</time>
      </trkpt>
      <trkpt lat="48.749893" lon="10.132302">
        <ele>618.383815</ele>
        <time>2024-03-17T10:59:15.999Z</time>
      </trkpt>
      <trkpt lat="48.749884" lon="10.132564">
        <ele>617.874610</ele>
        <time>2024-03-17T10:59:17.999Z</time>
      </trkpt>
      <trkpt lat="48.749877" lon="10.132829">
        <ele>617.359858</ele>
        <time>2024-03-17T10:59:19.999Z</time>
      </trkpt>
      <trkpt lat="48.749868" lon="10.133091">
        <ele>616.850652</ele>
        <time>2024-03-17T10:59:21.999Z</time>
      </trkpt>
      <trkpt lat="48.749858" lon="10.133357">
        <ele>616.333534</ele>
        <time>2024-03-17T10:59:23.999Z</time>
      </trkpt>
      <trkpt lat="48.749853" lon="10.133612">
        <ele>615.943179</ele>
        <time>2024-03-17T10:59:25.999Z</time>
      </trkpt>
      <trkpt lat="48.749844" lon="10.133868">
        <ele>615.616335</ele>
        <time>2024-03-17T10:59:27.999Z</time>
      </trkpt>
      <trkpt lat="48.749831" lon="10.134113">
        <ele>615.302968</ele>
        <time>2024-03-17T10:59:29.999Z</time>
      </trkpt>
      <trkpt lat="48.749817" lon="10.134349">
        <ele>615.000869</ele>
        <time>2024-03-17T10:59:31.999Z</time>
      </trkpt>
      <trkpt lat="48.749801" lon="10.134578">
        <ele>614.707276</ele>
        <time>2024-03-17T10:59:33.999Z</time>
      </trkpt>
      <trkpt lat="48.749755" lon="10.134804">
        <ele>614.405726</ele>
        <time>2024-03-17T10:59:35.999Z</time>
      </trkpt>
      <trkpt lat="48.749736" lon="10.135026">
        <ele>614.120317</ele>
        <time>2024-03-17T10:59:37.999Z</time>
      </trkpt>
      <trkpt lat="48.749702" lon="10.135243">
        <ele>613.835953</ele>
        <time>2024-03-17T10:59:39.999Z</time>
      </trkpt>
      <trkpt lat="48.749672" lon="10.135454">
        <ele>613.560759</ele>
        <time>2024-03-17T10:59:41.999Z</time>
      </trkpt>
      <trkpt lat="48.749634" lon="10.135661">
        <ele>613.286811</ele>
        <time>2024-03-17T10:59:44.000Z</time>
      </trkpt>
      <trkpt lat="48.749594" lon="10.135876">
        <ele>613.001997</ele>
        <time>2024-03-17T10:59:46.000Z</time>
      </trkpt>
      <trkpt lat="48.749552" lon="10.136098">
        <ele>612.707541</ele>
        <time>2024-03-17T10:59:48.000Z</time>
      </trkpt>
      <trkpt lat="48.749505" lon="10.136323">
        <ele>612.590303</ele>
        <time>2024-03-17T10:59:50.000Z</time>
      </trkpt>
      <trkpt lat="48.749462" lon="10.136536">
        <ele>612.507489</ele>
        <time>2024-03-17T10:59:52.000Z</time>
      </trkpt>
      <trkpt lat="48.749416" lon="10.136754">
        <ele>612.422396</ele>
        <time>2024-03-17T10:59:54.000Z</time>
      </trkpt>
      <trkpt lat="48.749330" lon="10.136953">
        <ele>612.333941</ele>
        <time>2024-03-17T10:59:56.000Z</time>
      </trkpt>
      <trkpt lat="48.749202" lon="10.137104">
        <ele>612.242509</ele>
        <time>2024-03-17T10:59:58.000Z</time>
      </trkpt>
      <trkpt lat="48.749071" lon="10.137223">
        <ele>612.156412</ele>
        <time>2024-03-17T11:00:00.000Z</time>
      </trkpt>
      <trkpt lat="48.748928" lon="10.137278">
        <ele>612.073232</ele>
        <time>2024-03-17T11:00:02.000Z</time>
      </trkpt>
      <trkpt lat="48.748795" lon="10.137386">
        <ele>611.988170</ele>
        <time>2024-03-17T11:00:04.000Z</time>
      </trkpt>
      <trkpt lat="48.748654" lon="10.137489">
        <ele>611.899929</ele>
        <time>2024-03-17T11:00:06.000Z</time>
      </trkpt>
      <trkpt lat="48.748543" lon="10.137653">
        <ele>611.812555</ele>
        <time>2024-03-17T11:00:08.000Z</time>
      </trkpt>
      <trkpt lat="48.748438" lon="10.137828">
        <ele>611.724591</ele>
        <time>2024-03-17T11:00:10.000Z</time>
      </trkpt>
      <trkpt lat="48.748344" lon="10.138010">
        <ele>611.661423</ele>
        <time>2024-03-17T11:00:12.000Z</time>
      </trkpt>
      <trkpt lat="48.748248" lon="10.138196">
        <ele>611.725888</ele>
        <time>2024-03-17T11:00:14.000Z</time>
      </trkpt>
      <trkpt lat="48.748162" lon="10.138392">
        <ele>611.790141</ele>
        <time>2024-03-17T11:00:16.000Z</time>
      </trkpt>
      <trkpt lat="48.748096" lon="10.138611">
        <ele>611.855858</ele>
        <time>2024-03-17T11:00:18.000Z</time>
      </trkpt>
      <trkpt lat="48.748051" lon="10.138837">
        <ele>611.920288</ele>
        <time>2024-03-17T11:00:20.000Z</time>
      </trkpt>
      <trkpt lat="48.748023" lon="10.139061">
        <ele>611.982511</ele>
        <time>2024-03-17T11:00:22.000Z</time>
      </trkpt>
      <trkpt lat="48.747999" lon="10.139272">
        <ele>612.040947</ele>
        <time>2024-03-17T11:00:24.000Z</time>
      </trkpt>
      <trkpt lat="48.747987" lon="10.139486">
        <ele>612.099562</ele>
        <time>2024-03-17T11:00:26.000Z</time>
      </trkpt>
      <trkpt lat="48.747983" lon="10.139707">
        <ele>612.159900</ele>
        <time>2024-03-17T11:00:27.999Z</time>
      </trkpt>
      <trkpt lat="48.747969" lon="10.139927">
        <ele>612.220221</ele>
        <time>2024-03-17T11:00:29.999Z</time>
      </trkpt>
      <trkpt lat="48.747966" lon="10.140142">
        <ele>612.278912</ele>
        <time>2024-03-17T11:00:31.999Z</time>
      </trkpt>
      <trkpt lat="48.747965" lon="10.140361">
        <ele>612.338683</ele>
        <time>2024-03-17T11:00:33.999Z</time>
      </trkpt>
      <trkpt lat="48.747963" lon="10.140583">
        <ele>612.407348</ele>
        <time>2024-03-17T11:00:35.999Z</time>
      </trkpt>
      <trkpt lat="48.747976" lon="10.140803">
        <ele>612.628457</ele>
        <time>2024-03-17T11:00:37.999Z</time>
      </trkpt>
      <trkpt lat="48.748030" lon="10.141003">
        <ele>612.844797</ele>
        <time>2024-03-17T11:00:39.999Z</time>
      </trkpt>
      <trkpt lat="48.748109" lon="10.141184">
        <ele>613.062081</ele>
        <time>2024-03-17T11:00:41.999Z</time>
      </trkpt>
      <trkpt lat="48.748214" lon="10.141345">
        <ele>613.288762</ele>
        <time>2024-03-17T11:00:43.999Z</time>
      </trkpt>
      <trkpt lat="48.748308" lon="10.141512">
        <ele>613.508560</ele>
        <time>2024-03-17T11:00:45.999Z</time>
      </trkpt>
      <trkpt lat="48.748391" lon="10.141678">
        <ele>613.717103</ele>
        <time>2024-03-17T11:00:47.999Z</time>
      </trkpt>
      <trkpt lat="48.748389" lon="10.141881">
        <ele>613.920333</ele>
        <time>2024-03-17T11:00:49.999Z</time>
      </trkpt>
      <trkpt lat="48.748337" lon="10.142070">
        <ele>614.125335</ele>
        <time>2024-03-17T11:00:51.999Z</time>
      </trkpt>
      <trkpt lat="48.748290" lon="10.142267">
        <ele>614.335048</ele>
        <time>2024-03-17T11:00:53.999Z</time>
      </trkpt>
      <trkpt lat="48.748267" lon="10.142477">
        <ele>614.548143</ele>
        <time>2024-03-17T11:00:55.999Z</time>
      </trkpt>
      <trkpt lat="48.748256" lon="10.142692">
        <ele>614.764010</ele>
        <time>2024-03-17T11:00:57.999Z</time>
      </trkpt>
      <trkpt lat="48.748256" lon="10.142904">
        <ele>614.976227</ele>
        <time>2024-03-17T11:00:59.999Z</time>
      </trkpt>
      <trkpt lat="48.748266" lon="10.143116">
        <ele>615.176749</ele>
        <time>2024-03-17T11:01:01.999Z</time>
      </trkpt>
      <trkpt lat="48.748277" lon="10.143324">
        <ele>615.344485</ele>
        <time>2024-03-17T11:01:03.999Z</time>
      </trkpt>
      <trkpt lat="48.748300" lon="10.143531">
        <ele>615.513227</ele>
        <time>2024-03-17T11:01:05.999Z</time>
      </trkpt>
      <trkpt lat="48.748316" lon="10.143734">
        <ele>615.677568</ele>
        <time>2024-03-17T11:01:07.999Z</time>
      </trkpt>
      <trkpt lat="48.748275" lon="10.143927">
        <ele>615.840563</ele>
        <time>2024-03-17T11:01:09.999Z</time>
      </trkpt>
      <trkpt lat="48.748201" lon="10.144100">
        <ele>616.006326</ele>
        <time>2024-03-17T11:01:11.999Z</time>
      </trkpt>
      <trkpt lat="48.748126" lon="10.144262">
        <ele>616.165442</ele>
        <time>2024-03-17T11:01:13.999Z</time>
      </trkpt>
      <trkpt lat="48.748025" lon="10.144387">
        <ele>616.324368</ele>
        <time>2024-03-17T11:01:15.999Z</time>
      </trkpt>
      <trkpt lat="48.747927" lon="10.144509">
        <ele>616.478936</ele>
        <time>2024-03-17T11:01:17.999Z</time>
      </trkpt>
      <trkpt lat="48.747834" lon="10.144640">
        <ele>616.633672</ele>
        <time>2024-03-17T11:01:19.999Z</time>
      </trkpt>
      <trkpt lat="48.747724" lon="10.144726">
        <ele>616.784545</ele>
        <time>2024-03-17T11:01:21.999Z</time>
      </trkpt>
      <trkpt lat="48.747633" lon="10.144680">
        <ele>616.901484</ele>
        <time>2024-03-17T11:01:22.999Z</time>
      </trkpt>
      <trkpt lat="48.747490" lon="10.144635">
        <ele>617.079530</ele>
        <time>2024-03-17T11:01:24.999Z</time>
      </trkpt>
      <trkpt lat="48.747339" lon="10.144615">
        <ele>617.264316</ele>
        <time>2024-03-17T11:01:26.999Z</time>
      </trkpt>
      <trkpt lat="48.747193" lon="10.144617">
        <ele>617.086759</ele>
        <time>2024-03-17T11:01:28.999Z</time>
      </trkpt>
      <trkpt lat="48.747040" lon="10.144623">
        <ele>616.732689</ele>
        <time>2024-03-17T11:01:30.999Z</time>
      </trkpt>
      <trkpt lat="48.746885" lon="10.144647">
        <ele>616.372247</ele>
        <time>2024-03-17T11:01:32.999Z</time>
      </trkpt>
      <trkpt lat="48.746724" lon="10.144688">
        <ele>615.994574</ele>
        <time>2024-03-17T11:01:34.999Z</time>
      </trkpt>
      <trkpt lat="48.746545" lon="10.144728">
        <ele>615.576002</ele>
        <time>2024-03-17T11:01:36.999Z</time>
      </trkpt>
      <trkpt lat="48.746452" lon="10.144762">
        <ele>615.354692</ele>
        <time>2024-03-17T11:01:37.999Z</time>
      </trkpt>
      <trkpt lat="48.746355" lon="10.144796">
        <ele>615.124376</ele>
        <time>2024-03-17T11:01:38.999Z</time>
      </trkpt>
      <trkpt lat="48.746257" lon="10.144830">
        <ele>614.891805</ele>
        <time>2024-03-17T11:01:39.999Z</time>
      </trkpt>
      <trkpt lat="48.746162" lon="10.144871">
        <ele>614.663305</ele>
        <time>2024-03-17T11:01:40.999Z</time>
      </trkpt>
      <trkpt lat="48.746068" lon="10.144910">
        <ele>614.437853</ele>
        <time>2024-03-17T11:01:41.999Z</time>
      </trkpt>
      <trkpt lat="48.745976" lon="10.144941">
        <ele>614.219829</ele>
        <time>2024-03-17T11:01:42.999Z</time>
      </trkpt>
      <trkpt lat="48.745886" lon="10.144970">
        <ele>614.006975</ele>
        <time>2024-03-17T11:01:43.999Z</time>
      </trkpt>
      <trkpt lat="48.745715" lon="10.145026">
        <ele>613.602263</ele>
        <time>2024-03-17T11:01:45.999Z</time>
      </trkpt>
      <trkpt lat="48.745549" lon="10.145079">
        <ele>613.209819</ele>
        <time>2024-03-17T11:01:47.999Z</time>
      </trkpt>
      <trkpt lat="48.745387" lon="10.145123">
        <ele>613.349114</ele>
        <time>2024-03-17T11:01:50.000Z</time>
      </trkpt>
      <trkpt lat="48.745226" lon="10.145160">
        <ele>613.566895</ele>
        <time>2024-03-17T11:01:52.000Z</time>
      </trkpt>
      <trkpt lat="48.745056" lon="10.145181">
        <ele>613.795007</ele>
        <time>2024-03-17T11:01:54.000Z</time>
      </trkpt>
      <trkpt lat="48.744891" lon="10.145212">
        <ele>614.017365</ele>
        <time>2024-03-17T11:01:56.000Z</time>
      </trkpt>
      <trkpt lat="48.744731" lon="10.145249">
        <ele>614.233824</ele>
        <time>2024-03-17T11:01:58.000Z</time>
      </trkpt>
      <trkpt lat="48.744584" lon="10.145280">
        <ele>614.432314</ele>
        <time>2024-03-17T11:02:00.000Z</time>
      </trkpt>
      <trkpt lat="48.744443" lon="10.145324">
        <ele>614.624839</ele>
        <time>2024-03-17T11:02:02.000Z</time>
      </trkpt>
      <trkpt lat="48.744310" lon="10.145376">
        <ele>614.808530</ele>
        <time>2024-03-17T11:02:04.000Z</time>
      </trkpt>
      <trkpt lat="48.744178" lon="10.145440">
        <ele>614.993871</ele>
        <time>2024-03-17T11:02:06.000Z</time>
      </trkpt>
      <trkpt lat="48.744050" lon="10.145507">
        <ele>615.174970</ele>
        <time>2024-03-17T11:02:08.000Z</time>
      </trkpt>
      <trkpt lat="48.743921" lon="10.145591">
        <ele>615.362727</ele>
        <time>2024-03-17T11:02:10.000Z</time>
      </trkpt>
      <trkpt lat="48.743797" lon="10.145677">
        <ele>615.545086</ele>
        <time>2024-03-17T11:02:12.000Z</time>
      </trkpt>
      <trkpt lat="48.743669" lon="10.145776">
        <ele>614.727916</ele>
        <time>2024-03-17T11:02:14.000Z</time>
      </trkpt>
      <trkpt lat="48.743528" lon="10.145880">
        <ele>613.715085</ele>
        <time>2024-03-17T11:02:16.000Z</time>
      </trkpt>
      <trkpt lat="48.743379" lon="10.146004">
        <ele>612.617190</ele>
        <time>2024-03-17T11:02:18.000Z</time>
      </trkpt>
      <trkpt lat="48.743297" lon="10.146061">
        <ele>612.034502</ele>
        <time>2024-03-17T11:02:19.000Z</time>
      </trkpt>
      <trkpt lat="48.743206" lon="10.146103">
        <ele>611.420053</ele>
        <time>2024-03-17T11:02:20.000Z</time>
      </trkpt>
      <trkpt lat="48.743109" lon="10.146134">
        <ele>610.779705</ele>
        <time>2024-03-17T11:02:21.000Z</time>
      </trkpt>
      <trkpt lat="48.743007" lon="10.146128">
        <ele>610.120327</ele>
        <time>2024-03-17T11:02:22.000Z</time>
      </trkpt>
      <trkpt lat="48.742909" lon="10.146150">
        <ele>609.480385</ele>
        <time>2024-03-17T11:02:23.000Z</time>
      </trkpt>
      <trkpt lat="48.742803" lon="10.146142">
        <ele>608.794816</ele>
        <time>2024-03-17T11:02:24.000Z</time>
      </trkpt>
      <trkpt lat="48.742699" lon="10.146099">
        <ele>608.098491</ele>
        <time>2024-03-17T11:02:25.000Z</time>
      </trkpt>
      <trkpt lat="48.742591" lon="10.146052">
        <ele>607.372691</ele>
        <time>2024-03-17T11:02:26.000Z</time>
      </trkpt>
      <trkpt lat="48.742485" lon="10.145988">
        <ele>606.635693</ele>
        <time>2024-03-17T11:02:27.000Z</time>
      </trkpt>
      <trkpt lat="48.742367" lon="10.145939">
        <ele>605.845394</ele>
        <time>2024-03-17T11:02:28.000Z</time>
      </trkpt>
      <trkpt lat="48.742257" lon="10.145866">
        <ele>605.069769</ele>
        <time>2024-03-17T11:02:29.000Z</time>
      </trkpt>
      <trkpt lat="48.742142" lon="10.145797">
        <ele>604.270876</ele>
        <time>2024-03-17T11:02:30.000Z</time>
      </trkpt>
      <trkpt lat="48.742021" lon="10.145751">
        <ele>603.291564</ele>
        <time>2024-03-17T11:02:31.000Z</time>
      </trkpt>
      <trkpt lat="48.741898" lon="10.145720">
        <ele>602.195274</ele>
        <time>2024-03-17T11:02:32.000Z</time>
      </trkpt>
      <trkpt lat="48.741776" lon="10.145689">
        <ele>601.107657</ele>
        <time>2024-03-17T11:02:33.000Z</time>
      </trkpt>
      <trkpt lat="48.741651" lon="10.145681">
        <ele>600.007639</ele>
        <time>2024-03-17T11:02:34.000Z</time>
      </trkpt>
      <trkpt lat="48.741522" lon="10.145695">
        <ele>598.870530</ele>
        <time>2024-03-17T11:02:34.999Z</time>
      </trkpt>
      <trkpt lat="48.741394" lon="10.145734">
        <ele>597.722620</ele>
        <time>2024-03-17T11:02:35.999Z</time>
      </trkpt>
      <trkpt lat="48.741270" lon="10.145772">
        <ele>596.610333</ele>
        <time>2024-03-17T11:02:36.999Z</time>
      </trkpt>
      <trkpt lat="48.741141" lon="10.145811">
        <ele>595.453802</ele>
        <time>2024-03-17T11:02:37.999Z</time>
      </trkpt>
      <trkpt lat="48.741010" lon="10.145840">
        <ele>594.289800</ele>
        <time>2024-03-17T11:02:38.999Z</time>
      </trkpt>
      <trkpt lat="48.740877" lon="10.145856">
        <ele>593.116748</ele>
        <time>2024-03-17T11:02:39.999Z</time>
      </trkpt>
      <trkpt lat="48.740744" lon="10.145845">
        <ele>591.945632</ele>
        <time>2024-03-17T11:02:40.999Z</time>
      </trkpt>
      <trkpt lat="48.740610" lon="10.145812">
        <ele>590.752026</ele>
        <time>2024-03-17T11:02:41.999Z</time>
      </trkpt>
      <trkpt lat="48.740481" lon="10.145758">
        <ele>589.575393</ele>
        <time>2024-03-17T11:02:42.999Z</time>
      </trkpt>
      <trkpt lat="48.740358" lon="10.145675">
        <ele>588.391690</ele>
        <time>2024-03-17T11:02:43.999Z</time>
      </trkpt>
      <trkpt lat="48.740242" lon="10.145565">
        <ele>586.989990</ele>
        <time>2024-03-17T11:02:44.999Z</time>
      </trkpt>
      <trkpt lat="48.740131" lon="10.145436">
        <ele>585.501057</ele>
        <time>2024-03-17T11:02:45.999Z</time>
      </trkpt>
      <trkpt lat="48.740030" lon="10.145284">
        <ele>583.986055</ele>
        <time>2024-03-17T11:02:46.999Z</time>
      </trkpt>
      <trkpt lat="48.739946" lon="10.145105">
        <ele>582.443552</ele>
        <time>2024-03-17T11:02:47.999Z</time>
      </trkpt>
      <trkpt lat="48.739873" lon="10.144912">
        <ele>580.881404</ele>
        <time>2024-03-17T11:02:48.999Z</time>
      </trkpt>
      <trkpt lat="48.739818" lon="10.144700">
        <ele>579.281875</ele>
        <time>2024-03-17T11:02:49.999Z</time>
      </trkpt>
      <trkpt lat="48.739777" lon="10.144478">
        <ele>577.663200</ele>
        <time>2024-03-17T11:02:50.999Z</time>
      </trkpt>
      <trkpt lat="48.739741" lon="10.144252">
        <ele>576.030775</ele>
        <time>2024-03-17T11:02:51.999Z</time>
      </trkpt>
      <trkpt lat="48.739683" lon="10.144025">
        <ele>574.321519</ele>
        <time>2024-03-17T11:02:52.999Z</time>
      </trkpt>
      <trkpt lat="48.739606" lon="10.143822">
        <ele>572.677271</ele>
        <time>2024-03-17T11:02:53.999Z</time>
      </trkpt>
      <trkpt lat="48.739517" lon="10.143635">
        <ele>571.058094</ele>
        <time>2024-03-17T11:02:54.999Z</time>
      </trkpt>
      <trkpt lat="48.739410" lon="10.143463">
        <ele>569.397923</ele>
        <time>2024-03-17T11:02:55.999Z</time>
      </trkpt>
      <trkpt lat="48.739290" lon="10.143307">
        <ele>567.828818</ele>
        <time>2024-03-17T11:02:56.999Z</time>
      </trkpt>
      <trkpt lat="48.739159" lon="10.143171">
        <ele>566.290298</ele>
        <time>2024-03-17T11:02:57.999Z</time>
      </trkpt>
      <trkpt lat="48.739024" lon="10.143046">
        <ele>564.757423</ele>
        <time>2024-03-17T11:02:58.999Z</time>
      </trkpt>
      <trkpt lat="48.738891" lon="10.142915">
        <ele>563.220507</ele>
        <time>2024-03-17T11:02:59.999Z</time>
      </trkpt>
      <trkpt lat="48.738756" lon="10.142782">
        <ele>561.660374</ele>
        <time>2024-03-17T11:03:00.999Z</time>
      </trkpt>
      <trkpt lat="48.738624" lon="10.142644">
        <ele>560.106624</ele>
        <time>2024-03-17T11:03:01.999Z</time>
      </trkpt>
      <trkpt lat="48.738493" lon="10.142498">
        <ele>558.531109</ele>
        <time>2024-03-17T11:03:02.999Z</time>
      </trkpt>
      <trkpt lat="48.738370" lon="10.142339">
        <ele>556.964784</ele>
        <time>2024-03-17T11:03:03.999Z</time>
      </trkpt>
      <trkpt lat="48.738254" lon="10.142168">
        <ele>555.396978</ele>
        <time>2024-03-17T11:03:04.999Z</time>
      </trkpt>
      <trkpt lat="48.738144" lon="10.141983">
        <ele>553.805044</ele>
        <time>2024-03-17T11:03:05.999Z</time>
      </trkpt>
      <trkpt lat="48.738041" lon="10.141790">
        <ele>552.218300</ele>
        <time>2024-03-17T11:03:06.999Z</time>
      </trkpt>
      <trkpt lat="48.737945" lon="10.141591">
        <ele>550.650827</ele>
        <time>2024-03-17T11:03:07.999Z</time>
      </trkpt>
      <trkpt lat="48.737858" lon="10.141384">
        <ele>549.096358</ele>
        <time>2024-03-17T11:03:08.999Z</time>
      </trkpt>
      <trkpt lat="48.737780" lon="10.141172">
        <ele>547.558999</ele>
        <time>2024-03-17T11:03:09.999Z</time>
      </trkpt>
      <trkpt lat="48.737710" lon="10.140957">
        <ele>546.040552</ele>
        <time>2024-03-17T11:03:10.999Z</time>
      </trkpt>
      <trkpt lat="48.737651" lon="10.140736">
        <ele>544.530665</ele>
        <time>2024-03-17T11:03:11.999Z</time>
      </trkpt>
      <trkpt lat="48.737598" lon="10.140512">
        <ele>543.023568</ele>
        <time>2024-03-17T11:03:12.999Z</time>
      </trkpt>
      <trkpt lat="48.737549" lon="10.140286">
        <ele>541.516976</ele>
        <time>2024-03-17T11:03:13.999Z</time>
      </trkpt>
      <trkpt lat="48.737497" lon="10.140058">
        <ele>539.989175</ele>
        <time>2024-03-17T11:03:14.999Z</time>
      </trkpt>
      <trkpt lat="48.737443" lon="10.139830">
        <ele>538.454987</ele>
        <time>2024-03-17T11:03:15.999Z</time>
      </trkpt>
      <trkpt lat="48.737384" lon="10.139608">
        <ele>536.939221</ele>
        <time>2024-03-17T11:03:16.999Z</time>
      </trkpt>
      <trkpt lat="48.737318" lon="10.139389">
        <ele>535.414370</ele>
        <time>2024-03-17T11:03:17.999Z</time>
      </trkpt>
      <trkpt lat="48.737239" lon="10.139181">
        <ele>533.897243</ele>
        <time>2024-03-17T11:03:18.999Z</time>
      </trkpt>
      <trkpt lat="48.737148" lon="10.138985">
        <ele>532.390824</ele>
        <time>2024-03-17T11:03:19.999Z</time>
      </trkpt>
      <trkpt lat="48.737047" lon="10.138804">
        <ele>530.900759</ele>
        <time>2024-03-17T11:03:20.999Z</time>
      </trkpt>
      <trkpt lat="48.736941" lon="10.138632">
        <ele>529.421299</ele>
        <time>2024-03-17T11:03:21.999Z</time>
      </trkpt>
      <trkpt lat="48.736826" lon="10.138465">
        <ele>527.903908</ele>
        <time>2024-03-17T11:03:22.999Z</time>
      </trkpt>
      <trkpt lat="48.736715" lon="10.138304">
        <ele>526.440127</ele>
        <time>2024-03-17T11:03:23.999Z</time>
      </trkpt>
      <trkpt lat="48.736600" lon="10.138144">
        <ele>524.952823</ele>
        <time>2024-03-17T11:03:24.999Z</time>
      </trkpt>
      <trkpt lat="48.736477" lon="10.137989">
        <ele>523.428761</ele>
        <time>2024-03-17T11:03:25.999Z</time>
      </trkpt>
      <trkpt lat="48.736346" lon="10.137855">
        <ele>521.922916</ele>
        <time>2024-03-17T11:03:26.999Z</time>
      </trkpt>
      <trkpt lat="48.736205" lon="10.137744">
        <ele>520.408982</ele>
        <time>2024-03-17T11:03:27.999Z</time>
      </trkpt>
      <trkpt lat="48.736061" lon="10.137653">
        <ele>518.922354</ele>
        <time>2024-03-17T11:03:28.999Z</time>
      </trkpt>
      <trkpt lat="48.735912" lon="10.137584">
        <ele>517.437746</ele>
        <time>2024-03-17T11:03:29.999Z</time>
      </trkpt>
      <trkpt lat="48.735761" lon="10.137542">
        <ele>516.239059</ele>
        <time>2024-03-17T11:03:30.999Z</time>
      </trkpt>
      <trkpt lat="48.735607" lon="10.137522">
        <ele>515.100020</ele>
        <time>2024-03-17T11:03:31.999Z</time>
      </trkpt>
      <trkpt lat="48.735454" lon="10.137520">
        <ele>513.972465</ele>
        <time>2024-03-17T11:03:32.999Z</time>
      </trkpt>
      <trkpt lat="48.735306" lon="10.137541">
        <ele>512.877032</ele>
        <time>2024-03-17T11:03:33.999Z</time>
      </trkpt>
      <trkpt lat="48.735165" lon="10.137577">
        <ele>511.823322</ele>
        <time>2024-03-17T11:03:34.999Z</time>
      </trkpt>
      <trkpt lat="48.735035" lon="10.137634">
        <ele>510.826049</ele>
        <time>2024-03-17T11:03:35.999Z</time>
      </trkpt>
      <trkpt lat="48.734916" lon="10.137695">
        <ele>509.900331</ele>
        <time>2024-03-17T11:03:36.999Z</time>
      </trkpt>
      <trkpt lat="48.734800" lon="10.137773">
        <ele>508.965189</ele>
        <time>2024-03-17T11:03:37.999Z</time>
      </trkpt>
      <trkpt lat="48.734685" lon="10.137856">
        <ele>508.026593</ele>
        <time>2024-03-17T11:03:38.999Z</time>
      </trkpt>
      <trkpt lat="48.734573" lon="10.137931">
        <ele>507.124307</ele>
        <time>2024-03-17T11:03:39.999Z</time>
      </trkpt>
      <trkpt lat="48.734475" lon="10.137994">
        <ele>506.339874</ele>
        <time>2024-03-17T11:03:40.999Z</time>
      </trkpt>
      <trkpt lat="48.734384" lon="10.138041">
        <ele>505.631420</ele>
        <time>2024-03-17T11:03:41.999Z</time>
      </trkpt>
      <trkpt lat="48.734292" lon="10.138084">
        <ele>504.921954</ele>
        <time>2024-03-17T11:03:42.999Z</time>
      </trkpt>
      <trkpt lat="48.734137" lon="10.138106">
        <ele>503.873262</ele>
        <time>2024-03-17T11:03:44.999Z</time>
      </trkpt>
      <trkpt lat="48.734034" lon="10.138066">
        <ele>503.785062</ele>
        <time>2024-03-17T11:03:46.999Z</time>
      </trkpt>
      <trkpt lat="48.733960" lon="10.137793">
        <ele>503.623576</ele>
        <time>2024-03-17T11:03:49.999Z</time>
      </trkpt>
      <trkpt lat="48.734025" lon="10.137676">
        <ele>503.539880</ele>
        <time>2024-03-17T11:03:51.999Z</time>
      </trkpt>
      <trkpt lat="48.733948" lon="10.137569">
        <ele>503.453236</ele>
        <time>2024-03-17T11:03:53.999Z</time>
      </trkpt>
      <trkpt lat="48.733867" lon="10.137492">
        <ele>503.373930</ele>
        <time>2024-03-17T11:03:56.000Z</time>
      </trkpt>
      <trkpt lat="48.733879" lon="10.137343">
        <ele>503.291803</ele>
        <time>2024-03-17T11:03:59.000Z</time>
      </trkpt>
      <trkpt lat="48.733935" lon="10.137195">
        <ele>503.198450</ele>
        <time>2024-03-17T11:04:03.000Z</time>
      </trkpt>
      <trkpt lat="48.733930" lon="10.137024">
        <ele>503.104800</ele>
        <time>2024-03-17T11:04:07.000Z</time>
      </trkpt>
      <trkpt lat="48.733962" lon="10.136888">
        <ele>503.025798</ele>
        <time>2024-03-17T11:04:10.000Z</time>
      </trkpt>
      <trkpt lat="48.733921" lon="10.136725">
        <ele>502.930351</ele>
        <time>2024-03-17T11:04:13.000Z</time>
      </trkpt>
      <trkpt lat="48.733833" lon="10.136637">
        <ele>502.842905</ele>
        <time>2024-03-17T11:04:15.000Z</time>
      </trkpt>
      <trkpt lat="48.733730" lon="10.136542">
        <ele>502.742895</ele>
        <time>2024-03-17T11:04:17.000Z</time>
      </trkpt>
      <trkpt lat="48.733616" lon="10.136428">
        <ele>502.629612</ele>
        <time>2024-03-17T11:04:19.000Z</time>
      </trkpt>
      <trkpt lat="48.733496" lon="10.136295">
        <ele>502.506307</ele>
        <time>2024-03-17T11:04:21.000Z</time>
      </trkpt>
      <trkpt lat="48.733376" lon="10.136158">
        <ele>502.383144</ele>
        <time>2024-03-17T11:04:23.000Z</time>
      </trkpt>
      <trkpt lat="48.733260" lon="10.136018">
        <ele>502.274934</ele>
        <time>2024-03-17T11:04:25.000Z</time>
      </trkpt>
      <trkpt lat="48.733132" lon="10.135956">
        <ele>502.176864</ele>
        <time>2024-03-17T11:04:27.000Z</time>
      </trkpt>
      <trkpt lat="48.732998" lon="10.135947">
        <ele>502.078969</ele>
        <time>2024-03-17T11:04:29.000Z</time>
      </trkpt>
      <trkpt lat="48.732869" lon="10.135919">
        <ele>501.983861</ele>
        <time>2024-03-17T11:04:31.000Z</time>
      </trkpt>
      <trkpt lat="48.732733" lon="10.135907">
        <ele>501.884435</ele>
        <time>2024-03-17T11:04:33.000Z</time>
      </trkpt>
      <trkpt lat="48.732597" lon="10.135895">
        <ele>501.785009</ele>
        <time>2024-03-17T11:04:35.000Z</time>
      </trkpt>
      <trkpt lat="48.732456" lon="10.135882">
        <ele>501.681912</ele>
        <time>2024-03-17T11:04:37.000Z</time>
      </trkpt>
      <trkpt lat="48.732313" lon="10.135875">
        <ele>501.577491</ele>
        <time>2024-03-17T11:04:39.000Z</time>
      </trkpt>
      <trkpt lat="48.732175" lon="10.135864">
        <ele>501.476634</ele>
        <time>2024-03-17T11:04:41.000Z</time>
      </trkpt>
      <trkpt lat="48.732042" lon="10.135847">
        <ele>501.379222</ele>
        <time>2024-03-17T11:04:42.999Z</time>
      </trkpt>
      <trkpt lat="48.731910" lon="10.135830">
        <ele>501.282536</ele>
        <time>2024-03-17T11:04:44.999Z</time>
      </trkpt>
      <trkpt lat="48.731785" lon="10.135814">
        <ele>501.190982</ele>
        <time>2024-03-17T11:04:46.999Z</time>
      </trkpt>
      <trkpt lat="48.731657" lon="10.135774">
        <ele>501.095599</ele>
        <time>2024-03-17T11:04:48.999Z</time>
      </trkpt>
      <trkpt lat="48.731542" lon="10.135681">
        <ele>501.025690</ele>
        <time>2024-03-17T11:04:50.999Z</time>
      </trkpt>
      <trkpt lat="48.731459" lon="10.135539">
        <ele>500.962949</ele>
        <time>2024-03-17T11:04:52.999Z</time>
      </trkpt>
      <trkpt lat="48.731432" lon="10.135353">
        <ele>500.899971</ele>
        <time>2024-03-17T11:04:54.999Z</time>
      </trkpt>
      <trkpt lat="48.731396" lon="10.135168">
        <ele>500.836188</ele>
        <time>2024-03-17T11:04:56.999Z</time>
      </trkpt>
      <trkpt lat="48.731377" lon="10.134971">
        <ele>500.770351</ele>
        <time>2024-03-17T11:04:58.999Z</time>
      </trkpt>
      <trkpt lat="48.731391" lon="10.134766">
        <ele>500.702200</ele>
        <time>2024-03-17T11:05:00.999Z</time>
      </trkpt>
      <trkpt lat="48.731406" lon="10.134560">
        <ele>500.633666</ele>
        <time>2024-03-17T11:05:02.999Z</time>
      </trkpt>
      <trkpt lat="48.731423" lon="10.134346">
        <ele>500.562389</ele>
        <time>2024-03-17T11:05:04.999Z</time>
      </trkpt>
      <trkpt lat="48.731420" lon="10.134134">
        <ele>500.492269</ele>
        <time>2024-03-17T11:05:06.999Z</time>
      </trkpt>
      <trkpt lat="48.731395" lon="10.133923">
        <ele>500.421379</ele>
        <time>2024-03-17T11:05:08.999Z</time>
      </trkpt>
      <trkpt lat="48.731352" lon="10.133721">
        <ele>500.351189</ele>
        <time>2024-03-17T11:05:10.999Z</time>
      </trkpt>
      <trkpt lat="48.731303" lon="10.133517">
        <ele>500.279396</ele>
        <time>2024-03-17T11:05:12.999Z</time>
      </trkpt>
      <trkpt lat="48.731256" lon="10.133318">
        <ele>500.209499</ele>
        <time>2024-03-17T11:05:14.999Z</time>
      </trkpt>
      <trkpt lat="48.731197" lon="10.133137">
        <ele>500.238425</ele>
        <time>2024-03-17T11:05:16.999Z</time>
      </trkpt>
      <trkpt lat="48.731221" lon="10.132945">
        <ele>500.343007</ele>
        <time>2024-03-17T11:05:18.999Z</time>
      </trkpt>
      <trkpt lat="48.731285" lon="10.132755">
        <ele>500.457181</ele>
        <time>2024-03-17T11:05:20.999Z</time>
      </trkpt>
      <trkpt lat="48.731347" lon="10.132548">
        <ele>500.578848</ele>
        <time>2024-03-17T11:05:22.999Z</time>
      </trkpt>
      <trkpt lat="48.731404" lon="10.132338">
        <ele>500.700378</ele>
        <time>2024-03-17T11:05:24.999Z</time>
      </trkpt>
      <trkpt lat="48.731476" lon="10.132128">
        <ele>500.827040</ele>
        <time>2024-03-17T11:05:26.999Z</time>
      </trkpt>
      <trkpt lat="48.731546" lon="10.131913">
        <ele>500.955356</ele>
        <time>2024-03-17T11:05:28.999Z</time>
      </trkpt>
      <trkpt lat="48.731624" lon="10.131708">
        <ele>501.082010</ele>
        <time>2024-03-17T11:05:30.999Z</time>
      </trkpt>
      <trkpt lat="48.731710" lon="10.131512">
        <ele>501.207992</ele>
        <time>2024-03-17T11:05:32.999Z</time>
      </trkpt>
      <trkpt lat="48.731798" lon="10.131319">
        <ele>501.333556</ele>
        <time>2024-03-17T11:05:34.999Z</time>
      </trkpt>
      <trkpt lat="48.731889" lon="10.131132">
        <ele>501.457921</ele>
        <time>2024-03-17T11:05:36.999Z</time>
      </trkpt>
      <trkpt lat="48.731980" lon="10.130953">
        <ele>501.578868</ele>
        <time>2024-03-17T11:05:38.999Z</time>
      </trkpt>
      <trkpt lat="48.732073" lon="10.130789">
        <ele>501.622177</ele>
        <time>2024-03-17T11:05:40.999Z</time>
      </trkpt>
      <trkpt lat="48.732160" lon="10.130623">
        <ele>501.588794</ele>
        <time>2024-03-17T11:05:42.999Z</time>
      </trkpt>
      <trkpt lat="48.732245" lon="10.130448">
        <ele>501.554576</ele>
        <time>2024-03-17T11:05:44.999Z</time>
      </trkpt>
      <trkpt lat="48.732344" lon="10.130282">
        <ele>501.519341</ele>
        <time>2024-03-17T11:05:46.999Z</time>
      </trkpt>
      <trkpt lat="48.732461" lon="10.130129">
        <ele>501.482458</ele>
        <time>2024-03-17T11:05:48.999Z</time>
      </trkpt>
      <trkpt lat="48.732563" lon="10.129941">
        <ele>501.444131</ele>
        <time>2024-03-17T11:05:50.999Z</time>
      </trkpt>
      <trkpt lat="48.732667" lon="10.129756">
        <ele>501.405860</ele>
        <time>2024-03-17T11:05:52.999Z</time>
      </trkpt>
      <trkpt lat="48.732773" lon="10.129570">
        <ele>501.367158</ele>
        <time>2024-03-17T11:05:54.999Z</time>
      </trkpt>
      <trkpt lat="48.732874" lon="10.129382">
        <ele>501.328982</ele>
        <time>2024-03-17T11:05:56.999Z</time>
      </trkpt>
      <trkpt lat="48.732980" lon="10.129202">
        <ele>501.290990</ele>
        <time>2024-03-17T11:05:58.999Z</time>
      </trkpt>
      <trkpt lat="48.733076" lon="10.129013">
        <ele>501.253432</ele>
        <time>2024-03-17T11:06:01.000Z</time>
      </trkpt>
      <trkpt lat="48.733173" lon="10.128835">
        <ele>501.217080</ele>
        <time>2024-03-17T11:06:03.000Z</time>
      </trkpt>
      <trkpt lat="48.733248" lon="10.128654">
        <ele>501.212563</ele>
        <time>2024-03-17T11:06:05.000Z</time>
      </trkpt>
      <trkpt lat="48.733315" lon="10.128485">
        <ele>501.216485</ele>
        <time>2024-03-17T11:06:07.000Z</time>
      </trkpt>
      <trkpt lat="48.733360" lon="10.128342">
        <ele>501.219637</ele>
        <time>2024-03-17T11:06:09.000Z</time>
      </trkpt>
      <trkpt lat="48.733420" lon="10.128191">
        <ele>501.223143</ele>
        <time>2024-03-17T11:06:11.000Z</time>
      </trkpt>
      <trkpt lat="48.733489" lon="10.128033">
        <ele>501.226913</ele>
        <time>2024-03-17T11:06:13.000Z</time>
      </trkpt>
      <trkpt lat="48.733550" lon="10.127883">
        <ele>501.230418</ele>
        <time>2024-03-17T11:06:15.000Z</time>
      </trkpt>
      <trkpt lat="48.733605" lon="10.127738">
        <ele>501.233745</ele>
        <time>2024-03-17T11:06:17.000Z</time>
      </trkpt>
      <trkpt lat="48.733649" lon="10.127609">
        <ele>501.236634</ele>
        <time>2024-03-17T11:06:19.000Z</time>
      </trkpt>
      <trkpt lat="48.733695" lon="10.127430">
        <ele>501.240455</ele>
        <time>2024-03-17T11:06:22.000Z</time>
      </trkpt>
      <trkpt lat="48.733694" lon="10.127270">
        <ele>501.243638</ele>
        <time>2024-03-17T11:06:26.000Z</time>
      </trkpt>
      <trkpt lat="48.733699" lon="10.126946">
        <ele>501.250084</ele>
        <time>2024-03-17T11:07:06.999Z</time>
      </trkpt>
      <trkpt lat="48.733729" lon="10.126744">
        <ele>501.254203</ele>
        <time>2024-03-17T11:07:08.999Z</time>
      </trkpt>
      <trkpt lat="48.733778" lon="10.126543">
        <ele>501.258465</ele>
        <time>2024-03-17T11:07:10.999Z</time>
      </trkpt>
      <trkpt lat="48.733821" lon="10.126347">
        <ele>501.262574</ele>
        <time>2024-03-17T11:07:12.999Z</time>
      </trkpt>
      <trkpt lat="48.733872" lon="10.126174">
        <ele>501.480203</ele>
        <time>2024-03-17T11:07:14.999Z</time>
      </trkpt>
      <trkpt lat="48.733919" lon="10.125951">
        <ele>501.839933</ele>
        <time>2024-03-17T11:07:16.999Z</time>
      </trkpt>
      <trkpt lat="48.733866" lon="10.125755">
        <ele>502.165434</ele>
        <time>2024-03-17T11:07:18.999Z</time>
      </trkpt>
      <trkpt lat="48.733845" lon="10.125564">
        <ele>502.462973</ele>
        <time>2024-03-17T11:07:20.999Z</time>
      </trkpt>
      <trkpt lat="48.733843" lon="10.125370">
        <ele>502.761108</ele>
        <time>2024-03-17T11:07:22.999Z</time>
      </trkpt>
      <trkpt lat="48.733849" lon="10.125169">
        <ele>503.070280</ele>
        <time>2024-03-17T11:07:24.999Z</time>
      </trkpt>
      <trkpt lat="48.733840" lon="10.124983">
        <ele>503.356854</ele>
        <time>2024-03-17T11:07:26.999Z</time>
      </trkpt>
      <trkpt lat="48.733836" lon="10.124791">
        <ele>503.652027</ele>
        <time>2024-03-17T11:07:28.999Z</time>
      </trkpt>
      <trkpt lat="48.733835" lon="10.124604">
        <ele>503.939380</ele>
        <time>2024-03-17T11:07:30.999Z</time>
      </trkpt>
      <trkpt lat="48.733835" lon="10.124420">
        <ele>504.222113</ele>
        <time>2024-03-17T11:07:32.999Z</time>
      </trkpt>
      <trkpt lat="48.733840" lon="10.124234">
        <ele>504.508157</ele>
        <time>2024-03-17T11:07:34.999Z</time>
      </trkpt>
      <trkpt lat="48.733859" lon="10.124033">
        <ele>504.820168</ele>
        <time>2024-03-17T11:07:36.999Z</time>
      </trkpt>
      <trkpt lat="48.733887" lon="10.123814">
        <ele>505.162946</ele>
        <time>2024-03-17T11:07:38.999Z</time>
      </trkpt>
      <trkpt lat="48.733916" lon="10.123594">
        <ele>505.480991</ele>
        <time>2024-03-17T11:07:40.999Z</time>
      </trkpt>
      <trkpt lat="48.733970" lon="10.123391">
        <ele>505.650423</ele>
        <time>2024-03-17T11:07:42.999Z</time>
      </trkpt>
      <trkpt lat="48.733992" lon="10.123179">
        <ele>505.816541</ele>
        <time>2024-03-17T11:07:44.999Z</time>
      </trkpt>
      <trkpt lat="48.734006" lon="10.122974">
        <ele>505.976071</ele>
        <time>2024-03-17T11:07:46.999Z</time>
      </trkpt>
      <trkpt lat="48.734017" lon="10.122763">
        <ele>506.139906</ele>
        <time>2024-03-17T11:07:48.999Z</time>
      </trkpt>
      <trkpt lat="48.734025" lon="10.122548">
        <ele>506.306592</ele>
        <time>2024-03-17T11:07:50.999Z</time>
      </trkpt>
      <trkpt lat="48.734032" lon="10.122339">
        <ele>506.468578</ele>
        <time>2024-03-17T11:07:52.999Z</time>
      </trkpt>
      <trkpt lat="48.734037" lon="10.122142">
        <ele>506.621179</ele>
        <time>2024-03-17T11:07:54.999Z</time>
      </trkpt>
      <trkpt lat="48.734043" lon="10.121946">
        <ele>506.773057</ele>
        <time>2024-03-17T11:07:56.999Z</time>
      </trkpt>
      <trkpt lat="48.734052" lon="10.121756">
        <ele>506.920506</ele>
        <time>2024-03-17T11:07:58.999Z</time>
      </trkpt>
      <trkpt lat="48.734067" lon="10.121585">
        <ele>507.054035</ele>
        <time>2024-03-17T11:08:00.999Z</time>
      </trkpt>
      <trkpt lat="48.734069" lon="10.121402">
        <ele>507.195706</ele>
        <time>2024-03-17T11:08:02.999Z</time>
      </trkpt>
      <trkpt lat="48.734106" lon="10.121224">
        <ele>507.340169</ele>
        <time>2024-03-17T11:08:04.999Z</time>
      </trkpt>
      <trkpt lat="48.734142" lon="10.121040">
        <ele>507.488729</ele>
        <time>2024-03-17T11:08:07.000Z</time>
      </trkpt>
      <trkpt lat="48.734179" lon="10.120859">
        <ele>507.485140</ele>
        <time>2024-03-17T11:08:09.000Z</time>
      </trkpt>
      <trkpt lat="48.734211" lon="10.120680">
        <ele>507.323245</ele>
        <time>2024-03-17T11:08:11.000Z</time>
      </trkpt>
      <trkpt lat="48.734250" lon="10.120497">
        <ele>507.155365</ele>
        <time>2024-03-17T11:08:13.000Z</time>
      </trkpt>
      <trkpt lat="48.734282" lon="10.120305">
        <ele>506.982492</ele>
        <time>2024-03-17T11:08:15.000Z</time>
      </trkpt>
      <trkpt lat="48.734315" lon="10.120112">
        <ele>506.808446</ele>
        <time>2024-03-17T11:08:17.000Z</time>
      </trkpt>
      <trkpt lat="48.734364" lon="10.119925">
        <ele>506.632795</ele>
        <time>2024-03-17T11:08:19.000Z</time>
      </trkpt>
      <trkpt lat="48.734422" lon="10.119734">
        <ele>506.449241</ele>
        <time>2024-03-17T11:08:21.000Z</time>
      </trkpt>
      <trkpt lat="48.734483" lon="10.119541">
        <ele>506.262419</ele>
        <time>2024-03-17T11:08:23.000Z</time>
      </trkpt>
      <trkpt lat="48.734548" lon="10.119351">
        <ele>506.075577</ele>
        <time>2024-03-17T11:08:25.000Z</time>
      </trkpt>
      <trkpt lat="48.734616" lon="10.119164">
        <ele>505.889172</ele>
        <time>2024-03-17T11:08:27.000Z</time>
      </trkpt>
      <trkpt lat="48.734692" lon="10.118987">
        <ele>505.704805</ele>
        <time>2024-03-17T11:08:29.000Z</time>
      </trkpt>
      <trkpt lat="48.734774" lon="10.118817">
        <ele>505.520955</ele>
        <time>2024-03-17T11:08:31.000Z</time>
      </trkpt>
      <trkpt lat="48.734835" lon="10.118626">
        <ele>505.335707</ele>
        <time>2024-03-17T11:08:33.000Z</time>
      </trkpt>
      <trkpt lat="48.734909" lon="10.118439">
        <ele>505.249476</ele>
        <time>2024-03-17T11:08:35.000Z</time>
      </trkpt>
      <trkpt lat="48.734987" lon="10.118255">
        <ele>505.569940</ele>
        <time>2024-03-17T11:08:37.000Z</time>
      </trkpt>
      <trkpt lat="48.735059" lon="10.118068">
        <ele>505.887186</ele>
        <time>2024-03-17T11:08:39.000Z</time>
      </trkpt>
      <trkpt lat="48.735125" lon="10.117882">
        <ele>506.196634</ele>
        <time>2024-03-17T11:08:41.000Z</time>
      </trkpt>
      <trkpt lat="48.735199" lon="10.117699">
        <ele>506.511131</ele>
        <time>2024-03-17T11:08:43.000Z</time>
      </trkpt>
      <trkpt lat="48.735263" lon="10.117510">
        <ele>506.822402</ele>
        <time>2024-03-17T11:08:45.000Z</time>
      </trkpt>
      <trkpt lat="48.735330" lon="10.117331">
        <ele>507.123947</ele>
        <time>2024-03-17T11:08:47.000Z</time>
      </trkpt>
      <trkpt lat="48.735388" lon="10.117144">
        <ele>507.426706</ele>
        <time>2024-03-17T11:08:49.000Z</time>
      </trkpt>
      <trkpt lat="48.735449" lon="10.116950">
        <ele>507.741585</ele>
        <time>2024-03-17T11:08:51.000Z</time>
      </trkpt>
      <trkpt lat="48.735503" lon="10.116764">
        <ele>508.039329</ele>
        <time>2024-03-17T11:08:53.000Z</time>
      </trkpt>
      <trkpt lat="48.735569" lon="10.116589">
        <ele>508.334681</ele>
        <time>2024-03-17T11:08:55.000Z</time>
      </trkpt>
      <trkpt lat="48.735624" lon="10.116424">
        <ele>508.605544</ele>
        <time>2024-03-17T11:08:57.000Z</time>
      </trkpt>
      <trkpt lat="48.735667" lon="10.116280">
        <ele>508.837135</ele>
        <time>2024-03-17T11:08:58.999Z</time>
      </trkpt>
      <trkpt lat="48.735708" lon="10.116157">
        <ele>509.039050</ele>
        <time>2024-03-17T11:09:00.999Z</time>
      </trkpt>
      <trkpt lat="48.735746" lon="10.116028">
        <ele>509.525513</ele>
        <time>2024-03-17T11:09:02.999Z</time>
      </trkpt>
      <trkpt lat="48.735787" lon="10.115900">
        <ele>510.612983</ele>
        <time>2024-03-17T11:09:04.999Z</time>
      </trkpt>
      <trkpt lat="48.735829" lon="10.115769">
        <ele>511.726137</ele>
        <time>2024-03-17T11:09:06.999Z</time>
      </trkpt>
      <trkpt lat="48.735882" lon="10.115644">
        <ele>512.861791</ele>
        <time>2024-03-17T11:09:08.999Z</time>
      </trkpt>
      <trkpt lat="48.735939" lon="10.115521">
        <ele>514.010625</ele>
        <time>2024-03-17T11:09:10.999Z</time>
      </trkpt>
      <trkpt lat="48.735970" lon="10.115388">
        <ele>515.088645</ele>
        <time>2024-03-17T11:09:13.999Z</time>
      </trkpt>
      <trkpt lat="48.735869" lon="10.115408">
        <ele>516.268906</ele>
        <time>2024-03-17T11:09:17.999Z</time>
      </trkpt>
      <trkpt lat="48.735806" lon="10.115510">
        <ele>517.336864</ele>
        <time>2024-03-17T11:09:21.999Z</time>
      </trkpt>
      <trkpt lat="48.735737" lon="10.115603">
        <ele>518.406621</ele>
        <time>2024-03-17T11:09:25.999Z</time>
      </trkpt>
      <trkpt lat="48.735657" lon="10.115692">
        <ele>519.556370</ele>
        <time>2024-03-17T11:09:29.999Z</time>
      </trkpt>
      <trkpt lat="48.735578" lon="10.115776">
        <ele>520.674430</ele>
        <time>2024-03-17T11:09:33.999Z</time>
      </trkpt>
      <trkpt lat="48.735501" lon="10.115866">
        <ele>521.800992</ele>
        <time>2024-03-17T11:09:38.999Z</time>
      </trkpt>
      <trkpt lat="48.735422" lon="10.115970">
        <ele>523.013288</ele>
        <time>2024-03-17T11:09:43.999Z</time>
      </trkpt>
      <trkpt lat="48.735342" lon="10.116074">
        <ele>524.234358</ele>
        <time>2024-03-17T11:09:48.999Z</time>
      </trkpt>
      <trkpt lat="48.735274" lon="10.116169">
        <ele>525.305784</ele>
        <time>2024-03-17T11:09:52.999Z</time>
      </trkpt>
      <trkpt lat="48.735195" lon="10.116278">
        <ele>526.543471</ele>
        <time>2024-03-17T11:09:57.999Z</time>
      </trkpt>
      <trkpt lat="48.735111" lon="10.116388">
        <ele>527.829585</ele>
        <time>2024-03-17T11:10:02.999Z</time>
      </trkpt>
      <trkpt lat="48.735036" lon="10.116482">
        <ele>528.957113</ele>
        <time>2024-03-17T11:10:06.999Z</time>
      </trkpt>
      <trkpt lat="48.734955" lon="10.116590">
        <ele>530.181292</ele>
        <time>2024-03-17T11:10:11.999Z</time>
      </trkpt>
      <trkpt lat="48.734862" lon="10.116702">
        <ele>531.367127</ele>
        <time>2024-03-17T11:10:16.000Z</time>
      </trkpt>
      <trkpt lat="48.734776" lon="10.116645">
        <ele>532.304256</ele>
        <time>2024-03-17T11:10:21.000Z</time>
      </trkpt>
      <trkpt lat="48.734832" lon="10.116525">
        <ele>533.272294</ele>
        <time>2024-03-17T11:10:25.000Z</time>
      </trkpt>
      <trkpt lat="48.734906" lon="10.116417">
        <ele>534.297831</ele>
        <time>2024-03-17T11:10:29.000Z</time>
      </trkpt>
      <trkpt lat="48.734970" lon="10.116275">
        <ele>535.430419</ele>
        <time>2024-03-17T11:10:33.000Z</time>
      </trkpt>
      <trkpt lat="48.734999" lon="10.116094">
        <ele>536.657013</ele>
        <time>2024-03-17T11:10:38.000Z</time>
      </trkpt>
      <trkpt lat="48.735042" lon="10.115954">
        <ele>537.674012</ele>
        <time>2024-03-17T11:10:42.000Z</time>
      </trkpt>
      <trkpt lat="48.735069" lon="10.115799">
        <ele>538.729723</ele>
        <time>2024-03-17T11:10:46.000Z</time>
      </trkpt>
      <trkpt lat="48.735106" lon="10.115641">
        <ele>539.833827</ele>
        <time>2024-03-17T11:10:50.000Z</time>
      </trkpt>
      <trkpt lat="48.735127" lon="10.115479">
        <ele>540.921042</ele>
        <time>2024-03-17T11:10:54.000Z</time>
      </trkpt>
      <trkpt lat="48.735169" lon="10.115322">
        <ele>542.036731</ele>
        <time>2024-03-17T11:10:58.000Z</time>
      </trkpt>
      <trkpt lat="48.735228" lon="10.115168">
        <ele>543.209535</ele>
        <time>2024-03-17T11:11:02.000Z</time>
      </trkpt>
      <trkpt lat="48.735283" lon="10.115013">
        <ele>544.368589</ele>
        <time>2024-03-17T11:11:05.999Z</time>
      </trkpt>
      <trkpt lat="48.735358" lon="10.114870">
        <ele>545.571722</ele>
        <time>2024-03-17T11:11:09.999Z</time>
      </trkpt>
      <trkpt lat="48.735415" lon="10.114734">
        <ele>546.632840</ele>
        <time>2024-03-17T11:11:13.999Z</time>
      </trkpt>
      <trkpt lat="48.735462" lon="10.114589">
        <ele>547.696775</ele>
        <time>2024-03-17T11:11:18.999Z</time>
      </trkpt>
      <trkpt lat="48.735508" lon="10.114455">
        <ele>548.459010</ele>
        <time>2024-03-17T11:11:22.999Z</time>
      </trkpt>
      <trkpt lat="48.735562" lon="10.114316">
        <ele>549.174196</ele>
        <time>2024-03-17T11:11:26.999Z</time>
      </trkpt>
      <trkpt lat="48.735618" lon="10.114174">
        <ele>549.907680</ele>
        <time>2024-03-17T11:11:30.999Z</time>
      </trkpt>
      <trkpt lat="48.735666" lon="10.114026">
        <ele>550.638845</ele>
        <time>2024-03-17T11:11:34.999Z</time>
      </trkpt>
      <trkpt lat="48.735692" lon="10.113857">
        <ele>551.408183</ele>
        <time>2024-03-17T11:11:39.999Z</time>
      </trkpt>
      <trkpt lat="48.735714" lon="10.113718">
        <ele>552.041904</ele>
        <time>2024-03-17T11:11:43.999Z</time>
      </trkpt>
      <trkpt lat="48.735753" lon="10.113554">
        <ele>552.814779</ele>
        <time>2024-03-17T11:11:47.999Z</time>
      </trkpt>
      <trkpt lat="48.735787" lon="10.113394">
        <ele>553.560011</ele>
        <time>2024-03-17T11:11:51.999Z</time>
      </trkpt>
      <trkpt lat="48.735819" lon="10.113233">
        <ele>554.305474</ele>
        <time>2024-03-17T11:11:55.999Z</time>
      </trkpt>
      <trkpt lat="48.735825" lon="10.113073">
        <ele>555.015942</ele>
        <time>2024-03-17T11:11:59.999Z</time>
      </trkpt>
      <trkpt lat="48.735855" lon="10.112924">
        <ele>555.706594</ele>
        <time>2024-03-17T11:12:03.999Z</time>
      </trkpt>
      <trkpt lat="48.735900" lon="10.112769">
        <ele>556.457379</ele>
        <time>2024-03-17T11:12:07.999Z</time>
      </trkpt>
      <trkpt lat="48.735933" lon="10.112604">
        <ele>557.221760</ele>
        <time>2024-03-17T11:12:11.999Z</time>
      </trkpt>
      <trkpt lat="48.735974" lon="10.112476">
        <ele>557.852601</ele>
        <time>2024-03-17T11:12:14.999Z</time>
      </trkpt>
      <trkpt lat="48.736002" lon="10.112334">
        <ele>558.509656</ele>
        <time>2024-03-17T11:12:17.999Z</time>
      </trkpt>
      <trkpt lat="48.736006" lon="10.112191">
        <ele>559.144181</ele>
        <time>2024-03-17T11:12:21.000Z</time>
      </trkpt>
      <trkpt lat="48.735944" lon="10.112089">
        <ele>559.759129</ele>
        <time>2024-03-17T11:12:24.000Z</time>
      </trkpt>
      <trkpt lat="48.735856" lon="10.112138">
        <ele>560.652019</ele>
        <time>2024-03-17T11:12:27.000Z</time>
      </trkpt>
      <trkpt lat="48.735804" lon="10.112293">
        <ele>562.057595</ele>
        <time>2024-03-17T11:12:31.000Z</time>
      </trkpt>
      <trkpt lat="48.735771" lon="10.112423">
        <ele>563.183482</ele>
        <time>2024-03-17T11:12:34.000Z</time>
      </trkpt>
      <trkpt lat="48.735719" lon="10.112571">
        <ele>564.538874</ele>
        <time>2024-03-17T11:12:38.000Z</time>
      </trkpt>
      <trkpt lat="48.735635" lon="10.112686">
        <ele>565.925854</ele>
        <time>2024-03-17T11:12:42.000Z</time>
      </trkpt>
      <trkpt lat="48.735553" lon="10.112807">
        <ele>567.328124</ele>
        <time>2024-03-17T11:12:46.000Z</time>
      </trkpt>
      <trkpt lat="48.735474" lon="10.112912">
        <ele>568.615598</ele>
        <time>2024-03-17T11:12:50.000Z</time>
      </trkpt>
      <trkpt lat="48.735407" lon="10.113010">
        <ele>569.756487</ele>
        <time>2024-03-17T11:12:54.000Z</time>
      </trkpt>
      <trkpt lat="48.735329" lon="10.113137">
        <ele>571.159149</ele>
        <time>2024-03-17T11:12:58.000Z</time>
      </trkpt>
      <trkpt lat="48.735263" lon="10.113273">
        <ele>572.523912</ele>
        <time>2024-03-17T11:13:02.000Z</time>
      </trkpt>
      <trkpt lat="48.735190" lon="10.113400">
        <ele>573.885556</ele>
        <time>2024-03-17T11:13:06.000Z</time>
      </trkpt>
      <trkpt lat="48.735118" lon="10.113526">
        <ele>575.233061</ele>
        <time>2024-03-17T11:13:09.999Z</time>
      </trkpt>
      <trkpt lat="48.735046" lon="10.113653">
        <ele>576.586688</ele>
        <time>2024-03-17T11:13:13.999Z</time>
      </trkpt>
      <trkpt lat="48.734960" lon="10.113762">
        <ele>577.960367</ele>
        <time>2024-03-17T11:13:17.999Z</time>
      </trkpt>
      <trkpt lat="48.734891" lon="10.113900">
        <ele>579.360089</ele>
        <time>2024-03-17T11:13:21.999Z</time>
      </trkpt>
      <trkpt lat="48.734817" lon="10.113994">
        <ele>580.543180</ele>
        <time>2024-03-17T11:13:24.999Z</time>
      </trkpt>
      <trkpt lat="48.734743" lon="10.114116">
        <ele>581.882894</ele>
        <time>2024-03-17T11:13:28.999Z</time>
      </trkpt>
      <trkpt lat="48.734656" lon="10.114236">
        <ele>583.473367</ele>
        <time>2024-03-17T11:13:32.999Z</time>
      </trkpt>
      <trkpt lat="48.734560" lon="10.114352">
        <ele>585.162916</ele>
        <time>2024-03-17T11:13:36.999Z</time>
      </trkpt>
      <trkpt lat="48.734460" lon="10.114429">
        <ele>586.706565</ele>
        <time>2024-03-17T11:13:40.999Z</time>
      </trkpt>
      <trkpt lat="48.734364" lon="10.114459">
        <ele>588.055616</ele>
        <time>2024-03-17T11:13:44.999Z</time>
      </trkpt>
      <trkpt lat="48.734263" lon="10.114431">
        <ele>589.468756</ele>
        <time>2024-03-17T11:13:50.999Z</time>
      </trkpt>
      <trkpt lat="48.734169" lon="10.114359">
        <ele>590.918229</ele>
        <time>2024-03-17T11:13:55.999Z</time>
      </trkpt>
      <trkpt lat="48.734080" lon="10.114263">
        <ele>592.421524</ele>
        <time>2024-03-17T11:14:00.999Z</time>
      </trkpt>
      <trkpt lat="48.734009" lon="10.114164">
        <ele>593.749136</ele>
        <time>2024-03-17T11:14:06.999Z</time>
      </trkpt>
      <trkpt lat="48.733952" lon="10.114050">
        <ele>595.047742</ele>
        <time>2024-03-17T11:14:11.999Z</time>
      </trkpt>
      <trkpt lat="48.733900" lon="10.113923">
        <ele>596.404693</ele>
        <time>2024-03-17T11:14:16.999Z</time>
      </trkpt>
      <trkpt lat="48.733851" lon="10.113794">
        <ele>597.756030</ele>
        <time>2024-03-17T11:14:21.999Z</time>
      </trkpt>
      <trkpt lat="48.733774" lon="10.113687">
        <ele>599.193588</ele>
        <time>2024-03-17T11:14:27.000Z</time>
      </trkpt>
      <trkpt lat="48.733668" lon="10.113681">
        <ele>600.653515</ele>
        <time>2024-03-17T11:14:32.000Z</time>
      </trkpt>
      <trkpt lat="48.733577" lon="10.113692">
        <ele>601.909951</ele>
        <time>2024-03-17T11:14:37.000Z</time>
      </trkpt>
      <trkpt lat="48.733480" lon="10.113701">
        <ele>603.247489</ele>
        <time>2024-03-17T11:14:42.000Z</time>
      </trkpt>
      <trkpt lat="48.733365" lon="10.113736">
        <ele>604.861845</ele>
        <time>2024-03-17T11:14:47.000Z</time>
      </trkpt>
      <trkpt lat="48.733266" lon="10.113755">
        <ele>606.235285</ele>
        <time>2024-03-17T11:14:51.000Z</time>
      </trkpt>
      <trkpt lat="48.733166" lon="10.113778">
        <ele>606.927068</ele>
        <time>2024-03-17T11:14:55.000Z</time>
      </trkpt>
      <trkpt lat="48.733068" lon="10.113801">
        <ele>607.033232</ele>
        <time>2024-03-17T11:14:59.000Z</time>
      </trkpt>
      <trkpt lat="48.732970" lon="10.113755">
        <ele>607.143059</ele>
        <time>2024-03-17T11:15:03.000Z</time>
      </trkpt>
      <trkpt lat="48.732896" lon="10.113639">
        <ele>607.257010</ele>
        <time>2024-03-17T11:15:07.000Z</time>
      </trkpt>
      <trkpt lat="48.732785" lon="10.113562">
        <ele>607.387689</ele>
        <time>2024-03-17T11:15:11.000Z</time>
      </trkpt>
      <trkpt lat="48.732686" lon="10.113484">
        <ele>607.507130</ele>
        <time>2024-03-17T11:15:13.999Z</time>
      </trkpt>
      <trkpt lat="48.732567" lon="10.113439">
        <ele>607.638429</ele>
        <time>2024-03-17T11:15:16.999Z</time>
      </trkpt>
      <trkpt lat="48.732443" lon="10.113453">
        <ele>607.771545</ele>
        <time>2024-03-17T11:15:19.999Z</time>
      </trkpt>
      <trkpt lat="48.732315" lon="10.113493">
        <ele>607.911456</ele>
        <time>2024-03-17T11:15:22.999Z</time>
      </trkpt>
      <trkpt lat="48.732223" lon="10.113517">
        <ele>608.011394</ele>
        <time>2024-03-17T11:15:24.999Z</time>
      </trkpt>
      <trkpt lat="48.732120" lon="10.113550">
        <ele>608.124096</ele>
        <time>2024-03-17T11:15:26.999Z</time>
      </trkpt>
      <trkpt lat="48.732002" lon="10.113579">
        <ele>608.252071</ele>
        <time>2024-03-17T11:15:28.999Z</time>
      </trkpt>
      <trkpt lat="48.731883" lon="10.113600">
        <ele>608.380326</ele>
        <time>2024-03-17T11:15:30.999Z</time>
      </trkpt>
      <trkpt lat="48.731758" lon="10.113614">
        <ele>608.514510</ele>
        <time>2024-03-17T11:15:32.999Z</time>
      </trkpt>
      <trkpt lat="48.731633" lon="10.113641">
        <ele>608.649680</ele>
        <time>2024-03-17T11:15:34.999Z</time>
      </trkpt>
      <trkpt lat="48.731494" lon="10.113618">
        <ele>608.782038</ele>
        <time>2024-03-17T11:15:36.999Z</time>
      </trkpt>
      <trkpt lat="48.731363" lon="10.113636">
        <ele>608.503898</ele>
        <time>2024-03-17T11:15:38.999Z</time>
      </trkpt>
      <trkpt lat="48.731232" lon="10.113653">
        <ele>608.225880</ele>
        <time>2024-03-17T11:15:40.999Z</time>
      </trkpt>
      <trkpt lat="48.731106" lon="10.113667">
        <ele>607.958733</ele>
        <time>2024-03-17T11:15:42.999Z</time>
      </trkpt>
      <trkpt lat="48.730977" lon="10.113681">
        <ele>607.685260</ele>
        <time>2024-03-17T11:15:44.999Z</time>
      </trkpt>
      <trkpt lat="48.730844" lon="10.113695">
        <ele>607.403349</ele>
        <time>2024-03-17T11:15:46.999Z</time>
      </trkpt>
      <trkpt lat="48.730707" lon="10.113708">
        <ele>607.113090</ele>
        <time>2024-03-17T11:15:48.999Z</time>
      </trkpt>
      <trkpt lat="48.730566" lon="10.113744">
        <ele>606.810742</ele>
        <time>2024-03-17T11:15:50.999Z</time>
      </trkpt>
      <trkpt lat="48.730419" lon="10.113758">
        <ele>606.499292</ele>
        <time>2024-03-17T11:15:52.999Z</time>
      </trkpt>
      <trkpt lat="48.730278" lon="10.113764">
        <ele>606.201024</ele>
        <time>2024-03-17T11:15:54.999Z</time>
      </trkpt>
      <trkpt lat="48.730145" lon="10.113775">
        <ele>605.919372</ele>
        <time>2024-03-17T11:15:56.999Z</time>
      </trkpt>
      <trkpt lat="48.730013" lon="10.113785">
        <ele>605.639905</ele>
        <time>2024-03-17T11:15:58.999Z</time>
      </trkpt>
      <trkpt lat="48.729888" lon="10.113802">
        <ele>605.374526</ele>
        <time>2024-03-17T11:16:00.999Z</time>
      </trkpt>
      <trkpt lat="48.729756" lon="10.113811">
        <ele>605.095125</ele>
        <time>2024-03-17T11:16:02.999Z</time>
      </trkpt>
      <trkpt lat="48.729620" lon="10.113799">
        <ele>604.985394</ele>
        <time>2024-03-17T11:16:04.999Z</time>
      </trkpt>
      <trkpt lat="48.729481" lon="10.113810">
        <ele>604.977602</ele>
        <time>2024-03-17T11:16:06.999Z</time>
      </trkpt>
      <trkpt lat="48.729347" lon="10.113820">
        <ele>604.970092</ele>
        <time>2024-03-17T11:16:08.999Z</time>
      </trkpt>
      <trkpt lat="48.729211" lon="10.113830">
        <ele>604.962470</ele>
        <time>2024-03-17T11:16:10.999Z</time>
      </trkpt>
      <trkpt lat="48.729083" lon="10.113840">
        <ele>604.955295</ele>
        <time>2024-03-17T11:16:12.999Z</time>
      </trkpt>
      <trkpt lat="48.728966" lon="10.113849">
        <ele>604.948737</ele>
        <time>2024-03-17T11:16:14.999Z</time>
      </trkpt>
      <trkpt lat="48.728839" lon="10.113860">
        <ele>604.941617</ele>
        <time>2024-03-17T11:16:16.999Z</time>
      </trkpt>
      <trkpt lat="48.728710" lon="10.113897">
        <ele>604.934267</ele>
        <time>2024-03-17T11:16:18.999Z</time>
      </trkpt>
      <trkpt lat="48.728577" lon="10.113901">
        <ele>604.926821</ele>
        <time>2024-03-17T11:16:20.999Z</time>
      </trkpt>
      <trkpt lat="48.728440" lon="10.113919">
        <ele>604.919123</ele>
        <time>2024-03-17T11:16:22.999Z</time>
      </trkpt>
      <trkpt lat="48.728306" lon="10.113938">
        <ele>604.911589</ele>
        <time>2024-03-17T11:16:24.999Z</time>
      </trkpt>
      <trkpt lat="48.728171" lon="10.113962">
        <ele>604.903981</ele>
        <time>2024-03-17T11:16:26.999Z</time>
      </trkpt>
      <trkpt lat="48.728036" lon="10.114001">
        <ele>604.896288</ele>
        <time>2024-03-17T11:16:28.999Z</time>
      </trkpt>
      <trkpt lat="48.727897" lon="10.114041">
        <ele>604.916779</ele>
        <time>2024-03-17T11:16:31.000Z</time>
      </trkpt>
      <trkpt lat="48.727760" lon="10.114092">
        <ele>605.097269</ele>
        <time>2024-03-17T11:16:33.000Z</time>
      </trkpt>
      <trkpt lat="48.727623" lon="10.114142">
        <ele>605.277560</ele>
        <time>2024-03-17T11:16:35.000Z</time>
      </trkpt>
      <trkpt lat="48.727491" lon="10.114198">
        <ele>605.452934</ele>
        <time>2024-03-17T11:16:37.000Z</time>
      </trkpt>
      <trkpt lat="48.727353" lon="10.114250">
        <ele>605.634869</ele>
        <time>2024-03-17T11:16:39.000Z</time>
      </trkpt>
      <trkpt lat="48.727214" lon="10.114304">
        <ele>605.818458</ele>
        <time>2024-03-17T11:16:41.000Z</time>
      </trkpt>
      <trkpt lat="48.727079" lon="10.114361">
        <ele>605.997756</ele>
        <time>2024-03-17T11:16:43.000Z</time>
      </trkpt>
      <trkpt lat="48.726951" lon="10.114417">
        <ele>606.168207</ele>
        <time>2024-03-17T11:16:45.000Z</time>
      </trkpt>
      <trkpt lat="48.726829" lon="10.114479">
        <ele>606.332836</ele>
        <time>2024-03-17T11:16:47.000Z</time>
      </trkpt>
      <trkpt lat="48.726726" lon="10.114529">
        <ele>606.471210</ele>
        <time>2024-03-17T11:16:49.000Z</time>
      </trkpt>
      <trkpt lat="48.726631" lon="10.114604">
        <ele>606.608251</ele>
        <time>2024-03-17T11:16:52.000Z</time>
      </trkpt>
      <trkpt lat="48.726597" lon="10.114452">
        <ele>606.743711</ele>
        <time>2024-03-17T11:16:53.000Z</time>
      </trkpt>
      <trkpt lat="48.726540" lon="10.114329">
        <ele>606.870578</ele>
        <time>2024-03-17T11:16:55.000Z</time>
      </trkpt>
      <trkpt lat="48.726450" lon="10.114210">
        <ele>607.023373</ele>
        <time>2024-03-17T11:16:57.000Z</time>
      </trkpt>
      <trkpt lat="48.726353" lon="10.114105">
        <ele>607.175871</ele>
        <time>2024-03-17T11:16:59.000Z</time>
      </trkpt>
      <trkpt lat="48.726248" lon="10.114047">
        <ele>607.581893</ele>
        <time>2024-03-17T11:17:01.000Z</time>
      </trkpt>
      <trkpt lat="48.726130" lon="10.114003">
        <ele>608.056762</ele>
        <time>2024-03-17T11:17:03.000Z</time>
      </trkpt>
      <trkpt lat="48.726013" lon="10.113945">
        <ele>608.537805</ele>
        <time>2024-03-17T11:17:05.000Z</time>
      </trkpt>
      <trkpt lat="48.725894" lon="10.113895">
        <ele>609.020369</ele>
        <time>2024-03-17T11:17:07.000Z</time>
      </trkpt>
      <trkpt lat="48.725765" lon="10.113866">
        <ele>609.529993</ele>
        <time>2024-03-17T11:17:09.000Z</time>
      </trkpt>
      <trkpt lat="48.725631" lon="10.113839">
        <ele>610.058249</ele>
        <time>2024-03-17T11:17:11.000Z</time>
      </trkpt>
      <trkpt lat="48.725503" lon="10.113791">
        <ele>610.573529</ele>
        <time>2024-03-17T11:17:13.000Z</time>
      </trkpt>
      <trkpt lat="48.725367" lon="10.113733">
        <ele>611.125626</ele>
        <time>2024-03-17T11:17:15.000Z</time>
      </trkpt>
      <trkpt lat="48.725242" lon="10.113701">
        <ele>611.621022</ele>
        <time>2024-03-17T11:17:17.000Z</time>
      </trkpt>
      <trkpt lat="48.725110" lon="10.113659">
        <ele>612.148097</ele>
        <time>2024-03-17T11:17:18.999Z</time>
      </trkpt>
      <trkpt lat="48.724977" lon="10.113610">
        <ele>612.682969</ele>
        <time>2024-03-17T11:17:20.999Z</time>
      </trkpt>
      <trkpt lat="48.724848" lon="10.113569">
        <ele>613.198041</ele>
        <time>2024-03-17T11:17:22.999Z</time>
      </trkpt>
      <trkpt lat="48.724708" lon="10.113526">
        <ele>613.756255</ele>
        <time>2024-03-17T11:17:24.999Z</time>
      </trkpt>
      <trkpt lat="48.724586" lon="10.113487">
        <ele>614.225796</ele>
        <time>2024-03-17T11:17:26.999Z</time>
      </trkpt>
      <trkpt lat="48.724463" lon="10.113374">
        <ele>614.371283</ele>
        <time>2024-03-17T11:17:28.999Z</time>
      </trkpt>
      <trkpt lat="48.724322" lon="10.113392">
        <ele>614.514417</ele>
        <time>2024-03-17T11:17:30.999Z</time>
      </trkpt>
      <trkpt lat="48.724183" lon="10.113339">
        <ele>614.659403</ele>
        <time>2024-03-17T11:17:32.999Z</time>
      </trkpt>
      <trkpt lat="48.724050" lon="10.113294">
        <ele>614.797250</ele>
        <time>2024-03-17T11:17:34.999Z</time>
      </trkpt>
      <trkpt lat="48.723921" lon="10.113255">
        <ele>614.930310</ele>
        <time>2024-03-17T11:17:36.999Z</time>
      </trkpt>
      <trkpt lat="48.723793" lon="10.113214">
        <ele>615.062648</ele>
        <time>2024-03-17T11:17:38.999Z</time>
      </trkpt>
      <trkpt lat="48.723664" lon="10.113165">
        <ele>615.197172</ele>
        <time>2024-03-17T11:17:40.999Z</time>
      </trkpt>
      <trkpt lat="48.723541" lon="10.113122">
        <ele>615.324859</ele>
        <time>2024-03-17T11:17:42.999Z</time>
      </trkpt>
      <trkpt lat="48.723408" lon="10.113085">
        <ele>615.461643</ele>
        <time>2024-03-17T11:17:44.999Z</time>
      </trkpt>
      <trkpt lat="48.723285" lon="10.113035">
        <ele>615.590460</ele>
        <time>2024-03-17T11:17:46.999Z</time>
      </trkpt>
      <trkpt lat="48.723159" lon="10.112994">
        <ele>615.720819</ele>
        <time>2024-03-17T11:17:48.999Z</time>
      </trkpt>
      <trkpt lat="48.723030" lon="10.112953">
        <ele>615.854147</ele>
        <time>2024-03-17T11:17:50.999Z</time>
      </trkpt>
      <trkpt lat="48.722906" lon="10.112916">
        <ele>615.981987</ele>
        <time>2024-03-17T11:17:52.999Z</time>
      </trkpt>
      <trkpt lat="48.722776" lon="10.112876">
        <ele>616.165560</ele>
        <time>2024-03-17T11:17:54.999Z</time>
      </trkpt>
      <trkpt lat="48.722646" lon="10.112841">
        <ele>616.384641</ele>
        <time>2024-03-17T11:17:56.999Z</time>
      </trkpt>
      <trkpt lat="48.722518" lon="10.112813">
        <ele>616.599227</ele>
        <time>2024-03-17T11:17:58.999Z</time>
      </trkpt>
      <trkpt lat="48.722397" lon="10.112810">
        <ele>616.800025</ele>
        <time>2024-03-17T11:18:00.999Z</time>
      </trkpt>
      <trkpt lat="48.722268" lon="10.112804">
        <ele>617.014171</ele>
        <time>2024-03-17T11:18:02.999Z</time>
      </trkpt>
      <trkpt lat="48.722134" lon="10.112761">
        <ele>617.241440</ele>
        <time>2024-03-17T11:18:04.999Z</time>
      </trkpt>
      <trkpt lat="48.721996" lon="10.112743">
        <ele>617.471265</ele>
        <time>2024-03-17T11:18:06.999Z</time>
      </trkpt>
      <trkpt lat="48.721879" lon="10.112714">
        <ele>617.667977</ele>
        <time>2024-03-17T11:18:08.999Z</time>
      </trkpt>
      <trkpt lat="48.721746" lon="10.112701">
        <ele>617.889118</ele>
        <time>2024-03-17T11:18:10.999Z</time>
      </trkpt>
      <trkpt lat="48.721610" lon="10.112672">
        <ele>618.117000</ele>
        <time>2024-03-17T11:18:12.999Z</time>
      </trkpt>
      <trkpt lat="48.721474" lon="10.112649">
        <ele>618.344060</ele>
        <time>2024-03-17T11:18:14.999Z</time>
      </trkpt>
      <trkpt lat="48.721344" lon="10.112627">
        <ele>618.561105</ele>
        <time>2024-03-17T11:18:16.999Z</time>
      </trkpt>
      <trkpt lat="48.721212" lon="10.112601">
        <ele>618.781969</ele>
        <time>2024-03-17T11:18:18.999Z</time>
      </trkpt>
      <trkpt lat="48.721073" lon="10.112574">
        <ele>619.014493</ele>
        <time>2024-03-17T11:18:20.999Z</time>
      </trkpt>
      <trkpt lat="48.720948" lon="10.112553">
        <ele>619.205601</ele>
        <time>2024-03-17T11:18:22.999Z</time>
      </trkpt>
      <trkpt lat="48.720820" lon="10.112537">
        <ele>619.399958</ele>
        <time>2024-03-17T11:18:24.999Z</time>
      </trkpt>
      <trkpt lat="48.720691" lon="10.112514">
        <ele>619.596517</ele>
        <time>2024-03-17T11:18:26.999Z</time>
      </trkpt>
      <trkpt lat="48.720559" lon="10.112486">
        <ele>619.798217</ele>
        <time>2024-03-17T11:18:28.999Z</time>
      </trkpt>
      <trkpt lat="48.720434" lon="10.112471">
        <ele>619.987969</ele>
        <time>2024-03-17T11:18:30.999Z</time>
      </trkpt>
      <trkpt lat="48.720296" lon="10.112447">
        <ele>620.198172</ele>
        <time>2024-03-17T11:18:32.999Z</time>
      </trkpt>
      <trkpt lat="48.720167" lon="10.112413">
        <ele>620.396314</ele>
        <time>2024-03-17T11:18:34.999Z</time>
      </trkpt>
      <trkpt lat="48.720041" lon="10.112386">
        <ele>620.588883</ele>
        <time>2024-03-17T11:18:37.000Z</time>
      </trkpt>
      <trkpt lat="48.719915" lon="10.112376">
        <ele>620.779818</ele>
        <time>2024-03-17T11:18:39.000Z</time>
      </trkpt>
      <trkpt lat="48.719796" lon="10.112348">
        <ele>620.962055</ele>
        <time>2024-03-17T11:18:41.000Z</time>
      </trkpt>
      <trkpt lat="48.719667" lon="10.112319">
        <ele>621.159404</ele>
        <time>2024-03-17T11:18:43.000Z</time>
      </trkpt>
      <trkpt lat="48.719542" lon="10.112315">
        <ele>621.348606</ele>
        <time>2024-03-17T11:18:45.000Z</time>
      </trkpt>
      <trkpt lat="48.719417" lon="10.112276">
        <ele>621.541732</ele>
        <time>2024-03-17T11:18:47.000Z</time>
      </trkpt>
      <trkpt lat="48.719281" lon="10.112257">
        <ele>621.750049</ele>
        <time>2024-03-17T11:18:49.000Z</time>
      </trkpt>
      <trkpt lat="48.719147" lon="10.112229">
        <ele>622.063118</ele>
        <time>2024-03-17T11:18:51.000Z</time>
      </trkpt>
      <trkpt lat="48.719009" lon="10.112206">
        <ele>622.384438</ele>
        <time>2024-03-17T11:18:53.000Z</time>
      </trkpt>
      <trkpt lat="48.718871" lon="10.112189">
        <ele>622.704885</ele>
        <time>2024-03-17T11:18:55.000Z</time>
      </trkpt>
      <trkpt lat="48.718737" lon="10.112199">
        <ele>623.015397</ele>
        <time>2024-03-17T11:18:57.000Z</time>
      </trkpt>
      <trkpt lat="48.718600" lon="10.112172">
        <ele>623.335146</ele>
        <time>2024-03-17T11:18:59.000Z</time>
      </trkpt>
      <trkpt lat="48.718456" lon="10.112137">
        <ele>623.672685</ele>
        <time>2024-03-17T11:19:01.000Z</time>
      </trkpt>
      <trkpt lat="48.718324" lon="10.112115">
        <ele>623.980034</ele>
        <time>2024-03-17T11:19:03.000Z</time>
      </trkpt>
      <trkpt lat="48.718188" lon="10.112082">
        <ele>624.298807</ele>
        <time>2024-03-17T11:19:05.000Z</time>
      </trkpt>
      <trkpt lat="48.718048" lon="10.112054">
        <ele>624.625639</ele>
        <time>2024-03-17T11:19:07.000Z</time>
      </trkpt>
      <trkpt lat="48.717915" lon="10.112042">
        <ele>624.934006</ele>
        <time>2024-03-17T11:19:09.000Z</time>
      </trkpt>
      <trkpt lat="48.717780" lon="10.112038">
        <ele>625.246516</ele>
        <time>2024-03-17T11:19:11.000Z</time>
      </trkpt>
      <trkpt lat="48.717638" lon="10.112013">
        <ele>625.577378</ele>
        <time>2024-03-17T11:19:13.000Z</time>
      </trkpt>
      <trkpt lat="48.717505" lon="10.111993">
        <ele>625.886711</ele>
        <time>2024-03-17T11:19:15.000Z</time>
      </trkpt>
      <trkpt lat="48.717371" lon="10.111974">
        <ele>625.966668</ele>
        <time>2024-03-17T11:19:17.000Z</time>
      </trkpt>
      <trkpt lat="48.717250" lon="10.111947">
        <ele>626.023747</ele>
        <time>2024-03-17T11:19:19.000Z</time>
      </trkpt>
      <trkpt lat="48.717109" lon="10.111909">
        <ele>626.090585</ele>
        <time>2024-03-17T11:19:21.000Z</time>
      </trkpt>
      <trkpt lat="48.716979" lon="10.111886">
        <ele>626.151668</ele>
        <time>2024-03-17T11:19:23.000Z</time>
      </trkpt>
      <trkpt lat="48.716855" lon="10.111848">
        <ele>626.210711</ele>
        <time>2024-03-17T11:19:24.999Z</time>
      </trkpt>
      <trkpt lat="48.716722" lon="10.111794">
        <ele>626.274971</ele>
        <time>2024-03-17T11:19:26.999Z</time>
      </trkpt>
      <trkpt lat="48.716593" lon="10.111732">
        <ele>626.338130</ele>
        <time>2024-03-17T11:19:28.999Z</time>
      </trkpt>
      <trkpt lat="48.716471" lon="10.111653">
        <ele>626.400047</ele>
        <time>2024-03-17T11:19:30.999Z</time>
      </trkpt>
      <trkpt lat="48.716334" lon="10.111580">
        <ele>626.467822</ele>
        <time>2024-03-17T11:19:32.999Z</time>
      </trkpt>
      <trkpt lat="48.716211" lon="10.111482">
        <ele>626.532675</ele>
        <time>2024-03-17T11:19:34.999Z</time>
      </trkpt>
      <trkpt lat="48.716083" lon="10.111411">
        <ele>626.596288</ele>
        <time>2024-03-17T11:19:36.999Z</time>
      </trkpt>
      <trkpt lat="48.715956" lon="10.111327">
        <ele>626.660958</ele>
        <time>2024-03-17T11:19:38.999Z</time>
      </trkpt>
      <trkpt lat="48.715833" lon="10.111253">
        <ele>626.722719</ele>
        <time>2024-03-17T11:19:40.999Z</time>
      </trkpt>
      <trkpt lat="48.715713" lon="10.111180">
        <ele>626.811816</ele>
        <time>2024-03-17T11:19:42.999Z</time>
      </trkpt>
      <trkpt lat="48.715582" lon="10.111083">
        <ele>626.935049</ele>
        <time>2024-03-17T11:19:44.999Z</time>
      </trkpt>
      <trkpt lat="48.715460" lon="10.111005">
        <ele>627.046967</ele>
        <time>2024-03-17T11:19:46.999Z</time>
      </trkpt>
      <trkpt lat="48.715335" lon="10.110938">
        <ele>627.159034</ele>
        <time>2024-03-17T11:19:48.999Z</time>
      </trkpt>
      <trkpt lat="48.715231" lon="10.110866">
        <ele>627.255674</ele>
        <time>2024-03-17T11:19:50.999Z</time>
      </trkpt>
      <trkpt lat="48.715089" lon="10.110785">
        <ele>627.383917</ele>
        <time>2024-03-17T11:19:52.999Z</time>
      </trkpt>
      <trkpt lat="48.714967" lon="10.110724">
        <ele>627.492502</ele>
        <time>2024-03-17T11:19:54.999Z</time>
      </trkpt>
      <trkpt lat="48.714843" lon="10.110619">
        <ele>627.612560</ele>
        <time>2024-03-17T11:19:56.999Z</time>
      </trkpt>
      <trkpt lat="48.714725" lon="10.110540">
        <ele>627.721595</ele>
        <time>2024-03-17T11:19:58.999Z</time>
      </trkpt>
      <trkpt lat="48.714610" lon="10.110463">
        <ele>627.827860</ele>
        <time>2024-03-17T11:20:00.999Z</time>
      </trkpt>
      <trkpt lat="48.714490" lon="10.110381">
        <ele>627.939121</ele>
        <time>2024-03-17T11:20:02.999Z</time>
      </trkpt>
      <trkpt lat="48.714373" lon="10.110277">
        <ele>628.053767</ele>
        <time>2024-03-17T11:20:04.999Z</time>
      </trkpt>
      <trkpt lat="48.714259" lon="10.110179">
        <ele>628.164544</ele>
        <time>2024-03-17T11:20:06.999Z</time>
      </trkpt>
      <trkpt lat="48.714142" lon="10.110086">
        <ele>628.252359</ele>
        <time>2024-03-17T11:20:08.999Z</time>
      </trkpt>
      <trkpt lat="48.714028" lon="10.109973">
        <ele>628.037325</ele>
        <time>2024-03-17T11:20:10.999Z</time>
      </trkpt>
      <trkpt lat="48.713916" lon="10.109851">
        <ele>627.819591</ele>
        <time>2024-03-17T11:20:12.999Z</time>
      </trkpt>
      <trkpt lat="48.713796" lon="10.109726">
        <ele>627.589728</ele>
        <time>2024-03-17T11:20:14.999Z</time>
      </trkpt>
      <trkpt lat="48.713675" lon="10.109608">
        <ele>627.362588</ele>
        <time>2024-03-17T11:20:16.999Z</time>
      </trkpt>
      <trkpt lat="48.713554" lon="10.109476">
        <ele>627.127238</ele>
        <time>2024-03-17T11:20:18.999Z</time>
      </trkpt>
      <trkpt lat="48.713426" lon="10.109342">
        <ele>626.881656</ele>
        <time>2024-03-17T11:20:20.999Z</time>
      </trkpt>
      <trkpt lat="48.713297" lon="10.109203">
        <ele>626.631792</ele>
        <time>2024-03-17T11:20:22.999Z</time>
      </trkpt>
      <trkpt lat="48.713161" lon="10.109059">
        <ele>626.369895</ele>
        <time>2024-03-17T11:20:24.999Z</time>
      </trkpt>
      <trkpt lat="48.713014" lon="10.108916">
        <ele>626.094148</ele>
        <time>2024-03-17T11:20:26.999Z</time>
      </trkpt>
      <trkpt lat="48.712853" lon="10.108803">
        <ele>625.814060</ele>
        <time>2024-03-17T11:20:28.999Z</time>
      </trkpt>
      <trkpt lat="48.712686" lon="10.108712">
        <ele>625.533909</ele>
        <time>2024-03-17T11:20:30.999Z</time>
      </trkpt>
      <trkpt lat="48.712527" lon="10.108642">
        <ele>625.516853</ele>
        <time>2024-03-17T11:20:32.999Z</time>
      </trkpt>
      <trkpt lat="48.712377" lon="10.108558">
        <ele>625.659773</ele>
        <time>2024-03-17T11:20:34.999Z</time>
      </trkpt>
      <trkpt lat="48.712227" lon="10.108480">
        <ele>625.801506</ele>
        <time>2024-03-17T11:20:36.999Z</time>
      </trkpt>
      <trkpt lat="48.712058" lon="10.108409">
        <ele>625.958243</ele>
        <time>2024-03-17T11:20:38.999Z</time>
      </trkpt>
      <trkpt lat="48.711921" lon="10.108289">
        <ele>626.099665</ele>
        <time>2024-03-17T11:20:40.999Z</time>
      </trkpt>
      <trkpt lat="48.711763" lon="10.108227">
        <ele>626.245532</ele>
        <time>2024-03-17T11:20:43.000Z</time>
      </trkpt>
      <trkpt lat="48.711603" lon="10.108209">
        <ele>626.388923</ele>
        <time>2024-03-17T11:20:45.000Z</time>
      </trkpt>
      <trkpt lat="48.711444" lon="10.108151">
        <ele>626.535086</ele>
        <time>2024-03-17T11:20:47.000Z</time>
      </trkpt>
      <trkpt lat="48.711285" lon="10.108150">
        <ele>626.677192</ele>
        <time>2024-03-17T11:20:49.000Z</time>
      </trkpt>
      <trkpt lat="48.711128" lon="10.108124">
        <ele>626.818344</ele>
        <time>2024-03-17T11:20:51.000Z</time>
      </trkpt>
      <trkpt lat="48.710968" lon="10.108087">
        <ele>626.962997</ele>
        <time>2024-03-17T11:20:53.000Z</time>
      </trkpt>
      <trkpt lat="48.710802" lon="10.108028">
        <ele>627.167648</ele>
        <time>2024-03-17T11:20:55.000Z</time>
      </trkpt>
      <trkpt lat="48.710648" lon="10.107976">
        <ele>627.401554</ele>
        <time>2024-03-17T11:20:57.000Z</time>
      </trkpt>
      <trkpt lat="48.710486" lon="10.107960">
        <ele>627.642231</ele>
        <time>2024-03-17T11:20:59.000Z</time>
      </trkpt>
      <trkpt lat="48.710319" lon="10.107915">
        <ele>627.893695</ele>
        <time>2024-03-17T11:21:01.000Z</time>
      </trkpt>
      <trkpt lat="48.710157" lon="10.107871">
        <ele>628.137689</ele>
        <time>2024-03-17T11:21:03.000Z</time>
      </trkpt>
      <trkpt lat="48.709999" lon="10.107831">
        <ele>628.375173</ele>
        <time>2024-03-17T11:21:05.000Z</time>
      </trkpt>
      <trkpt lat="48.709855" lon="10.107804">
        <ele>628.590283</ele>
        <time>2024-03-17T11:21:07.000Z</time>
      </trkpt>
      <trkpt lat="48.709724" lon="10.107791">
        <ele>628.784909</ele>
        <time>2024-03-17T11:21:09.000Z</time>
      </trkpt>
      <trkpt lat="48.709609" lon="10.107755">
        <ele>628.958998</ele>
        <time>2024-03-17T11:21:12.000Z</time>
      </trkpt>
      <trkpt lat="48.709498" lon="10.107752">
        <ele>629.123584</ele>
        <time>2024-03-17T11:21:15.000Z</time>
      </trkpt>
      <trkpt lat="48.709382" lon="10.107751">
        <ele>629.295558</ele>
        <time>2024-03-17T11:21:17.000Z</time>
      </trkpt>
      <trkpt lat="48.709148" lon="10.107875">
        <ele>629.663065</ele>
        <time>2024-03-17T11:21:21.000Z</time>
      </trkpt>
      <trkpt lat="48.709098" lon="10.108191">
        <ele>629.640522</ele>
        <time>2024-03-17T11:21:23.000Z</time>
      </trkpt>
      <trkpt lat="48.709164" lon="10.108305">
        <ele>629.607458</ele>
        <time>2024-03-17T11:21:24.000Z</time>
      </trkpt>
      <trkpt lat="48.709138" lon="10.108561">
        <ele>629.550987</ele>
        <time>2024-03-17T11:21:26.000Z</time>
      </trkpt>
      <trkpt lat="48.709082" lon="10.108795">
        <ele>629.496718</ele>
        <time>2024-03-17T11:21:28.000Z</time>
      </trkpt>
      <trkpt lat="48.709038" lon="10.109041">
        <ele>629.441149</ele>
        <time>2024-03-17T11:21:30.000Z</time>
      </trkpt>
      <trkpt lat="48.708978" lon="10.109294">
        <ele>629.382535</ele>
        <time>2024-03-17T11:21:31.999Z</time>
      </trkpt>
      <trkpt lat="48.708914" lon="10.109531">
        <ele>629.326704</ele>
        <time>2024-03-17T11:21:33.999Z</time>
      </trkpt>
      <trkpt lat="48.708849" lon="10.109758">
        <ele>629.272754</ele>
        <time>2024-03-17T11:21:35.999Z</time>
      </trkpt>
      <trkpt lat="48.708785" lon="10.109993">
        <ele>629.217327</ele>
        <time>2024-03-17T11:21:37.999Z</time>
      </trkpt>
      <trkpt lat="48.708718" lon="10.110209">
        <ele>629.165290</ele>
        <time>2024-03-17T11:21:39.999Z</time>
      </trkpt>
      <trkpt lat="48.708641" lon="10.110419">
        <ele>629.112912</ele>
        <time>2024-03-17T11:21:41.999Z</time>
      </trkpt>
      <trkpt lat="48.708558" lon="10.110615">
        <ele>629.150378</ele>
        <time>2024-03-17T11:21:43.999Z</time>
      </trkpt>
      <trkpt lat="48.708494" lon="10.110808">
        <ele>629.193300</ele>
        <time>2024-03-17T11:21:45.999Z</time>
      </trkpt>
      <trkpt lat="48.708422" lon="10.111008">
        <ele>629.238573</ele>
        <time>2024-03-17T11:21:47.999Z</time>
      </trkpt>
      <trkpt lat="48.708356" lon="10.111209">
        <ele>629.283186</ele>
        <time>2024-03-17T11:21:49.999Z</time>
      </trkpt>
      <trkpt lat="48.708284" lon="10.111408">
        <ele>629.328285</ele>
        <time>2024-03-17T11:21:51.999Z</time>
      </trkpt>
      <trkpt lat="48.708208" lon="10.111617">
        <ele>629.375705</ele>
        <time>2024-03-17T11:21:53.999Z</time>
      </trkpt>
      <trkpt lat="48.708127" lon="10.111823">
        <ele>629.423357</ele>
        <time>2024-03-17T11:21:55.999Z</time>
      </trkpt>
      <trkpt lat="48.708052" lon="10.112026">
        <ele>629.469589</ele>
        <time>2024-03-17T11:21:57.999Z</time>
      </trkpt>
      <trkpt lat="48.707986" lon="10.112237">
        <ele>629.515990</ele>
        <time>2024-03-17T11:21:59.999Z</time>
      </trkpt>
      <trkpt lat="48.707902" lon="10.112443">
        <ele>629.564111</ele>
        <time>2024-03-17T11:22:01.999Z</time>
      </trkpt>
      <trkpt lat="48.707831" lon="10.112663">
        <ele>629.612777</ele>
        <time>2024-03-17T11:22:03.999Z</time>
      </trkpt>
      <trkpt lat="48.707753" lon="10.112884">
        <ele>629.617577</ele>
        <time>2024-03-17T11:22:05.999Z</time>
      </trkpt>
      <trkpt lat="48.707672" lon="10.113106">
        <ele>629.488579</ele>
        <time>2024-03-17T11:22:07.999Z</time>
      </trkpt>
      <trkpt lat="48.707583" lon="10.113330">
        <ele>629.355617</ele>
        <time>2024-03-17T11:22:09.999Z</time>
      </trkpt>
      <trkpt lat="48.707506" lon="10.113547">
        <ele>629.230326</ele>
        <time>2024-03-17T11:22:11.999Z</time>
      </trkpt>
      <trkpt lat="48.707424" lon="10.113771">
        <ele>629.100064</ele>
        <time>2024-03-17T11:22:13.999Z</time>
      </trkpt>
      <trkpt lat="48.707339" lon="10.113994">
        <ele>628.969105</ele>
        <time>2024-03-17T11:22:15.999Z</time>
      </trkpt>
      <trkpt lat="48.707251" lon="10.114205">
        <ele>628.842174</ele>
        <time>2024-03-17T11:22:17.999Z</time>
      </trkpt>
      <trkpt lat="48.707152" lon="10.114416">
        <ele>628.710518</ele>
        <time>2024-03-17T11:22:19.999Z</time>
      </trkpt>
      <trkpt lat="48.707065" lon="10.114635">
        <ele>628.580528</ele>
        <time>2024-03-17T11:22:21.999Z</time>
      </trkpt>
      <trkpt lat="48.706967" lon="10.114839">
        <ele>628.452212</ele>
        <time>2024-03-17T11:22:23.999Z</time>
      </trkpt>
      <trkpt lat="48.706867" lon="10.115037">
        <ele>628.325419</ele>
        <time>2024-03-17T11:22:25.999Z</time>
      </trkpt>
      <trkpt lat="48.706683" lon="10.115131">
        <ele>628.205194</ele>
        <time>2024-03-17T11:22:27.999Z</time>
      </trkpt>
      <trkpt lat="48.706587" lon="10.115318">
        <ele>628.124924</ele>
        <time>2024-03-17T11:22:29.999Z</time>
      </trkpt>
      <trkpt lat="48.706490" lon="10.115498">
        <ele>628.046187</ele>
        <time>2024-03-17T11:22:31.999Z</time>
      </trkpt>
      <trkpt lat="48.706392" lon="10.115672">
        <ele>627.968682</ele>
        <time>2024-03-17T11:22:33.999Z</time>
      </trkpt>
      <trkpt lat="48.706290" lon="10.115848">
        <ele>627.889321</ele>
        <time>2024-03-17T11:22:35.999Z</time>
      </trkpt>
      <trkpt lat="48.706191" lon="10.116016">
        <ele>627.813010</ele>
        <time>2024-03-17T11:22:37.999Z</time>
      </trkpt>
      <trkpt lat="48.706088" lon="10.116184">
        <ele>627.735315</ele>
        <time>2024-03-17T11:22:39.999Z</time>
      </trkpt>
      <trkpt lat="48.705983" lon="10.116351">
        <ele>627.657164</ele>
        <time>2024-03-17T11:22:41.999Z</time>
      </trkpt>
      <trkpt lat="48.705873" lon="10.116517">
        <ele>627.577460</ele>
        <time>2024-03-17T11:22:43.999Z</time>
      </trkpt>
      <trkpt lat="48.705761" lon="10.116679">
        <ele>627.497967</ele>
        <time>2024-03-17T11:22:45.999Z</time>
      </trkpt>
      <trkpt lat="48.705648" lon="10.116837">
        <ele>627.419026</ele>
        <time>2024-03-17T11:22:47.999Z</time>
      </trkpt>
      <trkpt lat="48.705533" lon="10.116991">
        <ele>627.339210</ele>
        <time>2024-03-17T11:22:50.000Z</time>
      </trkpt>
      <trkpt lat="48.705415" lon="10.117141">
        <ele>626.890563</ele>
        <time>2024-03-17T11:22:52.000Z</time>
      </trkpt>
      <trkpt lat="48.705345" lon="10.117410">
        <ele>626.334718</ele>
        <time>2024-03-17T11:22:54.000Z</time>
      </trkpt>
      <trkpt lat="48.705135" lon="10.117473">
        <ele>625.711143</ele>
        <time>2024-03-17T11:22:56.000Z</time>
      </trkpt>
      <trkpt lat="48.704992" lon="10.117634">
        <ele>625.192211</ele>
        <time>2024-03-17T11:22:58.000Z</time>
      </trkpt>
      <trkpt lat="48.704848" lon="10.117792">
        <ele>624.674341</ele>
        <time>2024-03-17T11:23:00.000Z</time>
      </trkpt>
      <trkpt lat="48.704702" lon="10.117946">
        <ele>624.156171</ele>
        <time>2024-03-17T11:23:02.000Z</time>
      </trkpt>
      <trkpt lat="48.704558" lon="10.118094">
        <ele>623.649335</ele>
        <time>2024-03-17T11:23:04.000Z</time>
      </trkpt>
      <trkpt lat="48.704420" lon="10.118236">
        <ele>623.163437</ele>
        <time>2024-03-17T11:23:06.000Z</time>
      </trkpt>
      <trkpt lat="48.704272" lon="10.118388">
        <ele>622.642640</ele>
        <time>2024-03-17T11:23:08.000Z</time>
      </trkpt>
      <trkpt lat="48.704197" lon="10.118467">
        <ele>622.376577</ele>
        <time>2024-03-17T11:23:09.000Z</time>
      </trkpt>
      <trkpt lat="48.704048" lon="10.118622">
        <ele>622.248545</ele>
        <time>2024-03-17T11:23:11.000Z</time>
      </trkpt>
      <trkpt lat="48.703974" lon="10.118701">
        <ele>622.403216</ele>
        <time>2024-03-17T11:23:12.000Z</time>
      </trkpt>
      <trkpt lat="48.703899" lon="10.118785">
        <ele>622.562572</ele>
        <time>2024-03-17T11:23:13.000Z</time>
      </trkpt>
      <trkpt lat="48.703762" lon="10.118940">
        <ele>622.854713</ele>
        <time>2024-03-17T11:23:15.000Z</time>
      </trkpt>
      <trkpt lat="48.703636" lon="10.119099">
        <ele>623.134886</ele>
        <time>2024-03-17T11:23:17.000Z</time>
      </trkpt>
      <trkpt lat="48.703495" lon="10.119224">
        <ele>623.414012</ele>
        <time>2024-03-17T11:23:19.000Z</time>
      </trkpt>
      <trkpt lat="48.703361" lon="10.119360">
        <ele>623.689588</ele>
        <time>2024-03-17T11:23:21.000Z</time>
      </trkpt>
      <trkpt lat="48.703235" lon="10.119509">
        <ele>623.962683</ele>
        <time>2024-03-17T11:23:23.000Z</time>
      </trkpt>
      <trkpt lat="48.703103" lon="10.119655">
        <ele>624.241924</ele>
        <time>2024-03-17T11:23:25.000Z</time>
      </trkpt>
      <trkpt lat="48.702982" lon="10.119809">
        <ele>624.511928</ele>
        <time>2024-03-17T11:23:27.000Z</time>
      </trkpt>
      <trkpt lat="48.702862" lon="10.119960">
        <ele>624.778452</ele>
        <time>2024-03-17T11:23:29.000Z</time>
      </trkpt>
      <trkpt lat="48.702755" lon="10.120136">
        <ele>625.048295</ele>
        <time>2024-03-17T11:23:31.000Z</time>
      </trkpt>
      <trkpt lat="48.702645" lon="10.120294">
        <ele>625.319969</ele>
        <time>2024-03-17T11:23:33.000Z</time>
      </trkpt>
      <trkpt lat="48.702545" lon="10.120478">
        <ele>625.614458</ele>
        <time>2024-03-17T11:23:35.000Z</time>
      </trkpt>
      <trkpt lat="48.702465" lon="10.120682">
        <ele>625.907635</ele>
        <time>2024-03-17T11:23:37.000Z</time>
      </trkpt>
      <trkpt lat="48.702388" lon="10.120876">
        <ele>626.187325</ele>
        <time>2024-03-17T11:23:39.000Z</time>
      </trkpt>
      <trkpt lat="48.702302" lon="10.121058">
        <ele>626.463878</ele>
        <time>2024-03-17T11:23:40.999Z</time>
      </trkpt>
      <trkpt lat="48.702212" lon="10.121237">
        <ele>626.741898</ele>
        <time>2024-03-17T11:23:42.999Z</time>
      </trkpt>
      <trkpt lat="48.702121" lon="10.121413">
        <ele>627.018130</ele>
        <time>2024-03-17T11:23:44.999Z</time>
      </trkpt>
      <trkpt lat="48.702035" lon="10.121586">
        <ele>627.285720</ele>
        <time>2024-03-17T11:23:46.999Z</time>
      </trkpt>
      <trkpt lat="48.701947" lon="10.121775">
        <ele>627.571492</ele>
        <time>2024-03-17T11:23:48.999Z</time>
      </trkpt>
      <trkpt lat="48.701862" lon="10.121952">
        <ele>627.841941</ele>
        <time>2024-03-17T11:23:50.999Z</time>
      </trkpt>
      <trkpt lat="48.701775" lon="10.122139">
        <ele>628.124615</ele>
        <time>2024-03-17T11:23:52.999Z</time>
      </trkpt>
      <trkpt lat="48.701696" lon="10.122331">
        <ele>628.404157</ele>
        <time>2024-03-17T11:23:54.999Z</time>
      </trkpt>
      <trkpt lat="48.701618" lon="10.122522">
        <ele>628.467904</ele>
        <time>2024-03-17T11:23:56.999Z</time>
      </trkpt>
      <trkpt lat="48.701544" lon="10.122709">
        <ele>628.326033</ele>
        <time>2024-03-17T11:23:58.999Z</time>
      </trkpt>
      <trkpt lat="48.701461" lon="10.122902">
        <ele>628.176147</ele>
        <time>2024-03-17T11:24:00.999Z</time>
      </trkpt>
      <trkpt lat="48.701382" lon="10.123106">
        <ele>628.022248</ele>
        <time>2024-03-17T11:24:02.999Z</time>
      </trkpt>
      <trkpt lat="48.701300" lon="10.123312">
        <ele>627.865718</ele>
        <time>2024-03-17T11:24:04.999Z</time>
      </trkpt>
      <trkpt lat="48.701214" lon="10.123516">
        <ele>627.708213</ele>
        <time>2024-03-17T11:24:06.999Z</time>
      </trkpt>
      <trkpt lat="48.701128" lon="10.123710">
        <ele>627.556152</ele>
        <time>2024-03-17T11:24:08.999Z</time>
      </trkpt>
      <trkpt lat="48.701043" lon="10.123900">
        <ele>627.406799</ele>
        <time>2024-03-17T11:24:10.999Z</time>
      </trkpt>
      <trkpt lat="48.700963" lon="10.124097">
        <ele>627.256295</ele>
        <time>2024-03-17T11:24:12.999Z</time>
      </trkpt>
      <trkpt lat="48.700874" lon="10.124306">
        <ele>627.094454</ele>
        <time>2024-03-17T11:24:14.999Z</time>
      </trkpt>
      <trkpt lat="48.700780" lon="10.124507">
        <ele>626.934163</ele>
        <time>2024-03-17T11:24:16.999Z</time>
      </trkpt>
      <trkpt lat="48.700692" lon="10.124722">
        <ele>626.769550</ele>
        <time>2024-03-17T11:24:18.999Z</time>
      </trkpt>
      <trkpt lat="48.700599" lon="10.124939">
        <ele>626.042963</ele>
        <time>2024-03-17T11:24:20.999Z</time>
      </trkpt>
      <trkpt lat="48.700505" lon="10.125155">
        <ele>625.312514</ele>
        <time>2024-03-17T11:24:22.999Z</time>
      </trkpt>
      <trkpt lat="48.700406" lon="10.125370">
        <ele>624.572393</ele>
        <time>2024-03-17T11:24:24.999Z</time>
      </trkpt>
      <trkpt lat="48.700310" lon="10.125589">
        <ele>623.830158</ele>
        <time>2024-03-17T11:24:26.999Z</time>
      </trkpt>
      <trkpt lat="48.700138" lon="10.125717">
        <ele>623.010449</ele>
        <time>2024-03-17T11:24:28.999Z</time>
      </trkpt>
      <trkpt lat="48.700038" lon="10.125927">
        <ele>622.279362</ele>
        <time>2024-03-17T11:24:30.999Z</time>
      </trkpt>
      <trkpt lat="48.699984" lon="10.126038">
        <ele>621.890049</ele>
        <time>2024-03-17T11:24:31.999Z</time>
      </trkpt>
      <trkpt lat="48.699883" lon="10.126247">
        <ele>621.158730</ele>
        <time>2024-03-17T11:24:33.999Z</time>
      </trkpt>
      <trkpt lat="48.699778" lon="10.126454">
        <ele>620.421657</ele>
        <time>2024-03-17T11:24:35.999Z</time>
      </trkpt>
      <trkpt lat="48.699670" lon="10.126664">
        <ele>619.670031</ele>
        <time>2024-03-17T11:24:37.999Z</time>
      </trkpt>
      <trkpt lat="48.699562" lon="10.126874">
        <ele>618.962412</ele>
        <time>2024-03-17T11:24:39.999Z</time>
      </trkpt>
      <trkpt lat="48.699453" lon="10.127082">
        <ele>618.424040</ele>
        <time>2024-03-17T11:24:41.999Z</time>
      </trkpt>
      <trkpt lat="48.699343" lon="10.127286">
        <ele>617.890055</ele>
        <time>2024-03-17T11:24:43.999Z</time>
      </trkpt>
      <trkpt lat="48.699232" lon="10.127488">
        <ele>617.357242</ele>
        <time>2024-03-17T11:24:45.999Z</time>
      </trkpt>
      <trkpt lat="48.699124" lon="10.127686">
        <ele>616.836553</ele>
        <time>2024-03-17T11:24:47.999Z</time>
      </trkpt>
      <trkpt lat="48.699015" lon="10.127882">
        <ele>616.317007</ele>
        <time>2024-03-17T11:24:49.999Z</time>
      </trkpt>
      <trkpt lat="48.698904" lon="10.128082">
        <ele>615.787303</ele>
        <time>2024-03-17T11:24:51.999Z</time>
      </trkpt>
      <trkpt lat="48.698790" lon="10.128287">
        <ele>615.243909</ele>
        <time>2024-03-17T11:24:53.999Z</time>
      </trkpt>
      <trkpt lat="48.698676" lon="10.128495">
        <ele>614.695851</ele>
        <time>2024-03-17T11:24:56.000Z</time>
      </trkpt>
      <trkpt lat="48.698562" lon="10.128700">
        <ele>614.152456</ele>
        <time>2024-03-17T11:24:58.000Z</time>
      </trkpt>
      <trkpt lat="48.698500" lon="10.128813">
        <ele>613.854580</ele>
        <time>2024-03-17T11:24:59.000Z</time>
      </trkpt>
      <trkpt lat="48.698440" lon="10.128919">
        <ele>613.571509</ele>
        <time>2024-03-17T11:25:00.000Z</time>
      </trkpt>
      <trkpt lat="48.698326" lon="10.129123">
        <ele>613.416903</ele>
        <time>2024-03-17T11:25:02.000Z</time>
      </trkpt>
      <trkpt lat="48.698266" lon="10.129229">
        <ele>613.344376</ele>
        <time>2024-03-17T11:25:03.000Z</time>
      </trkpt>
      <trkpt lat="48.698207" lon="10.129333">
        <ele>613.273151</ele>
        <time>2024-03-17T11:25:04.000Z</time>
      </trkpt>
      <trkpt lat="48.698103" lon="10.129521">
        <ele>613.145747</ele>
        <time>2024-03-17T11:25:06.000Z</time>
      </trkpt>
      <trkpt lat="48.697992" lon="10.129706">
        <ele>613.015895</ele>
        <time>2024-03-17T11:25:08.000Z</time>
      </trkpt>
      <trkpt lat="48.697991" lon="10.129868">
        <ele>612.931752</ele>
        <time>2024-03-17T11:25:09.000Z</time>
      </trkpt>
      <trkpt lat="48.697975" lon="10.130118">
        <ele>612.801298</ele>
        <time>2024-03-17T11:25:11.000Z</time>
      </trkpt>
      <trkpt lat="48.697961" lon="10.130366">
        <ele>612.672022</ele>
        <time>2024-03-17T11:25:13.000Z</time>
      </trkpt>
      <trkpt lat="48.697952" lon="10.130616">
        <ele>612.541985</ele>
        <time>2024-03-17T11:25:15.000Z</time>
      </trkpt>
      <trkpt lat="48.697944" lon="10.130874">
        <ele>612.407837</ele>
        <time>2024-03-17T11:25:17.000Z</time>
      </trkpt>
      <trkpt lat="48.697926" lon="10.131122">
        <ele>612.278255</ele>
        <time>2024-03-17T11:25:19.000Z</time>
      </trkpt>
      <trkpt lat="48.697908" lon="10.131377">
        <ele>612.145058</ele>
        <time>2024-03-17T11:25:21.000Z</time>
      </trkpt>
      <trkpt lat="48.697889" lon="10.131627">
        <ele>612.243681</ele>
        <time>2024-03-17T11:25:23.000Z</time>
      </trkpt>
      <trkpt lat="48.697872" lon="10.131881">
        <ele>612.363260</ele>
        <time>2024-03-17T11:25:25.000Z</time>
      </trkpt>
      <trkpt lat="48.697861" lon="10.132128">
        <ele>612.479214</ele>
        <time>2024-03-17T11:25:27.000Z</time>
      </trkpt>
      <trkpt lat="48.697850" lon="10.132365">
        <ele>612.590495</ele>
        <time>2024-03-17T11:25:29.000Z</time>
      </trkpt>
      <trkpt lat="48.697837" lon="10.132591">
        <ele>612.696751</ele>
        <time>2024-03-17T11:25:31.000Z</time>
      </trkpt>
      <trkpt lat="48.697821" lon="10.132809">
        <ele>612.799488</ele>
        <time>2024-03-17T11:25:33.000Z</time>
      </trkpt>
      <trkpt lat="48.697859" lon="10.133028">
        <ele>612.905549</ele>
        <time>2024-03-17T11:25:35.000Z</time>
      </trkpt>
      <trkpt lat="48.697838" lon="10.133234">
        <ele>613.003180</ele>
        <time>2024-03-17T11:25:37.000Z</time>
      </trkpt>
      <trkpt lat="48.697814" lon="10.133449">
        <ele>613.105313</ele>
        <time>2024-03-17T11:25:38.999Z</time>
      </trkpt>
      <trkpt lat="48.697766" lon="10.133671">
        <ele>613.214731</ele>
        <time>2024-03-17T11:25:40.999Z</time>
      </trkpt>
      <trkpt lat="48.697707" lon="10.133866">
        <ele>613.315205</ele>
        <time>2024-03-17T11:25:42.999Z</time>
      </trkpt>
      <trkpt lat="48.697632" lon="10.134030">
        <ele>613.408657</ele>
        <time>2024-03-17T11:25:44.999Z</time>
      </trkpt>
      <trkpt lat="48.697564" lon="10.134197">
        <ele>612.802011</ele>
        <time>2024-03-17T11:25:46.999Z</time>
      </trkpt>
      <trkpt lat="48.697481" lon="10.134358">
        <ele>612.148669</ele>
        <time>2024-03-17T11:25:48.999Z</time>
      </trkpt>
      <trkpt lat="48.697390" lon="10.134493">
        <ele>611.531560</ele>
        <time>2024-03-17T11:25:50.999Z</time>
      </trkpt>
      <trkpt lat="48.697309" lon="10.134566">
        <ele>611.074896</ele>
        <time>2024-03-17T11:25:52.999Z</time>
      </trkpt>
      <trkpt lat="48.697236" lon="10.134673">
        <ele>610.582744</ele>
        <time>2024-03-17T11:26:08.999Z</time>
      </trkpt>
      <trkpt lat="48.697126" lon="10.134794">
        <ele>609.924087</ele>
        <time>2024-03-17T11:26:11.999Z</time>
      </trkpt>
      <trkpt lat="48.697013" lon="10.134883">
        <ele>609.306994</ele>
        <time>2024-03-17T11:26:13.999Z</time>
      </trkpt>
      <trkpt lat="48.696871" lon="10.134938">
        <ele>608.596822</ele>
        <time>2024-03-17T11:26:15.999Z</time>
      </trkpt>
      <trkpt lat="48.696704" lon="10.134974">
        <ele>607.779494</ele>
        <time>2024-03-17T11:26:17.999Z</time>
      </trkpt>
      <trkpt lat="48.696614" lon="10.134992">
        <ele>607.339627</ele>
        <time>2024-03-17T11:26:18.999Z</time>
      </trkpt>
      <trkpt lat="48.696518" lon="10.135011">
        <ele>606.870518</ele>
        <time>2024-03-17T11:26:19.999Z</time>
      </trkpt>
      <trkpt lat="48.696420" lon="10.135029">
        <ele>606.392194</ele>
        <time>2024-03-17T11:26:20.999Z</time>
      </trkpt>
      <trkpt lat="48.696318" lon="10.135052">
        <ele>605.892522</ele>
        <time>2024-03-17T11:26:21.999Z</time>
      </trkpt>
      <trkpt lat="48.696213" lon="10.135075">
        <ele>605.378467</ele>
        <time>2024-03-17T11:26:22.999Z</time>
      </trkpt>
      <trkpt lat="48.696101" lon="10.135096">
        <ele>604.831644</ele>
        <time>2024-03-17T11:26:23.999Z</time>
      </trkpt>
      <trkpt lat="48.695987" lon="10.135122">
        <ele>604.400968</ele>
        <time>2024-03-17T11:26:24.999Z</time>
      </trkpt>
      <trkpt lat="48.695874" lon="10.135149">
        <ele>604.014230</ele>
        <time>2024-03-17T11:26:25.999Z</time>
      </trkpt>
      <trkpt lat="48.695754" lon="10.135174">
        <ele>603.604731</ele>
        <time>2024-03-17T11:26:26.999Z</time>
      </trkpt>
      <trkpt lat="48.695636" lon="10.135202">
        <ele>603.200949</ele>
        <time>2024-03-17T11:26:27.999Z</time>
      </trkpt>
      <trkpt lat="48.695520" lon="10.135237">
        <ele>602.801089</ele>
        <time>2024-03-17T11:26:28.999Z</time>
      </trkpt>
      <trkpt lat="48.695404" lon="10.135273">
        <ele>602.400788</ele>
        <time>2024-03-17T11:26:29.999Z</time>
      </trkpt>
      <trkpt lat="48.695289" lon="10.135317">
        <ele>601.999804</ele>
        <time>2024-03-17T11:26:30.999Z</time>
      </trkpt>
      <trkpt lat="48.695178" lon="10.135360">
        <ele>601.612476</ele>
        <time>2024-03-17T11:26:31.999Z</time>
      </trkpt>
      <trkpt lat="48.695070" lon="10.135411">
        <ele>601.230037</ele>
        <time>2024-03-17T11:26:32.999Z</time>
      </trkpt>
      <trkpt lat="48.694967" lon="10.135473">
        <ele>600.855350</ele>
        <time>2024-03-17T11:26:33.999Z</time>
      </trkpt>
      <trkpt lat="48.694867" lon="10.135535">
        <ele>600.490068</ele>
        <time>2024-03-17T11:26:34.999Z</time>
      </trkpt>
      <trkpt lat="48.694773" lon="10.135597">
        <ele>600.143474</ele>
        <time>2024-03-17T11:26:35.999Z</time>
      </trkpt>
      <trkpt lat="48.694680" lon="10.135642">
        <ele>599.813425</ele>
        <time>2024-03-17T11:26:36.999Z</time>
      </trkpt>
      <trkpt lat="48.694539" lon="10.135757">
        <ele>599.272062</ele>
        <time>2024-03-17T11:26:38.999Z</time>
      </trkpt>
      <trkpt lat="48.694518" lon="10.135896">
        <ele>598.953864</ele>
        <time>2024-03-17T11:26:39.999Z</time>
      </trkpt>
      <trkpt lat="48.694452" lon="10.136136">
        <ele>598.746968</ele>
        <time>2024-03-17T11:26:41.999Z</time>
      </trkpt>
      <trkpt lat="48.694377" lon="10.136375">
        <ele>599.067667</ele>
        <time>2024-03-17T11:26:43.999Z</time>
      </trkpt>
      <trkpt lat="48.694308" lon="10.136622">
        <ele>599.392699</ele>
        <time>2024-03-17T11:26:45.999Z</time>
      </trkpt>
      <trkpt lat="48.694266" lon="10.136745">
        <ele>599.560521</ele>
        <time>2024-03-17T11:26:46.999Z</time>
      </trkpt>
      <trkpt lat="48.694149" lon="10.136942">
        <ele>599.881670</ele>
        <time>2024-03-17T11:26:48.999Z</time>
      </trkpt>
      <trkpt lat="48.694077" lon="10.137025">
        <ele>600.047775</ele>
        <time>2024-03-17T11:26:49.999Z</time>
      </trkpt>
      <trkpt lat="48.693944" lon="10.137171">
        <ele>600.349319</ele>
        <time>2024-03-17T11:26:51.999Z</time>
      </trkpt>
      <trkpt lat="48.693810" lon="10.137308">
        <ele>600.646116</ele>
        <time>2024-03-17T11:26:53.999Z</time>
      </trkpt>
      <trkpt lat="48.693676" lon="10.137445">
        <ele>600.942913</ele>
        <time>2024-03-17T11:26:55.999Z</time>
      </trkpt>
      <trkpt lat="48.693551" lon="10.137578">
        <ele>601.223351</ele>
        <time>2024-03-17T11:26:57.999Z</time>
      </trkpt>
      <trkpt lat="48.693428" lon="10.137708">
        <ele>601.498697</ele>
        <time>2024-03-17T11:26:59.999Z</time>
      </trkpt>
      <trkpt lat="48.693307" lon="10.137843">
        <ele>601.774589</ele>
        <time>2024-03-17T11:27:02.000Z</time>
      </trkpt>
      <trkpt lat="48.693194" lon="10.137977">
        <ele>601.988938</ele>
        <time>2024-03-17T11:27:04.000Z</time>
      </trkpt>
      <trkpt lat="48.693074" lon="10.138106">
        <ele>602.148758</ele>
        <time>2024-03-17T11:27:06.000Z</time>
      </trkpt>
      <trkpt lat="48.692959" lon="10.138237">
        <ele>602.305039</ele>
        <time>2024-03-17T11:27:08.000Z</time>
      </trkpt>
      <trkpt lat="48.692844" lon="10.138366">
        <ele>602.460462</ele>
        <time>2024-03-17T11:27:10.000Z</time>
      </trkpt>
      <trkpt lat="48.692737" lon="10.138505">
        <ele>602.613559</ele>
        <time>2024-03-17T11:27:12.000Z</time>
      </trkpt>
      <trkpt lat="48.692629" lon="10.138644">
        <ele>602.767483</ele>
        <time>2024-03-17T11:27:14.000Z</time>
      </trkpt>
      <trkpt lat="48.692524" lon="10.138788">
        <ele>602.921320</ele>
        <time>2024-03-17T11:27:16.000Z</time>
      </trkpt>
      <trkpt lat="48.692425" lon="10.138937">
        <ele>603.072896</ele>
        <time>2024-03-17T11:27:18.000Z</time>
      </trkpt>
      <trkpt lat="48.692352" lon="10.139086">
        <ele>603.205935</ele>
        <time>2024-03-17T11:27:20.000Z</time>
      </trkpt>
      <trkpt lat="48.692286" lon="10.139235">
        <ele>603.334588</ele>
        <time>2024-03-17T11:27:22.000Z</time>
      </trkpt>
      <trkpt lat="48.692211" lon="10.139405">
        <ele>603.481190</ele>
        <time>2024-03-17T11:27:24.000Z</time>
      </trkpt>
      <trkpt lat="48.692123" lon="10.139592">
        <ele>603.645848</ele>
        <time>2024-03-17T11:27:26.000Z</time>
      </trkpt>
      <trkpt lat="48.692037" lon="10.139780">
        <ele>603.809843</ele>
        <time>2024-03-17T11:27:28.000Z</time>
      </trkpt>
      <trkpt lat="48.691946" lon="10.139980">
        <ele>603.725854</ele>
        <time>2024-03-17T11:27:30.000Z</time>
      </trkpt>
      <trkpt lat="48.691849" lon="10.140187">
        <ele>603.490567</ele>
        <time>2024-03-17T11:27:32.000Z</time>
      </trkpt>
      <trkpt lat="48.691756" lon="10.140390">
        <ele>603.261541</ele>
        <time>2024-03-17T11:27:34.000Z</time>
      </trkpt>
      <trkpt lat="48.691645" lon="10.140554">
        <ele>603.043833</ele>
        <time>2024-03-17T11:27:36.000Z</time>
      </trkpt>
      <trkpt lat="48.691485" lon="10.140596">
        <ele>602.815828</ele>
        <time>2024-03-17T11:27:38.000Z</time>
      </trkpt>
      <trkpt lat="48.691340" lon="10.140634">
        <ele>602.609209</ele>
        <time>2024-03-17T11:27:40.000Z</time>
      </trkpt>
      <trkpt lat="48.691205" lon="10.140626">
        <ele>602.419510</ele>
        <time>2024-03-17T11:27:42.000Z</time>
      </trkpt>
      <trkpt lat="48.691124" lon="10.140537">
        <ele>602.279011</ele>
        <time>2024-03-17T11:27:44.000Z</time>
      </trkpt>
      <trkpt lat="48.691129" lon="10.140346">
        <ele>602.101839</ele>
        <time>2024-03-17T11:27:46.000Z</time>
      </trkpt>
      <trkpt lat="48.691105" lon="10.140180">
        <ele>601.944331</ele>
        <time>2024-03-17T11:27:48.000Z</time>
      </trkpt>
      <trkpt lat="48.691065" lon="10.140026">
        <ele>601.790940</ele>
        <time>2024-03-17T11:27:50.000Z</time>
      </trkpt>
      <trkpt lat="48.691008" lon="10.139896">
        <ele>601.646288</ele>
        <time>2024-03-17T11:27:52.000Z</time>
      </trkpt>
      <trkpt lat="48.691044" lon="10.139674">
        <ele>601.434404</ele>
        <time>2024-03-17T11:29:26.000Z</time>
      </trkpt>
      <trkpt lat="48.690908" lon="10.139480">
        <ele>600.372951</ele>
        <time>2024-03-17T11:30:08.999Z</time>
      </trkpt>
      <trkpt lat="48.690780" lon="10.139589">
        <ele>599.218842</ele>
        <time>2024-03-17T11:30:10.999Z</time>
      </trkpt>
      <trkpt lat="48.690636" lon="10.139757">
        <ele>597.790289</ele>
        <time>2024-03-17T11:30:12.999Z</time>
      </trkpt>
      <trkpt lat="48.690557" lon="10.139854">
        <ele>596.991020</ele>
        <time>2024-03-17T11:30:13.999Z</time>
      </trkpt>
      <trkpt lat="48.690472" lon="10.139955">
        <ele>596.141939</ele>
        <time>2024-03-17T11:30:14.999Z</time>
      </trkpt>
      <trkpt lat="48.690392" lon="10.140056">
        <ele>595.323418</ele>
        <time>2024-03-17T11:30:15.999Z</time>
      </trkpt>
      <trkpt lat="48.690308" lon="10.140157">
        <ele>594.480506</ele>
        <time>2024-03-17T11:30:16.999Z</time>
      </trkpt>
      <trkpt lat="48.690223" lon="10.140264">
        <ele>593.611864</ele>
        <time>2024-03-17T11:30:17.999Z</time>
      </trkpt>
      <trkpt lat="48.690139" lon="10.140387">
        <ele>592.693623</ele>
        <time>2024-03-17T11:30:18.999Z</time>
      </trkpt>
      <trkpt lat="48.690055" lon="10.140518">
        <ele>591.746063</ele>
        <time>2024-03-17T11:30:19.999Z</time>
      </trkpt>
      <trkpt lat="48.689968" lon="10.140652">
        <ele>590.770890</ele>
        <time>2024-03-17T11:30:20.999Z</time>
      </trkpt>
      <trkpt lat="48.689877" lon="10.140788">
        <ele>589.766158</ele>
        <time>2024-03-17T11:30:21.999Z</time>
      </trkpt>
      <trkpt lat="48.689785" lon="10.140931">
        <ele>588.730122</ele>
        <time>2024-03-17T11:30:22.999Z</time>
      </trkpt>
      <trkpt lat="48.689694" lon="10.141088">
        <ele>587.646086</ele>
        <time>2024-03-17T11:30:23.999Z</time>
      </trkpt>
      <trkpt lat="48.689607" lon="10.141253">
        <ele>586.310527</ele>
        <time>2024-03-17T11:30:24.999Z</time>
      </trkpt>
      <trkpt lat="48.689514" lon="10.141414">
        <ele>584.796218</ele>
        <time>2024-03-17T11:30:25.999Z</time>
      </trkpt>
      <trkpt lat="48.689432" lon="10.141592">
        <ele>583.259807</ele>
        <time>2024-03-17T11:30:26.999Z</time>
      </trkpt>
      <trkpt lat="48.689345" lon="10.141774">
        <ele>581.669253</ele>
        <time>2024-03-17T11:30:27.999Z</time>
      </trkpt>
      <trkpt lat="48.689257" lon="10.141953">
        <ele>580.089465</ele>
        <time>2024-03-17T11:30:28.999Z</time>
      </trkpt>
      <trkpt lat="48.689164" lon="10.142137">
        <ele>578.449123</ele>
        <time>2024-03-17T11:30:29.999Z</time>
      </trkpt>
      <trkpt lat="48.689076" lon="10.142328">
        <ele>576.800425</ele>
        <time>2024-03-17T11:30:30.999Z</time>
      </trkpt>
      <trkpt lat="48.688980" lon="10.142510">
        <ele>575.151411</ele>
        <time>2024-03-17T11:30:31.999Z</time>
      </trkpt>
      <trkpt lat="48.688881" lon="10.142693">
        <ele>573.476656</ele>
        <time>2024-03-17T11:30:32.999Z</time>
      </trkpt>
      <trkpt lat="48.688771" lon="10.142870">
        <ele>571.755927</ele>
        <time>2024-03-17T11:30:33.999Z</time>
      </trkpt>
      <trkpt lat="48.688656" lon="10.143036">
        <ele>570.052633</ele>
        <time>2024-03-17T11:30:34.999Z</time>
      </trkpt>
      <trkpt lat="48.688532" lon="10.143193">
        <ele>568.319754</ele>
        <time>2024-03-17T11:30:35.999Z</time>
      </trkpt>
      <trkpt lat="48.688400" lon="10.143329">
        <ele>567.235546</ele>
        <time>2024-03-17T11:30:36.999Z</time>
      </trkpt>
      <trkpt lat="48.688259" lon="10.143442">
        <ele>566.341371</ele>
        <time>2024-03-17T11:30:37.999Z</time>
      </trkpt>
      <trkpt lat="48.688115" lon="10.143540">
        <ele>565.456457</ele>
        <time>2024-03-17T11:30:38.999Z</time>
      </trkpt>
      <trkpt lat="48.687973" lon="10.143633">
        <ele>564.589263</ele>
        <time>2024-03-17T11:30:39.999Z</time>
      </trkpt>
      <trkpt lat="48.687830" lon="10.143718">
        <ele>563.728171</ele>
        <time>2024-03-17T11:30:40.999Z</time>
      </trkpt>
      <trkpt lat="48.687688" lon="10.143799">
        <ele>562.877623</ele>
        <time>2024-03-17T11:30:41.999Z</time>
      </trkpt>
      <trkpt lat="48.687552" lon="10.143875">
        <ele>562.065052</ele>
        <time>2024-03-17T11:30:42.999Z</time>
      </trkpt>
      <trkpt lat="48.687417" lon="10.143956">
        <ele>561.251107</ele>
        <time>2024-03-17T11:30:43.999Z</time>
      </trkpt>
      <trkpt lat="48.687288" lon="10.144037">
        <ele>560.468332</ele>
        <time>2024-03-17T11:30:44.999Z</time>
      </trkpt>
      <trkpt lat="48.687160" lon="10.144110">
        <ele>559.701658</ele>
        <time>2024-03-17T11:30:45.999Z</time>
      </trkpt>
      <trkpt lat="48.687039" lon="10.144186">
        <ele>558.967395</ele>
        <time>2024-03-17T11:30:46.999Z</time>
      </trkpt>
      <trkpt lat="48.686922" lon="10.144264">
        <ele>558.250842</ele>
        <time>2024-03-17T11:30:47.999Z</time>
      </trkpt>
      <trkpt lat="48.686807" lon="10.144348">
        <ele>557.527104</ele>
        <time>2024-03-17T11:30:48.999Z</time>
      </trkpt>
      <trkpt lat="48.686694" lon="10.144436">
        <ele>556.796056</ele>
        <time>2024-03-17T11:30:49.999Z</time>
      </trkpt>
      <trkpt lat="48.686581" lon="10.144520">
        <ele>556.071828</ele>
        <time>2024-03-17T11:30:50.999Z</time>
      </trkpt>
      <trkpt lat="48.686468" lon="10.144608">
        <ele>555.340779</ele>
        <time>2024-03-17T11:30:51.999Z</time>
      </trkpt>
      <trkpt lat="48.686356" lon="10.144700">
        <ele>554.607723</ele>
        <time>2024-03-17T11:30:52.999Z</time>
      </trkpt>
      <trkpt lat="48.686245" lon="10.144787">
        <ele>553.888641</ele>
        <time>2024-03-17T11:30:53.999Z</time>
      </trkpt>
      <trkpt lat="48.686133" lon="10.144880">
        <ele>553.153765</ele>
        <time>2024-03-17T11:30:54.999Z</time>
      </trkpt>
      <trkpt lat="48.686031" lon="10.144962">
        <ele>552.489366</ele>
        <time>2024-03-17T11:30:55.999Z</time>
      </trkpt>
      <trkpt lat="48.685935" lon="10.145036">
        <ele>551.869613</ele>
        <time>2024-03-17T11:30:56.999Z</time>
      </trkpt>
      <trkpt lat="48.685853" lon="10.145102">
        <ele>551.335347</ele>
        <time>2024-03-17T11:30:57.999Z</time>
      </trkpt>
      <trkpt lat="48.685701" lon="10.145206">
        <ele>550.375718</ele>
        <time>2024-03-17T11:30:59.999Z</time>
      </trkpt>
      <trkpt lat="48.685592" lon="10.145250">
        <ele>549.726688</ele>
        <time>2024-03-17T11:31:01.999Z</time>
      </trkpt>
      <trkpt lat="48.685294" lon="10.145295">
        <ele>548.003618</ele>
        <time>2024-03-17T11:31:50.000Z</time>
      </trkpt>
      <trkpt lat="48.685158" lon="10.145218">
        <ele>547.229640</ele>
        <time>2024-03-17T11:31:52.000Z</time>
      </trkpt>
      <trkpt lat="48.685004" lon="10.145128">
        <ele>546.459995</ele>
        <time>2024-03-17T11:31:54.000Z</time>
      </trkpt>
      <trkpt lat="48.684842" lon="10.145030">
        <ele>545.646629</ele>
        <time>2024-03-17T11:31:56.000Z</time>
      </trkpt>
      <trkpt lat="48.684682" lon="10.144922">
        <ele>544.829877</ele>
        <time>2024-03-17T11:31:58.000Z</time>
      </trkpt>
      <trkpt lat="48.684598" lon="10.144866">
        <ele>544.401954</ele>
        <time>2024-03-17T11:31:59.000Z</time>
      </trkpt>
      <trkpt lat="48.684514" lon="10.144813">
        <ele>543.977667</ele>
        <time>2024-03-17T11:32:00.000Z</time>
      </trkpt>
      <trkpt lat="48.684428" lon="10.144767">
        <ele>543.552410</ele>
        <time>2024-03-17T11:32:01.000Z</time>
      </trkpt>
      <trkpt lat="48.684340" lon="10.144731">
        <ele>543.127392</ele>
        <time>2024-03-17T11:32:01.999Z</time>
      </trkpt>
      <trkpt lat="48.684162" lon="10.144675">
        <ele>542.279723</ele>
        <time>2024-03-17T11:32:03.999Z</time>
      </trkpt>
      <trkpt lat="48.684070" lon="10.144661">
        <ele>541.848597</ele>
        <time>2024-03-17T11:32:04.999Z</time>
      </trkpt>
      <trkpt lat="48.683976" lon="10.144650">
        <ele>541.409000</ele>
        <time>2024-03-17T11:32:05.999Z</time>
      </trkpt>
      <trkpt lat="48.683878" lon="10.144659">
        <ele>540.951219</ele>
        <time>2024-03-17T11:32:06.999Z</time>
      </trkpt>
      <trkpt lat="48.683777" lon="10.144680">
        <ele>540.475873</ele>
        <time>2024-03-17T11:32:07.999Z</time>
      </trkpt>
      <trkpt lat="48.683677" lon="10.144718">
        <ele>539.995156</ele>
        <time>2024-03-17T11:32:08.999Z</time>
      </trkpt>
      <trkpt lat="48.683577" lon="10.144776">
        <ele>539.495872</ele>
        <time>2024-03-17T11:32:09.999Z</time>
      </trkpt>
      <trkpt lat="48.683483" lon="10.144872">
        <ele>538.775737</ele>
        <time>2024-03-17T11:32:10.999Z</time>
      </trkpt>
      <trkpt lat="48.683392" lon="10.144996">
        <ele>537.414476</ele>
        <time>2024-03-17T11:32:11.999Z</time>
      </trkpt>
      <trkpt lat="48.683308" lon="10.145134">
        <ele>536.036337</ele>
        <time>2024-03-17T11:32:12.999Z</time>
      </trkpt>
      <trkpt lat="48.683231" lon="10.145291">
        <ele>534.600353</ele>
        <time>2024-03-17T11:32:13.999Z</time>
      </trkpt>
      <trkpt lat="48.683149" lon="10.145449">
        <ele>533.124767</ele>
        <time>2024-03-17T11:32:14.999Z</time>
      </trkpt>
      <trkpt lat="48.683062" lon="10.145604">
        <ele>531.631032</ele>
        <time>2024-03-17T11:32:15.999Z</time>
      </trkpt>
      <trkpt lat="48.682969" lon="10.145754">
        <ele>530.120203</ele>
        <time>2024-03-17T11:32:16.999Z</time>
      </trkpt>
      <trkpt lat="48.682864" lon="10.145897">
        <ele>528.549888</ele>
        <time>2024-03-17T11:32:17.999Z</time>
      </trkpt>
      <trkpt lat="48.682742" lon="10.146020">
        <ele>526.920055</ele>
        <time>2024-03-17T11:32:18.999Z</time>
      </trkpt>
      <trkpt lat="48.682611" lon="10.146128">
        <ele>525.261391</ele>
        <time>2024-03-17T11:32:19.999Z</time>
      </trkpt>
      <trkpt lat="48.682466" lon="10.146215">
        <ele>523.526950</ele>
        <time>2024-03-17T11:32:20.999Z</time>
      </trkpt>
      <trkpt lat="48.682323" lon="10.146302">
        <ele>521.813168</ele>
        <time>2024-03-17T11:32:21.999Z</time>
      </trkpt>
      <trkpt lat="48.682185" lon="10.146408">
        <ele>520.092418</ele>
        <time>2024-03-17T11:32:22.999Z</time>
      </trkpt>
      <trkpt lat="48.682047" lon="10.146511">
        <ele>518.429134</ele>
        <time>2024-03-17T11:32:23.999Z</time>
      </trkpt>
      <trkpt lat="48.681916" lon="10.146615">
        <ele>516.892854</ele>
        <time>2024-03-17T11:32:24.999Z</time>
      </trkpt>
      <trkpt lat="48.681790" lon="10.146736">
        <ele>515.343203</ele>
        <time>2024-03-17T11:32:25.999Z</time>
      </trkpt>
      <trkpt lat="48.681669" lon="10.146871">
        <ele>513.782199</ele>
        <time>2024-03-17T11:32:26.999Z</time>
      </trkpt>
      <trkpt lat="48.681551" lon="10.147015">
        <ele>512.208199</ele>
        <time>2024-03-17T11:32:27.999Z</time>
      </trkpt>
      <trkpt lat="48.681425" lon="10.147165">
        <ele>510.543554</ele>
        <time>2024-03-17T11:32:28.999Z</time>
      </trkpt>
      <trkpt lat="48.681303" lon="10.147317">
        <ele>508.902692</ele>
        <time>2024-03-17T11:32:29.999Z</time>
      </trkpt>
      <trkpt lat="48.681177" lon="10.147466">
        <ele>507.242273</ele>
        <time>2024-03-17T11:32:30.999Z</time>
      </trkpt>
      <trkpt lat="48.681052" lon="10.147604">
        <ele>505.635588</ele>
        <time>2024-03-17T11:32:31.999Z</time>
      </trkpt>
      <trkpt lat="48.680937" lon="10.147734">
        <ele>504.145060</ele>
        <time>2024-03-17T11:32:32.999Z</time>
      </trkpt>
      <trkpt lat="48.680822" lon="10.147869">
        <ele>502.633772</ele>
        <time>2024-03-17T11:32:33.999Z</time>
      </trkpt>
      <trkpt lat="48.680716" lon="10.147990">
        <ele>501.255062</ele>
        <time>2024-03-17T11:32:34.999Z</time>
      </trkpt>
      <trkpt lat="48.680615" lon="10.148112">
        <ele>500.434728</ele>
        <time>2024-03-17T11:32:35.999Z</time>
      </trkpt>
      <trkpt lat="48.680517" lon="10.148245">
        <ele>500.472691</ele>
        <time>2024-03-17T11:32:36.999Z</time>
      </trkpt>
      <trkpt lat="48.680422" lon="10.148375">
        <ele>500.509628</ele>
        <time>2024-03-17T11:32:37.999Z</time>
      </trkpt>
      <trkpt lat="48.680314" lon="10.148488">
        <ele>500.547497</ele>
        <time>2024-03-17T11:32:38.999Z</time>
      </trkpt>
      <trkpt lat="48.680219" lon="10.148618">
        <ele>500.584434</ele>
        <time>2024-03-17T11:32:39.999Z</time>
      </trkpt>
      <trkpt lat="48.680141" lon="10.148763">
        <ele>500.620061</ele>
        <time>2024-03-17T11:32:40.999Z</time>
      </trkpt>
      <trkpt lat="48.680041" lon="10.148869">
        <ele>500.655274</ele>
        <time>2024-03-17T11:32:41.999Z</time>
      </trkpt>
      <trkpt lat="48.679960" lon="10.148996">
        <ele>500.688909</ele>
        <time>2024-03-17T11:32:42.999Z</time>
      </trkpt>
      <trkpt lat="48.679882" lon="10.149115">
        <ele>500.720850</ele>
        <time>2024-03-17T11:32:43.999Z</time>
      </trkpt>
      <trkpt lat="48.679808" lon="10.149216">
        <ele>500.749588</ele>
        <time>2024-03-17T11:32:44.999Z</time>
      </trkpt>
      <trkpt lat="48.679737" lon="10.149312">
        <ele>500.777047</ele>
        <time>2024-03-17T11:32:45.999Z</time>
      </trkpt>
      <trkpt lat="48.679639" lon="10.149485">
        <ele>500.820467</ele>
        <time>2024-03-17T11:32:47.999Z</time>
      </trkpt>
      <trkpt lat="48.679563" lon="10.149598">
        <ele>500.851192</ele>
        <time>2024-03-17T11:32:49.999Z</time>
      </trkpt>
      <trkpt lat="48.679513" lon="10.149725">
        <ele>500.879358</ele>
        <time>2024-03-17T11:32:56.999Z</time>
      </trkpt>
      <trkpt lat="48.679431" lon="10.149866">
        <ele>500.915149</ele>
        <time>2024-03-17T11:33:00.999Z</time>
      </trkpt>
      <trkpt lat="48.679358" lon="10.149963">
        <ele>500.943144</ele>
        <time>2024-03-17T11:33:02.999Z</time>
      </trkpt>
      <trkpt lat="48.679267" lon="10.150072">
        <ele>500.976414</ele>
        <time>2024-03-17T11:33:04.999Z</time>
      </trkpt>
      <trkpt lat="48.679157" lon="10.150184">
        <ele>501.014423</ele>
        <time>2024-03-17T11:33:06.999Z</time>
      </trkpt>
      <trkpt lat="48.679050" lon="10.150281">
        <ele>501.050183</ele>
        <time>2024-03-17T11:33:08.999Z</time>
      </trkpt>
      <trkpt lat="48.678933" lon="10.150358">
        <ele>501.086765</ele>
        <time>2024-03-17T11:33:10.999Z</time>
      </trkpt>
      <trkpt lat="48.678832" lon="10.150471">
        <ele>501.122774</ele>
        <time>2024-03-17T11:33:12.999Z</time>
      </trkpt>
      <trkpt lat="48.678715" lon="10.150572">
        <ele>501.161392</ele>
        <time>2024-03-17T11:33:14.999Z</time>
      </trkpt>
      <trkpt lat="48.678602" lon="10.150673">
        <ele>501.199018</ele>
        <time>2024-03-17T11:33:16.999Z</time>
      </trkpt>
      <trkpt lat="48.678530" lon="10.150810">
        <ele>501.232172</ele>
        <time>2024-03-17T11:33:19.000Z</time>
      </trkpt>
      <trkpt lat="48.678477" lon="10.150982">
        <ele>501.268111</ele>
        <time>2024-03-17T11:33:21.000Z</time>
      </trkpt>
      <trkpt lat="48.678431" lon="10.151160">
        <ele>501.304303</ele>
        <time>2024-03-17T11:33:23.000Z</time>
      </trkpt>
      <trkpt lat="48.678391" lon="10.151346">
        <ele>501.341342</ele>
        <time>2024-03-17T11:33:25.000Z</time>
      </trkpt>
      <trkpt lat="48.678338" lon="10.151518">
        <ele>501.377281</ele>
        <time>2024-03-17T11:33:27.000Z</time>
      </trkpt>
      <trkpt lat="48.678285" lon="10.151692">
        <ele>501.413563</ele>
        <time>2024-03-17T11:33:29.000Z</time>
      </trkpt>
      <trkpt lat="48.678236" lon="10.151857">
        <ele>501.447819</ele>
        <time>2024-03-17T11:33:31.000Z</time>
      </trkpt>
      <trkpt lat="48.678199" lon="10.152027">
        <ele>501.396778</ele>
        <time>2024-03-17T11:33:33.000Z</time>
      </trkpt>
      <trkpt lat="48.678175" lon="10.152191">
        <ele>501.326241</ele>
        <time>2024-03-17T11:33:35.000Z</time>
      </trkpt>
      <trkpt lat="48.678159" lon="10.152361">
        <ele>501.254134</ele>
        <time>2024-03-17T11:33:37.000Z</time>
      </trkpt>
      <trkpt lat="48.678139" lon="10.152541">
        <ele>501.177487</ele>
        <time>2024-03-17T11:33:39.000Z</time>
      </trkpt>
      <trkpt lat="48.678116" lon="10.152702">
        <ele>501.108317</ele>
        <time>2024-03-17T11:33:41.000Z</time>
      </trkpt>
      <trkpt lat="48.678091" lon="10.152838">
        <ele>501.049037</ele>
        <time>2024-03-17T11:33:43.000Z</time>
      </trkpt>
      <trkpt lat="48.677904" lon="10.152976">
        <ele>500.916747</ele>
        <time>2024-03-17T11:33:47.000Z</time>
      </trkpt>
      <trkpt lat="48.677808" lon="10.152870">
        <ele>500.841192</ele>
        <time>2024-03-17T11:33:49.000Z</time>
      </trkpt>
      <trkpt lat="48.677680" lon="10.152796">
        <ele>500.754061</ele>
        <time>2024-03-17T11:33:51.000Z</time>
      </trkpt>
      <trkpt lat="48.677543" lon="10.152740">
        <ele>500.663818</ele>
        <time>2024-03-17T11:33:53.000Z</time>
      </trkpt>
      <trkpt lat="48.677395" lon="10.152741">
        <ele>500.569695</ele>
        <time>2024-03-17T11:33:55.000Z</time>
      </trkpt>
      <trkpt lat="48.677235" lon="10.152701">
        <ele>500.466566</ele>
        <time>2024-03-17T11:33:57.000Z</time>
      </trkpt>
      <trkpt lat="48.677076" lon="10.152672">
        <ele>500.364719</ele>
        <time>2024-03-17T11:33:59.000Z</time>
      </trkpt>
      <trkpt lat="48.676920" lon="10.152628">
        <ele>500.254683</ele>
        <time>2024-03-17T11:34:01.000Z</time>
      </trkpt>
      <trkpt lat="48.676766" lon="10.152603">
        <ele>500.137334</ele>
        <time>2024-03-17T11:34:03.000Z</time>
      </trkpt>
      <trkpt lat="48.676618" lon="10.152571">
        <ele>500.024062</ele>
        <time>2024-03-17T11:34:05.000Z</time>
      </trkpt>
      <trkpt lat="48.676465" lon="10.152531">
        <ele>499.906424</ele>
        <time>2024-03-17T11:34:06.999Z</time>
      </trkpt>
      <trkpt lat="48.676301" lon="10.152498">
        <ele>499.781075</ele>
        <time>2024-03-17T11:34:08.999Z</time>
      </trkpt>
      <trkpt lat="48.676135" lon="10.152461">
        <ele>499.653947</ele>
        <time>2024-03-17T11:34:10.999Z</time>
      </trkpt>
      <trkpt lat="48.675973" lon="10.152429">
        <ele>499.530166</ele>
        <time>2024-03-17T11:34:12.999Z</time>
      </trkpt>
      <trkpt lat="48.675814" lon="10.152390">
        <ele>499.408127</ele>
        <time>2024-03-17T11:34:14.999Z</time>
      </trkpt>
      <trkpt lat="48.675659" lon="10.152346">
        <ele>499.288643</ele>
        <time>2024-03-17T11:34:16.999Z</time>
      </trkpt>
      <trkpt lat="48.675507" lon="10.152292">
        <ele>499.170351</ele>
        <time>2024-03-17T11:34:18.999Z</time>
      </trkpt>
      <trkpt lat="48.675361" lon="10.152252">
        <ele>499.057936</ele>
        <time>2024-03-17T11:34:20.999Z</time>
      </trkpt>
      <trkpt lat="48.675214" lon="10.152209">
        <ele>498.940368</ele>
        <time>2024-03-17T11:34:22.999Z</time>
      </trkpt>
      <trkpt lat="48.675069" lon="10.152164">
        <ele>498.717582</ele>
        <time>2024-03-17T11:34:24.999Z</time>
      </trkpt>
      <trkpt lat="48.674940" lon="10.152142">
        <ele>498.522188</ele>
        <time>2024-03-17T11:34:26.999Z</time>
      </trkpt>
      <trkpt lat="48.674812" lon="10.152087">
        <ele>498.321921</ele>
        <time>2024-03-17T11:34:28.999Z</time>
      </trkpt>
      <trkpt lat="48.674691" lon="10.152052">
        <ele>498.136502</ele>
        <time>2024-03-17T11:34:30.999Z</time>
      </trkpt>
      <trkpt lat="48.674586" lon="10.152015">
        <ele>497.974237</ele>
        <time>2024-03-17T11:34:32.999Z</time>
      </trkpt>
      <trkpt lat="48.674656" lon="10.151791">
        <ele>497.727927</ele>
        <time>2024-03-17T11:34:34.999Z</time>
      </trkpt>
      <trkpt lat="48.674688" lon="10.151604">
        <ele>497.535926</ele>
        <time>2024-03-17T11:34:36.999Z</time>
      </trkpt>
      <trkpt lat="48.674682" lon="10.151403">
        <ele>497.335945</ele>
        <time>2024-03-17T11:34:38.999Z</time>
      </trkpt>
      <trkpt lat="48.674641" lon="10.151231">
        <ele>497.154194</ele>
        <time>2024-03-17T11:34:40.999Z</time>
      </trkpt>
      <trkpt lat="48.674523" lon="10.151153">
        <ele>496.960401</ele>
        <time>2024-03-17T11:34:42.999Z</time>
      </trkpt>
      <trkpt lat="48.674379" lon="10.151172">
        <ele>496.742835</ele>
        <time>2024-03-17T11:34:44.999Z</time>
      </trkpt>
      <trkpt lat="48.674224" lon="10.151133">
        <ele>496.506335</ele>
        <time>2024-03-17T11:34:46.999Z</time>
      </trkpt>
      <trkpt lat="48.674064" lon="10.151100">
        <ele>496.263285</ele>
        <time>2024-03-17T11:34:48.999Z</time>
      </trkpt>
      <trkpt lat="48.673908" lon="10.151069">
        <ele>496.161184</ele>
        <time>2024-03-17T11:34:50.999Z</time>
      </trkpt>
      <trkpt lat="48.673744" lon="10.151027">
        <ele>496.067731</ele>
        <time>2024-03-17T11:34:52.999Z</time>
      </trkpt>
      <trkpt lat="48.673575" lon="10.151001">
        <ele>495.972289</ele>
        <time>2024-03-17T11:34:54.999Z</time>
      </trkpt>
      <trkpt lat="48.673411" lon="10.150964">
        <ele>495.879128</ele>
        <time>2024-03-17T11:34:56.999Z</time>
      </trkpt>
      <trkpt lat="48.673251" lon="10.150935">
        <ele>495.788590</ele>
        <time>2024-03-17T11:34:58.999Z</time>
      </trkpt>
      <trkpt lat="48.673079" lon="10.150895">
        <ele>495.690818</ele>
        <time>2024-03-17T11:35:00.999Z</time>
      </trkpt>
      <trkpt lat="48.672915" lon="10.150852">
        <ele>495.597303</ele>
        <time>2024-03-17T11:35:02.999Z</time>
      </trkpt>
      <trkpt lat="48.672750" lon="10.150808">
        <ele>495.503171</ele>
        <time>2024-03-17T11:35:04.999Z</time>
      </trkpt>
      <trkpt lat="48.672585" lon="10.150769">
        <ele>495.409343</ele>
        <time>2024-03-17T11:35:06.999Z</time>
      </trkpt>
      <trkpt lat="48.672422" lon="10.150736">
        <ele>495.316946</ele>
        <time>2024-03-17T11:35:08.999Z</time>
      </trkpt>
      <trkpt lat="48.672254" lon="10.150689">
        <ele>495.206595</ele>
        <time>2024-03-17T11:35:10.999Z</time>
      </trkpt>
      <trkpt lat="48.672089" lon="10.150650">
        <ele>494.976547</ele>
        <time>2024-03-17T11:35:12.999Z</time>
      </trkpt>
      <trkpt lat="48.671919" lon="10.150606">
        <ele>494.738967</ele>
        <time>2024-03-17T11:35:14.999Z</time>
      </trkpt>
      <trkpt lat="48.671750" lon="10.150566">
        <ele>494.503334</ele>
        <time>2024-03-17T11:35:16.999Z</time>
      </trkpt>
      <trkpt lat="48.671583" lon="10.150519">
        <ele>494.269344</ele>
        <time>2024-03-17T11:35:18.999Z</time>
      </trkpt>
      <trkpt lat="48.671410" lon="10.150477">
        <ele>494.027984</ele>
        <time>2024-03-17T11:35:20.999Z</time>
      </trkpt>
      <trkpt lat="48.671243" lon="10.150428">
        <ele>493.793654</ele>
        <time>2024-03-17T11:35:22.999Z</time>
      </trkpt>
      <trkpt lat="48.671076" lon="10.150386">
        <ele>493.560452</ele>
        <time>2024-03-17T11:35:25.000Z</time>
      </trkpt>
      <trkpt lat="48.670908" lon="10.150348">
        <ele>493.326456</ele>
        <time>2024-03-17T11:35:27.000Z</time>
      </trkpt>
      <trkpt lat="48.670740" lon="10.150299">
        <ele>493.090773</ele>
        <time>2024-03-17T11:35:29.000Z</time>
      </trkpt>
      <trkpt lat="48.670574" lon="10.150236">
        <ele>492.855027</ele>
        <time>2024-03-17T11:35:31.000Z</time>
      </trkpt>
      <trkpt lat="48.670485" lon="10.150199">
        <ele>492.775035</ele>
        <time>2024-03-17T11:35:32.000Z</time>
      </trkpt>
      <trkpt lat="48.670316" lon="10.150150">
        <ele>492.980801</ele>
        <time>2024-03-17T11:35:34.000Z</time>
      </trkpt>
      <trkpt lat="48.670149" lon="10.150114">
        <ele>493.182518</ele>
        <time>2024-03-17T11:35:36.000Z</time>
      </trkpt>
      <trkpt lat="48.669981" lon="10.150072">
        <ele>493.386137</ele>
        <time>2024-03-17T11:35:38.000Z</time>
      </trkpt>
      <trkpt lat="48.669819" lon="10.150036">
        <ele>493.581937</ele>
        <time>2024-03-17T11:35:40.000Z</time>
      </trkpt>
      <trkpt lat="48.669653" lon="10.149999">
        <ele>493.782584</ele>
        <time>2024-03-17T11:35:42.000Z</time>
      </trkpt>
      <trkpt lat="48.669488" lon="10.149964">
        <ele>493.981822</ele>
        <time>2024-03-17T11:35:44.000Z</time>
      </trkpt>
      <trkpt lat="48.669324" lon="10.149927">
        <ele>494.180103</ele>
        <time>2024-03-17T11:35:46.000Z</time>
      </trkpt>
      <trkpt lat="48.669156" lon="10.149890">
        <ele>494.383116</ele>
        <time>2024-03-17T11:35:48.000Z</time>
      </trkpt>
      <trkpt lat="48.668991" lon="10.149856">
        <ele>494.582247</ele>
        <time>2024-03-17T11:35:50.000Z</time>
      </trkpt>
      <trkpt lat="48.668827" lon="10.149837">
        <ele>494.778936</ele>
        <time>2024-03-17T11:35:52.000Z</time>
      </trkpt>
      <trkpt lat="48.668653" lon="10.149816">
        <ele>494.885399</ele>
        <time>2024-03-17T11:35:54.000Z</time>
      </trkpt>
      <trkpt lat="48.668483" lon="10.149790">
        <ele>494.839983</ele>
        <time>2024-03-17T11:35:56.000Z</time>
      </trkpt>
      <trkpt lat="48.668318" lon="10.149758">
        <ele>494.795768</ele>
        <time>2024-03-17T11:35:58.000Z</time>
      </trkpt>
      <trkpt lat="48.668155" lon="10.149720">
        <ele>494.751932</ele>
        <time>2024-03-17T11:36:00.000Z</time>
      </trkpt>
      <trkpt lat="48.667991" lon="10.149673">
        <ele>494.707567</ele>
        <time>2024-03-17T11:36:02.000Z</time>
      </trkpt>
      <trkpt lat="48.667827" lon="10.149629">
        <ele>494.663297</ele>
        <time>2024-03-17T11:36:04.000Z</time>
      </trkpt>
      <trkpt lat="48.667666" lon="10.149597">
        <ele>494.620137</ele>
        <time>2024-03-17T11:36:06.000Z</time>
      </trkpt>
      <trkpt lat="48.667508" lon="10.149610">
        <ele>494.578078</ele>
        <time>2024-03-17T11:36:08.000Z</time>
      </trkpt>
      <trkpt lat="48.667352" lon="10.149644">
        <ele>494.536186</ele>
        <time>2024-03-17T11:36:10.000Z</time>
      </trkpt>
      <trkpt lat="48.667199" lon="10.149729">
        <ele>494.492868</ele>
        <time>2024-03-17T11:36:12.000Z</time>
      </trkpt>
      <trkpt lat="48.667064" lon="10.149858">
        <ele>494.450437</ele>
        <time>2024-03-17T11:36:13.999Z</time>
      </trkpt>
      <trkpt lat="48.666935" lon="10.150015">
        <ele>494.353510</ele>
        <time>2024-03-17T11:36:15.999Z</time>
      </trkpt>
      <trkpt lat="48.666818" lon="10.150194">
        <ele>494.189121</ele>
        <time>2024-03-17T11:36:17.999Z</time>
      </trkpt>
      <trkpt lat="48.666702" lon="10.150373">
        <ele>494.025426</ele>
        <time>2024-03-17T11:36:19.999Z</time>
      </trkpt>
      <trkpt lat="48.666587" lon="10.150542">
        <ele>493.867034</ele>
        <time>2024-03-17T11:36:21.999Z</time>
      </trkpt>
      <trkpt lat="48.666475" lon="10.150722">
        <ele>493.705608</ele>
        <time>2024-03-17T11:36:23.999Z</time>
      </trkpt>
      <trkpt lat="48.666359" lon="10.150904">
        <ele>493.540509</ele>
        <time>2024-03-17T11:36:25.999Z</time>
      </trkpt>
      <trkpt lat="48.666254" lon="10.151091">
        <ele>493.380293</ele>
        <time>2024-03-17T11:36:27.999Z</time>
      </trkpt>
      <trkpt lat="48.666145" lon="10.151281">
        <ele>493.216014</ele>
        <time>2024-03-17T11:36:29.999Z</time>
      </trkpt>
      <trkpt lat="48.666027" lon="10.151459">
        <ele>493.051389</ele>
        <time>2024-03-17T11:36:31.999Z</time>
      </trkpt>
      <trkpt lat="48.665902" lon="10.151635">
        <ele>492.882683</ele>
        <time>2024-03-17T11:36:33.999Z</time>
      </trkpt>
      <trkpt lat="48.665772" lon="10.151811">
        <ele>492.710326</ele>
        <time>2024-03-17T11:36:35.999Z</time>
      </trkpt>
      <trkpt lat="48.665700" lon="10.151895">
        <ele>492.638374</ele>
        <time>2024-03-17T11:36:36.999Z</time>
      </trkpt>
      <trkpt lat="48.665573" lon="10.152054">
        <ele>492.580504</ele>
        <time>2024-03-17T11:36:38.999Z</time>
      </trkpt>
      <trkpt lat="48.665450" lon="10.152221">
        <ele>492.522487</ele>
        <time>2024-03-17T11:36:40.999Z</time>
      </trkpt>
      <trkpt lat="48.665320" lon="10.152369">
        <ele>492.465370</ele>
        <time>2024-03-17T11:36:42.999Z</time>
      </trkpt>
      <trkpt lat="48.665188" lon="10.152514">
        <ele>492.408101</ele>
        <time>2024-03-17T11:36:44.999Z</time>
      </trkpt>
      <trkpt lat="48.665056" lon="10.152656">
        <ele>492.351238</ele>
        <time>2024-03-17T11:36:46.999Z</time>
      </trkpt>
      <trkpt lat="48.664921" lon="10.152800">
        <ele>492.293247</ele>
        <time>2024-03-17T11:36:48.999Z</time>
      </trkpt>
      <trkpt lat="48.664784" lon="10.152933">
        <ele>492.236097</ele>
        <time>2024-03-17T11:36:50.999Z</time>
      </trkpt>
      <trkpt lat="48.664646" lon="10.153059">
        <ele>492.179506</ele>
        <time>2024-03-17T11:36:52.999Z</time>
      </trkpt>
      <trkpt lat="48.664506" lon="10.153191">
        <ele>492.121589</ele>
        <time>2024-03-17T11:36:54.999Z</time>
      </trkpt>
      <trkpt lat="48.664368" lon="10.153321">
        <ele>492.064514</ele>
        <time>2024-03-17T11:36:56.999Z</time>
      </trkpt>
      <trkpt lat="48.664225" lon="10.153447">
        <ele>491.991116</ele>
        <time>2024-03-17T11:36:58.999Z</time>
      </trkpt>
      <trkpt lat="48.664085" lon="10.153572">
        <ele>491.848362</ele>
        <time>2024-03-17T11:37:00.999Z</time>
      </trkpt>
      <trkpt lat="48.663952" lon="10.153688">
        <ele>491.713549</ele>
        <time>2024-03-17T11:37:02.999Z</time>
      </trkpt>
      <trkpt lat="48.663817" lon="10.153814">
        <ele>491.574256</ele>
        <time>2024-03-17T11:37:04.999Z</time>
      </trkpt>
      <trkpt lat="48.663683" lon="10.153941">
        <ele>491.435403</ele>
        <time>2024-03-17T11:37:06.999Z</time>
      </trkpt>
      <trkpt lat="48.663542" lon="10.154067">
        <ele>491.291598</ele>
        <time>2024-03-17T11:37:08.999Z</time>
      </trkpt>
      <trkpt lat="48.663402" lon="10.154188">
        <ele>491.150008</ele>
        <time>2024-03-17T11:37:10.999Z</time>
      </trkpt>
      <trkpt lat="48.663255" lon="10.154295">
        <ele>491.006749</ele>
        <time>2024-03-17T11:37:12.999Z</time>
      </trkpt>
      <trkpt lat="48.663118" lon="10.154423">
        <ele>490.865351</ele>
        <time>2024-03-17T11:37:14.999Z</time>
      </trkpt>
      <trkpt lat="48.662988" lon="10.154568">
        <ele>490.723530</ele>
        <time>2024-03-17T11:37:16.999Z</time>
      </trkpt>
      <trkpt lat="48.662849" lon="10.154701">
        <ele>490.579106</ele>
        <time>2024-03-17T11:37:18.999Z</time>
      </trkpt>
      <trkpt lat="48.662715" lon="10.154830">
        <ele>490.439633</ele>
        <time>2024-03-17T11:37:20.999Z</time>
      </trkpt>
      <trkpt lat="48.662577" lon="10.154958">
        <ele>490.276327</ele>
        <time>2024-03-17T11:37:22.999Z</time>
      </trkpt>
      <trkpt lat="48.662438" lon="10.155093">
        <ele>490.109250</ele>
        <time>2024-03-17T11:37:24.999Z</time>
      </trkpt>
      <trkpt lat="48.662301" lon="10.155220">
        <ele>489.946727</ele>
        <time>2024-03-17T11:37:26.999Z</time>
      </trkpt>
      <trkpt lat="48.662168" lon="10.155356">
        <ele>489.784353</ele>
        <time>2024-03-17T11:37:28.999Z</time>
      </trkpt>
      <trkpt lat="48.662022" lon="10.155488">
        <ele>489.612309</ele>
        <time>2024-03-17T11:37:31.000Z</time>
      </trkpt>
      <trkpt lat="48.661881" lon="10.155611">
        <ele>489.447671</ele>
        <time>2024-03-17T11:37:33.000Z</time>
      </trkpt>
      <trkpt lat="48.661736" lon="10.155728">
        <ele>489.281438</ele>
        <time>2024-03-17T11:37:35.000Z</time>
      </trkpt>
      <trkpt lat="48.661587" lon="10.155830">
        <ele>489.115998</ele>
        <time>2024-03-17T11:37:37.000Z</time>
      </trkpt>
      <trkpt lat="48.661432" lon="10.155929">
        <ele>488.945798</ele>
        <time>2024-03-17T11:37:39.000Z</time>
      </trkpt>
      <trkpt lat="48.661280" lon="10.156041">
        <ele>488.774770</ele>
        <time>2024-03-17T11:37:41.000Z</time>
      </trkpt>
      <trkpt lat="48.661127" lon="10.156148">
        <ele>488.618923</ele>
        <time>2024-03-17T11:37:43.000Z</time>
      </trkpt>
      <trkpt lat="48.660969" lon="10.156245">
        <ele>488.643604</ele>
        <time>2024-03-17T11:37:45.000Z</time>
      </trkpt>
      <trkpt lat="48.660808" lon="10.156338">
        <ele>488.668549</ele>
        <time>2024-03-17T11:37:47.000Z</time>
      </trkpt>
      <trkpt lat="48.660648" lon="10.156425">
        <ele>488.693158</ele>
        <time>2024-03-17T11:37:49.000Z</time>
      </trkpt>
      <trkpt lat="48.660487" lon="10.156513">
        <ele>488.717937</ele>
        <time>2024-03-17T11:37:51.000Z</time>
      </trkpt>
      <trkpt lat="48.660332" lon="10.156607">
        <ele>488.742108</ele>
        <time>2024-03-17T11:37:53.000Z</time>
      </trkpt>
      <trkpt lat="48.660178" lon="10.156722">
        <ele>488.766965</ele>
        <time>2024-03-17T11:37:55.000Z</time>
      </trkpt>
      <trkpt lat="48.660031" lon="10.156843">
        <ele>488.791186</ele>
        <time>2024-03-17T11:37:57.000Z</time>
      </trkpt>
      <trkpt lat="48.659884" lon="10.156981">
        <ele>488.816224</ele>
        <time>2024-03-17T11:37:59.000Z</time>
      </trkpt>
      <trkpt lat="48.659748" lon="10.157129">
        <ele>488.840470</ele>
        <time>2024-03-17T11:38:01.000Z</time>
      </trkpt>
      <trkpt lat="48.659612" lon="10.157280">
        <ele>488.864884</ele>
        <time>2024-03-17T11:38:03.000Z</time>
      </trkpt>
      <trkpt lat="48.659477" lon="10.157429">
        <ele>488.904520</ele>
        <time>2024-03-17T11:38:05.000Z</time>
      </trkpt>
      <trkpt lat="48.659345" lon="10.157578">
        <ele>488.960071</ele>
        <time>2024-03-17T11:38:07.000Z</time>
      </trkpt>
      <trkpt lat="48.659194" lon="10.157689">
        <ele>489.016704</ele>
        <time>2024-03-17T11:38:09.000Z</time>
      </trkpt>
      <trkpt lat="48.659041" lon="10.157770">
        <ele>489.071389</ele>
        <time>2024-03-17T11:38:11.000Z</time>
      </trkpt>
      <trkpt lat="48.658882" lon="10.157821">
        <ele>489.126223</ele>
        <time>2024-03-17T11:38:13.000Z</time>
      </trkpt>
      <trkpt lat="48.658728" lon="10.157840">
        <ele>489.178353</ele>
        <time>2024-03-17T11:38:15.000Z</time>
      </trkpt>
      <trkpt lat="48.658560" lon="10.157859">
        <ele>489.235191</ele>
        <time>2024-03-17T11:38:17.000Z</time>
      </trkpt>
      <trkpt lat="48.658400" lon="10.157880">
        <ele>489.289375</ele>
        <time>2024-03-17T11:38:19.000Z</time>
      </trkpt>
      <trkpt lat="48.658241" lon="10.157900">
        <ele>489.343203</ele>
        <time>2024-03-17T11:38:21.000Z</time>
      </trkpt>
      <trkpt lat="48.658076" lon="10.157912">
        <ele>489.398936</ele>
        <time>2024-03-17T11:38:22.999Z</time>
      </trkpt>
      <trkpt lat="48.657911" lon="10.157937">
        <ele>489.454882</ele>
        <time>2024-03-17T11:38:24.999Z</time>
      </trkpt>
      <trkpt lat="48.657749" lon="10.157943">
        <ele>489.482862</ele>
        <time>2024-03-17T11:38:26.999Z</time>
      </trkpt>
      <trkpt lat="48.657589" lon="10.157950">
        <ele>489.479815</ele>
        <time>2024-03-17T11:38:28.999Z</time>
      </trkpt>
      <trkpt lat="48.657433" lon="10.157972">
        <ele>489.476833</ele>
        <time>2024-03-17T11:38:30.999Z</time>
      </trkpt>
      <trkpt lat="48.657273" lon="10.157985">
        <ele>489.473783</ele>
        <time>2024-03-17T11:38:32.999Z</time>
      </trkpt>
      <trkpt lat="48.657111" lon="10.157997">
        <ele>489.470696</ele>
        <time>2024-03-17T11:38:34.999Z</time>
      </trkpt>
      <trkpt lat="48.656946" lon="10.158038">
        <ele>489.467513</ele>
        <time>2024-03-17T11:38:36.999Z</time>
      </trkpt>
      <trkpt lat="48.656783" lon="10.158095">
        <ele>489.464329</ele>
        <time>2024-03-17T11:38:38.999Z</time>
      </trkpt>
      <trkpt lat="48.656633" lon="10.158162">
        <ele>489.461352</ele>
        <time>2024-03-17T11:38:40.999Z</time>
      </trkpt>
      <trkpt lat="48.656470" lon="10.158207">
        <ele>489.458199</ele>
        <time>2024-03-17T11:38:42.999Z</time>
      </trkpt>
      <trkpt lat="48.656310" lon="10.158273">
        <ele>489.455042</ele>
        <time>2024-03-17T11:38:44.999Z</time>
      </trkpt>
      <trkpt lat="48.656156" lon="10.158332">
        <ele>489.452019</ele>
        <time>2024-03-17T11:38:46.999Z</time>
      </trkpt>
      <trkpt lat="48.656012" lon="10.158395">
        <ele>489.437919</ele>
        <time>2024-03-17T11:38:48.999Z</time>
      </trkpt>
      <trkpt lat="48.655916" lon="10.158439">
        <ele>489.411790</ele>
        <time>2024-03-17T11:38:50.999Z</time>
      </trkpt>
      <trkpt lat="48.655651" lon="10.158571">
        <ele>489.339117</ele>
        <time>2024-03-17T11:39:28.999Z</time>
      </trkpt>
      <trkpt lat="48.655516" lon="10.158623">
        <ele>489.302830</ele>
        <time>2024-03-17T11:39:30.999Z</time>
      </trkpt>
      <trkpt lat="48.655372" lon="10.158653">
        <ele>489.264965</ele>
        <time>2024-03-17T11:39:32.999Z</time>
      </trkpt>
      <trkpt lat="48.655229" lon="10.158665">
        <ele>489.227656</ele>
        <time>2024-03-17T11:39:34.999Z</time>
      </trkpt>
      <trkpt lat="48.655077" lon="10.158659">
        <ele>489.188047</ele>
        <time>2024-03-17T11:39:37.000Z</time>
      </trkpt>
      <trkpt lat="48.654925" lon="10.158646">
        <ele>489.148389</ele>
        <time>2024-03-17T11:39:39.000Z</time>
      </trkpt>
      <trkpt lat="48.654765" lon="10.158613">
        <ele>489.106324</ele>
        <time>2024-03-17T11:39:41.000Z</time>
      </trkpt>
      <trkpt lat="48.654611" lon="10.158587">
        <ele>489.065959</ele>
        <time>2024-03-17T11:39:43.000Z</time>
      </trkpt>
      <trkpt lat="48.654458" lon="10.158565">
        <ele>489.025923</ele>
        <time>2024-03-17T11:39:45.000Z</time>
      </trkpt>
      <trkpt lat="48.654309" lon="10.158539">
        <ele>488.986852</ele>
        <time>2024-03-17T11:39:47.000Z</time>
      </trkpt>
      <trkpt lat="48.654156" lon="10.158504">
        <ele>488.912334</ele>
        <time>2024-03-17T11:39:49.000Z</time>
      </trkpt>
      <trkpt lat="48.654006" lon="10.158470">
        <ele>488.834170</ele>
        <time>2024-03-17T11:39:51.000Z</time>
      </trkpt>
      <trkpt lat="48.653851" lon="10.158437">
        <ele>488.753504</ele>
        <time>2024-03-17T11:39:53.000Z</time>
      </trkpt>
      <trkpt lat="48.653697" lon="10.158419">
        <ele>488.673904</ele>
        <time>2024-03-17T11:39:55.000Z</time>
      </trkpt>
      <trkpt lat="48.653541" lon="10.158406">
        <ele>488.593388</ele>
        <time>2024-03-17T11:39:57.000Z</time>
      </trkpt>
      <trkpt lat="48.653383" lon="10.158388">
        <ele>488.511732</ele>
        <time>2024-03-17T11:39:59.000Z</time>
      </trkpt>
      <trkpt lat="48.653232" lon="10.158395">
        <ele>488.433878</ele>
        <time>2024-03-17T11:40:01.000Z</time>
      </trkpt>
      <trkpt lat="48.653076" lon="10.158406">
        <ele>488.353396</ele>
        <time>2024-03-17T11:40:03.000Z</time>
      </trkpt>
      <trkpt lat="48.652915" lon="10.158415">
        <ele>488.270368</ele>
        <time>2024-03-17T11:40:05.000Z</time>
      </trkpt>
      <trkpt lat="48.652761" lon="10.158426">
        <ele>488.190916</ele>
        <time>2024-03-17T11:40:07.000Z</time>
      </trkpt>
      <trkpt lat="48.652612" lon="10.158448">
        <ele>488.113764</ele>
        <time>2024-03-17T11:40:09.000Z</time>
      </trkpt>
      <trkpt lat="48.652466" lon="10.158468">
        <ele>488.175195</ele>
        <time>2024-03-17T11:40:11.000Z</time>
      </trkpt>
      <trkpt lat="48.652317" lon="10.158504">
        <ele>488.748340</ele>
        <time>2024-03-17T11:40:13.000Z</time>
      </trkpt>
      <trkpt lat="48.652163" lon="10.158539">
        <ele>489.339869</ele>
        <time>2024-03-17T11:40:15.000Z</time>
      </trkpt>
      <trkpt lat="48.652006" lon="10.158566">
        <ele>489.940074</ele>
        <time>2024-03-17T11:40:17.000Z</time>
      </trkpt>
      <trkpt lat="48.651835" lon="10.158594">
        <ele>490.593410</ele>
        <time>2024-03-17T11:40:19.000Z</time>
      </trkpt>
      <trkpt lat="48.651746" lon="10.158623">
        <ele>490.939223</ele>
        <time>2024-03-17T11:40:20.000Z</time>
      </trkpt>
      <trkpt lat="48.651591" lon="10.158670">
        <ele>491.539691</ele>
        <time>2024-03-17T11:40:22.000Z</time>
      </trkpt>
      <trkpt lat="48.651501" lon="10.158694">
        <ele>491.886823</ele>
        <time>2024-03-17T11:40:23.000Z</time>
      </trkpt>
      <trkpt lat="48.651358" lon="10.158763">
        <ele>492.456942</ele>
        <time>2024-03-17T11:40:25.000Z</time>
      </trkpt>
      <trkpt lat="48.651208" lon="10.158821">
        <ele>493.045016</ele>
        <time>2024-03-17T11:40:27.000Z</time>
      </trkpt>
      <trkpt lat="48.651069" lon="10.158891">
        <ele>493.601466</ele>
        <time>2024-03-17T11:40:29.000Z</time>
      </trkpt>
      <trkpt lat="48.650922" lon="10.158992">
        <ele>494.214680</ele>
        <time>2024-03-17T11:40:31.000Z</time>
      </trkpt>
      <trkpt lat="48.650787" lon="10.159085">
        <ele>494.778090</ele>
        <time>2024-03-17T11:40:33.000Z</time>
      </trkpt>
      <trkpt lat="48.650648" lon="10.159155">
        <ele>494.517600</ele>
        <time>2024-03-17T11:40:34.999Z</time>
      </trkpt>
      <trkpt lat="48.650515" lon="10.159228">
        <ele>494.074545</ele>
        <time>2024-03-17T11:40:36.999Z</time>
      </trkpt>
      <trkpt lat="48.650375" lon="10.159305">
        <ele>493.608060</ele>
        <time>2024-03-17T11:40:38.999Z</time>
      </trkpt>
      <trkpt lat="48.650233" lon="10.159364">
        <ele>493.146908</ele>
        <time>2024-03-17T11:40:40.999Z</time>
      </trkpt>
      <trkpt lat="48.650095" lon="10.159415">
        <ele>492.702038</ele>
        <time>2024-03-17T11:40:42.999Z</time>
      </trkpt>
      <trkpt lat="48.649946" lon="10.159463">
        <ele>492.224963</ele>
        <time>2024-03-17T11:40:44.999Z</time>
      </trkpt>
      <trkpt lat="48.649806" lon="10.159528">
        <ele>491.766362</ele>
        <time>2024-03-17T11:40:46.999Z</time>
      </trkpt>
      <trkpt lat="48.649653" lon="10.159589">
        <ele>491.270868</ele>
        <time>2024-03-17T11:40:48.999Z</time>
      </trkpt>
      <trkpt lat="48.649507" lon="10.159652">
        <ele>490.795423</ele>
        <time>2024-03-17T11:40:50.999Z</time>
      </trkpt>
      <trkpt lat="48.649356" lon="10.159704">
        <ele>490.310451</ele>
        <time>2024-03-17T11:40:52.999Z</time>
      </trkpt>
      <trkpt lat="48.649208" lon="10.159751">
        <ele>489.836867</ele>
        <time>2024-03-17T11:40:54.999Z</time>
      </trkpt>
      <trkpt lat="48.649055" lon="10.159805">
        <ele>489.344863</ele>
        <time>2024-03-17T11:40:56.999Z</time>
      </trkpt>
      <trkpt lat="48.648908" lon="10.159871">
        <ele>488.976833</ele>
        <time>2024-03-17T11:40:58.999Z</time>
      </trkpt>
      <trkpt lat="48.648770" lon="10.159950">
        <ele>488.647908</ele>
        <time>2024-03-17T11:41:00.999Z</time>
      </trkpt>
      <trkpt lat="48.648624" lon="10.160041">
        <ele>488.295900</ele>
        <time>2024-03-17T11:41:02.999Z</time>
      </trkpt>
      <trkpt lat="48.648476" lon="10.160078">
        <ele>487.961480</ele>
        <time>2024-03-17T11:41:04.999Z</time>
      </trkpt>
      <trkpt lat="48.648330" lon="10.160130">
        <ele>487.627099</ele>
        <time>2024-03-17T11:41:06.999Z</time>
      </trkpt>
      <trkpt lat="48.648174" lon="10.160179">
        <ele>487.271904</ele>
        <time>2024-03-17T11:41:08.999Z</time>
      </trkpt>
      <trkpt lat="48.648022" lon="10.160224">
        <ele>486.926615</ele>
        <time>2024-03-17T11:41:10.999Z</time>
      </trkpt>
      <trkpt lat="48.647873" lon="10.160269">
        <ele>486.587887</ele>
        <time>2024-03-17T11:41:12.999Z</time>
      </trkpt>
      <trkpt lat="48.647726" lon="10.160306">
        <ele>486.255666</ele>
        <time>2024-03-17T11:41:14.999Z</time>
      </trkpt>
      <trkpt lat="48.647577" lon="10.160342">
        <ele>485.919281</ele>
        <time>2024-03-17T11:41:16.999Z</time>
      </trkpt>
      <trkpt lat="48.647429" lon="10.160380">
        <ele>485.584617</ele>
        <time>2024-03-17T11:41:18.999Z</time>
      </trkpt>
      <trkpt lat="48.647281" lon="10.160404">
        <ele>485.252779</ele>
        <time>2024-03-17T11:41:20.999Z</time>
      </trkpt>
      <trkpt lat="48.647127" lon="10.160270">
        <ele>485.013546</ele>
        <time>2024-03-17T11:41:22.999Z</time>
      </trkpt>
      <trkpt lat="48.646983" lon="10.160297">
        <ele>484.821010</ele>
        <time>2024-03-17T11:41:24.999Z</time>
      </trkpt>
      <trkpt lat="48.646842" lon="10.160321">
        <ele>484.632736</ele>
        <time>2024-03-17T11:41:26.999Z</time>
      </trkpt>
      <trkpt lat="48.646696" lon="10.160343">
        <ele>484.438049</ele>
        <time>2024-03-17T11:41:28.999Z</time>
      </trkpt>
      <trkpt lat="48.646548" lon="10.160364">
        <ele>484.240805</ele>
        <time>2024-03-17T11:41:30.999Z</time>
      </trkpt>
      <trkpt lat="48.646398" lon="10.160385">
        <ele>484.040919</ele>
        <time>2024-03-17T11:41:32.999Z</time>
      </trkpt>
      <trkpt lat="48.646247" lon="10.160410">
        <ele>483.839360</ele>
        <time>2024-03-17T11:41:34.999Z</time>
      </trkpt>
      <trkpt lat="48.646098" lon="10.160434">
        <ele>483.640533</ele>
        <time>2024-03-17T11:41:36.999Z</time>
      </trkpt>
      <trkpt lat="48.645954" lon="10.160453">
        <ele>483.448733</ele>
        <time>2024-03-17T11:41:38.999Z</time>
      </trkpt>
      <trkpt lat="48.645799" lon="10.160469">
        <ele>483.242584</ele>
        <time>2024-03-17T11:41:40.999Z</time>
      </trkpt>
      <trkpt lat="48.645653" lon="10.160478">
        <ele>483.048694</ele>
        <time>2024-03-17T11:41:43.000Z</time>
      </trkpt>
      <trkpt lat="48.645509" lon="10.160473">
        <ele>482.857568</ele>
        <time>2024-03-17T11:41:45.000Z</time>
      </trkpt>
      <trkpt lat="48.645375" lon="10.160446">
        <ele>482.769676</ele>
        <time>2024-03-17T11:41:47.000Z</time>
      </trkpt>
      <trkpt lat="48.645244" lon="10.160410">
        <ele>482.683184</ele>
        <time>2024-03-17T11:41:49.000Z</time>
      </trkpt>
      <trkpt lat="48.645130" lon="10.160360">
        <ele>482.606079</ele>
        <time>2024-03-17T11:41:51.000Z</time>
      </trkpt>
      <trkpt lat="48.645007" lon="10.160294">
        <ele>482.521302</ele>
        <time>2024-03-17T11:41:53.000Z</time>
      </trkpt>
      <trkpt lat="48.644884" lon="10.160213">
        <ele>482.434162</ele>
        <time>2024-03-17T11:41:55.000Z</time>
      </trkpt>
      <trkpt lat="48.644772" lon="10.160125">
        <ele>482.352183</ele>
        <time>2024-03-17T11:41:57.000Z</time>
      </trkpt>
      <trkpt lat="48.644665" lon="10.160024">
        <ele>482.270262</ele>
        <time>2024-03-17T11:41:59.000Z</time>
      </trkpt>
      <trkpt lat="48.644553" lon="10.159903">
        <ele>482.180869</ele>
        <time>2024-03-17T11:42:01.000Z</time>
      </trkpt>
      <trkpt lat="48.644452" lon="10.159771">
        <ele>482.094179</ele>
        <time>2024-03-17T11:42:03.000Z</time>
      </trkpt>
      <trkpt lat="48.644359" lon="10.159626">
        <ele>482.007440</ele>
        <time>2024-03-17T11:42:05.000Z</time>
      </trkpt>
      <trkpt lat="48.644265" lon="10.159460">
        <ele>481.913601</ele>
        <time>2024-03-17T11:42:07.000Z</time>
      </trkpt>
      <trkpt lat="48.644181" lon="10.159294">
        <ele>481.823853</ele>
        <time>2024-03-17T11:42:09.000Z</time>
      </trkpt>
      <trkpt lat="48.644110" lon="10.159124">
        <ele>481.737529</ele>
        <time>2024-03-17T11:42:11.000Z</time>
      </trkpt>
      <trkpt lat="48.644044" lon="10.158927">
        <ele>481.699968</ele>
        <time>2024-03-17T11:42:13.000Z</time>
      </trkpt>
      <trkpt lat="48.643891" lon="10.158792">
        <ele>481.727312</ele>
        <time>2024-03-17T11:42:15.000Z</time>
      </trkpt>
      <trkpt lat="48.643829" lon="10.158588">
        <ele>481.750218</ele>
        <time>2024-03-17T11:42:17.000Z</time>
      </trkpt>
      <trkpt lat="48.643776" lon="10.158380">
        <ele>481.772960</ele>
        <time>2024-03-17T11:42:19.000Z</time>
      </trkpt>
      <trkpt lat="48.643725" lon="10.158185">
        <ele>481.794355</ele>
        <time>2024-03-17T11:42:21.000Z</time>
      </trkpt>
      <trkpt lat="48.643845" lon="10.158037">
        <ele>481.818255</ele>
        <time>2024-03-17T11:42:22.000Z</time>
      </trkpt>
      <trkpt lat="48.643609" lon="10.158069">
        <ele>481.854837</ele>
        <time>2024-03-17T11:42:23.000Z</time>
      </trkpt>
      <trkpt lat="48.643455" lon="10.158080">
        <ele>481.878640</ele>
        <time>2024-03-17T11:42:25.000Z</time>
      </trkpt>
      <trkpt lat="48.643313" lon="10.158084">
        <ele>481.900568</ele>
        <time>2024-03-17T11:42:27.000Z</time>
      </trkpt>
      <trkpt lat="48.643156" lon="10.158073">
        <ele>481.924833</ele>
        <time>2024-03-17T11:42:29.000Z</time>
      </trkpt>
      <trkpt lat="48.643004" lon="10.158029">
        <ele>481.948727</ele>
        <time>2024-03-17T11:42:31.000Z</time>
      </trkpt>
      <trkpt lat="48.642863" lon="10.157951">
        <ele>481.960901</ele>
        <time>2024-03-17T11:42:33.000Z</time>
      </trkpt>
      <trkpt lat="48.642725" lon="10.157879">
        <ele>481.936035</ele>
        <time>2024-03-17T11:42:35.000Z</time>
      </trkpt>
      <trkpt lat="48.642589" lon="10.157815">
        <ele>481.911773</ele>
        <time>2024-03-17T11:42:37.000Z</time>
      </trkpt>
      <trkpt lat="48.642447" lon="10.157771">
        <ele>481.887081</ele>
        <time>2024-03-17T11:42:39.000Z</time>
      </trkpt>
      <trkpt lat="48.642299" lon="10.157716">
        <ele>481.861120</ele>
        <time>2024-03-17T11:42:40.999Z</time>
      </trkpt>
      <trkpt lat="48.642146" lon="10.157673">
        <ele>481.834610</ele>
        <time>2024-03-17T11:42:42.999Z</time>
      </trkpt>
      <trkpt lat="48.641996" lon="10.157629">
        <ele>481.808582</ele>
        <time>2024-03-17T11:42:44.999Z</time>
      </trkpt>
      <trkpt lat="48.641843" lon="10.157607">
        <ele>481.782401</ele>
        <time>2024-03-17T11:42:46.999Z</time>
      </trkpt>
      <trkpt lat="48.641702" lon="10.157693">
        <ele>481.756504</ele>
        <time>2024-03-17T11:42:48.999Z</time>
      </trkpt>
      <trkpt lat="48.641629" lon="10.157912">
        <ele>481.728893</ele>
        <time>2024-03-17T11:42:50.999Z</time>
      </trkpt>
      <trkpt lat="48.641611" lon="10.158156">
        <ele>481.701257</ele>
        <time>2024-03-17T11:42:52.999Z</time>
      </trkpt>
      <trkpt lat="48.641606" lon="10.158399">
        <ele>481.673891</ele>
        <time>2024-03-17T11:42:54.999Z</time>
      </trkpt>
      <trkpt lat="48.641613" lon="10.158635">
        <ele>481.654000</ele>
        <time>2024-03-17T11:42:56.999Z</time>
      </trkpt>
      <trkpt lat="48.641629" lon="10.158874">
        <ele>481.640927</ele>
        <time>2024-03-17T11:42:58.999Z</time>
      </trkpt>
      <trkpt lat="48.641647" lon="10.159104">
        <ele>481.628323</ele>
        <time>2024-03-17T11:43:00.999Z</time>
      </trkpt>
      <trkpt lat="48.641662" lon="10.159339">
        <ele>481.615475</ele>
        <time>2024-03-17T11:43:02.999Z</time>
      </trkpt>
      <trkpt lat="48.641674" lon="10.159577">
        <ele>481.602486</ele>
        <time>2024-03-17T11:43:04.999Z</time>
      </trkpt>
      <trkpt lat="48.641691" lon="10.159817">
        <ele>481.589351</ele>
        <time>2024-03-17T11:43:06.999Z</time>
      </trkpt>
      <trkpt lat="48.641702" lon="10.160050">
        <ele>481.576639</ele>
        <time>2024-03-17T11:43:08.999Z</time>
      </trkpt>
      <trkpt lat="48.641716" lon="10.160283">
        <ele>481.563907</ele>
        <time>2024-03-17T11:43:10.999Z</time>
      </trkpt>
      <trkpt lat="48.641728" lon="10.160521">
        <ele>481.550918</ele>
        <time>2024-03-17T11:43:12.999Z</time>
      </trkpt>
      <trkpt lat="48.641746" lon="10.160756">
        <ele>481.538044</ele>
        <time>2024-03-17T11:43:14.999Z</time>
      </trkpt>
      <trkpt lat="48.641759" lon="10.160988">
        <ele>481.525374</ele>
        <time>2024-03-17T11:43:16.999Z</time>
      </trkpt>
      <trkpt lat="48.641774" lon="10.161225">
        <ele>481.512417</ele>
        <time>2024-03-17T11:43:18.999Z</time>
      </trkpt>
      <trkpt lat="48.641790" lon="10.161464">
        <ele>481.468133</ele>
        <time>2024-03-17T11:43:20.999Z</time>
      </trkpt>
      <trkpt lat="48.641801" lon="10.161692">
        <ele>481.425346</ele>
        <time>2024-03-17T11:43:22.999Z</time>
      </trkpt>
      <trkpt lat="48.641819" lon="10.161928">
        <ele>481.380882</ele>
        <time>2024-03-17T11:43:24.999Z</time>
      </trkpt>
      <trkpt lat="48.641836" lon="10.162161">
        <ele>481.337008</ele>
        <time>2024-03-17T11:43:26.999Z</time>
      </trkpt>
      <trkpt lat="48.641849" lon="10.162389">
        <ele>481.294177</ele>
        <time>2024-03-17T11:43:28.999Z</time>
      </trkpt>
      <trkpt lat="48.641773" lon="10.162589">
        <ele>481.250996</ele>
        <time>2024-03-17T11:43:30.999Z</time>
      </trkpt>
      <trkpt lat="48.641634" lon="10.162623">
        <ele>481.211113</ele>
        <time>2024-03-17T11:43:32.999Z</time>
      </trkpt>
      <trkpt lat="48.641490" lon="10.162609">
        <ele>481.170240</ele>
        <time>2024-03-17T11:43:34.999Z</time>
      </trkpt>
      <trkpt lat="48.641346" lon="10.162605">
        <ele>481.129445</ele>
        <time>2024-03-17T11:43:36.999Z</time>
      </trkpt>
      <trkpt lat="48.641204" lon="10.162599">
        <ele>481.089208</ele>
        <time>2024-03-17T11:43:38.999Z</time>
      </trkpt>
      <trkpt lat="48.641056" lon="10.162585">
        <ele>481.047204</ele>
        <time>2024-03-17T11:43:40.999Z</time>
      </trkpt>
      <trkpt lat="48.640905" lon="10.162568">
        <ele>481.004315</ele>
        <time>2024-03-17T11:43:42.999Z</time>
      </trkpt>
      <trkpt lat="48.640753" lon="10.162558">
        <ele>480.947648</ele>
        <time>2024-03-17T11:43:44.999Z</time>
      </trkpt>
      <trkpt lat="48.640599" lon="10.162552">
        <ele>480.889724</ele>
        <time>2024-03-17T11:43:46.999Z</time>
      </trkpt>
      <trkpt lat="48.640449" lon="10.162549">
        <ele>480.833320</ele>
        <time>2024-03-17T11:43:49.000Z</time>
      </trkpt>
      <trkpt lat="48.640294" lon="10.162541">
        <ele>480.775006</ele>
        <time>2024-03-17T11:43:51.000Z</time>
      </trkpt>
      <trkpt lat="48.640135" lon="10.162532">
        <ele>480.715180</ele>
        <time>2024-03-17T11:43:53.000Z</time>
      </trkpt>
      <trkpt lat="48.639980" lon="10.162519">
        <ele>480.656811</ele>
        <time>2024-03-17T11:43:55.000Z</time>
      </trkpt>
      <trkpt lat="48.639820" lon="10.162502">
        <ele>480.596502</ele>
        <time>2024-03-17T11:43:57.000Z</time>
      </trkpt>
      <trkpt lat="48.639655" lon="10.162486">
        <ele>480.534335</ele>
        <time>2024-03-17T11:43:59.000Z</time>
      </trkpt>
      <trkpt lat="48.639500" lon="10.162471">
        <ele>480.475936</ele>
        <time>2024-03-17T11:44:01.000Z</time>
      </trkpt>
      <trkpt lat="48.639342" lon="10.162451">
        <ele>480.416321</ele>
        <time>2024-03-17T11:44:03.000Z</time>
      </trkpt>
      <trkpt lat="48.639182" lon="10.162438">
        <ele>480.356074</ele>
        <time>2024-03-17T11:44:05.000Z</time>
      </trkpt>
      <trkpt lat="48.639018" lon="10.162421">
        <ele>480.294220</ele>
        <time>2024-03-17T11:44:07.000Z</time>
      </trkpt>
      <trkpt lat="48.638860" lon="10.162399">
        <ele>480.234475</ele>
        <time>2024-03-17T11:44:09.000Z</time>
      </trkpt>
      <trkpt lat="48.638704" lon="10.162382">
        <ele>480.175583</ele>
        <time>2024-03-17T11:44:11.000Z</time>
      </trkpt>
      <trkpt lat="48.638545" lon="10.162369">
        <ele>480.115626</ele>
        <time>2024-03-17T11:44:13.000Z</time>
      </trkpt>
      <trkpt lat="48.638390" lon="10.162344">
        <ele>480.056932</ele>
        <time>2024-03-17T11:44:15.000Z</time>
      </trkpt>
      <trkpt lat="48.638234" lon="10.162319">
        <ele>479.997864</ele>
        <time>2024-03-17T11:44:17.000Z</time>
      </trkpt>
      <trkpt lat="48.638073" lon="10.162301">
        <ele>479.937076</ele>
        <time>2024-03-17T11:44:19.000Z</time>
      </trkpt>
      <trkpt lat="48.637913" lon="10.162283">
        <ele>479.876663</ele>
        <time>2024-03-17T11:44:21.000Z</time>
      </trkpt>
      <trkpt lat="48.637755" lon="10.162254">
        <ele>479.816734</ele>
        <time>2024-03-17T11:44:23.000Z</time>
      </trkpt>
      <trkpt lat="48.637597" lon="10.162230">
        <ele>479.756942</ele>
        <time>2024-03-17T11:44:25.000Z</time>
      </trkpt>
      <trkpt lat="48.637435" lon="10.162208">
        <ele>479.695698</ele>
        <time>2024-03-17T11:44:27.000Z</time>
      </trkpt>
      <trkpt lat="48.637273" lon="10.162185">
        <ele>479.636722</ele>
        <time>2024-03-17T11:44:29.000Z</time>
      </trkpt>
      <trkpt lat="48.637109" lon="10.162164">
        <ele>479.584414</ele>
        <time>2024-03-17T11:44:31.000Z</time>
      </trkpt>
      <trkpt lat="48.636941" lon="10.162125">
        <ele>479.530397</ele>
        <time>2024-03-17T11:44:33.000Z</time>
      </trkpt>
      <trkpt lat="48.636785" lon="10.162116">
        <ele>479.480782</ele>
        <time>2024-03-17T11:44:35.000Z</time>
      </trkpt>
      <trkpt lat="48.636617" lon="10.162106">
        <ele>479.427348</ele>
        <time>2024-03-17T11:44:37.000Z</time>
      </trkpt>
      <trkpt lat="48.636458" lon="10.162080">
        <ele>479.376521</ele>
        <time>2024-03-17T11:44:38.999Z</time>
      </trkpt>
      <trkpt lat="48.636292" lon="10.162053">
        <ele>479.323460</ele>
        <time>2024-03-17T11:44:40.999Z</time>
      </trkpt>
      <trkpt lat="48.636125" lon="10.162035">
        <ele>479.270251</ele>
        <time>2024-03-17T11:44:42.999Z</time>
      </trkpt>
      <trkpt lat="48.635961" lon="10.162016">
        <ele>479.217977</ele>
        <time>2024-03-17T11:44:44.999Z</time>
      </trkpt>
      <trkpt lat="48.635802" lon="10.161996">
        <ele>479.167270</ele>
        <time>2024-03-17T11:44:46.999Z</time>
      </trkpt>
      <trkpt lat="48.635643" lon="10.161969">
        <ele>479.116420</ele>
        <time>2024-03-17T11:44:48.999Z</time>
      </trkpt>
      <trkpt lat="48.635486" lon="10.161945">
        <ele>479.063223</ele>
        <time>2024-03-17T11:44:50.999Z</time>
      </trkpt>
      <trkpt lat="48.635331" lon="10.161924">
        <ele>479.000335</ele>
        <time>2024-03-17T11:44:52.999Z</time>
      </trkpt>
      <trkpt lat="48.635175" lon="10.161896">
        <ele>478.936852</ele>
        <time>2024-03-17T11:44:54.999Z</time>
      </trkpt>
      <trkpt lat="48.635019" lon="10.161863">
        <ele>478.873197</ele>
        <time>2024-03-17T11:44:56.999Z</time>
      </trkpt>
      <trkpt lat="48.634861" lon="10.161829">
        <ele>478.808705</ele>
        <time>2024-03-17T11:44:58.999Z</time>
      </trkpt>
      <trkpt lat="48.634708" lon="10.161786">
        <ele>478.745819</ele>
        <time>2024-03-17T11:45:00.999Z</time>
      </trkpt>
      <trkpt lat="48.634551" lon="10.161745">
        <ele>478.681435</ele>
        <time>2024-03-17T11:45:02.999Z</time>
      </trkpt>
      <trkpt lat="48.634400" lon="10.161700">
        <ele>478.619242</ele>
        <time>2024-03-17T11:45:04.999Z</time>
      </trkpt>
      <trkpt lat="48.634245" lon="10.161648">
        <ele>478.555084</ele>
        <time>2024-03-17T11:45:06.999Z</time>
      </trkpt>
      <trkpt lat="48.634095" lon="10.161588">
        <ele>478.492385</ele>
        <time>2024-03-17T11:45:08.999Z</time>
      </trkpt>
      <trkpt lat="48.633960" lon="10.161523">
        <ele>478.435134</ele>
        <time>2024-03-17T11:45:10.999Z</time>
      </trkpt>
      <trkpt lat="48.633839" lon="10.161439">
        <ele>478.381336</ele>
        <time>2024-03-17T11:45:12.999Z</time>
      </trkpt>
      <trkpt lat="48.633734" lon="10.161317">
        <ele>478.414271</ele>
        <time>2024-03-17T11:45:14.999Z</time>
      </trkpt>
      <trkpt lat="48.633677" lon="10.161211">
        <ele>478.516150</ele>
        <time>2024-03-17T11:45:16.999Z</time>
      </trkpt>
      <trkpt lat="48.633565" lon="10.161404">
        <ele>478.707631</ele>
        <time>2024-03-17T11:45:18.999Z</time>
      </trkpt>
      <trkpt lat="48.633445" lon="10.161452">
        <ele>478.847649</ele>
        <time>2024-03-17T11:45:20.999Z</time>
      </trkpt>
      <trkpt lat="48.633312" lon="10.161478">
        <ele>478.998930</ele>
        <time>2024-03-17T11:45:22.999Z</time>
      </trkpt>
      <trkpt lat="48.633177" lon="10.161496">
        <ele>479.151809</ele>
        <time>2024-03-17T11:45:24.999Z</time>
      </trkpt>
      <trkpt lat="48.633043" lon="10.161520">
        <ele>479.304026</ele>
        <time>2024-03-17T11:45:26.999Z</time>
      </trkpt>
      <trkpt lat="48.632905" lon="10.161543">
        <ele>479.460641</ele>
        <time>2024-03-17T11:45:28.999Z</time>
      </trkpt>
      <trkpt lat="48.632756" lon="10.161560">
        <ele>479.629201</ele>
        <time>2024-03-17T11:45:30.999Z</time>
      </trkpt>
      <trkpt lat="48.632614" lon="10.161577">
        <ele>479.789887</ele>
        <time>2024-03-17T11:45:32.999Z</time>
      </trkpt>
      <trkpt lat="48.632475" lon="10.161620">
        <ele>479.949932</ele>
        <time>2024-03-17T11:45:34.999Z</time>
      </trkpt>
      <trkpt lat="48.632332" lon="10.161658">
        <ele>480.113715</ele>
        <time>2024-03-17T11:45:36.999Z</time>
      </trkpt>
      <trkpt lat="48.632183" lon="10.161702">
        <ele>480.284969</ele>
        <time>2024-03-17T11:45:38.999Z</time>
      </trkpt>
      <trkpt lat="48.632036" lon="10.161731">
        <ele>480.407595</ele>
        <time>2024-03-17T11:45:40.999Z</time>
      </trkpt>
      <trkpt lat="48.631885" lon="10.161761">
        <ele>480.473800</ele>
        <time>2024-03-17T11:45:42.999Z</time>
      </trkpt>
      <trkpt lat="48.631739" lon="10.161802">
        <ele>480.538351</ele>
        <time>2024-03-17T11:45:44.999Z</time>
      </trkpt>
      <trkpt lat="48.631602" lon="10.161843">
        <ele>480.599060</ele>
        <time>2024-03-17T11:45:46.999Z</time>
      </trkpt>
      <trkpt lat="48.631473" lon="10.161879">
        <ele>480.656084</ele>
        <time>2024-03-17T11:45:48.999Z</time>
      </trkpt>
      <trkpt lat="48.631347" lon="10.161894">
        <ele>480.711026</ele>
        <time>2024-03-17T11:45:50.999Z</time>
      </trkpt>
      <trkpt lat="48.631227" lon="10.161897">
        <ele>480.763199</ele>
        <time>2024-03-17T11:45:52.999Z</time>
      </trkpt>
      <trkpt lat="48.631112" lon="10.161896">
        <ele>480.813191</ele>
        <time>2024-03-17T11:45:55.000Z</time>
      </trkpt>
      <trkpt lat="48.631007" lon="10.161886">
        <ele>480.858926</ele>
        <time>2024-03-17T11:45:57.000Z</time>
      </trkpt>
      <trkpt lat="48.630914" lon="10.161867">
        <ele>480.899721</ele>
        <time>2024-03-17T11:45:59.000Z</time>
      </trkpt>
      <trkpt lat="48.630825" lon="10.161844">
        <ele>480.938971</ele>
        <time>2024-03-17T11:46:02.000Z</time>
      </trkpt>
      <trkpt lat="48.630723" lon="10.161879">
        <ele>480.984437</ele>
        <time>2024-03-17T11:46:11.000Z</time>
      </trkpt>
      <trkpt lat="48.630603" lon="10.161878">
        <ele>481.036603</ele>
        <time>2024-03-17T11:46:14.000Z</time>
      </trkpt>
      <trkpt lat="48.630495" lon="10.161884">
        <ele>481.083583</ele>
        <time>2024-03-17T11:46:16.000Z</time>
      </trkpt>
      <trkpt lat="48.630373" lon="10.161894">
        <ele>481.136696</ele>
        <time>2024-03-17T11:46:18.000Z</time>
      </trkpt>
      <trkpt lat="48.630254" lon="10.161905">
        <ele>481.131913</ele>
        <time>2024-03-17T11:46:20.000Z</time>
      </trkpt>
      <trkpt lat="48.630117" lon="10.161905">
        <ele>481.066619</ele>
        <time>2024-03-17T11:46:22.000Z</time>
      </trkpt>
      <trkpt lat="48.629978" lon="10.161915">
        <ele>481.000296</ele>
        <time>2024-03-17T11:46:24.000Z</time>
      </trkpt>
      <trkpt lat="48.629844" lon="10.161918">
        <ele>480.936425</ele>
        <time>2024-03-17T11:46:26.000Z</time>
      </trkpt>
      <trkpt lat="48.629709" lon="10.161911">
        <ele>480.872046</ele>
        <time>2024-03-17T11:46:28.000Z</time>
      </trkpt>
      <trkpt lat="48.629586" lon="10.161873">
        <ele>480.812214</ele>
        <time>2024-03-17T11:46:30.000Z</time>
      </trkpt>
      <trkpt lat="48.629495" lon="10.161745">
        <ele>480.752997</ele>
        <time>2024-03-17T11:46:32.000Z</time>
      </trkpt>
      <trkpt lat="48.629550" lon="10.161561">
        <ele>480.689385</ele>
        <time>2024-03-17T11:46:34.000Z</time>
      </trkpt>
      <trkpt lat="48.629615" lon="10.161363">
        <ele>480.619746</ele>
        <time>2024-03-17T11:46:36.000Z</time>
      </trkpt>
      <trkpt lat="48.629642" lon="10.161132">
        <ele>480.545852</ele>
        <time>2024-03-17T11:46:38.000Z</time>
      </trkpt>
      <trkpt lat="48.629632" lon="10.160896">
        <ele>480.471360</ele>
        <time>2024-03-17T11:46:40.000Z</time>
      </trkpt>
      <trkpt lat="48.629596" lon="10.160661">
        <ele>480.395373</ele>
        <time>2024-03-17T11:46:42.000Z</time>
      </trkpt>
      <trkpt lat="48.629585" lon="10.160427">
        <ele>480.321478</ele>
        <time>2024-03-17T11:46:44.000Z</time>
      </trkpt>
      <trkpt lat="48.629568" lon="10.160187">
        <ele>480.229099</ele>
        <time>2024-03-17T11:46:46.000Z</time>
      </trkpt>
      <trkpt lat="48.629542" lon="10.159951">
        <ele>480.132795</ele>
        <time>2024-03-17T11:46:47.999Z</time>
      </trkpt>
      <trkpt lat="48.629539" lon="10.159709">
        <ele>480.035370</ele>
        <time>2024-03-17T11:46:49.999Z</time>
      </trkpt>
      <trkpt lat="48.629542" lon="10.159462">
        <ele>479.935933</ele>
        <time>2024-03-17T11:46:51.999Z</time>
      </trkpt>
      <trkpt lat="48.629536" lon="10.159213">
        <ele>479.835641</ele>
        <time>2024-03-17T11:46:53.999Z</time>
      </trkpt>
      <trkpt lat="48.629530" lon="10.158952">
        <ele>479.730522</ele>
        <time>2024-03-17T11:46:55.999Z</time>
      </trkpt>
      <trkpt lat="48.629517" lon="10.158689">
        <ele>479.624365</ele>
        <time>2024-03-17T11:46:57.999Z</time>
      </trkpt>
      <trkpt lat="48.629510" lon="10.158424">
        <ele>479.517614</ele>
        <time>2024-03-17T11:46:59.999Z</time>
      </trkpt>
      <trkpt lat="48.629499" lon="10.158157">
        <ele>479.409935</ele>
        <time>2024-03-17T11:47:01.999Z</time>
      </trkpt>
      <trkpt lat="48.629489" lon="10.157899">
        <ele>479.305908</ele>
        <time>2024-03-17T11:47:03.999Z</time>
      </trkpt>
      <trkpt lat="48.629478" lon="10.157642">
        <ele>479.205909</ele>
        <time>2024-03-17T11:47:05.999Z</time>
      </trkpt>
      <trkpt lat="48.629470" lon="10.157388">
        <ele>479.160018</ele>
        <time>2024-03-17T11:47:07.999Z</time>
      </trkpt>
      <trkpt lat="48.629462" lon="10.157144">
        <ele>479.115929</ele>
        <time>2024-03-17T11:47:09.999Z</time>
      </trkpt>
      <trkpt lat="48.629458" lon="10.156917">
        <ele>479.074948</ele>
        <time>2024-03-17T11:47:11.999Z</time>
      </trkpt>
      <trkpt lat="48.629488" lon="10.156683">
        <ele>479.031931</ele>
        <time>2024-03-17T11:47:13.999Z</time>
      </trkpt>
      <trkpt lat="48.629469" lon="10.156471">
        <ele>478.993322</ele>
        <time>2024-03-17T11:47:15.999Z</time>
      </trkpt>
      <trkpt lat="48.629459" lon="10.156261">
        <ele>478.955325</ele>
        <time>2024-03-17T11:47:17.999Z</time>
      </trkpt>
      <trkpt lat="48.629453" lon="10.156082">
        <ele>478.922980</ele>
        <time>2024-03-17T11:47:19.999Z</time>
      </trkpt>
      <trkpt lat="48.629299" lon="10.155994">
        <ele>478.878031</ele>
        <time>2024-03-17T11:47:22.999Z</time>
      </trkpt>
      <trkpt lat="48.629179" lon="10.156027">
        <ele>478.844727</ele>
        <time>2024-03-17T11:47:24.999Z</time>
      </trkpt>
      <trkpt lat="48.629038" lon="10.156013">
        <ele>478.806144</ele>
        <time>2024-03-17T11:47:26.999Z</time>
      </trkpt>
      <trkpt lat="48.628895" lon="10.156024">
        <ele>478.767047</ele>
        <time>2024-03-17T11:47:28.999Z</time>
      </trkpt>
      <trkpt lat="48.628756" lon="10.156035">
        <ele>478.729041</ele>
        <time>2024-03-17T11:47:30.999Z</time>
      </trkpt>
      <trkpt lat="48.628607" lon="10.156075">
        <ele>478.720697</ele>
        <time>2024-03-17T11:47:32.999Z</time>
      </trkpt>
      <trkpt lat="48.628458" lon="10.156088">
        <ele>478.724683</ele>
        <time>2024-03-17T11:47:34.999Z</time>
      </trkpt>
      <trkpt lat="48.628309" lon="10.156094">
        <ele>478.728664</ele>
        <time>2024-03-17T11:47:36.999Z</time>
      </trkpt>
      <trkpt lat="48.628161" lon="10.156105">
        <ele>478.732622</ele>
        <time>2024-03-17T11:47:38.999Z</time>
      </trkpt>
      <trkpt lat="48.628009" lon="10.156112">
        <ele>478.736684</ele>
        <time>2024-03-17T11:47:40.999Z</time>
      </trkpt>
      <trkpt lat="48.627856" lon="10.156123">
        <ele>478.740775</ele>
        <time>2024-03-17T11:47:42.999Z</time>
      </trkpt>
      <trkpt lat="48.627706" lon="10.156141">
        <ele>478.744794</ele>
        <time>2024-03-17T11:47:44.999Z</time>
      </trkpt>
      <trkpt lat="48.627555" lon="10.156149">
        <ele>478.748829</ele>
        <time>2024-03-17T11:47:46.999Z</time>
      </trkpt>
      <trkpt lat="48.627410" lon="10.156155">
        <ele>478.752703</ele>
        <time>2024-03-17T11:47:48.999Z</time>
      </trkpt>
      <trkpt lat="48.627257" lon="10.156174">
        <ele>478.756803</ele>
        <time>2024-03-17T11:47:50.999Z</time>
      </trkpt>
      <trkpt lat="48.627104" lon="10.156199">
        <ele>478.760914</ele>
        <time>2024-03-17T11:47:52.999Z</time>
      </trkpt>
      <trkpt lat="48.626953" lon="10.156201">
        <ele>478.764947</ele>
        <time>2024-03-17T11:47:54.999Z</time>
      </trkpt>
      <trkpt lat="48.626800" lon="10.156216">
        <ele>478.757656</ele>
        <time>2024-03-17T11:47:56.999Z</time>
      </trkpt>
      <trkpt lat="48.626648" lon="10.156225">
        <ele>478.747457</ele>
        <time>2024-03-17T11:47:58.999Z</time>
      </trkpt>
      <trkpt lat="48.626498" lon="10.156240">
        <ele>478.737378</ele>
        <time>2024-03-17T11:48:01.000Z</time>
      </trkpt>
      <trkpt lat="48.626350" lon="10.156253">
        <ele>478.727438</ele>
        <time>2024-03-17T11:48:03.000Z</time>
      </trkpt>
      <trkpt lat="48.626203" lon="10.156271">
        <ele>478.717550</ele>
        <time>2024-03-17T11:48:05.000Z</time>
      </trkpt>
      <trkpt lat="48.626052" lon="10.156281">
        <ele>478.707416</ele>
        <time>2024-03-17T11:48:07.000Z</time>
      </trkpt>
      <trkpt lat="48.625906" lon="10.156288">
        <ele>478.697622</ele>
        <time>2024-03-17T11:48:09.000Z</time>
      </trkpt>
      <trkpt lat="48.625759" lon="10.156293">
        <ele>478.687763</ele>
        <time>2024-03-17T11:48:11.000Z</time>
      </trkpt>
      <trkpt lat="48.625607" lon="10.156312">
        <ele>478.677537</ele>
        <time>2024-03-17T11:48:13.000Z</time>
      </trkpt>
      <trkpt lat="48.625456" lon="10.156320">
        <ele>478.667407</ele>
        <time>2024-03-17T11:48:15.000Z</time>
      </trkpt>
      <trkpt lat="48.625304" lon="10.156324">
        <ele>478.657214</ele>
        <time>2024-03-17T11:48:17.000Z</time>
      </trkpt>
      <trkpt lat="48.625146" lon="10.156329">
        <ele>478.646618</ele>
        <time>2024-03-17T11:48:19.000Z</time>
      </trkpt>
      <trkpt lat="48.624994" lon="10.156324">
        <ele>478.579624</ele>
        <time>2024-03-17T11:48:21.000Z</time>
      </trkpt>
      <trkpt lat="48.624843" lon="10.156344">
        <ele>478.503703</ele>
        <time>2024-03-17T11:48:23.000Z</time>
      </trkpt>
      <trkpt lat="48.624687" lon="10.156353">
        <ele>478.425510</ele>
        <time>2024-03-17T11:48:25.000Z</time>
      </trkpt>
      <trkpt lat="48.624534" lon="10.156360">
        <ele>478.348841</ele>
        <time>2024-03-17T11:48:27.000Z</time>
      </trkpt>
      <trkpt lat="48.624377" lon="10.156374">
        <ele>478.270068</ele>
        <time>2024-03-17T11:48:29.000Z</time>
      </trkpt>
      <trkpt lat="48.624222" lon="10.156384">
        <ele>478.192362</ele>
        <time>2024-03-17T11:48:31.000Z</time>
      </trkpt>
      <trkpt lat="48.624069" lon="10.156398">
        <ele>478.115588</ele>
        <time>2024-03-17T11:48:33.000Z</time>
      </trkpt>
      <trkpt lat="48.623917" lon="10.156411">
        <ele>478.039334</ele>
        <time>2024-03-17T11:48:35.000Z</time>
      </trkpt>
      <trkpt lat="48.623755" lon="10.156421">
        <ele>477.958125</ele>
        <time>2024-03-17T11:48:37.000Z</time>
      </trkpt>
      <trkpt lat="48.623606" lon="10.156429">
        <ele>477.883448</ele>
        <time>2024-03-17T11:48:39.000Z</time>
      </trkpt>
      <trkpt lat="48.623451" lon="10.156441">
        <ele>477.805711</ele>
        <time>2024-03-17T11:48:41.000Z</time>
      </trkpt>
      <trkpt lat="48.623301" lon="10.156447">
        <ele>477.746056</ele>
        <time>2024-03-17T11:48:43.000Z</time>
      </trkpt>
      <trkpt lat="48.623151" lon="10.156458">
        <ele>477.755607</ele>
        <time>2024-03-17T11:48:45.000Z</time>
      </trkpt>
      <trkpt lat="48.623001" lon="10.156468">
        <ele>477.765156</ele>
        <time>2024-03-17T11:48:47.000Z</time>
      </trkpt>
      <trkpt lat="48.622852" lon="10.156476">
        <ele>477.774638</ele>
        <time>2024-03-17T11:48:49.000Z</time>
      </trkpt>
      <trkpt lat="48.622704" lon="10.156485">
        <ele>477.784058</ele>
        <time>2024-03-17T11:48:50.999Z</time>
      </trkpt>
      <trkpt lat="48.622556" lon="10.156504">
        <ele>477.793504</ele>
        <time>2024-03-17T11:48:52.999Z</time>
      </trkpt>
      <trkpt lat="48.622413" lon="10.156511">
        <ele>477.802603</ele>
        <time>2024-03-17T11:48:54.999Z</time>
      </trkpt>
      <trkpt lat="48.622267" lon="10.156516">
        <ele>477.811891</ele>
        <time>2024-03-17T11:48:56.999Z</time>
      </trkpt>
      <trkpt lat="48.622118" lon="10.156529">
        <ele>477.821382</ele>
        <time>2024-03-17T11:48:58.999Z</time>
      </trkpt>
      <trkpt lat="48.621968" lon="10.156544">
        <ele>477.830943</ele>
        <time>2024-03-17T11:49:00.999Z</time>
      </trkpt>
      <trkpt lat="48.621815" lon="10.156547">
        <ele>477.840674</ele>
        <time>2024-03-17T11:49:02.999Z</time>
      </trkpt>
      <trkpt lat="48.621665" lon="10.156565">
        <ele>477.850243</ele>
        <time>2024-03-17T11:49:04.999Z</time>
      </trkpt>
      <trkpt lat="48.621510" lon="10.156576">
        <ele>477.848555</ele>
        <time>2024-03-17T11:49:06.999Z</time>
      </trkpt>
      <trkpt lat="48.621361" lon="10.156592">
        <ele>477.780398</ele>
        <time>2024-03-17T11:49:08.999Z</time>
      </trkpt>
      <trkpt lat="48.621204" lon="10.156604">
        <ele>477.708670</ele>
        <time>2024-03-17T11:49:10.999Z</time>
      </trkpt>
      <trkpt lat="48.621053" lon="10.156615">
        <ele>477.639692</ele>
        <time>2024-03-17T11:49:12.999Z</time>
      </trkpt>
      <trkpt lat="48.620895" lon="10.156627">
        <ele>477.567509</ele>
        <time>2024-03-17T11:49:14.999Z</time>
      </trkpt>
      <trkpt lat="48.620744" lon="10.156636">
        <ele>477.498557</ele>
        <time>2024-03-17T11:49:16.999Z</time>
      </trkpt>
      <trkpt lat="48.620589" lon="10.156651">
        <ele>477.427688</ele>
        <time>2024-03-17T11:49:18.999Z</time>
      </trkpt>
      <trkpt lat="48.620437" lon="10.156658">
        <ele>477.358302</ele>
        <time>2024-03-17T11:49:20.999Z</time>
      </trkpt>
      <trkpt lat="48.620293" lon="10.156671">
        <ele>477.292480</ele>
        <time>2024-03-17T11:49:22.999Z</time>
      </trkpt>
      <trkpt lat="48.620153" lon="10.156680">
        <ele>477.228543</ele>
        <time>2024-03-17T11:49:24.999Z</time>
      </trkpt>
      <trkpt lat="48.620007" lon="10.156688">
        <ele>477.161882</ele>
        <time>2024-03-17T11:49:26.999Z</time>
      </trkpt>
      <trkpt lat="48.619899" lon="10.156675">
        <ele>477.112448</ele>
        <time>2024-03-17T11:49:28.999Z</time>
      </trkpt>
      <trkpt lat="48.619873" lon="10.156472">
        <ele>477.050080</ele>
        <time>2024-03-17T11:49:30.999Z</time>
      </trkpt>
      <trkpt lat="48.619875" lon="10.156262">
        <ele>477.040552</ele>
        <time>2024-03-17T11:49:32.999Z</time>
      </trkpt>
      <trkpt lat="48.619843" lon="10.156045">
        <ele>477.043875</ele>
        <time>2024-03-17T11:49:34.999Z</time>
      </trkpt>
      <trkpt lat="48.619823" lon="10.155819">
        <ele>477.047283</ele>
        <time>2024-03-17T11:49:36.999Z</time>
      </trkpt>
      <trkpt lat="48.619807" lon="10.155580">
        <ele>477.050873</ele>
        <time>2024-03-17T11:49:38.999Z</time>
      </trkpt>
      <trkpt lat="48.619798" lon="10.155339">
        <ele>477.054481</ele>
        <time>2024-03-17T11:49:40.999Z</time>
      </trkpt>
      <trkpt lat="48.619788" lon="10.155102">
        <ele>477.058030</ele>
        <time>2024-03-17T11:49:42.999Z</time>
      </trkpt>
      <trkpt lat="48.619780" lon="10.154865">
        <ele>477.061577</ele>
        <time>2024-03-17T11:49:44.999Z</time>
      </trkpt>
      <trkpt lat="48.619764" lon="10.154648">
        <ele>477.064841</ele>
        <time>2024-03-17T11:49:46.999Z</time>
      </trkpt>
      <trkpt lat="48.619743" lon="10.154438">
        <ele>477.068015</ele>
        <time>2024-03-17T11:49:48.999Z</time>
      </trkpt>
      <trkpt lat="48.619715" lon="10.154216">
        <ele>477.071393</ele>
        <time>2024-03-17T11:49:50.999Z</time>
      </trkpt>
      <trkpt lat="48.619686" lon="10.153979">
        <ele>477.074995</ele>
        <time>2024-03-17T11:49:52.999Z</time>
      </trkpt>
      <trkpt lat="48.619656" lon="10.153742">
        <ele>477.078602</ele>
        <time>2024-03-17T11:49:54.999Z</time>
      </trkpt>
      <trkpt lat="48.619625" lon="10.153500">
        <ele>477.067420</ele>
        <time>2024-03-17T11:49:56.999Z</time>
      </trkpt>
      <trkpt lat="48.619591" lon="10.153260">
        <ele>477.055975</ele>
        <time>2024-03-17T11:49:58.999Z</time>
      </trkpt>
      <trkpt lat="48.619516" lon="10.153044">
        <ele>477.044599</ele>
        <time>2024-03-17T11:50:00.999Z</time>
      </trkpt>
      <trkpt lat="48.619381" lon="10.152902">
        <ele>477.033002</ele>
        <time>2024-03-17T11:50:02.999Z</time>
      </trkpt>
      <trkpt lat="48.619226" lon="10.152835">
        <ele>477.021632</ele>
        <time>2024-03-17T11:50:04.999Z</time>
      </trkpt>
      <trkpt lat="48.619069" lon="10.152842">
        <ele>477.010554</ele>
        <time>2024-03-17T11:50:07.000Z</time>
      </trkpt>
      <trkpt lat="48.618931" lon="10.152886">
        <ele>477.000606</ele>
        <time>2024-03-17T11:50:09.000Z</time>
      </trkpt>
      <trkpt lat="48.618784" lon="10.152889">
        <ele>476.990237</ele>
        <time>2024-03-17T11:50:11.000Z</time>
      </trkpt>
      <trkpt lat="48.618678" lon="10.152684">
        <ele>476.978102</ele>
        <time>2024-03-17T11:50:13.000Z</time>
      </trkpt>
      <trkpt lat="48.618594" lon="10.152504">
        <ele>476.967829</ele>
        <time>2024-03-17T11:50:15.000Z</time>
      </trkpt>
      <trkpt lat="48.618508" lon="10.152319">
        <ele>476.957284</ele>
        <time>2024-03-17T11:50:17.000Z</time>
      </trkpt>
      <trkpt lat="48.618421" lon="10.152133">
        <ele>477.031704</ele>
        <time>2024-03-17T11:50:19.000Z</time>
      </trkpt>
      <trkpt lat="48.618330" lon="10.151984">
        <ele>477.178266</ele>
        <time>2024-03-17T11:50:21.000Z</time>
      </trkpt>
      <trkpt lat="48.618223" lon="10.151862">
        <ele>477.324708</ele>
        <time>2024-03-17T11:50:23.000Z</time>
      </trkpt>
      <trkpt lat="48.618100" lon="10.151827">
        <ele>477.461495</ele>
        <time>2024-03-17T11:50:25.000Z</time>
      </trkpt>
      <trkpt lat="48.617984" lon="10.151856">
        <ele>477.589993</ele>
        <time>2024-03-17T11:50:27.000Z</time>
      </trkpt>
      <trkpt lat="48.617869" lon="10.151839">
        <ele>477.716278</ele>
        <time>2024-03-17T11:50:29.000Z</time>
      </trkpt>
      <trkpt lat="48.617756" lon="10.151761">
        <ele>477.852029</ele>
        <time>2024-03-17T11:50:31.000Z</time>
      </trkpt>
      <trkpt lat="48.617647" lon="10.151641">
        <ele>477.999367</ele>
        <time>2024-03-17T11:50:33.000Z</time>
      </trkpt>
      <trkpt lat="48.617558" lon="10.151507">
        <ele>478.136608</ele>
        <time>2024-03-17T11:50:35.000Z</time>
      </trkpt>
      <trkpt lat="48.617478" lon="10.151356">
        <ele>478.276419</ele>
        <time>2024-03-17T11:50:37.000Z</time>
      </trkpt>
      <trkpt lat="48.617420" lon="10.151176">
        <ele>478.421097</ele>
        <time>2024-03-17T11:50:39.000Z</time>
      </trkpt>
      <trkpt lat="48.617381" lon="10.150982">
        <ele>478.567602</ele>
        <time>2024-03-17T11:50:41.000Z</time>
      </trkpt>
      <trkpt lat="48.617349" lon="10.150786">
        <ele>478.713470</ele>
        <time>2024-03-17T11:50:43.000Z</time>
      </trkpt>
      <trkpt lat="48.617321" lon="10.150579">
        <ele>478.866129</ele>
        <time>2024-03-17T11:50:45.000Z</time>
      </trkpt>
      <trkpt lat="48.617299" lon="10.150374">
        <ele>479.067342</ele>
        <time>2024-03-17T11:50:47.000Z</time>
      </trkpt>
      <trkpt lat="48.617276" lon="10.150164">
        <ele>479.300941</ele>
        <time>2024-03-17T11:50:48.999Z</time>
      </trkpt>
      <trkpt lat="48.617258" lon="10.149957">
        <ele>479.530064</ele>
        <time>2024-03-17T11:50:50.999Z</time>
      </trkpt>
      <trkpt lat="48.617265" lon="10.149742">
        <ele>479.766295</ele>
        <time>2024-03-17T11:50:52.999Z</time>
      </trkpt>
      <trkpt lat="48.617296" lon="10.149540">
        <ele>479.993869</ele>
        <time>2024-03-17T11:50:54.999Z</time>
      </trkpt>
      <trkpt lat="48.617375" lon="10.149361">
        <ele>480.230060</ele>
        <time>2024-03-17T11:50:56.999Z</time>
      </trkpt>
      <trkpt lat="48.617472" lon="10.149207">
        <ele>480.463491</ele>
        <time>2024-03-17T11:50:58.999Z</time>
      </trkpt>
      <trkpt lat="48.617560" lon="10.149070">
        <ele>480.673119</ele>
        <time>2024-03-17T11:51:00.999Z</time>
      </trkpt>
      <trkpt lat="48.617637" lon="10.148954">
        <ele>480.853518</ele>
        <time>2024-03-17T11:51:02.999Z</time>
      </trkpt>
      <trkpt lat="48.617704" lon="10.148805">
        <ele>481.051273</ele>
        <time>2024-03-17T11:51:05.999Z</time>
      </trkpt>
      <trkpt lat="48.617698" lon="10.148653">
        <ele>481.218377</ele>
        <time>2024-03-17T11:51:07.999Z</time>
      </trkpt>
      <trkpt lat="48.617636" lon="10.148472">
        <ele>481.442089</ele>
        <time>2024-03-17T11:51:10.999Z</time>
      </trkpt>
      <trkpt lat="48.617573" lon="10.148347">
        <ele>481.614585</ele>
        <time>2024-03-17T11:51:12.999Z</time>
      </trkpt>
      <trkpt lat="48.617508" lon="10.148208">
        <ele>481.801431</ele>
        <time>2024-03-17T11:51:14.999Z</time>
      </trkpt>
      <trkpt lat="48.617448" lon="10.148084">
        <ele>481.989096</ele>
        <time>2024-03-17T11:51:16.999Z</time>
      </trkpt>
      <trkpt lat="48.617394" lon="10.147958">
        <ele>482.200914</ele>
        <time>2024-03-17T11:51:18.999Z</time>
      </trkpt>
      <trkpt lat="48.617332" lon="10.147825">
        <ele>482.430479</ele>
        <time>2024-03-17T11:51:20.999Z</time>
      </trkpt>
      <trkpt lat="48.617278" lon="10.147686">
        <ele>482.657903</ele>
        <time>2024-03-17T11:51:22.999Z</time>
      </trkpt>
      <trkpt lat="48.617215" lon="10.147551">
        <ele>482.891003</ele>
        <time>2024-03-17T11:51:24.999Z</time>
      </trkpt>
      <trkpt lat="48.617152" lon="10.147411">
        <ele>483.129900</ele>
        <time>2024-03-17T11:51:26.999Z</time>
      </trkpt>
      <trkpt lat="48.617087" lon="10.147275">
        <ele>483.366628</ele>
        <time>2024-03-17T11:51:28.999Z</time>
      </trkpt>
      <trkpt lat="48.617030" lon="10.147135">
        <ele>483.598563</ele>
        <time>2024-03-17T11:51:30.999Z</time>
      </trkpt>
      <trkpt lat="48.616962" lon="10.146999">
        <ele>483.839099</ele>
        <time>2024-03-17T11:51:32.999Z</time>
      </trkpt>
      <trkpt lat="48.616903" lon="10.146852">
        <ele>484.081684</ele>
        <time>2024-03-17T11:51:34.999Z</time>
      </trkpt>
      <trkpt lat="48.616853" lon="10.146702">
        <ele>484.318653</ele>
        <time>2024-03-17T11:51:36.999Z</time>
      </trkpt>
      <trkpt lat="48.616831" lon="10.146533">
        <ele>484.561626</ele>
        <time>2024-03-17T11:51:38.999Z</time>
      </trkpt>
      <trkpt lat="48.616833" lon="10.146359">
        <ele>484.807112</ele>
        <time>2024-03-17T11:51:40.999Z</time>
      </trkpt>
      <trkpt lat="48.616844" lon="10.146187">
        <ele>485.050872</ele>
        <time>2024-03-17T11:51:42.999Z</time>
      </trkpt>
      <trkpt lat="48.616853" lon="10.146023">
        <ele>485.283010</ele>
        <time>2024-03-17T11:51:44.999Z</time>
      </trkpt>
      <trkpt lat="48.616859" lon="10.145859">
        <ele>485.514706</ele>
        <time>2024-03-17T11:51:46.999Z</time>
      </trkpt>
      <trkpt lat="48.616868" lon="10.145689">
        <ele>485.768486</ele>
        <time>2024-03-17T11:51:48.999Z</time>
      </trkpt>
      <trkpt lat="48.616872" lon="10.145530">
        <ele>486.204924</ele>
        <time>2024-03-17T11:51:50.999Z</time>
      </trkpt>
      <trkpt lat="48.616873" lon="10.145366">
        <ele>486.654781</ele>
        <time>2024-03-17T11:51:52.999Z</time>
      </trkpt>
      <trkpt lat="48.616863" lon="10.145202">
        <ele>487.106528</ele>
        <time>2024-03-17T11:51:54.999Z</time>
      </trkpt>
      <trkpt lat="48.616849" lon="10.145048">
        <ele>487.532911</ele>
        <time>2024-03-17T11:51:56.999Z</time>
      </trkpt>
      <trkpt lat="48.616827" lon="10.144892">
        <ele>487.970433</ele>
        <time>2024-03-17T11:51:58.999Z</time>
      </trkpt>
      <trkpt lat="48.616799" lon="10.144741">
        <ele>488.400598</ele>
        <time>2024-03-17T11:52:00.999Z</time>
      </trkpt>
      <trkpt lat="48.616764" lon="10.144593">
        <ele>488.831741</ele>
        <time>2024-03-17T11:52:02.999Z</time>
      </trkpt>
      <trkpt lat="48.616728" lon="10.144448">
        <ele>489.256587</ele>
        <time>2024-03-17T11:52:04.999Z</time>
      </trkpt>
      <trkpt lat="48.616692" lon="10.144297">
        <ele>489.696878</ele>
        <time>2024-03-17T11:52:06.999Z</time>
      </trkpt>
      <trkpt lat="48.616652" lon="10.144156">
        <ele>490.117735</ele>
        <time>2024-03-17T11:52:08.999Z</time>
      </trkpt>
      <trkpt lat="48.616609" lon="10.144013">
        <ele>490.548642</ele>
        <time>2024-03-17T11:52:10.999Z</time>
      </trkpt>
      <trkpt lat="48.616568" lon="10.143869">
        <ele>490.978698</ele>
        <time>2024-03-17T11:52:13.000Z</time>
      </trkpt>
      <trkpt lat="48.616526" lon="10.143723">
        <ele>491.415437</ele>
        <time>2024-03-17T11:52:15.000Z</time>
      </trkpt>
      <trkpt lat="48.616485" lon="10.143581">
        <ele>491.840461</ele>
        <time>2024-03-17T11:52:17.000Z</time>
      </trkpt>
      <trkpt lat="48.616446" lon="10.143427">
        <ele>492.292805</ele>
        <time>2024-03-17T11:52:19.000Z</time>
      </trkpt>
      <trkpt lat="48.616396" lon="10.143287">
        <ele>492.729270</ele>
        <time>2024-03-17T11:52:21.000Z</time>
      </trkpt>
      <trkpt lat="48.616357" lon="10.143140">
        <ele>493.163739</ele>
        <time>2024-03-17T11:52:23.000Z</time>
      </trkpt>
      <trkpt lat="48.616312" lon="10.142999">
        <ele>493.579713</ele>
        <time>2024-03-17T11:52:25.000Z</time>
      </trkpt>
      <trkpt lat="48.616274" lon="10.142853">
        <ele>493.995184</ele>
        <time>2024-03-17T11:52:27.000Z</time>
      </trkpt>
      <trkpt lat="48.616230" lon="10.142713">
        <ele>494.405645</ele>
        <time>2024-03-17T11:52:29.000Z</time>
      </trkpt>
      <trkpt lat="48.616185" lon="10.142571">
        <ele>494.822611</ele>
        <time>2024-03-17T11:52:31.000Z</time>
      </trkpt>
      <trkpt lat="48.616144" lon="10.142429">
        <ele>495.232907</ele>
        <time>2024-03-17T11:52:33.000Z</time>
      </trkpt>
      <trkpt lat="48.616092" lon="10.142294">
        <ele>495.646620</ele>
        <time>2024-03-17T11:52:35.000Z</time>
      </trkpt>
      <trkpt lat="48.616037" lon="10.142165">
        <ele>496.053072</ele>
        <time>2024-03-17T11:52:37.000Z</time>
      </trkpt>
      <trkpt lat="48.615976" lon="10.142049">
        <ele>496.445548</ele>
        <time>2024-03-17T11:52:39.000Z</time>
      </trkpt>
      <trkpt lat="48.615911" lon="10.141923">
        <ele>496.868738</ele>
        <time>2024-03-17T11:52:41.000Z</time>
      </trkpt>
      <trkpt lat="48.615839" lon="10.141807">
        <ele>497.290055</ele>
        <time>2024-03-17T11:52:43.000Z</time>
      </trkpt>
      <trkpt lat="48.615760" lon="10.141700">
        <ele>497.714781</ele>
        <time>2024-03-17T11:52:45.000Z</time>
      </trkpt>
      <trkpt lat="48.615680" lon="10.141605">
        <ele>498.122148</ele>
        <time>2024-03-17T11:52:47.000Z</time>
      </trkpt>
      <trkpt lat="48.615601" lon="10.141514">
        <ele>498.519867</ele>
        <time>2024-03-17T11:52:49.000Z</time>
      </trkpt>
      <trkpt lat="48.615497" lon="10.141392">
        <ele>499.047002</ele>
        <time>2024-03-17T11:52:52.000Z</time>
      </trkpt>
      <trkpt lat="48.615412" lon="10.141273">
        <ele>499.510892</ele>
        <time>2024-03-17T11:52:55.000Z</time>
      </trkpt>
      <trkpt lat="48.615354" lon="10.141130">
        <ele>499.955126</ele>
        <time>2024-03-17T11:52:58.000Z</time>
      </trkpt>
      <trkpt lat="48.615363" lon="10.140990">
        <ele>500.327584</ele>
        <time>2024-03-17T11:53:10.999Z</time>
      </trkpt>
      <trkpt lat="48.615185" lon="10.140929">
        <ele>500.797621</ele>
        <time>2024-03-17T11:55:33.999Z</time>
      </trkpt>
      <trkpt lat="48.615095" lon="10.140812">
        <ele>501.082263</ele>
        <time>2024-03-17T11:55:36.999Z</time>
      </trkpt>
      <trkpt lat="48.615000" lon="10.140660">
        <ele>501.413952</ele>
        <time>2024-03-17T11:55:39.999Z</time>
      </trkpt>
      <trkpt lat="48.614936" lon="10.140562">
        <ele>501.632388</ele>
        <time>2024-03-17T11:55:41.999Z</time>
      </trkpt>
      <trkpt lat="48.614881" lon="10.140453">
        <ele>501.849824</ele>
        <time>2024-03-17T11:55:43.999Z</time>
      </trkpt>
      <trkpt lat="48.614824" lon="10.140342">
        <ele>502.072699</ele>
        <time>2024-03-17T11:55:45.999Z</time>
      </trkpt>
      <trkpt lat="48.614741" lon="10.140195">
        <ele>502.379245</ele>
        <time>2024-03-17T11:55:48.999Z</time>
      </trkpt>
      <trkpt lat="48.614658" lon="10.140048">
        <ele>502.685790</ele>
        <time>2024-03-17T11:55:51.999Z</time>
      </trkpt>
      <trkpt lat="48.614581" lon="10.139904">
        <ele>502.979478</ele>
        <time>2024-03-17T11:55:54.999Z</time>
      </trkpt>
      <trkpt lat="48.614506" lon="10.139770">
        <ele>503.257889</ele>
        <time>2024-03-17T11:55:57.999Z</time>
      </trkpt>
      <trkpt lat="48.614433" lon="10.139630">
        <ele>503.540633</ele>
        <time>2024-03-17T11:56:00.999Z</time>
      </trkpt>
      <trkpt lat="48.614358" lon="10.139499">
        <ele>503.815431</ele>
        <time>2024-03-17T11:56:03.999Z</time>
      </trkpt>
      <trkpt lat="48.614276" lon="10.139370">
        <ele>504.099208</ele>
        <time>2024-03-17T11:56:06.999Z</time>
      </trkpt>
      <trkpt lat="48.614195" lon="10.139238">
        <ele>504.384796</ele>
        <time>2024-03-17T11:56:09.999Z</time>
      </trkpt>
      <trkpt lat="48.614100" lon="10.139127">
        <ele>504.672727</ele>
        <time>2024-03-17T11:56:12.999Z</time>
      </trkpt>
      <trkpt lat="48.614005" lon="10.139013">
        <ele>505.284774</ele>
        <time>2024-03-17T11:56:15.999Z</time>
      </trkpt>
      <trkpt lat="48.613908" lon="10.138893">
        <ele>505.985252</ele>
        <time>2024-03-17T11:56:18.999Z</time>
      </trkpt>
      <trkpt lat="48.613806" lon="10.138801">
        <ele>506.649096</ele>
        <time>2024-03-17T11:56:21.999Z</time>
      </trkpt>
      <trkpt lat="48.613698" lon="10.138706">
        <ele>507.347467</ele>
        <time>2024-03-17T11:56:25.000Z</time>
      </trkpt>
      <trkpt lat="48.613593" lon="10.138624">
        <ele>508.008020</ele>
        <time>2024-03-17T11:56:28.000Z</time>
      </trkpt>
      <trkpt lat="48.613483" lon="10.138552">
        <ele>508.678010</ele>
        <time>2024-03-17T11:56:31.000Z</time>
      </trkpt>
      <trkpt lat="48.613381" lon="10.138485">
        <ele>509.299621</ele>
        <time>2024-03-17T11:56:34.000Z</time>
      </trkpt>
      <trkpt lat="48.613277" lon="10.138425">
        <ele>509.921821</ele>
        <time>2024-03-17T11:56:37.000Z</time>
      </trkpt>
      <trkpt lat="48.613171" lon="10.138383">
        <ele>510.534340</ele>
        <time>2024-03-17T11:56:40.000Z</time>
      </trkpt>
      <trkpt lat="48.613066" lon="10.138330">
        <ele>511.153097</ele>
        <time>2024-03-17T11:56:43.000Z</time>
      </trkpt>
      <trkpt lat="48.612955" lon="10.138287">
        <ele>511.793599</ele>
        <time>2024-03-17T11:56:46.000Z</time>
      </trkpt>
      <trkpt lat="48.612844" lon="10.138261">
        <ele>512.421471</ele>
        <time>2024-03-17T11:56:49.000Z</time>
      </trkpt>
      <trkpt lat="48.612732" lon="10.138243">
        <ele>513.051061</ele>
        <time>2024-03-17T11:56:52.000Z</time>
      </trkpt>
      <trkpt lat="48.612620" lon="10.138227">
        <ele>513.679912</ele>
        <time>2024-03-17T11:56:55.000Z</time>
      </trkpt>
      <trkpt lat="48.612511" lon="10.138216">
        <ele>514.290563</ele>
        <time>2024-03-17T11:56:58.000Z</time>
      </trkpt>
      <trkpt lat="48.612399" lon="10.138219">
        <ele>514.966896</ele>
        <time>2024-03-17T11:57:01.000Z</time>
      </trkpt>
      <trkpt lat="48.612281" lon="10.138228">
        <ele>515.863414</ele>
        <time>2024-03-17T11:57:04.000Z</time>
      </trkpt>
      <trkpt lat="48.612168" lon="10.138235">
        <ele>516.721573</ele>
        <time>2024-03-17T11:57:07.000Z</time>
      </trkpt>
      <trkpt lat="48.612049" lon="10.138261">
        <ele>517.633913</ele>
        <time>2024-03-17T11:57:10.000Z</time>
      </trkpt>
      <trkpt lat="48.611931" lon="10.138300">
        <ele>518.550421</ele>
        <time>2024-03-17T11:57:13.000Z</time>
      </trkpt>
      <trkpt lat="48.611822" lon="10.138341">
        <ele>519.402702</ele>
        <time>2024-03-17T11:57:16.000Z</time>
      </trkpt>
      <trkpt lat="48.611708" lon="10.138378">
        <ele>520.287423</ele>
        <time>2024-03-17T11:57:19.000Z</time>
      </trkpt>
      <trkpt lat="48.611602" lon="10.138445">
        <ele>521.159157</ele>
        <time>2024-03-17T11:57:21.999Z</time>
      </trkpt>
      <trkpt lat="48.611492" lon="10.138487">
        <ele>522.020018</ele>
        <time>2024-03-17T11:57:24.999Z</time>
      </trkpt>
      <trkpt lat="48.611384" lon="10.138563">
        <ele>522.923875</ele>
        <time>2024-03-17T11:57:27.999Z</time>
      </trkpt>
      <trkpt lat="48.611284" lon="10.138631">
        <ele>523.755834</ele>
        <time>2024-03-17T11:57:30.999Z</time>
      </trkpt>
      <trkpt lat="48.611179" lon="10.138707">
        <ele>524.639104</ele>
        <time>2024-03-17T11:57:33.999Z</time>
      </trkpt>
      <trkpt lat="48.611078" lon="10.138780">
        <ele>525.488500</ele>
        <time>2024-03-17T11:57:36.999Z</time>
      </trkpt>
      <trkpt lat="48.610978" lon="10.138859">
        <ele>526.344569</ele>
        <time>2024-03-17T11:57:39.999Z</time>
      </trkpt>
      <trkpt lat="48.610876" lon="10.138931">
        <ele>527.198684</ele>
        <time>2024-03-17T11:57:42.999Z</time>
      </trkpt>
      <trkpt lat="48.610775" lon="10.139006">
        <ele>528.052455</ele>
        <time>2024-03-17T11:57:45.999Z</time>
      </trkpt>
      <trkpt lat="48.610674" lon="10.139080">
        <ele>528.956665</ele>
        <time>2024-03-17T11:57:48.999Z</time>
      </trkpt>
      <trkpt lat="48.610571" lon="10.139158">
        <ele>529.926648</ele>
        <time>2024-03-17T11:57:51.999Z</time>
      </trkpt>
      <trkpt lat="48.610470" lon="10.139229">
        <ele>530.864521</ele>
        <time>2024-03-17T11:57:54.999Z</time>
      </trkpt>
      <trkpt lat="48.610370" lon="10.139282">
        <ele>531.756802</ele>
        <time>2024-03-17T11:57:57.999Z</time>
      </trkpt>
      <trkpt lat="48.610276" lon="10.139319">
        <ele>532.574720</ele>
        <time>2024-03-17T11:58:00.999Z</time>
      </trkpt>
      <trkpt lat="48.610174" lon="10.139337">
        <ele>533.439464</ele>
        <time>2024-03-17T11:58:04.999Z</time>
      </trkpt>
      <trkpt lat="48.610072" lon="10.139325">
        <ele>534.300976</ele>
        <time>2024-03-17T11:58:08.999Z</time>
      </trkpt>
      <trkpt lat="48.609953" lon="10.139315">
        <ele>535.304592</ele>
        <time>2024-03-17T11:58:12.999Z</time>
      </trkpt>
      <trkpt lat="48.609838" lon="10.139270">
        <ele>536.304865</ele>
        <time>2024-03-17T11:58:16.999Z</time>
      </trkpt>
      <trkpt lat="48.609743" lon="10.139220">
        <ele>537.151891</ele>
        <time>2024-03-17T11:58:20.999Z</time>
      </trkpt>
      <trkpt lat="48.609655" lon="10.139158">
        <ele>537.969376</ele>
        <time>2024-03-17T11:58:24.999Z</time>
      </trkpt>
      <trkpt lat="48.609576" lon="10.139090">
        <ele>538.734806</ele>
        <time>2024-03-17T11:58:28.999Z</time>
      </trkpt>
      <trkpt lat="48.609498" lon="10.138987">
        <ele>539.606748</ele>
        <time>2024-03-17T11:58:33.000Z</time>
      </trkpt>
      <trkpt lat="48.609434" lon="10.138851">
        <ele>540.536161</ele>
        <time>2024-03-17T11:58:37.000Z</time>
      </trkpt>
      <trkpt lat="48.609364" lon="10.138732">
        <ele>541.422974</ele>
        <time>2024-03-17T11:58:41.000Z</time>
      </trkpt>
      <trkpt lat="48.609290" lon="10.138621">
        <ele>542.300609</ele>
        <time>2024-03-17T11:58:45.000Z</time>
      </trkpt>
      <trkpt lat="48.609241" lon="10.138504">
        <ele>543.071716</ele>
        <time>2024-03-17T11:58:48.000Z</time>
      </trkpt>
      <trkpt lat="48.609192" lon="10.138382">
        <ele>543.730152</ele>
        <time>2024-03-17T11:58:51.000Z</time>
      </trkpt>
      <trkpt lat="48.609114" lon="10.138263">
        <ele>544.233593</ele>
        <time>2024-03-17T11:58:53.000Z</time>
      </trkpt>
      <trkpt lat="48.609019" lon="10.138133">
        <ele>544.815747</ele>
        <time>2024-03-17T11:58:56.000Z</time>
      </trkpt>
      <trkpt lat="48.608908" lon="10.138020">
        <ele>545.423752</ele>
        <time>2024-03-17T11:58:59.000Z</time>
      </trkpt>
      <trkpt lat="48.608799" lon="10.137925">
        <ele>545.995406</ele>
        <time>2024-03-17T11:59:02.000Z</time>
      </trkpt>
      <trkpt lat="48.608689" lon="10.137830">
        <ele>546.571002</ele>
        <time>2024-03-17T11:59:05.000Z</time>
      </trkpt>
      <trkpt lat="48.608574" lon="10.137747">
        <ele>547.150017</ele>
        <time>2024-03-17T11:59:08.000Z</time>
      </trkpt>
      <trkpt lat="48.608451" lon="10.137667">
        <ele>547.758424</ele>
        <time>2024-03-17T11:59:11.000Z</time>
      </trkpt>
      <trkpt lat="48.608368" lon="10.137613">
        <ele>548.168994</ele>
        <time>2024-03-17T11:59:13.000Z</time>
      </trkpt>
      <trkpt lat="48.608284" lon="10.137561">
        <ele>548.581429</ele>
        <time>2024-03-17T11:59:15.000Z</time>
      </trkpt>
      <trkpt lat="48.608166" lon="10.137473">
        <ele>549.179268</ele>
        <time>2024-03-17T11:59:18.000Z</time>
      </trkpt>
      <trkpt lat="48.608085" lon="10.137410">
        <ele>549.593153</ele>
        <time>2024-03-17T11:59:20.000Z</time>
      </trkpt>
      <trkpt lat="48.608005" lon="10.137340">
        <ele>550.013131</ele>
        <time>2024-03-17T11:59:21.999Z</time>
      </trkpt>
      <trkpt lat="48.607931" lon="10.137259">
        <ele>550.428218</ele>
        <time>2024-03-17T11:59:23.999Z</time>
      </trkpt>
      <trkpt lat="48.607862" lon="10.137165">
        <ele>550.850202</ele>
        <time>2024-03-17T11:59:25.999Z</time>
      </trkpt>
      <trkpt lat="48.607796" lon="10.137069">
        <ele>551.266302</ele>
        <time>2024-03-17T11:59:27.999Z</time>
      </trkpt>
      <trkpt lat="48.607733" lon="10.136973">
        <ele>551.672687</ele>
        <time>2024-03-17T11:59:29.999Z</time>
      </trkpt>
      <trkpt lat="48.607674" lon="10.136869">
        <ele>551.742955</ele>
        <time>2024-03-17T11:59:31.999Z</time>
      </trkpt>
      <trkpt lat="48.607614" lon="10.136761">
        <ele>551.742364</ele>
        <time>2024-03-17T11:59:33.999Z</time>
      </trkpt>
      <trkpt lat="48.607557" lon="10.136652">
        <ele>551.741782</ele>
        <time>2024-03-17T11:59:35.999Z</time>
      </trkpt>
      <trkpt lat="48.607495" lon="10.136544">
        <ele>551.741184</ele>
        <time>2024-03-17T11:59:37.999Z</time>
      </trkpt>
      <trkpt lat="48.607434" lon="10.136433">
        <ele>551.740580</ele>
        <time>2024-03-17T11:59:39.999Z</time>
      </trkpt>
      <trkpt lat="48.607369" lon="10.136319">
        <ele>551.739950</ele>
        <time>2024-03-17T11:59:41.999Z</time>
      </trkpt>
      <trkpt lat="48.607306" lon="10.136196">
        <ele>551.739298</ele>
        <time>2024-03-17T11:59:43.999Z</time>
      </trkpt>
      <trkpt lat="48.607236" lon="10.136074">
        <ele>551.738622</ele>
        <time>2024-03-17T11:59:45.999Z</time>
      </trkpt>
      <trkpt lat="48.607163" lon="10.135936">
        <ele>551.737883</ele>
        <time>2024-03-17T11:59:47.999Z</time>
      </trkpt>
      <trkpt lat="48.607079" lon="10.135802">
        <ele>551.737110</ele>
        <time>2024-03-17T11:59:49.999Z</time>
      </trkpt>
      <trkpt lat="48.606998" lon="10.135664">
        <ele>551.736337</ele>
        <time>2024-03-17T11:59:51.999Z</time>
      </trkpt>
      <trkpt lat="48.606909" lon="10.135530">
        <ele>551.735542</ele>
        <time>2024-03-17T11:59:53.999Z</time>
      </trkpt>
      <trkpt lat="48.606804" lon="10.135412">
        <ele>551.734714</ele>
        <time>2024-03-17T11:59:55.999Z</time>
      </trkpt>
      <trkpt lat="48.606689" lon="10.135328">
        <ele>551.733906</ele>
        <time>2024-03-17T11:59:57.999Z</time>
      </trkpt>
      <trkpt lat="48.606570" lon="10.135245">
        <ele>551.733076</ele>
        <time>2024-03-17T11:59:59.999Z</time>
      </trkpt>
      <trkpt lat="48.606446" lon="10.135160">
        <ele>551.732215</ele>
        <time>2024-03-17T12:00:01.999Z</time>
      </trkpt>
      <trkpt lat="48.606321" lon="10.135090">
        <ele>551.944159</ele>
        <time>2024-03-17T12:00:03.999Z</time>
      </trkpt>
      <trkpt lat="48.606195" lon="10.135011">
        <ele>552.216255</ele>
        <time>2024-03-17T12:00:05.999Z</time>
      </trkpt>
      <trkpt lat="48.606073" lon="10.134930">
        <ele>552.482047</ele>
        <time>2024-03-17T12:00:07.999Z</time>
      </trkpt>
      <trkpt lat="48.605946" lon="10.134843">
        <ele>552.760173</ele>
        <time>2024-03-17T12:00:09.999Z</time>
      </trkpt>
      <trkpt lat="48.605826" lon="10.134741">
        <ele>553.034774</ele>
        <time>2024-03-17T12:00:11.999Z</time>
      </trkpt>
      <trkpt lat="48.605704" lon="10.134649">
        <ele>553.306724</ele>
        <time>2024-03-17T12:00:13.999Z</time>
      </trkpt>
      <trkpt lat="48.605587" lon="10.134551">
        <ele>553.573530</ele>
        <time>2024-03-17T12:00:15.999Z</time>
      </trkpt>
      <trkpt lat="48.605471" lon="10.134453">
        <ele>553.838592</ele>
        <time>2024-03-17T12:00:17.999Z</time>
      </trkpt>
      <trkpt lat="48.605354" lon="10.134355">
        <ele>554.105397</ele>
        <time>2024-03-17T12:00:19.999Z</time>
      </trkpt>
      <trkpt lat="48.605245" lon="10.134255">
        <ele>554.359719</ele>
        <time>2024-03-17T12:00:21.999Z</time>
      </trkpt>
      <trkpt lat="48.605136" lon="10.134145">
        <ele>554.621125</ele>
        <time>2024-03-17T12:00:23.999Z</time>
      </trkpt>
      <trkpt lat="48.605032" lon="10.134045">
        <ele>554.866974</ele>
        <time>2024-03-17T12:00:25.999Z</time>
      </trkpt>
      <trkpt lat="48.604927" lon="10.133940">
        <ele>555.118085</ele>
        <time>2024-03-17T12:00:27.999Z</time>
      </trkpt>
      <trkpt lat="48.604834" lon="10.133834">
        <ele>555.320325</ele>
        <time>2024-03-17T12:00:29.999Z</time>
      </trkpt>
      <trkpt lat="48.604741" lon="10.133723">
        <ele>555.322298</ele>
        <time>2024-03-17T12:00:31.999Z</time>
      </trkpt>
      <trkpt lat="48.604652" lon="10.133612">
        <ele>555.324219</ele>
        <time>2024-03-17T12:00:33.999Z</time>
      </trkpt>
      <trkpt lat="48.604557" lon="10.133491">
        <ele>555.326288</ele>
        <time>2024-03-17T12:00:35.999Z</time>
      </trkpt>
      <trkpt lat="48.604459" lon="10.133364">
        <ele>555.328437</ele>
        <time>2024-03-17T12:00:38.000Z</time>
      </trkpt>
      <trkpt lat="48.604363" lon="10.133236">
        <ele>555.330569</ele>
        <time>2024-03-17T12:00:40.000Z</time>
      </trkpt>
      <trkpt lat="48.604268" lon="10.133103">
        <ele>555.332725</ele>
        <time>2024-03-17T12:00:42.000Z</time>
      </trkpt>
      <trkpt lat="48.604170" lon="10.132967">
        <ele>555.334940</ele>
        <time>2024-03-17T12:00:44.000Z</time>
      </trkpt>
      <trkpt lat="48.604071" lon="10.132835">
        <ele>555.337139</ele>
        <time>2024-03-17T12:00:46.000Z</time>
      </trkpt>
      <trkpt lat="48.603967" lon="10.132697">
        <ele>555.339443</ele>
        <time>2024-03-17T12:00:48.000Z</time>
      </trkpt>
      <trkpt lat="48.603866" lon="10.132565">
        <ele>555.341666</ele>
        <time>2024-03-17T12:00:50.000Z</time>
      </trkpt>
      <trkpt lat="48.603764" lon="10.132437">
        <ele>555.343874</ele>
        <time>2024-03-17T12:00:52.000Z</time>
      </trkpt>
      <trkpt lat="48.603659" lon="10.132326">
        <ele>555.346007</ele>
        <time>2024-03-17T12:00:54.000Z</time>
      </trkpt>
      <trkpt lat="48.603548" lon="10.132216">
        <ele>555.348218</ele>
        <time>2024-03-17T12:00:56.000Z</time>
      </trkpt>
      <trkpt lat="48.603435" lon="10.132109">
        <ele>555.377427</ele>
        <time>2024-03-17T12:00:58.000Z</time>
      </trkpt>
      <trkpt lat="48.603327" lon="10.132002">
        <ele>555.521001</ele>
        <time>2024-03-17T12:01:00.000Z</time>
      </trkpt>
      <trkpt lat="48.603217" lon="10.131902">
        <ele>555.663722</ele>
        <time>2024-03-17T12:01:02.000Z</time>
      </trkpt>
      <trkpt lat="48.603105" lon="10.131798">
        <ele>555.809870</ele>
        <time>2024-03-17T12:01:04.000Z</time>
      </trkpt>
      <trkpt lat="48.602995" lon="10.131697">
        <ele>555.952971</ele>
        <time>2024-03-17T12:01:06.000Z</time>
      </trkpt>
      <trkpt lat="48.602887" lon="10.131589">
        <ele>556.096950</ele>
        <time>2024-03-17T12:01:08.000Z</time>
      </trkpt>
      <trkpt lat="48.602774" lon="10.131488">
        <ele>556.242913</ele>
        <time>2024-03-17T12:01:10.000Z</time>
      </trkpt>
      <trkpt lat="48.602661" lon="10.131381">
        <ele>556.391170</ele>
        <time>2024-03-17T12:01:12.000Z</time>
      </trkpt>
      <trkpt lat="48.602550" lon="10.131275">
        <ele>556.537153</ele>
        <time>2024-03-17T12:01:14.000Z</time>
      </trkpt>
      <trkpt lat="48.602432" lon="10.131179">
        <ele>556.686152</ele>
        <time>2024-03-17T12:01:16.000Z</time>
      </trkpt>
      <trkpt lat="48.602316" lon="10.131073">
        <ele>556.836866</ele>
        <time>2024-03-17T12:01:18.000Z</time>
      </trkpt>
      <trkpt lat="48.602197" lon="10.130974">
        <ele>556.987896</ele>
        <time>2024-03-17T12:01:20.000Z</time>
      </trkpt>
      <trkpt lat="48.602080" lon="10.130880">
        <ele>557.135222</ele>
        <time>2024-03-17T12:01:22.000Z</time>
      </trkpt>
      <trkpt lat="48.601964" lon="10.130791">
        <ele>557.279867</ele>
        <time>2024-03-17T12:01:24.000Z</time>
      </trkpt>
      <trkpt lat="48.601846" lon="10.130698">
        <ele>557.621570</ele>
        <time>2024-03-17T12:01:26.000Z</time>
      </trkpt>
      <trkpt lat="48.601732" lon="10.130605">
        <ele>558.124655</ele>
        <time>2024-03-17T12:01:28.000Z</time>
      </trkpt>
      <trkpt lat="48.601618" lon="10.130512">
        <ele>558.627740</ele>
        <time>2024-03-17T12:01:29.999Z</time>
      </trkpt>
      <trkpt lat="48.601506" lon="10.130419">
        <ele>559.124003</ele>
        <time>2024-03-17T12:01:31.999Z</time>
      </trkpt>
      <trkpt lat="48.601397" lon="10.130320">
        <ele>559.617840</ele>
        <time>2024-03-17T12:01:33.999Z</time>
      </trkpt>
      <trkpt lat="48.601289" lon="10.130221">
        <ele>560.108352</ele>
        <time>2024-03-17T12:01:35.999Z</time>
      </trkpt>
      <trkpt lat="48.601190" lon="10.130101">
        <ele>560.601138</ele>
        <time>2024-03-17T12:01:37.999Z</time>
      </trkpt>
      <trkpt lat="48.601103" lon="10.129969">
        <ele>561.079801</ele>
        <time>2024-03-17T12:01:39.999Z</time>
      </trkpt>
      <trkpt lat="48.601018" lon="10.129841">
        <ele>561.545707</ele>
        <time>2024-03-17T12:01:41.999Z</time>
      </trkpt>
      <trkpt lat="48.600935" lon="10.129720">
        <ele>561.993481</ele>
        <time>2024-03-17T12:01:43.999Z</time>
      </trkpt>
      <trkpt lat="48.600845" lon="10.129614">
        <ele>562.436548</ele>
        <time>2024-03-17T12:01:45.999Z</time>
      </trkpt>
      <trkpt lat="48.600750" lon="10.129527">
        <ele>562.867907</ele>
        <time>2024-03-17T12:01:47.999Z</time>
      </trkpt>
      <trkpt lat="48.600651" lon="10.129472">
        <ele>563.277542</ele>
        <time>2024-03-17T12:01:49.999Z</time>
      </trkpt>
      <trkpt lat="48.600546" lon="10.129444">
        <ele>563.691644</ele>
        <time>2024-03-17T12:01:51.999Z</time>
      </trkpt>
      <trkpt lat="48.600448" lon="10.129435">
        <ele>564.072968</ele>
        <time>2024-03-17T12:01:53.999Z</time>
      </trkpt>
      <trkpt lat="48.600351" lon="10.129426">
        <ele>564.494901</ele>
        <time>2024-03-17T12:01:55.999Z</time>
      </trkpt>
      <trkpt lat="48.600222" lon="10.129417">
        <ele>565.191249</ele>
        <time>2024-03-17T12:01:58.999Z</time>
      </trkpt>
      <trkpt lat="48.600128" lon="10.129414">
        <ele>565.698239</ele>
        <time>2024-03-17T12:02:00.999Z</time>
      </trkpt>
      <trkpt lat="48.600032" lon="10.129407">
        <ele>566.216502</ele>
        <time>2024-03-17T12:02:02.999Z</time>
      </trkpt>
      <trkpt lat="48.599933" lon="10.129389">
        <ele>566.754185</ele>
        <time>2024-03-17T12:02:05.999Z</time>
      </trkpt>
      <trkpt lat="48.599840" lon="10.129388">
        <ele>567.255682</ele>
        <time>2024-03-17T12:02:10.999Z</time>
      </trkpt>
      <trkpt lat="48.599725" lon="10.129377">
        <ele>567.877037</ele>
        <time>2024-03-17T12:02:13.999Z</time>
      </trkpt>
      <trkpt lat="48.599634" lon="10.129381">
        <ele>568.367944</ele>
        <time>2024-03-17T12:02:15.999Z</time>
      </trkpt>
      <trkpt lat="48.599536" lon="10.129386">
        <ele>568.896691</ele>
        <time>2024-03-17T12:02:17.999Z</time>
      </trkpt>
      <trkpt lat="48.599413" lon="10.129381">
        <ele>569.560184</ele>
        <time>2024-03-17T12:02:20.999Z</time>
      </trkpt>
      <trkpt lat="48.599353" lon="10.129275">
        <ele>570.057740</ele>
        <time>2024-03-17T12:02:22.999Z</time>
      </trkpt>
      <trkpt lat="48.599309" lon="10.129134">
        <ele>570.613719</ele>
        <time>2024-03-17T12:02:25.999Z</time>
      </trkpt>
      <trkpt lat="48.599273" lon="10.129006">
        <ele>571.109737</ele>
        <time>2024-03-17T12:02:28.999Z</time>
      </trkpt>
      <trkpt lat="48.599249" lon="10.128843">
        <ele>571.705235</ele>
        <time>2024-03-17T12:02:32.999Z</time>
      </trkpt>
      <trkpt lat="48.599239" lon="10.128708">
        <ele>572.189663</ele>
        <time>2024-03-17T12:02:35.999Z</time>
      </trkpt>
      <trkpt lat="48.599236" lon="10.128545">
        <ele>572.771154</ele>
        <time>2024-03-17T12:02:39.999Z</time>
      </trkpt>
      <trkpt lat="48.599220" lon="10.128376">
        <ele>573.379961</ele>
        <time>2024-03-17T12:02:44.000Z</time>
      </trkpt>
      <trkpt lat="48.599229" lon="10.128223">
        <ele>573.927721</ele>
        <time>2024-03-17T12:02:47.000Z</time>
      </trkpt>
      <trkpt lat="48.599257" lon="10.128056">
        <ele>574.442507</ele>
        <time>2024-03-17T12:02:50.000Z</time>
      </trkpt>
      <trkpt lat="48.599282" lon="10.127856">
        <ele>575.025883</ele>
        <time>2024-03-17T12:02:53.000Z</time>
      </trkpt>
      <trkpt lat="48.599306" lon="10.127716">
        <ele>575.440403</ele>
        <time>2024-03-17T12:02:55.000Z</time>
      </trkpt>
      <trkpt lat="48.599332" lon="10.127579">
        <ele>575.848911</ele>
        <time>2024-03-17T12:02:57.000Z</time>
      </trkpt>
      <trkpt lat="48.599345" lon="10.127431">
        <ele>576.276824</ele>
        <time>2024-03-17T12:02:59.000Z</time>
      </trkpt>
      <trkpt lat="48.599381" lon="10.127213">
        <ele>576.920825</ele>
        <time>2024-03-17T12:03:01.000Z</time>
      </trkpt>
      <trkpt lat="48.599404" lon="10.127046">
        <ele>577.409737</ele>
        <time>2024-03-17T12:03:03.000Z</time>
      </trkpt>
      <trkpt lat="48.599431" lon="10.126881">
        <ele>577.896909</ele>
        <time>2024-03-17T12:03:05.000Z</time>
      </trkpt>
      <trkpt lat="48.599454" lon="10.126700">
        <ele>578.425167</ele>
        <time>2024-03-17T12:03:07.000Z</time>
      </trkpt>
      <trkpt lat="48.599476" lon="10.126521">
        <ele>578.946988</ele>
        <time>2024-03-17T12:03:09.000Z</time>
      </trkpt>
      <trkpt lat="48.599494" lon="10.126348">
        <ele>579.448926</ele>
        <time>2024-03-17T12:03:11.000Z</time>
      </trkpt>
      <trkpt lat="48.599514" lon="10.126176">
        <ele>579.949460</ele>
        <time>2024-03-17T12:03:13.000Z</time>
      </trkpt>
      <trkpt lat="48.599544" lon="10.126012">
        <ele>580.437154</ele>
        <time>2024-03-17T12:03:15.000Z</time>
      </trkpt>
      <trkpt lat="48.599557" lon="10.125830">
        <ele>580.961821</ele>
        <time>2024-03-17T12:03:17.000Z</time>
      </trkpt>
      <trkpt lat="48.599575" lon="10.125661">
        <ele>581.452436</ele>
        <time>2024-03-17T12:03:19.000Z</time>
      </trkpt>
      <trkpt lat="48.599598" lon="10.125494">
        <ele>581.724313</ele>
        <time>2024-03-17T12:03:21.000Z</time>
      </trkpt>
      <trkpt lat="48.599608" lon="10.125321">
        <ele>581.252509</ele>
        <time>2024-03-17T12:03:23.000Z</time>
      </trkpt>
      <trkpt lat="48.599617" lon="10.125153">
        <ele>580.794586</ele>
        <time>2024-03-17T12:03:25.000Z</time>
      </trkpt>
      <trkpt lat="48.599610" lon="10.124975">
        <ele>580.310136</ele>
        <time>2024-03-17T12:03:27.000Z</time>
      </trkpt>
      <trkpt lat="48.599542" lon="10.124828">
        <ele>579.822754</ele>
        <time>2024-03-17T12:03:29.000Z</time>
      </trkpt>
      <trkpt lat="48.599445" lon="10.124730">
        <ele>579.343495</ele>
        <time>2024-03-17T12:03:31.000Z</time>
      </trkpt>
      <trkpt lat="48.599309" lon="10.124691">
        <ele>578.774820</ele>
        <time>2024-03-17T12:03:32.999Z</time>
      </trkpt>
      <trkpt lat="48.599163" lon="10.124669">
        <ele>578.172050</ele>
        <time>2024-03-17T12:03:34.999Z</time>
      </trkpt>
      <trkpt lat="48.599000" lon="10.124626">
        <ele>577.492297</ele>
        <time>2024-03-17T12:03:36.999Z</time>
      </trkpt>
      <trkpt lat="48.598856" lon="10.124501">
        <ele>576.810165</ele>
        <time>2024-03-17T12:03:38.999Z</time>
      </trkpt>
      <trkpt lat="48.598705" lon="10.124375">
        <ele>576.101638</ele>
        <time>2024-03-17T12:03:40.999Z</time>
      </trkpt>
      <trkpt lat="48.598643" lon="10.124261">
        <ele>575.700632</ele>
        <time>2024-03-17T12:03:41.999Z</time>
      </trkpt>
      <trkpt lat="48.598566" lon="10.124178">
        <ele>575.312151</ele>
        <time>2024-03-17T12:03:42.999Z</time>
      </trkpt>
      <trkpt lat="48.598471" lon="10.124131">
        <ele>574.901512</ele>
        <time>2024-03-17T12:03:43.999Z</time>
      </trkpt>
      <trkpt lat="48.598379" lon="10.124079">
        <ele>574.498015</ele>
        <time>2024-03-17T12:03:44.999Z</time>
      </trkpt>
      <trkpt lat="48.598283" lon="10.124039">
        <ele>574.131799</ele>
        <time>2024-03-17T12:03:45.999Z</time>
      </trkpt>
      <trkpt lat="48.598189" lon="10.123995">
        <ele>573.776811</ele>
        <time>2024-03-17T12:03:46.999Z</time>
      </trkpt>
      <trkpt lat="48.598092" lon="10.123961">
        <ele>573.417599</ele>
        <time>2024-03-17T12:03:47.999Z</time>
      </trkpt>
      <trkpt lat="48.597995" lon="10.123927">
        <ele>573.058387</ele>
        <time>2024-03-17T12:03:48.999Z</time>
      </trkpt>
      <trkpt lat="48.597899" lon="10.123894">
        <ele>572.703225</ele>
        <time>2024-03-17T12:03:49.999Z</time>
      </trkpt>
      <trkpt lat="48.597808" lon="10.123847">
        <ele>572.356314</ele>
        <time>2024-03-17T12:03:50.999Z</time>
      </trkpt>
      <trkpt lat="48.597710" lon="10.123817">
        <ele>571.995601</ele>
        <time>2024-03-17T12:03:51.999Z</time>
      </trkpt>
      <trkpt lat="48.597614" lon="10.123777">
        <ele>571.636367</ele>
        <time>2024-03-17T12:03:52.999Z</time>
      </trkpt>
      <trkpt lat="48.597518" lon="10.123737">
        <ele>571.277133</ele>
        <time>2024-03-17T12:03:53.999Z</time>
      </trkpt>
      <trkpt lat="48.597425" lon="10.123696">
        <ele>570.927660</ele>
        <time>2024-03-17T12:03:54.999Z</time>
      </trkpt>
      <trkpt lat="48.597331" lon="10.123653">
        <ele>570.573371</ele>
        <time>2024-03-17T12:03:55.999Z</time>
      </trkpt>
      <trkpt lat="48.597238" lon="10.123618">
        <ele>570.227632</ele>
        <time>2024-03-17T12:03:56.999Z</time>
      </trkpt>
      <trkpt lat="48.597144" lon="10.123579">
        <ele>569.875987</ele>
        <time>2024-03-17T12:03:57.999Z</time>
      </trkpt>
      <trkpt lat="48.597050" lon="10.123540">
        <ele>569.524343</ele>
        <time>2024-03-17T12:03:58.999Z</time>
      </trkpt>
      <trkpt lat="48.596956" lon="10.123507">
        <ele>569.176212</ele>
        <time>2024-03-17T12:03:59.999Z</time>
      </trkpt>
      <trkpt lat="48.596865" lon="10.123470">
        <ele>568.836262</ele>
        <time>2024-03-17T12:04:00.999Z</time>
      </trkpt>
      <trkpt lat="48.596772" lon="10.123430">
        <ele>568.487450</ele>
        <time>2024-03-17T12:04:01.999Z</time>
      </trkpt>
      <trkpt lat="48.596680" lon="10.123385">
        <ele>568.138621</ele>
        <time>2024-03-17T12:04:02.999Z</time>
      </trkpt>
      <trkpt lat="48.596589" lon="10.123335">
        <ele>567.750840</ele>
        <time>2024-03-17T12:04:03.999Z</time>
      </trkpt>
      <trkpt lat="48.596499" lon="10.123284">
        <ele>567.322069</ele>
        <time>2024-03-17T12:04:04.999Z</time>
      </trkpt>
      <trkpt lat="48.596413" lon="10.123230">
        <ele>566.906647</ele>
        <time>2024-03-17T12:04:05.999Z</time>
      </trkpt>
      <trkpt lat="48.596329" lon="10.123170">
        <ele>566.492203</ele>
        <time>2024-03-17T12:04:06.999Z</time>
      </trkpt>
      <trkpt lat="48.596245" lon="10.123108">
        <ele>566.075204</ele>
        <time>2024-03-17T12:04:07.999Z</time>
      </trkpt>
      <trkpt lat="48.596160" lon="10.123050">
        <ele>565.659184</ele>
        <time>2024-03-17T12:04:08.999Z</time>
      </trkpt>
      <trkpt lat="48.596078" lon="10.122985">
        <ele>565.246150</ele>
        <time>2024-03-17T12:04:09.999Z</time>
      </trkpt>
      <trkpt lat="48.596000" lon="10.122916">
        <ele>564.843004</ele>
        <time>2024-03-17T12:04:10.999Z</time>
      </trkpt>
      <trkpt lat="48.595923" lon="10.122844">
        <ele>564.439118</ele>
        <time>2024-03-17T12:04:11.999Z</time>
      </trkpt>
      <trkpt lat="48.595845" lon="10.122770">
        <ele>564.028326</ele>
        <time>2024-03-17T12:04:12.999Z</time>
      </trkpt>
      <trkpt lat="48.595773" lon="10.122689">
        <ele>563.627971</ele>
        <time>2024-03-17T12:04:13.999Z</time>
      </trkpt>
      <trkpt lat="48.595709" lon="10.122583">
        <ele>563.204499</ele>
        <time>2024-03-17T12:04:14.999Z</time>
      </trkpt>
      <trkpt lat="48.595652" lon="10.122471">
        <ele>562.787537</ele>
        <time>2024-03-17T12:04:15.999Z</time>
      </trkpt>
      <trkpt lat="48.595598" lon="10.122353">
        <ele>562.364165</ele>
        <time>2024-03-17T12:04:16.999Z</time>
      </trkpt>
      <trkpt lat="48.595547" lon="10.122235">
        <ele>561.948262</ele>
        <time>2024-03-17T12:04:17.999Z</time>
      </trkpt>
      <trkpt lat="48.595498" lon="10.122115">
        <ele>561.532163</ele>
        <time>2024-03-17T12:04:18.999Z</time>
      </trkpt>
      <trkpt lat="48.595449" lon="10.121995">
        <ele>561.116063</ele>
        <time>2024-03-17T12:04:19.999Z</time>
      </trkpt>
      <trkpt lat="48.595404" lon="10.121877">
        <ele>560.714177</ele>
        <time>2024-03-17T12:04:20.999Z</time>
      </trkpt>
      <trkpt lat="48.595357" lon="10.121758">
        <ele>560.305230</ele>
        <time>2024-03-17T12:04:21.999Z</time>
      </trkpt>
      <trkpt lat="48.595308" lon="10.121636">
        <ele>559.894471</ele>
        <time>2024-03-17T12:04:22.999Z</time>
      </trkpt>
      <trkpt lat="48.595257" lon="10.121516">
        <ele>559.572996</ele>
        <time>2024-03-17T12:04:23.999Z</time>
      </trkpt>
      <trkpt lat="48.595208" lon="10.121391">
        <ele>559.245511</ele>
        <time>2024-03-17T12:04:24.999Z</time>
      </trkpt>
      <trkpt lat="48.595159" lon="10.121260">
        <ele>558.906323</ele>
        <time>2024-03-17T12:04:25.999Z</time>
      </trkpt>
      <trkpt lat="48.595107" lon="10.121131">
        <ele>558.565844</ele>
        <time>2024-03-17T12:04:26.999Z</time>
      </trkpt>
      <trkpt lat="48.595054" lon="10.120996">
        <ele>558.212020</ele>
        <time>2024-03-17T12:04:27.999Z</time>
      </trkpt>
      <trkpt lat="48.595003" lon="10.120862">
        <ele>557.863582</ele>
        <time>2024-03-17T12:04:28.999Z</time>
      </trkpt>
      <trkpt lat="48.594954" lon="10.120723">
        <ele>557.508588</ele>
        <time>2024-03-17T12:04:29.999Z</time>
      </trkpt>
      <trkpt lat="48.594905" lon="10.120586">
        <ele>557.157565</ele>
        <time>2024-03-17T12:04:30.999Z</time>
      </trkpt>
      <trkpt lat="48.594856" lon="10.120452">
        <ele>556.812474</ele>
        <time>2024-03-17T12:04:31.999Z</time>
      </trkpt>
      <trkpt lat="48.594810" lon="10.120318">
        <ele>556.472212</ele>
        <time>2024-03-17T12:04:32.999Z</time>
      </trkpt>
      <trkpt lat="48.594766" lon="10.120187">
        <ele>556.141077</ele>
        <time>2024-03-17T12:04:33.999Z</time>
      </trkpt>
      <trkpt lat="48.594721" lon="10.120059">
        <ele>555.814371</ele>
        <time>2024-03-17T12:04:34.999Z</time>
      </trkpt>
      <trkpt lat="48.594674" lon="10.119933">
        <ele>555.488344</ele>
        <time>2024-03-17T12:04:35.999Z</time>
      </trkpt>
      <trkpt lat="48.594624" lon="10.119812">
        <ele>555.166786</ele>
        <time>2024-03-17T12:04:36.999Z</time>
      </trkpt>
      <trkpt lat="48.594568" lon="10.119700">
        <ele>554.850348</ele>
        <time>2024-03-17T12:04:37.999Z</time>
      </trkpt>
      <trkpt lat="48.594508" lon="10.119595">
        <ele>554.537609</ele>
        <time>2024-03-17T12:04:38.999Z</time>
      </trkpt>
      <trkpt lat="48.594381" lon="10.119405">
        <ele>553.928786</ele>
        <time>2024-03-17T12:04:40.999Z</time>
      </trkpt>
      <trkpt lat="48.594259" lon="10.119225">
        <ele>553.854605</ele>
        <time>2024-03-17T12:04:42.999Z</time>
      </trkpt>
      <trkpt lat="48.594145" lon="10.119052">
        <ele>553.922673</ele>
        <time>2024-03-17T12:04:44.999Z</time>
      </trkpt>
      <trkpt lat="48.594023" lon="10.118880">
        <ele>553.992971</ele>
        <time>2024-03-17T12:04:46.999Z</time>
      </trkpt>
      <trkpt lat="48.593904" lon="10.118700">
        <ele>554.063908</ele>
        <time>2024-03-17T12:04:49.000Z</time>
      </trkpt>
      <trkpt lat="48.593789" lon="10.118517">
        <ele>554.134268</ele>
        <time>2024-03-17T12:04:51.000Z</time>
      </trkpt>
      <trkpt lat="48.593675" lon="10.118333">
        <ele>554.204542</ele>
        <time>2024-03-17T12:04:53.000Z</time>
      </trkpt>
      <trkpt lat="48.593556" lon="10.118152">
        <ele>554.275678</ele>
        <time>2024-03-17T12:04:55.000Z</time>
      </trkpt>
      <trkpt lat="48.593441" lon="10.117972">
        <ele>554.345434</ele>
        <time>2024-03-17T12:04:57.000Z</time>
      </trkpt>
      <trkpt lat="48.593325" lon="10.117792">
        <ele>554.415484</ele>
        <time>2024-03-17T12:04:59.000Z</time>
      </trkpt>
      <trkpt lat="48.593213" lon="10.117601">
        <ele>554.486633</ele>
        <time>2024-03-17T12:05:01.000Z</time>
      </trkpt>
      <trkpt lat="48.593112" lon="10.117405">
        <ele>554.555888</ele>
        <time>2024-03-17T12:05:03.000Z</time>
      </trkpt>
      <trkpt lat="48.593015" lon="10.117208">
        <ele>555.037602</ele>
        <time>2024-03-17T12:05:05.000Z</time>
      </trkpt>
      <trkpt lat="48.592932" lon="10.116999">
        <ele>555.521522</ele>
        <time>2024-03-17T12:05:07.000Z</time>
      </trkpt>
      <trkpt lat="48.592857" lon="10.116786">
        <ele>556.000526</ele>
        <time>2024-03-17T12:05:09.000Z</time>
      </trkpt>
      <trkpt lat="48.592791" lon="10.116577">
        <ele>556.460268</ele>
        <time>2024-03-17T12:05:11.000Z</time>
      </trkpt>
      <trkpt lat="48.592730" lon="10.116368">
        <ele>556.913747</ele>
        <time>2024-03-17T12:05:13.000Z</time>
      </trkpt>
      <trkpt lat="48.592679" lon="10.116179">
        <ele>557.318948</ele>
        <time>2024-03-17T12:05:15.000Z</time>
      </trkpt>
      <trkpt lat="48.592623" lon="10.116001">
        <ele>557.710228</ele>
        <time>2024-03-17T12:05:17.000Z</time>
      </trkpt>
      <trkpt lat="48.592522" lon="10.115876">
        <ele>558.101966</ele>
        <time>2024-03-17T12:05:19.000Z</time>
      </trkpt>
      <trkpt lat="48.592426" lon="10.115742">
        <ele>558.494104</ele>
        <time>2024-03-17T12:05:21.000Z</time>
      </trkpt>
      <trkpt lat="48.592319" lon="10.115619">
        <ele>558.897522</ele>
        <time>2024-03-17T12:05:23.000Z</time>
      </trkpt>
      <trkpt lat="48.592239" lon="10.115433">
        <ele>559.337952</ele>
        <time>2024-03-17T12:05:25.000Z</time>
      </trkpt>
      <trkpt lat="48.592088" lon="10.115373">
        <ele>559.806536</ele>
        <time>2024-03-17T12:05:27.000Z</time>
      </trkpt>
      <trkpt lat="48.591931" lon="10.115360">
        <ele>560.234604</ele>
        <time>2024-03-17T12:05:29.000Z</time>
      </trkpt>
      <trkpt lat="48.591791" lon="10.115245">
        <ele>560.647962</ele>
        <time>2024-03-17T12:05:31.000Z</time>
      </trkpt>
      <trkpt lat="48.591680" lon="10.115082">
        <ele>561.049415</ele>
        <time>2024-03-17T12:05:33.000Z</time>
      </trkpt>
      <trkpt lat="48.591601" lon="10.114892">
        <ele>561.434521</ele>
        <time>2024-03-17T12:05:35.000Z</time>
      </trkpt>
      <trkpt lat="48.591556" lon="10.114689">
        <ele>561.801908</ele>
        <time>2024-03-17T12:05:37.000Z</time>
      </trkpt>
      <trkpt lat="48.591537" lon="10.114481">
        <ele>562.162219</ele>
        <time>2024-03-17T12:05:39.000Z</time>
      </trkpt>
      <trkpt lat="48.591539" lon="10.114265">
        <ele>562.532907</ele>
        <time>2024-03-17T12:05:40.999Z</time>
      </trkpt>
      <trkpt lat="48.591562" lon="10.114063">
        <ele>562.884634</ele>
        <time>2024-03-17T12:05:42.999Z</time>
      </trkpt>
      <trkpt lat="48.591579" lon="10.113857">
        <ele>563.240867</ele>
        <time>2024-03-17T12:05:44.999Z</time>
      </trkpt>
      <trkpt lat="48.591584" lon="10.113656">
        <ele>563.586022</ele>
        <time>2024-03-17T12:05:46.999Z</time>
      </trkpt>
      <trkpt lat="48.591582" lon="10.113450">
        <ele>563.939552</ele>
        <time>2024-03-17T12:05:48.999Z</time>
      </trkpt>
      <trkpt lat="48.591567" lon="10.113239">
        <ele>564.303709</ele>
        <time>2024-03-17T12:05:50.999Z</time>
      </trkpt>
      <trkpt lat="48.591542" lon="10.113023">
        <ele>564.686059</ele>
        <time>2024-03-17T12:05:52.999Z</time>
      </trkpt>
      <trkpt lat="48.591504" lon="10.112811">
        <ele>565.102020</ele>
        <time>2024-03-17T12:05:54.999Z</time>
      </trkpt>
      <trkpt lat="48.591448" lon="10.112603">
        <ele>565.527308</ele>
        <time>2024-03-17T12:05:56.999Z</time>
      </trkpt>
      <trkpt lat="48.591390" lon="10.112414">
        <ele>565.921880</ele>
        <time>2024-03-17T12:05:58.999Z</time>
      </trkpt>
      <trkpt lat="48.591329" lon="10.112253">
        <ele>566.273258</ele>
        <time>2024-03-17T12:06:00.999Z</time>
      </trkpt>
      <trkpt lat="48.591283" lon="10.112101">
        <ele>566.589813</ele>
        <time>2024-03-17T12:06:02.999Z</time>
      </trkpt>
      <trkpt lat="48.591232" lon="10.111982">
        <ele>566.858346</ele>
        <time>2024-03-17T12:06:04.999Z</time>
      </trkpt>
      <trkpt lat="48.591180" lon="10.111862">
        <ele>567.130028</ele>
        <time>2024-03-17T12:06:06.999Z</time>
      </trkpt>
      <trkpt lat="48.591120" lon="10.111700">
        <ele>567.481645</ele>
        <time>2024-03-17T12:06:09.999Z</time>
      </trkpt>
      <trkpt lat="48.591046" lon="10.111544">
        <ele>567.845198</ele>
        <time>2024-03-17T12:06:12.999Z</time>
      </trkpt>
      <trkpt lat="48.590989" lon="10.111430">
        <ele>568.115835</ele>
        <time>2024-03-17T12:06:14.999Z</time>
      </trkpt>
      <trkpt lat="48.590932" lon="10.111313">
        <ele>568.391025</ele>
        <time>2024-03-17T12:06:16.999Z</time>
      </trkpt>
      <trkpt lat="48.590847" lon="10.111162">
        <ele>568.766530</ele>
        <time>2024-03-17T12:06:19.999Z</time>
      </trkpt>
      <trkpt lat="48.590780" lon="10.111056">
        <ele>569.044195</ele>
        <time>2024-03-17T12:06:21.999Z</time>
      </trkpt>
      <trkpt lat="48.590702" lon="10.110945">
        <ele>569.350894</ele>
        <time>2024-03-17T12:06:23.999Z</time>
      </trkpt>
      <trkpt lat="48.590621" lon="10.110826">
        <ele>569.674274</ele>
        <time>2024-03-17T12:06:25.999Z</time>
      </trkpt>
      <trkpt lat="48.590533" lon="10.110694">
        <ele>569.816479</ele>
        <time>2024-03-17T12:06:27.999Z</time>
      </trkpt>
      <trkpt lat="48.590442" lon="10.110550">
        <ele>569.882566</ele>
        <time>2024-03-17T12:06:29.999Z</time>
      </trkpt>
      <trkpt lat="48.590347" lon="10.110410">
        <ele>569.949123</ele>
        <time>2024-03-17T12:06:31.999Z</time>
      </trkpt>
      <trkpt lat="48.590254" lon="10.110265">
        <ele>570.016146</ele>
        <time>2024-03-17T12:06:33.999Z</time>
      </trkpt>
      <trkpt lat="48.590181" lon="10.110101">
        <ele>570.081743</ele>
        <time>2024-03-17T12:06:35.999Z</time>
      </trkpt>
      <trkpt lat="48.590119" lon="10.109934">
        <ele>570.145292</ele>
        <time>2024-03-17T12:06:37.999Z</time>
      </trkpt>
      <trkpt lat="48.590066" lon="10.109760">
        <ele>570.208860</ele>
        <time>2024-03-17T12:06:39.999Z</time>
      </trkpt>
      <trkpt lat="48.590024" lon="10.109574">
        <ele>570.274080</ele>
        <time>2024-03-17T12:06:41.999Z</time>
      </trkpt>
      <trkpt lat="48.589986" lon="10.109389">
        <ele>570.338362</ele>
        <time>2024-03-17T12:06:43.999Z</time>
      </trkpt>
      <trkpt lat="48.589953" lon="10.109197">
        <ele>570.404191</ele>
        <time>2024-03-17T12:06:45.999Z</time>
      </trkpt>
      <trkpt lat="48.589922" lon="10.109024">
        <ele>570.463669</ele>
        <time>2024-03-17T12:06:47.999Z</time>
      </trkpt>
      <trkpt lat="48.589898" lon="10.108837">
        <ele>570.526880</ele>
        <time>2024-03-17T12:06:49.999Z</time>
      </trkpt>
      <trkpt lat="48.589872" lon="10.108647">
        <ele>570.591265</ele>
        <time>2024-03-17T12:06:51.999Z</time>
      </trkpt>
      <trkpt lat="48.589858" lon="10.108448">
        <ele>570.657673</ele>
        <time>2024-03-17T12:06:53.999Z</time>
      </trkpt>
      <trkpt lat="48.589874" lon="10.108244">
        <ele>570.710717</ele>
        <time>2024-03-17T12:06:56.000Z</time>
      </trkpt>
      <trkpt lat="48.589901" lon="10.108026">
        <ele>570.762988</ele>
        <time>2024-03-17T12:06:58.000Z</time>
      </trkpt>
      <trkpt lat="48.589945" lon="10.107811">
        <ele>570.816028</ele>
        <time>2024-03-17T12:07:00.000Z</time>
      </trkpt>
      <trkpt lat="48.589986" lon="10.107616">
        <ele>570.864251</ele>
        <time>2024-03-17T12:07:02.000Z</time>
      </trkpt>
      <trkpt lat="48.590027" lon="10.107424">
        <ele>570.911800</ele>
        <time>2024-03-17T12:07:04.000Z</time>
      </trkpt>
      <trkpt lat="48.590064" lon="10.107226">
        <ele>570.960291</ele>
        <time>2024-03-17T12:07:06.000Z</time>
      </trkpt>
      <trkpt lat="48.590096" lon="10.107028">
        <ele>571.008327</ele>
        <time>2024-03-17T12:07:08.000Z</time>
      </trkpt>
      <trkpt lat="48.590137" lon="10.106833">
        <ele>571.056550</ele>
        <time>2024-03-17T12:07:10.000Z</time>
      </trkpt>
      <trkpt lat="48.590167" lon="10.106628">
        <ele>571.106032</ele>
        <time>2024-03-17T12:07:12.000Z</time>
      </trkpt>
      <trkpt lat="48.590203" lon="10.106421">
        <ele>571.156475</ele>
        <time>2024-03-17T12:07:14.000Z</time>
      </trkpt>
      <trkpt lat="48.590242" lon="10.106227">
        <ele>571.204261</ele>
        <time>2024-03-17T12:07:16.000Z</time>
      </trkpt>
      <trkpt lat="48.590281" lon="10.106045">
        <ele>571.249348</ele>
        <time>2024-03-17T12:07:18.000Z</time>
      </trkpt>
      <trkpt lat="48.590316" lon="10.105874">
        <ele>571.291534</ele>
        <time>2024-03-17T12:07:20.000Z</time>
      </trkpt>
      <trkpt lat="48.590272" lon="10.105676">
        <ele>571.210895</ele>
        <time>2024-03-17T12:07:22.000Z</time>
      </trkpt>
      <trkpt lat="48.590203" lon="10.105485">
        <ele>571.008406</ele>
        <time>2024-03-17T12:07:24.000Z</time>
      </trkpt>
      <trkpt lat="48.590144" lon="10.105264">
        <ele>570.786664</ele>
        <time>2024-03-17T12:07:26.000Z</time>
      </trkpt>
      <trkpt lat="48.590099" lon="10.105032">
        <ele>570.561715</ele>
        <time>2024-03-17T12:07:28.000Z</time>
      </trkpt>
      <trkpt lat="48.590048" lon="10.104792">
        <ele>570.327171</ele>
        <time>2024-03-17T12:07:30.000Z</time>
      </trkpt>
      <trkpt lat="48.590003" lon="10.104538">
        <ele>570.082512</ele>
        <time>2024-03-17T12:07:32.000Z</time>
      </trkpt>
      <trkpt lat="48.589951" lon="10.104285">
        <ele>569.836010</ele>
        <time>2024-03-17T12:07:34.000Z</time>
      </trkpt>
      <trkpt lat="48.589886" lon="10.104052">
        <ele>569.600727</ele>
        <time>2024-03-17T12:07:36.000Z</time>
      </trkpt>
      <trkpt lat="48.589842" lon="10.103820">
        <ele>569.376168</ele>
        <time>2024-03-17T12:07:38.000Z</time>
      </trkpt>
      <trkpt lat="48.589798" lon="10.103588">
        <ele>569.151610</ele>
        <time>2024-03-17T12:07:40.000Z</time>
      </trkpt>
      <trkpt lat="48.589758" lon="10.103361">
        <ele>568.933035</ele>
        <time>2024-03-17T12:07:42.000Z</time>
      </trkpt>
      <trkpt lat="48.589762" lon="10.103110">
        <ele>568.763023</ele>
        <time>2024-03-17T12:07:44.000Z</time>
      </trkpt>
      <trkpt lat="48.589784" lon="10.102865">
        <ele>568.705106</ele>
        <time>2024-03-17T12:07:46.000Z</time>
      </trkpt>
      <trkpt lat="48.589805" lon="10.102620">
        <ele>568.647235</ele>
        <time>2024-03-17T12:07:48.000Z</time>
      </trkpt>
      <trkpt lat="48.589829" lon="10.102377">
        <ele>568.589682</ele>
        <time>2024-03-17T12:07:50.000Z</time>
      </trkpt>
      <trkpt lat="48.589853" lon="10.102136">
        <ele>568.532592</ele>
        <time>2024-03-17T12:07:51.999Z</time>
      </trkpt>
      <trkpt lat="48.589867" lon="10.101892">
        <ele>568.475221</ele>
        <time>2024-03-17T12:07:53.999Z</time>
      </trkpt>
      <trkpt lat="48.589866" lon="10.101645">
        <ele>568.417361</ele>
        <time>2024-03-17T12:07:55.999Z</time>
      </trkpt>
      <trkpt lat="48.589848" lon="10.101402">
        <ele>568.360082</ele>
        <time>2024-03-17T12:07:57.999Z</time>
      </trkpt>
      <trkpt lat="48.589807" lon="10.101156">
        <ele>568.300656</ele>
        <time>2024-03-17T12:07:59.999Z</time>
      </trkpt>
      <trkpt lat="48.589753" lon="10.100907">
        <ele>568.239273</ele>
        <time>2024-03-17T12:08:01.999Z</time>
      </trkpt>
      <trkpt lat="48.589690" lon="10.100664">
        <ele>568.178134</ele>
        <time>2024-03-17T12:08:03.999Z</time>
      </trkpt>
      <trkpt lat="48.589609" lon="10.100429">
        <ele>568.003140</ele>
        <time>2024-03-17T12:08:05.999Z</time>
      </trkpt>
      <trkpt lat="48.589534" lon="10.100207">
        <ele>567.734610</ele>
        <time>2024-03-17T12:08:07.999Z</time>
      </trkpt>
      <trkpt lat="48.589449" lon="10.099997">
        <ele>567.469400</ele>
        <time>2024-03-17T12:08:09.999Z</time>
      </trkpt>
      <trkpt lat="48.589357" lon="10.099776">
        <ele>567.188109</ele>
        <time>2024-03-17T12:08:11.999Z</time>
      </trkpt>
      <trkpt lat="48.589266" lon="10.099566">
        <ele>566.917670</ele>
        <time>2024-03-17T12:08:13.999Z</time>
      </trkpt>
      <trkpt lat="48.589201" lon="10.099327">
        <ele>566.639299</ele>
        <time>2024-03-17T12:08:15.999Z</time>
      </trkpt>
      <trkpt lat="48.589130" lon="10.099093">
        <ele>566.361972</ele>
        <time>2024-03-17T12:08:17.999Z</time>
      </trkpt>
      <trkpt lat="48.589058" lon="10.098863">
        <ele>566.087863</ele>
        <time>2024-03-17T12:08:19.999Z</time>
      </trkpt>
      <trkpt lat="48.588992" lon="10.098630">
        <ele>565.814822</ele>
        <time>2024-03-17T12:08:21.999Z</time>
      </trkpt>
      <trkpt lat="48.588934" lon="10.098392">
        <ele>565.541594</ele>
        <time>2024-03-17T12:08:23.999Z</time>
      </trkpt>
      <trkpt lat="48.588877" lon="10.098152">
        <ele>565.266897</ele>
        <time>2024-03-17T12:08:25.999Z</time>
      </trkpt>
      <trkpt lat="48.588839" lon="10.097903">
        <ele>565.072536</ele>
        <time>2024-03-17T12:08:27.999Z</time>
      </trkpt>
      <trkpt lat="48.588817" lon="10.097649">
        <ele>564.895128</ele>
        <time>2024-03-17T12:08:29.999Z</time>
      </trkpt>
      <trkpt lat="48.588802" lon="10.097391">
        <ele>564.715762</ele>
        <time>2024-03-17T12:08:31.999Z</time>
      </trkpt>
      <trkpt lat="48.588792" lon="10.097138">
        <ele>564.540235</ele>
        <time>2024-03-17T12:08:33.999Z</time>
      </trkpt>
      <trkpt lat="48.588796" lon="10.096892">
        <ele>564.369817</ele>
        <time>2024-03-17T12:08:35.999Z</time>
      </trkpt>
      <trkpt lat="48.588794" lon="10.096632">
        <ele>564.189743</ele>
        <time>2024-03-17T12:08:37.999Z</time>
      </trkpt>
      <trkpt lat="48.588790" lon="10.096375">
        <ele>564.011709</ele>
        <time>2024-03-17T12:08:39.999Z</time>
      </trkpt>
      <trkpt lat="48.588770" lon="10.096121">
        <ele>563.834560</ele>
        <time>2024-03-17T12:08:41.999Z</time>
      </trkpt>
      <trkpt lat="48.588740" lon="10.095878">
        <ele>563.663365</ele>
        <time>2024-03-17T12:08:43.999Z</time>
      </trkpt>
      <trkpt lat="48.588706" lon="10.095633">
        <ele>563.489997</ele>
        <time>2024-03-17T12:08:45.999Z</time>
      </trkpt>
      <trkpt lat="48.588667" lon="10.095394">
        <ele>563.293293</ele>
        <time>2024-03-17T12:08:47.999Z</time>
      </trkpt>
      <trkpt lat="48.588626" lon="10.095169">
        <ele>562.858505</ele>
        <time>2024-03-17T12:08:49.999Z</time>
      </trkpt>
      <trkpt lat="48.588584" lon="10.094938">
        <ele>562.412192</ele>
        <time>2024-03-17T12:08:51.999Z</time>
      </trkpt>
      <trkpt lat="48.588533" lon="10.094709">
        <ele>561.962034</ele>
        <time>2024-03-17T12:08:53.999Z</time>
      </trkpt>
      <trkpt lat="48.588478" lon="10.094488">
        <ele>561.522135</ele>
        <time>2024-03-17T12:08:55.999Z</time>
      </trkpt>
      <trkpt lat="48.588420" lon="10.094264">
        <ele>561.073990</ele>
        <time>2024-03-17T12:08:57.999Z</time>
      </trkpt>
      <trkpt lat="48.588347" lon="10.094044">
        <ele>560.615451</ele>
        <time>2024-03-17T12:08:59.999Z</time>
      </trkpt>
      <trkpt lat="48.588255" lon="10.093833">
        <ele>560.144639</ele>
        <time>2024-03-17T12:09:02.000Z</time>
      </trkpt>
      <trkpt lat="48.588154" lon="10.093632">
        <ele>559.674380</ele>
        <time>2024-03-17T12:09:04.000Z</time>
      </trkpt>
      <trkpt lat="48.588038" lon="10.093436">
        <ele>559.184405</ele>
        <time>2024-03-17T12:09:06.000Z</time>
      </trkpt>
      <trkpt lat="48.587914" lon="10.093253">
        <ele>558.696342</ele>
        <time>2024-03-17T12:09:08.000Z</time>
      </trkpt>
      <trkpt lat="48.587846" lon="10.093163">
        <ele>558.441795</ele>
        <time>2024-03-17T12:09:09.000Z</time>
      </trkpt>
      <trkpt lat="48.587701" lon="10.093013">
        <ele>557.595338</ele>
        <time>2024-03-17T12:09:11.000Z</time>
      </trkpt>
      <trkpt lat="48.587625" lon="10.092938">
        <ele>557.060802</ele>
        <time>2024-03-17T12:09:12.000Z</time>
      </trkpt>
      <trkpt lat="48.587547" lon="10.092867">
        <ele>556.524565</ele>
        <time>2024-03-17T12:09:13.000Z</time>
      </trkpt>
      <trkpt lat="48.587463" lon="10.092808">
        <ele>555.979047</ele>
        <time>2024-03-17T12:09:14.000Z</time>
      </trkpt>
      <trkpt lat="48.587375" lon="10.092753">
        <ele>555.418214</ele>
        <time>2024-03-17T12:09:15.000Z</time>
      </trkpt>
      <trkpt lat="48.587292" lon="10.092690">
        <ele>554.871219</ele>
        <time>2024-03-17T12:09:16.000Z</time>
      </trkpt>
      <trkpt lat="48.587205" lon="10.092626">
        <ele>554.301377</ele>
        <time>2024-03-17T12:09:17.000Z</time>
      </trkpt>
      <trkpt lat="48.587117" lon="10.092557">
        <ele>553.717526</ele>
        <time>2024-03-17T12:09:18.000Z</time>
      </trkpt>
      <trkpt lat="48.587027" lon="10.092490">
        <ele>553.126676</ele>
        <time>2024-03-17T12:09:19.000Z</time>
      </trkpt>
      <trkpt lat="48.586937" lon="10.092425">
        <ele>552.539226</ele>
        <time>2024-03-17T12:09:20.000Z</time>
      </trkpt>
      <trkpt lat="48.586844" lon="10.092354">
        <ele>551.925609</ele>
        <time>2024-03-17T12:09:21.000Z</time>
      </trkpt>
      <trkpt lat="48.586749" lon="10.092274">
        <ele>551.285144</ele>
        <time>2024-03-17T12:09:22.000Z</time>
      </trkpt>
      <trkpt lat="48.586656" lon="10.092191">
        <ele>550.649081</ele>
        <time>2024-03-17T12:09:23.000Z</time>
      </trkpt>
      <trkpt lat="48.586561" lon="10.092103">
        <ele>549.992883</ele>
        <time>2024-03-17T12:09:24.000Z</time>
      </trkpt>
      <trkpt lat="48.586466" lon="10.092010">
        <ele>549.326300</ele>
        <time>2024-03-17T12:09:25.000Z</time>
      </trkpt>
      <trkpt lat="48.586372" lon="10.091912">
        <ele>548.653788</ele>
        <time>2024-03-17T12:09:26.000Z</time>
      </trkpt>
      <trkpt lat="48.586275" lon="10.091809">
        <ele>547.955646</ele>
        <time>2024-03-17T12:09:27.000Z</time>
      </trkpt>
      <trkpt lat="48.586180" lon="10.091700">
        <ele>547.327182</ele>
        <time>2024-03-17T12:09:28.000Z</time>
      </trkpt>
      <trkpt lat="48.586088" lon="10.091585">
        <ele>546.747128</ele>
        <time>2024-03-17T12:09:29.000Z</time>
      </trkpt>
      <trkpt lat="48.585998" lon="10.091458">
        <ele>546.148904</ele>
        <time>2024-03-17T12:09:30.000Z</time>
      </trkpt>
      <trkpt lat="48.585912" lon="10.091323">
        <ele>545.546488</ele>
        <time>2024-03-17T12:09:31.000Z</time>
      </trkpt>
      <trkpt lat="48.585828" lon="10.091187">
        <ele>544.948426</ele>
        <time>2024-03-17T12:09:32.000Z</time>
      </trkpt>
      <trkpt lat="48.585748" lon="10.091049">
        <ele>544.358637</ele>
        <time>2024-03-17T12:09:33.000Z</time>
      </trkpt>
      <trkpt lat="48.585666" lon="10.090911">
        <ele>543.762397</ele>
        <time>2024-03-17T12:09:34.000Z</time>
      </trkpt>
      <trkpt lat="48.585592" lon="10.090770">
        <ele>543.183877</ele>
        <time>2024-03-17T12:09:35.000Z</time>
      </trkpt>
      <trkpt lat="48.585522" lon="10.090627">
        <ele>542.612078</ele>
        <time>2024-03-17T12:09:36.000Z</time>
      </trkpt>
      <trkpt lat="48.585456" lon="10.090481">
        <ele>542.043687</ele>
        <time>2024-03-17T12:09:37.000Z</time>
      </trkpt>
      <trkpt lat="48.585390" lon="10.090332">
        <ele>541.467309</ele>
        <time>2024-03-17T12:09:38.000Z</time>
      </trkpt>
      <trkpt lat="48.585332" lon="10.090182">
        <ele>540.908846</ele>
        <time>2024-03-17T12:09:39.000Z</time>
      </trkpt>
      <trkpt lat="48.585276" lon="10.090033">
        <ele>540.358020</ele>
        <time>2024-03-17T12:09:40.000Z</time>
      </trkpt>
      <trkpt lat="48.585219" lon="10.089885">
        <ele>539.807557</ele>
        <time>2024-03-17T12:09:41.000Z</time>
      </trkpt>
      <trkpt lat="48.585162" lon="10.089739">
        <ele>539.262640</ele>
        <time>2024-03-17T12:09:42.000Z</time>
      </trkpt>
      <trkpt lat="48.585105" lon="10.089593">
        <ele>538.801705</ele>
        <time>2024-03-17T12:09:43.000Z</time>
      </trkpt>
      <trkpt lat="48.585049" lon="10.089451">
        <ele>538.474561</ele>
        <time>2024-03-17T12:09:44.000Z</time>
      </trkpt>
      <trkpt lat="48.584994" lon="10.089311">
        <ele>538.152347</ele>
        <time>2024-03-17T12:09:45.000Z</time>
      </trkpt>
      <trkpt lat="48.584939" lon="10.089170">
        <ele>537.828431</ele>
        <time>2024-03-17T12:09:46.000Z</time>
      </trkpt>
      <trkpt lat="48.584886" lon="10.089032">
        <ele>537.512659</ele>
        <time>2024-03-17T12:09:47.000Z</time>
      </trkpt>
      <trkpt lat="48.584834" lon="10.088892">
        <ele>537.194933</ele>
        <time>2024-03-17T12:09:48.000Z</time>
      </trkpt>
      <trkpt lat="48.584783" lon="10.088753">
        <ele>536.880393</ele>
        <time>2024-03-17T12:09:49.000Z</time>
      </trkpt>
      <trkpt lat="48.584732" lon="10.088612">
        <ele>536.562386</ele>
        <time>2024-03-17T12:09:49.999Z</time>
      </trkpt>
      <trkpt lat="48.584681" lon="10.088473">
        <ele>536.247845</ele>
        <time>2024-03-17T12:09:50.999Z</time>
      </trkpt>
      <trkpt lat="48.584635" lon="10.088333">
        <ele>535.938510</ele>
        <time>2024-03-17T12:09:51.999Z</time>
      </trkpt>
      <trkpt lat="48.584592" lon="10.088192">
        <ele>535.631265</ele>
        <time>2024-03-17T12:09:52.999Z</time>
      </trkpt>
      <trkpt lat="48.584550" lon="10.088051">
        <ele>535.325260</ele>
        <time>2024-03-17T12:09:53.999Z</time>
      </trkpt>
      <trkpt lat="48.584510" lon="10.087911">
        <ele>535.023480</ele>
        <time>2024-03-17T12:09:54.999Z</time>
      </trkpt>
      <trkpt lat="48.584469" lon="10.087774">
        <ele>534.725920</ele>
        <time>2024-03-17T12:09:55.999Z</time>
      </trkpt>
      <trkpt lat="48.584432" lon="10.087637">
        <ele>534.433089</ele>
        <time>2024-03-17T12:09:56.999Z</time>
      </trkpt>
      <trkpt lat="48.584399" lon="10.087500">
        <ele>534.144568</ele>
        <time>2024-03-17T12:09:57.999Z</time>
      </trkpt>
      <trkpt lat="48.584370" lon="10.087362">
        <ele>533.858033</ele>
        <time>2024-03-17T12:09:58.999Z</time>
      </trkpt>
      <trkpt lat="48.584344" lon="10.087225">
        <ele>533.575989</ele>
        <time>2024-03-17T12:09:59.999Z</time>
      </trkpt>
      <trkpt lat="48.584322" lon="10.087089">
        <ele>533.297969</ele>
        <time>2024-03-17T12:10:00.999Z</time>
      </trkpt>
      <trkpt lat="48.584301" lon="10.086953">
        <ele>533.020572</ele>
        <time>2024-03-17T12:10:01.999Z</time>
      </trkpt>
      <trkpt lat="48.584283" lon="10.086815">
        <ele>532.741185</ele>
        <time>2024-03-17T12:10:02.999Z</time>
      </trkpt>
      <trkpt lat="48.584267" lon="10.086674">
        <ele>532.457027</ele>
        <time>2024-03-17T12:10:03.999Z</time>
      </trkpt>
      <trkpt lat="48.584250" lon="10.086533">
        <ele>532.172346</ele>
        <time>2024-03-17T12:10:04.999Z</time>
      </trkpt>
      <trkpt lat="48.584235" lon="10.086390">
        <ele>531.884757</ele>
        <time>2024-03-17T12:10:05.999Z</time>
      </trkpt>
      <trkpt lat="48.584221" lon="10.086248">
        <ele>531.599587</ele>
        <time>2024-03-17T12:10:06.999Z</time>
      </trkpt>
      <trkpt lat="48.584211" lon="10.086104">
        <ele>531.311988</ele>
        <time>2024-03-17T12:10:07.999Z</time>
      </trkpt>
      <trkpt lat="48.584204" lon="10.085957">
        <ele>531.019247</ele>
        <time>2024-03-17T12:10:08.999Z</time>
      </trkpt>
      <trkpt lat="48.584202" lon="10.085810">
        <ele>530.727200</ele>
        <time>2024-03-17T12:10:09.999Z</time>
      </trkpt>
      <trkpt lat="48.584200" lon="10.085659">
        <ele>530.427208</ele>
        <time>2024-03-17T12:10:10.999Z</time>
      </trkpt>
      <trkpt lat="48.584198" lon="10.085508">
        <ele>530.127217</ele>
        <time>2024-03-17T12:10:11.999Z</time>
      </trkpt>
      <trkpt lat="48.584198" lon="10.085355">
        <ele>529.823314</ele>
        <time>2024-03-17T12:10:12.999Z</time>
      </trkpt>
      <trkpt lat="48.584201" lon="10.085198">
        <ele>529.511335</ele>
        <time>2024-03-17T12:10:13.999Z</time>
      </trkpt>
      <trkpt lat="48.584206" lon="10.085038">
        <ele>529.193173</ele>
        <time>2024-03-17T12:10:14.999Z</time>
      </trkpt>
      <trkpt lat="48.584211" lon="10.084877">
        <ele>528.873026</ele>
        <time>2024-03-17T12:10:15.999Z</time>
      </trkpt>
      <trkpt lat="48.584217" lon="10.084716">
        <ele>528.552725</ele>
        <time>2024-03-17T12:10:16.999Z</time>
      </trkpt>
      <trkpt lat="48.584226" lon="10.084549">
        <ele>528.219915</ele>
        <time>2024-03-17T12:10:17.999Z</time>
      </trkpt>
      <trkpt lat="48.584234" lon="10.084381">
        <ele>527.828105</ele>
        <time>2024-03-17T12:10:18.999Z</time>
      </trkpt>
      <trkpt lat="48.584241" lon="10.084212">
        <ele>527.420360</ele>
        <time>2024-03-17T12:10:19.999Z</time>
      </trkpt>
      <trkpt lat="48.584251" lon="10.084043">
        <ele>527.011788</ele>
        <time>2024-03-17T12:10:20.999Z</time>
      </trkpt>
      <trkpt lat="48.584256" lon="10.083872">
        <ele>526.599622</ele>
        <time>2024-03-17T12:10:21.999Z</time>
      </trkpt>
      <trkpt lat="48.584263" lon="10.083701">
        <ele>526.187071</ele>
        <time>2024-03-17T12:10:22.999Z</time>
      </trkpt>
      <trkpt lat="48.584272" lon="10.083527">
        <ele>525.766805</ele>
        <time>2024-03-17T12:10:23.999Z</time>
      </trkpt>
      <trkpt lat="48.584279" lon="10.083352">
        <ele>525.344640</ele>
        <time>2024-03-17T12:10:24.999Z</time>
      </trkpt>
      <trkpt lat="48.584287" lon="10.083177">
        <ele>524.922240</ele>
        <time>2024-03-17T12:10:25.999Z</time>
      </trkpt>
      <trkpt lat="48.584295" lon="10.083000">
        <ele>524.495035</ele>
        <time>2024-03-17T12:10:26.999Z</time>
      </trkpt>
      <trkpt lat="48.584304" lon="10.082828">
        <ele>524.079570</ele>
        <time>2024-03-17T12:10:27.999Z</time>
      </trkpt>
      <trkpt lat="48.584312" lon="10.082658">
        <ele>523.669180</ele>
        <time>2024-03-17T12:10:28.999Z</time>
      </trkpt>
      <trkpt lat="48.584318" lon="10.082491">
        <ele>523.266456</ele>
        <time>2024-03-17T12:10:29.999Z</time>
      </trkpt>
      <trkpt lat="48.584324" lon="10.082329">
        <ele>522.875754</ele>
        <time>2024-03-17T12:10:30.999Z</time>
      </trkpt>
      <trkpt lat="48.584328" lon="10.082169">
        <ele>522.490204</ele>
        <time>2024-03-17T12:10:31.999Z</time>
      </trkpt>
      <trkpt lat="48.584332" lon="10.082014">
        <ele>522.116684</ele>
        <time>2024-03-17T12:10:32.999Z</time>
      </trkpt>
      <trkpt lat="48.584338" lon="10.081860">
        <ele>521.745214</ele>
        <time>2024-03-17T12:10:33.999Z</time>
      </trkpt>
      <trkpt lat="48.584341" lon="10.081709">
        <ele>521.579314</ele>
        <time>2024-03-17T12:10:34.999Z</time>
      </trkpt>
      <trkpt lat="48.584347" lon="10.081562">
        <ele>521.534647</ele>
        <time>2024-03-17T12:10:35.999Z</time>
      </trkpt>
      <trkpt lat="48.584351" lon="10.081417">
        <ele>521.490633</ele>
        <time>2024-03-17T12:10:36.999Z</time>
      </trkpt>
      <trkpt lat="48.584355" lon="10.081269">
        <ele>521.445710</ele>
        <time>2024-03-17T12:10:37.999Z</time>
      </trkpt>
      <trkpt lat="48.584358" lon="10.081123">
        <ele>521.401410</ele>
        <time>2024-03-17T12:10:38.999Z</time>
      </trkpt>
      <trkpt lat="48.584360" lon="10.080975">
        <ele>521.356515</ele>
        <time>2024-03-17T12:10:39.999Z</time>
      </trkpt>
      <trkpt lat="48.584365" lon="10.080828">
        <ele>521.311874</ele>
        <time>2024-03-17T12:10:40.999Z</time>
      </trkpt>
      <trkpt lat="48.584367" lon="10.080678">
        <ele>521.266373</ele>
        <time>2024-03-17T12:10:41.999Z</time>
      </trkpt>
      <trkpt lat="48.584368" lon="10.080530">
        <ele>521.221485</ele>
        <time>2024-03-17T12:10:42.999Z</time>
      </trkpt>
      <trkpt lat="48.584372" lon="10.080381">
        <ele>521.176259</ele>
        <time>2024-03-17T12:10:43.999Z</time>
      </trkpt>
      <trkpt lat="48.584377" lon="10.080235">
        <ele>521.131921</ele>
        <time>2024-03-17T12:10:44.999Z</time>
      </trkpt>
      <trkpt lat="48.584378" lon="10.080093">
        <ele>521.088852</ele>
        <time>2024-03-17T12:10:45.999Z</time>
      </trkpt>
      <trkpt lat="48.584377" lon="10.079953">
        <ele>521.046391</ele>
        <time>2024-03-17T12:10:46.999Z</time>
      </trkpt>
      <trkpt lat="48.584379" lon="10.079815">
        <ele>521.004528</ele>
        <time>2024-03-17T12:10:47.999Z</time>
      </trkpt>
      <trkpt lat="48.584382" lon="10.079676">
        <ele>520.962349</ele>
        <time>2024-03-17T12:10:48.999Z</time>
      </trkpt>
      <trkpt lat="48.584385" lon="10.079538">
        <ele>520.920474</ele>
        <time>2024-03-17T12:10:49.999Z</time>
      </trkpt>
      <trkpt lat="48.584391" lon="10.079273">
        <ele>520.840058</ele>
        <time>2024-03-17T12:10:51.999Z</time>
      </trkpt>
      <trkpt lat="48.584392" lon="10.079010">
        <ele>520.794754</ele>
        <time>2024-03-17T12:10:53.999Z</time>
      </trkpt>
      <trkpt lat="48.584394" lon="10.078742">
        <ele>520.835668</ele>
        <time>2024-03-17T12:10:55.999Z</time>
      </trkpt>
      <trkpt lat="48.584395" lon="10.078474">
        <ele>520.876581</ele>
        <time>2024-03-17T12:10:57.999Z</time>
      </trkpt>
      <trkpt lat="48.584399" lon="10.078220">
        <ele>520.915366</ele>
        <time>2024-03-17T12:10:59.999Z</time>
      </trkpt>
      <trkpt lat="48.584403" lon="10.077973">
        <ele>520.953083</ele>
        <time>2024-03-17T12:11:01.999Z</time>
      </trkpt>
      <trkpt lat="48.584411" lon="10.077728">
        <ele>520.990529</ele>
        <time>2024-03-17T12:11:03.999Z</time>
      </trkpt>
      <trkpt lat="48.584415" lon="10.077486">
        <ele>521.027484</ele>
        <time>2024-03-17T12:11:05.999Z</time>
      </trkpt>
      <trkpt lat="48.584423" lon="10.077240">
        <ele>521.065082</ele>
        <time>2024-03-17T12:11:08.000Z</time>
      </trkpt>
      <trkpt lat="48.584440" lon="10.076995">
        <ele>521.102688</ele>
        <time>2024-03-17T12:11:10.000Z</time>
      </trkpt>
      <trkpt lat="48.584463" lon="10.076760">
        <ele>521.138953</ele>
        <time>2024-03-17T12:11:12.000Z</time>
      </trkpt>
      <trkpt lat="48.584486" lon="10.076527">
        <ele>521.174915</ele>
        <time>2024-03-17T12:11:14.000Z</time>
      </trkpt>
      <trkpt lat="48.584513" lon="10.076295">
        <ele>521.226440</ele>
        <time>2024-03-17T12:11:16.000Z</time>
      </trkpt>
      <trkpt lat="48.584545" lon="10.076061">
        <ele>521.308001</ele>
        <time>2024-03-17T12:11:18.000Z</time>
      </trkpt>
      <trkpt lat="48.584580" lon="10.075827">
        <ele>521.389890</ele>
        <time>2024-03-17T12:11:20.000Z</time>
      </trkpt>
      <trkpt lat="48.584618" lon="10.075592">
        <ele>521.472466</ele>
        <time>2024-03-17T12:11:22.000Z</time>
      </trkpt>
      <trkpt lat="48.584661" lon="10.075357">
        <ele>521.555692</ele>
        <time>2024-03-17T12:11:24.000Z</time>
      </trkpt>
      <trkpt lat="48.584711" lon="10.075126">
        <ele>521.638654</ele>
        <time>2024-03-17T12:11:26.000Z</time>
      </trkpt>
      <trkpt lat="48.584760" lon="10.074892">
        <ele>521.722432</ele>
        <time>2024-03-17T12:11:28.000Z</time>
      </trkpt>
      <trkpt lat="48.584812" lon="10.074663">
        <ele>521.805075</ele>
        <time>2024-03-17T12:11:30.000Z</time>
      </trkpt>
      <trkpt lat="48.584865" lon="10.074437">
        <ele>521.886921</ele>
        <time>2024-03-17T12:11:32.000Z</time>
      </trkpt>
      <trkpt lat="48.584912" lon="10.074215">
        <ele>521.966483</ele>
        <time>2024-03-17T12:11:34.000Z</time>
      </trkpt>
      <trkpt lat="48.584960" lon="10.074013">
        <ele>522.039746</ele>
        <time>2024-03-17T12:11:36.000Z</time>
      </trkpt>
      <trkpt lat="48.585002" lon="10.073821">
        <ele>522.108772</ele>
        <time>2024-03-17T12:11:38.000Z</time>
      </trkpt>
      <trkpt lat="48.585048" lon="10.073621">
        <ele>522.223756</ele>
        <time>2024-03-17T12:11:40.000Z</time>
      </trkpt>
      <trkpt lat="48.585100" lon="10.073416">
        <ele>522.357231</ele>
        <time>2024-03-17T12:11:42.000Z</time>
      </trkpt>
      <trkpt lat="48.585146" lon="10.073212">
        <ele>522.488257</ele>
        <time>2024-03-17T12:11:44.000Z</time>
      </trkpt>
      <trkpt lat="48.585194" lon="10.072997">
        <ele>522.626207</ele>
        <time>2024-03-17T12:11:46.000Z</time>
      </trkpt>
      <trkpt lat="48.585245" lon="10.072786">
        <ele>522.762776</ele>
        <time>2024-03-17T12:11:48.000Z</time>
      </trkpt>
      <trkpt lat="48.585290" lon="10.072574">
        <ele>522.898131</ele>
        <time>2024-03-17T12:11:50.000Z</time>
      </trkpt>
      <trkpt lat="48.585337" lon="10.072369">
        <ele>523.030030</ele>
        <time>2024-03-17T12:11:52.000Z</time>
      </trkpt>
      <trkpt lat="48.585383" lon="10.072162">
        <ele>523.162784</ele>
        <time>2024-03-17T12:11:54.000Z</time>
      </trkpt>
      <trkpt lat="48.585432" lon="10.071945">
        <ele>523.302179</ele>
        <time>2024-03-17T12:11:56.000Z</time>
      </trkpt>
      <trkpt lat="48.585483" lon="10.071734">
        <ele>523.438748</ele>
        <time>2024-03-17T12:11:58.000Z</time>
      </trkpt>
      <trkpt lat="48.585533" lon="10.071519">
        <ele>523.577295</ele>
        <time>2024-03-17T12:11:59.999Z</time>
      </trkpt>
      <trkpt lat="48.585583" lon="10.071304">
        <ele>523.715843</ele>
        <time>2024-03-17T12:12:01.999Z</time>
      </trkpt>
      <trkpt lat="48.585632" lon="10.071087">
        <ele>523.814844</ele>
        <time>2024-03-17T12:12:03.999Z</time>
      </trkpt>
      <trkpt lat="48.585683" lon="10.070872">
        <ele>523.879785</ele>
        <time>2024-03-17T12:12:05.999Z</time>
      </trkpt>
      <trkpt lat="48.585732" lon="10.070651">
        <ele>523.946056</ele>
        <time>2024-03-17T12:12:07.999Z</time>
      </trkpt>
      <trkpt lat="48.585780" lon="10.070430">
        <ele>524.012192</ele>
        <time>2024-03-17T12:12:09.999Z</time>
      </trkpt>
      <trkpt lat="48.585828" lon="10.070204">
        <ele>524.079679</ele>
        <time>2024-03-17T12:12:11.999Z</time>
      </trkpt>
      <trkpt lat="48.585881" lon="10.069985">
        <ele>524.145982</ele>
        <time>2024-03-17T12:12:13.999Z</time>
      </trkpt>
      <trkpt lat="48.585950" lon="10.069771">
        <ele>524.213670</ele>
        <time>2024-03-17T12:12:15.999Z</time>
      </trkpt>
      <trkpt lat="48.586036" lon="10.069576">
        <ele>524.280305</ele>
        <time>2024-03-17T12:12:17.999Z</time>
      </trkpt>
      <trkpt lat="48.586127" lon="10.069390">
        <ele>524.346081</ele>
        <time>2024-03-17T12:12:19.999Z</time>
      </trkpt>
      <trkpt lat="48.586221" lon="10.069209">
        <ele>524.411508</ele>
        <time>2024-03-17T12:12:21.999Z</time>
      </trkpt>
      <trkpt lat="48.586320" lon="10.069033">
        <ele>524.477194</ele>
        <time>2024-03-17T12:12:23.999Z</time>
      </trkpt>
      <trkpt lat="48.586418" lon="10.068857">
        <ele>524.542603</ele>
        <time>2024-03-17T12:12:25.999Z</time>
      </trkpt>
      <trkpt lat="48.586514" lon="10.068680">
        <ele>524.603826</ele>
        <time>2024-03-17T12:12:27.999Z</time>
      </trkpt>
      <trkpt lat="48.586610" lon="10.068506">
        <ele>524.663751</ele>
        <time>2024-03-17T12:12:29.999Z</time>
      </trkpt>
      <trkpt lat="48.586703" lon="10.068328">
        <ele>524.723742</ele>
        <time>2024-03-17T12:12:31.999Z</time>
      </trkpt>
      <trkpt lat="48.586799" lon="10.068149">
        <ele>524.784688</ele>
        <time>2024-03-17T12:12:33.999Z</time>
      </trkpt>
      <trkpt lat="48.586878" lon="10.067952">
        <ele>524.845617</ele>
        <time>2024-03-17T12:12:35.999Z</time>
      </trkpt>
      <trkpt lat="48.586944" lon="10.067747">
        <ele>524.905915</ele>
        <time>2024-03-17T12:12:37.999Z</time>
      </trkpt>
      <trkpt lat="48.586991" lon="10.067526">
        <ele>524.967311</ele>
        <time>2024-03-17T12:12:39.999Z</time>
      </trkpt>
      <trkpt lat="48.587035" lon="10.067297">
        <ele>525.030379</ele>
        <time>2024-03-17T12:12:41.999Z</time>
      </trkpt>
      <trkpt lat="48.587063" lon="10.067059">
        <ele>525.094312</ele>
        <time>2024-03-17T12:12:43.999Z</time>
      </trkpt>
      <trkpt lat="48.587072" lon="10.066816">
        <ele>525.158681</ele>
        <time>2024-03-17T12:12:45.999Z</time>
      </trkpt>
      <trkpt lat="48.587060" lon="10.066573">
        <ele>525.223127</ele>
        <time>2024-03-17T12:12:47.999Z</time>
      </trkpt>
      <trkpt lat="48.587027" lon="10.066334">
        <ele>525.350562</ele>
        <time>2024-03-17T12:12:49.999Z</time>
      </trkpt>
      <trkpt lat="48.586979" lon="10.066102">
        <ele>525.665559</ele>
        <time>2024-03-17T12:12:51.999Z</time>
      </trkpt>
      <trkpt lat="48.586937" lon="10.065870">
        <ele>525.977250</ele>
        <time>2024-03-17T12:12:53.999Z</time>
      </trkpt>
      <trkpt lat="48.586901" lon="10.065640">
        <ele>526.283523</ele>
        <time>2024-03-17T12:12:55.999Z</time>
      </trkpt>
      <trkpt lat="48.586859" lon="10.065433">
        <ele>526.564098</ele>
        <time>2024-03-17T12:12:57.999Z</time>
      </trkpt>
      <trkpt lat="48.586822" lon="10.065242">
        <ele>526.821999</ele>
        <time>2024-03-17T12:12:59.999Z</time>
      </trkpt>
      <trkpt lat="48.586788" lon="10.065048">
        <ele>527.082067</ele>
        <time>2024-03-17T12:13:01.999Z</time>
      </trkpt>
      <trkpt lat="48.586754" lon="10.064865">
        <ele>527.328383</ele>
        <time>2024-03-17T12:13:03.999Z</time>
      </trkpt>
      <trkpt lat="48.586721" lon="10.064696">
        <ele>527.556724</ele>
        <time>2024-03-17T12:13:05.999Z</time>
      </trkpt>
      <trkpt lat="48.586696" lon="10.064525">
        <ele>527.783661</ele>
        <time>2024-03-17T12:13:07.999Z</time>
      </trkpt>
      <trkpt lat="48.586664" lon="10.064365">
        <ele>528.000266</ele>
        <time>2024-03-17T12:13:09.999Z</time>
      </trkpt>
      <trkpt lat="48.586634" lon="10.064220">
        <ele>528.197141</ele>
        <time>2024-03-17T12:13:11.999Z</time>
      </trkpt>
      <trkpt lat="48.586606" lon="10.064088">
        <ele>528.376773</ele>
        <time>2024-03-17T12:13:14.000Z</time>
      </trkpt>
      <trkpt lat="48.586585" lon="10.063951">
        <ele>528.559008</ele>
        <time>2024-03-17T12:13:16.000Z</time>
      </trkpt>
      <trkpt lat="48.586560" lon="10.063815">
        <ele>528.741923</ele>
        <time>2024-03-17T12:13:18.000Z</time>
      </trkpt>
      <trkpt lat="48.586532" lon="10.063679">
        <ele>529.208959</ele>
        <time>2024-03-17T12:13:20.000Z</time>
      </trkpt>
      <trkpt lat="48.586510" lon="10.063545">
        <ele>529.772513</ele>
        <time>2024-03-17T12:13:22.000Z</time>
      </trkpt>
      <trkpt lat="48.586492" lon="10.063409">
        <ele>530.338638</ele>
        <time>2024-03-17T12:13:24.000Z</time>
      </trkpt>
      <trkpt lat="48.586469" lon="10.063274">
        <ele>530.907662</ele>
        <time>2024-03-17T12:13:26.000Z</time>
      </trkpt>
      <trkpt lat="48.586430" lon="10.063082">
        <ele>531.727481</ele>
        <time>2024-03-17T12:13:29.000Z</time>
      </trkpt>
      <trkpt lat="48.586395" lon="10.062891">
        <ele>532.536464</ele>
        <time>2024-03-17T12:13:32.000Z</time>
      </trkpt>
      <trkpt lat="48.586361" lon="10.062698">
        <ele>533.351708</ele>
        <time>2024-03-17T12:13:35.000Z</time>
      </trkpt>
      <trkpt lat="48.586326" lon="10.062508">
        <ele>534.156759</ele>
        <time>2024-03-17T12:13:38.000Z</time>
      </trkpt>
      <trkpt lat="48.586289" lon="10.062331">
        <ele>534.914454</ele>
        <time>2024-03-17T12:13:41.000Z</time>
      </trkpt>
      <trkpt lat="48.586260" lon="10.062155">
        <ele>535.654803</ele>
        <time>2024-03-17T12:13:44.000Z</time>
      </trkpt>
      <trkpt lat="48.586225" lon="10.061960">
        <ele>536.479534</ele>
        <time>2024-03-17T12:13:47.000Z</time>
      </trkpt>
      <trkpt lat="48.586199" lon="10.061828">
        <ele>537.041711</ele>
        <time>2024-03-17T12:13:49.000Z</time>
      </trkpt>
      <trkpt lat="48.586161" lon="10.061654">
        <ele>537.789652</ele>
        <time>2024-03-17T12:13:52.000Z</time>
      </trkpt>
      <trkpt lat="48.586134" lon="10.061487">
        <ele>538.491379</ele>
        <time>2024-03-17T12:13:55.000Z</time>
      </trkpt>
      <trkpt lat="48.586107" lon="10.061321">
        <ele>539.189143</ele>
        <time>2024-03-17T12:13:58.000Z</time>
      </trkpt>
      <trkpt lat="48.586078" lon="10.061143">
        <ele>539.960178</ele>
        <time>2024-03-17T12:14:01.000Z</time>
      </trkpt>
      <trkpt lat="48.586048" lon="10.060974">
        <ele>541.047274</ele>
        <time>2024-03-17T12:14:03.999Z</time>
      </trkpt>
      <trkpt lat="48.586019" lon="10.060798">
        <ele>542.174124</ele>
        <time>2024-03-17T12:14:06.999Z</time>
      </trkpt>
      <trkpt lat="48.585982" lon="10.060632">
        <ele>543.262408</ele>
        <time>2024-03-17T12:14:09.999Z</time>
      </trkpt>
      <trkpt lat="48.585945" lon="10.060459">
        <ele>544.391990</ele>
        <time>2024-03-17T12:14:12.999Z</time>
      </trkpt>
      <trkpt lat="48.585891" lon="10.060296">
        <ele>545.524565</ele>
        <time>2024-03-17T12:14:15.999Z</time>
      </trkpt>
      <trkpt lat="48.585834" lon="10.060144">
        <ele>546.610088</ele>
        <time>2024-03-17T12:14:18.999Z</time>
      </trkpt>
      <trkpt lat="48.585778" lon="10.059994">
        <ele>547.680173</ele>
        <time>2024-03-17T12:14:21.999Z</time>
      </trkpt>
      <trkpt lat="48.585730" lon="10.059844">
        <ele>548.715399</ele>
        <time>2024-03-17T12:14:24.999Z</time>
      </trkpt>
      <trkpt lat="48.585670" lon="10.059683">
        <ele>549.863466</ele>
        <time>2024-03-17T12:14:27.999Z</time>
      </trkpt>
      <trkpt lat="48.585609" lon="10.059536">
        <ele>550.941565</ele>
        <time>2024-03-17T12:14:30.999Z</time>
      </trkpt>
      <trkpt lat="48.585563" lon="10.059371">
        <ele>552.053992</ele>
        <time>2024-03-17T12:14:33.999Z</time>
      </trkpt>
      <trkpt lat="48.585516" lon="10.059246">
        <ele>552.947276</ele>
        <time>2024-03-17T12:14:36.999Z</time>
      </trkpt>
      <trkpt lat="48.585471" lon="10.059107">
        <ele>553.908727</ele>
        <time>2024-03-17T12:14:39.999Z</time>
      </trkpt>
      <trkpt lat="48.585420" lon="10.058950">
        <ele>554.995396</ele>
        <time>2024-03-17T12:14:42.999Z</time>
      </trkpt>
      <trkpt lat="48.585373" lon="10.058785">
        <ele>556.111508</ele>
        <time>2024-03-17T12:14:45.999Z</time>
      </trkpt>
      <trkpt lat="48.585325" lon="10.058623">
        <ele>557.000750</ele>
        <time>2024-03-17T12:14:48.999Z</time>
      </trkpt>
      <trkpt lat="48.585278" lon="10.058463">
        <ele>557.545342</ele>
        <time>2024-03-17T12:14:51.999Z</time>
      </trkpt>
      <trkpt lat="48.585234" lon="10.058298">
        <ele>558.098758</ele>
        <time>2024-03-17T12:14:54.999Z</time>
      </trkpt>
      <trkpt lat="48.585195" lon="10.058119">
        <ele>558.685014</ele>
        <time>2024-03-17T12:14:57.999Z</time>
      </trkpt>
      <trkpt lat="48.585153" lon="10.057952">
        <ele>559.240794</ele>
        <time>2024-03-17T12:15:00.999Z</time>
      </trkpt>
      <trkpt lat="48.585132" lon="10.057761">
        <ele>559.843106</ele>
        <time>2024-03-17T12:15:03.999Z</time>
      </trkpt>
      <trkpt lat="48.585097" lon="10.057583">
        <ele>560.420771</ele>
        <time>2024-03-17T12:15:06.999Z</time>
      </trkpt>
      <trkpt lat="48.585072" lon="10.057394">
        <ele>561.020350</ele>
        <time>2024-03-17T12:15:09.999Z</time>
      </trkpt>
      <trkpt lat="48.585049" lon="10.057207">
        <ele>561.612038</ele>
        <time>2024-03-17T12:15:12.999Z</time>
      </trkpt>
      <trkpt lat="48.585021" lon="10.057026">
        <ele>562.190283</ele>
        <time>2024-03-17T12:15:15.999Z</time>
      </trkpt>
      <trkpt lat="48.584988" lon="10.056844">
        <ele>562.777332</ele>
        <time>2024-03-17T12:15:19.000Z</time>
      </trkpt>
      <trkpt lat="48.584960" lon="10.056660">
        <ele>563.364669</ele>
        <time>2024-03-17T12:15:22.000Z</time>
      </trkpt>
      <trkpt lat="48.584929" lon="10.056478">
        <ele>563.949302</ele>
        <time>2024-03-17T12:15:25.000Z</time>
      </trkpt>
      <trkpt lat="48.584906" lon="10.056293">
        <ele>564.534876</ele>
        <time>2024-03-17T12:15:28.000Z</time>
      </trkpt>
      <trkpt lat="48.584879" lon="10.056103">
        <ele>565.139413</ele>
        <time>2024-03-17T12:15:31.000Z</time>
      </trkpt>
      <trkpt lat="48.584848" lon="10.055912">
        <ele>565.756608</ele>
        <time>2024-03-17T12:15:34.000Z</time>
      </trkpt>
      <trkpt lat="48.584817" lon="10.055735">
        <ele>566.332277</ele>
        <time>2024-03-17T12:15:37.000Z</time>
      </trkpt>
      <trkpt lat="48.584770" lon="10.055558">
        <ele>566.931932</ele>
        <time>2024-03-17T12:15:40.000Z</time>
      </trkpt>
      <trkpt lat="48.584714" lon="10.055385">
        <ele>567.537479</ele>
        <time>2024-03-17T12:15:43.000Z</time>
      </trkpt>
      <trkpt lat="48.584654" lon="10.055213">
        <ele>568.148838</ele>
        <time>2024-03-17T12:15:46.000Z</time>
      </trkpt>
      <trkpt lat="48.584588" lon="10.055040">
        <ele>568.776730</ele>
        <time>2024-03-17T12:15:49.000Z</time>
      </trkpt>
      <trkpt lat="48.584502" lon="10.054889">
        <ele>569.403196</ele>
        <time>2024-03-17T12:15:52.000Z</time>
      </trkpt>
      <trkpt lat="48.584417" lon="10.054744">
        <ele>570.012328</ele>
        <time>2024-03-17T12:15:55.000Z</time>
      </trkpt>
      <trkpt lat="48.584335" lon="10.054599">
        <ele>570.612099</ele>
        <time>2024-03-17T12:15:58.000Z</time>
      </trkpt>
      <trkpt lat="48.584276" lon="10.054495">
        <ele>571.042855</ele>
        <time>2024-03-17T12:16:00.000Z</time>
      </trkpt>
      <trkpt lat="48.584197" lon="10.054332">
        <ele>571.678166</ele>
        <time>2024-03-17T12:16:03.000Z</time>
      </trkpt>
      <trkpt lat="48.584116" lon="10.054170">
        <ele>572.316629</ele>
        <time>2024-03-17T12:16:06.000Z</time>
      </trkpt>
      <trkpt lat="48.584036" lon="10.054006">
        <ele>572.957289</ele>
        <time>2024-03-17T12:16:09.000Z</time>
      </trkpt>
      <trkpt lat="48.583989" lon="10.053886">
        <ele>573.395750</ele>
        <time>2024-03-17T12:16:10.999Z</time>
      </trkpt>
      <trkpt lat="48.583947" lon="10.053760">
        <ele>573.824479</ele>
        <time>2024-03-17T12:16:12.999Z</time>
      </trkpt>
      <trkpt lat="48.583911" lon="10.053635">
        <ele>574.114198</ele>
        <time>2024-03-17T12:16:14.999Z</time>
      </trkpt>
      <trkpt lat="48.583881" lon="10.053504">
        <ele>574.408795</ele>
        <time>2024-03-17T12:16:16.999Z</time>
      </trkpt>
      <trkpt lat="48.583843" lon="10.053307">
        <ele>574.844873</ele>
        <time>2024-03-17T12:16:19.999Z</time>
      </trkpt>
      <trkpt lat="48.583815" lon="10.053174">
        <ele>575.141478</ele>
        <time>2024-03-17T12:16:21.999Z</time>
      </trkpt>
      <trkpt lat="48.583769" lon="10.052996">
        <ele>575.547585</ele>
        <time>2024-03-17T12:16:24.999Z</time>
      </trkpt>
      <trkpt lat="48.583753" lon="10.052858">
        <ele>575.845318</ele>
        <time>2024-03-17T12:16:26.999Z</time>
      </trkpt>
      <trkpt lat="48.583725" lon="10.052727">
        <ele>576.137877</ele>
        <time>2024-03-17T12:16:28.999Z</time>
      </trkpt>
      <trkpt lat="48.583697" lon="10.052594">
        <ele>576.434483</ele>
        <time>2024-03-17T12:16:30.999Z</time>
      </trkpt>
      <trkpt lat="48.583662" lon="10.052422">
        <ele>576.816902</ele>
        <time>2024-03-17T12:16:33.999Z</time>
      </trkpt>
      <trkpt lat="48.583627" lon="10.052267">
        <ele>577.164954</ele>
        <time>2024-03-17T12:16:35.999Z</time>
      </trkpt>
      <trkpt lat="48.583589" lon="10.052130">
        <ele>577.480650</ele>
        <time>2024-03-17T12:16:37.999Z</time>
      </trkpt>
      <trkpt lat="48.583559" lon="10.051993">
        <ele>577.787325</ele>
        <time>2024-03-17T12:16:39.999Z</time>
      </trkpt>
      <trkpt lat="48.583536" lon="10.051841">
        <ele>578.118684</ele>
        <time>2024-03-17T12:16:41.999Z</time>
      </trkpt>
      <trkpt lat="48.583513" lon="10.051694">
        <ele>578.439694</ele>
        <time>2024-03-17T12:16:43.999Z</time>
      </trkpt>
      <trkpt lat="48.583493" lon="10.051544">
        <ele>578.764870</ele>
        <time>2024-03-17T12:16:45.999Z</time>
      </trkpt>
      <trkpt lat="48.583469" lon="10.051397">
        <ele>579.086635</ele>
        <time>2024-03-17T12:16:47.999Z</time>
      </trkpt>
      <trkpt lat="48.583450" lon="10.051255">
        <ele>579.394511</ele>
        <time>2024-03-17T12:16:49.999Z</time>
      </trkpt>
      <trkpt lat="48.583425" lon="10.051112">
        <ele>579.637505</ele>
        <time>2024-03-17T12:16:51.999Z</time>
      </trkpt>
      <trkpt lat="48.583406" lon="10.050970">
        <ele>579.785517</ele>
        <time>2024-03-17T12:16:53.999Z</time>
      </trkpt>
      <trkpt lat="48.583384" lon="10.050824">
        <ele>579.938498</ele>
        <time>2024-03-17T12:16:55.999Z</time>
      </trkpt>
      <trkpt lat="48.583368" lon="10.050680">
        <ele>580.087677</ele>
        <time>2024-03-17T12:16:57.999Z</time>
      </trkpt>
      <trkpt lat="48.583355" lon="10.050534">
        <ele>580.238183</ele>
        <time>2024-03-17T12:16:59.999Z</time>
      </trkpt>
      <trkpt lat="48.583343" lon="10.050382">
        <ele>580.394576</ele>
        <time>2024-03-17T12:17:01.999Z</time>
      </trkpt>
      <trkpt lat="48.583336" lon="10.050230">
        <ele>580.550243</ele>
        <time>2024-03-17T12:17:03.999Z</time>
      </trkpt>
      <trkpt lat="48.583336" lon="10.050076">
        <ele>580.707577</ele>
        <time>2024-03-17T12:17:05.999Z</time>
      </trkpt>
      <trkpt lat="48.583337" lon="10.049916">
        <ele>580.871049</ele>
        <time>2024-03-17T12:17:07.999Z</time>
      </trkpt>
      <trkpt lat="48.583342" lon="10.049756">
        <ele>581.034695</ele>
        <time>2024-03-17T12:17:09.999Z</time>
      </trkpt>
      <trkpt lat="48.583344" lon="10.049594">
        <ele>581.200232</ele>
        <time>2024-03-17T12:17:11.999Z</time>
      </trkpt>
      <trkpt lat="48.583353" lon="10.049431">
        <ele>581.367340</ele>
        <time>2024-03-17T12:17:13.999Z</time>
      </trkpt>
      <trkpt lat="48.583363" lon="10.049263">
        <ele>581.539671</ele>
        <time>2024-03-17T12:17:15.999Z</time>
      </trkpt>
      <trkpt lat="48.583373" lon="10.049099">
        <ele>581.707932</ele>
        <time>2024-03-17T12:17:17.999Z</time>
      </trkpt>
      <trkpt lat="48.583386" lon="10.048937">
        <ele>581.874652</ele>
        <time>2024-03-17T12:17:19.999Z</time>
      </trkpt>
      <trkpt lat="48.583399" lon="10.048775">
        <ele>582.041373</ele>
        <time>2024-03-17T12:17:21.999Z</time>
      </trkpt>
      <trkpt lat="48.583407" lon="10.048616">
        <ele>582.204285</ele>
        <time>2024-03-17T12:17:23.999Z</time>
      </trkpt>
      <trkpt lat="48.583403" lon="10.048454">
        <ele>582.391675</ele>
        <time>2024-03-17T12:17:26.000Z</time>
      </trkpt>
      <trkpt lat="48.583397" lon="10.048294">
        <ele>582.727892</ele>
        <time>2024-03-17T12:17:28.000Z</time>
      </trkpt>
      <trkpt lat="48.583394" lon="10.048154">
        <ele>583.021765</ele>
        <time>2024-03-17T12:17:30.000Z</time>
      </trkpt>
      <trkpt lat="48.583376" lon="10.047965">
        <ele>583.422374</ele>
        <time>2024-03-17T12:17:33.000Z</time>
      </trkpt>
      <trkpt lat="48.583362" lon="10.047790">
        <ele>583.792198</ele>
        <time>2024-03-17T12:17:36.000Z</time>
      </trkpt>
      <trkpt lat="48.583338" lon="10.047611">
        <ele>584.175374</ele>
        <time>2024-03-17T12:17:39.000Z</time>
      </trkpt>
      <trkpt lat="48.583315" lon="10.047474">
        <ele>584.471911</ele>
        <time>2024-03-17T12:17:41.000Z</time>
      </trkpt>
      <trkpt lat="48.583293" lon="10.047342">
        <ele>584.757500</ele>
        <time>2024-03-17T12:17:43.000Z</time>
      </trkpt>
      <trkpt lat="48.583257" lon="10.047153">
        <ele>585.170131</ele>
        <time>2024-03-17T12:17:46.000Z</time>
      </trkpt>
      <trkpt lat="48.583234" lon="10.047013">
        <ele>585.472773</ele>
        <time>2024-03-17T12:17:48.000Z</time>
      </trkpt>
      <trkpt lat="48.583210" lon="10.046868">
        <ele>585.786360</ele>
        <time>2024-03-17T12:17:50.000Z</time>
      </trkpt>
      <trkpt lat="48.583187" lon="10.046729">
        <ele>586.086966</ele>
        <time>2024-03-17T12:17:52.000Z</time>
      </trkpt>
      <trkpt lat="48.583161" lon="10.046580">
        <ele>586.410261</ele>
        <time>2024-03-17T12:17:54.000Z</time>
      </trkpt>
      <trkpt lat="48.583141" lon="10.046432">
        <ele>586.727177</ele>
        <time>2024-03-17T12:17:56.000Z</time>
      </trkpt>
      <trkpt lat="48.583126" lon="10.046287">
        <ele>587.035085</ele>
        <time>2024-03-17T12:17:58.000Z</time>
      </trkpt>
      <trkpt lat="48.583117" lon="10.046131">
        <ele>587.363616</ele>
        <time>2024-03-17T12:18:00.000Z</time>
      </trkpt>
      <trkpt lat="48.583106" lon="10.045978">
        <ele>587.686500</ele>
        <time>2024-03-17T12:18:02.000Z</time>
      </trkpt>
      <trkpt lat="48.583102" lon="10.045825">
        <ele>588.007745</ele>
        <time>2024-03-17T12:18:04.000Z</time>
      </trkpt>
      <trkpt lat="48.583101" lon="10.045670">
        <ele>588.427475</ele>
        <time>2024-03-17T12:18:06.000Z</time>
      </trkpt>
      <trkpt lat="48.583105" lon="10.045517">
        <ele>588.857385</ele>
        <time>2024-03-17T12:18:08.000Z</time>
      </trkpt>
      <trkpt lat="48.583115" lon="10.045355">
        <ele>589.314205</ele>
        <time>2024-03-17T12:18:10.000Z</time>
      </trkpt>
      <trkpt lat="48.583126" lon="10.045197">
        <ele>589.760268</ele>
        <time>2024-03-17T12:18:12.000Z</time>
      </trkpt>
      <trkpt lat="48.583138" lon="10.045043">
        <ele>590.195640</ele>
        <time>2024-03-17T12:18:14.000Z</time>
      </trkpt>
      <trkpt lat="48.583155" lon="10.044883">
        <ele>590.650626</ele>
        <time>2024-03-17T12:18:16.000Z</time>
      </trkpt>
      <trkpt lat="48.583171" lon="10.044719">
        <ele>591.116065</ele>
        <time>2024-03-17T12:18:18.000Z</time>
      </trkpt>
      <trkpt lat="48.583187" lon="10.044560">
        <ele>591.567621</ele>
        <time>2024-03-17T12:18:20.000Z</time>
      </trkpt>
      <trkpt lat="48.583203" lon="10.044404">
        <ele>592.010851</ele>
        <time>2024-03-17T12:18:21.999Z</time>
      </trkpt>
      <trkpt lat="48.583221" lon="10.044249">
        <ele>592.452695</ele>
        <time>2024-03-17T12:18:23.999Z</time>
      </trkpt>
      <trkpt lat="48.583238" lon="10.044091">
        <ele>592.902136</ele>
        <time>2024-03-17T12:18:25.999Z</time>
      </trkpt>
      <trkpt lat="48.583251" lon="10.043938">
        <ele>593.335239</ele>
        <time>2024-03-17T12:18:27.999Z</time>
      </trkpt>
      <trkpt lat="48.583270" lon="10.043778">
        <ele>593.791646</ele>
        <time>2024-03-17T12:18:29.999Z</time>
      </trkpt>
      <trkpt lat="48.583283" lon="10.043627">
        <ele>594.219179</ele>
        <time>2024-03-17T12:18:31.999Z</time>
      </trkpt>
      <trkpt lat="48.583299" lon="10.043475">
        <ele>594.651314</ele>
        <time>2024-03-17T12:18:33.999Z</time>
      </trkpt>
      <trkpt lat="48.583312" lon="10.043323">
        <ele>595.081631</ele>
        <time>2024-03-17T12:18:35.999Z</time>
      </trkpt>
      <trkpt lat="48.583330" lon="10.043169">
        <ele>595.520709</ele>
        <time>2024-03-17T12:18:37.999Z</time>
      </trkpt>
      <trkpt lat="48.583350" lon="10.043016">
        <ele>595.828905</ele>
        <time>2024-03-17T12:18:39.999Z</time>
      </trkpt>
      <trkpt lat="48.583366" lon="10.042863">
        <ele>596.055902</ele>
        <time>2024-03-17T12:18:41.999Z</time>
      </trkpt>
      <trkpt lat="48.583377" lon="10.042709">
        <ele>596.282892</ele>
        <time>2024-03-17T12:18:43.999Z</time>
      </trkpt>
      <trkpt lat="48.583394" lon="10.042555">
        <ele>596.511690</ele>
        <time>2024-03-17T12:18:45.999Z</time>
      </trkpt>
      <trkpt lat="48.583412" lon="10.042394">
        <ele>596.750972</ele>
        <time>2024-03-17T12:18:47.999Z</time>
      </trkpt>
      <trkpt lat="48.583426" lon="10.042233">
        <ele>596.988937</ele>
        <time>2024-03-17T12:18:49.999Z</time>
      </trkpt>
      <trkpt lat="48.583439" lon="10.042071">
        <ele>597.228079</ele>
        <time>2024-03-17T12:18:51.999Z</time>
      </trkpt>
      <trkpt lat="48.583448" lon="10.041910">
        <ele>597.464856</ele>
        <time>2024-03-17T12:18:53.999Z</time>
      </trkpt>
      <trkpt lat="48.583455" lon="10.041748">
        <ele>597.702763</ele>
        <time>2024-03-17T12:18:55.999Z</time>
      </trkpt>
      <trkpt lat="48.583461" lon="10.041579">
        <ele>597.950779</ele>
        <time>2024-03-17T12:18:57.999Z</time>
      </trkpt>
      <trkpt lat="48.583467" lon="10.041411">
        <ele>598.197331</ele>
        <time>2024-03-17T12:18:59.999Z</time>
      </trkpt>
      <trkpt lat="48.583470" lon="10.041242">
        <ele>598.445080</ele>
        <time>2024-03-17T12:19:01.999Z</time>
      </trkpt>
      <trkpt lat="48.583468" lon="10.041072">
        <ele>598.694244</ele>
        <time>2024-03-17T12:19:03.999Z</time>
      </trkpt>
      <trkpt lat="48.583463" lon="10.040901">
        <ele>598.945079</ele>
        <time>2024-03-17T12:19:05.999Z</time>
      </trkpt>
      <trkpt lat="48.583458" lon="10.040729">
        <ele>599.197377</ele>
        <time>2024-03-17T12:19:07.999Z</time>
      </trkpt>
      <trkpt lat="48.583452" lon="10.040554">
        <ele>599.454174</ele>
        <time>2024-03-17T12:19:09.999Z</time>
      </trkpt>
      <trkpt lat="48.583444" lon="10.040376">
        <ele>599.663046</ele>
        <time>2024-03-17T12:19:11.999Z</time>
      </trkpt>
      <trkpt lat="48.583438" lon="10.040196">
        <ele>599.610794</ele>
        <time>2024-03-17T12:19:13.999Z</time>
      </trkpt>
      <trkpt lat="48.583430" lon="10.040024">
        <ele>599.560804</ele>
        <time>2024-03-17T12:19:15.999Z</time>
      </trkpt>
      <trkpt lat="48.583418" lon="10.039844">
        <ele>599.508354</ele>
        <time>2024-03-17T12:19:17.999Z</time>
      </trkpt>
      <trkpt lat="48.583414" lon="10.039655">
        <ele>599.453531</ele>
        <time>2024-03-17T12:19:19.999Z</time>
      </trkpt>
      <trkpt lat="48.583404" lon="10.039477">
        <ele>599.401739</ele>
        <time>2024-03-17T12:19:21.999Z</time>
      </trkpt>
      <trkpt lat="48.583392" lon="10.039311">
        <ele>599.353325</ele>
        <time>2024-03-17T12:19:23.999Z</time>
      </trkpt>
      <trkpt lat="48.583390" lon="10.039165">
        <ele>599.310988</ele>
        <time>2024-03-17T12:19:25.999Z</time>
      </trkpt>
      <trkpt lat="48.583455" lon="10.039003">
        <ele>599.256057</ele>
        <time>2024-03-17T12:19:28.999Z</time>
      </trkpt>
      <trkpt lat="48.583487" lon="10.038671">
        <ele>599.158786</ele>
        <time>2024-03-17T12:20:01.000Z</time>
      </trkpt>
      <trkpt lat="48.583447" lon="10.038499">
        <ele>599.105928</ele>
        <time>2024-03-17T12:20:03.000Z</time>
      </trkpt>
      <trkpt lat="48.583413" lon="10.038317">
        <ele>599.051099</ele>
        <time>2024-03-17T12:20:05.000Z</time>
      </trkpt>
      <trkpt lat="48.583375" lon="10.038137">
        <ele>598.996320</ele>
        <time>2024-03-17T12:20:07.000Z</time>
      </trkpt>
      <trkpt lat="48.583336" lon="10.037949">
        <ele>598.939197</ele>
        <time>2024-03-17T12:20:09.000Z</time>
      </trkpt>
      <trkpt lat="48.583293" lon="10.037759">
        <ele>598.886136</ele>
        <time>2024-03-17T12:20:11.000Z</time>
      </trkpt>
      <trkpt lat="48.583248" lon="10.037567">
        <ele>598.950009</ele>
        <time>2024-03-17T12:20:13.000Z</time>
      </trkpt>
      <trkpt lat="48.583200" lon="10.037376">
        <ele>599.014078</ele>
        <time>2024-03-17T12:20:15.000Z</time>
      </trkpt>
      <trkpt lat="48.583151" lon="10.037193">
        <ele>599.075984</ele>
        <time>2024-03-17T12:20:17.000Z</time>
      </trkpt>
      <trkpt lat="48.583106" lon="10.037003">
        <ele>599.139266</ele>
        <time>2024-03-17T12:20:19.000Z</time>
      </trkpt>
      <trkpt lat="48.583056" lon="10.036816">
        <ele>599.202513</ele>
        <time>2024-03-17T12:20:21.000Z</time>
      </trkpt>
      <trkpt lat="48.583012" lon="10.036628">
        <ele>599.265045</ele>
        <time>2024-03-17T12:20:23.000Z</time>
      </trkpt>
      <trkpt lat="48.582966" lon="10.036442">
        <ele>599.327312</ele>
        <time>2024-03-17T12:20:24.999Z</time>
      </trkpt>
      <trkpt lat="48.582921" lon="10.036254">
        <ele>599.390004</ele>
        <time>2024-03-17T12:20:26.999Z</time>
      </trkpt>
      <trkpt lat="48.582880" lon="10.036070">
        <ele>599.450887</ele>
        <time>2024-03-17T12:20:28.999Z</time>
      </trkpt>
      <trkpt lat="48.582841" lon="10.035879">
        <ele>599.513568</ele>
        <time>2024-03-17T12:20:30.999Z</time>
      </trkpt>
      <trkpt lat="48.582803" lon="10.035697">
        <ele>599.573414</ele>
        <time>2024-03-17T12:20:32.999Z</time>
      </trkpt>
      <trkpt lat="48.582769" lon="10.035510">
        <ele>599.634227</ele>
        <time>2024-03-17T12:20:34.999Z</time>
      </trkpt>
      <trkpt lat="48.582731" lon="10.035328">
        <ele>599.694072</ele>
        <time>2024-03-17T12:20:36.999Z</time>
      </trkpt>
      <trkpt lat="48.582697" lon="10.035145">
        <ele>599.797161</ele>
        <time>2024-03-17T12:20:38.999Z</time>
      </trkpt>
      <trkpt lat="48.582664" lon="10.034958">
        <ele>600.007399</ele>
        <time>2024-03-17T12:20:40.999Z</time>
      </trkpt>
      <trkpt lat="48.582638" lon="10.034762">
        <ele>600.224548</ele>
        <time>2024-03-17T12:20:42.999Z</time>
      </trkpt>
      <trkpt lat="48.582606" lon="10.034580">
        <ele>600.429115</ele>
        <time>2024-03-17T12:20:44.999Z</time>
      </trkpt>
      <trkpt lat="48.582576" lon="10.034395">
        <ele>600.636026</ele>
        <time>2024-03-17T12:20:46.999Z</time>
      </trkpt>
      <trkpt lat="48.582545" lon="10.034211">
        <ele>600.842282</ele>
        <time>2024-03-17T12:20:48.999Z</time>
      </trkpt>
      <trkpt lat="48.582518" lon="10.034022">
        <ele>601.052322</ele>
        <time>2024-03-17T12:20:50.999Z</time>
      </trkpt>
      <trkpt lat="48.582494" lon="10.033840">
        <ele>601.253915</ele>
        <time>2024-03-17T12:20:52.999Z</time>
      </trkpt>
      <trkpt lat="48.582469" lon="10.033658">
        <ele>601.455835</ele>
        <time>2024-03-17T12:20:54.999Z</time>
      </trkpt>
      <trkpt lat="48.582439" lon="10.033479">
        <ele>601.656423</ele>
        <time>2024-03-17T12:20:56.999Z</time>
      </trkpt>
      <trkpt lat="48.582412" lon="10.033299">
        <ele>601.856918</ele>
        <time>2024-03-17T12:20:58.999Z</time>
      </trkpt>
      <trkpt lat="48.582389" lon="10.033119">
        <ele>602.056063</ele>
        <time>2024-03-17T12:21:00.999Z</time>
      </trkpt>
      <trkpt lat="48.582357" lon="10.032941">
        <ele>602.256434</ele>
        <time>2024-03-17T12:21:02.999Z</time>
      </trkpt>
      <trkpt lat="48.582328" lon="10.032765">
        <ele>602.453462</ele>
        <time>2024-03-17T12:21:04.999Z</time>
      </trkpt>
      <trkpt lat="48.582303" lon="10.032580">
        <ele>602.658575</ele>
        <time>2024-03-17T12:21:06.999Z</time>
      </trkpt>
      <trkpt lat="48.582278" lon="10.032396">
        <ele>602.893112</ele>
        <time>2024-03-17T12:21:08.999Z</time>
      </trkpt>
      <trkpt lat="48.582250" lon="10.032217">
        <ele>603.128104</ele>
        <time>2024-03-17T12:21:10.999Z</time>
      </trkpt>
      <trkpt lat="48.582228" lon="10.032037">
        <ele>603.361960</ele>
        <time>2024-03-17T12:21:12.999Z</time>
      </trkpt>
      <trkpt lat="48.582204" lon="10.031850">
        <ele>603.605322</ele>
        <time>2024-03-17T12:21:14.999Z</time>
      </trkpt>
      <trkpt lat="48.582181" lon="10.031667">
        <ele>603.843301</ele>
        <time>2024-03-17T12:21:16.999Z</time>
      </trkpt>
      <trkpt lat="48.582154" lon="10.031480">
        <ele>604.087833</ele>
        <time>2024-03-17T12:21:18.999Z</time>
      </trkpt>
      <trkpt lat="48.582126" lon="10.031285">
        <ele>604.342762</ele>
        <time>2024-03-17T12:21:20.999Z</time>
      </trkpt>
      <trkpt lat="48.582103" lon="10.031096">
        <ele>604.588277</ele>
        <time>2024-03-17T12:21:22.999Z</time>
      </trkpt>
      <trkpt lat="48.582091" lon="10.030900">
        <ele>604.839753</ele>
        <time>2024-03-17T12:21:24.999Z</time>
      </trkpt>
      <trkpt lat="48.582094" lon="10.030704">
        <ele>605.090226</ele>
        <time>2024-03-17T12:21:26.999Z</time>
      </trkpt>
      <trkpt lat="48.582094" lon="10.030509">
        <ele>605.339355</ele>
        <time>2024-03-17T12:21:28.999Z</time>
      </trkpt>
      <trkpt lat="48.582091" lon="10.030317">
        <ele>605.584719</ele>
        <time>2024-03-17T12:21:30.999Z</time>
      </trkpt>
      <trkpt lat="48.582087" lon="10.030130">
        <ele>605.823752</ele>
        <time>2024-03-17T12:21:32.999Z</time>
      </trkpt>
      <trkpt lat="48.582081" lon="10.029944">
        <ele>606.061665</ele>
        <time>2024-03-17T12:21:34.999Z</time>
      </trkpt>
      <trkpt lat="48.582078" lon="10.029765">
        <ele>606.094273</ele>
        <time>2024-03-17T12:21:37.000Z</time>
      </trkpt>
      <trkpt lat="48.582069" lon="10.029580">
        <ele>605.966328</ele>
        <time>2024-03-17T12:21:39.000Z</time>
      </trkpt>
      <trkpt lat="48.582058" lon="10.029391">
        <ele>605.835466</ele>
        <time>2024-03-17T12:21:41.000Z</time>
      </trkpt>
      <trkpt lat="48.582045" lon="10.029210">
        <ele>605.709891</ele>
        <time>2024-03-17T12:21:43.000Z</time>
      </trkpt>
      <trkpt lat="48.582024" lon="10.029035">
        <ele>605.587218</ele>
        <time>2024-03-17T12:21:45.000Z</time>
      </trkpt>
      <trkpt lat="48.581995" lon="10.028852">
        <ele>605.457426</ele>
        <time>2024-03-17T12:21:47.000Z</time>
      </trkpt>
      <trkpt lat="48.581970" lon="10.028660">
        <ele>605.322457</ele>
        <time>2024-03-17T12:21:49.000Z</time>
      </trkpt>
      <trkpt lat="48.581942" lon="10.028465">
        <ele>605.184827</ele>
        <time>2024-03-17T12:21:51.000Z</time>
      </trkpt>
      <trkpt lat="48.581920" lon="10.028263">
        <ele>605.043625</ele>
        <time>2024-03-17T12:21:53.000Z</time>
      </trkpt>
      <trkpt lat="48.581903" lon="10.028048">
        <ele>604.894277</ele>
        <time>2024-03-17T12:21:55.000Z</time>
      </trkpt>
      <trkpt lat="48.581894" lon="10.027822">
        <ele>604.738115</ele>
        <time>2024-03-17T12:21:57.000Z</time>
      </trkpt>
      <trkpt lat="48.581891" lon="10.027589">
        <ele>604.577377</ele>
        <time>2024-03-17T12:21:59.000Z</time>
      </trkpt>
      <trkpt lat="48.581891" lon="10.027352">
        <ele>604.413910</ele>
        <time>2024-03-17T12:22:01.000Z</time>
      </trkpt>
      <trkpt lat="48.581895" lon="10.027108">
        <ele>604.287770</ele>
        <time>2024-03-17T12:22:03.000Z</time>
      </trkpt>
      <trkpt lat="48.581893" lon="10.026863">
        <ele>604.287770</ele>
        <time>2024-03-17T12:22:05.000Z</time>
      </trkpt>
      <trkpt lat="48.581905" lon="10.026604">
        <ele>604.287770</ele>
        <time>2024-03-17T12:22:07.000Z</time>
      </trkpt>
      <trkpt lat="48.581904" lon="10.026335">
        <ele>604.287770</ele>
        <time>2024-03-17T12:22:09.000Z</time>
      </trkpt>
      <trkpt lat="48.581909" lon="10.026199">
        <ele>604.287770</ele>
        <time>2024-03-17T12:22:10.000Z</time>
      </trkpt>
      <trkpt lat="48.581908" lon="10.025933">
        <ele>604.287770</ele>
        <time>2024-03-17T12:22:12.000Z</time>
      </trkpt>
      <trkpt lat="48.581889" lon="10.025668">
        <ele>604.287770</ele>
        <time>2024-03-17T12:22:14.000Z</time>
      </trkpt>
      <trkpt lat="48.581851" lon="10.025419">
        <ele>604.287770</ele>
        <time>2024-03-17T12:22:16.000Z</time>
      </trkpt>
      <trkpt lat="48.581800" lon="10.025177">
        <ele>604.287770</ele>
        <time>2024-03-17T12:22:18.000Z</time>
      </trkpt>
      <trkpt lat="48.581712" lon="10.024982">
        <ele>604.287770</ele>
        <time>2024-03-17T12:22:20.000Z</time>
      </trkpt>
      <trkpt lat="48.581559" lon="10.024892">
        <ele>604.287770</ele>
        <time>2024-03-17T12:22:22.000Z</time>
      </trkpt>
      <trkpt lat="48.581385" lon="10.024892">
        <ele>604.287770</ele>
        <time>2024-03-17T12:22:23.999Z</time>
      </trkpt>
      <trkpt lat="48.581235" lon="10.024890">
        <ele>604.287770</ele>
        <time>2024-03-17T12:22:25.999Z</time>
      </trkpt>
      <trkpt lat="48.581109" lon="10.024835">
        <ele>604.287770</ele>
        <time>2024-03-17T12:22:27.999Z</time>
      </trkpt>
      <trkpt lat="48.581005" lon="10.024804">
        <ele>604.287770</ele>
        <time>2024-03-17T12:22:29.999Z</time>
      </trkpt>
      <trkpt lat="48.580960" lon="10.024642">
        <ele>604.287770</ele>
        <time>2024-03-17T12:22:33.999Z</time>
      </trkpt>
      <trkpt lat="48.580923" lon="10.024774">
        <ele>604.287770</ele>
        <time>2024-03-17T12:22:48.999Z</time>
      </trkpt>
    </trkseg>
  </trk>
</gpx>